JPL-Sats

  Home –  History –  Credit –  Support –  Last_Sats –  Future_Sats –  C95_Ephs –  M58_Ephs –  I98_Ephs(T18) –  Q62_Ephs(T33) –  U94_Ephs(T68) –  Q20_Ephs –  Legal –  Privacy
Home   
History   
Credit   
Support   
Last_Sats   
Future_Sats   
C95_Ephs   
M58_Ephs   
I98_Ephs(T18)   
Q62_Ephs(T33)   
U94_Ephs(T68)   
Q20_Ephs   
Legal   
Privacy   

Index of all used observable objects

Wind (-8) TESS (-95) Chandra Observatory (-151) James Webb Space Telescope (-170) INTEGRAL (-198) Spektr-R Observatory (-557) Euclid (-680) CAPSTONE (-1176) Titan-3C RB (-102770) Gaia (-139479) MMS-1 (-140482) MMS-2 (-140483) MMS-3 (-140484) MMS-4 (-140485)

Missions with actual ephemerides

The ephemeris are downloaded by JPL Horizont:

  • Start of interval: 2024-04-14 00:00:00.
  • End of interval: 2024-04-28 00:00:00.
  • Time of interval: 10 min.
  • Station: Q20.
  • Created: 2024-Apr-14 03:55:48 UTC.

Wind (JPL-ID: -8)

   Date (UTC) HH:MM   RA              Dec         delta   r     elong SM  mag  '/hr    PA   alt  az moo ill
   ---- -- -- -----  -------------   -----------  ------ ------ ----- --  --- ------ ------ --- --- --- ---
   2024 04 15 08:20  02 23 22.97    +11 38 40.3   0.0087 0.9949  12.1 Cm  20?   3.58  73.7    7 289  73  45
   2024 04 15 08:30  02 23 25.36    +11 38 50.3   0.0087 0.9949  12.1 Cm  20?   3.73  74.5    5 288  73  45
   2024 04 15 08:40  02 23 27.86    +11 39 00.3   0.0087 0.9949  12.1 Cm  20?   3.87  75.2    3 286  73  45
   2024 04 15 08:50  02 23 30.46    +11 39 10.2   0.0087 0.9949  12.1 Nm  20?   4.02  75.9    1 285  73  45
   2024 04 15 09:00  02 23 33.16    +11 39 20.0   0.0087 0.9949  12.1 Nm  20?   4.17  76.5    0 283  73  45
   ................
   2024 04 16 08:20  02 30 44.67    +12 19 13.3   0.0087 0.9951  13.0 Cm  20?   3.44  74.6    7 290  83  55
   2024 04 16 08:30  02 30 46.99    +12 19 22.4   0.0087 0.9951  13.0 Cm  20?   3.58  75.4    5 289  83  55
   2024 04 16 08:40  02 30 49.40    +12 19 31.4   0.0087 0.9951  13.0 Cm  20?   3.73  76.1    3 287  83  55
   2024 04 16 08:50  02 30 51.92    +12 19 40.4   0.0087 0.9951  13.0 Nm  20?   3.88  76.8    1 286  83  55
   2024 04 16 09:00  02 30 54.55    +12 19 49.3   0.0087 0.9951  13.0 Nm  20?   4.02  77.4    0 285  83  55
   ................
   2024 04 17 08:20  02 37 59.87    +12 58 23.5   0.0088 0.9954  13.8 Cm  20?   3.30  75.5    7 291  94  65
   2024 04 17 08:30  02 38 02.11    +12 58 31.7   0.0088 0.9954  13.9 Cm  20?   3.44  76.3    5 290  94  65
   2024 04 17 08:40  02 38 04.44    +12 58 39.9   0.0088 0.9954  13.9 Cm  20?   3.58  77.0    4 288  94  65
   2024 04 17 08:50  02 38 06.88    +12 58 47.9   0.0088 0.9954  13.9 Nm  20?   3.73  77.7    2 287  94  65
   2024 04 17 09:00  02 38 09.43    +12 58 55.9   0.0088 0.9954  13.9 Nm  20?   3.88  78.3    0 286  94  65
   ................
   2024 04 18 08:20  02 45 08.24    +13 36 09.9   0.0088 0.9957  14.7 Cm  20?   3.16  76.5    8 292 104  73
   2024 04 18 08:30  02 45 10.39    +13 36 17.3   0.0088 0.9957  14.7 Cm  20?   3.30  77.3    6 291 104  73
   2024 04 18 08:40  02 45 12.65    +13 36 24.6   0.0088 0.9957  14.7 Nm  20?   3.44  78.0    4 289 104  73
   2024 04 18 08:50  02 45 15.01    +13 36 31.7   0.0088 0.9957  14.7 Nm  20?   3.59  78.7    2 288 104  74
   2024 04 18 09:00  02 45 17.47    +13 36 38.8   0.0088 0.9957  14.7 Nm  20?   3.74  79.2    0 286 104  74
   ................
   2024 04 19 08:20  02 52 09.50    +14 12 32.3   0.0088 0.9959  15.5 Cm  20?   3.02  77.5    8 293 114  81
   2024 04 19 08:30  02 52 11.57    +14 12 38.9   0.0089 0.9959  15.5 Cm  20?   3.16  78.3    6 292 114  81
   2024 04 19 08:40  02 52 13.75    +14 12 45.3   0.0089 0.9959  15.5 Nm  20?   3.30  79.0    4 290 114  81
   2024 04 19 08:50  02 52 16.03    +14 12 51.5   0.0089 0.9959  15.5 Nm  20?   3.45  79.7    2 289 114  81
   2024 04 19 09:00  02 52 18.41    +14 12 57.7   0.0089 0.9959  15.5 Nm  20?   3.59  80.2    0 287 114  81
   ................
   2024 04 20 08:20  02 59 03.46    +14 47 31.1   0.0089 0.9962  16.3 Cm  20?   2.88  78.5    8 294 124  88
   2024 04 20 08:30  02 59 05.45    +14 47 36.8   0.0089 0.9962  16.3 Cm  20?   3.02  79.4    6 293 124  88
   2024 04 20 08:40  02 59 07.55    +14 47 42.4   0.0089 0.9962  16.3 Nm  20?   3.16  80.1    4 291 124  88
   2024 04 20 08:50  02 59 09.75    +14 47 47.8   0.0089 0.9962  16.3 Nm  20?   3.31  80.7    2 290 124  88
   2024 04 20 09:00  02 59 12.05    +14 47 53.2   0.0089 0.9962  16.3 Nm  20?   3.46  81.3    0 288 124  88
   ................
   2024 04 21 08:20  03 05 49.97    +15 21 07.4   0.0089 0.9964  17.0 Cm  20?   2.75  79.7    8 295 134  93
   2024 04 21 08:30  03 05 51.89    +15 21 12.3   0.0089 0.9964  17.0 Cm  20?   2.89  80.5    6 294 134  93
   2024 04 21 08:40  03 05 53.91    +15 21 17.1   0.0089 0.9964  17.0 Nm  20?   3.03  81.2    4 292 134  93
   2024 04 21 08:50  03 05 56.03    +15 21 21.7   0.0089 0.9964  17.0 Nm  20?   3.17  81.8    2 291 134  93
   2024 04 21 09:00  03 05 58.25    +15 21 26.2   0.0089 0.9964  17.0 Nm  20?   3.32  82.3    1 289 134  93
   ................
   2024 04 22 08:20  03 12 28.97    +15 53 22.8   0.0090 0.9967  17.7 Cm  20?   2.62  80.8    8 296 144  97
   2024 04 22 08:30  03 12 30.81    +15 53 26.9   0.0090 0.9967  17.7 Cm  20?   2.76  81.6    6 294 144  97
   2024 04 22 08:40  03 12 32.75    +15 53 30.9   0.0090 0.9967  17.7 Nm  20?   2.90  82.3    5 293 144  97
   2024 04 22 08:50  03 12 34.79    +15 53 34.8   0.0090 0.9967  17.7 Nm  20?   3.04  82.9    3 291 144  97
   2024 04 22 09:00  03 12 36.94    +15 53 38.5   0.0090 0.9967  17.7 Nm  20?   3.19  83.4    1 290 144  97
   ................
   2024 04 23 08:10  03 18 58.78    +16 24 15.7   0.0090 0.9969  18.4 Cm  20?   2.36  81.1   10 298 154  99
   2024 04 23 08:20  03 19 00.45    +16 24 19.3   0.0090 0.9969  18.4 Cm  20?   2.50  82.0    8 297 154  99
   2024 04 23 08:30  03 19 02.22    +16 24 22.7   0.0090 0.9969  18.4 Cm  20?   2.64  82.8    7 295 155  99
   2024 04 23 08:40  03 19 04.08    +16 24 25.9   0.0090 0.9969  18.4 Nm  20?   2.78  83.5    5 294 155  99
   2024 04 23 08:50  03 19 06.05    +16 24 29.1   0.0091 0.9969  18.4 Nm  20?   2.92  84.1    3 292 155  99
   2024 04 23 09:00  03 19 08.12    +16 24 32.1   0.0091 0.9969  18.4 Nm  20?   3.06  84.6    1 291 155  99
   2024 04 23 09:10  03 19 10.29    +16 24 35.0   0.0091 0.9969  18.4 Am  20?   3.21  85.0    0 289 155  99
   ................
   2024 04 24 08:10  03 25 22.88    +16 53 56.5   0.0091 0.9972  19.0 Cm  20?   2.25  82.4   10 299 165  99
   2024 04 24 08:20  03 25 24.48    +16 53 59.4   0.0091 0.9972  19.0 Cm  20?   2.38  83.3    9 297 165  99
   2024 04 24 08:30  03 25 26.17    +16 54 02.1   0.0091 0.9972  19.0 Cm  20?   2.52  84.1    7 296 165  99
   2024 04 24 08:40  03 25 27.97    +16 54 04.7   0.0091 0.9972  19.0 Nm  20?   2.66  84.7    5 294 165  99
   2024 04 24 08:50  03 25 29.86    +16 54 07.1   0.0091 0.9972  19.0 Nm  20?   2.80  85.3    3 293 165  99
   2024 04 24 09:00  03 25 31.85    +16 54 09.4   0.0091 0.9972  19.0 Nm  20?   2.94  85.8    1 291 165  99
   2024 04 24 09:10  03 25 33.95    +16 54 11.5   0.0091 0.9972  19.0 Am  20?   3.09  86.2    0 290 165  99
   ................
   2024 04 25 08:10  03 31 39.65    +17 22 23.5   0.0092 0.9974  19.6 C   20?   2.14  83.7   11 300 174  98
   2024 04 25 08:20  03 31 41.18    +17 22 25.8   0.0092 0.9974  19.6 C   20?   2.27  84.6    9 298 174  98
   2024 04 25 08:30  03 31 42.81    +17 22 27.8   0.0092 0.9974  19.6 C   20?   2.41  85.4    7 297 174  98
   2024 04 25 08:40  03 31 44.53    +17 22 29.8   0.0092 0.9974  19.6 Nm  20?   2.54  86.0    5 295 174  98
   2024 04 25 08:50  03 31 46.36    +17 22 31.5   0.0092 0.9974  19.6 Nm  20?   2.68  86.5    3 294 174  97
   2024 04 25 09:00  03 31 48.28    +17 22 33.1   0.0092 0.9974  19.6 Nm  20?   2.83  87.0    1 292 174  97
   2024 04 25 09:10  03 31 50.30    +17 22 34.6   0.0092 0.9974  19.6 Am  20?   2.97  87.3    0 291 174  97
   ................
   2024 04 26 08:10  03 37 49.30    +17 49 39.7   0.0092 0.9977  20.1 C   20?   2.03  85.1   11 301 171  94
   2024 04 26 08:20  03 37 50.76    +17 49 41.3   0.0092 0.9977  20.1 C   20?   2.17  86.0    9 299 171  94
   2024 04 26 08:30  03 37 52.32    +17 49 42.8   0.0092 0.9977  20.1 C   20?   2.30  86.7    7 297 171  94
   2024 04 26 08:40  03 37 53.98    +17 49 44.1   0.0092 0.9977  20.1 N   20?   2.44  87.3    5 296 171  94
   2024 04 26 08:50  03 37 55.73    +17 49 45.2   0.0092 0.9977  20.1 N   20?   2.58  87.8    3 294 171  94
   2024 04 26 09:00  03 37 57.59    +17 49 46.2   0.0092 0.9977  20.1 N   20?   2.72  88.2    1 293 170  94
   2024 04 26 09:10  03 37 59.54    +17 49 47.0   0.0092 0.9977  20.1 A   20?   2.86  88.5    0 291 170  94
   ................
   2024 04 27 08:10  03 43 52.05    +18 15 47.9   0.0093 0.9979  20.7 C   20?   1.94  86.6   11 301 160  88
   2024 04 27 08:20  03 43 53.46    +18 15 49.0   0.0093 0.9979  20.7 C   20?   2.07  87.4    9 300 160  88
   2024 04 27 08:30  03 43 54.96    +18 15 49.9   0.0093 0.9979  20.7 N   20?   2.20  88.1    7 298 160  88
   2024 04 27 08:40  03 43 56.55    +18 15 50.5   0.0093 0.9979  20.7 N   20?   2.34  88.6    5 296 160  88
   2024 04 27 08:50  03 43 58.24    +18 15 51.1   0.0093 0.9979  20.7 N   20?   2.48  89.1    3 295 160  88
   2024 04 27 09:00  03 44 00.03    +18 15 51.5   0.0093 0.9979  20.7 A   20?   2.62  89.4    2 294 160  88
   2024 04 27 09:10  03 44 01.92    +18 15 51.7   0.0093 0.9979  20.7 A   20?   2.76  89.7    0 292 160  88
   ................
   

TESS (JPL-ID: -95)

   Date (UTC) HH:MM   RA              Dec         delta   r     elong SM  mag  '/hr    PA   alt  az moo ill
   ---- -- -- -----  -------------   -----------  ------ ------ ----- --  --- ------ ------ --- --- --- ---
   2024 04 14 08:30  00 37 59.13    -40 21 41.7   326022 1.0017  51.3 Cm  14?  40.79  55.3   14 230 107  35
   2024 04 14 08:40  00 38 28.66    -40 17 49.4   326323 1.0017  51.2 Cm  14?  41.18  55.8   13 229 107  35
   2024 04 14 08:50  00 38 58.62    -40 13 58.0   326622 1.0017  51.1 Nm  14?  41.56  56.3   11 228 107  35
   2024 04 14 09:00  00 39 29.00    -40 10 07.6   326919 1.0017  51.1 Nm  14?  41.93  56.8   10 227 107  35
   2024 04 14 09:10  00 39 59.80    -40 06 18.2   327214 1.0017  51.0 Nm  14?  42.29  57.3    8 226 107  35
   2024 04 14 09:20  00 40 31.01    -40 02 30.2   327506 1.0017  50.9 Am  14?  42.64  57.8    7 225 107  35
   2024 04 14 09:30  00 41 02.62    -39 58 43.5   327795 1.0017  50.8 Am  14?  42.97  58.3    5 224 107  35
   2024 04 14 09:40  00 41 34.61    -39 54 58.4   328081 1.0017  50.7 Am  14?  43.29  58.8    4 223 107  35
   2024 04 14 09:50  00 42 06.98    -39 51 14.9   328364 1.0017  50.6  m  14?  43.60  59.3    2 222 107  35
   2024 04 14 10:00  00 42 39.71    -39 47 33.3   328643 1.0017  50.5  m  14?  43.89  59.8    1 220 107  35
   2024 04 14 10:10  00 43 12.80    -39 43 53.5   328918 1.0017  50.5  m  14?  44.17  60.3    0 219 107  35
   ................
   2024 04 14 18:10  01 11 11.26    -37 43 15.8   334637 1.0017  47.6  r  14?  36.59  76.3    0 138 104  39
   2024 04 14 18:20  01 11 40.99    -37 41 49.6   334597 1.0017  47.6     14?  36.04  76.3    0 136 104  39
   2024 04 14 18:30  01 12 10.25    -37 40 24.8   334552 1.0017  47.5     14?  35.48  76.3    2 135 104  39
   2024 04 14 18:40  01 12 39.04    -37 39 01.3   334503 1.0017  47.5     14?  34.91  76.3    3 134 104  39
   2024 04 14 18:50  01 13 07.35    -37 37 39.0   334451 1.0017  47.5     14?  34.33  76.3    5 132 104  39
   2024 04 14 19:00  01 13 35.17    -37 36 17.7   334395 1.0017  47.4     14?  33.75  76.2    6 131 104  39
   2024 04 14 19:10  01 14 02.50    -37 34 57.4   334336 1.0017  47.4     14?  33.16  76.1    8 130 104  39
   2024 04 14 19:20  01 14 29.32    -37 33 37.8   334273 1.0017  47.4     14?  32.57  76.0    9 129 104  40
   2024 04 14 19:30  01 14 55.63    -37 32 18.8   334209 1.0017  47.3     14?  31.98  75.8   11 128 104  40
   2024 04 14 19:40  01 15 21.43    -37 31 00.3   334141 1.0017  47.3     14?  31.38  75.6   12 126 104  40
   2024 04 14 19:50  01 15 46.71    -37 29 42.1   334072 1.0017  47.3 A   14?  30.78  75.4   14 125 104  40
   2024 04 14 20:00  01 16 11.47    -37 28 24.2   334001 1.0017  47.3 A   14?  30.19  75.1   15 124 104  40
   2024 04 14 20:10  01 16 35.71    -37 27 06.3   333929 1.0017  47.2 A   14?  29.59  74.8   17 123 104  40
   2024 04 14 20:20  01 16 59.42    -37 25 48.3   333855 1.0017  47.2 N   14?  29.00  74.4   19 122 104  40
   2024 04 14 20:30  01 17 22.60    -37 24 30.1   333781 1.0017  47.2 N   14?  28.41  74.0   20 121 104  40
   2024 04 14 20:40  01 17 45.26    -37 23 11.6   333706 1.0017  47.2 C   14?  27.83  73.6   22 120 104  40
   2024 04 14 20:50  01 18 07.40    -37 21 52.5   333631 1.0017  47.1 C   14?  27.26  73.1   24 119 104  40
   2024 04 14 21:00  01 18 29.01    -37 20 32.7   333556 1.0017  47.1 C   14?  26.69  72.6   25 118 104  40
   ................
   2024 04 15 08:20  01 34 32.84    -34 08 17.7   339497 1.0017  44.0 Cm  14?  35.09  44.8   22 243 104  45
   2024 04 15 08:30  01 34 52.94    -34 04 08.4   339750 1.0017  43.9 Cm  14?  35.48  45.4   20 242 104  45
   2024 04 15 08:40  01 35 13.46    -33 59 58.9   340002 1.0017  43.8 Cm  14?  35.88  46.0   18 241 104  45
   2024 04 15 08:50  01 35 34.42    -33 55 49.6   340255 1.0017  43.8 Nm  14?  36.26  46.7   17 240 104  45
   2024 04 15 09:00  01 35 55.79    -33 51 40.6   340507 1.0017  43.7 Nm  14?  36.64  47.3   15 239 104  45
   2024 04 15 09:10  01 36 17.59    -33 47 31.9   340758 1.0017  43.6 Nm  14?  37.01  47.9   13 238 104  45
   2024 04 15 09:20  01 36 39.81    -33 43 23.7   341009 1.0017  43.6 Am  14?  37.38  48.5   11 237 104  45
   2024 04 15 09:30  01 37 02.44    -33 39 16.1   341257 1.0017  43.5 Am  14?  37.74  49.1   10 236 104  45
   2024 04 15 09:40  01 37 25.48    -33 35 09.3   341504 1.0017  43.4 Am  14?  38.08  49.8    8 234 104  45
   2024 04 15 09:50  01 37 48.92    -33 31 03.4   341749 1.0017  43.4  m  14?  38.42  50.4    6 233 104  45
   2024 04 15 10:00  01 38 12.75    -33 26 58.5   341992 1.0017  43.3  m  14?  38.75  51.0    5 232 104  45
   2024 04 15 10:10  01 38 36.98    -33 22 54.7   342231 1.0017  43.2  m  14?  39.07  51.6    3 231 104  46
   2024 04 15 10:20  01 39 01.58    -33 18 52.1   342468 1.0017  43.2  m  14?  39.38  52.2    1 230 104  46
   2024 04 15 10:30  01 39 26.55    -33 14 50.9   342701 1.0017  43.1  m  14?  39.68  52.8    0 228 103  46
   ................
   2024 04 15 19:40  02 04 56.12    -30 32 30.2   345246 1.0018  41.1     14?  31.59  67.7    0 127 101  50
   2024 04 15 19:50  02 05 18.51    -30 30 30.3   345104 1.0018  41.1 A   14?  31.05  67.5    2 125 101  50
   2024 04 15 20:00  02 05 40.47    -30 28 31.2   344959 1.0018  41.1 A   14?  30.51  67.2    4 124 101  50
   2024 04 15 20:10  02 06 01.99    -30 26 32.7   344810 1.0018  41.1 A   14?  29.97  66.8    5 123 101  50
   2024 04 15 20:20  02 06 23.06    -30 24 34.6   344659 1.0018  41.0 N   14?  29.43  66.5    7 121 101  50
   2024 04 15 20:30  02 06 43.69    -30 22 36.9   344505 1.0018  41.0 N   14?  28.89  66.1    9 120 101  50
   2024 04 15 20:40  02 07 03.85    -30 20 39.5   344350 1.0018  41.0 N   14?  28.35  65.6   10 119 101  50
   2024 04 15 20:50  02 07 23.56    -30 18 42.2   344192 1.0018  41.0 C   14?  27.82  65.1   12 118 101  50
   2024 04 15 21:00  02 07 42.82    -30 16 44.9   344033 1.0018  41.0 C   14?  27.29  64.6   14 117 101  50
   ................
   2024 04 16 08:20  02 20 08.45    -26 50 06.3   343706 1.0018  38.4 Cm  14?  31.97  37.8   27 254 102  55
   2024 04 16 08:30  02 20 23.26    -26 45 53.1   343901 1.0018  38.3 Cm  14?  32.35  38.5   25 253 102  55
   2024 04 16 08:40  02 20 38.47    -26 41 39.5   344097 1.0018  38.3 Cm  14?  32.72  39.2   23 252 102  55
   2024 04 16 08:50  02 20 54.09    -26 37 25.6   344295 1.0018  38.2 Nm  14?  33.10  39.9   21 251 102  55
   2024 04 16 09:00  02 21 10.12    -26 33 11.4   344494 1.0018  38.2 Nm  14?  33.48  40.7   19 250 102  55
   2024 04 16 09:10  02 21 26.55    -26 28 57.1   344694 1.0018  38.1 Nm  14?  33.85  41.4   17 249 102  55
   2024 04 16 09:20  02 21 43.39    -26 24 42.8   344894 1.0018  38.1 Am  14?  34.22  42.1   15 248 102  55
   2024 04 16 09:30  02 22 00.64    -26 20 28.6   345094 1.0018  38.0 Am  14?  34.58  42.8   13 247 102  55
   2024 04 16 09:40  02 22 18.29    -26 16 14.6   345293 1.0018  38.0 Am  14?  34.95  43.5   11 246 101  55
   2024 04 16 09:50  02 22 36.35    -26 12 00.9   345492 1.0018  37.9  m  14?  35.31  44.2    9 244 101  55
   2024 04 16 10:00  02 22 54.81    -26 07 47.7   345689 1.0018  37.9  m  14?  35.66  44.9    7 243 101  55
   2024 04 16 10:10  02 23 13.67    -26 03 34.9   345885 1.0018  37.8  m  15?  36.01  45.6    6 242 101  55
   2024 04 16 10:20  02 23 32.92    -25 59 22.8   346079 1.0018  37.8  m  15?  36.35  46.2    4 241 101  56
   2024 04 16 10:30  02 23 52.56    -25 55 11.3   346271 1.0018  37.8  m  15?  36.69  46.9    2 240 101  56
   2024 04 16 10:40  02 24 12.57    -25 51 00.7   346460 1.0018  37.7  m  15?  37.02  47.6    0 238 101  56
   ................
   2024 04 16 20:40  02 48 07.98    -22 31 51.5   345299 1.0019  36.8 Nr  15?  30.57  59.7    0 118  99  60
   2024 04 16 20:50  02 48 26.81    -22 29 16.7   345067 1.0019  36.8 C   15?  30.09  59.2    1 116  99  60
   2024 04 16 21:00  02 48 45.22    -22 26 42.1   344833 1.0019  36.8 C   15?  29.60  58.6    2 115  99  60
   ................
   2024 04 17 08:20  02 59 38.92    -18 40 00.5   338352 1.0020  34.9 Cm  15?  30.54  32.9   30 267 100  65
   2024 04 17 08:30  02 59 50.77    -18 35 43.6   338482 1.0020  34.9 Cm  15?  30.89  33.7   28 266 100  65
   2024 04 17 08:40  03 00 02.99    -18 31 26.1   338614 1.0020  34.8 Cm  15?  31.25  34.5   26 264 100  65
   2024 04 17 08:50  03 00 15.60    -18 27 08.0   338750 1.0021  34.8 Nm  15?  31.61  35.3   24 263 100  65
   2024 04 17 09:00  03 00 28.60    -18 22 49.6   338887 1.0021  34.8 Nm  15?  31.97  36.1   22 262 100  65
   2024 04 17 09:10  03 00 42.00    -18 18 30.7   339027 1.0021  34.7 Nm  15?  32.33  36.9   20 261 100  65
   2024 04 17 09:20  03 00 55.79    -18 14 11.6   339168 1.0021  34.7 Am  15?  32.70  37.7   18 260 100  65
   2024 04 17 09:30  03 01 09.98    -18 09 52.3   339311 1.0021  34.7 Am  15?  33.07  38.4   16 258 100  65
   2024 04 17 09:40  03 01 24.57    -18 05 32.9   339455 1.0021  34.7  m  15?  33.44  39.2   14 257 100  65
   2024 04 17 09:50  03 01 39.57    -18 01 13.4   339599 1.0021  34.6  m  15?  33.81  40.0   12 256 100  65
   2024 04 17 10:00  03 01 54.97    -17 56 54.0   339743 1.0021  34.6  m  15?  34.18  40.7   10 255 100  65
   2024 04 17 10:10  03 02 10.77    -17 52 34.7   339887 1.0021  34.6  m  15?  34.55  41.5    8 253 100  65
   2024 04 17 10:20  03 02 26.97    -17 48 15.6   340030 1.0021  34.6  m  15?  34.92  42.2    6 252 100  65
   2024 04 17 10:30  03 02 43.57    -17 43 56.7   340172 1.0021  34.5  m  15?  35.29  43.0    4 251 100  65
   2024 04 17 10:40  03 03 00.57    -17 39 38.2   340313 1.0021  34.5  m  15?  35.65  43.7    2 250  99  65
   2024 04 17 10:50  03 03 17.96    -17 35 20.1   340451 1.0021  34.5  m  15?  36.02  44.4    0 248  99  65
   ................
   2024 04 18 08:20  03 37 09.60    -09 26 08.2   323343 1.0024  34.3 Cm  14?  30.80  29.9   32 281  99  73
   2024 04 18 08:30  03 37 20.12    -09 21 40.7   323397 1.0024  34.3 Cm  14?  31.12  30.7   30 280  99  73
   2024 04 18 08:40  03 37 31.01    -09 17 12.6   323456 1.0024  34.3 Nm  14?  31.44  31.5   28 278  99  73
   2024 04 18 08:50  03 37 42.27    -09 12 44.1   323519 1.0024  34.3 Nm  14?  31.77  32.4   26 277  98  74
   2024 04 18 09:00  03 37 53.91    -09 08 15.2   323586 1.0024  34.3 Nm  14?  32.11  33.2   24 275  98  74
   2024 04 18 09:10  03 38 05.94    -09 03 46.0   323656 1.0024  34.3 Am  14?  32.46  34.0   22 274  98  74
   2024 04 18 09:20  03 38 18.36    -08 59 16.5   323729 1.0024  34.3 Am  14?  32.81  34.9   20 272  98  74
   2024 04 18 09:30  03 38 31.19    -08 54 46.8   323805 1.0024  34.3 Am  14?  33.17  35.7   18 271  98  74
   2024 04 18 09:40  03 38 44.41    -08 50 16.9   323883 1.0024  34.3  m  14?  33.54  36.5   15 270  98  74
   2024 04 18 09:50  03 38 58.05    -08 45 46.8   323963 1.0024  34.3  m  14?  33.92  37.3   13 268  98  74
   2024 04 18 10:00  03 39 12.10    -08 41 16.6   324044 1.0024  34.3  m  14?  34.30  38.1   11 267  98  74
   2024 04 18 10:10  03 39 26.56    -08 36 46.4   324126 1.0024  34.3  m  14?  34.69  38.9    9 266  98  74
   2024 04 18 10:20  03 39 41.43    -08 32 16.2   324209 1.0024  34.3  m  14?  35.09  39.7    7 265  98  74
   2024 04 18 10:30  03 39 56.73    -08 27 45.9   324292 1.0024  34.3  m  14?  35.48  40.5    5 263  98  74
   2024 04 18 10:40  03 40 12.44    -08 23 15.7   324374 1.0024  34.3  m  14?  35.89  41.3    3 262  98  74
   2024 04 18 10:50  03 40 28.57    -08 18 45.7   324457 1.0024  34.3  m  14?  36.29  42.0    1 261  98  74
   2024 04 18 11:00  03 40 45.11    -08 14 15.7   324538 1.0024  34.3  m  14?  36.70  42.8    0 259  98  74
   ................
   2024 04 19 08:20  04 16 53.29    +01 21 06.0   298530 1.0029  37.8 Cm  14?  33.34  28.9   32 298  97  81
   2024 04 19 08:30  04 17 04.15    +01 25 58.4   298497 1.0029  37.9 Cm  14?  33.59  29.6   30 296  97  81
   2024 04 19 08:40  04 17 15.37    +01 30 50.6   298470 1.0029  37.9 Nm  14?  33.86  30.5   28 294  97  81
   2024 04 19 08:50  04 17 26.97    +01 35 42.9   298448 1.0029  37.9 Nm  14?  34.15  31.3   26 292  97  81
   2024 04 19 09:00  04 17 38.95    +01 40 35.0   298431 1.0029  37.9 Nm  14?  34.45  32.1   24 291  97  81
   2024 04 19 09:10  04 17 51.32    +01 45 27.2   298419 1.0029  37.9 Am  14?  34.76  33.0   22 289  97  81
   2024 04 19 09:20  04 18 04.10    +01 50 19.2   298411 1.0029  38.0 Am  14?  35.09  33.8   21 287  97  82
   2024 04 19 09:30  04 18 17.29    +01 55 11.2   298407 1.0029  38.0 Am  14?  35.44  34.7   19 286  97  82
   2024 04 19 09:40  04 18 30.90    +02 00 03.1   298406 1.0029  38.0  m  14?  35.80  35.5   17 284  97  82
   2024 04 19 09:50  04 18 44.95    +02 04 54.9   298409 1.0029  38.0  m  14?  36.17  36.3   15 283  97  82
   2024 04 19 10:00  04 18 59.43    +02 09 46.6   298414 1.0029  38.1  m  14?  36.56  37.2   13 281  97  82
   2024 04 19 10:10  04 19 14.35    +02 14 38.3   298422 1.0029  38.1  m  14?  36.96  38.0   11 280  97  82
   2024 04 19 10:20  04 19 29.72    +02 19 29.9   298432 1.0029  38.1  m  14?  37.37  38.8    8 279  97  82
   2024 04 19 10:30  04 19 45.55    +02 24 21.4   298443 1.0029  38.2  m  14?  37.80  39.7    6 277  97  82
   2024 04 19 10:40  04 20 01.83    +02 29 12.9   298455 1.0029  38.2  m  14?  38.23  40.5    4 276  97  82
   2024 04 19 10:50  04 20 18.57    +02 34 04.3   298469 1.0029  38.2  m  14?  38.68  41.2    2 275  97  82
   2024 04 19 11:00  04 20 35.77    +02 38 55.7   298482 1.0029  38.3  m  14?  39.13  42.0    0 273  96  82
   ................
   2024 04 20 08:20  05 05 43.89    +14 33 59.6   263979 1.0035  46.8 Cm  14?  39.94  30.9   29 318  94  88
   2024 04 20 08:30  05 05 58.13    +14 39 42.3   263844 1.0035  46.9 Cm  14?  40.10  31.6   28 316  94  88
   2024 04 20 08:40  05 06 12.73    +14 45 23.7   263715 1.0035  46.9 Nm  14?  40.28  32.3   26 314  94  88
   2024 04 20 08:50  05 06 27.73    +14 51 04.0   263592 1.0035  47.0 Nm  14?  40.49  33.1   25 312  94  88
   2024 04 20 09:00  05 06 43.13    +14 56 43.1   263475 1.0035  47.0 Nm  14?  40.71  33.9   23 310  94  88
   2024 04 20 09:10  05 06 58.95    +15 02 21.0   263363 1.0035  47.1 Am  14?  40.96  34.7   22 308  94  88
   2024 04 20 09:20  05 07 15.21    +15 07 57.9   263258 1.0035  47.1 Am  14?  41.24  35.5   20 306  94  88
   2024 04 20 09:30  05 07 31.91    +15 13 33.7   263157 1.0035  47.2 Am  14?  41.54  36.3   18 304  94  88
   2024 04 20 09:40  05 07 49.09    +15 19 08.4   263061 1.0035  47.3  m  14?  41.86  37.1   16 303  94  88
   2024 04 20 09:50  05 08 06.75    +15 24 42.2   262969 1.0035  47.3  m  14?  42.20  38.0   15 301  94  88
   2024 04 20 10:00  05 08 24.90    +15 30 15.1   262882 1.0036  47.4  m  14?  42.57  38.8   13 299  94  88
   2024 04 20 10:10  05 08 43.55    +15 35 47.1   262798 1.0036  47.5  m  14?  42.97  39.6   11 298  94  88
   2024 04 20 10:20  05 09 02.72    +15 41 18.3   262718 1.0036  47.5  m  14?  43.38  40.4    9 296  94  88
   2024 04 20 10:30  05 09 22.42    +15 46 48.8   262640 1.0036  47.6  m  14?  43.82  41.3    7 295  94  88
   2024 04 20 10:40  05 09 42.66    +15 52 18.6   262566 1.0036  47.7  m  14?  44.29  42.1    6 294  94  88
   2024 04 20 10:50  05 10 03.45    +15 57 47.8   262494 1.0036  47.7  m  14?  44.77  42.9    4 292  94  88
   2024 04 20 11:00  05 10 24.79    +16 03 16.5   262423 1.0036  47.8  m  14?  45.27  43.6    2 291  94  88
   2024 04 20 11:10  05 10 46.69    +16 08 44.6   262354 1.0036  47.9  m  14?  45.80  44.4    0 290  94  89
   ................
   2024 04 21 08:20  06 21 58.20    +31 21 20.8   221009 1.0043  63.6 Cm  13?  55.76  39.6   21 342  87  93
   2024 04 21 08:30  06 22 26.05    +31 28 29.4   220757 1.0043  63.7 Cm  13?  55.74  40.2   21 340  87  93
   2024 04 21 08:40  06 22 54.29    +31 35 34.0   220511 1.0043  63.8 Nm  13?  55.75  40.9   20 338  87  93
   2024 04 21 08:50  06 23 22.96    +31 42 34.7   220272 1.0043  63.9 Nm  13?  55.79  41.5   19 336  87  93
   2024 04 21 09:00  06 23 52.09    +31 49 31.5   220040 1.0043  64.0 Nm  13?  55.87  42.2   18 334  87  93
   2024 04 21 09:10  06 24 21.70    +31 56 24.4   219813 1.0044  64.1 Am  13?  55.98  42.9   17 333  87  93
   2024 04 21 09:20  06 24 51.81    +32 03 13.5   219593 1.0044  64.2 Am  13?  56.12  43.6   16 331  87  94
   2024 04 21 09:30  06 25 22.47    +32 09 58.8   219379 1.0044  64.3 Am  13?  56.31  44.4   15 329  87  94
   2024 04 21 09:40  06 25 53.69    +32 16 40.3   219170 1.0044  64.4  m  13?  56.52  45.2   14 327  87  94
   2024 04 21 09:50  06 26 25.50    +32 23 18.2   218966 1.0044  64.5  m  13?  56.78  45.9   13 326  87  94
   2024 04 21 10:00  06 26 57.93    +32 29 52.5   218768 1.0044  64.6  m  13?  57.07  46.7   12 324  87  94
   2024 04 21 10:10  06 27 31.01    +32 36 23.3   218575 1.0044  64.7  m  13?  57.40  47.5   10 322  87  94
   2024 04 21 10:20  06 28 04.74    +32 42 50.6   218387 1.0044  64.8  m  13?  57.77  48.3    9 321  87  94
   2024 04 21 10:30  06 28 39.17    +32 49 14.6   218203 1.0044  65.0  m  13?  58.17  49.1    8 319  87  94
   2024 04 21 10:40  06 29 14.31    +32 55 35.4   218023 1.0044  65.1  m  13?  58.62  49.9    6 318  87  94
   2024 04 21 10:50  06 29 50.19    +33 01 53.0   217847 1.0044  65.2  m  13?  59.10  50.6    5 316  87  94
   2024 04 21 11:00  06 30 26.82    +33 08 07.7   217675 1.0044  65.3  m  13?  59.62  51.4    4 315  87  94
   2024 04 21 11:10  06 31 04.23    +33 14 19.4   217507 1.0044  65.4  m  13?  60.17  52.2    2 314  86  94
   2024 04 21 11:20  06 31 42.43    +33 20 28.3   217341 1.0044  65.6  m  13?  60.76  52.9    1 312  86  94
   2024 04 21 11:30  06 32 21.45    +33 26 34.7   217179 1.0044  65.7  m  13?  61.39  53.7    0 311  86  94
   ................
   2024 04 22 08:20  09 15 44.66    +48 27 03.8   176136 1.0053  92.8 Cm  12?  93.94  70.2    4  15  71  97
   2024 04 22 08:30  09 17 13.54    +48 32 18.2   175797 1.0053  93.0 Cm  12?  93.61  70.9    4  14  71  97
   2024 04 22 08:40  09 18 42.62    +48 37 21.4   175462 1.0053  93.1 Nm  12?  93.31  71.5    5  12  71  97
   2024 04 22 08:50  09 20 11.94    +48 42 13.2   175133 1.0053  93.3 Nm  12?  93.05  72.2    5  11  71  97
   2024 04 22 09:00  09 21 41.52    +48 46 53.4   174809 1.0053  93.5 Nm  12?  92.83  72.9    5  10  71  97
   2024 04 22 09:10  09 23 11.39    +48 51 21.9   174491 1.0053  93.7 Am  12?  92.64  73.7    5   8  71  97
   2024 04 22 09:20  09 24 41.57    +48 55 38.4   174177 1.0053  93.9 Am  12?  92.50  74.4    6   7  71  97
   2024 04 22 09:30  09 26 12.11    +48 59 42.7   173869 1.0054  94.1 Am  12?  92.41  75.2    6   5  70  97
   2024 04 22 09:40  09 27 43.02    +49 03 34.8   173567 1.0054  94.3  m  12?  92.35  76.0    6   4  70  97
   2024 04 22 09:50  09 29 14.33    +49 07 14.3   173269 1.0054  94.5  m  12?  92.35  76.8    6   3  70  97
   2024 04 22 10:00  09 30 46.08    +49 10 41.2   172977 1.0054  94.7  e  12?  92.39  77.6    6   1  70  97
   2024 04 22 10:10  09 32 18.29    +49 13 55.3   172690 1.0054  94.9  m  12?  92.48  78.4    6   0  70  97
   2024 04 22 10:20  09 33 50.99    +49 16 56.5   172409 1.0054  95.1  t  12?  92.62  79.3    6 358  70  97
   2024 04 22 10:30  09 35 24.22    +49 19 44.7   172132 1.0054  95.3  m  12?  92.82  80.1    6 357  70  97
   2024 04 22 10:40  09 36 57.99    +49 22 19.8   171861 1.0054  95.5  m  12?  93.06  80.9    6 356  70  97
   2024 04 22 10:50  09 38 32.35    +49 24 41.7   171595 1.0054  95.7  m  12?  93.36  81.8    5 354  70  97
   2024 04 22 11:00  09 40 07.31    +49 26 50.2   171334 1.0054  95.9  m  12?  93.71  82.7    5 353  69  97
   2024 04 22 11:10  09 41 42.91    +49 28 45.4   171079 1.0054  96.1  m  12?  94.12  83.5    5 352  69  97
   2024 04 22 11:20  09 43 19.17    +49 30 27.1   170828 1.0054  96.3  m  12?  94.57  84.3    5 350  69  97
   2024 04 22 11:30  09 44 56.13    +49 31 55.3   170583 1.0054  96.5  m  12?  95.09  85.2    4 349  69  97
   2024 04 22 11:40  09 46 33.81    +49 33 10.0   170342 1.0054  96.8  m  12?  95.65  86.0    4 348  69  97
   2024 04 22 11:50  09 48 12.23    +49 34 11.1   170107 1.0055  97.0  m  12?  96.27  86.9    4 346  69  97
   2024 04 22 12:00  09 49 51.42    +49 34 58.6   169876 1.0055  97.2  m  12?  96.94  87.7    3 345  69  97
   2024 04 22 12:10  09 51 31.41    +49 35 32.6   169650 1.0055  97.4  m  12?  97.65  88.5    3 344  68  97
   2024 04 22 12:20  09 53 12.22    +49 35 52.9   169429 1.0055  97.7  m  12?  98.42  89.3    2 342  68  97
   2024 04 22 12:30  09 54 53.87    +49 35 59.6   169212 1.0055  97.9  m  12?  99.24  90.1    2 341  68  98
   2024 04 22 12:40  09 56 36.38    +49 35 52.8   169001 1.0055  98.1  m  12? 100.10  90.9    1 340  68  98
   2024 04 22 12:50  09 58 19.78    +49 35 32.4   168793 1.0055  98.4  m  12? 101.01  91.7    0 339  68  98
   2024 04 22 13:00  10 00 04.09    +49 34 58.5   168590 1.0055  98.6  m  12? 101.97  92.4    0 337  68  98
   2024 04 22 13:10  10 01 49.32    +49 34 11.2   168392 1.0055  98.9  m  12? 102.96  93.1    0 336  67  98
   ................
   2024 04 23 10:40  14 33 41.65    +28 59 16.3   148449 1.0063 137.7  r  13? 143.48 130.7    0  53  42  99
   2024 04 23 10:50  14 35 03.85    +28 43 34.9   148267 1.0063 137.9  m  13? 143.05 131.2    1  52  41  99
   2024 04 23 11:00  14 36 24.89    +28 27 45.6   148089 1.0063 138.1  m  13? 142.65 131.8    3  51  41  99
   2024 04 23 11:10  14 37 44.80    +28 11 48.2   147915 1.0063 138.3  m  13? 142.28 132.4    5  50  41  99
   2024 04 23 11:20  14 39 03.58    +27 55 42.9   147747 1.0063 138.5  m  13? 141.94 132.9    6  49  41  99
   2024 04 23 11:30  14 40 21.27    +27 39 29.4   147583 1.0063 138.7  m  13? 141.63 133.5    8  48  41  99
   2024 04 23 11:40  14 41 37.87    +27 23 07.7   147425 1.0063 138.9  m  13? 141.36 134.1    9  46  41  99
   2024 04 23 11:50  14 42 53.42    +27 06 38.0   147273 1.0063 139.1  m  13? 141.11 134.6   11  45  41  99
   2024 04 23 12:00  14 44 07.94    +26 50 00.0   147127 1.0063 139.3  m  13? 140.90 135.2   12  44  41  99
   2024 04 23 12:10  14 45 21.44    +26 33 13.8   146986 1.0063 139.5  m  13? 140.72 135.7   14  42  40  99
   2024 04 23 12:20  14 46 33.97    +26 16 19.5   146852 1.0063 139.7  m  13? 140.57 136.3   15  41  40  99
   2024 04 23 12:30  14 47 45.54    +25 59 17.1   146725 1.0063 139.9  m  13? 140.46 136.8   17  40  40  99
   2024 04 23 12:40  14 48 56.17    +25 42 06.5   146605 1.0063 140.1  m  13? 140.37 137.3   18  38  40  99
   2024 04 23 12:50  14 50 05.91    +25 24 47.8   146492 1.0064 140.3  m  13? 140.31 137.9   19  36  40  99
   2024 04 23 13:00  14 51 14.78    +25 07 21.1   146386 1.0064 140.5  m  13? 140.28 138.4   21  35  40  99
   2024 04 23 13:10  14 52 22.81    +24 49 46.4   146288 1.0064 140.7  m  13? 140.28 138.8   22  33  40  99
   2024 04 23 13:20  14 53 30.03    +24 32 03.9   146197 1.0064 140.9  m  13? 140.31 139.3   23  31  39  99
   2024 04 23 13:30  14 54 36.47    +24 14 13.6   146115 1.0064 141.1  m  13? 140.37 139.8   24  29  39  99
   2024 04 23 13:40  14 55 42.16    +23 56 15.6   146041 1.0064 141.3  m  13? 140.45 140.2   26  28  39  99
   2024 04 23 13:50  14 56 47.14    +23 38 10.1   145975 1.0064 141.5  m  13? 140.55 140.7   27  26  39  99
   2024 04 23 14:00  14 57 51.44    +23 19 57.1   145918 1.0064 141.7  m  13? 140.68 141.1   28  24  39  99
   2024 04 23 14:10  14 58 55.10    +23 01 36.9   145870 1.0064 141.9  m  13? 140.82 141.5   29  22  39  99
   2024 04 23 14:20  14 59 58.15    +22 43 09.5   145831 1.0064 142.1  m  13? 140.99 141.8   30  19  39  99
   2024 04 23 14:30  15 01 00.62    +22 24 35.2   145801 1.0064 142.3  m  13? 141.18 142.2   31  17  39  99
   2024 04 23 14:40  15 02 02.55    +22 05 54.2   145780 1.0064 142.5  m  13? 141.38 142.5   31  15  38  99
   2024 04 23 14:50  15 03 03.97    +21 47 06.5   145769 1.0064 142.7  m  13? 141.60 142.8   32  13  38  99
   2024 04 23 15:00  15 04 04.93    +21 28 12.5   145767 1.0064 142.9  m  13? 141.83 143.1   33  10  38  99
   2024 04 23 15:10  15 05 05.45    +21 09 12.4   145775 1.0064 143.1  m  13? 142.08 143.4   33   8  38  99
   2024 04 23 15:20  15 06 05.57    +20 50 06.4   145793 1.0064 143.2  m  13? 142.34 143.7   34   5  38  99
   2024 04 23 15:30  15 07 05.33    +20 30 54.6   145821 1.0064 143.4  m  13? 142.61 143.9   34   3  38  99
   2024 04 23 15:40  15 08 04.77    +20 11 37.5   145858 1.0064 143.6  m  13? 142.89 144.1   35   0  38  99
   2024 04 23 15:50  15 09 03.91    +19 52 15.2   145906 1.0064 143.8  t  13? 143.17 144.3   35 358  37  99
   2024 04 23 16:00  15 10 02.80    +19 32 48.0   145964 1.0064 144.0  m  13? 143.46 144.5   35 355  37  99
   2024 04 23 16:10  15 11 01.47    +19 13 16.1   146032 1.0064 144.2  m  13? 143.76 144.6   36 352  37  99
   2024 04 23 16:20  15 11 59.95    +18 53 39.9   146110 1.0064 144.3  m  13? 144.06 144.7   36 350  37  99
   2024 04 23 16:30  15 12 58.28    +18 33 59.7   146198 1.0064 144.5  e  13? 144.36 144.8   36 347  37  99
   2024 04 23 16:40  15 13 56.50    +18 14 15.7   146296 1.0064 144.7  m  13? 144.66 144.9   35 344  37  99
   2024 04 23 16:50  15 14 54.62    +17 54 28.3   146405 1.0064 144.9  m  13? 144.97 145.0   35 342  37  99
   2024 04 23 17:00  15 15 52.70    +17 34 37.7   146523 1.0064 145.0  m  13? 145.27 145.0   35 339  36  99
   2024 04 23 17:10  15 16 50.76    +17 14 44.2   146652 1.0064 145.2  m  13? 145.58 145.0   34 336  36  99
   2024 04 23 17:20  15 17 48.84    +16 54 48.3   146790 1.0065 145.4  m  13? 145.88 145.0   34 334  36  99
   2024 04 23 17:30  15 18 46.95    +16 34 50.1   146939 1.0065 145.5  m  13? 146.18 145.0   33 331  36  99
   2024 04 23 17:40  15 19 45.14    +16 14 50.0   147097 1.0065 145.7  m  13? 146.48 144.9   33 329  36  99
   2024 04 23 17:50  15 20 43.43    +15 54 48.3   147265 1.0065 145.8  m  13? 146.77 144.9   32 326  36  99
   2024 04 23 18:00  15 21 41.85    +15 34 45.3   147443 1.0065 146.0  m  13? 147.06 144.8   31 324  36  99
   2024 04 23 18:10  15 22 40.43    +15 14 41.4   147630 1.0065 146.1  m  13? 147.35 144.7   31 321  36  99
   2024 04 23 18:20  15 23 39.19    +14 54 36.8   147827 1.0065 146.3  m  13? 147.63 144.5   30 319  35  99
   2024 04 23 18:30  15 24 38.16    +14 34 31.8   148032 1.0065 146.4  m  13? 147.91 144.4   29 317  35  99
   2024 04 23 18:40  15 25 37.37    +14 14 26.8   148247 1.0065 146.5  m  13? 148.19 144.2   28 314  35  99
   2024 04 23 18:50  15 26 36.83    +13 54 22.1   148471 1.0065 146.6  m  13? 148.46 144.1   27 312  35  99
   2024 04 23 19:00  15 27 36.57    +13 34 17.9   148703 1.0065 146.8  m  13? 148.72 143.9   25 310  35  99
   2024 04 23 19:10  15 28 36.62    +13 14 14.5   148943 1.0065 146.9  m  13? 148.98 143.7   24 308  35  99
   2024 04 23 19:20  15 29 36.98    +12 54 12.3   149192 1.0065 147.0  m  13? 149.23 143.5   23 306  35  99
   2024 04 23 19:30  15 30 37.68    +12 34 11.4   149449 1.0065 147.1  m  13? 149.48 143.2   22 304  35  99
   2024 04 23 19:40  15 31 38.74    +12 14 12.2   149713 1.0065 147.2  m  13? 149.73 143.0   20 302  35  99
   2024 04 23 19:50  15 32 40.17    +11 54 14.9   149985 1.0065 147.3 Am  13? 149.97 142.7   19 300  35  99
   2024 04 23 20:00  15 33 41.99    +11 34 19.8   150265 1.0065 147.3 Am  13? 150.20 142.5   18 298  34  99
   2024 04 23 20:10  15 34 44.21    +11 14 27.1   150551 1.0065 147.4 Am  13? 150.43 142.2   16 296  34  99
   2024 04 23 20:20  15 35 46.85    +10 54 37.1   150844 1.0065 147.5 Nm  13? 150.66 141.9   15 295  34  99
   2024 04 23 20:30  15 36 49.92    +10 34 49.9   151143 1.0065 147.5 Nm  13? 150.88 141.6   13 293  34  99
   2024 04 23 20:40  15 37 53.42    +10 15 05.7   151448 1.0065 147.6 Nm  13? 151.10 141.3   12 291  34  99
   2024 04 23 20:50  15 38 57.37    +09 55 24.9   151759 1.0065 147.6 Cm  13? 151.31 141.0   10 290  34  99
   2024 04 23 21:00  15 40 01.78    +09 35 47.5   152076 1.0065 147.7 Cm  13? 151.52 140.7    9 288  34  99
   2024 04 23 21:10  15 41 06.65    +09 16 13.8   152398 1.0065 147.7 Cm  13? 151.73 140.4    7 286  34  99
   ................
   2024 04 24 11:20  17 24 22.44    -14 38 34.9   172569 1.0066 132.5  m  13? 127.72 136.5    1 107  42  99
   2024 04 24 11:30  17 25 22.48    -14 54 03.0   172642 1.0066 132.3  m  13? 126.82 136.8    3 106  42  99
   2024 04 24 11:40  17 26 21.80    -15 09 29.5   172716 1.0066 132.1  m  13? 125.92 137.1    5 104  42  99
   2024 04 24 11:50  17 27 20.39    -15 24 54.4   172791 1.0066 131.9  m  13? 125.01 137.5    6 103  42  99
   2024 04 24 12:00  17 28 18.25    -15 40 17.5   172867 1.0066 131.6  m  13? 124.09 137.8    8 102  42  99
   2024 04 24 12:10  17 29 15.38    -15 55 38.7   172944 1.0066 131.4  m  13? 123.18 138.1   10 101  42  99
   2024 04 24 12:20  17 30 11.79    -16 10 57.9   173023 1.0066 131.2  m  13? 122.25 138.5   12 100  42  99
   2024 04 24 12:30  17 31 07.46    -16 26 14.9   173105 1.0066 131.0  m  13? 121.32 138.8   14  99  43  99
   2024 04 24 12:40  17 32 02.40    -16 41 29.5   173188 1.0066 130.8  m  13? 120.39 139.2   16  98  43  99
   2024 04 24 12:50  17 32 56.63    -16 56 41.7   173275 1.0066 130.6  m  13? 119.46 139.5   18  98  43  99
   2024 04 24 13:00  17 33 50.13    -17 11 51.2   173365 1.0066 130.4  m  13? 118.52 139.8   20  97  43  99
   2024 04 24 13:10  17 34 42.91    -17 26 58.0   173458 1.0066 130.3  m  13? 117.58 140.2   22  96  43  99
   2024 04 24 13:20  17 35 34.99    -17 42 01.8   173554 1.0066 130.1  m  13? 116.64 140.5   24  95  43  99
   2024 04 24 13:30  17 36 26.37    -17 57 02.4   173655 1.0066 129.9  m  13? 115.69 140.8   26  94  43  99
   2024 04 24 13:40  17 37 17.05    -18 11 59.7   173759 1.0066 129.7  m  13? 114.75 141.1   28  93  43  99
   2024 04 24 13:50  17 38 07.06    -18 26 53.5   173869 1.0066 129.5  m  13? 113.80 141.4   30  92  44  99
   2024 04 24 14:00  17 38 56.39    -18 41 43.7   173983 1.0066 129.3  m  13? 112.86 141.7   32  91  44  99
   2024 04 24 14:10  17 39 45.06    -18 56 30.0   174102 1.0066 129.2  m  13? 111.91 142.0   34  90  44  99
   2024 04 24 14:20  17 40 33.08    -19 11 12.2   174226 1.0066 129.0  m  13? 110.97 142.3   36  88  44  99
   2024 04 24 14:30  17 41 20.47    -19 25 50.1   174356 1.0066 128.8  m  13? 110.02 142.6   38  87  44  99
   2024 04 24 14:40  17 42 07.24    -19 40 23.7   174492 1.0066 128.6  m  13? 109.08 142.8   40  86  44  99
   2024 04 24 14:50  17 42 53.41    -19 54 52.6   174633 1.0066 128.5  m  13? 108.14 143.1   42  85  44  99
   2024 04 24 15:00  17 43 38.99    -20 09 16.7   174782 1.0066 128.3  m  13? 107.20 143.3   44  84  44  99
   2024 04 24 15:10  17 44 24.01    -20 23 35.7   174936 1.0066 128.1  m  13? 106.27 143.5   47  83  44  99
   2024 04 24 15:20  17 45 08.48    -20 37 49.6   175097 1.0066 128.0  m  13? 105.34 143.7   49  81  45  99
   2024 04 24 15:30  17 45 52.42    -20 51 58.0   175266 1.0066 127.8  m  13? 104.41 143.9   51  80  45  99
   2024 04 24 15:40  17 46 35.86    -21 06 00.9   175441 1.0066 127.6  m  13? 103.49 144.1   53  79  45  99
   2024 04 24 15:50  17 47 18.82    -21 19 57.9   175623 1.0066 127.5  m  13? 102.57 144.2   55  77  45  99
   2024 04 24 16:00  17 48 01.32    -21 33 49.1   175813 1.0066 127.3  m  13? 101.66 144.3   57  76  45  99
   2024 04 24 16:10  17 48 43.38    -21 47 34.0   176011 1.0066 127.2  m  13? 100.76 144.5   58  74  45  99
   2024 04 24 16:20  17 49 25.03    -22 01 12.7   176216 1.0066 127.0  m  13?  99.86 144.5   60  72  45  99
   2024 04 24 16:30  17 50 06.29    -22 14 44.9   176429 1.0066 126.9  m  13?  98.97 144.6   62  70  45  99
   2024 04 24 16:40  17 50 47.19    -22 28 10.4   176650 1.0066 126.7  m  13?  98.09 144.7   64  68  45  99
   2024 04 24 16:50  17 51 27.77    -22 41 29.1   176880 1.0066 126.6  m  13?  97.22 144.7   66  65  45  99
   2024 04 24 17:00  17 52 08.04    -22 54 40.8   177117 1.0066 126.4  m  13?  96.37 144.7   68  62  46  99
   2024 04 24 17:10  17 52 48.03    -23 07 45.5   177363 1.0066 126.3  m  13?  95.52 144.7   70  59  46  99
   2024 04 24 17:20  17 53 27.77    -23 20 42.9   177617 1.0066 126.1  m  13?  94.68 144.6   72  55  46  99
   2024 04 24 17:30  17 54 07.30    -23 33 32.9   177879 1.0066 126.0  m  13?  93.86 144.5   73  50  46  99
   2024 04 24 17:40  17 54 46.64    -23 46 15.3   178150 1.0066 125.8  m  13?  93.06 144.4   75  45  46  99
   2024 04 24 17:50  17 55 25.82    -23 58 50.2   178429 1.0066 125.7  m  13?  92.27 144.3   76  38  46  99
   2024 04 24 18:00  17 56 04.87    -24 11 17.4   178716 1.0066 125.5  m  13?  91.50 144.1   78  30  46  99
   2024 04 24 18:10  17 56 43.82    -24 23 36.7   179012 1.0066 125.4  m  13?  90.74 143.9   79  21  46  99
   2024 04 24 18:20  17 57 22.71    -24 35 48.1   179317 1.0066 125.2  m  13?  90.01 143.7   79   9  46  99
   2024 04 24 18:30  17 58 01.56    -24 47 51.5   179630 1.0066 125.1  t  13?  89.29 143.5   80 357  46  99
   2024 04 24 18:40  17 58 40.40    -24 59 46.9   179951 1.0066 125.0  e  13?  88.60 143.2   80 344  46  99
   2024 04 24 18:50  17 59 19.27    -25 11 34.2   180280 1.0066 124.8  m  13?  87.93 142.9   79 333  46  99
   2024 04 24 19:00  17 59 58.20    -25 23 13.3   180618 1.0066 124.7  m  13?  87.28 142.6   78 322  46  99
   2024 04 24 19:10  18 00 37.21    -25 34 44.2   180964 1.0066 124.5  m  13?  86.67 142.2   77 313  47  99
   2024 04 24 19:20  18 01 16.34    -25 46 06.9   181317 1.0066 124.4  m  13?  86.07 141.8   76 306  47  99
   2024 04 24 19:30  18 01 55.62    -25 57 21.3   181679 1.0066 124.2  m  13?  85.51 141.4   74 300  47  99
   2024 04 24 19:40  18 02 35.07    -26 08 27.6   182049 1.0066 124.1  m  13?  84.97 141.0   73 295  47  99
   2024 04 24 19:50  18 03 14.73    -26 19 25.6   182426 1.0066 123.9 Am  13?  84.47 140.5   71 291  47  99
   2024 04 24 20:00  18 03 54.63    -26 30 15.3   182811 1.0066 123.8 Am  13?  83.99 140.0   69 287  47  99
   2024 04 24 20:10  18 04 34.78    -26 40 56.9   183203 1.0066 123.7 Am  13?  83.55 139.5   68 284  47  99
   2024 04 24 20:20  18 05 15.23    -26 51 30.4   183602 1.0066 123.5 Nm  13?  83.15 139.0   66 281  47  99
   2024 04 24 20:30  18 05 55.99    -27 01 55.8   184009 1.0066 123.4 Nm  13?  82.77 138.4   64 279  47  99
   2024 04 24 20:40  18 06 37.10    -27 12 13.1   184422 1.0066 123.2 Nm  13?  82.44 137.9   62 277  47  99
   2024 04 24 20:50  18 07 18.58    -27 22 22.4   184842 1.0066 123.0 Cm  13?  82.13 137.3   60 274  47  99
   2024 04 24 21:00  18 08 00.45    -27 32 23.9   185268 1.0066 122.9 Cm  13?  81.87 136.7   58 273  47  99
   2024 04 24 21:10  18 08 42.73    -27 42 17.6   185700 1.0066 122.7 Cm  13?  81.64 136.1   57 271  47  99
   ................
   2024 04 25 12:00  19 42 33.96    -38 57 34.2   220438 1.0065 104.0  m  12?  88.96 121.1    0 138  58  97
   2024 04 25 12:10  19 43 38.82    -39 05 17.1   220621 1.0065 103.9  m  12?  88.29 121.4    1 137  58  97
   2024 04 25 12:20  19 44 43.11    -39 12 59.9   220801 1.0065 103.7  m  12?  87.60 121.7    3 136  58  97
   2024 04 25 12:30  19 45 46.81    -39 20 42.5   220978 1.0065 103.5  m  12?  86.89 121.9    4 135  58  97
   2024 04 25 12:40  19 46 49.93    -39 28 24.7   221153 1.0065 103.3  m  12?  86.16 122.2    6 134  58  97
   2024 04 25 12:50  19 47 52.43    -39 36 06.4   221326 1.0065 103.1  m  12?  85.42 122.5    7 133  58  97
   2024 04 25 13:00  19 48 54.32    -39 43 47.4   221497 1.0065 103.0  m  12?  84.65 122.8    8 132  59  97
   2024 04 25 13:10  19 49 55.57    -39 51 27.6   221666 1.0065 102.8  m  12?  83.88 123.0   10 131  59  97
   2024 04 25 13:20  19 50 56.18    -39 59 06.7   221833 1.0065 102.6  m  12?  83.09 123.3   11 130  59  97
   2024 04 25 13:30  19 51 56.13    -40 06 44.6   221999 1.0065 102.4  m  12?  82.28 123.6   13 129  59  97
   2024 04 25 13:40  19 52 55.43    -40 14 21.2   222164 1.0065 102.3  m  12?  81.46 123.8   14 128  59  97
   2024 04 25 13:50  19 53 54.06    -40 21 56.2   222329 1.0065 102.1  m  12?  80.63 124.1   16 128  59  97
   2024 04 25 14:00  19 54 52.01    -40 29 29.4   222493 1.0065 102.0  m  12?  79.78 124.3   17 127  59  97
   2024 04 25 14:10  19 55 49.28    -40 37 00.7   222656 1.0065 101.8  m  12?  78.93 124.6   19 126  59  97
   2024 04 25 14:20  19 56 45.87    -40 44 29.9   222820 1.0065 101.6  m  12?  78.06 124.8   21 125  60  97
   2024 04 25 14:30  19 57 41.77    -40 51 56.8   222984 1.0065 101.5  m  12?  77.18 125.1   22 124  60  97
   2024 04 25 14:40  19 58 36.97    -40 59 21.1   223148 1.0065 101.3  m  12?  76.29 125.3   24 124  60  97
   2024 04 25 14:50  19 59 31.49    -41 06 42.7   223313 1.0065 101.2  m  12?  75.40 125.5   25 123  60  97
   2024 04 25 15:00  20 00 25.30    -41 14 01.4   223479 1.0065 101.1  m  12?  74.49 125.7   27 122  60  97
   2024 04 25 15:10  20 01 18.43    -41 21 17.0   223646 1.0064 100.9  m  12?  73.58 125.9   29 122  60  97
   2024 04 25 15:20  20 02 10.86    -41 28 29.3   223814 1.0064 100.8  m  12?  72.67 126.1   30 121  60  97
   2024 04 25 15:30  20 03 02.60    -41 35 38.0   223984 1.0064 100.6  m  12?  71.74 126.3   32 121  60  97
   2024 04 25 15:40  20 03 53.66    -41 42 43.1   224156 1.0064 100.5  m  12?  70.82 126.5   34 120  60  97
   2024 04 25 15:50  20 04 44.04    -41 49 44.2   224330 1.0064 100.4  m  12?  69.89 126.6   35 120  60  97
   2024 04 25 16:00  20 05 33.74    -41 56 41.1   224506 1.0064 100.2  m  12?  68.96 126.8   37 119  60  97
   2024 04 25 16:10  20 06 22.78    -42 03 33.8   224685 1.0064 100.1  m  12?  68.02 126.9   39 119  61  97
   2024 04 25 16:20  20 07 11.16    -42 10 21.9   224867 1.0064 100.0  m  12?  67.09 127.0   40 118  61  97
   2024 04 25 16:30  20 07 58.90    -42 17 05.3   225051 1.0064  99.9  m  12?  66.15 127.1   42 118  61  97
   2024 04 25 16:40  20 08 46.00    -42 23 43.8   225239 1.0064  99.8  m  12?  65.22 127.2   44 118  61  97
   2024 04 25 16:50  20 09 32.47    -42 30 17.1   225430 1.0064  99.6  m  12?  64.29 127.2   45 117  61  97
   2024 04 25 17:00  20 10 18.34    -42 36 45.2   225625 1.0064  99.5  m  12?  63.36 127.3   47 117  61  97
   2024 04 25 17:10  20 11 03.60    -42 43 07.8   225823 1.0064  99.4  m  12?  62.44 127.3   49 117  61  97
   2024 04 25 17:20  20 11 48.29    -42 49 24.8   226025 1.0064  99.3  m  12?  61.53 127.2   50 117  61  97
   2024 04 25 17:30  20 12 32.41    -42 55 35.9   226232 1.0064  99.2  m  12?  60.62 127.2   52 117  61  97
   2024 04 25 17:40  20 13 15.99    -43 01 41.1   226443 1.0064  99.1  m  12?  59.72 127.1   54 117  61  97
   2024 04 25 17:50  20 13 59.04    -43 07 40.1   226658 1.0064  99.0  m  12?  58.83 127.0   56 117  61  97
   2024 04 25 18:00  20 14 41.58    -43 13 32.8   226877 1.0064  98.9  m  12?  57.95 126.9   57 117  61  97
   2024 04 25 18:10  20 15 23.63    -43 19 19.0   227102 1.0064  98.8  m  12?  57.08 126.7   59 118  61  97
   2024 04 25 18:20  20 16 05.22    -43 24 58.6   227331 1.0064  98.7  m  12?  56.23 126.5   61 118  62  97
   2024 04 25 18:30  20 16 46.37    -43 30 31.5   227565 1.0064  98.6  m  12?  55.39 126.3   62 119  62  97
   2024 04 25 18:40  20 17 27.09    -43 35 57.5   227804 1.0064  98.5  m  12?  54.57 126.0   64 119  62  96
   2024 04 25 18:50  20 18 07.43    -43 41 16.6   228049 1.0064  98.4  m  12?  53.77 125.7   66 120  62  96
   2024 04 25 19:00  20 18 47.39    -43 46 28.5   228299 1.0064  98.3  m  12?  52.99 125.4   67 122  62  96
   2024 04 25 19:10  20 19 27.01    -43 51 33.2   228554 1.0064  98.2  m  12?  52.23 125.0   69 123  62  96
   2024 04 25 19:20  20 20 06.31    -43 56 30.7   228815 1.0064  98.1  m  12?  51.49 124.6   70 125  62  96
   2024 04 25 19:30  20 20 45.33    -44 01 20.8   229081 1.0064  98.0  m  12?  50.78 124.1   72 128  62  96
   2024 04 25 19:40  20 21 24.08    -44 06 03.4   229353 1.0064  97.9  m  12?  50.09 123.6   73 131  62  96
   2024 04 25 19:50  20 22 02.59    -44 10 38.5   229631 1.0064  97.8 Am  12?  49.43 123.1   75 134  62  96
   2024 04 25 20:00  20 22 40.91    -44 15 06.0   229914 1.0064  97.7 Am  12?  48.80 122.5   76 139  62  96
   2024 04 25 20:10  20 23 19.04    -44 19 26.0   230203 1.0064  97.6 Am  12?  48.21 121.9   77 144  62  96
   2024 04 25 20:20  20 23 57.03    -44 23 38.2   230498 1.0064  97.5 Nm  12?  47.64 121.2   78 151  62  96
   2024 04 25 20:30  20 24 34.91    -44 27 42.8   230798 1.0064  97.4 Nm  12?  47.11 120.5   79 159  62  96
   2024 04 25 20:40  20 25 12.69    -44 31 39.8   231105 1.0064  97.4 Nm  12?  46.62 119.8   79 168  62  96
   2024 04 25 20:50  20 25 50.42    -44 35 29.0   231417 1.0064  97.3 Cm  12?  46.16 119.0   80 178  62  96
   2024 04 25 21:00  20 26 28.12    -44 39 10.5   231735 1.0064  97.2 Ct  12?  45.74 118.2   79 187  62  96
   2024 04 25 21:10  20 27 05.83    -44 42 44.4   232059 1.0064  97.1 Cm  12?  45.36 117.4   79 196  62  96
   ................
   2024 04 26 13:10  21 56 33.23    -46 34 27.8   266689 1.0062  83.6  r  13?  64.17 101.2    0 152  69  93
   2024 04 26 13:20  21 57 33.98    -46 36 35.4   266861 1.0062  83.5  m  13?  63.64 101.5    0 150  69  93
   2024 04 26 13:30  21 58 34.21    -46 38 44.9   267029 1.0062  83.3  m  13?  63.10 101.8    1 149  69  93
   2024 04 26 13:40  21 59 33.88    -46 40 56.1   267193 1.0062  83.2  m  13?  62.53 102.0    2 148  69  93
   2024 04 26 13:50  22 00 32.99    -46 43 08.9   267353 1.0062  83.1  m  13?  61.95 102.3    3 147  69  93
   2024 04 26 14:00  22 01 31.52    -46 45 23.1   267509 1.0062  83.0  m  13?  61.34 102.6    4 146  69  93
   2024 04 26 14:10  22 02 29.45    -46 47 38.6   267661 1.0062  82.8  m  13?  60.73 102.8    5 145  69  93
   2024 04 26 14:20  22 03 26.77    -46 49 55.2   267809 1.0062  82.7  m  13?  60.09 103.0    6 143  69  93
   2024 04 26 14:30  22 04 23.47    -46 52 12.9   267954 1.0062  82.6  m  13?  59.44 103.3    7 142  69  93
   2024 04 26 14:40  22 05 19.53    -46 54 31.4   268096 1.0062  82.5  m  13?  58.78 103.5    9 141  69  93
   2024 04 26 14:50  22 06 14.94    -46 56 50.6   268235 1.0062  82.4  m  13?  58.10 103.7   10 140  70  93
   2024 04 26 15:00  22 07 09.69    -46 59 10.3   268371 1.0062  82.3  m  13?  57.41 104.0   11 139  70  93
   2024 04 26 15:10  22 08 03.76    -47 01 30.5   268505 1.0062  82.1  m  13?  56.70 104.2   12 138  70  92
   2024 04 26 15:20  22 08 57.15    -47 03 50.8   268636 1.0062  82.0  m  13?  55.99 104.4   13 137  70  92
   2024 04 26 15:30  22 09 49.84    -47 06 11.2   268765 1.0062  81.9  m  13?  55.26 104.6   15 137  70  92
   2024 04 26 15:40  22 10 41.84    -47 08 31.5   268893 1.0062  81.8  m  13?  54.52 104.8   16 136  70  92
   2024 04 26 15:50  22 11 33.12    -47 10 51.4   269018 1.0062  81.7  m  13?  53.77 104.9   17 135  70  92
   2024 04 26 16:00  22 12 23.70    -47 13 10.9   269142 1.0062  81.6  m  13?  53.01 105.1   19 134  70  92
   2024 04 26 16:10  22 13 13.55    -47 15 29.7   269265 1.0062  81.5  m  13?  52.25 105.2   20 133  70  92
   2024 04 26 16:20  22 14 02.67    -47 17 47.6   269387 1.0062  81.4  m  13?  51.48 105.4   22 132  70  92
   2024 04 26 16:30  22 14 51.07    -47 20 04.6   269508 1.0062  81.4  m  13?  50.70 105.5   23 132  70  92
   2024 04 26 16:40  22 15 38.74    -47 22 20.3   269628 1.0062  81.3  m  13?  49.91 105.6   24 131  70  92
   2024 04 26 16:50  22 16 25.67    -47 24 34.6   269749 1.0062  81.2  m  13?  49.12 105.6   26 130  70  92
   2024 04 26 17:00  22 17 11.87    -47 26 47.3   269869 1.0062  81.1  m  13?  48.33 105.7   27 130  70  92
   2024 04 26 17:10  22 17 57.34    -47 28 58.2   269989 1.0062  81.0  m  13?  47.54 105.7   29 129  70  92
   2024 04 26 17:20  22 18 42.08    -47 31 07.1   270109 1.0062  80.9  m  13?  46.74 105.7   30 129  71  92
   2024 04 26 17:30  22 19 26.10    -47 33 13.9   270230 1.0062  80.8  m  13?  45.94 105.7   32 128  71  92
   2024 04 26 17:40  22 20 09.39    -47 35 18.3   270352 1.0062  80.8  m  13?  45.15 105.7   33 128  71  92
   2024 04 26 17:50  22 20 51.97    -47 37 20.2   270475 1.0062  80.7  m  13?  44.35 105.6   35 127  71  92
   2024 04 26 18:00  22 21 33.83    -47 39 19.4   270600 1.0062  80.6  m  13?  43.56 105.5   36 127  71  92
   2024 04 26 18:10  22 22 14.99    -47 41 15.6   270725 1.0062  80.5  m  13?  42.78 105.4   38 126  71  92
   2024 04 26 18:20  22 22 55.46    -47 43 08.8   270853 1.0062  80.5  m  13?  42.00 105.3   39 126  71  92
   2024 04 26 18:30  22 23 35.24    -47 44 58.6   270982 1.0062  80.4  m  13?  41.23 105.1   41 126  71  92
   2024 04 26 18:40  22 24 14.35    -47 46 45.0   271114 1.0062  80.3  m  13?  40.46 104.9   43 125  71  92
   2024 04 26 18:50  22 24 52.80    -47 48 27.8   271248 1.0062  80.3  m  13?  39.71 104.6   44 125  71  92
   2024 04 26 19:00  22 25 30.59    -47 50 06.8   271384 1.0061  80.2  m  13?  38.96 104.3   46 125  71  92
   2024 04 26 19:10  22 26 07.76    -47 51 41.8   271524 1.0061  80.1  m  13?  38.23 103.9   47 125  71  92
   2024 04 26 19:20  22 26 44.30    -47 53 12.7   271666 1.0061  80.1  m  13?  37.52 103.6   49 125  71  92
   2024 04 26 19:30  22 27 20.24    -47 54 39.3   271811 1.0061  80.0  m  13?  36.82 103.1   50 125  71  92
   2024 04 26 19:40  22 27 55.60    -47 56 01.4   271960 1.0061  79.9  m  13?  36.14 102.6   52 125  71  92
   2024 04 26 19:50  22 28 30.38    -47 57 18.9   272112 1.0061  79.9 Am  13?  35.47 102.1   54 125  71  92
   2024 04 26 20:00  22 29 04.62    -47 58 31.7   272268 1.0061  79.8 Am  13?  34.83 101.5   55 126  71  92
   2024 04 26 20:10  22 29 38.33    -47 59 39.7   272428 1.0061  79.7 Am  13?  34.21 100.9   57 126  71  92
   2024 04 26 20:20  22 30 11.54    -48 00 42.6   272592 1.0061  79.7 Nm  13?  33.62 100.2   58 127  71  92
   2024 04 26 20:30  22 30 44.26    -48 01 40.4   272760 1.0061  79.6 Nm  13?  33.05  99.5   60 127  71  92
   2024 04 26 20:40  22 31 16.51    -48 02 32.9   272932 1.0061  79.6 Nm  13?  32.51  98.7   61 128  71  92
   2024 04 26 20:50  22 31 48.33    -48 03 20.1   273109 1.0061  79.5 Cm  13?  32.00  97.9   63 129  71  92
   2024 04 26 21:00  22 32 19.73    -48 04 01.8   273290 1.0061  79.4 Cm  13?  31.52  97.0   64 130  71  92
   2024 04 26 21:10  22 32 50.75    -48 04 38.0   273476 1.0061  79.4 Cm  13?  31.07  96.1   66 132  71  92
   ................
   2024 04 27 08:10  23 12 01.44    -45 59 18.1   294538 1.0060  73.2 C   13?  53.40  72.7    2 212  73  88
   2024 04 27 08:20  23 12 50.54    -45 56 40.9   294872 1.0060  73.1 C   13?  53.69  73.1    1 211  73  88
   2024 04 27 08:30  23 13 39.95    -45 54 06.1   295202 1.0060  73.0 N   13?  53.97  73.4    0 210  73  88
   ................
   2024 04 27 15:10  23 47 03.34    -44 54 26.5   303583 1.0060  68.4  r  13?  47.98  86.7    0 149  76  86
   2024 04 27 15:20  23 47 48.17    -44 54 00.3   303669 1.0060  68.3  m  13?  47.43  87.0    0 147  76  86
   2024 04 27 15:30  23 48 32.49    -44 53 36.2   303751 1.0060  68.2  m  13?  46.87  87.2    1 146  76  86
   2024 04 27 15:40  23 49 16.28    -44 53 14.1   303828 1.0060  68.1  m  13?  46.30  87.4    2 145  76  86
   2024 04 27 15:50  23 49 59.52    -44 52 53.8   303901 1.0059  68.0  m  13?  45.71  87.6    3 144  76  86
   2024 04 27 16:00  23 50 42.21    -44 52 35.3   303970 1.0059  68.0  m  13?  45.11  87.7    4 142  76  86
   2024 04 27 16:10  23 51 24.32    -44 52 18.3   304035 1.0059  67.9  m  13?  44.50  87.9    6 141  76  86
   2024 04 27 16:20  23 52 05.86    -44 52 02.8   304096 1.0059  67.8  m  13?  43.87  88.1    7 140  76  86
   2024 04 27 16:30  23 52 46.81    -44 51 48.5   304153 1.0059  67.7  m  13?  43.24  88.2    8 139  76  86
   2024 04 27 16:40  23 53 27.15    -44 51 35.5   304208 1.0059  67.7  m  13?  42.59  88.3    9 138  76  86
   2024 04 27 16:50  23 54 06.89    -44 51 23.4   304259 1.0059  67.6  m  13?  41.94  88.4   11 137  76  86
   2024 04 27 17:00  23 54 46.01    -44 51 12.1   304307 1.0059  67.5  m  13?  41.28  88.5   12 136  76  86
   2024 04 27 17:10  23 55 24.50    -44 51 01.5   304353 1.0059  67.5  m  13?  40.61  88.5   13 135  76  86
   2024 04 27 17:20  23 56 02.36    -44 50 51.4   304396 1.0059  67.4  m  13?  39.94  88.6   15 134  76  86
   2024 04 27 17:30  23 56 39.59    -44 50 41.7   304438 1.0059  67.3  m  13?  39.26  88.6   16 133  76  86
   2024 04 27 17:40  23 57 16.17    -44 50 32.2   304477 1.0059  67.3  m  13?  38.58  88.6   17 132  77  86
   2024 04 27 17:50  23 57 52.11    -44 50 22.6   304515 1.0059  67.2  m  13?  37.89  88.5   19 131  77  86
   2024 04 27 18:00  23 58 27.39    -44 50 12.9   304551 1.0059  67.1  m  13?  37.20  88.5   20 130  77  86
   2024 04 27 18:10  23 59 02.03    -44 50 02.9   304587 1.0059  67.1  m  13?  36.51  88.4   22 129  77  86
   2024 04 27 18:20  23 59 36.02    -44 49 52.4   304622 1.0059  67.0  m  13?  35.82  88.3   23 128  77  86
   2024 04 27 18:30  00 00 09.35    -44 49 41.2   304656 1.0059  67.0  m  13?  35.14  88.1   25 128  77  86
   2024 04 27 18:40  00 00 42.04    -44 49 29.1   304690 1.0059  66.9  m  13?  34.45  87.9   26 127  77  86
   2024 04 27 18:50  00 01 14.07    -44 49 16.0   304723 1.0059  66.8  m  13?  33.77  87.7   28 126  77  86
   2024 04 27 19:00  00 01 45.46    -44 49 01.8   304757 1.0059  66.8  m  13?  33.09  87.4   30 126  77  86
   2024 04 27 19:10  00 02 16.21    -44 48 46.1   304792 1.0059  66.7  m  13?  32.42  87.1   31 125  77  86
   2024 04 27 19:20  00 02 46.32    -44 48 28.9   304827 1.0059  66.7  m  13?  31.76  86.7   33 124  77  85
   2024 04 27 19:30  00 03 15.80    -44 48 10.0   304864 1.0059  66.6  m  13?  31.11  86.3   34 124  77  85
   2024 04 27 19:40  00 03 44.66    -44 47 49.2   304901 1.0059  66.6  m  13?  30.47  85.9   36 123  77  85
   2024 04 27 19:50  00 04 12.90    -44 47 26.3   304941 1.0059  66.5  m  13?  29.84  85.4   38 122  77  85
   2024 04 27 20:00  00 04 40.54    -44 47 01.2   304982 1.0059  66.5 Am  13?  29.22  84.8   39 122  77  85
   2024 04 27 20:10  00 05 07.58    -44 46 33.8   305025 1.0059  66.4 Am  13?  28.62  84.2   41 122  77  85
   2024 04 27 20:20  00 05 34.03    -44 46 03.7   305070 1.0059  66.4 Nm  13?  28.04  83.6   43 121  77  85
   2024 04 27 20:30  00 05 59.91    -44 45 31.0   305118 1.0059  66.3 Nm  13?  27.48  82.9   44 121  77  85
   2024 04 27 20:40  00 06 25.23    -44 44 55.4   305169 1.0059  66.3 Nm  13?  26.94  82.1   46 120  77  85
   2024 04 27 20:50  00 06 50.00    -44 44 16.8   305222 1.0059  66.2 Cm  13?  26.42  81.3   48 120  77  85
   2024 04 27 21:00  00 07 14.24    -44 43 35.0   305279 1.0059  66.2 Cm  13?  25.92  80.4   49 120  77  85
   2024 04 27 21:10  00 07 37.97    -44 42 50.0   305340 1.0059  66.2 Cm  13?  25.45  79.4   51 120  77  85
   ................
   

Chandra Observatory (JPL-ID: -151)

   Date (UTC) HH:MM   RA              Dec         delta   r     elong SM  mag  '/hr    PA   alt  az moo ill
   ---- -- -- -----  -------------   -----------  ------ ------ ----- --  --- ------ ------ --- --- --- ---
   2024 04 14 16:00  18 33 13.39    +38 29 07.3   152985 1.0033  95.2     14?  23.36  82.6    0  40 112  38
   2024 04 14 16:10  18 33 32.67    +38 29 34.3   152882 1.0033  95.2     14?  22.26  83.5    1  38 113  38
   2024 04 14 16:20  18 33 51.08    +38 29 56.3   152778 1.0033  95.1     14?  21.19  84.6    3  37 113  38
   2024 04 14 16:30  18 34 08.63    +38 30 13.1   152673 1.0033  95.1     14?  20.16  85.8    4  35 113  38
   2024 04 14 16:40  18 34 25.35    +38 30 24.4   152567 1.0033  95.0     14?  19.18  87.3    5  34 113  38
   2024 04 14 16:50  18 34 41.28    +38 30 30.0   152461 1.0033  95.0     14?  18.25  89.0    6  32 113  38
   2024 04 14 17:00  18 34 56.45    +38 30 29.6   152354 1.0033  94.9     14?  17.37  91.0    7  31 113  38
   2024 04 14 17:10  18 35 10.89    +38 30 22.9   152247 1.0033  94.9     14?  16.56  93.2    8  29 113  38
   2024 04 14 17:20  18 35 24.63    +38 30 09.8   152140 1.0033  94.8     14?  15.83  95.8    9  27 113  38
   2024 04 14 17:30  18 35 37.72    +38 29 49.9   152034 1.0033  94.8     14?  15.17  98.6   10  26 113  38
   2024 04 14 17:40  18 35 50.19    +38 29 23.2   151928 1.0033  94.8     14?  14.61 101.7   11  24 113  39
   2024 04 14 17:50  18 36 02.07    +38 28 49.4   151823 1.0033  94.7     14?  14.14 105.1   12  22 113  39
   2024 04 14 18:00  18 36 13.42    +38 28 08.3   151718 1.0033  94.7     14?  13.78 108.8   13  20 113  39
   2024 04 14 18:10  18 36 24.27    +38 27 19.8   151615 1.0033  94.7     14?  13.52 112.5   13  19 113  39
   2024 04 14 18:20  18 36 34.67    +38 26 23.6   151513 1.0033  94.7     14?  13.39 116.4   14  17 113  39
   2024 04 14 18:30  18 36 44.66    +38 25 19.6   151412 1.0033  94.6     14?  13.36 120.3   14  15 113  39
   2024 04 14 18:40  18 36 54.28    +38 24 07.8   151312 1.0033  94.6     14?  13.45 124.1   15  13 113  39
   2024 04 14 18:50  18 37 03.58    +38 22 48.0   151214 1.0033  94.6     14?  13.65 127.7   15  11 113  39
   2024 04 14 19:00  18 37 12.61    +38 21 20.0   151118 1.0033  94.6     14?  13.95 131.1   16   9 113  39
   2024 04 14 19:10  18 37 21.41    +38 19 43.8   151023 1.0033  94.6     14?  14.34 134.2   16   7 113  39
   2024 04 14 19:20  18 37 30.04    +38 17 59.4   150930 1.0033  94.5     14?  14.81 136.9   16   5 113  40
   2024 04 14 19:30  18 37 38.54    +38 16 06.6   150838 1.0033  94.5     14?  15.35 139.4   17   3 113  40
   2024 04 14 19:40  18 37 46.95    +38 14 05.4   150749 1.0033  94.5     14?  15.96 141.5   17   1 113  40
   2024 04 14 19:50  18 37 55.33    +38 11 55.9   150661 1.0033  94.5 At  14?  16.63 143.3   17 359 113  40
   2024 04 14 20:00  18 38 03.73    +38 09 37.9   150575 1.0033  94.5 Ae  14?  17.34 144.8   17 357 113  40
   2024 04 14 20:10  18 38 12.19    +38 07 11.6   150491 1.0033  94.5 A   14?  18.10 146.1   17 355 113  40
   2024 04 14 20:20  18 38 20.77    +38 04 36.8   150409 1.0033  94.5 N   14?  18.89 147.1   16 353 113  40
   2024 04 14 20:30  18 38 29.51    +38 01 53.8   150328 1.0033  94.5 N   14?  19.71 147.8   16 351 113  40
   2024 04 14 20:40  18 38 38.46    +37 59 02.4   150249 1.0033  94.4 C   14?  20.56 148.4   16 349 113  40
   2024 04 14 20:50  18 38 47.67    +37 56 02.9   150172 1.0033  94.4 C   14?  21.44 148.7   16 347 113  40
   2024 04 14 21:00  18 38 57.18    +37 52 55.2   150097 1.0033  94.4 C   14?  22.33 148.9   15 345 113  40
   ................
   2024 04 15 17:00  20 26 56.36    +29 13 15.8    88596 1.0033  74.0  r  13? 106.77 107.6    0  54 123  48
   2024 04 15 17:10  20 28 14.34    +29 07 43.3    87335 1.0033  73.8     13? 108.08 108.2    0  52 123  48
   2024 04 15 17:20  20 29 32.98    +29 01 55.6    86061 1.0033  73.5     13? 109.54 108.8    2  51 123  48
   2024 04 15 17:30  20 30 52.36    +28 55 51.5    84775 1.0033  73.2     13? 111.16 109.4    3  50 123  48
   2024 04 15 17:40  20 32 12.57    +28 49 29.9    83475 1.0033  72.9     13? 112.96 110.1    5  49 123  48
   2024 04 15 17:50  20 33 33.70    +28 42 49.7    82163 1.0033  72.6     13? 114.95 110.7    6  47 123  49
   2024 04 15 18:00  20 34 55.87    +28 35 49.4    80836 1.0033  72.3     13? 117.16 111.4    8  46 124  49
   2024 04 15 18:10  20 36 19.21    +28 28 27.9    79496 1.0033  72.0     13? 119.59 112.1    9  45 124  49
   2024 04 15 18:20  20 37 43.82    +28 20 43.6    78142 1.0033  71.7     13? 122.27 112.7   10  43 124  49
   2024 04 15 18:30  20 39 09.88    +28 12 35.0    76774 1.0033  71.4     13? 125.23 113.4   12  42 124  49
   2024 04 15 18:40  20 40 37.51    +28 04 00.4    75390 1.0033  71.1     13? 128.48 114.1   13  41 124  49
   2024 04 15 18:50  20 42 06.92    +27 54 58.0    73992 1.0033  70.8     13? 132.06 114.8   14  39 124  49
   2024 04 15 19:00  20 43 38.27    +27 45 25.9    72578 1.0033  70.5     13? 135.99 115.4   15  38 124  49
   2024 04 15 19:10  20 45 11.77    +27 35 22.0    71148 1.0033  70.1     13? 140.31 116.1   17  36 124  49
   2024 04 15 19:20  20 46 47.67    +27 24 43.9    69701 1.0033  69.8     13? 145.06 116.7   18  35 125  49
   2024 04 15 19:30  20 48 26.20    +27 13 29.3    68237 1.0033  69.4     13? 150.28 117.3   19  33 125  49
   2024 04 15 19:40  20 50 07.66    +27 01 35.3    66754 1.0033  69.1     13? 156.02 117.9   20  31 125  50
   2024 04 15 19:50  20 51 52.34    +26 48 59.0    65253 1.0033  68.7 A   13? 162.33 118.5   21  30 125  50
   2024 04 15 20:00  20 53 40.59    +26 35 37.1    63733 1.0033  68.3 A   13? 169.28 119.0   22  28 125  50
   2024 04 15 20:10  20 55 32.80    +26 21 25.8    62192 1.0033  67.9 A   13? 176.95 119.6   23  26 125  50
   2024 04 15 20:20  20 57 29.41    +26 06 21.1    60629 1.0033  67.4 N   13? 185.41 120.0   24  25 125  50
   2024 04 15 20:30  20 59 30.88    +25 50 18.4    59044 1.0033  67.0 N   13? 194.77 120.5   25  23 126  50
   2024 04 15 20:40  21 01 37.79    +25 33 12.5    57435 1.0033  66.5 N   13? 205.14 120.9   26  21 126  50
   2024 04 15 20:50  21 03 50.73    +25 14 57.6    55801 1.0033  66.0 C   13? 216.68 121.3   27  20 126  50
   2024 04 15 21:00  21 06 10.44    +24 55 26.9    54141 1.0033  65.5 C   12? 229.54 121.7   28  18 126  50
   ................
   2024 04 16 15:00  17 25 43.43    +41 45 53.0   119749 1.0040 106.5  r  14?  41.43  79.9    0  35 100  57
   2024 04 16 15:10  17 26 19.17    +41 47 00.7   120301 1.0040 106.4     14?  39.68  80.6    1  34 100  57
   2024 04 16 15:20  17 26 53.48    +41 48 00.4   120849 1.0040 106.3     14?  38.00  81.4    2  33 101  57
   2024 04 16 15:30  17 27 26.42    +41 48 51.9   121392 1.0040 106.2     14?  36.39  82.3    3  31 101  57
   2024 04 16 15:40  17 27 58.06    +41 49 35.0   121931 1.0040 106.1     14?  34.86  83.4    4  30 101  57
   2024 04 16 15:50  17 28 28.44    +41 50 09.6   122467 1.0040 106.0     14?  33.41  84.6    5  28 101  57
   2024 04 16 16:00  17 28 57.62    +41 50 35.5   122999 1.0040 105.9     14?  32.05  86.0    6  27 101  57
   2024 04 16 16:10  17 29 25.68    +41 50 52.5   123528 1.0040 105.9     14?  30.77  87.5    7  25 101  57
   2024 04 16 16:20  17 29 52.67    +41 51 00.6   124055 1.0040 105.8     14?  29.58  89.1    7  24 101  58
   2024 04 16 16:30  17 30 18.65    +41 50 59.5   124578 1.0040 105.7     14?  28.49  91.0    8  22 101  58
   2024 04 16 16:40  17 30 43.68    +41 50 49.2   125099 1.0040 105.7     14?  27.51  92.9    9  20 101  58
   2024 04 16 16:50  17 31 07.84    +41 50 29.7   125618 1.0040 105.6     14?  26.63  95.0   10  19 101  58
   2024 04 16 17:00  17 31 31.17    +41 50 00.7   126135 1.0040 105.6     14?  25.86  97.3   10  17 101  58
   2024 04 16 17:10  17 31 53.74    +41 49 22.3   126650 1.0040 105.5     14?  25.21  99.7   11  15 101  58
   2024 04 16 17:20  17 32 15.62    +41 48 34.5   127164 1.0040 105.5     14?  24.67 102.1   11  13 101  58
   2024 04 16 17:30  17 32 36.87    +41 47 37.1   127676 1.0040 105.4     14?  24.24 104.6   12  12 101  58
   2024 04 16 17:40  17 32 57.56    +41 46 30.2   128187 1.0040 105.4     14?  23.94 107.2   12  10 101  58
   2024 04 16 17:50  17 33 17.73    +41 45 13.8   128697 1.0040 105.3     14?  23.75 109.8   13   8 101  58
   2024 04 16 18:00  17 33 37.47    +41 43 47.9   129206 1.0040 105.3     14?  23.67 112.3   13   6 101  58
   2024 04 16 18:10  17 33 56.82    +41 42 12.6   129714 1.0040 105.2     14?  23.70 114.7   13   4 101  58
   2024 04 16 18:20  17 34 15.85    +41 40 27.8   130221 1.0040 105.2     14?  23.83 117.1   13   2 101  58
   2024 04 16 18:30  17 34 34.62    +41 38 33.8   130728 1.0040 105.2     14?  24.05 119.3   13   1 101  59
   2024 04 16 18:40  17 34 53.20    +41 36 30.4   131234 1.0040 105.1  t  14?  24.37 121.4   13 359 101  59
   2024 04 16 18:50  17 35 11.63    +41 34 18.0   131740 1.0040 105.1  e  14?  24.76 123.4   13 357 101  59
   2024 04 16 19:00  17 35 29.98    +41 31 56.5   132246 1.0040 105.1     14?  25.23 125.1   13 355 101  59
   2024 04 16 19:10  17 35 48.30    +41 29 26.2   132751 1.0040 105.1     14?  25.76 126.7   13 353 101  59
   2024 04 16 19:20  17 36 06.66    +41 26 47.2   133256 1.0040 105.0     14?  26.35 128.1   13 351 101  59
   2024 04 16 19:30  17 36 25.10    +41 23 59.5   133760 1.0040 105.0     14?  26.99 129.3   13 349 101  59
   2024 04 16 19:40  17 36 43.67    +41 21 03.6   134264 1.0040 105.0     14?  27.68 130.4   12 348 101  59
   2024 04 16 19:50  17 37 02.44    +41 17 59.4   134768 1.0040 105.0 A   14?  28.40 131.3   12 346 102  59
   2024 04 16 20:00  17 37 21.44    +41 14 47.3   135272 1.0040 104.9 A   14?  29.16 132.0   11 344 102  59
   2024 04 16 20:10  17 37 40.73    +41 11 27.4   135775 1.0040 104.9 A   14?  29.95 132.6   11 342 102  59
   2024 04 16 20:20  17 38 00.35    +41 08 00.0   136278 1.0040 104.9 N   14?  30.76 133.1   10 340 102  60
   2024 04 16 20:30  17 38 20.35    +41 04 25.4   136780 1.0040 104.9 N   14?  31.59 133.5   10 339 102  60
   2024 04 16 20:40  17 38 40.77    +41 00 43.7   137282 1.0040 104.8 N   14?  32.45 133.7    9 337 102  60
   2024 04 16 20:50  17 39 01.66    +40 56 55.3   137783 1.0040 104.8 C   14?  33.31 133.8    8 335 102  60
   2024 04 16 21:00  17 39 23.04    +40 53 00.4   138284 1.0040 104.8 C   14?  34.20 133.9    7 334 102  60
   ................
   2024 04 17 16:00  19 02 42.15    +36 28 12.0   147917 1.0040  91.6  r  14?  27.64  89.0    0  44 114  67
   2024 04 17 16:10  19 03 04.63    +36 28 14.0   147516 1.0040  91.5     14?  26.60  89.9    0  42 114  67
   2024 04 17 16:20  19 03 26.27    +36 28 11.6   147113 1.0040  91.5     14?  25.60  90.9    2  41 114  67
   2024 04 17 16:30  19 03 47.07    +36 28 04.5   146708 1.0040  91.4     14?  24.63  92.1    3  39 114  67
   2024 04 17 16:40  19 04 07.08    +36 27 52.4   146302 1.0040  91.3     14?  23.70  93.4    4  38 114  67
   2024 04 17 16:50  19 04 26.30    +36 27 34.9   145894 1.0040  91.3     14?  22.82  94.9    6  36 114  67
   2024 04 17 17:00  19 04 44.77    +36 27 11.8   145485 1.0040  91.2     14?  21.99  96.6    7  35 114  67
   2024 04 17 17:10  19 05 02.51    +36 26 42.7   145075 1.0040  91.2     14?  21.22  98.5    8  33 114  67
   2024 04 17 17:20  19 05 19.55    +36 26 07.5   144664 1.0040  91.1     14?  20.52 100.6    9  32 114  67
   2024 04 17 17:30  19 05 35.92    +36 25 25.7   144253 1.0040  91.1     14?  19.89 102.9   10  30 114  67
   2024 04 17 17:40  19 05 51.65    +36 24 37.2   143842 1.0040  91.0     14?  19.34 105.4   11  28 114  67
   2024 04 17 17:50  19 06 06.79    +36 23 41.7   143431 1.0040  91.0     14?  18.87 108.0   12  26 114  67
   2024 04 17 18:00  19 06 21.35    +36 22 39.0   143019 1.0040  91.0     14?  18.50 110.8   13  25 114  67
   2024 04 17 18:10  19 06 35.39    +36 21 28.7   142608 1.0040  90.9     14?  18.23 113.8   14  23 114  68
   2024 04 17 18:20  19 06 48.94    +36 20 10.7   142197 1.0040  90.9     14?  18.06 116.8   15  21 114  68
   2024 04 17 18:30  19 07 02.03    +36 18 44.7   141787 1.0040  90.8     14?  17.99 119.8   15  19 114  68
   2024 04 17 18:40  19 07 14.72    +36 17 10.6   141377 1.0040  90.8     14?  18.03 122.8   16  17 114  68
   2024 04 17 18:50  19 07 27.05    +36 15 28.1   140967 1.0040  90.8     14?  18.17 125.8   17  15 114  68
   2024 04 17 19:00  19 07 39.05    +36 13 37.1   140559 1.0040  90.8     14?  18.41 128.6   17  13 114  68
   2024 04 17 19:10  19 07 50.78    +36 11 37.3   140151 1.0040  90.7     14?  18.75 131.3   18  11 114  68
   2024 04 17 19:20  19 08 02.29    +36 09 28.7   139744 1.0040  90.7     14?  19.18 133.7   18   9 114  68
   2024 04 17 19:30  19 08 13.61    +36 07 11.1   139338 1.0040  90.7     14?  19.70 136.0   18   7 114  68
   2024 04 17 19:40  19 08 24.80    +36 04 44.3   138934 1.0040  90.7     14?  20.29 138.0   19   5 114  68
   2024 04 17 19:50  19 08 35.92    +36 02 08.2   138530 1.0040  90.6 A   14?  20.96 139.9   19   3 114  68
   2024 04 17 20:00  19 08 47.00    +35 59 22.8   138127 1.0040  90.6 A   14?  21.69 141.5   19   1 114  68
   2024 04 17 20:10  19 08 58.10    +35 56 27.9   137725 1.0040  90.6 At  14?  22.48 142.8   19 359 115  69
   2024 04 17 20:20  19 09 09.27    +35 53 23.5   137324 1.0040  90.6 Ne  14?  23.32 144.0   19 356 115  69
   2024 04 17 20:30  19 09 20.57    +35 50 09.5   136924 1.0040  90.6 N   14?  24.22 145.0   19 354 115  69
   2024 04 17 20:40  19 09 32.04    +35 46 45.9   136524 1.0040  90.5 N   14?  25.16 145.7   19 352 115  69
   2024 04 17 20:50  19 09 43.74    +35 43 12.7   136126 1.0040  90.5 C   14?  26.13 146.3   18 350 115  69
   2024 04 17 21:00  19 09 55.72    +35 39 29.8   135728 1.0040  90.5 C   14?  27.15 146.8   18 348 115  69
   ................
   2024 04 19 15:20  18 05 58.71    +40 00 48.0   145193 1.0047 101.7  r  14?  26.17  80.3    0  38  96  83
   2024 04 19 15:30  18 06 20.67    +40 01 28.6   145358 1.0047 101.7  m  14?  24.93  81.1    1  36  96  83
   2024 04 19 15:40  18 06 41.63    +40 02 03.4   145521 1.0048 101.6  m  14?  23.73  82.1    2  35  96  83
   2024 04 19 15:50  18 07 01.63    +40 02 32.3   145682 1.0048 101.5  m  14?  22.58  83.3    3  33  96  83
   2024 04 19 16:00  18 07 20.71    +40 02 54.9   145843 1.0048 101.5  m  14?  21.48  84.6    4  32  96  83
   2024 04 19 16:10  18 07 38.90    +40 03 11.1   146002 1.0048 101.4  m  14?  20.44  86.2    6  30  96  83
   2024 04 19 16:20  18 07 56.25    +40 03 20.7   146160 1.0048 101.4  m  14?  19.46  88.0    7  29  96  83
   2024 04 19 16:30  18 08 12.79    +40 03 23.4   146318 1.0048 101.3  m  14?  18.55  90.1    7  27  96  83
   2024 04 19 16:40  18 08 28.57    +40 03 18.9   146476 1.0048 101.3  m  14?  17.71  92.4    8  26  96  83
   2024 04 19 16:50  18 08 43.63    +40 03 07.2   146633 1.0048 101.3  m  14?  16.96  95.0    9  24  96  83
   2024 04 19 17:00  18 08 58.01    +40 02 48.1   146790 1.0048 101.2  m  14?  16.31  97.9   10  22  96  83
   2024 04 19 17:10  18 09 11.77    +40 02 21.3   146948 1.0048 101.2  m  14?  15.75 101.0   11  20  96  83
   2024 04 19 17:20  18 09 24.93    +40 01 46.8   147106 1.0048 101.2  m  14?  15.30 104.3   12  19  96  83
   2024 04 19 17:30  18 09 37.57    +40 01 04.3   147265 1.0048 101.1     14?  14.96 107.9   12  17  96  83
   2024 04 19 17:40  18 09 49.71    +40 00 13.9   147424 1.0048 101.1     14?  14.74 111.5   13  15  96  83
   2024 04 19 17:50  18 10 01.41    +39 59 15.3   147584 1.0048 101.1     14?  14.63 115.1   13  13  96  83
   2024 04 19 18:00  18 10 12.73    +39 58 08.5   147745 1.0048 101.1     14?  14.64 118.8   14  11  96  83
   2024 04 19 18:10  18 10 23.70    +39 56 53.4   147907 1.0048 101.0     14?  14.75 122.3   14   9  96  83
   2024 04 19 18:20  18 10 34.39    +39 55 30.0   148070 1.0048 101.0     14?  14.97 125.6   14   7  97  84
   2024 04 19 18:30  18 10 44.83    +39 53 58.2   148235 1.0048 101.0     14?  15.29 128.7   15   5  97  84
   2024 04 19 18:40  18 10 55.09    +39 52 18.0   148401 1.0048 101.0     14?  15.70 131.5   15   3  97  84
   2024 04 19 18:50  18 11 05.21    +39 50 29.4   148568 1.0048 101.0     14?  16.18 134.0   15   2  97  84
   2024 04 19 19:00  18 11 15.24    +39 48 32.3   148737 1.0048 101.0     14?  16.73 136.2   15   0  97  84
   2024 04 19 19:10  18 11 25.24    +39 46 26.9   148907 1.0048 101.0  t  14?  17.34 138.1   15 358  97  84
   2024 04 19 19:20  18 11 35.25    +39 44 13.2   149079 1.0048 100.9     14?  18.00 139.8   15 356  97  84
   2024 04 19 19:30  18 11 45.32    +39 41 51.1   149252 1.0048 100.9     14?  18.71 141.1   15 354  97  84
   2024 04 19 19:40  18 11 55.51    +39 39 20.9   149426 1.0048 100.9     14?  19.46 142.3   15 352  97  84
   2024 04 19 19:50  18 12 05.86    +39 36 42.5   149603 1.0048 100.9 A   14?  20.23 143.2   14 350  97  84
   2024 04 19 20:00  18 12 16.42    +39 33 56.2   149780 1.0048 100.9 A   14?  21.04 143.8   14 348  97  84
   2024 04 19 20:10  18 12 27.23    +39 31 01.9   149959 1.0048 100.9 A   14?  21.87 144.3   14 346  97  84
   2024 04 19 20:20  18 12 38.35    +39 28 00.0   150139 1.0048 100.9 N   14?  22.72 144.7   13 344  97  84
   2024 04 19 20:30  18 12 49.82    +39 24 50.4   150321 1.0048 100.9 N   14?  23.58 144.8   13 342  97  84
   2024 04 19 20:40  18 13 01.67    +39 21 33.3   150504 1.0048 100.9 N   14?  24.47 144.9   12 340  97  84
   2024 04 19 20:50  18 13 13.96    +39 18 09.0   150687 1.0048 100.9 C   14?  25.36 144.8   12 338  97  84
   2024 04 19 21:00  18 13 26.73    +39 14 37.7   150872 1.0048 100.9 C   14?  26.27 144.6   11 337  97  84
   ................
   2024 04 20 16:10  19 37 39.65    +33 40 10.0   126425 1.0048  86.9  r  14?  43.48  98.4    0  48 111  89
   2024 04 20 16:20  19 38 13.72    +33 39 03.1   125666 1.0048  86.8  m  14?  42.66  99.2    1  46 111  89
   2024 04 20 16:30  19 38 47.08    +33 37 50.9   124903 1.0048  86.7  m  14?  41.89 100.1    2  45 111  89
   2024 04 20 16:40  19 39 19.72    +33 36 33.1   124136 1.0048  86.6  m  14?  41.15 101.1    3  43 111  89
   2024 04 20 16:50  19 39 51.68    +33 35 09.1   123364 1.0048  86.5  m  14?  40.46 102.2    5  42 111  89
   2024 04 20 17:00  19 40 22.96    +33 33 38.6   122588 1.0048  86.4  m  14?  39.82 103.4    6  40 111  89
   2024 04 20 17:10  19 40 53.60    +33 32 01.3   121809 1.0048  86.3  m  14?  39.23 104.7    7  39 112  90
   2024 04 20 17:20  19 41 23.62    +33 30 16.7   121026 1.0048  86.2  m  14?  38.71 106.1    9  37 112  90
   2024 04 20 17:30  19 41 53.04    +33 28 24.4   120239 1.0048  86.1  m  14?  38.26 107.5   10  36 112  90
   2024 04 20 17:40  19 42 21.90    +33 26 24.1   119449 1.0048  86.0  m  14?  37.88 109.0   11  34 112  90
   2024 04 20 17:50  19 42 50.21    +33 24 15.3   118656 1.0048  85.9  m  14?  37.58 110.6   12  32 112  90
   2024 04 20 18:00  19 43 18.03    +33 21 57.7   117860 1.0048  85.9  m  14?  37.36 112.2   13  31 112  90
   2024 04 20 18:10  19 43 45.38    +33 19 30.8   117060 1.0048  85.8  m  14?  37.23 113.8   14  29 112  90
   2024 04 20 18:20  19 44 12.30    +33 16 54.3   116258 1.0048  85.7  m  14?  37.19 115.5   15  27 112  90
   2024 04 20 18:30  19 44 38.83    +33 14 07.8   115453 1.0048  85.6     14?  37.25 117.2   16  25 112  90
   2024 04 20 18:40  19 45 05.01    +33 11 10.8   114645 1.0048  85.5     14?  37.41 119.0   17  23 112  90
   2024 04 20 18:50  19 45 30.90    +33 08 03.1   113835 1.0048  85.5     14?  37.68 120.7   18  22 112  90
   2024 04 20 19:00  19 45 56.53    +33 04 44.1   113022 1.0048  85.4     14?  38.04 122.4   19  20 112  90
   2024 04 20 19:10  19 46 21.95    +33 01 13.6   112206 1.0048  85.3     13?  38.52 124.0   19  18 112  90
   2024 04 20 19:20  19 46 47.21    +32 57 31.2   111387 1.0048  85.3     13?  39.10 125.6   20  16 112  90
   2024 04 20 19:30  19 47 12.38    +32 53 36.4   110566 1.0048  85.2     13?  39.79 127.1   20  13 113  90
   2024 04 20 19:40  19 47 37.50    +32 49 29.0   109741 1.0048  85.1     13?  40.58 128.5   21  11 113  90
   2024 04 20 19:50  19 48 02.63    +32 45 08.5   108914 1.0048  85.0 A   13?  41.48 129.9   21   9 113  90
   2024 04 20 20:00  19 48 27.83    +32 40 34.6   108085 1.0048  85.0 A   13?  42.48 131.2   22   7 113  90
   2024 04 20 20:10  19 48 53.17    +32 35 47.0   107252 1.0048  84.9 A   13?  43.59 132.3   22   5 113  90
   2024 04 20 20:20  19 49 18.70    +32 30 45.3   106416 1.0048  84.8 N   13?  44.80 133.4   22   3 113  90
   2024 04 20 20:30  19 49 44.50    +32 25 29.2   105577 1.0048  84.8 N   13?  46.10 134.4   22   1 113  90
   2024 04 20 20:40  19 50 10.62    +32 19 58.4   104735 1.0048  84.7 Nt  13?  47.51 135.2   23 358 113  90
   2024 04 20 20:50  19 50 37.15    +32 14 12.4   103890 1.0048  84.6 Ce  13?  49.01 136.0   23 356 113  90
   2024 04 20 21:00  19 51 04.14    +32 08 11.0   103040 1.0048  84.6 C   13?  50.61 136.7   23 354 113  90
   ................
   2024 04 21 08:20  12 14 43.27    +21 10 16.5    10388 1.0050 138.4 Cm  10? 4148.2  55.1    3  61  20  93
   ................
   2024 04 21 13:30  16 10 48.19    +43 16 36.2    71026 1.0053 116.9  r  13? 135.66  79.9    0  34  67  94
   2024 04 21 13:40  16 12 47.75    +43 20 19.6    72266 1.0053 116.6  m  13? 129.21  80.4    0  33  68  94
   2024 04 21 13:50  16 14 41.96    +43 23 40.8    73486 1.0053 116.3  m  13? 123.17  80.9    1  31  68  94
   2024 04 21 14:00  16 16 31.14    +43 26 40.7    74688 1.0053 116.1  m  13? 117.51  81.5    2  30  68  94
   2024 04 21 14:10  16 18 15.60    +43 29 20.3    75871 1.0053 115.9  m  13? 112.21  82.2    2  29  69  94
   2024 04 21 14:20  16 19 55.61    +43 31 40.4    77038 1.0053 115.6  m  13? 107.24  82.8    3  28  69  94
   2024 04 21 14:30  16 21 31.44    +43 33 41.6    78188 1.0053 115.4  m  13? 102.59  83.6    4  26  69  94
   2024 04 21 14:40  16 23 03.33    +43 35 24.7    79323 1.0053 115.2  m  13?  98.23  84.3    5  25  69  94
   2024 04 21 14:50  16 24 31.51    +43 36 50.1    80444 1.0053 115.0  m  13?  94.16  85.2    5  24  70  94
   2024 04 21 15:00  16 25 56.22    +43 37 58.5    81550 1.0053 114.9  m  13?  90.34  86.0    6  22  70  94
   2024 04 21 15:10  16 27 17.64    +43 38 50.3    82643 1.0053 114.7  m  13?  86.79  86.9    7  21  70  94
   2024 04 21 15:20  16 28 36.00    +43 39 26.0    83723 1.0053 114.5  m  13?  83.48  87.9    7  19  70  94
   2024 04 21 15:30  16 29 51.46    +43 39 46.0    84791 1.0053 114.4  m  13?  80.40  89.0    8  18  71  94
   2024 04 21 15:40  16 31 04.22    +43 39 50.7    85847 1.0053 114.2  m  13?  77.55  90.0    9  16  71  94
   2024 04 21 15:50  16 32 14.44    +43 39 40.4    86892 1.0053 114.1  m  14?  74.91  91.2    9  15  71  94
   2024 04 21 16:00  16 33 22.30    +43 39 15.5    87926 1.0053 114.0  m  14?  72.48  92.4   10  13  71  94
   2024 04 21 16:10  16 34 27.94    +43 38 36.5    88951 1.0053 113.8  m  14?  70.25  93.6   10  12  71  94
   2024 04 21 16:20  16 35 31.51    +43 37 43.5    89966 1.0053 113.7  m  14?  68.22  94.9   10  10  72  94
   2024 04 21 16:30  16 36 33.17    +43 36 36.9    90971 1.0053 113.6  m  14?  66.38  96.2   11   8  72  94
   2024 04 21 16:40  16 37 33.05    +43 35 17.1    91968 1.0053 113.5  m  14?  64.72  97.5   11   7  72  94
   2024 04 21 16:50  16 38 31.28    +43 33 44.3    92957 1.0053 113.4  m  14?  63.23  98.8   11   5  72  94
   2024 04 21 17:00  16 39 27.99    +43 31 59.0    93937 1.0054 113.3  m  14?  61.91 100.2   11   3  72  94
   2024 04 21 17:10  16 40 23.30    +43 30 01.3    94910 1.0054 113.2  m  14?  60.74 101.5   11   2  72  94
   2024 04 21 17:20  16 41 17.34    +43 27 51.6    95875 1.0054 113.1  m  14?  59.74 102.9   12   0  72  94
   2024 04 21 17:30  16 42 10.22    +43 25 30.3    96833 1.0054 113.1  t  14?  58.87 104.2   12 358  73  95
   2024 04 21 17:40  16 43 02.03    +43 22 57.6    97784 1.0054 113.0  e  14?  58.15 105.6   12 357  73  95
   2024 04 21 17:50  16 43 52.90    +43 20 14.0    98729 1.0054 112.9  m  14?  57.55 106.9   11 355  73  95
   2024 04 21 18:00  16 44 42.91    +43 17 19.6    99668 1.0054 112.8  m  14?  57.08 108.1   11 353  73  95
   2024 04 21 18:10  16 45 32.17    +43 14 14.9   100600 1.0054 112.8  m  14?  56.72 109.3   11 351  73  95
   2024 04 21 18:20  16 46 20.77    +43 11 00.2   101527 1.0054 112.7  m  14?  56.47 110.5   11 350  73  95
   2024 04 21 18:30  16 47 08.79    +43 07 35.9   102448 1.0054 112.6  m  14?  56.31 111.6   11 348  73  95
   2024 04 21 18:40  16 47 56.32    +43 04 02.2   103364 1.0054 112.6  m  14?  56.25 112.6   10 346  73  95
   2024 04 21 18:50  16 48 43.44    +43 00 19.6   104274 1.0054 112.5  m  14?  56.27 113.6   10 345  73  95
   2024 04 21 19:00  16 49 30.23    +42 56 28.4   105179 1.0054 112.5  m  14?  56.37 114.5    9 343  73  95
   2024 04 21 19:10  16 50 16.75    +42 52 28.9   106078 1.0054 112.4  m  14?  56.54 115.3    9 341  74  95
   2024 04 21 19:20  16 51 03.09    +42 48 21.6   106973 1.0054 112.4     14?  56.77 116.0    8 340  74  95
   2024 04 21 19:30  16 51 49.29    +42 44 06.8   107863 1.0054 112.3     14?  57.05 116.7    8 338  74  95
   2024 04 21 19:40  16 52 35.44    +42 39 44.9   108748 1.0054 112.3     14?  57.39 117.3    7 337  74  95
   2024 04 21 19:50  16 53 21.58    +42 35 16.2   109628 1.0054 112.2 A   14?  57.77 117.9    6 335  74  95
   2024 04 21 20:00  16 54 07.77    +42 30 41.2   110503 1.0054 112.2 A   14?  58.20 118.3    6 333  74  95
   2024 04 21 20:10  16 54 54.07    +42 26 00.2   111374 1.0054 112.1 A   14?  58.66 118.7    5 332  74  95
   2024 04 21 20:20  16 55 40.52    +42 21 13.5   112240 1.0054 112.1 N   14?  59.15 119.1    4 330  74  95
   2024 04 21 20:30  16 56 27.17    +42 16 21.7   113101 1.0054 112.0 N   14?  59.67 119.3    3 329  74  95
   2024 04 21 20:40  16 57 14.06    +42 11 25.0   113957 1.0054 112.0 N   14?  60.21 119.6    2 328  74  95
   2024 04 21 20:50  16 58 01.23    +42 06 23.9   114809 1.0054 111.9 C   14?  60.77 119.7    1 326  74  95
   2024 04 21 21:00  16 58 48.72    +42 01 18.7   115655 1.0054 111.9 C   14?  61.35 119.8    0 325  74  95
   ................
   2024 04 22 15:30  18 36 46.46    +38 12 34.7   153048 1.0055  98.3  m  14?  23.60  84.0    0  40  88  98
   2024 04 22 15:40  18 37 05.93    +38 12 56.4   152908 1.0055  98.3  m  14?  22.51  84.9    1  39  89  98
   2024 04 22 15:50  18 37 24.53    +38 13 13.2   152766 1.0055  98.2  m  14?  21.46  86.0    3  37  89  98
   2024 04 22 16:00  18 37 42.28    +38 13 24.9   152623 1.0055  98.2  m  14?  20.45  87.3    4  36  89  98
   2024 04 22 16:10  18 37 59.21    +38 13 31.3   152479 1.0055  98.1  m  14?  19.48  88.8    5  34  89  98
   2024 04 22 16:20  18 38 15.35    +38 13 31.9   152335 1.0055  98.1  m  14?  18.56  90.5    6  33  89  98
   2024 04 22 16:30  18 38 30.73    +38 13 26.7   152190 1.0055  98.0  m  14?  17.71  92.5    7  31  89  98
   2024 04 22 16:40  18 38 45.38    +38 13 15.3   152045 1.0055  98.0  m  14?  16.91  94.8    8  30  89  98
   2024 04 22 16:50  18 38 59.34    +38 12 57.5   151901 1.0055  97.9  m  14?  16.19  97.3    9  28  89  98
   2024 04 22 17:00  18 39 12.64    +38 12 33.0   151756 1.0055  97.9  m  14?  15.55 100.1   10  26  89  98
   2024 04 22 17:10  18 39 25.32    +38 12 01.8   151613 1.0055  97.9  m  14?  15.00 103.2   11  24  89  98
   2024 04 22 17:20  18 39 37.41    +38 11 23.5   151469 1.0055  97.8  m  14?  14.55 106.5   12  23  89  98
   2024 04 22 17:30  18 39 48.97    +38 10 37.9   151327 1.0055  97.8  m  14?  14.20 110.1   13  21  89  98
   2024 04 22 17:40  18 40 00.03    +38 09 45.0   151185 1.0055  97.8  m  14?  13.97 113.7   13  19  89  98
   2024 04 22 17:50  18 40 10.63    +38 08 44.4   151045 1.0055  97.8  m  14?  13.84 117.5   14  17  89  98
   2024 04 22 18:00  18 40 20.81    +38 07 36.1   150906 1.0055  97.8  m  14?  13.83 121.3   15  15  89  98
   2024 04 22 18:10  18 40 30.63    +38 06 20.0   150768 1.0055  97.7  m  14?  13.92 124.9   15  13  89  98
   2024 04 22 18:20  18 40 40.12    +38 04 55.8   150632 1.0055  97.7  m  14?  14.12 128.4   16  11  89  98
   2024 04 22 18:30  18 40 49.33    +38 03 23.5   150497 1.0055  97.7  m  14?  14.43 131.7   16   9  89  98
   2024 04 22 18:40  18 40 58.31    +38 01 43.0   150364 1.0055  97.7  m  14?  14.82 134.7   16   7  89  98
   2024 04 22 18:50  18 41 07.10    +37 59 54.2   150232 1.0055  97.7  m  14?  15.29 137.4   17   5  89  98
   2024 04 22 19:00  18 41 15.76    +37 57 57.1   150102 1.0055  97.7  m  14?  15.84 139.8   17   3  89  98
   2024 04 22 19:10  18 41 24.34    +37 55 51.5   149974 1.0055  97.7  m  14?  16.45 141.9   17   1  89  98
   2024 04 22 19:20  18 41 32.87    +37 53 37.5   149848 1.0055  97.6  t  14?  17.12 143.6   17 359  89  98
   2024 04 22 19:30  18 41 41.41    +37 51 15.0   149724 1.0055  97.6  e  14?  17.83 145.1   17 357  89  98
   2024 04 22 19:40  18 41 50.02    +37 48 44.1   149601 1.0055  97.6  m  14?  18.59 146.3   17 355  89  98
   2024 04 22 19:50  18 41 58.73    +37 46 04.7   149480 1.0055  97.6 Am  14?  19.39 147.3   17 353  89  98
   2024 04 22 20:00  18 42 07.59    +37 43 16.9   149361 1.0055  97.6 Am  14?  20.22 148.1   17 351  89  98
   2024 04 22 20:10  18 42 16.66    +37 40 20.8   149244 1.0055  97.6 Am  14?  21.08 148.6   16 349  89  98
   2024 04 22 20:20  18 42 25.98    +37 37 16.3   149128 1.0055  97.6 N   14?  21.96 149.0   16 347  89  98
   2024 04 22 20:30  18 42 35.60    +37 34 03.6   149014 1.0055  97.6 N   14?  22.86 149.2   16 345  89  98
   2024 04 22 20:40  18 42 45.57    +37 30 42.8   148901 1.0055  97.6 N   14?  23.79 149.3   15 343  89  98
   2024 04 22 20:50  18 42 55.93    +37 27 13.9   148789 1.0055  97.6 C   14?  24.73 149.2   15 341  89  98
   2024 04 22 21:00  18 43 06.72    +37 23 37.1   148679 1.0055  97.6 C   14?  25.69 149.0   14 339  89  98
   2024 04 22 21:10  18 43 18.00    +37 19 52.5   148570 1.0055  97.6 C   14?  26.66 148.7   13 337  89  98
   ................
   2024 04 23 16:40  20 39 38.59    +27 44 31.6    79671 1.0055  76.7  r  13? 136.71 109.7    0  55 106  99
   2024 04 23 16:50  20 41 16.24    +27 36 35.5    78283 1.0055  76.3  m  13? 139.68 110.3    1  54 107  99
   2024 04 23 17:00  20 42 55.60    +27 28 15.9    76880 1.0055  76.0  m  13? 142.94 110.8    3  53 107  99
   2024 04 23 17:10  20 44 36.86    +27 19 31.2    75460 1.0055  75.6  m  13? 146.51 111.4    4  51 107  99
   2024 04 23 17:20  20 46 20.20    +27 10 19.5    74023 1.0055  75.3  m  13? 150.43 111.9    6  50 108  99
   2024 04 23 17:30  20 48 05.82    +27 00 38.6    72568 1.0055  74.9  m  13? 154.73 112.5    7  49 108  99
   2024 04 23 17:40  20 49 53.97    +26 50 26.3    71097 1.0055  74.5  m  13? 159.46 113.1    8  48 108  99
   2024 04 23 17:50  20 51 44.89    +26 39 40.2    69606 1.0055  74.2  m  13? 164.65 113.6   10  47 109  99
   2024 04 23 18:00  20 53 38.87    +26 28 17.5    68098 1.0055  73.8  m  13? 170.36 114.2   11  45 109  99
   2024 04 23 18:10  20 55 36.22    +26 16 15.4    66569 1.0055  73.4  m  13? 176.66 114.7   12  44 109  99
   2024 04 23 18:20  20 57 37.31    +26 03 30.5    65021 1.0055  72.9  m  13? 183.60 115.2   14  43 110  99
   2024 04 23 18:30  20 59 42.53    +25 49 59.2    63451 1.0055  72.5  m  13? 191.27 115.8   15  42 110  99
   2024 04 23 18:40  21 01 52.33    +25 35 37.4    61860 1.0055  72.0  m  13? 199.75 116.3   16  40 111  99
   2024 04 23 18:50  21 04 07.21    +25 20 20.7    60246 1.0055  71.6  m  13? 209.16 116.7   18  39 111  99
   2024 04 23 19:00  21 06 27.75    +25 04 03.8    58608 1.0055  71.1  m  13? 219.62 117.2   19  38 112  99
   2024 04 23 19:10  21 08 54.60    +24 46 41.0    56945 1.0055  70.6  m  12? 231.28 117.6   20  36 112  99
   2024 04 23 19:20  21 11 28.53    +24 28 05.8    55256 1.0055  70.0  m  12? 244.32 118.0   21  35 113  99
   2024 04 23 19:30  21 14 10.38    +24 08 10.5    53539 1.0055  69.4  m  12? 258.94 118.4   22  33 113  99
   2024 04 23 19:40  21 17 01.18    +23 46 46.5    51793 1.0055  68.8  m  12? 275.43 118.8   23  32 114  99
   2024 04 23 19:50  21 20 02.09    +23 23 43.5    50015 1.0055  68.2 Am  12? 294.08 119.1   24  31 114  99
   2024 04 23 20:00  21 23 14.51    +22 58 49.8    48205 1.0055  67.5 Am  12? 315.31 119.4   26  29 115  99
   2024 04 23 20:10  21 26 40.07    +22 31 51.2    46359 1.0055  66.7 Am  12? 339.62 119.6   27  28 116  99
   2024 04 23 20:20  21 30 20.77    +22 02 31.0    44476 1.0055  65.9 Nm  12? 367.64 119.8   28  27 116  99
   2024 04 23 20:30  21 34 19.00    +21 30 28.8    42553 1.0055  65.1 Nm  12? 400.19 120.0   29  26 117  99
   2024 04 23 20:40  21 38 37.73    +20 55 19.9    40587 1.0055  64.1 Nm  12? 438.36 120.2   30  24 118  99
   2024 04 23 20:50  21 43 20.62    +20 16 33.6    38573 1.0055  63.1 Cm  12? 483.58 120.3   31  23 119  99
   2024 04 23 21:00  21 48 32.35    +19 33 31.4    36510 1.0055  61.9 Cm  12? 537.81 120.3   32  22 120  99
   2024 04 23 21:10  21 54 18.93    +18 45 24.0    34392 1.0055  60.6 Cm  12? 603.76 120.3   33  22 121  99
   ................
   2024 04 24 14:30  17 31 22.09    +41 31 22.0   124069 1.0061 108.2  r  14?  38.64  80.0    0  36  71  99
   2024 04 24 14:40  17 31 55.30    +41 32 24.6   124563 1.0061 108.2  m  14?  36.99  80.7    0  35  71  99
   2024 04 24 14:50  17 32 27.16    +41 33 19.7   125052 1.0062 108.1  m  14?  35.40  81.5    2  33  71  99
   2024 04 24 15:00  17 32 57.72    +41 34 07.2   125538 1.0062 108.0  m  14?  33.88  82.4    3  32  71  99
   2024 04 24 15:10  17 33 27.05    +41 34 46.8   126020 1.0062 107.9  m  14?  32.43  83.5    4  30  72  99
   2024 04 24 15:20  17 33 55.19    +41 35 18.4   126499 1.0062 107.8  m  14?  31.05  84.7    5  29  72  99
   2024 04 24 15:30  17 34 22.20    +41 35 41.7   126975 1.0062 107.8  m  14?  29.75  86.1    6  27  72  99
   2024 04 24 15:40  17 34 48.14    +41 35 56.7   127448 1.0062 107.7  m  14?  28.53  87.7    6  26  72  99
   2024 04 24 15:50  17 35 13.06    +41 36 03.1   127919 1.0062 107.6  m  14?  27.40  89.4    7  24  72  99
   2024 04 24 16:00  17 35 37.02    +41 36 00.8   128388 1.0062 107.6  m  14?  26.37  91.3    8  23  72  99
   2024 04 24 16:10  17 36 00.07    +41 35 49.8   128855 1.0062 107.5  m  14?  25.43  93.3    9  21  72  99
   2024 04 24 16:20  17 36 22.29    +41 35 29.7   129320 1.0062 107.5  m  14?  24.59  95.5   10  19  72  99
   2024 04 24 16:30  17 36 43.72    +41 35 00.7   129783 1.0062 107.4  m  14?  23.87  97.9   10  18  72  99
   2024 04 24 16:40  17 37 04.43    +41 34 22.6   130245 1.0062 107.4  m  14?  23.25 100.4   11  16  72  99
   2024 04 24 16:50  17 37 24.47    +41 33 35.3   130706 1.0062 107.3  m  14?  22.75 103.0   11  14  72  99
   2024 04 24 17:00  17 37 43.91    +41 32 38.8   131167 1.0062 107.3  m  14?  22.36 105.6   12  12  72  99
   2024 04 24 17:10  17 38 02.80    +41 31 33.1   131626 1.0062 107.3  m  14?  22.09 108.4   12  11  72  99
   2024 04 24 17:20  17 38 21.22    +41 30 18.1   132084 1.0062 107.2  m  14?  21.93 111.1   13   9  72  99
   2024 04 24 17:30  17 38 39.20    +41 28 53.8   132542 1.0062 107.2  m  14?  21.88 113.7   13   7  72  99
   2024 04 24 17:40  17 38 56.83    +41 27 20.3   133000 1.0062 107.2  m  14?  21.94 116.3   13   5  72  99
   2024 04 24 17:50  17 39 14.14    +41 25 37.6   133457 1.0062 107.2  m  14?  22.11 118.8   13   3  72  99
   2024 04 24 18:00  17 39 31.22    +41 23 45.8   133914 1.0062 107.1  m  14?  22.36 121.1   14   1  72  99
   2024 04 24 18:10  17 39 48.10    +41 21 44.9   134371 1.0062 107.1  t  14?  22.70 123.3   14 359  72  99
   2024 04 24 18:20  17 40 04.85    +41 19 35.0   134828 1.0062 107.1  e  14?  23.12 125.3   14 357  72  99
   2024 04 24 18:30  17 40 21.53    +41 17 16.2   135285 1.0062 107.1  m  14?  23.61 127.1   14 356  72  99
   2024 04 24 18:40  17 40 38.19    +41 14 48.6   135741 1.0062 107.1  m  14?  24.17 128.7   13 354  72  99
   2024 04 24 18:50  17 40 54.88    +41 12 12.4   136198 1.0062 107.1  m  14?  24.78 130.1   13 352  72  99
   2024 04 24 19:00  17 41 11.66    +41 09 27.7   136655 1.0062 107.0  m  14?  25.44 131.4   13 350  72  99
   2024 04 24 19:10  17 41 28.59    +41 06 34.6   137112 1.0062 107.0  m  14?  26.14 132.4   13 348  72  99
   2024 04 24 19:20  17 41 45.70    +41 03 33.5   137569 1.0062 107.0  m  14?  26.88 133.3   12 346  72  99
   2024 04 24 19:30  17 42 03.06    +41 00 24.4   138027 1.0062 107.0  m  14?  27.65 134.0   12 344  72  99
   2024 04 24 19:40  17 42 20.71    +40 57 07.5   138484 1.0062 107.0  m  14?  28.45 134.6   11 343  72  99
   2024 04 24 19:50  17 42 38.69    +40 53 43.1   138941 1.0062 107.0 Am  14?  29.28 135.1   11 341  72  99
   2024 04 24 20:00  17 42 57.05    +40 50 11.4   139398 1.0062 107.0 Am  14?  30.12 135.4   10 339  72  99
   2024 04 24 20:10  17 43 15.83    +40 46 32.7   139855 1.0062 107.0 Am  14?  30.98 135.6    9 337  72  99
   2024 04 24 20:20  17 43 35.08    +40 42 47.1   140311 1.0062 106.9 Nm  14?  31.86 135.7    9 336  72  99
   2024 04 24 20:30  17 43 54.83    +40 38 55.0   140767 1.0062 106.9 Nm  14?  32.75 135.7    8 334  72  99
   2024 04 24 20:40  17 44 15.12    +40 34 56.7   141223 1.0062 106.9 Nm  14?  33.65 135.6    7 332  72  99
   2024 04 24 20:50  17 44 35.99    +40 30 52.3   141678 1.0062 106.9 Cm  14?  34.55 135.5    6 331  72  99
   2024 04 24 21:00  17 44 57.47    +40 26 42.3   142132 1.0062 106.9 Cm  14?  35.47 135.2    5 329  72  99
   2024 04 24 21:10  17 45 19.59    +40 22 26.9   142585 1.0062 106.9 Cm  14?  36.39 134.9    4 327  72  99
   ................
   2024 04 25 15:30  19 06 21.68    +36 05 21.5   146085 1.0063  95.1  r  14?  28.83  90.4    0  44  78  97
   2024 04 25 15:40  19 06 45.04    +36 05 16.7   145642 1.0063  95.0  m  14?  27.80  91.3    0  43  78  97
   2024 04 25 15:50  19 07 07.55    +36 05 07.4   145197 1.0063  94.9  m  14?  26.81  92.3    2  41  78  97
   2024 04 25 16:00  19 07 29.24    +36 04 53.4   144750 1.0063  94.9  m  14?  25.86  93.5    3  40  78  97
   2024 04 25 16:10  19 07 50.13    +36 04 34.4   144301 1.0063  94.8  m  14?  24.95  94.8    4  39  78  97
   2024 04 25 16:20  19 08 10.25    +36 04 10.0   143851 1.0063  94.8  m  14?  24.08  96.3    6  37  78  97
   2024 04 25 16:30  19 08 29.61    +36 03 40.0   143399 1.0063  94.7  m  14?  23.26  98.0    7  35  78  97
   2024 04 25 16:40  19 08 48.24    +36 03 04.0   142946 1.0063  94.7  m  14?  22.51  99.8    8  34  78  97
   2024 04 25 16:50  19 09 06.17    +36 02 21.7   142493 1.0063  94.6  m  14?  21.82 101.8    9  32  78  97
   2024 04 25 17:00  19 09 23.44    +36 01 33.0   142038 1.0063  94.6  m  14?  21.20 104.0   10  31  78  97
   2024 04 25 17:10  19 09 40.07    +36 00 37.4   141583 1.0063  94.5  m  14?  20.67 106.4   11  29  78  97
   2024 04 25 17:20  19 09 56.09    +35 59 34.8   141128 1.0063  94.5  m  14?  20.21 108.9   12  27  78  97
   2024 04 25 17:30  19 10 11.55    +35 58 24.8   140673 1.0063  94.4  m  14?  19.85 111.6   13  25  78  97
   2024 04 25 17:40  19 10 26.48    +35 57 07.3   140217 1.0063  94.4  m  14?  19.59 114.4   14  23  78  97
   2024 04 25 17:50  19 10 40.91    +35 55 41.9   139762 1.0063  94.4  m  14?  19.43 117.2   15  22  78  97
   2024 04 25 18:00  19 10 54.89    +35 54 08.4   139307 1.0063  94.3  m  14?  19.37 120.0   16  20  78  97
   2024 04 25 18:10  19 11 08.46    +35 52 26.7   138852 1.0063  94.3  m  14?  19.41 122.9   16  18  78  97
   2024 04 25 18:20  19 11 21.67    +35 50 36.4   138398 1.0063  94.3  m  14?  19.55 125.7   17  16  78  97
   2024 04 25 18:30  19 11 34.55    +35 48 37.5   137944 1.0063  94.3  m  14?  19.80 128.3   17  14  78  97
   2024 04 25 18:40  19 11 47.15    +35 46 29.7   137491 1.0063  94.2  m  14?  20.14 130.9   18  12  78  96
   2024 04 25 18:50  19 11 59.52    +35 44 12.8   137038 1.0063  94.2  m  14?  20.58 133.2   18  10  78  96
   2024 04 25 19:00  19 12 11.71    +35 41 46.7   136586 1.0063  94.2  m  14?  21.10 135.4   19   8  78  96
   2024 04 25 19:10  19 12 23.76    +35 39 11.2   136135 1.0063  94.2  m  14?  21.70 137.4   19   5  78  96
   2024 04 25 19:20  19 12 35.74    +35 36 26.3   135684 1.0063  94.1  m  14?  22.37 139.2   19   3  78  96
   2024 04 25 19:30  19 12 47.67    +35 33 31.7   135235 1.0063  94.1  m  14?  23.11 140.7   19   1  78  96
   2024 04 25 19:40  19 12 59.63    +35 30 27.5   134786 1.0063  94.1  t  14?  23.92 142.1   19 359  78  96
   2024 04 25 19:50  19 13 11.66    +35 27 13.4   134337 1.0063  94.1 Ae  14?  24.78 143.2   19 357  78  96
   2024 04 25 20:00  19 13 23.81    +35 23 49.5   133890 1.0063  94.1 Am  14?  25.69 144.2   19 355  78  96
   2024 04 25 20:10  19 13 36.14    +35 20 15.6   133442 1.0063  94.1 Am  14?  26.65 145.0   19 353  78  96
   2024 04 25 20:20  19 13 48.70    +35 16 31.8   132996 1.0063  94.0 Nm  14?  27.66 145.6   19 351  78  96
   2024 04 25 20:30  19 14 01.54    +35 12 38.0   132550 1.0063  94.0 Nm  14?  28.71 146.1   19 349  78  96
   2024 04 25 20:40  19 14 14.72    +35 08 34.1   132104 1.0063  94.0 Nm  14?  29.80 146.4   18 346  78  96
   2024 04 25 20:50  19 14 28.29    +35 04 20.3   131659 1.0063  94.0 Cm  14?  30.92 146.6   18 344  77  96
   2024 04 25 21:00  19 14 42.30    +34 59 56.5   131213 1.0063  94.0 Cm  14?  32.08 146.7   17 342  77  96
   2024 04 25 21:10  19 14 56.82    +34 55 22.8   130768 1.0063  94.0 Cm  14?  33.27 146.7   17 340  77  96
   ................
   2024 04 26 15:30  10 38 44.96    +30 02 41.0    15412 1.0065 111.6  r  10? 4089.2  64.9    0 306  98  92
   2024 04 26 15:40  11 20 22.95    +33 57 00.5    17971 1.0065 116.5  m  10? 2946.9  67.5    1 314  92  92
   2024 04 26 15:50  11 52 50.17    +36 31 58.7    20540 1.0065 119.3  m  11? 2224.2  70.0    3 319  88  92
   2024 04 26 16:00  12 18 54.26    +38 18 35.6    23066 1.0065 121.1  m  11? 1745.8  72.2    3 323  85  92
   2024 04 26 16:10  12 40 22.94    +39 34 29.1    25528 1.0065 122.1  m  11? 1414.5  74.1    4 325  82  92
   2024 04 26 16:20  12 58 27.33    +40 29 59.9    27920 1.0065 122.8  m  11? 1175.7  75.9    4 327  80  92
   2024 04 26 16:30  13 13 55.96    +41 11 27.5    30243 1.0066 123.1  e  11? 997.75  77.5    4 328  79  92
   2024 04 26 16:40  13 27 22.99    +41 42 53.5    32498 1.0066 123.3  m  12? 861.28  78.9    4 329  78  92
   2024 04 26 16:50  13 39 13.11    +42 06 57.9    34689 1.0066 123.4  m  12? 754.15  80.3    4 329  77  92
   2024 04 26 17:00  13 49 44.64    +42 25 29.8    36821 1.0066 123.5  m  12? 668.34  81.5    4 330  76  92
   2024 04 26 17:10  13 59 11.47    +42 39 46.2    38898 1.0066 123.4  m  12? 598.45  82.7    3 330  75  92
   2024 04 26 17:20  14 07 44.35    +42 50 42.4    40923 1.0066 123.3  m  12? 540.67  83.8    3 330  75  92
   2024 04 26 17:30  14 15 31.70    +42 58 59.2    42900 1.0066 123.2  m  12? 492.32  84.9    3 329  74  92
   2024 04 26 17:40  14 22 40.25    +43 05 07.4    44832 1.0066 123.1  m  12? 451.41  85.9    2 329  74  92
   2024 04 26 17:50  14 29 15.46    +43 09 30.4    46722 1.0066 123.0  m  12? 416.46  86.9    2 329  73  92
   2024 04 26 18:00  14 35 21.77    +43 12 26.5    48572 1.0066 122.9  m  13? 386.35  87.8    1 328  73  92
   2024 04 26 18:10  14 41 02.87    +43 14 10.2    50385 1.0066 122.7  m  13? 360.23  88.8    1 327  72  92
   2024 04 26 18:20  14 46 21.84    +43 14 53.0    52164 1.0066 122.6  m  13? 337.41  89.6    0 327  72  92
   2024 04 26 18:30  14 51 21.27    +43 14 44.1    53909 1.0066 122.4  m  13? 317.35  90.5    0 326  72  92
   2024 04 26 18:40  14 56 03.38    +43 13 51.1    55623 1.0067 122.3  m  13? 299.64  91.3    0 325  71  92
   ................
   2024 04 27 14:50  18 09 58.12    +39 43 38.5   147126 1.0069 104.3  r  14?  25.48  80.9    0  38  68  86
   2024 04 27 15:00  18 10 19.44    +39 44 15.4   147248 1.0069 104.2  m  14?  24.26  81.7    1  37  68  86
   2024 04 27 15:10  18 10 39.78    +39 44 46.8   147369 1.0069 104.2  m  14?  23.09  82.7    2  35  68  86
   2024 04 27 15:20  18 10 59.18    +39 45 12.4   147488 1.0069 104.1  m  14?  21.96  83.9    3  34  68  86
   2024 04 27 15:30  18 11 17.68    +39 45 32.1   147606 1.0069 104.1  m  14?  20.88  85.3    4  32  68  86
   2024 04 27 15:40  18 11 35.30    +39 45 45.5   147723 1.0069 104.0  m  14?  19.86  86.9    6  31  68  86
   2024 04 27 15:50  18 11 52.09    +39 45 52.4   147839 1.0069 104.0  m  14?  18.90  88.7    7  29  68  86
   2024 04 27 16:00  18 12 08.09    +39 45 52.5   147955 1.0069 103.9  m  14?  18.01  90.8    8  28  68  86
   2024 04 27 16:10  18 12 23.33    +39 45 45.8   148071 1.0069 103.9  m  14?  17.19  93.2    8  26  68  86
   2024 04 27 16:20  18 12 37.86    +39 45 32.0   148186 1.0069 103.9  m  14?  16.46  95.9    9  24  68  86
   2024 04 27 16:30  18 12 51.73    +39 45 10.9   148302 1.0069 103.8  m  14?  15.81  98.8   10  23  68  86
   2024 04 27 16:40  18 13 04.96    +39 44 42.3   148418 1.0069 103.8  m  14?  15.27 102.0   11  21  68  86
   2024 04 27 16:50  18 13 17.62    +39 44 06.1   148535 1.0069 103.8  m  14?  14.84 105.4   12  19  68  86
   2024 04 27 17:00  18 13 29.75    +39 43 22.2   148652 1.0069 103.8  m  14?  14.51 109.0   12  17  68  86
   2024 04 27 17:10  18 13 41.39    +39 42 30.3   148770 1.0069 103.7  m  14?  14.30 112.8   13  15  68  86
   2024 04 27 17:20  18 13 52.59    +39 41 30.5   148889 1.0069 103.7  m  14?  14.21 116.5   13  14  68  86
   2024 04 27 17:30  18 14 03.40    +39 40 22.5   149009 1.0070 103.7  m  14?  14.23 120.2   14  12  68  86
   2024 04 27 17:40  18 14 13.87    +39 39 06.4   149130 1.0070 103.7  m  14?  14.36 123.7   14  10  68  86
   2024 04 27 17:50  18 14 24.05    +39 37 42.0   149253 1.0070 103.7  m  14?  14.60 127.1   15   8  68  86
   2024 04 27 18:00  18 14 33.98    +39 36 09.3   149377 1.0070 103.7  m  14?  14.93 130.2   15   6  68  86
   2024 04 27 18:10  18 14 43.73    +39 34 28.3   149502 1.0070 103.7  m  14?  15.35 133.0   15   4  68  86
   2024 04 27 18:20  18 14 53.33    +39 32 38.9   149629 1.0070 103.6  m  14?  15.84 135.6   15   2  68  86
   2024 04 27 18:30  18 15 02.84    +39 30 41.2   149758 1.0070 103.6  m  14?  16.40 137.8   15   0  68  86
   2024 04 27 18:40  18 15 12.31    +39 28 35.1   149888 1.0070 103.6  t  14?  17.02 139.7   15 358  68  86
   2024 04 27 18:50  18 15 21.79    +39 26 20.8   150020 1.0070 103.6  m  14?  17.69 141.3   15 356  68  86
   2024 04 27 19:00  18 15 31.32    +39 23 58.1   150153 1.0070 103.6  m  14?  18.40 142.7   15 354  68  86
   2024 04 27 19:10  18 15 40.96    +39 21 27.3   150288 1.0070 103.6  m  14?  19.15 143.8   15 352  68  86
   2024 04 27 19:20  18 15 50.76    +39 18 48.4   150424 1.0070 103.6  m  14?  19.93 144.6   15 350  68  85
   2024 04 27 19:30  18 16 00.76    +39 16 01.5   150562 1.0070 103.6  m  14?  20.74 145.3   15 348  68  85
   2024 04 27 19:40  18 16 11.00    +39 13 06.6   150702 1.0070 103.6  m  14?  21.57 145.7   14 346  68  85
   2024 04 27 19:50  18 16 21.55    +39 10 04.0   150843 1.0070 103.6  m  14?  22.42 146.0   14 344  68  85
   2024 04 27 20:00  18 16 32.43    +39 06 53.7   150985 1.0070 103.6 Am  14?  23.29 146.2   13 342  68  85
   2024 04 27 20:10  18 16 43.71    +39 03 36.0   151129 1.0070 103.6 Am  14?  24.18 146.2   13 341  68  85
   2024 04 27 20:20  18 16 55.41    +39 00 10.9   151273 1.0070 103.6 Nm  14?  25.07 146.1   12 339  68  85
   2024 04 27 20:30  18 17 07.57    +38 56 38.7   151419 1.0070 103.6 Nm  14?  25.98 145.9   11 337  67  85
   2024 04 27 20:40  18 17 20.25    +38 52 59.6   151566 1.0070 103.6 Nm  14?  26.90 145.6   11 335  67  85
   2024 04 27 20:50  18 17 33.48    +38 49 13.7   151713 1.0070 103.6 Cm  14?  27.83 145.2   10 333  67  85
   2024 04 27 21:00  18 17 47.30    +38 45 21.3   151861 1.0070 103.6 Cm  14?  28.77 144.7    9 332  67  85
   2024 04 27 21:10  18 18 01.74    +38 41 22.6   152010 1.0070 103.6 Cm  14?  29.72 144.2    8 330  67  85
   ................
   

James Webb Space Telescope (JPL-ID: -170)

   Date (UTC) HH:MM   RA              Dec         delta   r     elong SM  mag  '/hr    PA   alt  az moo ill
   ---- -- -- -----  -------------   -----------  ------ ------ ----- --  --- ------ ------ --- --- --- ---
   2024 04 14 10:10  15 16 48.48    -07 12 58.9   0.0090 1.0112 153.7  m  15?   4.75 123.9    0  98 128  35
   2024 04 14 10:20  15 16 51.07    -07 13 25.6   0.0090 1.0112 153.7  m  15?   4.63 125.0    2  97 128  36
   2024 04 14 10:30  15 16 53.56    -07 13 52.2   0.0090 1.0112 153.7  m  15?   4.50 126.1    4  95 128  36
   2024 04 14 10:40  15 16 55.95    -07 14 18.8   0.0090 1.0112 153.7  m  15?   4.38 127.3    6  94 128  36
   2024 04 14 10:50  15 16 58.24    -07 14 45.4   0.0090 1.0112 153.7  m  15?   4.26 128.5    8  92 128  36
   2024 04 14 11:00  15 17 00.42    -07 15 12.0   0.0090 1.0112 153.7  m  15?   4.14 129.8   10  91 128  36
   2024 04 14 11:10  15 17 02.50    -07 15 38.6   0.0090 1.0112 153.7  m  15?   4.02 131.2   12  90 127  36
   2024 04 14 11:20  15 17 04.48    -07 16 05.1   0.0090 1.0112 153.7  m  15?   3.91 132.6   14  88 127  36
   2024 04 14 11:30  15 17 06.36    -07 16 31.6   0.0090 1.0112 153.7  m  15?   3.80 134.1   16  87 127  36
   2024 04 14 11:40  15 17 08.14    -07 16 58.1   0.0090 1.0112 153.7  m  15?   3.69 135.6   19  85 127  36
   2024 04 14 11:50  15 17 09.82    -07 17 24.5   0.0090 1.0112 153.7  m  15?   3.59 137.2   21  84 127  36
   2024 04 14 12:00  15 17 11.41    -07 17 50.8   0.0090 1.0112 153.7  m  15?   3.49 138.8   23  82 127  36
   2024 04 14 12:10  15 17 12.90    -07 18 17.1   0.0090 1.0112 153.7  m  15?   3.39 140.5   25  81 127  36
   2024 04 14 12:20  15 17 14.30    -07 18 43.2   0.0090 1.0112 153.7  m  15?   3.30 142.3   27  79 127  36
   2024 04 14 12:30  15 17 15.60    -07 19 09.3   0.0090 1.0112 153.7     15?   3.21 144.1   29  78 127  36
   2024 04 14 12:40  15 17 16.82    -07 19 35.3   0.0090 1.0112 153.7     15?   3.13 145.9   31  76 127  36
   2024 04 14 12:50  15 17 17.95    -07 20 01.2   0.0090 1.0112 153.7     15?   3.05 147.8   33  74 127  36
   2024 04 14 13:00  15 17 19.00    -07 20 26.9   0.0090 1.0112 153.7     15?   2.97 149.7   35  72 127  36
   2024 04 14 13:10  15 17 19.96    -07 20 52.6   0.0090 1.0112 153.7     15?   2.90 151.6   37  70 127  36
   2024 04 14 13:20  15 17 20.85    -07 21 18.1   0.0090 1.0112 153.7     15?   2.84 153.5   39  69 127  37
   2024 04 14 13:30  15 17 21.66    -07 21 43.5   0.0090 1.0113 153.7     15?   2.78 155.4   41  66 127  37
   2024 04 14 13:40  15 17 22.40    -07 22 08.7   0.0090 1.0113 153.7     15?   2.73 157.3   42  64 127  37
   2024 04 14 13:50  15 17 23.07    -07 22 33.8   0.0090 1.0113 153.7     15?   2.67 159.2   44  62 126  37
   2024 04 14 14:00  15 17 23.67    -07 22 58.8   0.0090 1.0113 153.7     15?   2.63 161.0   46  60 126  37
   2024 04 14 14:10  15 17 24.21    -07 23 23.6   0.0090 1.0113 153.8     15?   2.58 162.7   48  57 126  37
   2024 04 14 14:20  15 17 24.69    -07 23 48.2   0.0090 1.0113 153.8     15?   2.54 164.5   50  54 126  37
   2024 04 14 14:30  15 17 25.12    -07 24 12.6   0.0090 1.0113 153.8     15?   2.51 166.1   51  51 126  37
   2024 04 14 14:40  15 17 25.49    -07 24 36.9   0.0090 1.0113 153.8     15?   2.47 167.6   53  48 126  37
   2024 04 14 14:50  15 17 25.82    -07 25 01.0   0.0090 1.0113 153.8     15?   2.44 169.1   54  45 126  37
   2024 04 14 15:00  15 17 26.11    -07 25 24.9   0.0090 1.0113 153.8     15?   2.41 170.4   56  41 126  37
   2024 04 14 15:10  15 17 26.36    -07 25 48.6   0.0090 1.0113 153.8     15?   2.39 171.6   57  37 126  37
   2024 04 14 15:20  15 17 26.57    -07 26 12.2   0.0090 1.0113 153.8     15?   2.36 172.7   58  33 126  37
   2024 04 14 15:30  15 17 26.76    -07 26 35.5   0.0090 1.0113 153.8     15?   2.34 173.6   59  29 126  37
   2024 04 14 15:40  15 17 26.91    -07 26 58.7   0.0090 1.0113 153.8     15?   2.32 174.5   60  24 126  38
   2024 04 14 15:50  15 17 27.05    -07 27 21.6   0.0090 1.0113 153.8     15?   2.29 175.1   61  19 125  38
   2024 04 14 16:00  15 17 27.17    -07 27 44.4   0.0090 1.0113 153.8     15?   2.27 175.6   62  14 125  38
   2024 04 14 16:10  15 17 27.28    -07 28 06.9   0.0090 1.0113 153.8     15?   2.25 176.0   62   9 125  38
   2024 04 14 16:20  15 17 27.37    -07 28 29.2   0.0090 1.0113 153.8     15?   2.23 176.2   62   3 125  38
   2024 04 14 16:30  15 17 27.47    -07 28 51.4   0.0090 1.0113 153.8  t  15?   2.21 176.2   63 358 125  38
   2024 04 14 16:40  15 17 27.57    -07 29 13.3   0.0090 1.0113 153.8     15?   2.19 176.0   62 352 125  38
   2024 04 14 16:50  15 17 27.67    -07 29 35.0   0.0090 1.0113 153.9     15?   2.17 175.6   62 347 125  38
   2024 04 14 17:00  15 17 27.78    -07 29 56.6   0.0090 1.0113 153.9     15?   2.15 175.1   62 342 125  38
   2024 04 14 17:10  15 17 27.91    -07 30 17.9   0.0090 1.0113 153.9     15?   2.13 174.4   61 337 125  38
   2024 04 14 17:20  15 17 28.06    -07 30 39.0   0.0090 1.0113 153.9     15?   2.11 173.5   60 332 125  38
   2024 04 14 17:30  15 17 28.23    -07 30 59.9   0.0090 1.0113 153.9     15?   2.10 172.4   59 328 124  38
   2024 04 14 17:40  15 17 28.42    -07 31 20.6   0.0090 1.0113 153.9     15?   2.09 171.1   58 323 124  39
   2024 04 14 17:50  15 17 28.66    -07 31 41.2   0.0090 1.0113 153.9     15?   2.08 169.6   56 319 124  39
   2024 04 14 18:00  15 17 28.92    -07 32 01.5   0.0090 1.0113 153.9     15?   2.07 167.9   55 316 124  39
   2024 04 14 18:10  15 17 29.23    -07 32 21.6   0.0090 1.0113 153.9     15?   2.06 166.1   54 312 124  39
   2024 04 14 18:20  15 17 29.58    -07 32 41.6   0.0090 1.0113 153.9     15?   2.06 164.1   52 309 124  39
   2024 04 14 18:30  15 17 29.98    -07 33 01.4   0.0090 1.0113 153.9     15?   2.07 162.0   50 306 124  39
   2024 04 14 18:40  15 17 30.44    -07 33 20.9   0.0090 1.0113 153.9     15?   2.08 159.7   49 303 124  39
   2024 04 14 18:50  15 17 30.95    -07 33 40.4   0.0090 1.0113 153.9     15?   2.09 157.3   47 300 124  39
   2024 04 14 19:00  15 17 31.52    -07 33 59.6   0.0090 1.0113 153.9     15?   2.12 154.8   45 298 124  39
   2024 04 14 19:10  15 17 32.16    -07 34 18.7   0.0090 1.0113 153.9     15?   2.14 152.2   43 295 123  39
   2024 04 14 19:20  15 17 32.86    -07 34 37.6   0.0090 1.0113 153.9     15?   2.18 149.7   42 293 123  40
   2024 04 14 19:30  15 17 33.63    -07 34 56.4   0.0090 1.0113 153.9     15?   2.22 147.1   40 291 123  40
   2024 04 14 19:40  15 17 34.48    -07 35 15.0   0.0090 1.0113 153.9     15?   2.27 144.5   38 289 123  40
   2024 04 14 19:50  15 17 35.40    -07 35 33.5   0.0090 1.0113 153.9 A   15?   2.33 142.0   36 287 123  40
   2024 04 14 20:00  15 17 36.40    -07 35 51.8   0.0090 1.0113 153.9 A   15?   2.40 139.5   34 285 123  40
   2024 04 14 20:10  15 17 37.49    -07 36 10.0   0.0090 1.0113 153.9 A   15?   2.47 137.1   32 284 123  40
   2024 04 14 20:20  15 17 38.66    -07 36 28.1   0.0090 1.0113 154.0 N   15?   2.55 134.8   30 282 123  40
   2024 04 14 20:30  15 17 39.92    -07 36 46.1   0.0090 1.0113 154.0 N   15?   2.64 132.7   28 280 123  40
   2024 04 14 20:40  15 17 41.27    -07 37 04.0   0.0090 1.0113 154.0 C   15?   2.73 130.6   26 279 122  40
   2024 04 14 20:50  15 17 42.71    -07 37 21.8   0.0090 1.0113 154.0 C   15?   2.83 128.6   24 277 122  40
   2024 04 14 21:00  15 17 44.24    -07 37 39.5   0.0090 1.0113 154.0 C   15?   2.94 126.8   22 276 122  40
   ................
   2024 04 15 10:10  15 22 40.02    -08 05 45.0   0.0091 1.0115 153.3  r  15?   4.72 124.4    0  99 117  46
   2024 04 15 10:20  15 22 42.58    -08 06 11.7   0.0091 1.0115 153.3  m  15?   4.59 125.5    2  98 117  46
   2024 04 15 10:30  15 22 45.04    -08 06 38.5   0.0091 1.0115 153.3  m  15?   4.47 126.7    4  96 117  46
   2024 04 15 10:40  15 22 47.40    -08 07 05.3   0.0091 1.0115 153.3  m  15?   4.35 127.9    6  95 117  46
   2024 04 15 10:50  15 22 49.66    -08 07 32.1   0.0091 1.0115 153.3  m  15?   4.23 129.1    8  93 117  46
   2024 04 15 11:00  15 22 51.81    -08 07 58.8   0.0091 1.0115 153.3  m  15?   4.11 130.4   10  92 117  46
   2024 04 15 11:10  15 22 53.87    -08 08 25.6   0.0091 1.0115 153.3  m  15?   4.00 131.8   12  91 117  46
   2024 04 15 11:20  15 22 55.82    -08 08 52.3   0.0091 1.0115 153.3  m  15?   3.89 133.2   15  89 117  46
   2024 04 15 11:30  15 22 57.67    -08 09 18.9   0.0091 1.0115 153.3  m  15?   3.78 134.7   17  88 117  46
   2024 04 15 11:40  15 22 59.42    -08 09 45.5   0.0091 1.0115 153.3  m  15?   3.67 136.2   19  86 117  46
   2024 04 15 11:50  15 23 01.08    -08 10 12.1   0.0091 1.0115 153.3  m  15?   3.57 137.8   21  85 117  46
   2024 04 15 12:00  15 23 02.64    -08 10 38.5   0.0091 1.0115 153.3  m  15?   3.47 139.5   23  83 117  46
   2024 04 15 12:10  15 23 04.10    -08 11 04.9   0.0091 1.0115 153.3  m  15?   3.37 141.2   25  82 117  46
   2024 04 15 12:20  15 23 05.48    -08 11 31.2   0.0091 1.0115 153.3  m  15?   3.28 143.0   27  80 117  46
   2024 04 15 12:30  15 23 06.76    -08 11 57.4   0.0091 1.0115 153.3  m  15?   3.19 144.8   29  79 117  46
   2024 04 15 12:40  15 23 07.95    -08 12 23.5   0.0091 1.0116 153.3  m  15?   3.11 146.6   31  77 117  46
   2024 04 15 12:50  15 23 09.05    -08 12 49.5   0.0091 1.0116 153.3  m  15?   3.03 148.5   33  75 116  46
   2024 04 15 13:00  15 23 10.07    -08 13 15.3   0.0091 1.0116 153.3  m  15?   2.96 150.4   35  74 116  46
   2024 04 15 13:10  15 23 11.01    -08 13 41.1   0.0091 1.0116 153.3  m  15?   2.89 152.3   37  72 116  46
   2024 04 15 13:20  15 23 11.87    -08 14 06.6   0.0091 1.0116 153.3  m  15?   2.83 154.3   39  70 116  46
   2024 04 15 13:30  15 23 12.66    -08 14 32.1   0.0091 1.0116 153.3     15?   2.77 156.2   41  68 116  47
   2024 04 15 13:40  15 23 13.37    -08 14 57.3   0.0091 1.0116 153.3     15?   2.71 158.1   43  66 116  47
   2024 04 15 13:50  15 23 14.01    -08 15 22.4   0.0091 1.0116 153.3     15?   2.66 160.0   45  63 116  47
   2024 04 15 14:00  15 23 14.59    -08 15 47.4   0.0091 1.0116 153.3     15?   2.61 161.8   46  61 116  47
   2024 04 15 14:10  15 23 15.10    -08 16 12.2   0.0091 1.0116 153.3     15?   2.57 163.6   48  58 116  47
   2024 04 15 14:20  15 23 15.56    -08 16 36.7   0.0091 1.0116 153.3     15?   2.53 165.3   50  56 116  47
   2024 04 15 14:30  15 23 15.96    -08 17 01.1   0.0091 1.0116 153.3     15?   2.49 167.0   52  53 116  47
   2024 04 15 14:40  15 23 16.31    -08 17 25.3   0.0091 1.0116 153.3     15?   2.46 168.6   53  50 116  47
   2024 04 15 14:50  15 23 16.61    -08 17 49.4   0.0091 1.0116 153.3     15?   2.43 170.0   55  46 116  47
   2024 04 15 15:00  15 23 16.87    -08 18 13.2   0.0091 1.0116 153.3     15?   2.40 171.4   56  43 116  47
   2024 04 15 15:10  15 23 17.08    -08 18 36.8   0.0091 1.0116 153.3     15?   2.37 172.6   58  39 115  47
   2024 04 15 15:20  15 23 17.27    -08 19 00.2   0.0091 1.0116 153.3     15?   2.34 173.8   59  35 115  47
   2024 04 15 15:30  15 23 17.42    -08 19 23.3   0.0091 1.0116 153.4     15?   2.32 174.7   60  30 115  47
   2024 04 15 15:40  15 23 17.55    -08 19 46.3   0.0091 1.0116 153.4     15?   2.29 175.6   61  26 115  47
   2024 04 15 15:50  15 23 17.65    -08 20 09.0   0.0091 1.0116 153.4     15?   2.27 176.3   62  21 115  48
   2024 04 15 16:00  15 23 17.74    -08 20 31.6   0.0091 1.0116 153.4     15?   2.24 176.8   63  16 115  48
   2024 04 15 16:10  15 23 17.81    -08 20 53.9   0.0091 1.0116 153.4     15?   2.22 177.2   63  10 115  48
   2024 04 15 16:20  15 23 17.87    -08 21 15.9   0.0091 1.0116 153.4     15?   2.20 177.5   63   5 115  48
   2024 04 15 16:30  15 23 17.94    -08 21 37.8   0.0091 1.0116 153.4  t  15?   2.18 177.5   63 359 115  48
   2024 04 15 16:40  15 23 18.00    -08 21 59.4   0.0091 1.0116 153.4     15?   2.15 177.4   63 353 115  48
   2024 04 15 16:50  15 23 18.06    -08 22 20.8   0.0091 1.0116 153.4     15?   2.13 177.1   63 348 115  48
   2024 04 15 17:00  15 23 18.14    -08 22 41.9   0.0091 1.0116 153.4     15?   2.11 176.6   62 342 114  48
   2024 04 15 17:10  15 23 18.23    -08 23 02.9   0.0091 1.0116 153.4     15?   2.09 175.9   62 337 114  48
   2024 04 15 17:20  15 23 18.33    -08 23 23.6   0.0091 1.0116 153.4     15?   2.07 175.0   61 332 114  48
   2024 04 15 17:30  15 23 18.46    -08 23 44.1   0.0091 1.0116 153.4     15?   2.05 173.9   60 328 114  48
   2024 04 15 17:40  15 23 18.62    -08 24 04.4   0.0091 1.0116 153.4     15?   2.03 172.7   59 323 114  48
   2024 04 15 17:50  15 23 18.81    -08 24 24.4   0.0091 1.0116 153.4     15?   2.02 171.2   57 319 114  49
   2024 04 15 18:00  15 23 19.03    -08 24 44.3   0.0091 1.0116 153.5     15?   2.01 169.5   56 315 114  49
   2024 04 15 18:10  15 23 19.29    -08 25 03.9   0.0091 1.0116 153.5     15?   2.00 167.6   55 312 114  49
   2024 04 15 18:20  15 23 19.60    -08 25 23.3   0.0091 1.0116 153.5     15?   1.99 165.6   53 309 114  49
   2024 04 15 18:30  15 23 19.96    -08 25 42.6   0.0091 1.0116 153.5     15?   1.99 163.4   51 305 114  49
   2024 04 15 18:40  15 23 20.36    -08 26 01.6   0.0091 1.0116 153.5     15?   2.00 161.1   50 303 113  49
   2024 04 15 18:50  15 23 20.82    -08 26 20.4   0.0091 1.0116 153.5     15?   2.01 158.6   48 300 113  49
   2024 04 15 19:00  15 23 21.35    -08 26 39.1   0.0091 1.0116 153.5     15?   2.03 156.0   46 297 113  49
   2024 04 15 19:10  15 23 21.93    -08 26 57.5   0.0091 1.0116 153.5     15?   2.05 153.4   44 295 113  49
   2024 04 15 19:20  15 23 22.58    -08 27 15.8   0.0091 1.0116 153.5     15?   2.08 150.7   42 293 113  49
   2024 04 15 19:30  15 23 23.30    -08 27 33.9   0.0091 1.0116 153.5     15?   2.12 148.0   41 291 113  49
   2024 04 15 19:40  15 23 24.09    -08 27 51.9   0.0091 1.0116 153.5     15?   2.17 145.3   39 289 113  50
   2024 04 15 19:50  15 23 24.96    -08 28 09.7   0.0091 1.0116 153.5 A   15?   2.23 142.6   37 287 113  50
   2024 04 15 20:00  15 23 25.91    -08 28 27.3   0.0091 1.0116 153.5 A   15?   2.29 140.0   35 285 113  50
   2024 04 15 20:10  15 23 26.94    -08 28 44.8   0.0091 1.0116 153.5 A   15?   2.36 137.5   33 283 113  50
   2024 04 15 20:20  15 23 28.05    -08 29 02.2   0.0091 1.0116 153.5 N   15?   2.44 135.1   31 281 112  50
   2024 04 15 20:30  15 23 29.25    -08 29 19.5   0.0091 1.0117 153.5 N   15?   2.52 132.8   29 280 112  50
   2024 04 15 20:40  15 23 30.54    -08 29 36.6   0.0091 1.0117 153.5 N   15?   2.61 130.7   27 278 112  50
   2024 04 15 20:50  15 23 31.92    -08 29 53.6   0.0091 1.0117 153.5 C   15?   2.71 128.6   25 277 112  50
   2024 04 15 21:00  15 23 33.39    -08 30 10.5   0.0091 1.0117 153.5 C   15?   2.82 126.7   23 275 112  50
   ................
   2024 04 16 10:10  15 28 24.53    -08 57 41.8   0.0092 1.0118 152.9  r  15?   4.68 124.9    0 100 107  55
   2024 04 16 10:20  15 28 27.06    -08 58 08.7   0.0092 1.0118 152.9  m  15?   4.56 126.0    2  99 107  56
   2024 04 16 10:30  15 28 29.49    -08 58 35.6   0.0092 1.0118 152.8  m  15?   4.44 127.2    4  97 107  56
   2024 04 16 10:40  15 28 31.82    -08 59 02.5   0.0092 1.0118 152.8  m  15?   4.32 128.4    6  96 107  56
   2024 04 16 10:50  15 28 34.05    -08 59 29.4   0.0092 1.0118 152.8  m  15?   4.20 129.7    8  94 107  56
   2024 04 16 11:00  15 28 36.18    -08 59 56.3   0.0092 1.0118 152.8  m  15?   4.08 131.0   11  93 107  56
   2024 04 16 11:10  15 28 38.20    -09 00 23.2   0.0092 1.0118 152.8  m  15?   3.97 132.4   13  92 107  56
   2024 04 16 11:20  15 28 40.13    -09 00 50.0   0.0092 1.0118 152.8  m  15?   3.86 133.8   15  90 107  56
   2024 04 16 11:30  15 28 41.95    -09 01 16.8   0.0092 1.0118 152.8  m  15?   3.75 135.3   17  89 107  56
   2024 04 16 11:40  15 28 43.68    -09 01 43.5   0.0092 1.0118 152.8  m  15?   3.65 136.9   19  87 107  56
   2024 04 16 11:50  15 28 45.31    -09 02 10.1   0.0092 1.0118 152.8  m  15?   3.55 138.5   21  86 106  56
   2024 04 16 12:00  15 28 46.84    -09 02 36.7   0.0092 1.0119 152.8  m  15?   3.45 140.2   23  84 106  56
   2024 04 16 12:10  15 28 48.28    -09 03 03.2   0.0092 1.0119 152.8  m  15?   3.35 141.9   25  83 106  56
   2024 04 16 12:20  15 28 49.63    -09 03 29.5   0.0092 1.0119 152.8  m  15?   3.26 143.7   27  81 106  56
   2024 04 16 12:30  15 28 50.88    -09 03 55.8   0.0092 1.0119 152.8  m  15?   3.18 145.5   29  80 106  56
   2024 04 16 12:40  15 28 52.05    -09 04 22.0   0.0092 1.0119 152.8  m  15?   3.09 147.3   31  78 106  56
   2024 04 16 12:50  15 28 53.13    -09 04 48.0   0.0092 1.0119 152.9  m  15?   3.02 149.2   33  77 106  56
   2024 04 16 13:00  15 28 54.13    -09 05 13.9   0.0092 1.0119 152.9  m  15?   2.94 151.1   35  75 106  56
   2024 04 16 13:10  15 28 55.04    -09 05 39.7   0.0092 1.0119 152.9  m  15?   2.88 153.1   37  73 106  56
   2024 04 16 13:20  15 28 55.87    -09 06 05.3   0.0092 1.0119 152.9  m  15?   2.81 155.0   39  71 106  56
   2024 04 16 13:30  15 28 56.63    -09 06 30.7   0.0092 1.0119 152.9  m  15?   2.75 157.0   41  69 106  56
   2024 04 16 13:40  15 28 57.32    -09 06 56.0   0.0092 1.0119 152.9  m  15?   2.70 158.9   43  67 106  56
   2024 04 16 13:50  15 28 57.94    -09 07 21.1   0.0091 1.0119 152.9  m  15?   2.65 160.8   45  65 106  57
   2024 04 16 14:00  15 28 58.49    -09 07 46.0   0.0091 1.0119 152.9  m  15?   2.60 162.6   47  62 106  57
   2024 04 16 14:10  15 28 58.98    -09 08 10.7   0.0091 1.0119 152.9  m  15?   2.55 164.4   48  60 106  57
   2024 04 16 14:20  15 28 59.41    -09 08 35.3   0.0091 1.0119 152.9  m  15?   2.51 166.2   50  57 106  57
   2024 04 16 14:30  15 28 59.78    -09 08 59.6   0.0091 1.0119 152.9  m  15?   2.48 167.9   52  54 106  57
   2024 04 16 14:40  15 29 00.10    -09 09 23.7   0.0091 1.0119 152.9     15?   2.44 169.5   54  51 105  57
   2024 04 16 14:50  15 29 00.38    -09 09 47.6   0.0091 1.0119 152.9     15?   2.41 171.0   55  48 105  57
   2024 04 16 15:00  15 29 00.61    -09 10 11.3   0.0091 1.0119 152.9     15?   2.38 172.3   57  44 105  57
   2024 04 16 15:10  15 29 00.80    -09 10 34.7   0.0091 1.0119 152.9     15?   2.35 173.6   58  41 105  57
   2024 04 16 15:20  15 29 00.95    -09 10 57.9   0.0091 1.0119 152.9     15?   2.32 174.8   59  36 105  57
   2024 04 16 15:30  15 29 01.07    -09 11 20.9   0.0091 1.0119 152.9     15?   2.29 175.8   61  32 105  57
   2024 04 16 15:40  15 29 01.17    -09 11 43.7   0.0091 1.0119 152.9     15?   2.27 176.7   62  27 105  57
   2024 04 16 15:50  15 29 01.24    -09 12 06.2   0.0091 1.0119 152.9     15?   2.24 177.4   63  22 105  57
   2024 04 16 16:00  15 29 01.30    -09 12 28.5   0.0091 1.0119 152.9     15?   2.22 178.0   63  17 105  57
   2024 04 16 16:10  15 29 01.34    -09 12 50.5   0.0091 1.0119 153.0     15?   2.19 178.5   64  11 105  57
   2024 04 16 16:20  15 29 01.37    -09 13 12.3   0.0091 1.0119 153.0     15?   2.17 178.7   64   6 105  58
   2024 04 16 16:30  15 29 01.40    -09 13 33.8   0.0092 1.0119 153.0     15?   2.14 178.8   64   0 105  58
   2024 04 16 16:40  15 29 01.42    -09 13 55.1   0.0092 1.0119 153.0  t  15?   2.12 178.7   64 354 105  58
   2024 04 16 16:50  15 29 01.45    -09 14 16.1   0.0092 1.0119 153.0     15?   2.09 178.5   64 348 104  58
   2024 04 16 17:00  15 29 01.49    -09 14 36.9   0.0092 1.0119 153.0     15?   2.07 178.0   63 343 104  58
   2024 04 16 17:10  15 29 01.55    -09 14 57.5   0.0092 1.0119 153.0     15?   2.04 177.4   63 338 104  58
   2024 04 16 17:20  15 29 01.61    -09 15 17.8   0.0092 1.0119 153.0     15?   2.02 176.5   62 332 104  58
   2024 04 16 17:30  15 29 01.71    -09 15 37.9   0.0092 1.0119 153.0     15?   2.00 175.5   61 328 104  58
   2024 04 16 17:40  15 29 01.82    -09 15 57.7   0.0092 1.0119 153.0     15?   1.98 174.2   60 323 104  58
   2024 04 16 17:50  15 29 01.97    -09 16 17.3   0.0092 1.0119 153.0     15?   1.96 172.7   58 319 104  58
   2024 04 16 18:00  15 29 02.15    -09 16 36.6   0.0092 1.0119 153.0     15?   1.95 171.1   57 315 104  58
   2024 04 16 18:10  15 29 02.37    -09 16 55.7   0.0092 1.0119 153.0     15?   1.93 169.2   56 312 104  58
   2024 04 16 18:20  15 29 02.64    -09 17 14.6   0.0092 1.0119 153.0     15?   1.93 167.1   54 308 104  58
   2024 04 16 18:30  15 29 02.95    -09 17 33.3   0.0092 1.0119 153.0     15?   1.92 164.9   52 305 103  59
   2024 04 16 18:40  15 29 03.31    -09 17 51.7   0.0092 1.0119 153.1     15?   1.92 162.5   51 302 103  59
   2024 04 16 18:50  15 29 03.72    -09 18 10.0   0.0092 1.0119 153.1     15?   1.93 159.9   49 299 103  59
   2024 04 16 19:00  15 29 04.20    -09 18 28.0   0.0092 1.0119 153.1     15?   1.94 157.2   47 297 103  59
   2024 04 16 19:10  15 29 04.73    -09 18 45.9   0.0092 1.0119 153.1     15?   1.96 154.5   45 294 103  59
   2024 04 16 19:20  15 29 05.34    -09 19 03.5   0.0092 1.0119 153.1     15?   1.99 151.7   43 292 103  59
   2024 04 16 19:30  15 29 06.01    -09 19 21.0   0.0092 1.0119 153.1     15?   2.03 148.8   41 290 103  59
   2024 04 16 19:40  15 29 06.75    -09 19 38.2   0.0092 1.0120 153.1     15?   2.07 146.0   40 288 103  59
   2024 04 16 19:50  15 29 07.56    -09 19 55.4   0.0092 1.0120 153.1 A   15?   2.12 143.2   38 286 103  59
   2024 04 16 20:00  15 29 08.46    -09 20 12.3   0.0092 1.0120 153.1 A   15?   2.18 140.5   36 284 103  59
   2024 04 16 20:10  15 29 09.43    -09 20 29.1   0.0092 1.0120 153.1 A   15?   2.25 137.9   34 283 102  59
   2024 04 16 20:20  15 29 10.49    -09 20 45.7   0.0092 1.0120 153.1 N   15?   2.32 135.3   32 281 102  60
   2024 04 16 20:30  15 29 11.63    -09 21 02.2   0.0092 1.0120 153.1 N   15?   2.41 132.9   30 279 102  60
   2024 04 16 20:40  15 29 12.87    -09 21 18.6   0.0092 1.0120 153.1 N   15?   2.50 130.7   27 278 102  60
   2024 04 16 20:50  15 29 14.19    -09 21 34.9   0.0092 1.0120 153.1 C   15?   2.59 128.5   25 276 102  60
   2024 04 16 21:00  15 29 15.60    -09 21 51.0   0.0092 1.0120 153.1 C   15?   2.69 126.5   23 274 102  60
   ................
   2024 04 17 10:10  15 34 02.25    -09 48 46.5   0.0092 1.0121 152.5  r  15?   4.64 125.4    0 101  97  65
   2024 04 17 10:20  15 34 04.75    -09 49 13.4   0.0092 1.0121 152.5  m  15?   4.52 126.5    2  99  97  65
   2024 04 17 10:30  15 34 07.15    -09 49 40.4   0.0092 1.0121 152.4  m  15?   4.40 127.7    4  98  97  65
   2024 04 17 10:40  15 34 09.45    -09 50 07.4   0.0092 1.0121 152.4  m  15?   4.28 128.9    7  97  97  65
   2024 04 17 10:50  15 34 11.65    -09 50 34.4   0.0092 1.0121 152.4  m  15?   4.17 130.2    9  95  96  65
   2024 04 17 11:00  15 34 13.75    -09 51 01.4   0.0092 1.0121 152.4  m  15?   4.05 131.5   11  94  96  65
   2024 04 17 11:10  15 34 15.75    -09 51 28.3   0.0092 1.0122 152.4  m  15?   3.94 132.9   13  93  96  65
   2024 04 17 11:20  15 34 17.65    -09 51 55.2   0.0092 1.0122 152.4  m  15?   3.83 134.4   15  91  96  65
   2024 04 17 11:30  15 34 19.45    -09 52 22.1   0.0092 1.0122 152.4  m  15?   3.73 135.9   17  90  96  65
   2024 04 17 11:40  15 34 21.15    -09 52 48.8   0.0092 1.0122 152.4  m  15?   3.62 137.5   19  88  96  65
   2024 04 17 11:50  15 34 22.75    -09 53 15.6   0.0092 1.0122 152.4  m  15?   3.52 139.1   21  87  96  65
   2024 04 17 12:00  15 34 24.26    -09 53 42.2   0.0092 1.0122 152.4  m  15?   3.42 140.8   23  85  96  65
   2024 04 17 12:10  15 34 25.67    -09 54 08.7   0.0092 1.0122 152.4  m  15?   3.33 142.5   25  84  96  65
   2024 04 17 12:20  15 34 26.99    -09 54 35.2   0.0092 1.0122 152.4  m  15?   3.24 144.3   27  82  96  66
   2024 04 17 12:30  15 34 28.22    -09 55 01.5   0.0092 1.0122 152.4  m  15?   3.16 146.1   29  81  96  66
   2024 04 17 12:40  15 34 29.36    -09 55 27.7   0.0092 1.0122 152.4  m  15?   3.08 148.0   31  79  96  66
   2024 04 17 12:50  15 34 30.42    -09 55 53.8   0.0092 1.0122 152.4  m  15?   3.00 149.9   33  78  96  66
   2024 04 17 13:00  15 34 31.39    -09 56 19.7   0.0092 1.0122 152.5  m  15?   2.93 151.8   35  76  96  66
   2024 04 17 13:10  15 34 32.28    -09 56 45.4   0.0092 1.0122 152.5  m  15?   2.86 153.8   37  74  96  66
   2024 04 17 13:20  15 34 33.09    -09 57 11.0   0.0092 1.0122 152.5  m  15?   2.79 155.7   39  72  96  66
   2024 04 17 13:30  15 34 33.82    -09 57 36.5   0.0092 1.0122 152.5  m  15?   2.74 157.7   41  70  96  66
   2024 04 17 13:40  15 34 34.49    -09 58 01.7   0.0092 1.0122 152.5  m  15?   2.68 159.6   43  68  96  66
   2024 04 17 13:50  15 34 35.08    -09 58 26.8   0.0092 1.0122 152.5  m  15?   2.63 161.6   45  66  96  66
   2024 04 17 14:00  15 34 35.60    -09 58 51.6   0.0092 1.0122 152.5  m  15?   2.58 163.4   47  64  96  66
   2024 04 17 14:10  15 34 36.07    -09 59 16.3   0.0092 1.0122 152.5  m  15?   2.54 165.3   49  61  96  66
   2024 04 17 14:20  15 34 36.47    -09 59 40.7   0.0092 1.0122 152.5  m  15?   2.50 167.0   51  59  95  66
   2024 04 17 14:30  15 34 36.82    -10 00 04.9   0.0092 1.0122 152.5  m  15?   2.46 168.7   52  56  95  66
   2024 04 17 14:40  15 34 37.11    -10 00 28.9   0.0092 1.0122 152.5  m  15?   2.42 170.3   54  53  95  66
   2024 04 17 14:50  15 34 37.36    -10 00 52.7   0.0092 1.0122 152.5  m  15?   2.39 171.9   56  49  95  66
   2024 04 17 15:00  15 34 37.56    -10 01 16.2   0.0092 1.0122 152.5  m  15?   2.36 173.3   57  46  95  66
   2024 04 17 15:10  15 34 37.72    -10 01 39.5   0.0092 1.0122 152.5  m  15?   2.33 174.6   59  42  95  66
   2024 04 17 15:20  15 34 37.85    -10 02 02.5   0.0092 1.0122 152.5  m  15?   2.30 175.8   60  38  95  66
   2024 04 17 15:30  15 34 37.95    -10 02 25.3   0.0092 1.0122 152.5  m  15?   2.27 176.9   61  34  95  66
   2024 04 17 15:40  15 34 38.01    -10 02 47.8   0.0092 1.0122 152.5     15?   2.24 177.8   62  29  95  67
   2024 04 17 15:50  15 34 38.06    -10 03 10.1   0.0092 1.0122 152.5     15?   2.21 178.6   63  24  95  67
   2024 04 17 16:00  15 34 38.08    -10 03 32.1   0.0092 1.0122 152.5     15?   2.19 179.2   64  18  95  67
   2024 04 17 16:10  15 34 38.09    -10 03 53.8   0.0092 1.0122 152.6     15?   2.16 179.7   65  13  95  67
   2024 04 17 16:20  15 34 38.09    -10 04 15.3   0.0092 1.0122 152.6     15?   2.13 180.0   65   7  95  67
   2024 04 17 16:30  15 34 38.08    -10 04 36.5   0.0092 1.0122 152.6     15?   2.11 180.1   65   1  95  67
   2024 04 17 16:40  15 34 38.08    -10 04 57.5   0.0092 1.0122 152.6  t  15?   2.08 180.1   65 355  94  67
   2024 04 17 16:50  15 34 38.07    -10 05 18.2   0.0092 1.0122 152.6     15?   2.05 179.9   65 349  94  67
   2024 04 17 17:00  15 34 38.08    -10 05 38.6   0.0092 1.0122 152.6     15?   2.03 179.4   64 343  94  67
   2024 04 17 17:10  15 34 38.09    -10 05 58.7   0.0092 1.0122 152.6     15?   2.00 178.8   64 338  94  67
   2024 04 17 17:20  15 34 38.13    -10 06 18.6   0.0092 1.0122 152.6     15?   1.98 178.0   63 333  94  67
   2024 04 17 17:30  15 34 38.18    -10 06 38.2   0.0092 1.0122 152.6     15?   1.95 177.0   62 328  94  67
   2024 04 17 17:40  15 34 38.26    -10 06 57.6   0.0092 1.0122 152.6     15?   1.93 175.8   61 323  94  67
   2024 04 17 17:50  15 34 38.37    -10 07 16.7   0.0092 1.0122 152.6     15?   1.91 174.3   59 319  94  67
   2024 04 17 18:00  15 34 38.51    -10 07 35.5   0.0092 1.0122 152.6     15?   1.89 172.6   58 315  94  67
   2024 04 17 18:10  15 34 38.69    -10 07 54.1   0.0092 1.0122 152.6     15?   1.87 170.7   56 311  94  68
   2024 04 17 18:20  15 34 38.91    -10 08 12.5   0.0092 1.0122 152.6     15?   1.86 168.7   55 308  94  68
   2024 04 17 18:30  15 34 39.18    -10 08 30.6   0.0092 1.0122 152.6     15?   1.85 166.4   53 305  93  68
   2024 04 17 18:40  15 34 39.50    -10 08 48.4   0.0092 1.0122 152.7     15?   1.85 163.9   52 302  93  68
   2024 04 17 18:50  15 34 39.87    -10 09 06.1   0.0092 1.0123 152.7     15?   1.85 161.3   50 299  93  68
   2024 04 17 19:00  15 34 40.30    -10 09 23.5   0.0092 1.0123 152.7     15?   1.86 158.5   48 296  93  68
   2024 04 17 19:10  15 34 40.79    -10 09 40.7   0.0092 1.0123 152.7     15?   1.88 155.6   46 294  93  68
   2024 04 17 19:20  15 34 41.34    -10 09 57.7   0.0092 1.0123 152.7     15?   1.90 152.7   44 292  93  68
   2024 04 17 19:30  15 34 41.96    -10 10 14.5   0.0092 1.0123 152.7     15?   1.93 149.7   42 290  93  68
   2024 04 17 19:40  15 34 42.66    -10 10 31.1   0.0092 1.0123 152.7     15?   1.97 146.7   40 288  93  68
   2024 04 17 19:50  15 34 43.42    -10 10 47.5   0.0092 1.0123 152.7 A   15?   2.02 143.8   38 286  93  68
   2024 04 17 20:00  15 34 44.27    -10 11 03.8   0.0093 1.0123 152.7 A   15?   2.08 140.9   36 284  93  68
   2024 04 17 20:10  15 34 45.19    -10 11 19.8   0.0093 1.0123 152.7 A   15?   2.14 138.2   34 282  92  69
   2024 04 17 20:20  15 34 46.19    -10 11 35.8   0.0093 1.0123 152.7 N   15?   2.21 135.5   32 280  92  69
   2024 04 17 20:30  15 34 47.28    -10 11 51.5   0.0093 1.0123 152.7 N   15?   2.29 133.0   30 279  92  69
   2024 04 17 20:40  15 34 48.46    -10 12 07.2   0.0093 1.0123 152.7 N   15?   2.38 130.6   28 277  92  69
   2024 04 17 20:50  15 34 49.73    -10 12 22.6   0.0093 1.0123 152.7 C   15?   2.48 128.4   26 275  92  69
   2024 04 17 21:00  15 34 51.08    -10 12 38.0   0.0093 1.0123 152.7 C   15?   2.58 126.3   24 274  92  69
   ................
   2024 04 18 10:10  15 39 33.37    -10 38 56.2   0.0093 1.0124 152.1  r  15?   4.59 125.8    1 102  86  74
   2024 04 18 10:20  15 39 35.84    -10 39 23.2   0.0093 1.0125 152.1  m  15?   4.48 127.0    3 100  86  74
   2024 04 18 10:30  15 39 38.21    -10 39 50.2   0.0093 1.0125 152.1  m  15?   4.36 128.1    5  99  86  74
   2024 04 18 10:40  15 39 40.48    -10 40 17.2   0.0093 1.0125 152.1  m  15?   4.25 129.4    7  98  86  74
   2024 04 18 10:50  15 39 42.65    -10 40 44.3   0.0093 1.0125 152.1  m  15?   4.13 130.7    9  96  86  74
   2024 04 18 11:00  15 39 44.72    -10 41 11.3   0.0093 1.0125 152.1  m  15?   4.02 132.0   11  95  86  74
   2024 04 18 11:10  15 39 46.69    -10 41 38.3   0.0093 1.0125 152.1  m  15?   3.91 133.5   13  94  86  74
   2024 04 18 11:20  15 39 48.56    -10 42 05.2   0.0093 1.0125 152.1  m  15?   3.80 134.9   15  92  86  74
   2024 04 18 11:30  15 39 50.34    -10 42 32.1   0.0093 1.0125 152.1  m  15?   3.70 136.5   17  91  86  74
   2024 04 18 11:40  15 39 52.01    -10 42 58.9   0.0093 1.0125 152.1  m  15?   3.59 138.0   19  89  86  74
   2024 04 18 11:50  15 39 53.59    -10 43 25.7   0.0093 1.0125 152.1  m  15?   3.50 139.7   21  88  86  74
   2024 04 18 12:00  15 39 55.07    -10 43 52.4   0.0093 1.0125 152.1  m  15?   3.40 141.4   23  86  86  74
   2024 04 18 12:10  15 39 56.46    -10 44 18.9   0.0093 1.0125 152.1  m  15?   3.31 143.1   25  85  86  74
   2024 04 18 12:20  15 39 57.75    -10 44 45.4   0.0093 1.0125 152.1  m  15?   3.22 144.9   27  84  86  74
   2024 04 18 12:30  15 39 58.96    -10 45 11.7   0.0093 1.0125 152.1  m  15?   3.13 146.8   29  82  86  74
   2024 04 18 12:40  15 40 00.07    -10 45 37.9   0.0093 1.0125 152.1  m  15?   3.05 148.7   31  80  86  74
   2024 04 18 12:50  15 40 01.10    -10 46 04.0   0.0093 1.0125 152.1  m  15?   2.98 150.6   33  79  86  74
   2024 04 18 13:00  15 40 02.05    -10 46 29.9   0.0093 1.0125 152.1  m  15?   2.91 152.5   35  77  86  74
   2024 04 18 13:10  15 40 02.91    -10 46 55.6   0.0093 1.0125 152.1  m  15?   2.84 154.5   37  75  86  74
   2024 04 18 13:20  15 40 03.70    -10 47 21.2   0.0093 1.0125 152.1  m  15?   2.78 156.5   39  73  86  75
   2024 04 18 13:30  15 40 04.41    -10 47 46.6   0.0093 1.0125 152.1  m  15?   2.72 158.4   41  71  86  75
   2024 04 18 13:40  15 40 05.05    -10 48 11.8   0.0093 1.0125 152.1  m  15?   2.66 160.4   43  69  86  75
   2024 04 18 13:50  15 40 05.61    -10 48 36.7   0.0093 1.0125 152.1  m  15?   2.61 162.3   45  67  85  75
   2024 04 18 14:00  15 40 06.11    -10 49 01.5   0.0093 1.0125 152.1  m  15?   2.56 164.2   47  65  85  75
   2024 04 18 14:10  15 40 06.55    -10 49 26.1   0.0093 1.0125 152.1  m  15?   2.52 166.1   49  63  85  75
   2024 04 18 14:20  15 40 06.93    -10 49 50.4   0.0093 1.0125 152.1  m  15?   2.47 167.9   51  60  85  75
   2024 04 18 14:30  15 40 07.25    -10 50 14.5   0.0093 1.0125 152.1  m  15?   2.44 169.6   53  57  85  75
   2024 04 18 14:40  15 40 07.52    -10 50 38.3   0.0093 1.0125 152.1  m  15?   2.40 171.2   54  54  85  75
   2024 04 18 14:50  15 40 07.74    -10 51 01.9   0.0093 1.0125 152.1  m  15?   2.37 172.8   56  51  85  75
   2024 04 18 15:00  15 40 07.91    -10 51 25.3   0.0093 1.0125 152.1  m  15?   2.33 174.2   58  47  85  75
   2024 04 18 15:10  15 40 08.05    -10 51 48.4   0.0093 1.0125 152.1  m  15?   2.30 175.6   59  44  85  75
   2024 04 18 15:20  15 40 08.15    -10 52 11.2   0.0093 1.0125 152.1  m  15?   2.27 176.8   60  40  85  75
   2024 04 18 15:30  15 40 08.21    -10 52 33.8   0.0093 1.0125 152.2  m  15?   2.24 177.9   62  35  85  75
   2024 04 18 15:40  15 40 08.25    -10 52 56.0   0.0093 1.0125 152.2  m  15?   2.21 178.9   63  30  85  75
   2024 04 18 15:50  15 40 08.27    -10 53 18.0   0.0093 1.0125 152.2  m  15?   2.19 179.7   64  25  85  75
   2024 04 18 16:00  15 40 08.26    -10 53 39.8   0.0093 1.0125 152.2  m  15?   2.16 180.4   65  20  85  75
   2024 04 18 16:10  15 40 08.24    -10 54 01.2   0.0093 1.0125 152.2  m  15?   2.13 180.9   65  14  85  75
   2024 04 18 16:20  15 40 08.21    -10 54 22.4   0.0093 1.0125 152.2  m  15?   2.10 181.2   66   8  85  75
   2024 04 18 16:30  15 40 08.17    -10 54 43.2   0.0093 1.0125 152.2  m  15?   2.07 181.4   66   2  84  75
   2024 04 18 16:40  15 40 08.13    -10 55 03.8   0.0093 1.0125 152.2  t  15?   2.05 181.4   66 356  84  75
   2024 04 18 16:50  15 40 08.10    -10 55 24.1   0.0093 1.0125 152.2     15?   2.02 181.3   66 350  84  76
   2024 04 18 17:00  15 40 08.07    -10 55 44.1   0.0093 1.0125 152.2     15?   1.99 180.9   65 344  84  76
   2024 04 18 17:10  15 40 08.05    -10 56 03.9   0.0093 1.0125 152.2     15?   1.96 180.3   65 338  84  76
   2024 04 18 17:20  15 40 08.04    -10 56 23.3   0.0093 1.0125 152.2     15?   1.93 179.6   64 333  84  76
   2024 04 18 17:30  15 40 08.06    -10 56 42.5   0.0093 1.0125 152.2     15?   1.90 178.6   63 328  84  76
   2024 04 18 17:40  15 40 08.10    -10 57 01.3   0.0093 1.0125 152.2     15?   1.88 177.4   62 323  84  76
   2024 04 18 17:50  15 40 08.17    -10 57 20.0   0.0093 1.0125 152.2     15?   1.85 175.9   60 319  84  76
   2024 04 18 18:00  15 40 08.28    -10 57 38.3   0.0093 1.0126 152.3     15?   1.83 174.2   59 314  84  76
   2024 04 18 18:10  15 40 08.42    -10 57 56.4   0.0093 1.0126 152.3     15?   1.81 172.3   57 311  84  76
   2024 04 18 18:20  15 40 08.60    -10 58 14.2   0.0093 1.0126 152.3     15?   1.79 170.2   56 307  84  76
   2024 04 18 18:30  15 40 08.82    -10 58 31.7   0.0093 1.0126 152.3     15?   1.78 167.9   54 304  83  76
   2024 04 18 18:40  15 40 09.10    -10 58 49.0   0.0093 1.0126 152.3     15?   1.77 165.4   52 301  83  76
   2024 04 18 18:50  15 40 09.43    -10 59 06.0   0.0093 1.0126 152.3     15?   1.77 162.6   51 298  83  76
   2024 04 18 19:00  15 40 09.81    -10 59 22.8   0.0093 1.0126 152.3     15?   1.78 159.8   49 296  83  76
   2024 04 18 19:10  15 40 10.26    -10 59 39.4   0.0093 1.0126 152.3     15?   1.79 156.8   47 293  83  76
   2024 04 18 19:20  15 40 10.77    -10 59 55.8   0.0093 1.0126 152.3     15?   1.81 153.7   45 291  83  76
   2024 04 18 19:30  15 40 11.34    -11 00 11.9   0.0093 1.0126 152.3     15?   1.84 150.6   43 289  83  77
   2024 04 18 19:40  15 40 11.99    -11 00 27.8   0.0093 1.0126 152.3     15?   1.87 147.5   41 287  83  77
   2024 04 18 19:50  15 40 12.70    -11 00 43.6   0.0093 1.0126 152.3 A   15?   1.92 144.4   39 285  83  77
   2024 04 18 20:00  15 40 13.50    -11 00 59.1   0.0093 1.0126 152.3 A   15?   1.97 141.4   37 283  83  77
   2024 04 18 20:10  15 40 14.37    -11 01 14.4   0.0093 1.0126 152.3 A   15?   2.03 138.5   35 281  82  77
   2024 04 18 20:20  15 40 15.33    -11 01 29.6   0.0093 1.0126 152.3 N   15?   2.10 135.7   33 280  82  77
   2024 04 18 20:30  15 40 16.36    -11 01 44.6   0.0093 1.0126 152.3 N   15?   2.18 133.0   31 278  82  77
   2024 04 18 20:40  15 40 17.49    -11 01 59.5   0.0093 1.0126 152.3 N   15?   2.27 130.5   29 276  82  77
   2024 04 18 20:50  15 40 18.70    -11 02 14.2   0.0093 1.0126 152.3 C   15?   2.36 128.2   27 275  82  77
   2024 04 18 21:00  15 40 20.01    -11 02 28.8   0.0093 1.0126 152.3 C   15?   2.46 126.1   25 273  82  77
   ................
   2024 04 19 10:10  15 44 58.03    -11 28 08.4   0.0094 1.0128 151.7  m  15?   4.55 126.2    1 103  76  82
   2024 04 19 10:20  15 45 00.47    -11 28 35.5   0.0094 1.0128 151.7  m  15?   4.43 127.4    3 101  76  82
   2024 04 19 10:30  15 45 02.81    -11 29 02.5   0.0094 1.0128 151.7  m  15?   4.32 128.6    5 100  76  82
   2024 04 19 10:40  15 45 05.05    -11 29 29.6   0.0094 1.0128 151.7  m  15?   4.21 129.9    7  99  76  82
   2024 04 19 10:50  15 45 07.19    -11 29 56.6   0.0094 1.0128 151.7  m  15?   4.09 131.2    9  97  76  82
   2024 04 19 11:00  15 45 09.23    -11 30 23.6   0.0094 1.0128 151.7  m  15?   3.98 132.5   11  96  76  82
   2024 04 19 11:10  15 45 11.18    -11 30 50.6   0.0094 1.0128 151.7  m  15?   3.88 134.0   13  94  76  82
   2024 04 19 11:20  15 45 13.02    -11 31 17.6   0.0094 1.0128 151.7  m  15?   3.77 135.5   15  93  76  82
   2024 04 19 11:30  15 45 14.76    -11 31 44.5   0.0094 1.0128 151.7  m  15?   3.66 137.0   17  92  76  82
   2024 04 19 11:40  15 45 16.41    -11 32 11.3   0.0094 1.0128 151.7  m  15?   3.56 138.6   19  90  76  82
   2024 04 19 11:50  15 45 17.96    -11 32 38.1   0.0094 1.0128 151.7  m  15?   3.47 140.3   21  89  76  82
   2024 04 19 12:00  15 45 19.41    -11 33 04.8   0.0094 1.0128 151.7  m  15?   3.37 142.0   23  87  76  82
   2024 04 19 12:10  15 45 20.78    -11 33 31.3   0.0094 1.0128 151.7  m  15?   3.28 143.7   25  86  76  82
   2024 04 19 12:20  15 45 22.05    -11 33 57.8   0.0094 1.0128 151.7  m  15?   3.19 145.6   27  84  76  82
   2024 04 19 12:30  15 45 23.22    -11 34 24.1   0.0094 1.0128 151.7  m  15?   3.11 147.4   29  83  76  82
   2024 04 19 12:40  15 45 24.32    -11 34 50.3   0.0094 1.0128 151.7  m  15?   3.03 149.3   32  81  76  82
   2024 04 19 12:50  15 45 25.32    -11 35 16.3   0.0094 1.0128 151.7  m  15?   2.95 151.2   34  80  76  82
   2024 04 19 13:00  15 45 26.24    -11 35 42.2   0.0094 1.0128 151.7  m  15?   2.88 153.2   36  78  76  82
   2024 04 19 13:10  15 45 27.08    -11 36 07.8   0.0094 1.0128 151.7  m  15?   2.82 155.2   38  76  75  82
   2024 04 19 13:20  15 45 27.84    -11 36 33.3   0.0094 1.0128 151.7  m  15?   2.75 157.2   40  75  75  82
   2024 04 19 13:30  15 45 28.52    -11 36 58.7   0.0094 1.0128 151.7  m  15?   2.69 159.2   42  73  75  82
   2024 04 19 13:40  15 45 29.14    -11 37 23.8   0.0094 1.0128 151.7  m  15?   2.64 161.1   44  71  75  82
   2024 04 19 13:50  15 45 29.68    -11 37 48.6   0.0094 1.0128 151.7  m  15?   2.59 163.1   45  69  75  82
   2024 04 19 14:00  15 45 30.15    -11 38 13.3   0.0094 1.0128 151.7  m  15?   2.54 165.0   47  66  75  82
   2024 04 19 14:10  15 45 30.56    -11 38 37.7   0.0094 1.0128 151.8  m  15?   2.49 166.9   49  64  75  82
   2024 04 19 14:20  15 45 30.91    -11 39 01.9   0.0094 1.0128 151.8  m  15?   2.45 168.7   51  61  75  82
   2024 04 19 14:30  15 45 31.21    -11 39 25.9   0.0094 1.0128 151.8  m  15?   2.41 170.4   53  59  75  83
   2024 04 19 14:40  15 45 31.45    -11 39 49.6   0.0094 1.0128 151.8  m  15?   2.38 172.1   55  56  75  83
   2024 04 19 14:50  15 45 31.65    -11 40 13.0   0.0094 1.0128 151.8  m  15?   2.34 173.7   56  52  75  83
   2024 04 19 15:00  15 45 31.79    -11 40 36.1   0.0094 1.0128 151.8  m  15?   2.31 175.2   58  49  75  83
   2024 04 19 15:10  15 45 31.90    -11 40 59.0   0.0094 1.0128 151.8  m  15?   2.28 176.6   60  45  75  83
   2024 04 19 15:20  15 45 31.97    -11 41 21.6   0.0094 1.0128 151.8  m  15?   2.25 177.8   61  41  75  83
   2024 04 19 15:30  15 45 32.01    -11 41 43.9   0.0094 1.0128 151.8  m  15?   2.22 179.0   62  37  75  83
   2024 04 19 15:40  15 45 32.02    -11 42 05.9   0.0094 1.0128 151.8  m  15?   2.19 180.0   63  32  75  83
   2024 04 19 15:50  15 45 32.00    -11 42 27.6   0.0094 1.0128 151.8  m  15?   2.16 180.8   64  27  75  83
   2024 04 19 16:00  15 45 31.97    -11 42 49.1   0.0094 1.0128 151.8  m  15?   2.13 181.6   65  21  75  83
   2024 04 19 16:10  15 45 31.92    -11 43 10.2   0.0094 1.0128 151.8  m  15?   2.10 182.1   66  15  74  83
   2024 04 19 16:20  15 45 31.85    -11 43 31.0   0.0094 1.0128 151.8  m  15?   2.07 182.5   66   9  74  83
   2024 04 19 16:30  15 45 31.79    -11 43 51.5   0.0094 1.0128 151.8  m  15?   2.04 182.8   67   3  74  83
   2024 04 19 16:40  15 45 31.71    -11 44 11.7   0.0094 1.0128 151.8  t  15?   2.01 182.8   67 357  74  83
   2024 04 19 16:50  15 45 31.64    -11 44 31.7   0.0094 1.0128 151.9  m  15?   1.98 182.7   67 350  74  83
   2024 04 19 17:00  15 45 31.58    -11 44 51.3   0.0094 1.0129 151.9  m  15?   1.95 182.4   66 344  74  83
   2024 04 19 17:10  15 45 31.53    -11 45 10.6   0.0094 1.0129 151.9  m  15?   1.92 181.9   65 338  74  83
   2024 04 19 17:20  15 45 31.49    -11 45 29.6   0.0094 1.0129 151.9  m  15?   1.89 181.1   65 333  74  83
   2024 04 19 17:30  15 45 31.47    -11 45 48.3   0.0094 1.0129 151.9     15?   1.86 180.2   64 328  74  83
   2024 04 19 17:40  15 45 31.48    -11 46 06.7   0.0094 1.0129 151.9     15?   1.83 179.0   62 323  74  83
   2024 04 19 17:50  15 45 31.51    -11 46 24.8   0.0094 1.0129 151.9     15?   1.80 177.6   61 318  74  83
   2024 04 19 18:00  15 45 31.57    -11 46 42.6   0.0094 1.0129 151.9     15?   1.77 175.9   60 314  74  83
   2024 04 19 18:10  15 45 31.68    -11 47 00.1   0.0094 1.0129 151.9     15?   1.75 174.0   58 310  74  83
   2024 04 19 18:20  15 45 31.82    -11 47 17.4   0.0094 1.0129 151.9     15?   1.73 171.9   57 307  73  84
   2024 04 19 18:30  15 45 32.00    -11 47 34.3   0.0094 1.0129 151.9     15?   1.71 169.5   55 304  73  84
   2024 04 19 18:40  15 45 32.24    -11 47 51.0   0.0094 1.0129 151.9     15?   1.70 166.9   53 301  73  84
   2024 04 19 18:50  15 45 32.52    -11 48 07.5   0.0094 1.0129 151.9     15?   1.70 164.1   51 298  73  84
   2024 04 19 19:00  15 45 32.87    -11 48 23.7   0.0094 1.0129 151.9     15?   1.70 161.1   50 295  73  84
   2024 04 19 19:10  15 45 33.27    -11 48 39.6   0.0094 1.0129 151.9     15?   1.70 158.0   48 293  73  84
   2024 04 19 19:20  15 45 33.73    -11 48 55.3   0.0094 1.0129 151.9     15?   1.72 154.8   46 291  73  84
   2024 04 19 19:30  15 45 34.26    -11 49 10.8   0.0094 1.0129 152.0     15?   1.74 151.5   44 288  73  84
   2024 04 19 19:40  15 45 34.86    -11 49 26.0   0.0094 1.0129 152.0     15?   1.78 148.2   42 286  73  84
   2024 04 19 19:50  15 45 35.53    -11 49 41.1   0.0094 1.0129 152.0 A   15?   1.82 145.0   40 284  73  84
   2024 04 19 20:00  15 45 36.28    -11 49 55.9   0.0094 1.0129 152.0 A   15?   1.87 141.8   38 283  73  84
   2024 04 19 20:10  15 45 37.10    -11 50 10.5   0.0094 1.0129 152.0 A   15?   1.93 138.7   36 281  73  84
   2024 04 19 20:20  15 45 38.01    -11 50 25.0   0.0094 1.0129 152.0 N   15?   2.00 135.8   34 279  72  84
   2024 04 19 20:30  15 45 38.99    -11 50 39.3   0.0094 1.0129 152.0 N   15?   2.07 133.0   32 278  72  84
   2024 04 19 20:40  15 45 40.07    -11 50 53.4   0.0094 1.0129 152.0 N   15?   2.16 130.4   30 276  72  84
   2024 04 19 20:50  15 45 41.23    -11 51 07.3   0.0094 1.0129 152.0 C   15?   2.25 128.0   28 274  72  84
   2024 04 19 21:00  15 45 42.48    -11 51 21.2   0.0094 1.0129 152.0 C   15?   2.35 125.7   26 273  72  84
   ................
   2024 04 20 10:00  15 50 13.81    -12 15 54.3   0.0095 1.0131 151.4  r  15?   4.62 125.5    0 105  66  88
   2024 04 20 10:10  15 50 16.32    -12 16 21.2   0.0095 1.0131 151.4  m  15?   4.50 126.6    1 104  66  88
   2024 04 20 10:20  15 50 18.73    -12 16 48.2   0.0095 1.0131 151.4  m  15?   4.39 127.8    3 102  66  88
   2024 04 20 10:30  15 50 21.04    -12 17 15.2   0.0095 1.0131 151.4  m  15?   4.28 129.0    5 101  66  88
   2024 04 20 10:40  15 50 23.25    -12 17 42.3   0.0095 1.0131 151.4  m  15?   4.16 130.3    7  99  66  88
   2024 04 20 10:50  15 50 25.36    -12 18 09.3   0.0095 1.0131 151.4  m  15?   4.05 131.6    9  98  66  88
   2024 04 20 11:00  15 50 27.37    -12 18 36.3   0.0095 1.0131 151.4  m  15?   3.94 133.0   11  97  66  88
   2024 04 20 11:10  15 50 29.29    -12 19 03.3   0.0095 1.0131 151.4  m  15?   3.84 134.5   13  95  66  89
   2024 04 20 11:20  15 50 31.10    -12 19 30.2   0.0095 1.0131 151.4  m  15?   3.73 136.0   15  94  66  89
   2024 04 20 11:30  15 50 32.82    -12 19 57.1   0.0095 1.0131 151.4  m  15?   3.63 137.5   17  93  66  89
   2024 04 20 11:40  15 50 34.44    -12 20 23.9   0.0095 1.0131 151.4  m  15?   3.53 139.2   19  91  66  89
   2024 04 20 11:50  15 50 35.96    -12 20 50.7   0.0095 1.0131 151.4  m  15?   3.43 140.8   21  90  66  89
   2024 04 20 12:00  15 50 37.39    -12 21 17.3   0.0095 1.0131 151.4  m  15?   3.34 142.6   23  88  66  89
   2024 04 20 12:10  15 50 38.72    -12 21 43.8   0.0095 1.0131 151.4  m  15?   3.25 144.3   25  87  66  89
   2024 04 20 12:20  15 50 39.96    -12 22 10.3   0.0095 1.0131 151.4  m  15?   3.16 146.2   28  85  65  89
   2024 04 20 12:30  15 50 41.12    -12 22 36.5   0.0095 1.0131 151.4  m  15?   3.08 148.1   30  84  65  89
   2024 04 20 12:40  15 50 42.18    -12 23 02.7   0.0095 1.0131 151.4  m  15?   3.00 150.0   32  82  65  89
   2024 04 20 12:50  15 50 43.16    -12 23 28.6   0.0095 1.0131 151.4  m  15?   2.93 151.9   34  81  65  89
   2024 04 20 13:00  15 50 44.05    -12 23 54.4   0.0095 1.0131 151.4  m  15?   2.86 153.9   36  79  65  89
   2024 04 20 13:10  15 50 44.87    -12 24 20.0   0.0095 1.0131 151.4  m  15?   2.79 155.9   38  77  65  89
   2024 04 20 13:20  15 50 45.60    -12 24 45.4   0.0095 1.0131 151.4  m  15?   2.73 157.9   40  76  65  89
   2024 04 20 13:30  15 50 46.26    -12 25 10.6   0.0095 1.0131 151.4  m  15?   2.67 159.9   42  74  65  89
   2024 04 20 13:40  15 50 46.84    -12 25 35.6   0.0095 1.0131 151.4  m  15?   2.62 161.9   44  72  65  89
   2024 04 20 13:50  15 50 47.36    -12 26 00.4   0.0095 1.0131 151.4  m  15?   2.56 163.9   46  70  65  89
   2024 04 20 14:00  15 50 47.81    -12 26 24.9   0.0095 1.0131 151.4  m  15?   2.52 165.8   48  68  65  89
   2024 04 20 14:10  15 50 48.19    -12 26 49.2   0.0095 1.0131 151.4  m  15?   2.47 167.7   50  65  65  89
   2024 04 20 14:20  15 50 48.52    -12 27 13.3   0.0095 1.0131 151.4  m  15?   2.43 169.6   51  63  65  89
   2024 04 20 14:30  15 50 48.78    -12 27 37.0   0.0095 1.0131 151.4  m  15?   2.39 171.3   53  60  65  89
   2024 04 20 14:40  15 50 49.00    -12 28 00.5   0.0095 1.0131 151.4  m  15?   2.35 173.0   55  57  65  89
   2024 04 20 14:50  15 50 49.17    -12 28 23.7   0.0095 1.0131 151.4  m  15?   2.32 174.7   57  54  65  89
   2024 04 20 15:00  15 50 49.29    -12 28 46.7   0.0095 1.0131 151.5  m  15?   2.28 176.2   58  50  65  89
   2024 04 20 15:10  15 50 49.37    -12 29 09.3   0.0095 1.0131 151.5  m  15?   2.25 177.6   60  47  65  89
   2024 04 20 15:20  15 50 49.41    -12 29 31.7   0.0095 1.0131 151.5  m  15?   2.22 178.9   61  43  65  89
   2024 04 20 15:30  15 50 49.42    -12 29 53.7   0.0095 1.0131 151.5  m  15?   2.19 180.1   63  38  65  89
   2024 04 20 15:40  15 50 49.40    -12 30 15.4   0.0095 1.0131 151.5  m  15?   2.16 181.1   64  33  64  89
   2024 04 20 15:50  15 50 49.35    -12 30 36.9   0.0095 1.0131 151.5  m  15?   2.13 182.0   65  28  64  89
   2024 04 20 16:00  15 50 49.29    -12 30 58.0   0.0095 1.0131 151.5  m  15?   2.10 182.8   66  23  64  89
   2024 04 20 16:10  15 50 49.20    -12 31 18.8   0.0095 1.0132 151.5  m  15?   2.07 183.4   67  17  64  89
   2024 04 20 16:20  15 50 49.11    -12 31 39.3   0.0095 1.0132 151.5  m  15?   2.04 183.9   67  10  64  89
   2024 04 20 16:30  15 50 49.01    -12 31 59.4   0.0095 1.0132 151.5  m  15?   2.00 184.2   68   4  64  89
   2024 04 20 16:40  15 50 48.90    -12 32 19.2   0.0095 1.0132 151.5  t  15?   1.97 184.3   68 357  64  89
   2024 04 20 16:50  15 50 48.80    -12 32 38.7   0.0095 1.0132 151.5  m  15?   1.94 184.2   67 351  64  89
   2024 04 20 17:00  15 50 48.70    -12 32 57.9   0.0095 1.0132 151.5  m  15?   1.91 183.9   67 345  64  89
   2024 04 20 17:10  15 50 48.62    -12 33 16.8   0.0095 1.0132 151.5  m  15?   1.87 183.5   66 339  64  90
   2024 04 20 17:20  15 50 48.54    -12 33 35.3   0.0095 1.0132 151.5  m  15?   1.84 182.8   65 333  64  90
   2024 04 20 17:30  15 50 48.49    -12 33 53.6   0.0095 1.0132 151.6  m  15?   1.81 181.8   64 327  64  90
   2024 04 20 17:40  15 50 48.46    -12 34 11.5   0.0095 1.0132 151.6  m  15?   1.78 180.7   63 322  64  90
   2024 04 20 17:50  15 50 48.45    -12 34 29.1   0.0095 1.0132 151.6  m  15?   1.74 179.3   62 318  64  90
   2024 04 20 18:00  15 50 48.48    -12 34 46.4   0.0095 1.0132 151.6  m  15?   1.72 177.7   61 314  64  90
   2024 04 20 18:10  15 50 48.54    -12 35 03.4   0.0095 1.0132 151.6  m  15?   1.69 175.8   59 310  63  90
   2024 04 20 18:20  15 50 48.65    -12 35 20.1   0.0095 1.0132 151.6  m  15?   1.66 173.6   57 306  63  90
   2024 04 20 18:30  15 50 48.79    -12 35 36.5   0.0095 1.0132 151.6     15?   1.64 171.2   56 303  63  90
   2024 04 20 18:40  15 50 48.99    -12 35 52.6   0.0095 1.0132 151.6     15?   1.63 168.5   54 300  63  90
   2024 04 20 18:50  15 50 49.23    -12 36 08.4   0.0095 1.0132 151.6     15?   1.62 165.6   52 297  63  90
   2024 04 20 19:00  15 50 49.53    -12 36 24.0   0.0095 1.0132 151.6     15?   1.62 162.5   50 295  63  90
   2024 04 20 19:10  15 50 49.89    -12 36 39.3   0.0095 1.0132 151.6     15?   1.62 159.3   48 292  63  90
   2024 04 20 19:20  15 50 50.31    -12 36 54.4   0.0095 1.0132 151.6     15?   1.63 155.9   47 290  63  90
   2024 04 20 19:30  15 50 50.79    -12 37 09.2   0.0095 1.0132 151.6     15?   1.65 152.5   45 288  63  90
   2024 04 20 19:40  15 50 51.35    -12 37 23.7   0.0095 1.0132 151.6     15?   1.68 149.0   43 286  63  90
   2024 04 20 19:50  15 50 51.97    -12 37 38.1   0.0095 1.0132 151.6 A   15?   1.72 145.6   41 284  63  90
   2024 04 20 20:00  15 50 52.67    -12 37 52.2   0.0095 1.0132 151.6 A   15?   1.77 142.2   39 282  63  90
   2024 04 20 20:10  15 50 53.45    -12 38 06.1   0.0095 1.0132 151.6 A   15?   1.83 139.0   37 280  62  90
   2024 04 20 20:20  15 50 54.31    -12 38 19.8   0.0095 1.0132 151.6 N   15?   1.89 135.9   35 279  62  90
   2024 04 20 20:30  15 50 55.25    -12 38 33.4   0.0095 1.0132 151.6 N   15?   1.97 133.0   33 277  62  90
   2024 04 20 20:40  15 50 56.27    -12 38 46.7   0.0095 1.0132 151.7 N   15?   2.05 130.2   31 275  62  90
   2024 04 20 20:50  15 50 57.38    -12 39 00.0   0.0095 1.0132 151.7 C   15?   2.14 127.7   28 274  62  90
   2024 04 20 21:00  15 50 58.58    -12 39 13.0   0.0095 1.0132 151.7 C   15?   2.24 125.3   26 272  62  90
   ................
   2024 04 21 10:00  15 55 25.82    -13 03 05.8   0.0096 1.0134 151.1  r  15?   4.56 125.9    0 106  56  94
   2024 04 21 10:10  15 55 28.30    -13 03 32.7   0.0096 1.0134 151.1  m  15?   4.45 127.0    1 104  56  94
   2024 04 21 10:20  15 55 30.67    -13 03 59.7   0.0095 1.0134 151.1  m  15?   4.34 128.2    3 103  56  94
   2024 04 21 10:30  15 55 32.95    -13 04 26.6   0.0095 1.0134 151.1  m  15?   4.23 129.5    5 102  56  94
   2024 04 21 10:40  15 55 35.13    -13 04 53.6   0.0095 1.0134 151.1  m  15?   4.12 130.8    7 100  56  94
   2024 04 21 10:50  15 55 37.21    -13 05 20.6   0.0095 1.0134 151.1  m  15?   4.01 132.1    9  99  56  94
   2024 04 21 11:00  15 55 39.19    -13 05 47.6   0.0095 1.0134 151.1  m  15?   3.90 133.5   11  98  55  94
   2024 04 21 11:10  15 55 41.07    -13 06 14.5   0.0095 1.0134 151.1  m  15?   3.80 135.0   13  96  55  94
   2024 04 21 11:20  15 55 42.86    -13 06 41.4   0.0095 1.0134 151.1  m  15?   3.69 136.5   15  95  55  94
   2024 04 21 11:30  15 55 44.54    -13 07 08.3   0.0095 1.0134 151.1  m  15?   3.59 138.1   17  93  55  94
   2024 04 21 11:40  15 55 46.13    -13 07 35.0   0.0095 1.0134 151.1  m  15?   3.50 139.7   19  92  55  94
   2024 04 21 11:50  15 55 47.63    -13 08 01.7   0.0095 1.0134 151.1  m  15?   3.40 141.4   22  91  55  94
   2024 04 21 12:00  15 55 49.03    -13 08 28.3   0.0095 1.0134 151.1  m  15?   3.31 143.2   24  89  55  94
   2024 04 21 12:10  15 55 50.33    -13 08 54.8   0.0095 1.0134 151.1  m  15?   3.22 145.0   26  88  55  94
   2024 04 21 12:20  15 55 51.55    -13 09 21.1   0.0095 1.0134 151.1  m  15?   3.13 146.8   28  86  55  94
   2024 04 21 12:30  15 55 52.67    -13 09 47.3   0.0095 1.0134 151.1  m  15?   3.05 148.7   30  85  55  94
   2024 04 21 12:40  15 55 53.71    -13 10 13.4   0.0095 1.0134 151.1  m  15?   2.97 150.6   32  83  55  94
   2024 04 21 12:50  15 55 54.66    -13 10 39.2   0.0095 1.0134 151.1  m  15?   2.90 152.6   34  82  55  94
   2024 04 21 13:00  15 55 55.53    -13 11 04.9   0.0095 1.0134 151.1  m  15?   2.83 154.6   36  80  55  94
   2024 04 21 13:10  15 55 56.31    -13 11 30.4   0.0095 1.0134 151.1  m  15?   2.76 156.6   38  78  55  94
   2024 04 21 13:20  15 55 57.02    -13 11 55.7   0.0095 1.0134 151.1  m  15?   2.70 158.7   40  77  55  94
   2024 04 21 13:30  15 55 57.65    -13 12 20.8   0.0095 1.0134 151.1  m  15?   2.64 160.7   42  75  55  94
   2024 04 21 13:40  15 55 58.21    -13 12 45.7   0.0095 1.0134 151.1  m  15?   2.59 162.7   44  73  55  94
   2024 04 21 13:50  15 55 58.70    -13 13 10.3   0.0095 1.0134 151.1  m  15?   2.54 164.7   46  71  55  94
   2024 04 21 14:00  15 55 59.12    -13 13 34.7   0.0095 1.0134 151.1  m  15?   2.49 166.7   48  69  55  94
   2024 04 21 14:10  15 55 59.47    -13 13 58.8   0.0095 1.0134 151.1  m  15?   2.45 168.6   50  66  55  94
   2024 04 21 14:20  15 55 59.77    -13 14 22.7   0.0095 1.0134 151.1  m  15?   2.40 170.5   52  64  55  94
   2024 04 21 14:30  15 56 00.01    -13 14 46.3   0.0095 1.0134 151.1  m  15?   2.36 172.3   54  61  55  94
   2024 04 21 14:40  15 56 00.20    -13 15 09.6   0.0095 1.0134 151.1  m  15?   2.33 174.0   55  58  54  94
   2024 04 21 14:50  15 56 00.34    -13 15 32.6   0.0095 1.0134 151.1  m  15?   2.29 175.7   57  55  54  94
   2024 04 21 15:00  15 56 00.43    -13 15 55.3   0.0095 1.0134 151.1  m  15?   2.26 177.2   59  52  54  94
   2024 04 21 15:10  15 56 00.48    -13 16 17.7   0.0095 1.0135 151.2  m  15?   2.22 178.7   60  48  54  94
   2024 04 21 15:20  15 56 00.49    -13 16 39.7   0.0095 1.0135 151.2  m  15?   2.19 180.0   62  44  54  94
   2024 04 21 15:30  15 56 00.47    -13 17 01.5   0.0095 1.0135 151.2  m  15?   2.16 181.2   63  40  54  94
   2024 04 21 15:40  15 56 00.42    -13 17 22.9   0.0095 1.0135 151.2  m  15?   2.13 182.3   65  35  54  94
   2024 04 21 15:50  15 56 00.35    -13 17 44.1   0.0095 1.0135 151.2  m  15?   2.10 183.3   66  30  54  94
   2024 04 21 16:00  15 56 00.25    -13 18 04.8   0.0095 1.0135 151.2  m  15?   2.07 184.1   67  24  54  94
   2024 04 21 16:10  15 56 00.14    -13 18 25.3   0.0095 1.0135 151.2  m  15?   2.04 184.8   67  18  54  94
   2024 04 21 16:20  15 56 00.01    -13 18 45.4   0.0095 1.0135 151.2  m  15?   2.00 185.3   68  12  54  94
   2024 04 21 16:30  15 55 59.88    -13 19 05.2   0.0095 1.0135 151.2  m  15?   1.97 185.6   68   5  54  94
   2024 04 21 16:40  15 55 59.74    -13 19 24.6   0.0095 1.0135 151.2  t  15?   1.94 185.8   68 358  54  94
   2024 04 21 16:50  15 55 59.60    -13 19 43.7   0.0095 1.0135 151.2  m  15?   1.90 185.8   68 352  54  94
   2024 04 21 17:00  15 55 59.47    -13 20 02.5   0.0095 1.0135 151.2  m  15?   1.87 185.5   68 345  54  94
   2024 04 21 17:10  15 55 59.35    -13 20 20.9   0.0095 1.0135 151.2  m  15?   1.83 185.1   67 339  54  94
   2024 04 21 17:20  15 55 59.24    -13 20 39.0   0.0095 1.0135 151.2  m  15?   1.80 184.5   66 333  54  94
   2024 04 21 17:30  15 55 59.15    -13 20 56.8   0.0095 1.0135 151.3  m  15?   1.76 183.6   65 327  53  95
   2024 04 21 17:40  15 55 59.08    -13 21 14.2   0.0095 1.0135 151.3  m  15?   1.73 182.5   64 322  53  95
   2024 04 21 17:50  15 55 59.04    -13 21 31.3   0.0095 1.0135 151.3  m  15?   1.69 181.1   63 317  53  95
   2024 04 21 18:00  15 55 59.03    -13 21 48.0   0.0095 1.0135 151.3  m  15?   1.66 179.5   61 313  53  95
   2024 04 21 18:10  15 55 59.06    -13 22 04.5   0.0095 1.0135 151.3  m  15?   1.63 177.6   60 309  53  95
   2024 04 21 18:20  15 55 59.12    -13 22 20.6   0.0095 1.0135 151.3  m  15?   1.60 175.4   58 306  53  95
   2024 04 21 18:30  15 55 59.23    -13 22 36.5   0.0095 1.0135 151.3  m  15?   1.58 173.0   57 302  53  95
   2024 04 21 18:40  15 55 59.38    -13 22 52.0   0.0095 1.0135 151.3  m  15?   1.56 170.3   55 299  53  95
   2024 04 21 18:50  15 55 59.58    -13 23 07.2   0.0095 1.0135 151.3  m  15?   1.55 167.3   53 297  53  95
   2024 04 21 19:00  15 55 59.84    -13 23 22.2   0.0095 1.0135 151.3  m  15?   1.54 164.1   51 294  53  95
   2024 04 21 19:10  15 56 00.15    -13 23 36.8   0.0095 1.0135 151.3  m  15?   1.54 160.7   49 292  53  95
   2024 04 21 19:20  15 56 00.53    -13 23 51.2   0.0095 1.0135 151.3     15?   1.55 157.2   47 289  53  95
   2024 04 21 19:30  15 56 00.97    -13 24 05.4   0.0096 1.0135 151.3     15?   1.56 153.5   45 287  53  95
   2024 04 21 19:40  15 56 01.48    -13 24 19.3   0.0096 1.0135 151.3     15?   1.59 149.9   43 285  52  95
   2024 04 21 19:50  15 56 02.06    -13 24 32.9   0.0096 1.0135 151.3 A   15?   1.62 146.2   41 283  52  95
   2024 04 21 20:00  15 56 02.71    -13 24 46.3   0.0096 1.0135 151.3 A   15?   1.67 142.7   39 281  52  95
   2024 04 21 20:10  15 56 03.44    -13 24 59.6   0.0096 1.0135 151.3 A   15?   1.73 139.3   37 280  52  95
   2024 04 21 20:20  15 56 04.25    -13 25 12.6   0.0096 1.0135 151.3 N   15?   1.79 136.0   35 278  52  95
   2024 04 21 20:30  15 56 05.14    -13 25 25.4   0.0096 1.0135 151.3 N   15?   1.86 132.9   33 276  52  95
   2024 04 21 20:40  15 56 06.12    -13 25 38.0   0.0096 1.0135 151.4 N   15?   1.94 130.0   31 275  52  95
   2024 04 21 20:50  15 56 07.18    -13 25 50.4   0.0096 1.0135 151.4 C   15?   2.03 127.4   29 273  52  95
   2024 04 21 21:00  15 56 08.33    -13 26 02.7   0.0096 1.0135 151.4 C   15?   2.13 124.9   27 272  52  95
   ................
   2024 04 22 10:00  16 00 31.51    -13 49 14.7   0.0096 1.0137 150.8  r  15?   4.51 126.3    0 107  45  97
   2024 04 22 10:10  16 00 33.95    -13 49 41.6   0.0096 1.0137 150.8  m  15?   4.40 127.4    1 105  45  97
   2024 04 22 10:20  16 00 36.30    -13 50 08.4   0.0096 1.0137 150.8  m  15?   4.29 128.6    3 104  45  97
   2024 04 22 10:30  16 00 38.54    -13 50 35.3   0.0096 1.0137 150.8  m  15?   4.18 129.9    5 102  45  97
   2024 04 22 10:40  16 00 40.69    -13 51 02.2   0.0096 1.0137 150.8  m  15?   4.07 131.2    7 101  45  97
   2024 04 22 10:50  16 00 42.74    -13 51 29.1   0.0096 1.0137 150.8  m  15?   3.96 132.6    9 100  45  97
   2024 04 22 11:00  16 00 44.69    -13 51 56.0   0.0096 1.0137 150.8  m  15?   3.86 134.0   11  98  45  97
   2024 04 22 11:10  16 00 46.54    -13 52 22.9   0.0096 1.0137 150.8  m  15?   3.75 135.5   13  97  45  97
   2024 04 22 11:20  16 00 48.29    -13 52 49.7   0.0096 1.0137 150.8  m  15?   3.65 137.0   16  96  45  97
   2024 04 22 11:30  16 00 49.95    -13 53 16.5   0.0096 1.0137 150.8  m  15?   3.55 138.6   18  94  45  97
   2024 04 22 11:40  16 00 51.51    -13 53 43.2   0.0096 1.0137 150.8  m  15?   3.46 140.3   20  93  45  97
   2024 04 22 11:50  16 00 52.97    -13 54 09.8   0.0096 1.0137 150.8  m  15?   3.36 142.0   22  92  45  97
   2024 04 22 12:00  16 00 54.34    -13 54 36.3   0.0096 1.0137 150.8  m  15?   3.27 143.8   24  90  45  97
   2024 04 22 12:10  16 00 55.62    -13 55 02.7   0.0096 1.0137 150.8  m  15?   3.18 145.6   26  89  45  97
   2024 04 22 12:20  16 00 56.80    -13 55 29.0   0.0096 1.0137 150.8  m  15?   3.10 147.5   28  87  45  97
   2024 04 22 12:30  16 00 57.90    -13 55 55.1   0.0096 1.0137 150.8  m  15?   3.02 149.4   30  86  45  98
   2024 04 22 12:40  16 00 58.90    -13 56 21.0   0.0096 1.0137 150.8  m  15?   2.94 151.3   32  84  45  98
   2024 04 22 12:50  16 00 59.82    -13 56 46.8   0.0096 1.0137 150.8  m  15?   2.87 153.3   34  83  45  98
   2024 04 22 13:00  16 01 00.66    -13 57 12.4   0.0096 1.0137 150.8  m  15?   2.80 155.4   36  81  44  98
   2024 04 22 13:10  16 01 01.42    -13 57 37.8   0.0096 1.0137 150.8  m  15?   2.74 157.4   38  79  44  98
   2024 04 22 13:20  16 01 02.10    -13 58 02.9   0.0096 1.0137 150.8  m  15?   2.67 159.4   40  78  44  98
   2024 04 22 13:30  16 01 02.70    -13 58 27.9   0.0096 1.0137 150.8  m  15?   2.62 161.5   42  76  44  98
   2024 04 22 13:40  16 01 03.23    -13 58 52.6   0.0096 1.0137 150.8  m  15?   2.56 163.5   44  74  44  98
   2024 04 22 13:50  16 01 03.69    -13 59 17.1   0.0096 1.0137 150.8  m  15?   2.51 165.6   46  72  44  98
   2024 04 22 14:00  16 01 04.08    -13 59 41.3   0.0096 1.0137 150.8  m  15?   2.46 167.6   48  70  44  98
   2024 04 22 14:10  16 01 04.41    -14 00 05.2   0.0096 1.0138 150.8  m  15?   2.42 169.5   50  68  44  98
   2024 04 22 14:20  16 01 04.68    -14 00 28.9   0.0096 1.0138 150.8  m  15?   2.38 171.4   52  65  44  98
   2024 04 22 14:30  16 01 04.89    -14 00 52.2   0.0096 1.0138 150.8  m  15?   2.34 173.3   54  63  44  98
   2024 04 22 14:40  16 01 05.04    -14 01 15.3   0.0096 1.0138 150.9  m  15?   2.30 175.0   56  60  44  98
   2024 04 22 14:50  16 01 05.15    -14 01 38.1   0.0096 1.0138 150.9  m  15?   2.26 176.7   57  57  44  98
   2024 04 22 15:00  16 01 05.21    -14 02 00.5   0.0096 1.0138 150.9  m  15?   2.23 178.3   59  53  44  98
   2024 04 22 15:10  16 01 05.23    -14 02 22.7   0.0096 1.0138 150.9  m  15?   2.20 179.8   61  50  44  98
   2024 04 22 15:20  16 01 05.22    -14 02 44.5   0.0096 1.0138 150.9  m  15?   2.16 181.2   62  46  44  98
   2024 04 22 15:30  16 01 05.17    -14 03 05.9   0.0096 1.0138 150.9  m  15?   2.13 182.5   64  41  44  98
   2024 04 22 15:40  16 01 05.08    -14 03 27.1   0.0096 1.0138 150.9  m  15?   2.10 183.6   65  36  44  98
   2024 04 22 15:50  16 01 04.98    -14 03 47.9   0.0096 1.0138 150.9  m  15?   2.07 184.6   66  31  44  98
   2024 04 22 16:00  16 01 04.85    -14 04 08.3   0.0096 1.0138 150.9  m  15?   2.04 185.5   67  25  44  98
   2024 04 22 16:10  16 01 04.70    -14 04 28.4   0.0096 1.0138 150.9  m  15?   2.00 186.2   68  19  44  98
   2024 04 22 16:20  16 01 04.54    -14 04 48.2   0.0096 1.0138 150.9  m  15?   1.97 186.7   69  13  43  98
   2024 04 22 16:30  16 01 04.38    -14 05 07.6   0.0096 1.0138 150.9  m  15?   1.94 187.1   69   6  43  98
   2024 04 22 16:40  16 01 04.21    -14 05 26.6   0.0096 1.0138 150.9  t  15?   1.90 187.4   69 359  43  98
   2024 04 22 16:50  16 01 04.04    -14 05 45.3   0.0096 1.0138 150.9  m  15?   1.87 187.4   69 352  43  98
   2024 04 22 17:00  16 01 03.87    -14 06 03.6   0.0096 1.0138 151.0  m  15?   1.83 187.2   69 345  43  98
   2024 04 22 17:10  16 01 03.71    -14 06 21.6   0.0096 1.0138 151.0  m  15?   1.79 186.9   68 339  43  98
   2024 04 22 17:20  16 01 03.57    -14 06 39.2   0.0096 1.0138 151.0  m  15?   1.76 186.3   67 333  43  98
   2024 04 22 17:30  16 01 03.44    -14 06 56.5   0.0096 1.0138 151.0  m  15?   1.72 185.5   66 327  43  98
   2024 04 22 17:40  16 01 03.34    -14 07 13.4   0.0096 1.0138 151.0  m  15?   1.68 184.4   65 322  43  98
   2024 04 22 17:50  16 01 03.26    -14 07 30.0   0.0096 1.0138 151.0  m  15?   1.64 183.1   64 317  43  98
   2024 04 22 18:00  16 01 03.21    -14 07 46.2   0.0096 1.0138 151.0  m  15?   1.61 181.5   62 313  43  98
   2024 04 22 18:10  16 01 03.19    -14 08 02.1   0.0096 1.0138 151.0  m  15?   1.57 179.6   61 309  43  98
   2024 04 22 18:20  16 01 03.22    -14 08 17.7   0.0096 1.0138 151.0  m  15?   1.54 177.4   59 305  43  98
   2024 04 22 18:30  16 01 03.28    -14 08 33.0   0.0096 1.0138 151.0  m  15?   1.51 175.0   57 302  43  98
   2024 04 22 18:40  16 01 03.40    -14 08 47.9   0.0096 1.0138 151.0  m  15?   1.49 172.2   55 299  43  98
   2024 04 22 18:50  16 01 03.56    -14 09 02.5   0.0096 1.0138 151.0  m  15?   1.47 169.1   54 296  43  98
   2024 04 22 19:00  16 01 03.77    -14 09 16.9   0.0096 1.0138 151.0  m  15?   1.46 165.8   52 293  42  98
   2024 04 22 19:10  16 01 04.05    -14 09 30.9   0.0096 1.0138 151.0  m  15?   1.46 162.3   50 291  42  98
   2024 04 22 19:20  16 01 04.38    -14 09 44.7   0.0096 1.0138 151.0  m  15?   1.46 158.6   48 289  42  98
   2024 04 22 19:30  16 01 04.78    -14 09 58.1   0.0096 1.0138 151.0  m  15?   1.47 154.7   46 286  42  98
   2024 04 22 19:40  16 01 05.24    -14 10 11.4   0.0096 1.0138 151.1  m  15?   1.50 150.9   44 284  42  98
   2024 04 22 19:50  16 01 05.77    -14 10 24.3   0.0096 1.0138 151.1 Am  15?   1.53 147.0   42 283  42  98
   2024 04 22 20:00  16 01 06.38    -14 10 37.1   0.0096 1.0138 151.1 Am  15?   1.57 143.2   40 281  42  98
   2024 04 22 20:10  16 01 07.06    -14 10 49.6   0.0096 1.0138 151.1 Am  15?   1.62 139.5   38 279  42  98
   2024 04 22 20:20  16 01 07.83    -14 11 01.9   0.0096 1.0138 151.1 N   15?   1.69 136.1   36 277  42  98
   2024 04 22 20:30  16 01 08.67    -14 11 13.9   0.0096 1.0138 151.1 N   15?   1.76 132.8   34 276  42  98
   2024 04 22 20:40  16 01 09.60    -14 11 25.8   0.0096 1.0138 151.1 N   15?   1.84 129.8   32 274  42  98
   2024 04 22 20:50  16 01 10.61    -14 11 37.5   0.0096 1.0138 151.1 C   15?   1.93 127.0   30 273  42  98
   2024 04 22 21:00  16 01 11.71    -14 11 49.1   0.0096 1.0138 151.1 C   15?   2.02 124.4   28 271  42  98
   2024 04 22 21:10  16 01 12.89    -14 12 00.5   0.0096 1.0138 151.1 C   15?   2.12 122.1   26 270  41  98
   ................
   2024 04 23 10:00  16 05 30.85    -14 34 19.9   0.0097 1.0140 150.5  r  15?   4.45 126.7    0 107  35  99
   2024 04 23 10:10  16 05 33.25    -14 34 46.7   0.0097 1.0140 150.5  m  15?   4.34 127.8    2 106  35  99
   2024 04 23 10:20  16 05 35.56    -14 35 13.4   0.0097 1.0140 150.5  m  15?   4.23 129.1    4 105  35  99
   2024 04 23 10:30  16 05 37.77    -14 35 40.2   0.0097 1.0140 150.5  m  15?   4.13 130.3    6 103  35  99
   2024 04 23 10:40  16 05 39.88    -14 36 07.0   0.0097 1.0140 150.5  m  15?   4.02 131.7    8 102  35  99
   2024 04 23 10:50  16 05 41.90    -14 36 33.9   0.0097 1.0140 150.5  m  15?   3.91 133.1   10 100  35  99
   2024 04 23 11:00  16 05 43.81    -14 37 00.7   0.0097 1.0140 150.5  m  15?   3.81 134.5   12  99  35  99
   2024 04 23 11:10  16 05 45.63    -14 37 27.5   0.0097 1.0140 150.5  m  15?   3.71 136.0   14  98  34  99
   2024 04 23 11:20  16 05 47.35    -14 37 54.2   0.0097 1.0140 150.5  m  15?   3.61 137.6   16  96  34  99
   2024 04 23 11:30  16 05 48.97    -14 38 20.9   0.0097 1.0140 150.5  m  15?   3.51 139.2   18  95  34  99
   2024 04 23 11:40  16 05 50.50    -14 38 47.5   0.0097 1.0140 150.5  m  15?   3.41 140.9   20  94  34  99
   2024 04 23 11:50  16 05 51.93    -14 39 14.0   0.0097 1.0140 150.5  m  15?   3.32 142.6   22  92  34  99
   2024 04 23 12:00  16 05 53.27    -14 39 40.4   0.0097 1.0140 150.5  m  15?   3.23 144.4   24  91  34  99
   2024 04 23 12:10  16 05 54.51    -14 40 06.7   0.0097 1.0140 150.5  m  15?   3.15 146.3   26  90  34  99
   2024 04 23 12:20  16 05 55.67    -14 40 32.8   0.0097 1.0140 150.5  m  15?   3.06 148.1   28  88  34  99
   2024 04 23 12:30  16 05 56.73    -14 40 58.8   0.0097 1.0140 150.5  m  15?   2.98 150.1   30  87  34  99
   2024 04 23 12:40  16 05 57.71    -14 41 24.6   0.0097 1.0140 150.5  m  15?   2.91 152.1   32  85  34  99
   2024 04 23 12:50  16 05 58.60    -14 41 50.3   0.0097 1.0140 150.5  m  15?   2.84 154.1   34  84  34  99
   2024 04 23 13:00  16 05 59.41    -14 42 15.7   0.0097 1.0140 150.5  m  15?   2.77 156.1   36  82  34  99
   2024 04 23 13:10  16 06 00.13    -14 42 41.0   0.0097 1.0141 150.6  m  15?   2.70 158.2   38  80  34  99
   2024 04 23 13:20  16 06 00.78    -14 43 06.0   0.0097 1.0141 150.6  m  15?   2.64 160.3   40  79  34  99
   2024 04 23 13:30  16 06 01.35    -14 43 30.8   0.0097 1.0141 150.6  m  15?   2.59 162.4   42  77  34  99
   2024 04 23 13:40  16 06 01.85    -14 43 55.3   0.0097 1.0141 150.6  m  15?   2.53 164.4   44  75  34  99
   2024 04 23 13:50  16 06 02.28    -14 44 19.6   0.0097 1.0141 150.6  m  15?   2.48 166.5   46  73  34  99
   2024 04 23 14:00  16 06 02.64    -14 44 43.6   0.0097 1.0141 150.6  m  15?   2.44 168.5   48  71  34  99
   2024 04 23 14:10  16 06 02.94    -14 45 07.4   0.0097 1.0141 150.6  m  15?   2.39 170.5   50  69  34  99
   2024 04 23 14:20  16 06 03.17    -14 45 30.8   0.0097 1.0141 150.6  m  15?   2.35 172.5   52  66  34  99
   2024 04 23 14:30  16 06 03.35    -14 45 54.0   0.0097 1.0141 150.6  m  15?   2.31 174.3   54  64  33  99
   2024 04 23 14:40  16 06 03.48    -14 46 16.8   0.0097 1.0141 150.6  m  15?   2.27 176.1   56  61  33  99
   2024 04 23 14:50  16 06 03.56    -14 46 39.3   0.0097 1.0141 150.6  m  15?   2.24 177.9   58  58  33  99
   2024 04 23 15:00  16 06 03.59    -14 47 01.5   0.0097 1.0141 150.6  m  15?   2.20 179.5   60  55  33  99
   2024 04 23 15:10  16 06 03.58    -14 47 23.4   0.0097 1.0141 150.6  m  15?   2.17 181.0   61  51  33  99
   2024 04 23 15:20  16 06 03.53    -14 47 44.9   0.0097 1.0141 150.6  m  15?   2.14 182.5   63  47  33  99
   2024 04 23 15:30  16 06 03.44    -14 48 06.1   0.0097 1.0141 150.6  m  15?   2.10 183.8   64  43  33  99
   2024 04 23 15:40  16 06 03.33    -14 48 26.9   0.0097 1.0141 150.6  m  15?   2.07 185.0   66  38  33  99
   2024 04 23 15:50  16 06 03.19    -14 48 47.3   0.0097 1.0141 150.6  m  15?   2.04 186.0   67  33  33  99
   2024 04 23 16:00  16 06 03.03    -14 49 07.5   0.0097 1.0141 150.7  m  15?   2.01 186.9   68  27  33  99
   2024 04 23 16:10  16 06 02.85    -14 49 27.2   0.0097 1.0141 150.7  m  15?   1.97 187.7   69  21  33  99
   2024 04 23 16:20  16 06 02.65    -14 49 46.6   0.0097 1.0141 150.7  m  15?   1.94 188.3   69  14  33  99
   2024 04 23 16:30  16 06 02.45    -14 50 05.6   0.0097 1.0141 150.7  m  15?   1.91 188.8   70   7  33  99
   2024 04 23 16:40  16 06 02.25    -14 50 24.2   0.0097 1.0141 150.7  m  15?   1.87 189.1   70   0  33  99
   2024 04 23 16:50  16 06 02.04    -14 50 42.5   0.0097 1.0141 150.7  t  15?   1.83 189.2   70 353  33  99
   2024 04 23 17:00  16 06 01.84    -14 51 00.4   0.0097 1.0141 150.7  m  15?   1.79 189.1   69 345  33  99
   2024 04 23 17:10  16 06 01.64    -14 51 17.9   0.0097 1.0141 150.7  m  15?   1.76 188.8   69 339  33  99
   2024 04 23 17:20  16 06 01.46    -14 51 35.0   0.0097 1.0141 150.7  m  15?   1.72 188.2   68 332  33  99
   2024 04 23 17:30  16 06 01.30    -14 51 51.8   0.0097 1.0141 150.7  m  15?   1.68 187.5   67 327  33  99
   2024 04 23 17:40  16 06 01.16    -14 52 08.3   0.0097 1.0141 150.7  m  15?   1.64 186.5   66 321  32  99
   2024 04 23 17:50  16 06 01.04    -14 52 24.3   0.0097 1.0141 150.7  m  15?   1.60 185.2   64 316  32  99
   2024 04 23 18:00  16 06 00.95    -14 52 40.0   0.0097 1.0141 150.7  m  15?   1.56 183.7   63 312  32  99
   2024 04 23 18:10  16 06 00.90    -14 52 55.4   0.0097 1.0141 150.7  m  15?   1.52 181.8   61 308  32  99
   2024 04 23 18:20  16 06 00.88    -14 53 10.4   0.0097 1.0141 150.8  m  15?   1.48 179.6   60 304  32  99
   2024 04 23 18:30  16 06 00.91    -14 53 25.1   0.0097 1.0141 150.8  m  15?   1.45 177.1   58 301  32  99
   2024 04 23 18:40  16 06 00.98    -14 53 39.4   0.0097 1.0141 150.8  m  15?   1.43 174.3   56 298  32  99
   2024 04 23 18:50  16 06 01.10    -14 53 53.5   0.0097 1.0141 150.8  m  15?   1.40 171.2   54 295  32  99
   2024 04 23 19:00  16 06 01.27    -14 54 07.2   0.0097 1.0141 150.8  m  15?   1.39 167.7   52 293  32  99
   2024 04 23 19:10  16 06 01.50    -14 54 20.6   0.0097 1.0141 150.8  m  15?   1.38 164.0   51 290  32  99
   2024 04 23 19:20  16 06 01.79    -14 54 33.7   0.0097 1.0141 150.8  m  15?   1.38 160.1   49 288  32  99
   2024 04 23 19:30  16 06 02.14    -14 54 46.5   0.0097 1.0141 150.8  m  15?   1.39 156.1   47 286  32  99
   2024 04 23 19:40  16 06 02.56    -14 54 59.1   0.0097 1.0141 150.8  m  16?   1.41 152.0   45 284  32  99
   2024 04 23 19:50  16 06 03.05    -14 55 11.4   0.0097 1.0141 150.8 Am  16?   1.43 147.8   43 282  32  99
   2024 04 23 20:00  16 06 03.61    -14 55 23.4   0.0097 1.0141 150.8 Am  16?   1.47 143.8   41 280  32  99
   2024 04 23 20:10  16 06 04.24    -14 55 35.2   0.0097 1.0141 150.8 Am  16?   1.52 139.9   39 278  31  99
   2024 04 23 20:20  16 06 04.96    -14 55 46.8   0.0097 1.0141 150.8 Nm  16?   1.58 136.2   37 277  31  99
   2024 04 23 20:30  16 06 05.75    -14 55 58.2   0.0097 1.0141 150.8 Nm  16?   1.65 132.7   34 275  31  99
   2024 04 23 20:40  16 06 06.63    -14 56 09.3   0.0097 1.0141 150.8 Nm  16?   1.73 129.5   32 274  31  99
   2024 04 23 20:50  16 06 07.59    -14 56 20.3   0.0097 1.0142 150.8 Cm  16?   1.82 126.6   30 272  31  99
   2024 04 23 21:00  16 06 08.64    -14 56 31.1   0.0097 1.0142 150.8 Cm  16?   1.91 123.9   28 271  31  99
   2024 04 23 21:10  16 06 09.78    -14 56 41.8   0.0097 1.0142 150.8 Cm  16?   2.01 121.5   26 269  31  99
   ................
   2024 04 24 10:00  16 10 23.73    -15 18 20.7   0.0098 1.0143 150.3  r  16?   4.39 127.1    0 108  24  99
   2024 04 24 10:10  16 10 26.09    -15 18 47.3   0.0098 1.0143 150.3  m  16?   4.28 128.3    2 107  24  99
   2024 04 24 10:20  16 10 28.36    -15 19 14.0   0.0098 1.0143 150.3  m  16?   4.18 129.5    4 105  24  99
   2024 04 24 10:30  16 10 30.54    -15 19 40.7   0.0098 1.0143 150.3  m  16?   4.07 130.8    6 104  24  99
   2024 04 24 10:40  16 10 32.61    -15 20 07.4   0.0098 1.0143 150.3  m  16?   3.97 132.2    8 103  24  99
   2024 04 24 10:50  16 10 34.59    -15 20 34.1   0.0098 1.0143 150.3  m  16?   3.86 133.6   10 101  24  99
   2024 04 24 11:00  16 10 36.47    -15 21 00.8   0.0098 1.0143 150.3  m  16?   3.76 135.0   12 100  24  99
   2024 04 24 11:10  16 10 38.25    -15 21 27.5   0.0098 1.0143 150.3  m  16?   3.66 136.6   14  99  24  99
   2024 04 24 11:20  16 10 39.94    -15 21 54.1   0.0098 1.0143 150.3  m  16?   3.56 138.2   16  97  24  99
   2024 04 24 11:30  16 10 41.53    -15 22 20.6   0.0098 1.0143 150.3  m  16?   3.46 139.8   18  96  24  99
   2024 04 24 11:40  16 10 43.02    -15 22 47.1   0.0098 1.0143 150.3  m  16?   3.37 141.5   20  95  24  99
   2024 04 24 11:50  16 10 44.42    -15 23 13.5   0.0098 1.0143 150.3  m  16?   3.28 143.3   22  93  24  99
   2024 04 24 12:00  16 10 45.72    -15 23 39.8   0.0098 1.0143 150.3  m  16?   3.19 145.1   24  92  24  99
   2024 04 24 12:10  16 10 46.93    -15 24 06.0   0.0098 1.0144 150.3  m  16?   3.11 147.0   26  90  24  99
   2024 04 24 12:20  16 10 48.05    -15 24 32.0   0.0098 1.0144 150.3  m  16?   3.02 148.9   28  89  24  99
   2024 04 24 12:30  16 10 49.08    -15 24 57.8   0.0098 1.0144 150.3  m  15?   2.95 150.9   30  88  24  99
   2024 04 24 12:40  16 10 50.03    -15 25 23.5   0.0098 1.0144 150.3  m  15?   2.87 152.9   32  86  23  99
   2024 04 24 12:50  16 10 50.89    -15 25 49.0   0.0098 1.0144 150.3  m  15?   2.80 154.9   34  85  23  99
   2024 04 24 13:00  16 10 51.66    -15 26 14.3   0.0098 1.0144 150.3  m  15?   2.73 157.0   36  83  23  99
   2024 04 24 13:10  16 10 52.35    -15 26 39.4   0.0098 1.0144 150.3  m  15?   2.67 159.1   39  81  23  99
   2024 04 24 13:20  16 10 52.97    -15 27 04.3   0.0098 1.0144 150.3  m  15?   2.61 161.2   41  80  23  99
   2024 04 24 13:30  16 10 53.51    -15 27 28.9   0.0098 1.0144 150.3  m  15?   2.55 163.3   43  78  23  99
   2024 04 24 13:40  16 10 53.97    -15 27 53.2   0.0098 1.0144 150.3  m  15?   2.50 165.4   45  76  23  99
   2024 04 24 13:50  16 10 54.37    -15 28 17.3   0.0098 1.0144 150.3  m  15?   2.45 167.5   47  74  23  99
   2024 04 24 14:00  16 10 54.70    -15 28 41.2   0.0098 1.0144 150.3  m  15?   2.41 169.6   49  72  23  99
   2024 04 24 14:10  16 10 54.96    -15 29 04.7   0.0098 1.0144 150.4  m  16?   2.36 171.6   51  70  23  99
   2024 04 24 14:20  16 10 55.17    -15 29 27.9   0.0098 1.0144 150.4  m  16?   2.32 173.6   53  68  23  99
   2024 04 24 14:30  16 10 55.31    -15 29 50.8   0.0098 1.0144 150.4  m  16?   2.28 175.5   54  65  23  99
   2024 04 24 14:40  16 10 55.41    -15 30 13.4   0.0098 1.0144 150.4  m  16?   2.24 177.3   56  62  23  99
   2024 04 24 14:50  16 10 55.45    -15 30 35.7   0.0098 1.0144 150.4  m  16?   2.21 179.1   58  59  23  99
   2024 04 24 15:00  16 10 55.45    -15 30 57.6   0.0098 1.0144 150.4  m  16?   2.18 180.8   60  56  23  99
   2024 04 24 15:10  16 10 55.40    -15 31 19.2   0.0098 1.0144 150.4  m  16?   2.14 182.3   62  53  23  99
   2024 04 24 15:20  16 10 55.32    -15 31 40.4   0.0098 1.0144 150.4  m  16?   2.11 183.8   63  49  23  99
   2024 04 24 15:30  16 10 55.20    -15 32 01.3   0.0098 1.0144 150.4  m  16?   2.08 185.2   65  44  23  99
   2024 04 24 15:40  16 10 55.05    -15 32 21.8   0.0098 1.0144 150.4  m  16?   2.04 186.4   66  39  23  99
   2024 04 24 15:50  16 10 54.87    -15 32 41.9   0.0098 1.0144 150.4  m  16?   2.01 187.5   67  34  23  99
   2024 04 24 16:00  16 10 54.68    -15 33 01.6   0.0098 1.0144 150.4  m  16?   1.98 188.5   68  28  23  99
   2024 04 24 16:10  16 10 54.46    -15 33 21.0   0.0098 1.0144 150.4  m  16?   1.95 189.3   69  22  22  99
   2024 04 24 16:20  16 10 54.23    -15 33 40.0   0.0098 1.0144 150.4  m  16?   1.91 190.0   70  15  22  99
   2024 04 24 16:30  16 10 54.00    -15 33 58.6   0.0098 1.0144 150.5  m  16?   1.87 190.5   70   8  22  99
   2024 04 24 16:40  16 10 53.75    -15 34 16.8   0.0098 1.0144 150.5  m  16?   1.84 190.9   71   0  22  99
   2024 04 24 16:50  16 10 53.51    -15 34 34.7   0.0098 1.0144 150.5  t  16?   1.80 191.0   70 353  22  99
   2024 04 24 17:00  16 10 53.27    -15 34 52.1   0.0098 1.0144 150.5  m  16?   1.76 191.0   70 346  22  99
   2024 04 24 17:10  16 10 53.04    -15 35 09.2   0.0098 1.0144 150.5  m  16?   1.72 190.8   70 339  22  99
   2024 04 24 17:20  16 10 52.82    -15 35 25.9   0.0098 1.0144 150.5  m  16?   1.68 190.3   69 332  22  99
   2024 04 24 17:30  16 10 52.62    -15 35 42.2   0.0098 1.0144 150.5  m  16?   1.64 189.7   68 326  22  99
   2024 04 24 17:40  16 10 52.44    -15 35 58.1   0.0098 1.0144 150.5  m  16?   1.59 188.7   66 321  22  99
   2024 04 24 17:50  16 10 52.28    -15 36 13.7   0.0098 1.0144 150.5  m  16?   1.55 187.5   65 316  22  99
   2024 04 24 18:00  16 10 52.15    -15 36 28.8   0.0098 1.0144 150.5  m  16?   1.51 186.0   64 311  22  99
   2024 04 24 18:10  16 10 52.05    -15 36 43.7   0.0098 1.0144 150.5  m  16?   1.47 184.2   62 307  22  99
   2024 04 24 18:20  16 10 52.00    -15 36 58.1   0.0098 1.0144 150.5  m  16?   1.43 182.0   60 304  22  99
   2024 04 24 18:30  16 10 51.98    -15 37 12.2   0.0098 1.0144 150.5  m  16?   1.39 179.5   59 300  22  99
   2024 04 24 18:40  16 10 52.01    -15 37 26.0   0.0098 1.0144 150.5  m  16?   1.36 176.7   57 297  22  99
   2024 04 24 18:50  16 10 52.09    -15 37 39.4   0.0098 1.0144 150.6  m  16?   1.34 173.5   55 294  22  99
   2024 04 24 19:00  16 10 52.21    -15 37 52.6   0.0098 1.0144 150.6  m  16?   1.31 169.9   53 292  22  99
   2024 04 24 19:10  16 10 52.40    -15 38 05.3   0.0098 1.0144 150.6  m  16?   1.30 166.1   51 289  22  99
   2024 04 24 19:20  16 10 52.64    -15 38 17.8   0.0098 1.0144 150.6  m  16?   1.30 161.9   49 287  21  99
   2024 04 24 19:30  16 10 52.95    -15 38 30.0   0.0098 1.0144 150.6  m  16?   1.30 157.7   47 285  21  99
   2024 04 24 19:40  16 10 53.32    -15 38 41.9   0.0098 1.0144 150.6  m  16?   1.31 153.3   45 283  21  99
   2024 04 24 19:50  16 10 53.77    -15 38 53.5   0.0098 1.0145 150.6 Am  16?   1.34 148.8   43 281  21  99
   2024 04 24 20:00  16 10 54.28    -15 39 04.9   0.0098 1.0145 150.6 Am  16?   1.38 144.5   41 279  21  99
   2024 04 24 20:10  16 10 54.87    -15 39 16.0   0.0098 1.0145 150.6 Am  16?   1.42 140.3   39 278  21  99
   2024 04 24 20:20  16 10 55.54    -15 39 26.9   0.0098 1.0145 150.6 Nm  16?   1.48 136.4   37 276  21  99
   2024 04 24 20:30  16 10 56.28    -15 39 37.5   0.0098 1.0145 150.6 Nm  16?   1.55 132.7   35 275  21  99
   2024 04 24 20:40  16 10 57.11    -15 39 48.0   0.0098 1.0145 150.6 Nm  16?   1.63 129.3   33 273  21  99
   2024 04 24 20:50  16 10 58.02    -15 39 58.2   0.0098 1.0145 150.6 Cm  16?   1.71 126.2   31 272  21  99
   2024 04 24 21:00  16 10 59.02    -15 40 08.3   0.0098 1.0145 150.6 Cm  16?   1.81 123.3   29 270  21  99
   2024 04 24 21:10  16 11 00.11    -15 40 18.2   0.0098 1.0145 150.6 Cm  16?   1.91 120.8   27 269  21  99
   ................
   2024 04 25 10:00  16 15 10.01    -16 01 16.8   0.0098 1.0146 150.1  r  16?   4.33 127.5    0 109  14  97
   2024 04 25 10:10  16 15 12.34    -16 01 43.3   0.0098 1.0146 150.1  m  16?   4.22 128.7    2 107  14  97
   2024 04 25 10:20  16 15 14.57    -16 02 09.8   0.0098 1.0146 150.1  m  16?   4.12 130.0    4 106  14  97
   2024 04 25 10:30  16 15 16.71    -16 02 36.3   0.0098 1.0146 150.1  m  16?   4.01 131.3    6 105  14  97
   2024 04 25 10:40  16 15 18.75    -16 03 02.9   0.0098 1.0146 150.1  m  16?   3.91 132.7    8 103  14  97
   2024 04 25 10:50  16 15 20.69    -16 03 29.5   0.0098 1.0146 150.1  m  16?   3.81 134.1   10 102  14  97
   2024 04 25 11:00  16 15 22.53    -16 03 56.1   0.0098 1.0146 150.1  m  16?   3.71 135.6   12 101  14  97
   2024 04 25 11:10  16 15 24.27    -16 04 22.6   0.0098 1.0147 150.1  m  16?   3.61 137.2   14  99  14  97
   2024 04 25 11:20  16 15 25.92    -16 04 49.1   0.0098 1.0147 150.1  m  16?   3.51 138.8   16  98  14  97
   2024 04 25 11:30  16 15 27.47    -16 05 15.5   0.0098 1.0147 150.1  m  16?   3.42 140.4   18  97  14  97
   2024 04 25 11:40  16 15 28.93    -16 05 41.9   0.0098 1.0147 150.1  m  16?   3.32 142.2   20  95  14  97
   2024 04 25 11:50  16 15 30.29    -16 06 08.2   0.0098 1.0147 150.1  m  16?   3.23 144.0   22  94  14  97
   2024 04 25 12:00  16 15 31.56    -16 06 34.3   0.0098 1.0147 150.1  m  16?   3.15 145.8   24  93  14  97
   2024 04 25 12:10  16 15 32.73    -16 07 00.3   0.0098 1.0147 150.1  m  16?   3.06 147.7   26  91  14  97
   2024 04 25 12:20  16 15 33.82    -16 07 26.2   0.0098 1.0147 150.1  m  16?   2.98 149.7   28  90  14  97
   2024 04 25 12:30  16 15 34.81    -16 07 51.9   0.0098 1.0147 150.1  m  16?   2.91 151.7   31  88  14  97
   2024 04 25 12:40  16 15 35.72    -16 08 17.4   0.0098 1.0147 150.1  m  16?   2.83 153.7   33  87  13  97
   2024 04 25 12:50  16 15 36.54    -16 08 42.8   0.0098 1.0147 150.1  m  16?   2.76 155.8   35  85  13  97
   2024 04 25 13:00  16 15 37.28    -16 09 07.9   0.0098 1.0147 150.1  m  16?   2.70 157.9   37  84  13  97
   2024 04 25 13:10  16 15 37.94    -16 09 32.8   0.0098 1.0147 150.1  m  16?   2.64 160.1   39  82  13  97
   2024 04 25 13:20  16 15 38.52    -16 09 57.5   0.0098 1.0147 150.1  m  16?   2.58 162.2   41  81  13  97
   2024 04 25 13:30  16 15 39.02    -16 10 21.9   0.0098 1.0147 150.1  m  16?   2.52 164.4   43  79  13  97
   2024 04 25 13:40  16 15 39.45    -16 10 46.1   0.0098 1.0147 150.1  m  16?   2.47 166.5   45  77  13  97
   2024 04 25 13:50  16 15 39.81    -16 11 10.0   0.0098 1.0147 150.1  m  16?   2.42 168.6   47  75  13  97
   2024 04 25 14:00  16 15 40.11    -16 11 33.6   0.0098 1.0147 150.1  m  16?   2.38 170.7   49  73  13  97
   2024 04 25 14:10  16 15 40.34    -16 11 56.9   0.0098 1.0147 150.2  m  16?   2.33 172.8   51  71  13  97
   2024 04 25 14:20  16 15 40.50    -16 12 19.9   0.0098 1.0147 150.2  m  16?   2.29 174.8   53  69  13  97
   2024 04 25 14:30  16 15 40.61    -16 12 42.6   0.0098 1.0147 150.2  m  16?   2.25 176.8   55  66  13  97
   2024 04 25 14:40  16 15 40.67    -16 13 04.9   0.0098 1.0147 150.2  m  16?   2.22 178.6   57  64  13  97
   2024 04 25 14:50  16 15 40.68    -16 13 26.9   0.0098 1.0147 150.2  m  16?   2.18 180.4   58  61  13  97
   2024 04 25 15:00  16 15 40.64    -16 13 48.5   0.0098 1.0147 150.2  m  16?   2.15 182.2   60  57  13  97
   2024 04 25 15:10  16 15 40.56    -16 14 09.8   0.0098 1.0147 150.2  m  16?   2.12 183.8   62  54  13  97
   2024 04 25 15:20  16 15 40.44    -16 14 30.7   0.0098 1.0147 150.2  m  16?   2.08 185.3   64  50  13  97
   2024 04 25 15:30  16 15 40.28    -16 14 51.3   0.0098 1.0147 150.2  m  16?   2.05 186.7   65  46  13  97
   2024 04 25 15:40  16 15 40.10    -16 15 11.4   0.0098 1.0147 150.2  m  16?   2.02 188.0   67  41  13  97
   2024 04 25 15:50  16 15 39.89    -16 15 31.2   0.0098 1.0147 150.2  m  16?   1.99 189.2   68  35  13  97
   2024 04 25 16:00  16 15 39.65    -16 15 50.6   0.0098 1.0147 150.2  m  16?   1.95 190.2   69  30  13  97
   2024 04 25 16:10  16 15 39.40    -16 16 09.6   0.0098 1.0147 150.2  m  16?   1.92 191.1   70  23  13  97
   2024 04 25 16:20  16 15 39.13    -16 16 28.2   0.0098 1.0147 150.2  m  16?   1.88 191.8   71  16  13  97
   2024 04 25 16:30  16 15 38.86    -16 16 46.5   0.0098 1.0147 150.3  m  16?   1.85 192.4   71   9  13  97
   2024 04 25 16:40  16 15 38.58    -16 17 04.3   0.0098 1.0147 150.3  m  16?   1.81 192.8   71   1  13  97
   2024 04 25 16:50  16 15 38.30    -16 17 21.7   0.0098 1.0147 150.3  t  16?   1.77 193.1   71 353  13  97
   2024 04 25 17:00  16 15 38.02    -16 17 38.7   0.0098 1.0147 150.3  m  16?   1.73 193.1   71 346  12  97
   2024 04 25 17:10  16 15 37.75    -16 17 55.3   0.0098 1.0147 150.3  m  16?   1.69 193.0   70 339  12  97
   2024 04 25 17:20  16 15 37.49    -16 18 11.5   0.0098 1.0147 150.3  m  16?   1.64 192.6   69 332  12  97
   2024 04 25 17:30  16 15 37.24    -16 18 27.3   0.0098 1.0147 150.3  m  16?   1.60 192.0   68 326  12  97
   2024 04 25 17:40  16 15 37.02    -16 18 42.8   0.0098 1.0147 150.3  m  16?   1.55 191.1   67 320  12  97
   2024 04 25 17:50  16 15 36.82    -16 18 57.8   0.0098 1.0147 150.3  m  16?   1.51 190.0   66 315  12  97
   2024 04 25 18:00  16 15 36.65    -16 19 12.5   0.0098 1.0147 150.3  m  16?   1.46 188.6   64 311  12  97
   2024 04 25 18:10  16 15 36.51    -16 19 26.8   0.0098 1.0147 150.3  m  16?   1.42 186.8   63 307  12  97
   2024 04 25 18:20  16 15 36.41    -16 19 40.7   0.0098 1.0147 150.3  m  16?   1.38 184.7   61 303  12  97
   2024 04 25 18:30  16 15 36.35    -16 19 54.2   0.0098 1.0147 150.3  m  16?   1.34 182.2   59 299  12  97
   2024 04 25 18:40  16 15 36.34    -16 20 07.4   0.0098 1.0147 150.3  m  16?   1.30 179.3   57 296  12  96
   2024 04 25 18:50  16 15 36.37    -16 20 20.3   0.0098 1.0148 150.4  m  16?   1.27 176.1   56 294  12  96
   2024 04 25 19:00  16 15 36.45    -16 20 32.8   0.0098 1.0148 150.4  m  16?   1.24 172.4   54 291  12  96
   2024 04 25 19:10  16 15 36.59    -16 20 44.9   0.0098 1.0148 150.4  m  16?   1.23 168.4   52 289  12  96
   2024 04 25 19:20  16 15 36.79    -16 20 56.8   0.0098 1.0148 150.4  m  16?   1.22 164.1   50 286  12  96
   2024 04 25 19:30  16 15 37.05    -16 21 08.3   0.0098 1.0148 150.4  m  16?   1.22 159.5   48 284  12  96
   2024 04 25 19:40  16 15 37.38    -16 21 19.6   0.0098 1.0148 150.4  m  16?   1.23 154.8   46 282  12  96
   2024 04 25 19:50  16 15 37.78    -16 21 30.5   0.0098 1.0148 150.4 Am  16?   1.25 150.0   44 281  12  96
   2024 04 25 20:00  16 15 38.24    -16 21 41.2   0.0098 1.0148 150.4 Am  16?   1.28 145.4   42 279  12  96
   2024 04 25 20:10  16 15 38.78    -16 21 51.7   0.0098 1.0148 150.4 Am  16?   1.33 140.9   40 277  12  96
   2024 04 25 20:20  16 15 39.40    -16 22 01.8   0.0098 1.0148 150.4 Nm  16?   1.38 136.6   38 275  12  96
   2024 04 25 20:30  16 15 40.10    -16 22 11.8   0.0099 1.0148 150.4 Nm  16?   1.45 132.7   36 274  11  96
   2024 04 25 20:40  16 15 40.88    -16 22 21.5   0.0099 1.0148 150.4 Nm  16?   1.52 129.0   34 272  11  96
   2024 04 25 20:50  16 15 41.74    -16 22 31.1   0.0099 1.0148 150.4 Cm  16?   1.61 125.7   31 271  11  96
   2024 04 25 21:00  16 15 42.69    -16 22 40.4   0.0099 1.0148 150.4 Cm  16?   1.70 122.8   29 269  11  96
   2024 04 25 21:10  16 15 43.73    -16 22 49.6   0.0099 1.0148 150.4 Cm  16?   1.80 120.1   27 268  11  96
   ................
   2024 04 26 10:00  16 19 49.53    -16 43 08.2   0.0099 1.0149 149.9  r  16?   4.26 127.9    0 109   8  93
   2024 04 26 10:10  16 19 51.82    -16 43 34.5   0.0099 1.0150 149.9  m  16?   4.16 129.2    2 108   8  93
   2024 04 26 10:20  16 19 54.01    -16 44 00.8   0.0099 1.0150 149.9  m  16?   4.05 130.5    4 107   8  93
   2024 04 26 10:30  16 19 56.10    -16 44 27.2   0.0099 1.0150 149.9  m  16?   3.95 131.8    6 105   8  93
   2024 04 26 10:40  16 19 58.10    -16 44 53.7   0.0099 1.0150 149.9  m  16?   3.85 133.2    8 104   8  93
   2024 04 26 10:50  16 20 00.00    -16 45 20.1   0.0099 1.0150 149.9  m  16?   3.75 134.7   10 103   8  93
   2024 04 26 11:00  16 20 01.80    -16 45 46.6   0.0099 1.0150 149.9  m  16?   3.65 136.2   12 101   8  93
   2024 04 26 11:10  16 20 03.50    -16 46 13.0   0.0099 1.0150 149.9  m  16?   3.55 137.8   14 100   8  93
   2024 04 26 11:20  16 20 05.11    -16 46 39.3   0.0099 1.0150 149.9  m  16?   3.46 139.4   16  99   8  93
   2024 04 26 11:30  16 20 06.62    -16 47 05.6   0.0099 1.0150 149.9  m  16?   3.36 141.1   18  97   8  93
   2024 04 26 11:40  16 20 08.04    -16 47 31.8   0.0099 1.0150 149.9  m  16?   3.27 142.9   20  96   8  93
   2024 04 26 11:50  16 20 09.36    -16 47 58.0   0.0099 1.0150 149.9  m  16?   3.18 144.7   22  95   8  93
   2024 04 26 12:00  16 20 10.59    -16 48 24.0   0.0099 1.0150 149.9  m  16?   3.10 146.6   25  93   8  93
   2024 04 26 12:10  16 20 11.73    -16 48 49.8   0.0099 1.0150 149.9  m  16?   3.02 148.6   27  92   8  93
   2024 04 26 12:20  16 20 12.77    -16 49 15.5   0.0099 1.0150 149.9  m  16?   2.94 150.6   29  91   8  93
   2024 04 26 12:30  16 20 13.73    -16 49 41.1   0.0099 1.0150 149.9  m  16?   2.86 152.6   31  89   8  93
   2024 04 26 12:40  16 20 14.60    -16 50 06.5   0.0099 1.0150 149.9  m  16?   2.79 154.7   33  88   8  93
   2024 04 26 12:50  16 20 15.38    -16 50 31.6   0.0099 1.0150 149.9  m  16?   2.72 156.8   35  86   8  93
   2024 04 26 13:00  16 20 16.08    -16 50 56.6   0.0099 1.0150 149.9  m  16?   2.66 158.9   37  85   8  93
   2024 04 26 13:10  16 20 16.70    -16 51 21.3   0.0099 1.0150 150.0  m  16?   2.60 161.1   39  83   8  93
   2024 04 26 13:20  16 20 17.24    -16 51 45.8   0.0099 1.0150 150.0  m  16?   2.54 163.3   41  82   8  93
   2024 04 26 13:30  16 20 17.71    -16 52 10.1   0.0099 1.0150 150.0  m  16?   2.49 165.5   43  80   8  93
   2024 04 26 13:40  16 20 18.10    -16 52 34.0   0.0099 1.0150 150.0  m  16?   2.44 167.7   45  78   8  93
   2024 04 26 13:50  16 20 18.42    -16 52 57.7   0.0099 1.0150 150.0  m  16?   2.39 169.8   47  76   8  93
   2024 04 26 14:00  16 20 18.68    -16 53 21.1   0.0099 1.0150 150.0  m  16?   2.34 172.0   49  74   8  93
   2024 04 26 14:10  16 20 18.87    -16 53 44.1   0.0099 1.0150 150.0  m  16?   2.30 174.1   51  72   8  93
   2024 04 26 14:20  16 20 19.00    -16 54 06.9   0.0099 1.0150 150.0  m  16?   2.26 176.1   53  70   8  93
   2024 04 26 14:30  16 20 19.07    -16 54 29.3   0.0099 1.0150 150.0  m  16?   2.23 178.1   55  67   8  93
   2024 04 26 14:40  16 20 19.09    -16 54 51.4   0.0099 1.0150 150.0  m  16?   2.19 180.1   57  65   8  93
   2024 04 26 14:50  16 20 19.06    -16 55 13.1   0.0099 1.0150 150.0  m  16?   2.16 181.9   59  62   8  93
   2024 04 26 15:00  16 20 18.99    -16 55 34.5   0.0099 1.0150 150.0  m  16?   2.12 183.7   61  59   8  93
   2024 04 26 15:10  16 20 18.87    -16 55 55.4   0.0099 1.0150 150.0  m  16?   2.09 185.3   62  55   8  92
   2024 04 26 15:20  16 20 18.71    -16 56 16.0   0.0099 1.0150 150.0  m  16?   2.06 186.9   64  51   8  92
   2024 04 26 15:30  16 20 18.51    -16 56 36.3   0.0099 1.0150 150.0  m  16?   2.03 188.4   66  47   8  92
   2024 04 26 15:40  16 20 18.29    -16 56 56.1   0.0099 1.0150 150.0  m  16?   1.99 189.7   67  42   8  92
   2024 04 26 15:50  16 20 18.04    -16 57 15.5   0.0099 1.0150 150.1  m  16?   1.96 190.9   68  37   8  92
   2024 04 26 16:00  16 20 17.76    -16 57 34.6   0.0099 1.0150 150.1  m  16?   1.93 192.0   70  31   8  92
   2024 04 26 16:10  16 20 17.47    -16 57 53.2   0.0099 1.0150 150.1  m  16?   1.89 193.0   71  24   8  92
   2024 04 26 16:20  16 20 17.16    -16 58 11.4   0.0099 1.0150 150.1  m  16?   1.86 193.8   71  17   8  92
   2024 04 26 16:30  16 20 16.85    -16 58 29.2   0.0099 1.0150 150.1  m  16?   1.82 194.4   72  10   8  92
   2024 04 26 16:40  16 20 16.53    -16 58 46.6   0.0099 1.0150 150.1  m  16?   1.78 194.9   72   2   8  92
   2024 04 26 16:50  16 20 16.20    -16 59 03.6   0.0099 1.0150 150.1  t  16?   1.74 195.2   72 354   8  92
   2024 04 26 17:00  16 20 15.88    -16 59 20.2   0.0099 1.0150 150.1  m  16?   1.70 195.4   72 346   8  92
   2024 04 26 17:10  16 20 15.57    -16 59 36.4   0.0099 1.0150 150.1  m  16?   1.66 195.3   71 338   9  92
   2024 04 26 17:20  16 20 15.27    -16 59 52.1   0.0099 1.0150 150.1  m  16?   1.61 195.0   70 332   9  92
   2024 04 26 17:30  16 20 14.98    -17 00 07.4   0.0099 1.0150 150.1  m  16?   1.57 194.5   69 325   9  92
   2024 04 26 17:40  16 20 14.72    -17 00 22.4   0.0099 1.0150 150.1  m  16?   1.52 193.7   68 320   9  92
   2024 04 26 17:50  16 20 14.47    -17 00 36.9   0.0099 1.0151 150.1  m  16?   1.47 192.7   66 314   9  92
   2024 04 26 18:00  16 20 14.26    -17 00 51.1   0.0099 1.0151 150.2  m  16?   1.42 191.3   65 310   9  92
   2024 04 26 18:10  16 20 14.08    -17 01 04.8   0.0099 1.0151 150.2  m  16?   1.38 189.7   63 306   9  92
   2024 04 26 18:20  16 20 13.93    -17 01 18.2   0.0099 1.0151 150.2  m  16?   1.33 187.6   62 302   9  92
   2024 04 26 18:30  16 20 13.83    -17 01 31.2   0.0099 1.0151 150.2  m  16?   1.29 185.2   60 299   9  92
   2024 04 26 18:40  16 20 13.77    -17 01 43.8   0.0099 1.0151 150.2  m  16?   1.24 182.3   58 296   9  92
   2024 04 26 18:50  16 20 13.76    -17 01 56.0   0.0099 1.0151 150.2  m  16?   1.21 179.0   56 293   9  92
   2024 04 26 19:00  16 20 13.79    -17 02 08.0   0.0099 1.0151 150.2  m  16?   1.18 175.3   54 290   9  92
   2024 04 26 19:10  16 20 13.89    -17 02 19.5   0.0099 1.0151 150.2  m  16?   1.15 171.1   52 288   9  92
   2024 04 26 19:20  16 20 14.04    -17 02 30.8   0.0099 1.0151 150.2  m  16?   1.14 166.5   50 286   9  92
   2024 04 26 19:30  16 20 14.25    -17 02 41.7   0.0099 1.0151 150.2  m  16?   1.13 161.7   48 284   9  92
   2024 04 26 19:40  16 20 14.53    -17 02 52.3   0.0099 1.0151 150.2  m  16?   1.14 156.6   46 282   9  92
   2024 04 26 19:50  16 20 14.88    -17 03 02.6   0.0099 1.0151 150.2 Am  16?   1.15 151.5   44 280   9  92
   2024 04 26 20:00  16 20 15.30    -17 03 12.6   0.0099 1.0151 150.2 Am  16?   1.18 146.5   42 278   9  92
   2024 04 26 20:10  16 20 15.79    -17 03 22.4   0.0099 1.0151 150.2 Am  16?   1.23 141.6   40 276   9  92
   2024 04 26 20:20  16 20 16.36    -17 03 31.9   0.0099 1.0151 150.2 Nm  16?   1.28 137.0   38 275   9  92
   2024 04 26 20:30  16 20 17.00    -17 03 41.2   0.0099 1.0151 150.2 Nm  16?   1.34 132.7   36 273   9  92
   2024 04 26 20:40  16 20 17.73    -17 03 50.2   0.0099 1.0151 150.2 Nm  16?   1.42 128.8   34 272   9  92
   2024 04 26 20:50  16 20 18.54    -17 03 59.0   0.0099 1.0151 150.2 Cm  16?   1.50 125.3   32 270   9  92
   2024 04 26 21:00  16 20 19.44    -17 04 07.7   0.0099 1.0151 150.2 Cm  16?   1.60 122.2   30 269   9  92
   2024 04 26 21:10  16 20 20.43    -17 04 16.1   0.0099 1.0151 150.3 Cm  16?   1.70 119.4   28 267   9  92
   ................
   2024 04 27 10:00  16 24 22.06    -17 23 55.2   0.0100 1.0153 149.8  m  16?   4.19 128.4    1 110  13  88
   2024 04 27 10:10  16 24 24.30    -17 24 21.4   0.0100 1.0153 149.8  m  16?   4.09 129.7    3 109  13  88
   2024 04 27 10:20  16 24 26.45    -17 24 47.6   0.0100 1.0153 149.8  m  16?   3.99 131.0    5 107  13  88
   2024 04 27 10:30  16 24 28.50    -17 25 13.8   0.0100 1.0153 149.8  m  16?   3.89 132.4    7 106  13  87
   2024 04 27 10:40  16 24 30.45    -17 25 40.1   0.0100 1.0153 149.8  m  16?   3.79 133.8    9 105  13  87
   2024 04 27 10:50  16 24 32.30    -17 26 06.4   0.0100 1.0153 149.8  m  16?   3.69 135.3   11 103  13  87
   2024 04 27 11:00  16 24 34.06    -17 26 32.7   0.0100 1.0153 149.8  m  16?   3.59 136.9   13 102  13  87
   2024 04 27 11:10  16 24 35.72    -17 26 59.0   0.0100 1.0153 149.8  m  16?   3.49 138.5   15 101  13  87
   2024 04 27 11:20  16 24 37.29    -17 27 25.2   0.0100 1.0153 149.8  m  16?   3.40 140.2   17  99  13  87
   2024 04 27 11:30  16 24 38.76    -17 27 51.3   0.0100 1.0153 149.8  m  16?   3.31 141.9   19  98  13  87
   2024 04 27 11:40  16 24 40.13    -17 28 17.4   0.0100 1.0153 149.8  m  16?   3.22 143.7   21  97  13  87
   2024 04 27 11:50  16 24 41.41    -17 28 43.3   0.0100 1.0153 149.8  m  16?   3.13 145.6   23  95  14  87
   2024 04 27 12:00  16 24 42.60    -17 29 09.2   0.0100 1.0153 149.8  m  16?   3.05 147.5   25  94  14  87
   2024 04 27 12:10  16 24 43.69    -17 29 34.9   0.0100 1.0153 149.8  m  16?   2.97 149.5   27  93  14  87
   2024 04 27 12:20  16 24 44.70    -17 30 00.5   0.0100 1.0153 149.8  m  16?   2.89 151.5   29  91  14  87
   2024 04 27 12:30  16 24 45.61    -17 30 25.8   0.0100 1.0153 149.8  m  16?   2.82 153.6   31  90  14  87
   2024 04 27 12:40  16 24 46.44    -17 30 51.0   0.0100 1.0153 149.8  m  16?   2.75 155.7   33  89  14  87
   2024 04 27 12:50  16 24 47.18    -17 31 16.0   0.0100 1.0153 149.8  m  16?   2.68 157.9   35  87  14  87
   2024 04 27 13:00  16 24 47.84    -17 31 40.8   0.0100 1.0153 149.8  m  16?   2.62 160.1   37  86  14  87
   2024 04 27 13:10  16 24 48.42    -17 32 05.4   0.0100 1.0153 149.8  m  16?   2.56 162.3   39  84  14  87
   2024 04 27 13:20  16 24 48.92    -17 32 29.6   0.0100 1.0153 149.8  m  16?   2.50 164.5   41  82  14  87
   2024 04 27 13:30  16 24 49.35    -17 32 53.7   0.0100 1.0153 149.8  m  16?   2.45 166.8   43  81  14  87
   2024 04 27 13:40  16 24 49.70    -17 33 17.4   0.0100 1.0153 149.8  m  16?   2.40 169.0   45  79  14  87
   2024 04 27 13:50  16 24 49.98    -17 33 40.9   0.0100 1.0153 149.8  m  16?   2.36 171.2   47  77  14  87
   2024 04 27 14:00  16 24 50.19    -17 34 04.0   0.0100 1.0153 149.8  m  16?   2.31 173.4   49  75  14  87
   2024 04 27 14:10  16 24 50.34    -17 34 26.9   0.0100 1.0153 149.8  m  16?   2.27 175.5   51  73  14  86
   2024 04 27 14:20  16 24 50.43    -17 34 49.4   0.0100 1.0153 149.8  m  16?   2.23 177.6   53  71  15  86
   2024 04 27 14:30  16 24 50.47    -17 35 11.5   0.0100 1.0153 149.9  m  16?   2.20 179.7   55  69  15  86
   2024 04 27 14:40  16 24 50.44    -17 35 33.3   0.0100 1.0153 149.9  m  16?   2.16 181.6   57  66  15  86
   2024 04 27 14:50  16 24 50.37    -17 35 54.8   0.0100 1.0153 149.9  m  16?   2.13 183.5   59  63  15  86
   2024 04 27 15:00  16 24 50.25    -17 36 15.8   0.0100 1.0153 149.9  m  16?   2.10 185.3   61  60  15  86
   2024 04 27 15:10  16 24 50.09    -17 36 36.5   0.0100 1.0153 149.9  m  16?   2.07 187.0   63  56  15  86
   2024 04 27 15:20  16 24 49.89    -17 36 56.8   0.0100 1.0153 149.9  m  16?   2.03 188.7   64  53  15  86
   2024 04 27 15:30  16 24 49.66    -17 37 16.7   0.0100 1.0153 149.9  m  16?   2.00 190.2   66  48  15  86
   2024 04 27 15:40  16 24 49.39    -17 37 36.2   0.0100 1.0153 149.9  m  16?   1.97 191.6   67  44  15  86
   2024 04 27 15:50  16 24 49.10    -17 37 55.3   0.0100 1.0153 149.9  m  16?   1.94 192.8   69  38  15  86
   2024 04 27 16:00  16 24 48.78    -17 38 14.0   0.0100 1.0153 149.9  m  16?   1.90 194.0   70  32  15  86
   2024 04 27 16:10  16 24 48.44    -17 38 32.2   0.0100 1.0153 149.9  m  16?   1.87 195.0   71  25  15  86
   2024 04 27 16:20  16 24 48.10    -17 38 50.1   0.0100 1.0153 149.9  m  16?   1.83 195.9   72  18  15  86
   2024 04 27 16:30  16 24 47.74    -17 39 07.5   0.0100 1.0153 149.9  m  16?   1.80 196.6   72  10  15  86
   2024 04 27 16:40  16 24 47.37    -17 39 24.4   0.0100 1.0153 149.9  m  16?   1.76 197.2   73   2  15  86
   2024 04 27 16:50  16 24 47.00    -17 39 41.0   0.0100 1.0154 150.0  t  16?   1.72 197.6   73 354  15  86
   2024 04 27 17:00  16 24 46.64    -17 39 57.1   0.0100 1.0154 150.0  m  16?   1.67 197.8   72 346  15  86
   2024 04 27 17:10  16 24 46.28    -17 40 12.9   0.0100 1.0154 150.0  m  16?   1.63 197.8   72 338  16  86
   2024 04 27 17:20  16 24 45.94    -17 40 28.1   0.0100 1.0154 150.0  m  16?   1.58 197.6   71 331  16  86
   2024 04 27 17:30  16 24 45.61    -17 40 43.0   0.0100 1.0154 150.0  m  16?   1.54 197.2   70 325  16  86
   2024 04 27 17:40  16 24 45.30    -17 40 57.5   0.0100 1.0154 150.0  m  16?   1.49 196.6   68 319  16  86
   2024 04 27 17:50  16 24 45.01    -17 41 11.5   0.0100 1.0154 150.0  m  16?   1.44 195.6   67 314  16  86
   2024 04 27 18:00  16 24 44.75    -17 41 25.1   0.0100 1.0154 150.0  m  16?   1.39 194.4   65 309  16  86
   2024 04 27 18:10  16 24 44.52    -17 41 38.3   0.0100 1.0154 150.0  m  16?   1.34 192.8   64 305  16  86
   2024 04 27 18:20  16 24 44.33    -17 41 51.2   0.0100 1.0154 150.0  m  16?   1.29 190.8   62 301  16  86
   2024 04 27 18:30  16 24 44.18    -17 42 03.6   0.0100 1.0154 150.0  m  16?   1.24 188.5   60 298  16  86
   2024 04 27 18:40  16 24 44.07    -17 42 15.7   0.0100 1.0154 150.0  m  16?   1.19 185.7   59 295  16  86
   2024 04 27 18:50  16 24 44.01    -17 42 27.3   0.0100 1.0154 150.0  m  16?   1.15 182.4   57 292  16  86
   2024 04 27 19:00  16 24 44.00    -17 42 38.7   0.0100 1.0154 150.1  m  16?   1.11 178.5   55 289  16  86
   2024 04 27 19:10  16 24 44.05    -17 42 49.6   0.0100 1.0154 150.1  m  16?   1.08 174.3   53 287  16  86
   2024 04 27 19:20  16 24 44.15    -17 43 00.3   0.0100 1.0154 150.1  m  16?   1.06 169.5   51 285  16  85
   2024 04 27 19:30  16 24 44.31    -17 43 10.6   0.0100 1.0154 150.1  m  16?   1.05 164.3   49 283  16  85
   2024 04 27 19:40  16 24 44.54    -17 43 20.5   0.0100 1.0154 150.1  m  16?   1.05 158.9   47 281  16  85
   2024 04 27 19:50  16 24 44.84    -17 43 30.2   0.0100 1.0154 150.1  m  16?   1.06 153.4   45 279  16  85
   2024 04 27 20:00  16 24 45.21    -17 43 39.6   0.0100 1.0154 150.1 Am  16?   1.09 147.8   43 277  16  85
   2024 04 27 20:10  16 24 45.65    -17 43 48.7   0.0100 1.0154 150.1 Am  16?   1.13 142.5   41 276  16  85
   2024 04 27 20:20  16 24 46.17    -17 43 57.5   0.0100 1.0154 150.1 Nm  16?   1.18 137.5   39 274  16  85
   2024 04 27 20:30  16 24 46.76    -17 44 06.1   0.0100 1.0154 150.1 Nm  16?   1.24 132.8   37 273  16  85
   2024 04 27 20:40  16 24 47.44    -17 44 14.5   0.0100 1.0154 150.1 Nm  16?   1.32 128.6   34 271  17  85
   2024 04 27 20:50  16 24 48.20    -17 44 22.6   0.0100 1.0154 150.1 Cm  16?   1.40 124.9   32 270  17  85
   2024 04 27 21:00  16 24 49.04    -17 44 30.6   0.0100 1.0154 150.1 Cm  16?   1.49 121.5   30 268  17  85
   2024 04 27 21:10  16 24 49.98    -17 44 38.3   0.0100 1.0154 150.1 Cm  16?   1.59 118.6   28 267  17  85
   ................
   

INTEGRAL (JPL-ID: -198)

   Date (UTC) HH:MM   RA              Dec         delta   r     elong SM  mag  '/hr    PA   alt  az moo ill
   ---- -- -- -----  -------------   -----------  ------ ------ ----- --  --- ------ ------ --- --- --- ---
   2024 04 16 11:50  13 44 01.78    +46 32 32.9    72342 1.0040 123.1  r  17? 157.62 191.7    0  28  64  56
   2024 04 16 12:00  13 43 29.30    +46 06 13.0    70892 1.0040 123.6  m  17? 165.41 192.0    1  27  64  56
   2024 04 16 12:10  13 42 54.51    +45 38 36.2    69422 1.0040 124.0  m  17? 173.79 192.4    2  26  64  56
   2024 04 16 12:20  13 42 17.39    +45 09 36.4    67934 1.0040 124.5  m  17? 182.80 192.6    3  24  64  56
   2024 04 16 12:30  13 41 37.94    +44 39 07.2    66426 1.0040 125.0  m  17? 192.49 192.9    5  23  64  56
   2024 04 16 12:40  13 40 56.14    +44 07 01.2    64899 1.0040 125.5  m  17? 202.95 193.0    6  21  64  56
   2024 04 16 12:50  13 40 11.98    +43 33 10.6    63350 1.0040 126.1  m  17? 214.24 193.2    7  20  64  56
   2024 04 16 13:00  13 39 25.43    +42 57 26.3    61781 1.0040 126.7  m  17? 226.48 193.2    9  18  64  56
   2024 04 16 13:10  13 38 36.47    +42 19 38.5    60189 1.0040 127.3  m  17? 239.76 193.3   10  16  64  56
   2024 04 16 13:20  13 37 45.06    +41 39 36.0    58575 1.0040 128.0  m  17? 254.21 193.3   11  15  64  56
   2024 04 16 13:30  13 36 51.14    +40 57 06.3    56937 1.0040 128.7  m  17? 270.00 193.3   12  13  64  56
   2024 04 16 13:40  13 35 54.64    +40 11 55.3    55274 1.0040 129.4  m  16? 287.31 193.2   14  11  64  56
   2024 04 16 13:50  13 34 55.46    +39 23 46.6    53586 1.0040 130.2  m  16? 306.35 193.1   15   9  63  57
   2024 04 16 14:00  13 33 53.50    +38 32 21.7    51870 1.0039 131.1  m  16? 327.41 193.0   16   7  63  57
   2024 04 16 14:10  13 32 48.59    +37 37 19.0    50126 1.0039 132.0  m  16? 350.79 192.9   17   5  63  57
   2024 04 16 14:20  13 31 40.53    +36 38 13.6    48352 1.0039 133.0  m  16? 376.91 192.7   18   2  63  57
   2024 04 16 14:30  13 30 29.07    +35 34 35.9    46547 1.0039 134.0  m  16? 406.26 192.6   20   0  63  57
   2024 04 16 14:40  13 29 13.87    +34 25 51.0    44709 1.0039 135.1  t  16? 439.48 192.4   21 358  63  57
   2024 04 16 14:50  13 27 54.49    +33 11 17.1    42835 1.0039 136.4     16? 477.35 192.3   22 355  63  57
   2024 04 16 15:00  13 26 30.38    +31 50 03.6    40924 1.0039 137.7     16? 520.91 192.1   23 352  63  57
   2024 04 16 15:10  13 25 00.79    +30 21 08.2    38972 1.0039 139.1     16? 571.50 192.0   24 349  63  57
   2024 04 16 15:20  13 23 24.73    +28 43 13.9    36979 1.0039 140.7     16? 630.91 191.9   25 346  63  57
   2024 04 16 15:30  13 21 40.87    +26 54 43.3    34939 1.0039 142.5     16? 701.56 191.8   26 343  63  57
   2024 04 16 15:40  13 19 47.37    +24 53 31.3    32851 1.0039 144.4     16? 786.82 191.8   27 339  63  57
   2024 04 16 15:50  13 17 41.69    +22 36 54.5    30711 1.0039 146.6     16? 891.44 191.8   29 336  63  57
   2024 04 16 16:00  13 15 20.15    +20 01 13.5    28515 1.0039 149.0     16? 1022.4 191.9   30 331  63  57
   2024 04 16 16:10  13 12 37.33    +17 01 27.6    26260 1.0039 151.8     15? 1190.2 192.1   31 327  64  57
   2024 04 16 16:20  13 09 24.86    +13 30 30.7    23945 1.0039 155.0     15? 1411.2 192.5   33 321  64  58
   2024 04 16 16:30  13 05 29.24    +09 17 58.5    21569 1.0039 158.6     15? 1712.3 193.1   34 315  64  58
   2024 04 16 16:40  13 00 27.23    +04 08 00.1    19137 1.0039 162.5     15? 2139.1 194.0   36 307  65  58
   2024 04 16 16:50  12 53 35.48    -02 24 34.9    16665 1.0039 166.0     15? 2773.0 195.3   38 298  66  58
   2024 04 16 17:00  12 43 23.58    -11 01 12.8    14194 1.0038 166.1     15? 3762.9 197.4   39 285  68  58
   2024 04 16 17:10  12 26 10.74    -22 49 47.1    11823 1.0038 158.4  e  14? 5365.7 201.0   40 268  71  58
   2024 04 16 17:20  11 50 32.13    -39 19 37.4     9782 1.0038 142.1     13? 7849.7 208.7   37 243  76  58
   2024 04 16 17:30  10 07 12.85    -59 16 17.0     8544 1.0038 117.1     12?  10561 232.9   26 214  84  58
   2024 04 16 17:40  05 45 21.33    -62 37 08.0     8696 1.0038  86.7     11?  10869 296.9    8 187  92  58
   ................
   2024 04 19 09:00  14 58 00.05    -17 25 08.4    15437 1.0045 162.3 Nr  15? 4083.7 153.2    0 111  68  81
   2024 04 19 09:10  15 27 59.68    -29 17 29.4    12739 1.0045 150.8 Am  14? 5937.1 146.2    3 123  78  81
   2024 04 19 09:20  16 34 28.93    -44 33 56.5    10514 1.0045 131.5 Ae  13? 8704.4 130.9    5 142  95  82
   2024 04 19 09:30  19 17 45.65    -55 38 28.1     9400 1.0045 103.7 Am  12?  11069  92.7    1 168 120  82
   ................
   2024 04 24 11:20  13 43 10.59    +46 35 04.1    72106 1.0061 120.1  r  17? 159.83 191.9    0  28  63  99
   2024 04 24 11:30  13 42 37.16    +46 08 23.5    70654 1.0061 120.5  m  17? 167.76 192.2    1  27  63  99
   2024 04 24 11:40  13 42 01.40    +45 40 24.6    69183 1.0061 121.0  m  17? 176.28 192.6    2  25  63  99
   2024 04 24 11:50  13 41 23.32    +45 11 01.4    67693 1.0061 121.4  m  17? 185.44 192.8    4  24  62  99
   2024 04 24 12:00  13 40 42.89    +44 40 07.1    66184 1.0061 121.9  m  17? 195.30 193.0    5  22  62  99
   2024 04 24 12:10  13 40 00.11    +44 07 34.4    64655 1.0061 122.4  m  17? 205.93 193.2    6  21  61  99
   2024 04 24 12:20  13 39 14.96    +43 33 15.1    63105 1.0061 123.0  m  17? 217.43 193.3    8  19  61  99
   2024 04 24 12:30  13 38 27.42    +42 57 00.2    61534 1.0061 123.6  m  17? 229.88 193.3    9  18  60  99
   2024 04 24 12:40  13 37 37.46    +42 18 39.4    59941 1.0061 124.2  m  17? 243.39 193.4   10  16  60  99
   2024 04 24 12:50  13 36 45.03    +41 38 01.5    58324 1.0061 124.8  m  16? 258.12 193.4   11  14  59  99
   2024 04 24 13:00  13 35 50.07    +40 54 53.6    56685 1.0061 125.5  m  16? 274.20 193.3   13  12  59  99
   2024 04 24 13:10  13 34 52.52    +40 09 01.2    55020 1.0061 126.2  m  16? 291.84 193.3   14  10  58  99
   2024 04 24 13:20  13 33 52.28    +39 20 07.6    53329 1.0061 127.0  m  16? 311.26 193.2   15   8  57  99
   2024 04 24 13:30  13 32 49.22    +38 27 53.8    51612 1.0061 127.8  m  16? 332.74 193.1   16   6  57  99
   2024 04 24 13:40  13 31 43.19    +37 31 57.7    49866 1.0061 128.6  m  16? 356.61 192.9   17   4  56  99
   2024 04 24 13:50  13 30 33.96    +36 31 53.6    48090 1.0061 129.6  m  16? 383.30 192.8   19   2  55  99
   2024 04 24 14:00  13 29 21.28    +35 27 11.2    46282 1.0061 130.6  t  16? 413.31 192.6   20 359  54  99
   2024 04 24 14:10  13 28 04.79    +34 17 14.4    44441 1.0061 131.6  m  16? 447.30 192.5   21 357  53  99
   2024 04 24 14:20  13 26 44.05    +33 01 20.3    42565 1.0061 132.8  m  16? 486.10 192.3   22 354  52  99
   2024 04 24 14:30  13 25 18.46    +31 38 36.5    40651 1.0061 134.0  m  16? 530.77 192.2   23 352  51  99
   2024 04 24 14:40  13 23 47.24    +30 07 58.8    38697 1.0061 135.4  m  16? 582.72 192.0   24 349  50  99
   2024 04 24 14:50  13 22 09.36    +28 28 07.4    36701 1.0061 136.9  m  16? 643.80 191.9   25 345  48  99
   2024 04 24 15:00  13 20 23.42    +26 37 21.3    34658 1.0061 138.5  m  16? 716.55 191.8   26 342  47  99
   2024 04 24 15:10  13 18 27.50    +24 33 30.7    32567 1.0061 140.4  m  16? 804.49 191.8   27 339  45  99
   2024 04 24 15:20  13 16 18.91    +22 13 45.1    30424 1.0061 142.4  m  16? 912.63 191.9   29 335  44  99
   2024 04 24 15:30  13 13 53.78    +19 34 16.0    28226 1.0061 144.6  m  15? 1048.3 192.0   30 330  42  99
   2024 04 24 15:40  13 11 06.34    +16 29 48.6    25969 1.0060 147.1  m  15? 1222.6 192.2   31 326  39  99
   2024 04 24 15:50  13 07 47.68    +12 52 55.8    23653 1.0060 149.9  m  15? 1452.8 192.6   33 320  37  99
   2024 04 24 16:00  13 03 43.33    +08 32 41.1    21277 1.0060 152.9  m  15? 1767.5 193.2   34 314  34  99
   2024 04 24 16:10  12 58 28.19    +03 12 21.2    18848 1.0060 156.0  m  15? 2215.2 194.1   36 306  31  99
   2024 04 24 16:20  12 51 14.93    -03 34 38.7    16385 1.0060 158.4  m  15? 2882.4 195.5   38 296  29  99
   2024 04 24 16:30  12 40 23.49    -12 31 55.8    13935 1.0060 158.2  m  14? 3925.6 197.8   39 283  28  99
   2024 04 24 16:40  12 21 44.51    -24 49 37.9    11607 1.0060 152.0  e  14? 5604.6 201.7   40 264  32  99
   2024 04 24 16:50  11 42 01.11    -41 51 07.2     9655 1.0060 136.9  m  13? 8131.6 210.4   36 239  44  99
   2024 04 24 17:00  09 43 06.90    -61 15 21.4     8569 1.0059 112.5  m  12?  10632 238.5   24 211  66  99
   2024 04 24 17:10  05 21 19.13    -61 05 51.8     8894 1.0059  83.2  m  12?  10555 302.6    5 184  94  99
   ................
   2024 04 27 08:30  15 01 45.17    -19 23 20.0    14889 1.0067 168.5 Nr  15? 4383.5 152.3    0 113  28  88
   2024 04 27 08:40  15 36 04.26    -32 00 17.1    12253 1.0067 154.8 N   14? 6414.4 144.3    4 126  19  88
   2024 04 27 08:50  16 55 26.27    -47 37 08.6    10192 1.0066 133.3 Ne  13? 9282.9 126.0    5 147  21  88
   2024 04 27 09:00  19 59 12.79    -55 31 28.4     9386 1.0066 104.3 A   12?  11171  82.8    0 174  43  88
   ................
   

Spektr-R Observatory (JPL-ID: -557)

   Date (UTC) HH:MM   RA              Dec         delta   r     elong SM  mag  '/hr    PA   alt  az moo ill
   ---- -- -- -----  -------------   -----------  ------ ------ ----- --  --- ------ ------ --- --- --- ---
   2024 04 14 11:00  13 16 58.19    +42 15 56.5   178771 1.0039 128.0  m  15?  43.53  91.3    0  35  77  36
   2024 04 14 11:10  13 17 36.71    +42 15 46.3   177875 1.0039 128.0  m  15?  43.09  92.0    0  34  77  36
   2024 04 14 11:20  13 18 14.82    +42 15 30.2   176980 1.0039 128.1  m  15?  42.68  92.9    2  32  77  36
   2024 04 14 11:30  13 18 52.54    +42 15 07.9   176086 1.0039 128.1  m  15?  42.30  93.8    3  31  77  36
   2024 04 14 11:40  13 19 29.90    +42 14 39.1   175193 1.0039 128.1  m  15?  41.96  94.7    4  30  77  36
   2024 04 14 11:50  13 20 06.90    +42 14 03.5   174302 1.0039 128.1  m  15?  41.67  95.7    5  28  77  36
   2024 04 14 12:00  13 20 43.59    +42 13 20.9   173413 1.0039 128.1  m  15?  41.42  96.7    5  27  77  36
   2024 04 14 12:10  13 21 19.97    +42 12 30.8   172526 1.0039 128.1  m  15?  41.22  97.8    6  25  77  36
   2024 04 14 12:20  13 21 56.10    +42 11 33.1   171641 1.0039 128.1  m  15?  41.07  99.0    7  24  77  36
   2024 04 14 12:30  13 22 31.98    +42 10 27.4   170757 1.0039 128.2     15?  40.98 100.1    8  22  78  36
   2024 04 14 12:40  13 23 07.67    +42 09 13.4   169877 1.0039 128.2     15?  40.95 101.3    9  20  78  36
   2024 04 14 12:50  13 23 43.17    +42 07 50.9   168998 1.0039 128.2     15?  40.98 102.5    9  19  78  36
   2024 04 14 13:00  13 24 18.54    +42 06 19.6   168122 1.0039 128.2     15?  41.07 103.8   10  17  78  36
   2024 04 14 13:10  13 24 53.81    +42 04 39.3   167249 1.0039 128.3     15?  41.24 105.0   11  15  78  36
   2024 04 14 13:20  13 25 29.01    +42 02 49.7   166378 1.0039 128.3     15?  41.47 106.3   11  14  78  37
   2024 04 14 13:30  13 26 04.19    +42 00 50.5   165510 1.0039 128.3     15?  41.77 107.6   12  12  78  37
   2024 04 14 13:40  13 26 39.38    +41 58 41.5   164644 1.0039 128.4     15?  42.14 108.8   12  10  78  37
   2024 04 14 13:50  13 27 14.62    +41 56 22.4   163782 1.0039 128.4     15?  42.58 110.1   12   8  78  37
   2024 04 14 14:00  13 27 49.96    +41 53 53.2   162922 1.0039 128.5     15?  43.10 111.3   13   7  78  37
   2024 04 14 14:10  13 28 25.43    +41 51 13.4   162065 1.0038 128.5     15?  43.70 112.5   13   5  78  37
   2024 04 14 14:20  13 29 01.09    +41 48 23.0   161211 1.0038 128.5     15?  44.37 113.6   13   3  78  37
   2024 04 14 14:30  13 29 36.98    +41 45 21.8   160360 1.0038 128.6     15?  45.11 114.8   13   1  78  37
   2024 04 14 14:40  13 30 13.15    +41 42 09.4   159512 1.0038 128.6  t  15?  45.92 115.8   13 359  78  37
   2024 04 14 14:50  13 30 49.63    +41 38 45.9   158666 1.0038 128.7  e  15?  46.81 116.8   13 358  78  37
   2024 04 14 15:00  13 31 26.49    +41 35 11.0   157823 1.0038 128.8     15?  47.77 117.8   13 356  79  37
   2024 04 14 15:10  13 32 03.76    +41 31 24.6   156983 1.0038 128.8     15?  48.80 118.7   13 354  79  37
   2024 04 14 15:20  13 32 41.50    +41 27 26.5   156146 1.0038 128.9     15?  49.90 119.6   13 352  79  37
   2024 04 14 15:30  13 33 19.75    +41 23 16.6   155311 1.0038 128.9     15?  51.06 120.4   13 350  79  37
   2024 04 14 15:40  13 33 58.57    +41 18 54.8   154479 1.0038 129.0     15?  52.30 121.1   13 349  79  38
   2024 04 14 15:50  13 34 38.00    +41 14 20.9   153650 1.0038 129.1     15?  53.59 121.8   12 347  79  38
   2024 04 14 16:00  13 35 18.10    +41 09 35.0   152823 1.0038 129.2     15?  54.95 122.4   12 345  79  38
   2024 04 14 16:10  13 35 58.92    +41 04 36.8   151998 1.0038 129.2     15?  56.38 122.9   12 343  79  38
   2024 04 14 16:20  13 36 40.50    +40 59 26.3   151175 1.0038 129.3     15?  57.86 123.4   11 342  79  38
   2024 04 14 16:30  13 37 22.90    +40 54 03.5   150354 1.0038 129.4     15?  59.40 123.9   11 340  79  38
   2024 04 14 16:40  13 38 06.16    +40 48 28.3   149535 1.0038 129.5     15?  61.00 124.3   10 338  79  38
   2024 04 14 16:50  13 38 50.34    +40 42 40.6   148718 1.0038 129.6     15?  62.66 124.6    9 337  79  38
   2024 04 14 17:00  13 39 35.49    +40 36 40.4   147903 1.0038 129.7     15?  64.37 125.0    9 335  80  38
   2024 04 14 17:10  13 40 21.65    +40 30 27.7   147089 1.0038 129.8     15?  66.13 125.2    8 333  80  38
   2024 04 14 17:20  13 41 08.88    +40 24 02.4   146276 1.0038 129.9     15?  67.95 125.4    7 332  80  38
   2024 04 14 17:30  13 41 57.22    +40 17 24.5   145464 1.0038 130.0     15?  69.82 125.6    6 330  80  38
   2024 04 14 17:40  13 42 46.72    +40 10 34.1   144654 1.0038 130.1     15?  71.74 125.7    5 329  80  39
   2024 04 14 17:50  13 43 37.43    +40 03 31.1   143843 1.0038 130.2     15?  73.71 125.8    5 327  80  39
   2024 04 14 18:00  13 44 29.40    +39 56 15.6   143034 1.0038 130.3     15?  75.73 125.9    4 325  80  39
   2024 04 14 18:10  13 45 22.66    +39 48 47.4   142225 1.0038 130.4     15?  77.80 125.9    3 324  80  39
   2024 04 14 18:20  13 46 17.27    +39 41 06.7   141416 1.0038 130.5     15?  79.92 126.0    2 323  81  39
   2024 04 14 18:30  13 47 13.28    +39 33 13.5   140606 1.0038 130.6     15?  82.08 125.9    1 321  81  39
   2024 04 14 18:40  13 48 10.71    +39 25 07.8   139797 1.0038 130.7     15?  84.30 125.9    0 320  81  39
   ................
   

Euclid (JPL-ID: -680)

   Date (UTC) HH:MM   RA              Dec         delta   r     elong SM  mag  '/hr    PA   alt  az moo ill
   ---- -- -- -----  -------------   -----------  ------ ------ ----- --  --- ------ ------ --- --- --- ---
   2024 04 14 08:30  12 59 19.96    -21 52 07.8   0.0082 1.0110 165.5 Cm  20?   6.23 127.7   16 105 105  35
   2024 04 14 08:40  12 59 23.44    -21 52 45.9   0.0082 1.0110 165.4 Cm  20?   6.10 128.6   18 104 105  35
   2024 04 14 08:50  12 59 26.80    -21 53 24.0   0.0082 1.0110 165.4 Nm  20?   5.97 129.5   20 103 105  35
   2024 04 14 09:00  12 59 30.04    -21 54 02.0   0.0082 1.0110 165.4 Nm  20?   5.83 130.5   22 102 105  35
   2024 04 14 09:10  12 59 33.17    -21 54 39.9   0.0082 1.0110 165.4 Nm  20?   5.70 131.4   24 100 105  35
   2024 04 14 09:20  12 59 36.18    -21 55 17.6   0.0082 1.0110 165.4 Am  20?   5.57 132.4   26  99 105  35
   2024 04 14 09:30  12 59 39.07    -21 55 55.1   0.0082 1.0110 165.4 Am  20?   5.44 133.4   28  98 105  35
   2024 04 14 09:40  12 59 41.85    -21 56 32.5   0.0082 1.0110 165.4 Am  20?   5.31 134.4   30  97 105  35
   2024 04 14 09:50  12 59 44.53    -21 57 09.5   0.0082 1.0110 165.4  m  20?   5.19 135.3   32  96 105  35
   2024 04 14 10:00  12 59 47.09    -21 57 46.4   0.0082 1.0110 165.4  m  20?   5.06 136.3   34  94 105  35
   2024 04 14 10:10  12 59 49.54    -21 58 22.9   0.0082 1.0110 165.4  m  20?   4.94 137.3   36  93 105  35
   2024 04 14 10:20  12 59 51.89    -21 58 59.1   0.0082 1.0110 165.4  m  20?   4.82 138.3   38  92 105  36
   2024 04 14 10:30  12 59 54.14    -21 59 35.0   0.0082 1.0110 165.4  m  20?   4.70 139.3   40  90 105  36
   2024 04 14 10:40  12 59 56.29    -22 00 10.5   0.0082 1.0110 165.4  m  20?   4.59 140.3   42  89 105  36
   2024 04 14 10:50  12 59 58.35    -22 00 45.7   0.0082 1.0110 165.4  m  20?   4.47 141.3   44  87 105  36
   2024 04 14 11:00  13 00 00.31    -22 01 20.4   0.0082 1.0110 165.4  m  20?   4.36 142.3   46  86 105  36
   2024 04 14 11:10  13 00 02.18    -22 01 54.7   0.0082 1.0110 165.4  m  20?   4.25 143.2   48  84 105  36
   2024 04 14 11:20  13 00 03.97    -22 02 28.6   0.0082 1.0110 165.4  m  20?   4.15 144.1   50  83 104  36
   2024 04 14 11:30  13 00 05.67    -22 03 02.0   0.0082 1.0110 165.4  m  20?   4.04 145.0   52  81 104  36
   2024 04 14 11:40  13 00 07.30    -22 03 34.9   0.0082 1.0110 165.4  m  20?   3.94 145.8   54  79 104  36
   2024 04 14 11:50  13 00 08.85    -22 04 07.4   0.0082 1.0111 165.4  m  20?   3.85 146.7   56  77 104  36
   2024 04 14 12:00  13 00 10.33    -22 04 39.2   0.0082 1.0111 165.4  m  20?   3.75 147.4   58  75 104  36
   2024 04 14 12:10  13 00 11.75    -22 05 10.6   0.0082 1.0111 165.4  m  20?   3.66 148.1   60  72 104  36
   2024 04 14 12:20  13 00 13.11    -22 05 41.4   0.0082 1.0111 165.3  m  20?   3.57 148.7   62  70 104  36
   2024 04 14 12:30  13 00 14.41    -22 06 11.7   0.0082 1.0111 165.3     20?   3.48 149.3   64  67 104  36
   2024 04 14 12:40  13 00 15.66    -22 06 41.3   0.0082 1.0111 165.3     20?   3.39 149.8   66  64 104  36
   2024 04 14 12:50  13 00 16.86    -22 07 10.4   0.0082 1.0111 165.3     20?   3.31 150.2   68  60 104  36
   2024 04 14 13:00  13 00 18.03    -22 07 38.8   0.0082 1.0111 165.3     20?   3.23 150.5   70  56 104  36
   2024 04 14 13:10  13 00 19.15    -22 08 06.7   0.0082 1.0111 165.3     20?   3.16 150.7   71  51 104  36
   2024 04 14 13:20  13 00 20.24    -22 08 33.9   0.0082 1.0111 165.3     20?   3.08 150.8   73  45 104  37
   2024 04 14 13:30  13 00 21.31    -22 09 00.5   0.0082 1.0111 165.3     20?   3.01 150.8   74  38 104  37
   2024 04 14 13:40  13 00 22.36    -22 09 26.5   0.0082 1.0111 165.3     20?   2.94 150.6   76  30 103  37
   2024 04 14 13:50  13 00 23.39    -22 09 51.8   0.0082 1.0111 165.3     20?   2.88 150.3   76  21 103  37
   2024 04 14 14:00  13 00 24.41    -22 10 16.5   0.0082 1.0111 165.3     20?   2.82 149.8   77  11 103  37
   2024 04 14 14:10  13 00 25.42    -22 10 40.5   0.0082 1.0111 165.3     20?   2.76 149.2   77   0 103  37
   2024 04 14 14:20  13 00 26.44    -22 11 03.9   0.0082 1.0111 165.3  t  20?   2.70 148.5   77 349 103  37
   2024 04 14 14:30  13 00 27.46    -22 11 26.7   0.0082 1.0111 165.3     20?   2.66 147.5   77 339 103  37
   2024 04 14 14:40  13 00 28.49    -22 11 48.8   0.0082 1.0111 165.3     20?   2.61 146.4   76 330 103  37
   2024 04 14 14:50  13 00 29.53    -22 12 10.3   0.0082 1.0111 165.3     20?   2.57 145.2   75 322 103  37
   2024 04 14 15:00  13 00 30.60    -22 12 31.1   0.0082 1.0111 165.3     20?   2.54 143.7   73 315 103  37
   2024 04 14 15:10  13 00 31.69    -22 12 51.3   0.0082 1.0111 165.3     20?   2.51 142.1   72 309 103  37
   2024 04 14 15:20  13 00 32.82    -22 13 10.8   0.0082 1.0111 165.3     20?   2.50 140.4   70 304 103  37
   2024 04 14 15:30  13 00 33.98    -22 13 29.8   0.0082 1.0111 165.3     20?   2.48 138.5   68 299 102  37
   2024 04 14 15:40  13 00 35.19    -22 13 48.1   0.0082 1.0111 165.3     20?   2.48 136.5   66 295 102  38
   2024 04 14 15:50  13 00 36.44    -22 14 05.8   0.0082 1.0111 165.3     20?   2.49 134.4   65 292 102  38
   2024 04 14 16:00  13 00 37.74    -22 14 22.9   0.0082 1.0111 165.3     20?   2.50 132.3   63 289 102  38
   2024 04 14 16:10  13 00 39.10    -22 14 39.5   0.0082 1.0111 165.2     20?   2.52 130.1   61 287 102  38
   2024 04 14 16:20  13 00 40.52    -22 14 55.5   0.0082 1.0111 165.2     20?   2.56 127.8   59 284 102  38
   2024 04 14 16:30  13 00 42.01    -22 15 10.9   0.0082 1.0111 165.2     20?   2.60 125.6   57 282 102  38
   2024 04 14 16:40  13 00 43.56    -22 15 25.9   0.0082 1.0111 165.2     20?   2.65 123.4   55 280 102  38
   2024 04 14 16:50  13 00 45.19    -22 15 40.2   0.0082 1.0111 165.2     20?   2.71 121.3   53 278 102  38
   2024 04 14 17:00  13 00 46.90    -22 15 54.1   0.0082 1.0111 165.2     20?   2.79 119.2   51 276 102  38
   2024 04 14 17:10  13 00 48.69    -22 16 07.5   0.0082 1.0111 165.2     20?   2.87 117.3   49 275 101  38
   2024 04 14 17:20  13 00 50.57    -22 16 20.5   0.0082 1.0111 165.2     20?   2.96 115.4   47 273 101  38
   2024 04 14 17:30  13 00 52.54    -22 16 33.0   0.0082 1.0111 165.2     20?   3.05 113.6   44 271 101  38
   2024 04 14 17:40  13 00 54.60    -22 16 45.1   0.0082 1.0111 165.2     20?   3.16 112.0   42 270 101  39
   2024 04 14 17:50  13 00 56.76    -22 16 56.7   0.0082 1.0111 165.2     20?   3.27 110.5   40 269 101  39
   2024 04 14 18:00  13 00 59.01    -22 17 08.0   0.0082 1.0111 165.2     20?   3.39 109.1   38 267 101  39
   2024 04 14 18:10  13 01 01.37    -22 17 19.0   0.0082 1.0111 165.2     20?   3.52 107.8   36 266 101  39
   2024 04 14 18:20  13 01 03.84    -22 17 29.6   0.0082 1.0111 165.2     20?   3.65 106.6   34 265 101  39
   2024 04 14 18:30  13 01 06.41    -22 17 39.9   0.0082 1.0111 165.2     20?   3.79 105.5   32 263 101  39
   2024 04 14 18:40  13 01 09.09    -22 17 50.0   0.0082 1.0111 165.2     20?   3.93 104.5   30 262 101  39
   2024 04 14 18:50  13 01 11.89    -22 17 59.7   0.0082 1.0111 165.3     20?   4.07 103.6   28 261 100  39
   2024 04 14 19:00  13 01 14.79    -22 18 09.3   0.0082 1.0111 165.3     20?   4.22 102.8   26 259 100  39
   2024 04 14 19:10  13 01 17.82    -22 18 18.6   0.0082 1.0111 165.3     20?   4.38 102.1   24 258 100  39
   2024 04 14 19:20  13 01 20.96    -22 18 27.8   0.0082 1.0111 165.3     20?   4.53 101.5   22 257 100  40
   2024 04 14 19:30  13 01 24.22    -22 18 36.8   0.0082 1.0111 165.3     20?   4.69 100.9   20 256 100  40
   2024 04 14 19:40  13 01 27.60    -22 18 45.7   0.0082 1.0111 165.3     20?   4.85 100.4   18 255 100  40
   2024 04 14 19:50  13 01 31.10    -22 18 54.5   0.0082 1.0111 165.3 A   20?   5.02 100.0   16 253 100  40
   2024 04 14 20:00  13 01 34.72    -22 19 03.3   0.0082 1.0111 165.3 A   20?   5.18  99.6   14 252 100  40
   2024 04 14 20:10  13 01 38.46    -22 19 12.0   0.0082 1.0111 165.3 A   20?   5.35  99.3   12 251 100  40
   2024 04 14 20:20  13 01 42.32    -22 19 20.7   0.0082 1.0112 165.3 N   20?   5.51  99.0   10 250 100  40
   2024 04 14 20:30  13 01 46.31    -22 19 29.4   0.0082 1.0112 165.3 N   20?   5.68  98.8    8 248  99  40
   2024 04 14 20:40  13 01 50.41    -22 19 38.1   0.0082 1.0112 165.3 C   20?   5.84  98.6    6 247  99  40
   2024 04 14 20:50  13 01 54.63    -22 19 47.0   0.0082 1.0112 165.3 C   20?   6.01  98.5    5 246  99  40
   2024 04 14 21:00  13 01 58.97    -22 19 55.9   0.0082 1.0112 165.3 C   20?   6.17  98.3    3 244  99  40
   ................
   2024 04 15 08:20  13 08 25.85    -22 47 27.4   0.0082 1.0113 165.6 Cm  20?   6.47 125.7   13 108  95  45
   2024 04 15 08:30  13 08 29.59    -22 48 05.3   0.0082 1.0113 165.6 Cm  20?   6.34 126.5   15 107  95  45
   2024 04 15 08:40  13 08 33.21    -22 48 43.1   0.0082 1.0113 165.6 Cm  20?   6.20 127.4   17 106  95  45
   2024 04 15 08:50  13 08 36.71    -22 49 20.8   0.0082 1.0113 165.6 Nm  20?   6.07 128.3   19 104  95  45
   2024 04 15 09:00  13 08 40.08    -22 49 58.5   0.0082 1.0113 165.6 Nm  20?   5.93 129.2   21 103  95  45
   2024 04 15 09:10  13 08 43.35    -22 50 36.0   0.0082 1.0113 165.6 Nm  20?   5.80 130.1   23 102  95  45
   2024 04 15 09:20  13 08 46.49    -22 51 13.4   0.0082 1.0113 165.6 Am  20?   5.67 131.1   25 101  95  45
   2024 04 15 09:30  13 08 49.52    -22 51 50.6   0.0082 1.0113 165.6 Am  20?   5.53 132.0   27 100  95  45
   2024 04 15 09:40  13 08 52.43    -22 52 27.6   0.0082 1.0113 165.6 Am  20?   5.40 133.0   29  98  95  45
   2024 04 15 09:50  13 08 55.23    -22 53 04.3   0.0082 1.0113 165.6  m  20?   5.27 133.9   31  97  95  45
   2024 04 15 10:00  13 08 57.92    -22 53 40.8   0.0082 1.0113 165.5  m  20?   5.15 134.9   33  96  95  45
   2024 04 15 10:10  13 09 00.50    -22 54 17.0   0.0082 1.0113 165.5  m  20?   5.02 135.8   35  95  95  46
   2024 04 15 10:20  13 09 02.97    -22 54 53.0   0.0082 1.0113 165.5  m  20?   4.90 136.8   37  93  95  46
   2024 04 15 10:30  13 09 05.34    -22 55 28.5   0.0082 1.0113 165.5  m  20?   4.77 137.8   39  92  95  46
   2024 04 15 10:40  13 09 07.61    -22 56 03.7   0.0082 1.0113 165.5  m  20?   4.65 138.7   41  91  95  46
   2024 04 15 10:50  13 09 09.78    -22 56 38.6   0.0082 1.0113 165.5  m  20?   4.54 139.7   43  89  95  46
   2024 04 15 11:00  13 09 11.85    -22 57 13.0   0.0082 1.0113 165.5  m  20?   4.42 140.6   46  88  95  46
   2024 04 15 11:10  13 09 13.84    -22 57 47.0   0.0082 1.0113 165.5  m  20?   4.31 141.5   48  86  95  46
   2024 04 15 11:20  13 09 15.73    -22 58 20.5   0.0082 1.0113 165.5  m  20?   4.20 142.4   50  85  94  46
   2024 04 15 11:30  13 09 17.55    -22 58 53.5   0.0082 1.0113 165.5  m  20?   4.09 143.2   52  83  94  46
   2024 04 15 11:40  13 09 19.28    -22 59 26.1   0.0082 1.0113 165.5  m  20?   3.99 144.0   54  81  94  46
   2024 04 15 11:50  13 09 20.93    -22 59 58.1   0.0082 1.0113 165.5  m  20?   3.88 144.8   56  80  94  46
   2024 04 15 12:00  13 09 22.51    -23 00 29.7   0.0082 1.0113 165.5  m  20?   3.78 145.5   58  78  94  46
   2024 04 15 12:10  13 09 24.03    -23 01 00.6   0.0082 1.0113 165.5  m  20?   3.69 146.2   60  75  94  46
   2024 04 15 12:20  13 09 25.48    -23 01 31.0   0.0082 1.0113 165.5  m  20?   3.59 146.8   62  73  94  46
   2024 04 15 12:30  13 09 26.87    -23 02 00.8   0.0082 1.0113 165.5  m  20?   3.50 147.4   64  70  94  46
   2024 04 15 12:40  13 09 28.20    -23 02 30.0   0.0082 1.0113 165.5  m  20?   3.41 147.9   66  67  94  46
   2024 04 15 12:50  13 09 29.49    -23 02 58.6   0.0082 1.0113 165.5  m  20?   3.32 148.2   68  64  94  46
   2024 04 15 13:00  13 09 30.73    -23 03 26.6   0.0082 1.0113 165.5  m  20?   3.24 148.5   69  60  94  46
   2024 04 15 13:10  13 09 31.94    -23 03 54.0   0.0082 1.0113 165.4  m  20?   3.16 148.7   71  56  94  46
   2024 04 15 13:20  13 09 33.11    -23 04 20.7   0.0082 1.0114 165.4  m  20?   3.08 148.8   73  50  94  46
   2024 04 15 13:30  13 09 34.25    -23 04 46.8   0.0082 1.0114 165.4     20?   3.01 148.8   74  44  94  47
   2024 04 15 13:40  13 09 35.36    -23 05 12.2   0.0082 1.0114 165.4     20?   2.94 148.6   76  36  94  47
   2024 04 15 13:50  13 09 36.46    -23 05 36.9   0.0082 1.0114 165.4     20?   2.87 148.3   77  28  93  47
   2024 04 15 14:00  13 09 37.54    -23 06 01.0   0.0082 1.0114 165.4     20?   2.80 147.8   78  17  93  47
   2024 04 15 14:10  13 09 38.62    -23 06 24.4   0.0082 1.0114 165.4     20?   2.74 147.2   78   6  93  47
   2024 04 15 14:20  13 09 39.69    -23 06 47.1   0.0082 1.0114 165.4  t  20?   2.69 146.4   78 355  93  47
   2024 04 15 14:30  13 09 40.77    -23 07 09.2   0.0082 1.0114 165.4     20?   2.63 145.5   78 343  93  47
   2024 04 15 14:40  13 09 41.85    -23 07 30.6   0.0082 1.0114 165.4     20?   2.59 144.4   77 333  93  47
   2024 04 15 14:50  13 09 42.95    -23 07 51.3   0.0082 1.0114 165.4     20?   2.55 143.1   76 324  93  47
   2024 04 15 15:00  13 09 44.06    -23 08 11.4   0.0082 1.0114 165.4     20?   2.51 141.7   75 316  93  47
   2024 04 15 15:10  13 09 45.20    -23 08 30.8   0.0082 1.0114 165.4     20?   2.48 140.1   73 310  93  47
   2024 04 15 15:20  13 09 46.37    -23 08 49.5   0.0082 1.0114 165.4     20?   2.46 138.3   72 304  93  47
   2024 04 15 15:30  13 09 47.57    -23 09 07.6   0.0082 1.0114 165.4     20?   2.45 136.4   70 299  93  47
   2024 04 15 15:40  13 09 48.81    -23 09 25.1   0.0082 1.0114 165.4     20?   2.44 134.4   68 295  93  47
   2024 04 15 15:50  13 09 50.10    -23 09 41.9   0.0082 1.0114 165.4     20?   2.45 132.3   66 292  92  48
   2024 04 15 16:00  13 09 51.43    -23 09 58.1   0.0082 1.0114 165.4     20?   2.46 130.2   64 289  92  48
   2024 04 15 16:10  13 09 52.82    -23 10 13.7   0.0082 1.0114 165.4     20?   2.48 127.9   62 286  92  48
   2024 04 15 16:20  13 09 54.27    -23 10 28.7   0.0082 1.0114 165.4     20?   2.52 125.7   60 284  92  48
   2024 04 15 16:30  13 09 55.78    -23 10 43.1   0.0082 1.0114 165.4     20?   2.56 123.5   58 281  92  48
   2024 04 15 16:40  13 09 57.36    -23 10 57.0   0.0082 1.0114 165.4     20?   2.61 121.3   56 279  92  48
   2024 04 15 16:50  13 09 59.02    -23 11 10.3   0.0082 1.0114 165.4     20?   2.67 119.1   54 278  92  48
   2024 04 15 17:00  13 10 00.75    -23 11 23.1   0.0082 1.0114 165.4     20?   2.74 117.1   52 276  92  48
   2024 04 15 17:10  13 10 02.56    -23 11 35.4   0.0082 1.0114 165.4     20?   2.82 115.1   50 274  92  48
   2024 04 15 17:20  13 10 04.45    -23 11 47.1   0.0082 1.0114 165.4     20?   2.91 113.3   48 273  92  48
   2024 04 15 17:30  13 10 06.43    -23 11 58.4   0.0082 1.0114 165.4     20?   3.01 111.5   46 271  92  48
   2024 04 15 17:40  13 10 08.51    -23 12 09.3   0.0082 1.0114 165.4     20?   3.11 109.9   44 270  91  48
   2024 04 15 17:50  13 10 10.68    -23 12 19.7   0.0082 1.0114 165.4     20?   3.23 108.4   42 268  91  49
   2024 04 15 18:00  13 10 12.95    -23 12 29.8   0.0082 1.0114 165.4     20?   3.35 107.0   40 267  91  49
   2024 04 15 18:10  13 10 15.32    -23 12 39.4   0.0082 1.0114 165.4     20?   3.47 105.7   38 265  91  49
   2024 04 15 18:20  13 10 17.80    -23 12 48.7   0.0082 1.0114 165.4     20?   3.60 104.6   36 264  91  49
   2024 04 15 18:30  13 10 20.38    -23 12 57.7   0.0082 1.0114 165.4     20?   3.74 103.5   34 263  91  49
   2024 04 15 18:40  13 10 23.07    -23 13 06.3   0.0082 1.0114 165.4     20?   3.88 102.6   32 262  91  49
   2024 04 15 18:50  13 10 25.87    -23 13 14.7   0.0082 1.0114 165.4     20?   4.03 101.7   30 260  91  49
   2024 04 15 19:00  13 10 28.79    -23 13 22.9   0.0082 1.0114 165.4     20?   4.18 101.0   28 259  91  49
   2024 04 15 19:10  13 10 31.83    -23 13 30.8   0.0082 1.0114 165.4     20?   4.33 100.3   26 258  91  49
   2024 04 15 19:20  13 10 34.98    -23 13 38.5   0.0082 1.0114 165.4     20?   4.49  99.7   24 257  90  49
   2024 04 15 19:30  13 10 38.24    -23 13 46.0   0.0082 1.0114 165.4     20?   4.65  99.2   22 256  90  49
   2024 04 15 19:40  13 10 41.63    -23 13 53.4   0.0082 1.0114 165.4     20?   4.81  98.7   20 254  90  50
   2024 04 15 19:50  13 10 45.14    -23 14 00.7   0.0082 1.0114 165.4 A   20?   4.97  98.3   18 253  90  50
   2024 04 15 20:00  13 10 48.77    -23 14 07.9   0.0082 1.0114 165.4 A   20?   5.14  98.0   16 252  90  50
   2024 04 15 20:10  13 10 52.52    -23 14 15.1   0.0082 1.0114 165.4 A   20?   5.30  97.7   14 251  90  50
   2024 04 15 20:20  13 10 56.39    -23 14 22.2   0.0082 1.0114 165.4 N   20?   5.47  97.4   12 249  90  50
   2024 04 15 20:30  13 11 00.39    -23 14 29.3   0.0082 1.0114 165.4 N   20?   5.63  97.2   10 248  90  50
   2024 04 15 20:40  13 11 04.50    -23 14 36.5   0.0082 1.0114 165.4 N   20?   5.80  97.1    8 247  90  50
   2024 04 15 20:50  13 11 08.74    -23 14 43.7   0.0082 1.0114 165.4 C   20?   5.97  96.9    6 246  90  50
   2024 04 15 21:00  13 11 13.10    -23 14 51.0   0.0082 1.0114 165.4 C   20?   6.13  96.8    4 244  89  50
   ................
   2024 04 16 08:20  13 17 46.00    -23 40 59.1   0.0082 1.0116 165.6 Cm  20?   6.57 124.5   13 110  85  55
   2024 04 16 08:30  13 17 49.87    -23 41 36.5   0.0082 1.0116 165.6 Cm  20?   6.43 125.4   14 108  85  55
   2024 04 16 08:40  13 17 53.63    -23 42 13.8   0.0082 1.0116 165.6 Cm  20?   6.30 126.2   16 107  85  55
   2024 04 16 08:50  13 17 57.26    -23 42 51.0   0.0082 1.0116 165.6 Nm  20?   6.16 127.1   18 106  85  55
   2024 04 16 09:00  13 18 00.77    -23 43 28.2   0.0082 1.0116 165.6 Nm  20?   6.02 128.0   20 105  85  55
   2024 04 16 09:10  13 18 04.17    -23 44 05.3   0.0082 1.0116 165.6 Nm  20?   5.89 128.8   22 104  85  55
   2024 04 16 09:20  13 18 07.44    -23 44 42.2   0.0082 1.0116 165.6 Am  20?   5.75 129.7   24 102  85  55
   2024 04 16 09:30  13 18 10.60    -23 45 18.9   0.0082 1.0116 165.6 Am  20?   5.62 130.7   26 101  85  55
   2024 04 16 09:40  13 18 13.64    -23 45 55.5   0.0082 1.0116 165.6 Am  20?   5.48 131.6   28 100  85  55
   2024 04 16 09:50  13 18 16.56    -23 46 31.8   0.0082 1.0116 165.6  m  20?   5.35 132.5   30  99  85  55
   2024 04 16 10:00  13 18 19.38    -23 47 07.9   0.0082 1.0116 165.6  m  20?   5.22 133.4   32  98  85  55
   2024 04 16 10:10  13 18 22.08    -23 47 43.7   0.0082 1.0116 165.6  m  20?   5.09 134.3   35  96  85  55
   2024 04 16 10:20  13 18 24.67    -23 48 19.2   0.0082 1.0116 165.6  m  20?   4.96 135.3   37  95  85  56
   2024 04 16 10:30  13 18 27.16    -23 48 54.3   0.0082 1.0116 165.6  m  20?   4.84 136.2   39  94  85  56
   2024 04 16 10:40  13 18 29.55    -23 49 29.1   0.0082 1.0116 165.6  m  20?   4.71 137.1   41  93  85  56
   2024 04 16 10:50  13 18 31.83    -23 50 03.5   0.0082 1.0116 165.5  m  20?   4.59 138.0   43  91  85  56
   2024 04 16 11:00  13 18 34.02    -23 50 37.5   0.0082 1.0116 165.5  m  20?   4.47 138.9   45  90  85  56
   2024 04 16 11:10  13 18 36.11    -23 51 11.0   0.0082 1.0116 165.5  m  20?   4.36 139.8   47  88  85  56
   2024 04 16 11:20  13 18 38.12    -23 51 44.1   0.0082 1.0116 165.5  m  20?   4.24 140.6   49  87  85  56
   2024 04 16 11:30  13 18 40.03    -23 52 16.7   0.0082 1.0116 165.5  m  20?   4.13 141.4   51  85  85  56
   2024 04 16 11:40  13 18 41.86    -23 52 48.8   0.0082 1.0116 165.5  m  20?   4.02 142.2   53  84  85  56
   2024 04 16 11:50  13 18 43.62    -23 53 20.4   0.0082 1.0116 165.5  m  20?   3.92 143.0   55  82  85  56
   2024 04 16 12:00  13 18 45.30    -23 53 51.5   0.0082 1.0116 165.5  m  20?   3.81 143.7   57  80  85  56
   2024 04 16 12:10  13 18 46.90    -23 54 21.9   0.0082 1.0116 165.5  m  20?   3.71 144.3   59  78  84  56
   2024 04 16 12:20  13 18 48.45    -23 54 51.9   0.0082 1.0116 165.5  m  20?   3.61 144.9   61  76  84  56
   2024 04 16 12:30  13 18 49.92    -23 55 21.2   0.0082 1.0116 165.5  m  20?   3.52 145.5   63  74  84  56
   2024 04 16 12:40  13 18 51.35    -23 55 49.9   0.0082 1.0116 165.5  m  20?   3.42 145.9   65  71  84  56
   2024 04 16 12:50  13 18 52.72    -23 56 17.9   0.0082 1.0116 165.5  m  20?   3.33 146.3   67  68  84  56
   2024 04 16 13:00  13 18 54.04    -23 56 45.4   0.0082 1.0116 165.5  m  20?   3.25 146.6   69  64  84  56
   2024 04 16 13:10  13 18 55.32    -23 57 12.2   0.0082 1.0116 165.5  m  20?   3.16 146.8   71  60  84  56
   2024 04 16 13:20  13 18 56.56    -23 57 38.3   0.0082 1.0116 165.5  m  20?   3.08 146.8   73  55  84  56
   2024 04 16 13:30  13 18 57.77    -23 58 03.8   0.0082 1.0116 165.5  m  20?   3.00 146.8   74  50  84  56
   2024 04 16 13:40  13 18 58.95    -23 58 28.5   0.0082 1.0116 165.5  m  20?   2.92 146.6   76  43  84  56
   2024 04 16 13:50  13 19 00.12    -23 58 52.7   0.0082 1.0116 165.5  m  20?   2.85 146.3   77  35  84  57
   2024 04 16 14:00  13 19 01.26    -23 59 16.1   0.0082 1.0116 165.4  m  20?   2.78 145.8   78  25  84  57
   2024 04 16 14:10  13 19 02.39    -23 59 38.8   0.0082 1.0116 165.4  m  20?   2.72 145.2   79  13  84  57
   2024 04 16 14:20  13 19 03.52    -24 00 00.8   0.0082 1.0116 165.4  m  20?   2.66 144.4   79   1  84  57
   2024 04 16 14:30  13 19 04.65    -24 00 22.2   0.0082 1.0116 165.4  t  20?   2.61 143.5   79 349  84  57
   2024 04 16 14:40  13 19 05.78    -24 00 42.8   0.0082 1.0116 165.4     20?   2.56 142.4   78 337  83  57
   2024 04 16 14:50  13 19 06.92    -24 01 02.7   0.0082 1.0117 165.4     20?   2.51 141.1   77 327  83  57
   2024 04 16 15:00  13 19 08.08    -24 01 22.0   0.0082 1.0117 165.4     20?   2.48 139.7   76 318  83  57
   2024 04 16 15:10  13 19 09.26    -24 01 40.6   0.0082 1.0117 165.4     20?   2.45 138.0   75 311  83  57
   2024 04 16 15:20  13 19 10.47    -24 01 58.4   0.0082 1.0117 165.4     20?   2.42 136.3   73 305  83  57
   2024 04 16 15:30  13 19 11.71    -24 02 15.6   0.0082 1.0117 165.4     20?   2.41 134.4   71 300  83  57
   2024 04 16 15:40  13 19 12.98    -24 02 32.2   0.0082 1.0117 165.4     20?   2.40 132.3   69 295  83  57
   2024 04 16 15:50  13 19 14.30    -24 02 48.1   0.0082 1.0117 165.4     20?   2.41 130.2   68 292  83  57
   2024 04 16 16:00  13 19 15.66    -24 03 03.3   0.0082 1.0117 165.4     20?   2.42 128.0   66 289  83  57
   2024 04 16 16:10  13 19 17.08    -24 03 17.9   0.0082 1.0117 165.4     20?   2.44 125.8   64 286  83  57
   2024 04 16 16:20  13 19 18.55    -24 03 31.9   0.0082 1.0117 165.4     20?   2.47 123.5   62 283  83  58
   2024 04 16 16:30  13 19 20.08    -24 03 45.3   0.0082 1.0117 165.4     20?   2.51 121.3   60 281  83  58
   2024 04 16 16:40  13 19 21.68    -24 03 58.1   0.0082 1.0117 165.4     20?   2.56 119.1   58 279  83  58
   2024 04 16 16:50  13 19 23.35    -24 04 10.3   0.0082 1.0117 165.4     20?   2.62 116.9   56 277  82  58
   2024 04 16 17:00  13 19 25.09    -24 04 21.9   0.0082 1.0117 165.4     20?   2.69 114.9   54 275  82  58
   2024 04 16 17:10  13 19 26.92    -24 04 33.0   0.0082 1.0117 165.4     20?   2.77 112.9   52 274  82  58
   2024 04 16 17:20  13 19 28.82    -24 04 43.6   0.0082 1.0117 165.4     20?   2.86 111.1   50 272  82  58
   2024 04 16 17:30  13 19 30.82    -24 04 53.7   0.0082 1.0117 165.4     20?   2.96 109.3   47 271  82  58
   2024 04 16 17:40  13 19 32.90    -24 05 03.3   0.0082 1.0117 165.4     20?   3.06 107.7   45 269  82  58
   2024 04 16 17:50  13 19 35.08    -24 05 12.5   0.0082 1.0117 165.4     20?   3.18 106.3   43 268  82  58
   2024 04 16 18:00  13 19 37.35    -24 05 21.2   0.0082 1.0117 165.4     20?   3.30 104.9   41 266  82  58
   2024 04 16 18:10  13 19 39.73    -24 05 29.5   0.0082 1.0117 165.4     20?   3.42 103.6   39 265  82  58
   2024 04 16 18:20  13 19 42.21    -24 05 37.5   0.0082 1.0117 165.4     20?   3.55 102.5   37 264  82  58
   2024 04 16 18:30  13 19 44.79    -24 05 45.1   0.0082 1.0117 165.4     20?   3.69 101.5   35 263  81  59
   2024 04 16 18:40  13 19 47.49    -24 05 52.3   0.0082 1.0117 165.4     20?   3.83 100.6   33 261  81  59
   2024 04 16 18:50  13 19 50.29    -24 05 59.3   0.0082 1.0117 165.4     20?   3.98  99.8   31 260  81  59
   2024 04 16 19:00  13 19 53.21    -24 06 06.0   0.0082 1.0117 165.4     20?   4.13  99.1   29 259  81  59
   2024 04 16 19:10  13 19 56.24    -24 06 12.4   0.0082 1.0117 165.4     20?   4.28  98.4   27 258  81  59
   2024 04 16 19:20  13 19 59.39    -24 06 18.6   0.0082 1.0117 165.4     20?   4.44  97.9   25 257  81  59
   2024 04 16 19:30  13 20 02.66    -24 06 24.7   0.0082 1.0117 165.4     20?   4.60  97.4   23 255  81  59
   2024 04 16 19:40  13 20 06.05    -24 06 30.5   0.0082 1.0117 165.4     20?   4.76  96.9   21 254  81  59
   2024 04 16 19:50  13 20 09.56    -24 06 36.3   0.0082 1.0117 165.4 A   20?   4.92  96.6   19 253  81  59
   2024 04 16 20:00  13 20 13.19    -24 06 41.9   0.0082 1.0117 165.4 A   20?   5.08  96.3   17 252  81  59
   2024 04 16 20:10  13 20 16.94    -24 06 47.5   0.0082 1.0117 165.4 A   20?   5.25  96.0   15 251  81  59
   2024 04 16 20:20  13 20 20.82    -24 06 53.0   0.0082 1.0117 165.4 N   20?   5.42  95.8   13 249  80  60
   2024 04 16 20:30  13 20 24.81    -24 06 58.5   0.0082 1.0117 165.4 N   20?   5.58  95.6   11 248  80  60
   2024 04 16 20:40  13 20 28.93    -24 07 04.0   0.0082 1.0117 165.5 N   20?   5.75  95.5    9 247  80  60
   2024 04 16 20:50  13 20 33.17    -24 07 09.6   0.0082 1.0117 165.5 C   20?   5.91  95.4    8 246  80  60
   2024 04 16 21:00  13 20 37.53    -24 07 15.2   0.0082 1.0117 165.5 C   20?   6.08  95.3    6 244  80  60
   ................
   2024 04 17 08:20  13 27 15.88    -24 31 52.2   0.0082 1.0119 165.6 Cm  20?   6.65 123.3   12 111  76  65
   2024 04 17 08:30  13 27 19.89    -24 32 28.9   0.0082 1.0119 165.6 Cm  20?   6.52 124.2   14 110  76  65
   2024 04 17 08:40  13 27 23.77    -24 33 05.5   0.0082 1.0119 165.5 Cm  20?   6.38 125.0   16 109  76  65
   2024 04 17 08:50  13 27 27.54    -24 33 42.2   0.0082 1.0119 165.5 Nm  20?   6.24 125.8   18 107  76  65
   2024 04 17 09:00  13 27 31.18    -24 34 18.7   0.0082 1.0119 165.5 Nm  20?   6.10 126.7   20 106  76  65
   2024 04 17 09:10  13 27 34.70    -24 34 55.2   0.0082 1.0119 165.5 Nm  20?   5.96 127.5   22 105  76  65
   2024 04 17 09:20  13 27 38.10    -24 35 31.5   0.0082 1.0119 165.5 Am  20?   5.83 128.4   24 104  76  65
   2024 04 17 09:30  13 27 41.38    -24 36 07.7   0.0082 1.0119 165.5 Am  20?   5.69 129.3   26 103  76  65
   2024 04 17 09:40  13 27 44.55    -24 36 43.7   0.0082 1.0119 165.5  m  20?   5.55 130.2   28 101  76  65
   2024 04 17 09:50  13 27 47.60    -24 37 19.5   0.0082 1.0119 165.5  m  20?   5.42 131.0   30 100  76  65
   2024 04 17 10:00  13 27 50.53    -24 37 55.0   0.0082 1.0119 165.5  m  20?   5.28 131.9   32  99  76  65
   2024 04 17 10:10  13 27 53.36    -24 38 30.3   0.0082 1.0119 165.5  m  20?   5.15 132.8   34  98  75  65
   2024 04 17 10:20  13 27 56.07    -24 39 05.2   0.0082 1.0119 165.5  m  20?   5.02 133.7   36  97  75  65
   2024 04 17 10:30  13 27 58.67    -24 39 39.8   0.0082 1.0119 165.5  m  20?   4.89 134.6   38  95  75  65
   2024 04 17 10:40  13 28 01.17    -24 40 14.1   0.0082 1.0119 165.5  m  20?   4.77 135.5   40  94  75  65
   2024 04 17 10:50  13 28 03.57    -24 40 47.9   0.0082 1.0119 165.5  m  20?   4.64 136.4   42  93  75  65
   2024 04 17 11:00  13 28 05.86    -24 41 21.4   0.0082 1.0119 165.5  m  20?   4.52 137.2   44  92  75  65
   2024 04 17 11:10  13 28 08.06    -24 41 54.4   0.0082 1.0119 165.5  m  20?   4.40 138.1   46  90  75  65
   2024 04 17 11:20  13 28 10.17    -24 42 27.0   0.0082 1.0119 165.5  m  20?   4.28 138.9   48  89  75  65
   2024 04 17 11:30  13 28 12.19    -24 42 59.1   0.0082 1.0119 165.5  m  20?   4.17 139.7   50  87  75  65
   2024 04 17 11:40  13 28 14.12    -24 43 30.6   0.0082 1.0119 165.4  m  20?   4.05 140.5   52  86  75  65
   2024 04 17 11:50  13 28 15.97    -24 44 01.7   0.0082 1.0119 165.4  m  20?   3.94 141.2   54  84  75  65
   2024 04 17 12:00  13 28 17.74    -24 44 32.1   0.0082 1.0119 165.4  m  20?   3.84 141.9   56  83  75  65
   2024 04 17 12:10  13 28 19.44    -24 45 02.1   0.0082 1.0119 165.4  m  20?   3.73 142.5   58  81  75  65
   2024 04 17 12:20  13 28 21.07    -24 45 31.4   0.0082 1.0119 165.4  m  20?   3.63 143.1   60  79  75  66
   2024 04 17 12:30  13 28 22.64    -24 46 00.1   0.0082 1.0119 165.4  m  20?   3.53 143.6   62  77  75  66
   2024 04 17 12:40  13 28 24.14    -24 46 28.2   0.0082 1.0119 165.4  m  20?   3.43 144.0   64  74  75  66
   2024 04 17 12:50  13 28 25.59    -24 46 55.7   0.0082 1.0119 165.4  m  20?   3.34 144.4   66  71  75  66
   2024 04 17 13:00  13 28 26.99    -24 47 22.5   0.0082 1.0119 165.4  m  20?   3.24 144.6   68  68  75  66
   2024 04 17 13:10  13 28 28.34    -24 47 48.7   0.0082 1.0119 165.4  m  20?   3.16 144.8   70  65  75  66
   2024 04 17 13:20  13 28 29.65    -24 48 14.2   0.0082 1.0119 165.4  m  20?   3.07 144.9   72  60  75  66
   2024 04 17 13:30  13 28 30.93    -24 48 39.0   0.0082 1.0119 165.4  m  20?   2.99 144.8   74  55  75  66
   2024 04 17 13:40  13 28 32.18    -24 49 03.1   0.0082 1.0119 165.4  m  20?   2.91 144.6   76  49  74  66
   2024 04 17 13:50  13 28 33.40    -24 49 26.5   0.0082 1.0119 165.4  m  20?   2.83 144.3   77  42  74  66
   2024 04 17 14:00  13 28 34.60    -24 49 49.2   0.0082 1.0119 165.4  m  20?   2.76 143.9   78  33  74  66
   2024 04 17 14:10  13 28 35.79    -24 50 11.2   0.0082 1.0119 165.4  m  20?   2.70 143.2   79  22  74  66
   2024 04 17 14:20  13 28 36.97    -24 50 32.4   0.0082 1.0119 165.4  m  20?   2.63 142.4   80   9  74  66
   2024 04 17 14:30  13 28 38.14    -24 50 53.0   0.0082 1.0119 165.4  t  20?   2.58 141.5   80 355  74  66
   2024 04 17 14:40  13 28 39.32    -24 51 12.8   0.0082 1.0119 165.4  m  20?   2.53 140.4   80 342  74  66
   2024 04 17 14:50  13 28 40.51    -24 51 31.9   0.0082 1.0119 165.4  m  20?   2.48 139.1   79 330  74  66
   2024 04 17 15:00  13 28 41.71    -24 51 50.4   0.0082 1.0119 165.4  m  20?   2.44 137.6   78 320  74  66
   2024 04 17 15:10  13 28 42.92    -24 52 08.0   0.0082 1.0119 165.4  m  20?   2.41 136.0   76 312  74  66
   2024 04 17 15:20  13 28 44.16    -24 52 25.0   0.0082 1.0119 165.3  m  20?   2.38 134.2   75 306  74  66
   2024 04 17 15:30  13 28 45.43    -24 52 41.3   0.0082 1.0119 165.3  m  20?   2.37 132.3   73 300  74  66
   2024 04 17 15:40  13 28 46.73    -24 52 56.9   0.0082 1.0119 165.3     20?   2.36 130.2   71 296  74  67
   2024 04 17 15:50  13 28 48.07    -24 53 11.8   0.0082 1.0119 165.3     20?   2.36 128.1   69 292  74  67
   2024 04 17 16:00  13 28 49.46    -24 53 26.1   0.0082 1.0119 165.3     20?   2.37 125.8   67 289  73  67
   2024 04 17 16:10  13 28 50.89    -24 53 39.6   0.0082 1.0119 165.3     20?   2.39 123.6   65 286  73  67
   2024 04 17 16:20  13 28 52.38    -24 53 52.6   0.0082 1.0120 165.3     20?   2.42 121.3   63 283  73  67
   2024 04 17 16:30  13 28 53.93    -24 54 04.9   0.0082 1.0120 165.3     20?   2.46 119.0   61 281  73  67
   2024 04 17 16:40  13 28 55.54    -24 54 16.5   0.0082 1.0120 165.3     20?   2.51 116.8   59 279  73  67
   2024 04 17 16:50  13 28 57.22    -24 54 27.6   0.0082 1.0120 165.3     20?   2.57 114.7   57 277  73  67
   2024 04 17 17:00  13 28 58.98    -24 54 38.1   0.0082 1.0120 165.3     20?   2.64 112.6   55 275  73  67
   2024 04 17 17:10  13 29 00.81    -24 54 48.0   0.0082 1.0120 165.3     20?   2.72 110.7   53 273  73  67
   2024 04 17 17:20  13 29 02.72    -24 54 57.4   0.0082 1.0120 165.3     20?   2.81 108.8   51 272  73  67
   2024 04 17 17:30  13 29 04.71    -24 55 06.3   0.0082 1.0120 165.3     20?   2.90 107.1   49 270  73  67
   2024 04 17 17:40  13 29 06.80    -24 55 14.6   0.0082 1.0120 165.3     20?   3.01 105.5   47 269  73  67
   2024 04 17 17:50  13 29 08.98    -24 55 22.5   0.0082 1.0120 165.3     20?   3.12 104.0   45 268  73  67
   2024 04 17 18:00  13 29 11.25    -24 55 29.9   0.0082 1.0120 165.3     20?   3.24 102.7   43 266  72  67
   2024 04 17 18:10  13 29 13.62    -24 55 36.9   0.0082 1.0120 165.3     20?   3.37 101.5   41 265  72  68
   2024 04 17 18:20  13 29 16.10    -24 55 43.4   0.0082 1.0120 165.3     20?   3.50 100.4   39 264  72  68
   2024 04 17 18:30  13 29 18.68    -24 55 49.6   0.0082 1.0120 165.3     20?   3.63  99.5   37 262  72  68
   2024 04 17 18:40  13 29 21.36    -24 55 55.4   0.0082 1.0120 165.3     20?   3.77  98.6   35 261  72  68
   2024 04 17 18:50  13 29 24.16    -24 56 01.0   0.0082 1.0120 165.3     20?   3.92  97.8   33 260  72  68
   2024 04 17 19:00  13 29 27.07    -24 56 06.2   0.0082 1.0120 165.3     20?   4.07  97.1   31 259  72  68
   2024 04 17 19:10  13 29 30.10    -24 56 11.1   0.0082 1.0120 165.4     20?   4.22  96.5   29 258  72  68
   2024 04 17 19:20  13 29 33.24    -24 56 15.8   0.0082 1.0120 165.4     20?   4.38  96.0   27 256  72  68
   2024 04 17 19:30  13 29 36.50    -24 56 20.3   0.0082 1.0120 165.4     20?   4.54  95.5   25 255  72  68
   2024 04 17 19:40  13 29 39.88    -24 56 24.6   0.0082 1.0120 165.4     20?   4.70  95.1   23 254  72  68
   2024 04 17 19:50  13 29 43.38    -24 56 28.7   0.0082 1.0120 165.4 A   20?   4.86  94.8   21 253  71  68
   2024 04 17 20:00  13 29 47.00    -24 56 32.8   0.0082 1.0120 165.4 A   20?   5.02  94.5   19 252  71  68
   2024 04 17 20:10  13 29 50.74    -24 56 36.7   0.0082 1.0120 165.4 A   20?   5.19  94.3   17 251  71  69
   2024 04 17 20:20  13 29 54.61    -24 56 40.6   0.0082 1.0120 165.4 N   20?   5.36  94.1   15 249  71  69
   2024 04 17 20:30  13 29 58.60    -24 56 44.4   0.0082 1.0120 165.4 N   20?   5.52  93.9   13 248  71  69
   2024 04 17 20:40  13 30 02.71    -24 56 48.3   0.0082 1.0120 165.4 N   20?   5.69  93.8   11 247  71  69
   2024 04 17 20:50  13 30 06.94    -24 56 52.2   0.0082 1.0120 165.4 C   20?   5.85  93.8    9 246  71  69
   2024 04 17 21:00  13 30 11.30    -24 56 56.1   0.0082 1.0120 165.4 C   20?   6.02  93.7    7 244  71  69
   ................
   2024 04 18 08:20  13 36 54.43    -25 19 54.6   0.0082 1.0121 165.4 Cm  20?   6.72 122.1   11 112  67  73
   2024 04 18 08:30  13 36 58.56    -25 20 30.5   0.0082 1.0121 165.4 Cm  20?   6.59 122.9   13 111  66  73
   2024 04 18 08:40  13 37 02.57    -25 21 06.4   0.0082 1.0121 165.4 Nm  20?   6.45 123.7   15 110  66  73
   2024 04 18 08:50  13 37 06.46    -25 21 42.3   0.0082 1.0121 165.4 Nm  20?   6.31 124.5   17 109  66  74
   2024 04 18 09:00  13 37 10.23    -25 22 18.1   0.0082 1.0121 165.4 Nm  20?   6.17 125.4   19 108  66  74
   2024 04 18 09:10  13 37 13.88    -25 22 53.9   0.0082 1.0121 165.4 Am  20?   6.03 126.2   21 106  66  74
   2024 04 18 09:20  13 37 17.40    -25 23 29.5   0.0082 1.0121 165.4 Am  20?   5.89 127.0   23 105  66  74
   2024 04 18 09:30  13 37 20.80    -25 24 05.0   0.0082 1.0122 165.3 Am  20?   5.75 127.9   25 104  66  74
   2024 04 18 09:40  13 37 24.09    -25 24 40.3   0.0082 1.0122 165.3  m  20?   5.61 128.7   27 103  66  74
   2024 04 18 09:50  13 37 27.26    -25 25 15.4   0.0082 1.0122 165.3  m  20?   5.48 129.6   29 102  66  74
   2024 04 18 10:00  13 37 30.31    -25 25 50.3   0.0082 1.0122 165.3  m  20?   5.34 130.5   31 101  66  74
   2024 04 18 10:10  13 37 33.25    -25 26 24.9   0.0082 1.0122 165.3  m  20?   5.21 131.3   33  99  66  74
   2024 04 18 10:20  13 37 36.07    -25 26 59.2   0.0082 1.0122 165.3  m  20?   5.07 132.2   35  98  66  74
   2024 04 18 10:30  13 37 38.79    -25 27 33.1   0.0082 1.0122 165.3  m  20?   4.94 133.0   37  97  66  74
   2024 04 18 10:40  13 37 41.40    -25 28 06.7   0.0082 1.0122 165.3  m  20?   4.81 133.9   39  96  66  74
   2024 04 18 10:50  13 37 43.90    -25 28 40.0   0.0082 1.0122 165.3  m  20?   4.68 134.7   41  95  66  74
   2024 04 18 11:00  13 37 46.30    -25 29 12.8   0.0082 1.0122 165.3  m  20?   4.56 135.6   43  93  66  74
   2024 04 18 11:10  13 37 48.61    -25 29 45.2   0.0082 1.0122 165.3  m  20?   4.43 136.4   45  92  66  74
   2024 04 18 11:20  13 37 50.81    -25 30 17.1   0.0082 1.0122 165.3  m  20?   4.31 137.2   47  91  66  74
   2024 04 18 11:30  13 37 52.93    -25 30 48.6   0.0082 1.0122 165.3  m  20?   4.19 137.9   49  89  66  74
   2024 04 18 11:40  13 37 54.96    -25 31 19.5   0.0082 1.0122 165.3  m  20?   4.08 138.7   51  88  66  74
   2024 04 18 11:50  13 37 56.90    -25 31 49.9   0.0082 1.0122 165.3  m  20?   3.96 139.4   53  86  66  74
   2024 04 18 12:00  13 37 58.76    -25 32 19.7   0.0082 1.0122 165.3  m  20?   3.85 140.0   56  85  66  74
   2024 04 18 12:10  13 38 00.55    -25 32 49.0   0.0082 1.0122 165.2  m  20?   3.74 140.6   58  83  66  74
   2024 04 18 12:20  13 38 02.26    -25 33 17.7   0.0082 1.0122 165.2  m  20?   3.64 141.2   60  81  66  74
   2024 04 18 12:30  13 38 03.91    -25 33 45.8   0.0082 1.0122 165.2  m  20?   3.53 141.7   62  79  65  74
   2024 04 18 12:40  13 38 05.49    -25 34 13.2   0.0082 1.0122 165.2  m  20?   3.43 142.1   64  77  65  74
   2024 04 18 12:50  13 38 07.01    -25 34 40.0   0.0082 1.0122 165.2  m  20?   3.33 142.5   66  75  65  74
   2024 04 18 13:00  13 38 08.49    -25 35 06.1   0.0082 1.0122 165.2  m  20?   3.24 142.7   68  72  65  74
   2024 04 18 13:10  13 38 09.91    -25 35 31.6   0.0082 1.0122 165.2  m  20?   3.15 142.9   70  69  65  74
   2024 04 18 13:20  13 38 11.29    -25 35 56.4   0.0082 1.0122 165.2  m  20?   3.06 142.9   72  65  65  75
   2024 04 18 13:30  13 38 12.63    -25 36 20.4   0.0082 1.0122 165.2  m  20?   2.97 142.9   73  61  65  75
   2024 04 18 13:40  13 38 13.93    -25 36 43.8   0.0082 1.0122 165.2  m  20?   2.89 142.7   75  55  65  75
   2024 04 18 13:50  13 38 15.21    -25 37 06.5   0.0082 1.0122 165.2  m  20?   2.81 142.4   77  49  65  75
   2024 04 18 14:00  13 38 16.47    -25 37 28.4   0.0082 1.0122 165.2  m  20?   2.74 141.9   78  40  65  75
   2024 04 18 14:10  13 38 17.70    -25 37 49.6   0.0082 1.0122 165.2  m  20?   2.67 141.2   79  30  65  75
   2024 04 18 14:20  13 38 18.93    -25 38 10.0   0.0082 1.0122 165.2  m  20?   2.60 140.5   80  18  65  75
   2024 04 18 14:30  13 38 20.15    -25 38 29.8   0.0082 1.0122 165.2  m  20?   2.54 139.5   81   3  65  75
   2024 04 18 14:40  13 38 21.37    -25 38 48.8   0.0082 1.0122 165.2  t  20?   2.49 138.4   81 349  65  75
   2024 04 18 14:50  13 38 22.59    -25 39 07.0   0.0082 1.0122 165.2  m  20?   2.44 137.0   80 335  65  75
   2024 04 18 15:00  13 38 23.82    -25 39 24.5   0.0082 1.0122 165.2  m  20?   2.40 135.6   79 324  65  75
   2024 04 18 15:10  13 38 25.07    -25 39 41.3   0.0082 1.0122 165.2  m  20?   2.36 133.9   78 314  65  75
   2024 04 18 15:20  13 38 26.34    -25 39 57.4   0.0082 1.0122 165.2  m  20?   2.34 132.1   76 307  64  75
   2024 04 18 15:30  13 38 27.63    -25 40 12.7   0.0082 1.0122 165.2  m  20?   2.32 130.1   74 301  64  75
   2024 04 18 15:40  13 38 28.96    -25 40 27.3   0.0082 1.0122 165.2  m  20?   2.31 128.1   73 296  64  75
   2024 04 18 15:50  13 38 30.32    -25 40 41.2   0.0082 1.0122 165.2  m  20?   2.31 125.9   71 292  64  75
   2024 04 18 16:00  13 38 31.72    -25 40 54.4   0.0082 1.0122 165.2  m  20?   2.32 123.6   69 288  64  75
   2024 04 18 16:10  13 38 33.17    -25 41 07.0   0.0082 1.0122 165.2  m  20?   2.34 121.3   67 285  64  75
   2024 04 18 16:20  13 38 34.67    -25 41 18.8   0.0082 1.0122 165.2  m  20?   2.37 119.0   65 283  64  75
   2024 04 18 16:30  13 38 36.23    -25 41 30.0   0.0082 1.0122 165.2  m  20?   2.40 116.7   63 281  64  75
   2024 04 18 16:40  13 38 37.85    -25 41 40.5   0.0082 1.0122 165.2     20?   2.45 114.5   61 278  64  75
   2024 04 18 16:50  13 38 39.53    -25 41 50.5   0.0082 1.0122 165.2     20?   2.51 112.4   59 277  64  76
   2024 04 18 17:00  13 38 41.29    -25 41 59.8   0.0082 1.0122 165.2     20?   2.58 110.3   57 275  64  76
   2024 04 18 17:10  13 38 43.11    -25 42 08.5   0.0082 1.0122 165.2     20?   2.66 108.3   55 273  64  76
   2024 04 18 17:20  13 38 45.02    -25 42 16.6   0.0082 1.0122 165.2     20?   2.75 106.5   53 272  64  76
   2024 04 18 17:30  13 38 47.01    -25 42 24.2   0.0082 1.0122 165.2     20?   2.85 104.8   51 270  64  76
   2024 04 18 17:40  13 38 49.09    -25 42 31.3   0.0082 1.0122 165.2     20?   2.95 103.2   48 269  63  76
   2024 04 18 17:50  13 38 51.26    -25 42 37.8   0.0082 1.0122 165.2     20?   3.06 101.8   46 267  63  76
   2024 04 18 18:00  13 38 53.53    -25 42 43.9   0.0082 1.0123 165.2     20?   3.18 100.5   44 266  63  76
   2024 04 18 18:10  13 38 55.89    -25 42 49.5   0.0082 1.0123 165.2     20?   3.30  99.3   42 265  63  76
   2024 04 18 18:20  13 38 58.35    -25 42 54.7   0.0082 1.0123 165.2     20?   3.43  98.3   40 263  63  76
   2024 04 18 18:30  13 39 00.92    -25 42 59.4   0.0082 1.0123 165.2     20?   3.57  97.3   38 262  63  76
   2024 04 18 18:40  13 39 03.59    -25 43 03.8   0.0082 1.0123 165.2     20?   3.71  96.5   36 261  63  76
   2024 04 18 18:50  13 39 06.37    -25 43 07.9   0.0082 1.0123 165.2     20?   3.85  95.7   34 260  63  76
   2024 04 18 19:00  13 39 09.27    -25 43 11.6   0.0082 1.0123 165.2     20?   4.00  95.0   32 259  63  76
   2024 04 18 19:10  13 39 12.27    -25 43 15.0   0.0082 1.0123 165.2     20?   4.16  94.5   30 258  63  76
   2024 04 18 19:20  13 39 15.40    -25 43 18.2   0.0082 1.0123 165.2     20?   4.31  94.0   28 256  63  76
   2024 04 18 19:30  13 39 18.64    -25 43 21.1   0.0082 1.0123 165.2     20?   4.47  93.6   26 255  63  77
   2024 04 18 19:40  13 39 22.00    -25 43 23.8   0.0082 1.0123 165.2     20?   4.63  93.2   24 254  62  77
   2024 04 18 19:50  13 39 25.48    -25 43 26.4   0.0082 1.0123 165.2 A   20?   4.79  92.9   22 253  62  77
   2024 04 18 20:00  13 39 29.08    -25 43 28.8   0.0082 1.0123 165.2 A   20?   4.96  92.6   20 252  62  77
   2024 04 18 20:10  13 39 32.81    -25 43 31.1   0.0082 1.0123 165.2 A   20?   5.12  92.5   18 251  62  77
   2024 04 18 20:20  13 39 36.65    -25 43 33.3   0.0082 1.0123 165.2 N   20?   5.29  92.3   16 249  62  77
   2024 04 18 20:30  13 39 40.62    -25 43 35.5   0.0082 1.0123 165.2 N   20?   5.45  92.2   14 248  62  77
   2024 04 18 20:40  13 39 44.72    -25 43 37.6   0.0082 1.0123 165.2 N   20?   5.62  92.1   12 247  62  77
   2024 04 18 20:50  13 39 48.93    -25 43 39.8   0.0082 1.0123 165.2 C   20?   5.79  92.1   11 246  62  77
   2024 04 18 21:00  13 39 53.27    -25 43 42.0   0.0082 1.0123 165.2 C   20?   5.95  92.1    9 244  62  77
   ................
   2024 04 19 08:20  13 46 40.45    -26 04 55.2   0.0083 1.0124 165.1 Cm  20?   6.78 120.9   11 114  57  81
   2024 04 19 08:30  13 46 44.70    -26 05 30.2   0.0083 1.0124 165.1 Cm  20?   6.64 121.7   12 113  57  81
   2024 04 19 08:40  13 46 48.83    -26 06 05.3   0.0083 1.0124 165.1 Nm  20?   6.51 122.5   14 111  57  81
   2024 04 19 08:50  13 46 52.84    -26 06 40.3   0.0083 1.0124 165.1 Nm  20?   6.36 123.2   16 110  57  81
   2024 04 19 09:00  13 46 56.72    -26 07 15.2   0.0083 1.0124 165.1 Nm  20?   6.22 124.0   18 109  57  81
   2024 04 19 09:10  13 47 00.49    -26 07 50.1   0.0083 1.0124 165.1 Am  20?   6.08 124.8   20 108  57  81
   2024 04 19 09:20  13 47 04.13    -26 08 25.0   0.0083 1.0124 165.1 Am  20?   5.94 125.7   22 107  57  82
   2024 04 19 09:30  13 47 07.65    -26 08 59.6   0.0082 1.0124 165.1 Am  20?   5.80 126.5   24 106  57  82
   2024 04 19 09:40  13 47 11.05    -26 09 34.1   0.0082 1.0124 165.1  m  20?   5.66 127.3   26 104  57  82
   2024 04 19 09:50  13 47 14.33    -26 10 08.4   0.0082 1.0124 165.1  m  20?   5.52 128.1   28 103  57  82
   2024 04 19 10:00  13 47 17.49    -26 10 42.5   0.0082 1.0124 165.1  m  20?   5.39 129.0   30 102  57  82
   2024 04 19 10:10  13 47 20.54    -26 11 16.3   0.0082 1.0124 165.0  m  20?   5.25 129.8   32 101  57  82
   2024 04 19 10:20  13 47 23.47    -26 11 49.9   0.0082 1.0124 165.0  m  20?   5.11 130.6   34 100  57  82
   2024 04 19 10:30  13 47 26.30    -26 12 23.1   0.0082 1.0124 165.0  m  20?   4.98 131.5   36  99  57  82
   2024 04 19 10:40  13 47 29.01    -26 12 56.0   0.0082 1.0124 165.0  m  20?   4.85 132.3   38  97  57  82
   2024 04 19 10:50  13 47 31.61    -26 13 28.5   0.0082 1.0124 165.0  m  20?   4.72 133.1   40  96  57  82
   2024 04 19 11:00  13 47 34.12    -26 14 00.5   0.0082 1.0125 165.0  m  20?   4.59 133.9   42  95  57  82
   2024 04 19 11:10  13 47 36.52    -26 14 32.2   0.0082 1.0125 165.0  m  20?   4.46 134.7   44  94  57  82
   2024 04 19 11:20  13 47 38.82    -26 15 03.4   0.0082 1.0125 165.0  m  20?   4.34 135.5   46  93  56  82
   2024 04 19 11:30  13 47 41.03    -26 15 34.1   0.0082 1.0125 165.0  m  20?   4.21 136.2   48  91  56  82
   2024 04 19 11:40  13 47 43.15    -26 16 04.3   0.0082 1.0125 165.0  m  20?   4.09 136.9   50  90  56  82
   2024 04 19 11:50  13 47 45.18    -26 16 34.0   0.0082 1.0125 165.0  m  20?   3.97 137.6   53  89  56  82
   2024 04 19 12:00  13 47 47.13    -26 17 03.1   0.0082 1.0125 165.0  m  20?   3.86 138.2   55  87  56  82
   2024 04 19 12:10  13 47 48.99    -26 17 31.7   0.0082 1.0125 165.0  m  20?   3.75 138.8   57  85  56  82
   2024 04 19 12:20  13 47 50.79    -26 17 59.6   0.0082 1.0125 165.0  m  20?   3.64 139.4   59  84  56  82
   2024 04 19 12:30  13 47 52.51    -26 18 27.0   0.0082 1.0125 165.0  m  20?   3.53 139.8   61  82  56  82
   2024 04 19 12:40  13 47 54.17    -26 18 53.7   0.0082 1.0125 165.0  m  20?   3.42 140.2   63  80  56  82
   2024 04 19 12:50  13 47 55.76    -26 19 19.7   0.0082 1.0125 165.0  m  20?   3.32 140.6   65  78  56  82
   2024 04 19 13:00  13 47 57.30    -26 19 45.1   0.0082 1.0125 164.9  m  20?   3.22 140.8   67  75  56  82
   2024 04 19 13:10  13 47 58.79    -26 20 09.8   0.0082 1.0125 164.9  m  20?   3.13 141.0   69  72  56  82
   2024 04 19 13:20  13 48 00.23    -26 20 33.8   0.0082 1.0125 164.9  m  20?   3.04 141.0   71  69  56  82
   2024 04 19 13:30  13 48 01.62    -26 20 57.1   0.0082 1.0125 164.9  m  20?   2.95 140.9   73  65  56  82
   2024 04 19 13:40  13 48 02.99    -26 21 19.6   0.0082 1.0125 164.9  m  20?   2.86 140.7   75  61  56  82
   2024 04 19 13:50  13 48 04.32    -26 21 41.5   0.0082 1.0125 164.9  m  20?   2.78 140.4   76  55  56  82
   2024 04 19 14:00  13 48 05.62    -26 22 02.6   0.0082 1.0125 164.9  m  20?   2.70 139.9   78  48  56  82
   2024 04 19 14:10  13 48 06.90    -26 22 22.9   0.0082 1.0125 164.9  m  20?   2.63 139.3   79  39  56  82
   2024 04 19 14:20  13 48 08.17    -26 22 42.5   0.0082 1.0125 164.9  m  20?   2.56 138.5   81  27  56  82
   2024 04 19 14:30  13 48 09.43    -26 23 01.4   0.0082 1.0125 164.9  m  20?   2.50 137.5   81  13  56  83
   2024 04 19 14:40  13 48 10.68    -26 23 19.5   0.0082 1.0125 164.9  t  20?   2.44 136.3   81 357  55  83
   2024 04 19 14:50  13 48 11.94    -26 23 36.8   0.0082 1.0125 164.9  m  20?   2.39 135.0   81 342  55  83
   2024 04 19 15:00  13 48 13.20    -26 23 53.4   0.0082 1.0125 164.9  m  20?   2.35 133.5   80 328  55  83
   2024 04 19 15:10  13 48 14.47    -26 24 09.3   0.0082 1.0125 164.9  m  20?   2.31 131.8   79 317  55  83
   2024 04 19 15:20  13 48 15.76    -26 24 24.4   0.0082 1.0125 164.9  m  20?   2.28 130.0   78 309  55  83
   2024 04 19 15:30  13 48 17.08    -26 24 38.7   0.0082 1.0125 164.9  m  20?   2.26 128.0   76 302  55  83
   2024 04 19 15:40  13 48 18.42    -26 24 52.3   0.0082 1.0125 164.9  m  20?   2.25 125.9   74 297  55  83
   2024 04 19 15:50  13 48 19.79    -26 25 05.2   0.0082 1.0125 164.9  m  20?   2.25 123.7   72 292  55  83
   2024 04 19 16:00  13 48 21.20    -26 25 17.3   0.0082 1.0125 164.9  m  20?   2.26 121.4   70 289  55  83
   2024 04 19 16:10  13 48 22.66    -26 25 28.8   0.0082 1.0125 164.9  m  20?   2.28 119.0   68 285  55  83
   2024 04 19 16:20  13 48 24.17    -26 25 39.5   0.0082 1.0125 164.9  m  20?   2.31 116.7   66 283  55  83
   2024 04 19 16:30  13 48 25.73    -26 25 49.6   0.0082 1.0125 164.9  m  20?   2.34 114.4   64 280  55  83
   2024 04 19 16:40  13 48 27.34    -26 25 59.0   0.0082 1.0125 164.9  m  20?   2.39 112.1   62 278  55  83
   2024 04 19 16:50  13 48 29.02    -26 26 07.7   0.0082 1.0125 164.9  m  20?   2.45 110.0   60 276  55  83
   2024 04 19 17:00  13 48 30.77    -26 26 15.8   0.0082 1.0125 164.9  m  20?   2.52 107.9   58 274  55  83
   2024 04 19 17:10  13 48 32.60    -26 26 23.3   0.0082 1.0125 164.9  m  20?   2.60 105.9   56 273  54  83
   2024 04 19 17:20  13 48 34.49    -26 26 30.2   0.0082 1.0125 164.9  m  20?   2.69 104.1   54 271  54  83
   2024 04 19 17:30  13 48 36.47    -26 26 36.5   0.0082 1.0125 164.9     20?   2.78 102.4   52 270  54  83
   2024 04 19 17:40  13 48 38.54    -26 26 42.3   0.0082 1.0125 164.9     20?   2.88 100.9   50 268  54  83
   2024 04 19 17:50  13 48 40.69    -26 26 47.5   0.0082 1.0125 164.9     20?   2.99  99.5   48 267  54  83
   2024 04 19 18:00  13 48 42.94    -26 26 52.2   0.0082 1.0125 164.9     20?   3.11  98.2   46 266  54  83
   2024 04 19 18:10  13 48 45.28    -26 26 56.5   0.0082 1.0125 164.9     20?   3.24  97.0   44 265  54  83
   2024 04 19 18:20  13 48 47.72    -26 27 00.2   0.0082 1.0125 164.9     20?   3.37  96.0   42 263  54  84
   2024 04 19 18:30  13 48 50.26    -26 27 03.6   0.0082 1.0125 164.9     20?   3.50  95.1   40 262  54  84
   2024 04 19 18:40  13 48 52.91    -26 27 06.5   0.0082 1.0125 164.9     20?   3.64  94.3   38 261  54  84
   2024 04 19 18:50  13 48 55.67    -26 27 09.1   0.0083 1.0125 164.9     20?   3.78  93.5   36 260  54  84
   2024 04 19 19:00  13 48 58.54    -26 27 11.3   0.0083 1.0125 164.9     20?   3.93  92.9   34 259  54  84
   2024 04 19 19:10  13 49 01.52    -26 27 13.2   0.0083 1.0125 164.9     20?   4.08  92.4   32 257  54  84
   2024 04 19 19:20  13 49 04.62    -26 27 14.8   0.0083 1.0125 164.9     20?   4.24  91.9   30 256  53  84
   2024 04 19 19:30  13 49 07.83    -26 27 16.2   0.0083 1.0126 164.9     20?   4.40  91.5   28 255  53  84
   2024 04 19 19:40  13 49 11.16    -26 27 17.3   0.0083 1.0126 164.9     20?   4.56  91.2   26 254  53  84
   2024 04 19 19:50  13 49 14.61    -26 27 18.2   0.0083 1.0126 164.9 A   20?   4.72  91.0   24 253  53  84
   2024 04 19 20:00  13 49 18.18    -26 27 19.0   0.0083 1.0126 164.9 A   20?   4.88  90.7   22 252  53  84
   2024 04 19 20:10  13 49 21.88    -26 27 19.6   0.0083 1.0126 164.9 A   20?   5.04  90.6   20 251  53  84
   2024 04 19 20:20  13 49 25.70    -26 27 20.2   0.0083 1.0126 164.9 N   20?   5.21  90.5   18 249  53  84
   2024 04 19 20:30  13 49 29.64    -26 27 20.6   0.0083 1.0126 164.9 N   20?   5.38  90.4   16 248  53  84
   2024 04 19 20:40  13 49 33.70    -26 27 21.1   0.0083 1.0126 164.9 N   20?   5.54  90.4   14 247  53  84
   2024 04 19 20:50  13 49 37.89    -26 27 21.5   0.0083 1.0126 164.9 C   20?   5.71  90.4   12 246  53  84
   2024 04 19 21:00  13 49 42.20    -26 27 22.0   0.0083 1.0126 164.9 C   20?   5.87  90.4   10 245  53  84
   ................
   2024 04 20 08:20  13 56 32.61    -26 46 43.9   0.0083 1.0127 164.8 Cm  20?   6.83 119.7   10 115  48  88
   2024 04 20 08:30  13 56 36.97    -26 47 17.9   0.0083 1.0127 164.8 Cm  20?   6.69 120.4   12 114  48  88
   2024 04 20 08:40  13 56 41.21    -26 47 51.9   0.0083 1.0127 164.7 Nm  20?   6.55 121.2   14 113  48  88
   2024 04 20 08:50  13 56 45.33    -26 48 25.9   0.0083 1.0127 164.7 Nm  20?   6.41 121.9   15 111  48  88
   2024 04 20 09:00  13 56 49.33    -26 48 59.9   0.0083 1.0127 164.7 Nm  20?   6.27 122.7   17 110  48  88
   2024 04 20 09:10  13 56 53.20    -26 49 33.9   0.0083 1.0127 164.7 Am  20?   6.13 123.5   19 109  48  88
   2024 04 20 09:20  13 56 56.95    -26 50 07.7   0.0083 1.0127 164.7 Am  20?   5.98 124.3   21 108  48  88
   2024 04 20 09:30  13 57 00.58    -26 50 41.5   0.0083 1.0127 164.7 Am  20?   5.84 125.1   23 107  48  88
   2024 04 20 09:40  13 57 04.09    -26 51 15.1   0.0083 1.0127 164.7  m  20?   5.70 125.9   25 106  48  88
   2024 04 20 09:50  13 57 07.47    -26 51 48.5   0.0083 1.0127 164.7  m  20?   5.56 126.7   27 105  48  88
   2024 04 20 10:00  13 57 10.74    -26 52 21.7   0.0083 1.0127 164.7  m  20?   5.42 127.5   29 103  48  88
   2024 04 20 10:10  13 57 13.89    -26 52 54.6   0.0083 1.0127 164.7  m  20?   5.28 128.3   31 102  47  88
   2024 04 20 10:20  13 57 16.93    -26 53 27.3   0.0083 1.0127 164.7  m  20?   5.14 129.1   33 101  47  88
   2024 04 20 10:30  13 57 19.85    -26 53 59.6   0.0083 1.0127 164.7  m  20?   5.01 129.9   35 100  47  88
   2024 04 20 10:40  13 57 22.66    -26 54 31.7   0.0083 1.0127 164.7  m  20?   4.87 130.7   37  99  47  88
   2024 04 20 10:50  13 57 25.36    -26 55 03.3   0.0083 1.0127 164.7  m  20?   4.74 131.5   39  98  47  88
   2024 04 20 11:00  13 57 27.96    -26 55 34.6   0.0083 1.0127 164.6  m  20?   4.61 132.3   41  97  47  88
   2024 04 20 11:10  13 57 30.45    -26 56 05.4   0.0083 1.0127 164.6  m  20?   4.48 133.0   43  95  47  89
   2024 04 20 11:20  13 57 32.85    -26 56 35.8   0.0083 1.0127 164.6  m  20?   4.35 133.8   45  94  47  89
   2024 04 20 11:30  13 57 35.14    -26 57 05.7   0.0083 1.0127 164.6  m  20?   4.22 134.5   47  93  47  89
   2024 04 20 11:40  13 57 37.35    -26 57 35.1   0.0083 1.0127 164.6  m  20?   4.10 135.2   50  92  47  89
   2024 04 20 11:50  13 57 39.46    -26 58 04.0   0.0083 1.0127 164.6  m  20?   3.98 135.8   52  90  47  89
   2024 04 20 12:00  13 57 41.49    -26 58 32.3   0.0083 1.0127 164.6  m  20?   3.86 136.4   54  89  47  89
   2024 04 20 12:10  13 57 43.43    -26 59 00.0   0.0083 1.0127 164.6  m  20?   3.74 137.0   56  88  47  89
   2024 04 20 12:20  13 57 45.30    -26 59 27.2   0.0083 1.0127 164.6  m  20?   3.63 137.5   58  86  47  89
   2024 04 20 12:30  13 57 47.09    -26 59 53.7   0.0083 1.0127 164.6  m  20?   3.52 138.0   60  84  47  89
   2024 04 20 12:40  13 57 48.82    -27 00 19.6   0.0083 1.0128 164.6  m  20?   3.41 138.4   62  83  47  89
   2024 04 20 12:50  13 57 50.48    -27 00 44.8   0.0083 1.0128 164.6  m  20?   3.31 138.7   64  81  47  89
   2024 04 20 13:00  13 57 52.08    -27 01 09.4   0.0083 1.0128 164.6  m  20?   3.21 138.9   66  78  47  89
   2024 04 20 13:10  13 57 53.62    -27 01 33.2   0.0083 1.0128 164.6  m  20?   3.11 139.1   68  76  47  89
   2024 04 20 13:20  13 57 55.12    -27 01 56.4   0.0083 1.0128 164.6  m  20?   3.01 139.1   70  73  47  89
   2024 04 20 13:30  13 57 56.57    -27 02 18.8   0.0083 1.0128 164.6  m  20?   2.92 139.0   72  70  47  89
   2024 04 20 13:40  13 57 57.98    -27 02 40.5   0.0083 1.0128 164.6  m  20?   2.83 138.8   74  66  47  89
   2024 04 20 13:50  13 57 59.36    -27 03 01.5   0.0083 1.0128 164.6  m  20?   2.75 138.5   76  61  46  89
   2024 04 20 14:00  13 58 00.70    -27 03 21.7   0.0083 1.0128 164.6  m  20?   2.67 138.0   77  55  46  89
   2024 04 20 14:10  13 58 02.03    -27 03 41.2   0.0083 1.0128 164.6  m  20?   2.59 137.3   79  47  46  89
   2024 04 20 14:20  13 58 03.33    -27 03 59.9   0.0083 1.0128 164.6  m  20?   2.52 136.5   80  37  46  89
   2024 04 20 14:30  13 58 04.62    -27 04 17.9   0.0083 1.0128 164.6  m  20?   2.46 135.5   82  23  46  89
   2024 04 20 14:40  13 58 05.90    -27 04 35.0   0.0083 1.0128 164.5  m  20?   2.40 134.3   82   7  46  89
   2024 04 20 14:50  13 58 07.18    -27 04 51.4   0.0083 1.0128 164.5  t  20?   2.34 133.0   82 350  46  89
   2024 04 20 15:00  13 58 08.47    -27 05 07.1   0.0083 1.0128 164.5  m  20?   2.30 131.4   81 334  46  89
   2024 04 20 15:10  13 58 09.76    -27 05 21.9   0.0083 1.0128 164.5  m  20?   2.26 129.7   80 321  46  89
   2024 04 20 15:20  13 58 11.07    -27 05 36.0   0.0083 1.0128 164.5  m  20?   2.23 127.8   79 311  46  89
   2024 04 20 15:30  13 58 12.39    -27 05 49.4   0.0083 1.0128 164.5  m  20?   2.21 125.8   77 303  46  89
   2024 04 20 15:40  13 58 13.75    -27 06 01.9   0.0083 1.0128 164.5  m  20?   2.19 123.7   76 297  46  89
   2024 04 20 15:50  13 58 15.13    -27 06 13.8   0.0083 1.0128 164.5  m  20?   2.19 121.4   74 293  46  89
   2024 04 20 16:00  13 58 16.54    -27 06 24.8   0.0083 1.0128 164.5  m  20?   2.20 119.1   72 289  46  89
   2024 04 20 16:10  13 58 18.00    -27 06 35.2   0.0083 1.0128 164.5  m  20?   2.21 116.7   70 285  46  89
   2024 04 20 16:20  13 58 19.50    -27 06 44.8   0.0083 1.0128 164.5  m  20?   2.24 114.3   68 283  46  89
   2024 04 20 16:30  13 58 21.06    -27 06 53.7   0.0083 1.0128 164.5  m  20?   2.28 112.0   66 280  46  89
   2024 04 20 16:40  13 58 22.67    -27 07 02.0   0.0083 1.0128 164.5  m  20?   2.33 109.7   64 278  45  89
   2024 04 20 16:50  13 58 24.34    -27 07 09.5   0.0083 1.0128 164.5  m  20?   2.39 107.5   62 276  45  89
   2024 04 20 17:00  13 58 26.08    -27 07 16.4   0.0083 1.0128 164.5  m  20?   2.45 105.4   60 274  45  89
   2024 04 20 17:10  13 58 27.88    -27 07 22.7   0.0083 1.0128 164.5  m  20?   2.53 103.5   58 273  45  90
   2024 04 20 17:20  13 58 29.76    -27 07 28.3   0.0083 1.0128 164.5  m  20?   2.62 101.6   56 271  45  90
   2024 04 20 17:30  13 58 31.72    -27 07 33.4   0.0083 1.0128 164.5  m  20?   2.71 100.0   54 270  45  90
   2024 04 20 17:40  13 58 33.76    -27 07 37.8   0.0083 1.0128 164.5  m  20?   2.81  98.4   51 268  45  90
   2024 04 20 17:50  13 58 35.89    -27 07 41.7   0.0083 1.0128 164.5  m  20?   2.92  97.0   49 267  45  90
   2024 04 20 18:00  13 58 38.11    -27 07 45.1   0.0083 1.0128 164.5  m  20?   3.04  95.8   47 266  45  90
   2024 04 20 18:10  13 58 40.43    -27 07 47.9   0.0083 1.0128 164.5  m  20?   3.16  94.7   45 264  45  90
   2024 04 20 18:20  13 58 42.84    -27 07 50.3   0.0083 1.0128 164.5  m  20?   3.29  93.6   43 263  45  90
   2024 04 20 18:30  13 58 45.35    -27 07 52.2   0.0083 1.0128 164.5     20?   3.43  92.8   41 262  45  90
   2024 04 20 18:40  13 58 47.96    -27 07 53.7   0.0083 1.0128 164.5     20?   3.57  92.0   39 261  45  90
   2024 04 20 18:50  13 58 50.69    -27 07 54.8   0.0083 1.0128 164.6     20?   3.71  91.3   37 260  45  90
   2024 04 20 19:00  13 58 53.52    -27 07 55.5   0.0083 1.0128 164.6     20?   3.86  90.7   35 259  45  90
   2024 04 20 19:10  13 58 56.46    -27 07 55.9   0.0083 1.0128 164.6     20?   4.01  90.2   33 257  44  90
   2024 04 20 19:20  13 58 59.52    -27 07 55.9   0.0083 1.0128 164.6     20?   4.16  89.8   31 256  44  90
   2024 04 20 19:30  13 59 02.70    -27 07 55.7   0.0083 1.0128 164.6     20?   4.32  89.5   29 255  44  90
   2024 04 20 19:40  13 59 05.99    -27 07 55.2   0.0083 1.0128 164.6     20?   4.47  89.2   27 254  44  90
   2024 04 20 19:50  13 59 09.40    -27 07 54.5   0.0083 1.0128 164.6 A   20?   4.64  89.0   25 253  44  90
   2024 04 20 20:00  13 59 12.93    -27 07 53.7   0.0083 1.0128 164.6 A   20?   4.80  88.8   23 252  44  90
   2024 04 20 20:10  13 59 16.59    -27 07 52.6   0.0083 1.0128 164.6 A   20?   4.96  88.7   21 251  44  90
   2024 04 20 20:20  13 59 20.36    -27 07 51.5   0.0083 1.0128 164.6 N   20?   5.13  88.6   19 249  44  90
   2024 04 20 20:30  13 59 24.26    -27 07 50.2   0.0083 1.0128 164.6 N   20?   5.29  88.5   17 248  44  90
   2024 04 20 20:40  13 59 28.29    -27 07 49.0   0.0083 1.0128 164.6 N   20?   5.46  88.5   15 247  44  90
   2024 04 20 20:50  13 59 32.43    -27 07 47.6   0.0083 1.0128 164.6 C   20?   5.62  88.6   14 246  44  90
   2024 04 20 21:00  13 59 36.71    -27 07 46.3   0.0083 1.0128 164.6 C   20?   5.79  88.6   12 245  44  90
   ................
   2024 04 21 08:20  14 06 29.47    -27 25 11.8   0.0083 1.0130 164.3 Cm  20?   6.86 118.4    9 116  39  93
   2024 04 21 08:30  14 06 33.94    -27 25 44.6   0.0083 1.0130 164.3 Cm  20?   6.72 119.1   11 115  39  93
   2024 04 21 08:40  14 06 38.29    -27 26 17.5   0.0083 1.0130 164.3 Nm  20?   6.58 119.9   13 114  39  93
   2024 04 21 08:50  14 06 42.51    -27 26 50.4   0.0083 1.0130 164.3 Nm  20?   6.44 120.6   15 113  39  93
   2024 04 21 09:00  14 06 46.61    -27 27 23.3   0.0083 1.0130 164.3 Nm  20?   6.30 121.3   17 112  39  93
   2024 04 21 09:10  14 06 50.58    -27 27 56.2   0.0083 1.0130 164.3 Am  20?   6.16 122.1   18 110  39  93
   2024 04 21 09:20  14 06 54.43    -27 28 29.0   0.0083 1.0130 164.3 Am  20?   6.01 122.9   20 109  38  94
   2024 04 21 09:30  14 06 58.16    -27 29 01.7   0.0083 1.0130 164.3 Am  20?   5.87 123.6   22 108  38  94
   2024 04 21 09:40  14 07 01.77    -27 29 34.3   0.0083 1.0130 164.3  m  20?   5.73 124.4   24 107  38  94
   2024 04 21 09:50  14 07 05.25    -27 30 06.7   0.0083 1.0130 164.2  m  20?   5.59 125.2   26 106  38  94
   2024 04 21 10:00  14 07 08.62    -27 30 38.9   0.0083 1.0130 164.2  m  20?   5.44 126.0   28 105  38  94
   2024 04 21 10:10  14 07 11.86    -27 31 10.9   0.0083 1.0130 164.2  m  20?   5.30 126.8   30 104  38  94
   2024 04 21 10:20  14 07 14.99    -27 31 42.6   0.0083 1.0130 164.2  m  20?   5.16 127.6   32 103  38  94
   2024 04 21 10:30  14 07 18.01    -27 32 14.0   0.0083 1.0130 164.2  m  20?   5.02 128.3   34 102  38  94
   2024 04 21 10:40  14 07 20.91    -27 32 45.0   0.0083 1.0130 164.2  m  20?   4.89 129.1   36 100  38  94
   2024 04 21 10:50  14 07 23.70    -27 33 15.8   0.0083 1.0130 164.2  m  20?   4.75 129.9   38  99  38  94
   2024 04 21 11:00  14 07 26.38    -27 33 46.1   0.0083 1.0130 164.2  m  20?   4.62 130.6   40  98  38  94
   2024 04 21 11:10  14 07 28.96    -27 34 16.0   0.0083 1.0130 164.2  m  20?   4.48 131.4   42  97  38  94
   2024 04 21 11:20  14 07 31.44    -27 34 45.5   0.0083 1.0130 164.2  m  20?   4.35 132.1   44  96  38  94
   2024 04 21 11:30  14 07 33.81    -27 35 14.5   0.0083 1.0130 164.2  m  20?   4.23 132.8   46  95  38  94
   2024 04 21 11:40  14 07 36.09    -27 35 43.0   0.0083 1.0130 164.2  m  20?   4.10 133.4   49  93  38  94
   2024 04 21 11:50  14 07 38.28    -27 36 11.0   0.0083 1.0130 164.2  m  20?   3.97 134.1   51  92  38  94
   2024 04 21 12:00  14 07 40.38    -27 36 38.4   0.0083 1.0130 164.2  m  20?   3.85 134.7   53  91  38  94
   2024 04 21 12:10  14 07 42.40    -27 37 05.3   0.0083 1.0130 164.2  m  20?   3.73 135.2   55  89  38  94
   2024 04 21 12:20  14 07 44.33    -27 37 31.6   0.0083 1.0130 164.2  m  20?   3.62 135.7   57  88  38  94
   2024 04 21 12:30  14 07 46.19    -27 37 57.2   0.0083 1.0130 164.1  m  20?   3.50 136.2   59  86  38  94
   2024 04 21 12:40  14 07 47.98    -27 38 22.2   0.0083 1.0130 164.1  m  20?   3.39 136.5   61  85  38  94
   2024 04 21 12:50  14 07 49.70    -27 38 46.6   0.0083 1.0130 164.1  m  20?   3.28 136.8   63  83  37  94
   2024 04 21 13:00  14 07 51.35    -27 39 10.2   0.0083 1.0130 164.1  m  20?   3.18 137.1   65  81  37  94
   2024 04 21 13:10  14 07 52.95    -27 39 33.2   0.0083 1.0130 164.1  m  20?   3.08 137.2   67  79  37  94
   2024 04 21 13:20  14 07 54.50    -27 39 55.5   0.0083 1.0130 164.1  m  20?   2.98 137.2   69  76  37  94
   2024 04 21 13:30  14 07 56.00    -27 40 17.0   0.0083 1.0130 164.1  m  20?   2.89 137.1   71  74  37  94
   2024 04 21 13:40  14 07 57.45    -27 40 37.8   0.0083 1.0130 164.1  m  20?   2.79 136.9   73  70  37  94
   2024 04 21 13:50  14 07 58.86    -27 40 57.9   0.0083 1.0130 164.1  m  20?   2.71 136.5   75  66  37  94
   2024 04 21 14:00  14 08 00.25    -27 41 17.2   0.0083 1.0130 164.1  m  20?   2.62 136.0   77  61  37  94
   2024 04 21 14:10  14 08 01.60    -27 41 35.7   0.0083 1.0130 164.1  m  20?   2.55 135.4   79  54  37  94
   2024 04 21 14:20  14 08 02.94    -27 41 53.5   0.0083 1.0131 164.1  m  20?   2.47 134.5   80  46  37  94
   2024 04 21 14:30  14 08 04.25    -27 42 10.5   0.0083 1.0131 164.1  m  20?   2.41 133.5   81  34  37  94
   2024 04 21 14:40  14 08 05.56    -27 42 26.7   0.0083 1.0131 164.1  m  20?   2.34 132.3   82  19  37  94
   2024 04 21 14:50  14 08 06.86    -27 42 42.1   0.0083 1.0131 164.1  m  20?   2.29 130.9   83   1  37  94
   2024 04 21 15:00  14 08 08.16    -27 42 56.8   0.0083 1.0131 164.1  t  20?   2.24 129.4   82 342  37  94
   2024 04 21 15:10  14 08 09.47    -27 43 10.6   0.0083 1.0131 164.1  m  20?   2.20 127.6   82 326  37  94
   2024 04 21 15:20  14 08 10.78    -27 43 23.7   0.0083 1.0131 164.1  m  20?   2.17 125.7   80 314  37  94
   2024 04 21 15:30  14 08 12.12    -27 43 36.0   0.0083 1.0131 164.1  m  20?   2.14 123.6   79 305  37  94
   2024 04 21 15:40  14 08 13.47    -27 43 47.5   0.0083 1.0131 164.1  m  20?   2.13 121.4   77 299  37  94
   2024 04 21 15:50  14 08 14.85    -27 43 58.3   0.0083 1.0131 164.1  m  20?   2.12 119.1   75 293  37  94
   2024 04 21 16:00  14 08 16.27    -27 44 08.3   0.0083 1.0131 164.1  m  20?   2.13 116.7   73 289  36  94
   2024 04 21 16:10  14 08 17.72    -27 44 17.5   0.0083 1.0131 164.1  m  20?   2.15 114.3   71 286  36  94
   2024 04 21 16:20  14 08 19.21    -27 44 26.0   0.0083 1.0131 164.1  m  20?   2.17 111.9   69 283  36  94
   2024 04 21 16:30  14 08 20.75    -27 44 33.8   0.0083 1.0131 164.1  m  20?   2.21 109.5   67 280  36  94
   2024 04 21 16:40  14 08 22.35    -27 44 40.9   0.0083 1.0131 164.1  m  20?   2.26 107.2   65 278  36  94
   2024 04 21 16:50  14 08 24.00    -27 44 47.2   0.0083 1.0131 164.1  m  20?   2.31 104.9   63 276  36  94
   2024 04 21 17:00  14 08 25.72    -27 44 52.9   0.0083 1.0131 164.1  m  20?   2.38 102.8   61 274  36  94
   2024 04 21 17:10  14 08 27.50    -27 44 57.9   0.0083 1.0131 164.1  m  20?   2.46 100.9   59 272  36  94
   2024 04 21 17:20  14 08 29.35    -27 45 02.3   0.0083 1.0131 164.1  m  20?   2.54  99.1   57 271  36  94
   2024 04 21 17:30  14 08 31.28    -27 45 06.1   0.0083 1.0131 164.1  m  20?   2.64  97.4   55 269  36  95
   2024 04 21 17:40  14 08 33.30    -27 45 09.2   0.0083 1.0131 164.1  m  20?   2.74  95.9   53 268  36  95
   2024 04 21 17:50  14 08 35.39    -27 45 11.8   0.0083 1.0131 164.1  m  20?   2.85  94.5   51 267  36  95
   2024 04 21 18:00  14 08 37.58    -27 45 13.8   0.0083 1.0131 164.1  m  20?   2.96  93.3   49 265  36  95
   2024 04 21 18:10  14 08 39.85    -27 45 15.2   0.0083 1.0131 164.1  m  20?   3.09  92.2   47 264  36  95
   2024 04 21 18:20  14 08 42.22    -27 45 16.2   0.0083 1.0131 164.1  m  20?   3.21  91.2   45 263  36  95
   2024 04 21 18:30  14 08 44.69    -27 45 16.7   0.0083 1.0131 164.1  m  20?   3.35  90.4   43 262  36  95
   2024 04 21 18:40  14 08 47.27    -27 45 16.7   0.0083 1.0131 164.1  m  20?   3.49  89.6   41 261  35  95
   2024 04 21 18:50  14 08 49.95    -27 45 16.4   0.0083 1.0131 164.1  m  20?   3.63  89.0   39 260  35  95
   2024 04 21 19:00  14 08 52.73    -27 45 15.6   0.0083 1.0131 164.1  m  20?   3.77  88.4   37 258  35  95
   2024 04 21 19:10  14 08 55.63    -27 45 14.4   0.0083 1.0131 164.1  m  20?   3.92  88.0   35 257  35  95
   2024 04 21 19:20  14 08 58.64    -27 45 12.9   0.0083 1.0131 164.1     20?   4.07  87.6   33 256  35  95
   2024 04 21 19:30  14 09 01.76    -27 45 11.2   0.0083 1.0131 164.1     20?   4.23  87.3   31 255  35  95
   2024 04 21 19:40  14 09 05.01    -27 45 09.1   0.0083 1.0131 164.1     20?   4.39  87.1   29 254  35  95
   2024 04 21 19:50  14 09 08.37    -27 45 06.8   0.0083 1.0131 164.1 A   20?   4.55  86.9   27 253  35  95
   2024 04 21 20:00  14 09 11.85    -27 45 04.3   0.0083 1.0131 164.1 A   20?   4.71  86.7   25 252  35  95
   2024 04 21 20:10  14 09 15.45    -27 45 01.6   0.0083 1.0131 164.1 A   20?   4.87  86.7   23 251  35  95
   2024 04 21 20:20  14 09 19.18    -27 44 58.8   0.0083 1.0131 164.1 N   20?   5.03  86.6   21 250  35  95
   2024 04 21 20:30  14 09 23.02    -27 44 55.8   0.0083 1.0131 164.1 N   20?   5.20  86.6   19 248  35  95
   2024 04 21 20:40  14 09 26.99    -27 44 52.8   0.0083 1.0131 164.1 N   20?   5.36  86.7   17 247  35  95
   2024 04 21 20:50  14 09 31.09    -27 44 49.8   0.0083 1.0131 164.1 C   20?   5.53  86.7   15 246  35  95
   2024 04 21 21:00  14 09 35.31    -27 44 46.7   0.0083 1.0131 164.1 C   20?   5.69  86.8   13 245  34  95
   ................
   2024 04 22 08:20  14 16 29.52    -28 00 11.4   0.0083 1.0133 163.8 Cm  20?   6.88 117.1    8 118  30  97
   2024 04 22 08:30  14 16 34.08    -28 00 43.0   0.0083 1.0133 163.8 Cm  20?   6.74 117.8   10 116  30  97
   2024 04 22 08:40  14 16 38.52    -28 01 14.6   0.0083 1.0133 163.8 Nm  20?   6.60 118.5   12 115  30  97
   2024 04 22 08:50  14 16 42.83    -28 01 46.3   0.0083 1.0133 163.8 Nm  20?   6.46 119.3   14 114  29  97
   2024 04 22 09:00  14 16 47.02    -28 02 18.1   0.0083 1.0133 163.8 Nm  20?   6.32 120.0   16 113  29  97
   2024 04 22 09:10  14 16 51.09    -28 02 49.8   0.0083 1.0133 163.8 Am  20?   6.18 120.7   18 112  29  97
   2024 04 22 09:20  14 16 55.03    -28 03 21.4   0.0083 1.0133 163.8 Am  20?   6.03 121.5   20 111  29  97
   2024 04 22 09:30  14 16 58.85    -28 03 53.0   0.0083 1.0133 163.7 Am  20?   5.89 122.2   21 109  29  97
   2024 04 22 09:40  14 17 02.54    -28 04 24.4   0.0083 1.0133 163.7  m  20?   5.74 123.0   23 108  29  97
   2024 04 22 09:50  14 17 06.12    -28 04 55.7   0.0083 1.0133 163.7  m  20?   5.60 123.7   25 107  29  97
   2024 04 22 10:00  14 17 09.57    -28 05 26.8   0.0083 1.0133 163.7  m  20?   5.46 124.5   27 106  29  97
   2024 04 22 10:10  14 17 12.90    -28 05 57.7   0.0083 1.0133 163.7  m  20?   5.31 125.3   29 105  29  97
   2024 04 22 10:20  14 17 16.12    -28 06 28.4   0.0083 1.0133 163.7  m  20?   5.17 126.0   31 104  29  97
   2024 04 22 10:30  14 17 19.22    -28 06 58.7   0.0083 1.0133 163.7  m  20?   5.03 126.8   33 103  29  97
   2024 04 22 10:40  14 17 22.20    -28 07 28.8   0.0083 1.0133 163.7  m  20?   4.89 127.5   35 102  29  97
   2024 04 22 10:50  14 17 25.07    -28 07 58.5   0.0083 1.0133 163.7  m  20?   4.75 128.3   37 101  29  97
   2024 04 22 11:00  14 17 27.84    -28 08 27.8   0.0083 1.0133 163.7  m  20?   4.62 129.0   39 100  29  97
   2024 04 22 11:10  14 17 30.49    -28 08 56.7   0.0083 1.0133 163.7  m  20?   4.48 129.7   41  98  29  97
   2024 04 22 11:20  14 17 33.04    -28 09 25.2   0.0083 1.0133 163.7  m  20?   4.35 130.4   43  97  29  97
   2024 04 22 11:30  14 17 35.49    -28 09 53.3   0.0083 1.0133 163.7  m  20?   4.22 131.1   45  96  29  97
   2024 04 22 11:40  14 17 37.84    -28 10 20.8   0.0083 1.0133 163.7  m  20?   4.09 131.7   47  95  29  97
   2024 04 22 11:50  14 17 40.10    -28 10 47.8   0.0083 1.0133 163.6  m  20?   3.96 132.3   50  94  29  97
   2024 04 22 12:00  14 17 42.27    -28 11 14.3   0.0083 1.0133 163.6  m  20?   3.84 132.9   52  93  28  97
   2024 04 22 12:10  14 17 44.34    -28 11 40.2   0.0083 1.0133 163.6  m  20?   3.72 133.4   54  91  28  97
   2024 04 22 12:20  14 17 46.34    -28 12 05.5   0.0083 1.0133 163.6  m  20?   3.60 133.9   56  90  28  97
   2024 04 22 12:30  14 17 48.26    -28 12 30.2   0.0083 1.0133 163.6  m  20?   3.48 134.3   58  88  28  98
   2024 04 22 12:40  14 17 50.10    -28 12 54.3   0.0083 1.0133 163.6  m  20?   3.37 134.7   60  87  28  98
   2024 04 22 12:50  14 17 51.87    -28 13 17.7   0.0083 1.0133 163.6  m  20?   3.26 135.0   62  85  28  98
   2024 04 22 13:00  14 17 53.57    -28 13 40.4   0.0083 1.0133 163.6  m  20?   3.15 135.2   64  84  28  98
   2024 04 22 13:10  14 17 55.22    -28 14 02.5   0.0083 1.0133 163.6  m  20?   3.04 135.3   66  82  28  98
   2024 04 22 13:20  14 17 56.81    -28 14 23.8   0.0083 1.0133 163.6  m  20?   2.94 135.3   68  79  28  98
   2024 04 22 13:30  14 17 58.34    -28 14 44.4   0.0083 1.0133 163.6  m  20?   2.84 135.2   70  77  28  98
   2024 04 22 13:40  14 17 59.83    -28 15 04.3   0.0083 1.0133 163.6  m  20?   2.75 135.0   72  74  28  98
   2024 04 22 13:50  14 18 01.28    -28 15 23.4   0.0083 1.0133 163.6  m  20?   2.66 134.6   74  71  28  98
   2024 04 22 14:00  14 18 02.69    -28 15 41.7   0.0083 1.0133 163.6  m  20?   2.58 134.1   76  66  28  98
   2024 04 22 14:10  14 18 04.08    -28 15 59.3   0.0083 1.0133 163.6  m  20?   2.49 133.4   78  61  28  98
   2024 04 22 14:20  14 18 05.43    -28 16 16.1   0.0083 1.0133 163.6  m  20?   2.42 132.6   80  54  28  98
   2024 04 22 14:30  14 18 06.77    -28 16 32.1   0.0083 1.0133 163.6  m  20?   2.35 131.5   81  44  28  98
   2024 04 22 14:40  14 18 08.09    -28 16 47.3   0.0083 1.0133 163.6  m  20?   2.29 130.3   82  31  28  98
   2024 04 22 14:50  14 18 09.41    -28 17 01.7   0.0083 1.0133 163.6  m  20?   2.23 128.9   83  13  28  98
   2024 04 22 15:00  14 18 10.72    -28 17 15.4   0.0083 1.0133 163.6  t  20?   2.18 127.3   83 353  28  98
   2024 04 22 15:10  14 18 12.03    -28 17 28.2   0.0083 1.0133 163.6  m  20?   2.14 125.5   83 334  28  98
   2024 04 22 15:20  14 18 13.35    -28 17 40.2   0.0083 1.0133 163.6  m  20?   2.10 123.5   82 319  27  98
   2024 04 22 15:30  14 18 14.68    -28 17 51.5   0.0083 1.0133 163.6  m  20?   2.08 121.4   80 308  27  98
   2024 04 22 15:40  14 18 16.03    -28 18 01.9   0.0083 1.0133 163.6  m  20?   2.06 119.1   78 300  27  98
   2024 04 22 15:50  14 18 17.40    -28 18 11.6   0.0083 1.0133 163.6  m  20?   2.05 116.7   77 294  27  98
   2024 04 22 16:00  14 18 18.81    -28 18 20.5   0.0083 1.0133 163.6  m  20?   2.06 114.3   75 290  27  98
   2024 04 22 16:10  14 18 20.24    -28 18 28.6   0.0083 1.0134 163.6  m  20?   2.07 111.8   73 286  27  98
   2024 04 22 16:20  14 18 21.72    -28 18 36.0   0.0083 1.0134 163.6  m  20?   2.10 109.3   71 283  27  98
   2024 04 22 16:30  14 18 23.24    -28 18 42.6   0.0083 1.0134 163.6  m  20?   2.14 106.9   69 280  27  98
   2024 04 22 16:40  14 18 24.82    -28 18 48.5   0.0083 1.0134 163.6  m  20?   2.18 104.5   67 278  27  98
   2024 04 22 16:50  14 18 26.44    -28 18 53.7   0.0083 1.0134 163.6  m  20?   2.24 102.3   65 276  27  98
   2024 04 22 17:00  14 18 28.13    -28 18 58.1   0.0083 1.0134 163.6  m  20?   2.31 100.2   63 274  27  98
   2024 04 22 17:10  14 18 29.88    -28 19 01.9   0.0083 1.0134 163.6  m  20?   2.38  98.2   61 272  27  98
   2024 04 22 17:20  14 18 31.70    -28 19 05.1   0.0083 1.0134 163.6  m  20?   2.47  96.4   59 271  27  98
   2024 04 22 17:30  14 18 33.59    -28 19 07.5   0.0083 1.0134 163.6  m  20?   2.56  94.7   56 269  27  98
   2024 04 22 17:40  14 18 35.57    -28 19 09.4   0.0083 1.0134 163.6  m  20?   2.66  93.2   54 268  27  98
   2024 04 22 17:50  14 18 37.62    -28 19 10.6   0.0083 1.0134 163.6  m  20?   2.77  91.9   52 267  27  98
   2024 04 22 18:00  14 18 39.76    -28 19 11.3   0.0083 1.0134 163.6  m  20?   2.88  90.7   50 265  27  98
   2024 04 22 18:10  14 18 41.99    -28 19 11.4   0.0083 1.0134 163.6  m  20?   3.01  89.6   48 264  27  98
   2024 04 22 18:20  14 18 44.31    -28 19 11.0   0.0083 1.0134 163.6  m  20?   3.13  88.7   46 263  26  98
   2024 04 22 18:30  14 18 46.73    -28 19 10.1   0.0083 1.0134 163.6  m  20?   3.26  87.9   44 262  26  98
   2024 04 22 18:40  14 18 49.26    -28 19 08.7   0.0083 1.0134 163.6  m  20?   3.40  87.2   42 261  26  98
   2024 04 22 18:50  14 18 51.88    -28 19 06.8   0.0083 1.0134 163.6  m  20?   3.54  86.6   40 260  26  98
   2024 04 22 19:00  14 18 54.61    -28 19 04.6   0.0083 1.0134 163.6  m  20?   3.69  86.1   38 259  26  98
   2024 04 22 19:10  14 18 57.45    -28 19 01.9   0.0083 1.0134 163.6  m  20?   3.83  85.7   36 257  26  98
   2024 04 22 19:20  14 19 00.40    -28 18 58.9   0.0083 1.0134 163.6  m  20?   3.99  85.3   34 256  26  98
   2024 04 22 19:30  14 19 03.47    -28 18 55.6   0.0083 1.0134 163.6  m  20?   4.14  85.1   32 255  26  98
   2024 04 22 19:40  14 19 06.65    -28 18 51.9   0.0083 1.0134 163.6  m  20?   4.30  84.9   30 254  26  98
   2024 04 22 19:50  14 19 09.95    -28 18 48.0   0.0083 1.0134 163.6 Am  20?   4.45  84.7   28 253  26  98
   2024 04 22 20:00  14 19 13.37    -28 18 43.9   0.0083 1.0134 163.6 Am  20?   4.61  84.6   26 252  26  98
   2024 04 22 20:10  14 19 16.91    -28 18 39.6   0.0083 1.0134 163.6 Am  20?   4.77  84.6   24 251  26  98
   2024 04 22 20:20  14 19 20.57    -28 18 35.1   0.0083 1.0134 163.6 N   20?   4.94  84.6   22 250  26  98
   2024 04 22 20:30  14 19 24.35    -28 18 30.5   0.0083 1.0134 163.6 N   20?   5.10  84.7   20 249  26  98
   2024 04 22 20:40  14 19 28.26    -28 18 25.8   0.0084 1.0134 163.6 N   20?   5.26  84.7   18 247  26  98
   2024 04 22 20:50  14 19 32.29    -28 18 21.0   0.0084 1.0134 163.6 C   20?   5.43  84.8   16 246  26  98
   2024 04 22 21:00  14 19 36.45    -28 18 16.2   0.0084 1.0134 163.6 C   20?   5.59  85.0   15 245  25  98
   2024 04 22 21:10  14 19 40.73    -28 18 11.4   0.0084 1.0134 163.6 C   20?   5.75  85.1   13 244  25  98
   ................
   2024 04 23 08:10  14 26 26.37    -28 31 06.8   0.0084 1.0135 163.2 Cm  20?   7.03 115.1    6 120  21  99
   2024 04 23 08:20  14 26 31.13    -28 31 36.9   0.0084 1.0135 163.2 Cm  20?   6.89 115.8    8 119  21  99
   2024 04 23 08:30  14 26 35.77    -28 32 07.1   0.0084 1.0135 163.2 Cm  20?   6.75 116.5    9 118  21  99
   2024 04 23 08:40  14 26 40.29    -28 32 37.4   0.0084 1.0135 163.2 Nm  20?   6.61 117.2   11 116  21  99
   2024 04 23 08:50  14 26 44.69    -28 33 07.8   0.0084 1.0135 163.2 Nm  20?   6.47 117.9   13 115  21  99
   2024 04 23 09:00  14 26 48.96    -28 33 38.3   0.0084 1.0135 163.2 Nm  20?   6.33 118.6   15 114  21  99
   2024 04 23 09:10  14 26 53.11    -28 34 08.7   0.0084 1.0135 163.2 Am  20?   6.18 119.3   17 113  21  99
   2024 04 23 09:20  14 26 57.13    -28 34 39.1   0.0084 1.0135 163.2 Am  20?   6.04 120.1   19 112  20  99
   2024 04 23 09:30  14 27 01.03    -28 35 09.4   0.0084 1.0136 163.2 Am  20?   5.89 120.8   21 111  20  99
   2024 04 23 09:40  14 27 04.80    -28 35 39.7   0.0084 1.0136 163.2  m  20?   5.75 121.5   22 109  20  99
   2024 04 23 09:50  14 27 08.46    -28 36 09.8   0.0084 1.0136 163.2  m  20?   5.60 122.3   24 108  20  99
   2024 04 23 10:00  14 27 11.99    -28 36 39.7   0.0084 1.0136 163.1  m  20?   5.46 123.0   26 107  20  99
   2024 04 23 10:10  14 27 15.40    -28 37 09.4   0.0084 1.0136 163.1  m  20?   5.31 123.7   28 106  20  99
   2024 04 23 10:20  14 27 18.69    -28 37 38.9   0.0084 1.0136 163.1  m  20?   5.17 124.5   30 105  20  99
   2024 04 23 10:30  14 27 21.86    -28 38 08.2   0.0084 1.0136 163.1  m  20?   5.03 125.2   32 104  20  99
   2024 04 23 10:40  14 27 24.92    -28 38 37.1   0.0084 1.0136 163.1  m  20?   4.89 125.9   34 103  20  99
   2024 04 23 10:50  14 27 27.86    -28 39 05.7   0.0084 1.0136 163.1  m  20?   4.75 126.7   36 102  20  99
   2024 04 23 11:00  14 27 30.70    -28 39 34.0   0.0084 1.0136 163.1  m  20?   4.61 127.4   38 101  20  99
   2024 04 23 11:10  14 27 33.42    -28 40 01.8   0.0084 1.0136 163.1  m  20?   4.47 128.1   40 100  20  99
   2024 04 23 11:20  14 27 36.04    -28 40 29.3   0.0084 1.0136 163.1  m  20?   4.34 128.7   42  99  20  99
   2024 04 23 11:30  14 27 38.55    -28 40 56.2   0.0084 1.0136 163.1  m  20?   4.20 129.4   44  98  20  99
   2024 04 23 11:40  14 27 40.97    -28 41 22.7   0.0084 1.0136 163.1  m  20?   4.07 130.0   46  96  20  99
   2024 04 23 11:50  14 27 43.28    -28 41 48.7   0.0084 1.0136 163.1  m  20?   3.94 130.6   48  95  20  99
   2024 04 23 12:00  14 27 45.51    -28 42 14.2   0.0084 1.0136 163.1  m  20?   3.81 131.2   51  94  20  99
   2024 04 23 12:10  14 27 47.64    -28 42 39.1   0.0084 1.0136 163.1  m  20?   3.69 131.7   53  93  20  99
   2024 04 23 12:20  14 27 49.69    -28 43 03.4   0.0084 1.0136 163.1  m  20?   3.57 132.1   55  92  20  99
   2024 04 23 12:30  14 27 51.65    -28 43 27.1   0.0084 1.0136 163.1  m  20?   3.45 132.6   57  90  19  99
   2024 04 23 12:40  14 27 53.54    -28 43 50.2   0.0084 1.0136 163.0  m  20?   3.33 132.9   59  89  19  99
   2024 04 23 12:50  14 27 55.36    -28 44 12.6   0.0084 1.0136 163.0  m  20?   3.22 133.2   61  87  19  99
   2024 04 23 13:00  14 27 57.11    -28 44 34.3   0.0084 1.0136 163.0  m  20?   3.11 133.4   63  86  19  99
   2024 04 23 13:10  14 27 58.79    -28 44 55.4   0.0084 1.0136 163.0  m  20?   3.00 133.5   65  84  19  99
   2024 04 23 13:20  14 28 00.41    -28 45 15.7   0.0083 1.0136 163.0  m  20?   2.90 133.5   67  82  19  99
   2024 04 23 13:30  14 28 01.98    -28 45 35.3   0.0083 1.0136 163.0  m  20?   2.80 133.3   69  80  19  99
   2024 04 23 13:40  14 28 03.50    -28 45 54.2   0.0083 1.0136 163.0  m  20?   2.70 133.1   71  77  19  99
   2024 04 23 13:50  14 28 04.97    -28 46 12.3   0.0083 1.0136 163.0  m  20?   2.61 132.7   73  74  19  99
   2024 04 23 14:00  14 28 06.41    -28 46 29.7   0.0083 1.0136 163.0  m  20?   2.52 132.2   75  71  19  99
   2024 04 23 14:10  14 28 07.81    -28 46 46.3   0.0083 1.0136 163.0  m  20?   2.44 131.5   77  66  19  99
   2024 04 23 14:20  14 28 09.18    -28 47 02.1   0.0083 1.0136 163.0  m  20?   2.36 130.6   79  61  19  99
   2024 04 23 14:30  14 28 10.53    -28 47 17.1   0.0083 1.0136 163.0  m  20?   2.29 129.5   81  53  19  99
   2024 04 23 14:40  14 28 11.86    -28 47 31.3   0.0083 1.0136 163.0  m  20?   2.22 128.3   82  42  19  99
   2024 04 23 14:50  14 28 13.18    -28 47 44.7   0.0083 1.0136 163.0  m  20?   2.16 126.8   83  26  19  99
   2024 04 23 15:00  14 28 14.49    -28 47 57.3   0.0083 1.0136 163.0  m  20?   2.11 125.1   84   6  19  99
   2024 04 23 15:10  14 28 15.81    -28 48 09.0   0.0083 1.0136 163.0  t  20?   2.07 123.3   84 344  19  99
   2024 04 23 15:20  14 28 17.12    -28 48 20.0   0.0083 1.0136 163.0  m  20?   2.03 121.3   83 325  19  99
   2024 04 23 15:30  14 28 18.44    -28 48 30.2   0.0084 1.0136 163.0  m  20?   2.00 119.1   81 312  19  99
   2024 04 23 15:40  14 28 19.78    -28 48 39.6   0.0084 1.0136 163.0  m  20?   1.99 116.7   80 302  19  99
   2024 04 23 15:50  14 28 21.14    -28 48 48.2   0.0084 1.0136 163.0  m  20?   1.98 114.3   78 296  18  99
   2024 04 23 16:00  14 28 22.53    -28 48 55.9   0.0084 1.0136 163.0  m  20?   1.98 111.8   76 290  18  99
   2024 04 23 16:10  14 28 23.94    -28 49 03.0   0.0084 1.0136 163.0  m  20?   2.00 109.2   74 286  18  99
   2024 04 23 16:20  14 28 25.40    -28 49 09.2   0.0084 1.0136 163.0  m  20?   2.02 106.7   72 283  18  99
   2024 04 23 16:30  14 28 26.89    -28 49 14.7   0.0084 1.0136 163.0  m  20?   2.06 104.2   70 280  18  99
   2024 04 23 16:40  14 28 28.43    -28 49 19.4   0.0084 1.0136 163.0  m  20?   2.10 101.8   68 278  18  99
   2024 04 23 16:50  14 28 30.03    -28 49 23.4   0.0084 1.0136 163.0  m  20?   2.16  99.6   66 276  18  99
   2024 04 23 17:00  14 28 31.68    -28 49 26.6   0.0084 1.0136 163.0  m  20?   2.23  97.4   64 274  18  99
   2024 04 23 17:10  14 28 33.39    -28 49 29.2   0.0084 1.0136 163.0  m  20?   2.30  95.4   62 272  18  99
   2024 04 23 17:20  14 28 35.17    -28 49 31.1   0.0084 1.0136 163.0  m  20?   2.39  93.6   60 271  18  99
   2024 04 23 17:30  14 28 37.01    -28 49 32.3   0.0084 1.0136 163.0  m  20?   2.48  92.0   58 269  18  99
   2024 04 23 17:40  14 28 38.94    -28 49 32.9   0.0084 1.0136 163.0  m  20?   2.58  90.5   56 268  18  99
   2024 04 23 17:50  14 28 40.94    -28 49 32.8   0.0084 1.0136 163.0  m  20?   2.69  89.1   54 267  18  99
   2024 04 23 18:00  14 28 43.03    -28 49 32.2   0.0084 1.0137 163.0  m  20?   2.80  88.0   52 265  18  99
   2024 04 23 18:10  14 28 45.20    -28 49 30.9   0.0084 1.0137 163.0  m  20?   2.92  86.9   50 264  18  99
   2024 04 23 18:20  14 28 47.47    -28 49 29.2   0.0084 1.0137 163.0  m  20?   3.05  86.0   48 263  18  99
   2024 04 23 18:30  14 28 49.83    -28 49 26.8   0.0084 1.0137 163.0  m  20?   3.18  85.3   46 262  18  99
   2024 04 23 18:40  14 28 52.29    -28 49 24.0   0.0084 1.0137 163.0  m  20?   3.31  84.6   44 261  18  99
   2024 04 23 18:50  14 28 54.85    -28 49 20.8   0.0084 1.0137 163.0  m  20?   3.45  84.1   42 260  18  99
   2024 04 23 19:00  14 28 57.52    -28 49 17.0   0.0084 1.0137 163.0  m  20?   3.59  83.6   39 259  18  99
   2024 04 23 19:10  14 29 00.29    -28 49 12.9   0.0084 1.0137 163.0  m  20?   3.74  83.3   37 258  18  99
   2024 04 23 19:20  14 29 03.17    -28 49 08.4   0.0084 1.0137 163.0  m  20?   3.89  83.0   35 256  17  99
   2024 04 23 19:30  14 29 06.17    -28 49 03.6   0.0084 1.0137 163.0  m  20?   4.04  82.8   33 255  17  99
   2024 04 23 19:40  14 29 09.28    -28 48 58.4   0.0084 1.0137 163.0  m  20?   4.20  82.6   31 254  17  99
   2024 04 23 19:50  14 29 12.51    -28 48 52.9   0.0084 1.0137 163.0 Am  20?   4.36  82.5   30 253  17  99
   2024 04 23 20:00  14 29 15.85    -28 48 47.2   0.0084 1.0137 163.1 Am  20?   4.51  82.5   28 252  17  99
   2024 04 23 20:10  14 29 19.32    -28 48 41.3   0.0084 1.0137 163.1 Am  20?   4.67  82.5   26 251  17  99
   2024 04 23 20:20  14 29 22.90    -28 48 35.1   0.0084 1.0137 163.1 Nm  20?   4.83  82.5   24 250  17  99
   2024 04 23 20:30  14 29 26.61    -28 48 28.9   0.0084 1.0137 163.1 Nm  20?   5.00  82.6   22 249  17  99
   2024 04 23 20:40  14 29 30.45    -28 48 22.5   0.0084 1.0137 163.1 Nm  20?   5.16  82.7   20 248  17  99
   2024 04 23 20:50  14 29 34.40    -28 48 16.0   0.0084 1.0137 163.1 Cm  20?   5.32  82.9   18 247  17  99
   2024 04 23 21:00  14 29 38.48    -28 48 09.5   0.0084 1.0137 163.1 Cm  20?   5.48  83.1   16 245  17  99
   2024 04 23 21:10  14 29 42.68    -28 48 02.9   0.0084 1.0137 163.1 Cm  20?   5.65  83.3   14 244  17  99
   ................
   2024 04 24 08:10  14 36 27.83    -28 58 55.4   0.0084 1.0138 162.6 Cm  20?   7.02 113.8    5 121  13  99
   2024 04 24 08:20  14 36 32.66    -28 59 24.0   0.0084 1.0138 162.6 Cm  20?   6.89 114.5    7 120  13  99
   2024 04 24 08:30  14 36 37.37    -28 59 52.8   0.0084 1.0138 162.6 Cm  20?   6.75 115.2    8 119  13  99
   2024 04 24 08:40  14 36 41.95    -29 00 21.7   0.0084 1.0138 162.6 Nm  20?   6.61 115.9   10 118  13  99
   2024 04 24 08:50  14 36 46.42    -29 00 50.7   0.0084 1.0138 162.6 Nm  20?   6.46 116.5   12 116  13  99
   2024 04 24 09:00  14 36 50.76    -29 01 19.8   0.0084 1.0138 162.6 Nm  20?   6.32 117.2   14 115  13  99
   2024 04 24 09:10  14 36 54.98    -29 01 48.8   0.0084 1.0138 162.6 Am  20?   6.18 117.9   16 114  13  99
   2024 04 24 09:20  14 36 59.07    -29 02 17.9   0.0084 1.0138 162.6 Am  20?   6.03 118.7   18 113  13  99
   2024 04 24 09:30  14 37 03.04    -29 02 46.9   0.0084 1.0138 162.5 Am  20?   5.89 119.4   20 112  13  99
   2024 04 24 09:40  14 37 06.88    -29 03 15.9   0.0084 1.0138 162.5  m  20?   5.74 120.1   21 111  13  99
   2024 04 24 09:50  14 37 10.60    -29 03 44.7   0.0084 1.0138 162.5  m  20?   5.59 120.8   23 110  13  99
   2024 04 24 10:00  14 37 14.20    -29 04 13.4   0.0084 1.0138 162.5  m  20?   5.45 121.5   25 108  13  99
   2024 04 24 10:10  14 37 17.68    -29 04 41.9   0.0084 1.0138 162.5  m  20?   5.30 122.2   27 107  13  99
   2024 04 24 10:20  14 37 21.03    -29 05 10.2   0.0084 1.0138 162.5  m  20?   5.16 122.9   29 106  13  99
   2024 04 24 10:30  14 37 24.27    -29 05 38.3   0.0084 1.0138 162.5  m  20?   5.02 123.7   31 105  13  99
   2024 04 24 10:40  14 37 27.39    -29 06 06.0   0.0084 1.0138 162.5  m  20?   4.87 124.4   33 104  13  99
   2024 04 24 10:50  14 37 30.40    -29 06 33.5   0.0084 1.0138 162.5  m  20?   4.73 125.1   35 103  12  99
   2024 04 24 11:00  14 37 33.29    -29 07 00.5   0.0084 1.0138 162.5  m  20?   4.59 125.7   37 102  12  99
   2024 04 24 11:10  14 37 36.07    -29 07 27.3   0.0084 1.0138 162.5  m  20?   4.45 126.4   39 101  12  99
   2024 04 24 11:20  14 37 38.75    -29 07 53.6   0.0084 1.0139 162.5  m  20?   4.31 127.1   41 100  12  99
   2024 04 24 11:30  14 37 41.32    -29 08 19.4   0.0084 1.0139 162.5  m  20?   4.18 127.7   43  99  12  99
   2024 04 24 11:40  14 37 43.78    -29 08 44.8   0.0084 1.0139 162.5  m  20?   4.04 128.3   45  98  12  99
   2024 04 24 11:50  14 37 46.15    -29 09 09.7   0.0084 1.0139 162.4  m  20?   3.91 128.9   47  97  12  99
   2024 04 24 12:00  14 37 48.42    -29 09 34.1   0.0084 1.0139 162.4  m  20?   3.78 129.4   49  95  12  99
   2024 04 24 12:10  14 37 50.60    -29 09 57.9   0.0084 1.0139 162.4  m  20?   3.66 129.9   51  94  12  99
   2024 04 24 12:20  14 37 52.70    -29 10 21.2   0.0084 1.0139 162.4  m  20?   3.53 130.4   54  93  12  99
   2024 04 24 12:30  14 37 54.70    -29 10 43.8   0.0084 1.0139 162.4  m  20?   3.41 130.8   56  92  12  99
   2024 04 24 12:40  14 37 56.63    -29 11 05.9   0.0084 1.0139 162.4  m  20?   3.29 131.1   58  91  12  99
   2024 04 24 12:50  14 37 58.48    -29 11 27.2   0.0084 1.0139 162.4  m  20?   3.17 131.4   60  89  12  99
   2024 04 24 13:00  14 38 00.26    -29 11 48.0   0.0084 1.0139 162.4  m  20?   3.06 131.6   62  88  12  99
   2024 04 24 13:10  14 38 01.98    -29 12 08.0   0.0084 1.0139 162.4  m  20?   2.95 131.6   64  86  12  99
   2024 04 24 13:20  14 38 03.63    -29 12 27.3   0.0084 1.0139 162.4  m  20?   2.85 131.6   66  84  12  99
   2024 04 24 13:30  14 38 05.22    -29 12 45.9   0.0084 1.0139 162.4  m  20?   2.74 131.5   68  82  12  99
   2024 04 24 13:40  14 38 06.76    -29 13 03.7   0.0084 1.0139 162.4  m  20?   2.64 131.2   70  80  12  99
   2024 04 24 13:50  14 38 08.25    -29 13 20.8   0.0084 1.0139 162.4  m  20?   2.55 130.8   72  78  12  99
   2024 04 24 14:00  14 38 09.70    -29 13 37.2   0.0084 1.0139 162.4  m  20?   2.46 130.3   74  75  12  99
   2024 04 24 14:10  14 38 11.12    -29 13 52.7   0.0084 1.0139 162.4  m  20?   2.37 129.5   76  71  12  99
   2024 04 24 14:20  14 38 12.50    -29 14 07.5   0.0084 1.0139 162.4  m  20?   2.29 128.6   78  66  12  99
   2024 04 24 14:30  14 38 13.85    -29 14 21.5   0.0084 1.0139 162.4  m  20?   2.22 127.5   80  60  12  99
   2024 04 24 14:40  14 38 15.18    -29 14 34.6   0.0084 1.0139 162.4  m  20?   2.15 126.2   81  51  12  99
   2024 04 24 14:50  14 38 16.50    -29 14 47.0   0.0084 1.0139 162.4  m  20?   2.09 124.7   83  39  12  99
   2024 04 24 15:00  14 38 17.81    -29 14 58.6   0.0084 1.0139 162.4  m  20?   2.04 123.0   84  20  12  99
   2024 04 24 15:10  14 38 19.11    -29 15 09.3   0.0084 1.0139 162.4  t  20?   1.99 121.1   84 357  11  99
   2024 04 24 15:20  14 38 20.41    -29 15 19.2   0.0084 1.0139 162.4  m  20?   1.95 119.0   84 334  11  99
   2024 04 24 15:30  14 38 21.72    -29 15 28.3   0.0084 1.0139 162.4  m  20?   1.93 116.7   83 317  11  99
   2024 04 24 15:40  14 38 23.04    -29 15 36.6   0.0084 1.0139 162.4  m  20?   1.91 114.3   81 306  11  99
   2024 04 24 15:50  14 38 24.38    -29 15 44.1   0.0084 1.0139 162.4  m  20?   1.90 111.7   79 297  11  99
   2024 04 24 16:00  14 38 25.74    -29 15 50.8   0.0084 1.0139 162.4  m  20?   1.90 109.1   78 292  11  99
   2024 04 24 16:10  14 38 27.13    -29 15 56.7   0.0084 1.0139 162.4  m  20?   1.92 106.5   76 287  11  99
   2024 04 24 16:20  14 38 28.55    -29 16 01.8   0.0084 1.0139 162.4  m  20?   1.94 103.9   74 284  11  99
   2024 04 24 16:30  14 38 30.01    -29 16 06.1   0.0084 1.0139 162.4  m  20?   1.98 101.4   72 281  11  99
   2024 04 24 16:40  14 38 31.51    -29 16 09.7   0.0084 1.0139 162.4  m  20?   2.02  99.0   70 278  11  99
   2024 04 24 16:50  14 38 33.06    -29 16 12.5   0.0084 1.0139 162.4  m  20?   2.08  96.7   68 276  11  99
   2024 04 24 17:00  14 38 34.66    -29 16 14.6   0.0084 1.0139 162.4  m  20?   2.14  94.5   65 274  11  99
   2024 04 24 17:10  14 38 36.33    -29 16 16.0   0.0084 1.0139 162.4  m  20?   2.22  92.5   63 272  11  99
   2024 04 24 17:20  14 38 38.06    -29 16 16.6   0.0084 1.0139 162.4  m  20?   2.30  90.7   61 271  11  99
   2024 04 24 17:30  14 38 39.85    -29 16 16.6   0.0084 1.0139 162.4  m  20?   2.40  89.0   59 269  11  99
   2024 04 24 17:40  14 38 41.72    -29 16 15.9   0.0084 1.0139 162.4  m  20?   2.50  87.6   57 268  11  99
   2024 04 24 17:50  14 38 43.66    -29 16 14.6   0.0084 1.0139 162.4  m  20?   2.60  86.3   55 267  11  99
   2024 04 24 18:00  14 38 45.69    -29 16 12.6   0.0084 1.0139 162.4  m  20?   2.71  85.1   53 266  11  99
   2024 04 24 18:10  14 38 47.80    -29 16 10.1   0.0084 1.0139 162.4  m  20?   2.83  84.2   51 264  11  99
   2024 04 24 18:20  14 38 50.00    -29 16 07.0   0.0084 1.0139 162.4  m  20?   2.96  83.3   49 263  11  99
   2024 04 24 18:30  14 38 52.29    -29 16 03.3   0.0084 1.0139 162.4  m  20?   3.09  82.6   47 262  11  99
   2024 04 24 18:40  14 38 54.68    -29 15 59.1   0.0084 1.0139 162.4  m  20?   3.22  82.0   45 261  11  99
   2024 04 24 18:50  14 38 57.17    -29 15 54.4   0.0084 1.0139 162.4  m  20?   3.36  81.5   43 260  11  99
   2024 04 24 19:00  14 38 59.76    -29 15 49.3   0.0084 1.0139 162.4  m  20?   3.50  81.1   41 259  11  99
   2024 04 24 19:10  14 39 02.46    -29 15 43.7   0.0084 1.0139 162.4  m  20?   3.65  80.8   39 258  11  99
   2024 04 24 19:20  14 39 05.26    -29 15 37.8   0.0084 1.0139 162.4  m  20?   3.79  80.5   37 257  11  99
   2024 04 24 19:30  14 39 08.18    -29 15 31.4   0.0084 1.0139 162.4  m  20?   3.94  80.4   35 256  11  99
   2024 04 24 19:40  14 39 11.21    -29 15 24.7   0.0084 1.0139 162.4  m  20?   4.10  80.3   33 254  11  99
   2024 04 24 19:50  14 39 14.35    -29 15 17.7   0.0084 1.0139 162.4 Am  20?   4.25  80.2   31 253  11  99
   2024 04 24 20:00  14 39 17.61    -29 15 10.5   0.0084 1.0140 162.4 Am  20?   4.41  80.2   29 252  11  99
   2024 04 24 20:10  14 39 20.99    -29 15 03.0   0.0084 1.0140 162.4 Am  20?   4.57  80.3   27 251  11  99
   2024 04 24 20:20  14 39 24.50    -29 14 55.2   0.0084 1.0140 162.4 Nm  20?   4.73  80.4   25 250  11  99
   2024 04 24 20:30  14 39 28.12    -29 14 47.3   0.0084 1.0140 162.4 Nm  20?   4.89  80.5   23 249  11  99
   2024 04 24 20:40  14 39 31.86    -29 14 39.3   0.0084 1.0140 162.4 Nm  20?   5.05  80.7   21 248  11  99
   2024 04 24 20:50  14 39 35.73    -29 14 31.2   0.0084 1.0140 162.4 Cm  20?   5.21  80.9   19 247  11  99
   2024 04 24 21:00  14 39 39.73    -29 14 23.0   0.0084 1.0140 162.4 Cm  20?   5.37  81.1   17 246  11  99
   2024 04 24 21:10  14 39 43.84    -29 14 14.7   0.0084 1.0140 162.4 Cm  20?   5.53  81.3   16 245  11  99
   ................
   2024 04 25 08:10  14 46 27.51    -29 23 03.1   0.0085 1.0141 162.0 C   20?   7.00 112.5    4 122  10  98
   2024 04 25 08:20  14 46 32.39    -29 23 30.2   0.0085 1.0141 162.0 C   20?   6.87 113.2    6 121  10  98
   2024 04 25 08:30  14 46 37.16    -29 23 57.5   0.0085 1.0141 161.9 C   20?   6.73 113.8    8 120  10  98
   2024 04 25 08:40  14 46 41.80    -29 24 24.9   0.0085 1.0141 161.9 Nm  20?   6.59 114.5    9 119  10  98
   2024 04 25 08:50  14 46 46.32    -29 24 52.5   0.0084 1.0141 161.9 Nm  20?   6.45 115.2   11 117  10  97
   2024 04 25 09:00  14 46 50.72    -29 25 20.1   0.0084 1.0141 161.9 Nm  20?   6.30 115.9   13 116  10  97
   2024 04 25 09:10  14 46 54.99    -29 25 47.8   0.0084 1.0141 161.9 Am  20?   6.16 116.6   15 115  10  97
   2024 04 25 09:20  14 46 59.14    -29 26 15.4   0.0084 1.0141 161.9 Am  20?   6.01 117.2   17 114  10  97
   2024 04 25 09:30  14 47 03.16    -29 26 43.1   0.0084 1.0141 161.9 Am  20?   5.87 117.9   19 113  10  97
   2024 04 25 09:40  14 47 07.07    -29 27 10.7   0.0084 1.0141 161.9  m  20?   5.72 118.6   21 112  10  97
   2024 04 25 09:50  14 47 10.84    -29 27 38.2   0.0084 1.0141 161.9  m  20?   5.57 119.3   22 111  10  97
   2024 04 25 10:00  14 47 14.50    -29 28 05.6   0.0084 1.0141 161.9  m  20?   5.43 120.0   24 109  11  97
   2024 04 25 10:10  14 47 18.03    -29 28 32.8   0.0084 1.0141 161.9  m  20?   5.28 120.7   26 108  11  97
   2024 04 25 10:20  14 47 21.44    -29 28 59.8   0.0084 1.0141 161.8  m  20?   5.14 121.4   28 107  11  97
   2024 04 25 10:30  14 47 24.73    -29 29 26.6   0.0084 1.0141 161.8  m  20?   4.99 122.1   30 106  11  97
   2024 04 25 10:40  14 47 27.90    -29 29 53.1   0.0084 1.0141 161.8  m  20?   4.85 122.8   32 105  11  97
   2024 04 25 10:50  14 47 30.96    -29 30 19.3   0.0084 1.0141 161.8  m  20?   4.70 123.5   34 104  11  97
   2024 04 25 11:00  14 47 33.90    -29 30 45.2   0.0084 1.0141 161.8  m  20?   4.56 124.2   36 103  11  97
   2024 04 25 11:10  14 47 36.74    -29 31 10.7   0.0084 1.0141 161.8  m  20?   4.42 124.8   38 102  11  97
   2024 04 25 11:20  14 47 39.46    -29 31 35.8   0.0084 1.0141 161.8  m  20?   4.28 125.4   40 101  11  97
   2024 04 25 11:30  14 47 42.07    -29 32 00.5   0.0084 1.0141 161.8  m  20?   4.14 126.1   42 100  11  97
   2024 04 25 11:40  14 47 44.58    -29 32 24.8   0.0084 1.0141 161.8  m  20?   4.01 126.6   44  99  11  97
   2024 04 25 11:50  14 47 46.99    -29 32 48.6   0.0084 1.0141 161.8  m  20?   3.87 127.2   46  98  11  97
   2024 04 25 12:00  14 47 49.30    -29 33 11.8   0.0084 1.0141 161.8  m  20?   3.74 127.7   48  97  11  97
   2024 04 25 12:10  14 47 51.52    -29 33 34.5   0.0084 1.0141 161.8  m  20?   3.61 128.2   50  96  11  97
   2024 04 25 12:20  14 47 53.65    -29 33 56.7   0.0084 1.0141 161.8  m  20?   3.49 128.7   52  94  11  97
   2024 04 25 12:30  14 47 55.69    -29 34 18.2   0.0084 1.0141 161.8  m  20?   3.36 129.0   54  93  11  97
   2024 04 25 12:40  14 47 57.64    -29 34 39.2   0.0084 1.0141 161.8  m  20?   3.24 129.4   57  92  11  97
   2024 04 25 12:50  14 47 59.52    -29 34 59.5   0.0084 1.0141 161.8  m  20?   3.12 129.6   59  91  11  97
   2024 04 25 13:00  14 48 01.33    -29 35 19.1   0.0084 1.0141 161.8  m  20?   3.01 129.8   61  89  11  97
   2024 04 25 13:10  14 48 03.06    -29 35 38.1   0.0084 1.0141 161.8  m  20?   2.90 129.8   63  88  11  97
   2024 04 25 13:20  14 48 04.73    -29 35 56.3   0.0084 1.0142 161.8  m  20?   2.79 129.8   65  86  11  97
   2024 04 25 13:30  14 48 06.34    -29 36 13.9   0.0084 1.0142 161.8  m  20?   2.68 129.6   67  85  11  97
   2024 04 25 13:40  14 48 07.89    -29 36 30.7   0.0084 1.0142 161.7  m  20?   2.58 129.4   69  83  11  97
   2024 04 25 13:50  14 48 09.40    -29 36 46.7   0.0084 1.0142 161.7  m  20?   2.49 128.9   71  80  11  97
   2024 04 25 14:00  14 48 10.85    -29 37 02.0   0.0084 1.0142 161.7  m  20?   2.39 128.4   73  78  11  97
   2024 04 25 14:10  14 48 12.27    -29 37 16.5   0.0084 1.0142 161.7  m  20?   2.31 127.6   75  75  11  97
   2024 04 25 14:20  14 48 13.65    -29 37 30.3   0.0084 1.0142 161.7  m  20?   2.22 126.7   77  71  11  97
   2024 04 25 14:30  14 48 15.00    -29 37 43.2   0.0084 1.0142 161.7  m  20?   2.15 125.5   79  66  11  97
   2024 04 25 14:40  14 48 16.33    -29 37 55.3   0.0084 1.0142 161.7  m  20?   2.08 124.2   81  59  11  97
   2024 04 25 14:50  14 48 17.64    -29 38 06.6   0.0084 1.0142 161.7  m  20?   2.02 122.6   82  49  11  97
   2024 04 25 15:00  14 48 18.93    -29 38 17.1   0.0084 1.0142 161.7  m  20?   1.96 120.8   84  34  11  97
   2024 04 25 15:10  14 48 20.22    -29 38 26.8   0.0084 1.0142 161.7  m  20?   1.91 118.8   85  12  11  97
   2024 04 25 15:20  14 48 21.50    -29 38 35.7   0.0084 1.0142 161.7  t  20?   1.87 116.6   85 347  11  97
   2024 04 25 15:30  14 48 22.78    -29 38 43.7   0.0084 1.0142 161.7  m  20?   1.85 114.3   84 325  11  97
   2024 04 25 15:40  14 48 24.08    -29 38 50.9   0.0084 1.0142 161.7  m  20?   1.83 111.7   82 310  11  97
   2024 04 25 15:50  14 48 25.39    -29 38 57.3   0.0084 1.0142 161.7  m  20?   1.82 109.1   81 300  11  97
   2024 04 25 16:00  14 48 26.71    -29 39 02.9   0.0084 1.0142 161.7  m  20?   1.82 106.4   79 293  11  97
   2024 04 25 16:10  14 48 28.06    -29 39 07.7   0.0084 1.0142 161.7  m  20?   1.83 103.7   77 288  11  97
   2024 04 25 16:20  14 48 29.44    -29 39 11.7   0.0084 1.0142 161.7  m  20?   1.86 101.0   75 284  11  97
   2024 04 25 16:30  14 48 30.86    -29 39 14.9   0.0084 1.0142 161.8  m  20?   1.89  98.5   73 281  11  97
   2024 04 25 16:40  14 48 32.32    -29 39 17.3   0.0084 1.0142 161.8  m  20?   1.94  96.0   71 279  11  97
   2024 04 25 16:50  14 48 33.82    -29 39 19.0   0.0084 1.0142 161.8  m  20?   1.99  93.6   69 276  11  97
   2024 04 25 17:00  14 48 35.37    -29 39 19.9   0.0084 1.0142 161.8  m  20?   2.06  91.4   67 274  11  97
   2024 04 25 17:10  14 48 36.98    -29 39 20.1   0.0084 1.0142 161.8  m  20?   2.13  89.4   65 273  11  97
   2024 04 25 17:20  14 48 38.65    -29 39 19.6   0.0084 1.0142 161.8  m  20?   2.22  87.6   63 271  11  97
   2024 04 25 17:30  14 48 40.38    -29 39 18.3   0.0084 1.0142 161.8  m  20?   2.31  86.0   61 270  11  97
   2024 04 25 17:40  14 48 42.18    -29 39 16.4   0.0084 1.0142 161.8  m  20?   2.41  84.5   59 268  11  97
   2024 04 25 17:50  14 48 44.06    -29 39 13.8   0.0084 1.0142 161.8  m  20?   2.51  83.3   57 267  11  97
   2024 04 25 18:00  14 48 46.02    -29 39 10.6   0.0084 1.0142 161.8  m  20?   2.63  82.2   54 266  11  97
   2024 04 25 18:10  14 48 48.06    -29 39 06.8   0.0084 1.0142 161.8  m  20?   2.74  81.2   52 264  11  97
   2024 04 25 18:20  14 48 50.18    -29 39 02.4   0.0084 1.0142 161.8  m  20?   2.87  80.4   50 263  11  97
   2024 04 25 18:30  14 48 52.40    -29 38 57.4   0.0084 1.0142 161.8  m  20?   2.99  79.8   48 262  11  97
   2024 04 25 18:40  14 48 54.70    -29 38 51.9   0.0084 1.0142 161.8  m  20?   3.13  79.2   46 261  11  96
   2024 04 25 18:50  14 48 57.11    -29 38 45.8   0.0084 1.0142 161.8  m  20?   3.26  78.8   44 260  11  96
   2024 04 25 19:00  14 48 59.62    -29 38 39.3   0.0084 1.0142 161.8  m  20?   3.40  78.5   42 259  11  96
   2024 04 25 19:10  14 49 02.23    -29 38 32.3   0.0084 1.0142 161.8  m  20?   3.55  78.2   40 258  11  96
   2024 04 25 19:20  14 49 04.95    -29 38 24.9   0.0084 1.0142 161.8  m  20?   3.69  78.0   38 257  11  96
   2024 04 25 19:30  14 49 07.77    -29 38 17.2   0.0085 1.0142 161.8  m  20?   3.84  77.9   36 256  11  96
   2024 04 25 19:40  14 49 10.71    -29 38 09.0   0.0085 1.0142 161.8  m  20?   3.99  77.9   34 255  11  96
   2024 04 25 19:50  14 49 13.77    -29 38 00.5   0.0085 1.0142 161.8 Am  20?   4.15  77.9   32 254  11  96
   2024 04 25 20:00  14 49 16.93    -29 37 51.8   0.0085 1.0142 161.8 Am  20?   4.30  77.9   30 253  11  96
   2024 04 25 20:10  14 49 20.22    -29 37 42.7   0.0085 1.0142 161.8 Am  20?   4.46  78.0   28 252  11  96
   2024 04 25 20:20  14 49 23.63    -29 37 33.5   0.0085 1.0142 161.8 Nm  20?   4.62  78.2   26 250  11  96
   2024 04 25 20:30  14 49 27.15    -29 37 24.0   0.0085 1.0142 161.8 Nm  20?   4.77  78.3   24 249  11  96
   2024 04 25 20:40  14 49 30.80    -29 37 14.4   0.0085 1.0142 161.8 Nm  20?   4.93  78.6   23 248  12  96
   2024 04 25 20:50  14 49 34.57    -29 37 04.6   0.0085 1.0142 161.8 Cm  20?   5.09  78.8   21 247  12  96
   2024 04 25 21:00  14 49 38.47    -29 36 54.8   0.0085 1.0142 161.8 Cm  20?   5.25  79.1   19 246  12  96
   2024 04 25 21:10  14 49 42.48    -29 36 44.9   0.0085 1.0142 161.8 Cm  20?   5.41  79.3   17 245  12  96
   ................
   2024 04 26 08:10  14 56 23.69    -29 43 29.2   0.0085 1.0144 161.3 C   20?   6.97 111.2    3 124  16  94
   2024 04 26 08:20  14 56 28.62    -29 43 54.7   0.0085 1.0144 161.3 C   20?   6.84 111.9    5 122  16  94
   2024 04 26 08:30  14 56 33.42    -29 44 20.4   0.0085 1.0144 161.3 C   20?   6.70 112.5    7 121  16  94
   2024 04 26 08:40  14 56 38.11    -29 44 46.3   0.0085 1.0144 161.2 N   20?   6.56 113.2    9 120  16  94
   2024 04 26 08:50  14 56 42.67    -29 45 12.4   0.0085 1.0144 161.2 N   20?   6.42 113.8   10 118  16  94
   2024 04 26 09:00  14 56 47.11    -29 45 38.5   0.0085 1.0144 161.2 N   20?   6.27 114.5   12 117  16  94
   2024 04 26 09:10  14 56 51.43    -29 46 04.7   0.0085 1.0144 161.2 A   20?   6.13 115.2   14 116  16  94
   2024 04 26 09:20  14 56 55.62    -29 46 30.9   0.0085 1.0144 161.2 Am  20?   5.98 115.8   16 115  16  94
   2024 04 26 09:30  14 56 59.69    -29 46 57.2   0.0085 1.0144 161.2  m  20?   5.84 116.5   18 114  16  94
   2024 04 26 09:40  14 57 03.64    -29 47 23.4   0.0085 1.0144 161.2  m  20?   5.69 117.2   20 113  16  94
   2024 04 26 09:50  14 57 07.46    -29 47 49.5   0.0085 1.0144 161.2  m  20?   5.54 117.9   21 112  16  93
   2024 04 26 10:00  14 57 11.15    -29 48 15.5   0.0085 1.0144 161.2  m  20?   5.40 118.6   23 110  16  93
   2024 04 26 10:10  14 57 14.73    -29 48 41.3   0.0085 1.0144 161.2  m  20?   5.25 119.2   25 109  16  93
   2024 04 26 10:20  14 57 18.18    -29 49 07.0   0.0085 1.0144 161.2  m  20?   5.10 119.9   27 108  16  93
   2024 04 26 10:30  14 57 21.52    -29 49 32.5   0.0085 1.0144 161.2  m  20?   4.96 120.6   29 107  16  93
   2024 04 26 10:40  14 57 24.73    -29 49 57.7   0.0085 1.0144 161.1  m  20?   4.81 121.3   31 106  17  93
   2024 04 26 10:50  14 57 27.83    -29 50 22.7   0.0085 1.0144 161.1  m  20?   4.67 121.9   33 105  17  93
   2024 04 26 11:00  14 57 30.81    -29 50 47.3   0.0085 1.0144 161.1  m  20?   4.52 122.6   35 104  17  93
   2024 04 26 11:10  14 57 33.68    -29 51 11.6   0.0085 1.0144 161.1  m  20?   4.38 123.2   37 103  17  93
   2024 04 26 11:20  14 57 36.44    -29 51 35.5   0.0085 1.0144 161.1  m  20?   4.24 123.8   39 102  17  93
   2024 04 26 11:30  14 57 39.08    -29 51 59.0   0.0085 1.0144 161.1  m  20?   4.10 124.4   41 101  17  93
   2024 04 26 11:40  14 57 41.63    -29 52 22.0   0.0085 1.0144 161.1  m  20?   3.96 125.0   43 100  17  93
   2024 04 26 11:50  14 57 44.07    -29 52 44.6   0.0085 1.0144 161.1  m  20?   3.83 125.5   45  99  17  93
   2024 04 26 12:00  14 57 46.41    -29 53 06.7   0.0085 1.0144 161.1  m  20?   3.69 126.1   47  98  17  93
   2024 04 26 12:10  14 57 48.65    -29 53 28.3   0.0085 1.0144 161.1  m  20?   3.56 126.5   49  97  17  93
   2024 04 26 12:20  14 57 50.81    -29 53 49.3   0.0085 1.0144 161.1  m  20?   3.44 126.9   51  96  17  93
   2024 04 26 12:30  14 57 52.87    -29 54 09.7   0.0085 1.0144 161.1  m  20?   3.31 127.3   53  94  17  93
   2024 04 26 12:40  14 57 54.85    -29 54 29.5   0.0085 1.0144 161.1  m  20?   3.19 127.6   55  93  17  93
   2024 04 26 12:50  14 57 56.74    -29 54 48.7   0.0085 1.0144 161.1  m  20?   3.07 127.8   57  92  17  93
   2024 04 26 13:00  14 57 58.56    -29 55 07.2   0.0085 1.0144 161.1  m  20?   2.95 128.0   59  91  17  93
   2024 04 26 13:10  14 58 00.31    -29 55 25.1   0.0085 1.0144 161.1  m  20?   2.83 128.0   62  89  17  93
   2024 04 26 13:20  14 58 01.99    -29 55 42.3   0.0085 1.0144 161.1  m  20?   2.72 128.0   64  88  17  93
   2024 04 26 13:30  14 58 03.61    -29 55 58.8   0.0085 1.0144 161.1  m  20?   2.62 127.8   66  86  17  93
   2024 04 26 13:40  14 58 05.16    -29 56 14.5   0.0085 1.0144 161.1  m  20?   2.51 127.5   68  85  17  93
   2024 04 26 13:50  14 58 06.67    -29 56 29.5   0.0085 1.0144 161.1  m  20?   2.41 127.1   70  83  17  93
   2024 04 26 14:00  14 58 08.12    -29 56 43.7   0.0085 1.0144 161.1  m  20?   2.32 126.5   72  80  18  93
   2024 04 26 14:10  14 58 09.54    -29 56 57.2   0.0085 1.0144 161.1  m  20?   2.23 125.7   74  78  18  93
   2024 04 26 14:20  14 58 10.91    -29 57 09.9   0.0085 1.0144 161.1  m  20?   2.15 124.7   76  75  18  93
   2024 04 26 14:30  14 58 12.25    -29 57 21.7   0.0085 1.0144 161.1  m  20?   2.07 123.5   78  70  18  93
   2024 04 26 14:40  14 58 13.56    -29 57 32.8   0.0085 1.0144 161.1  m  20?   2.00 122.1   80  65  18  93
   2024 04 26 14:50  14 58 14.85    -29 57 43.1   0.0085 1.0144 161.1  m  20?   1.93 120.5   82  57  18  93
   2024 04 26 15:00  14 58 16.13    -29 57 52.5   0.0085 1.0144 161.1  m  20?   1.88 118.6   83  46  18  93
   2024 04 26 15:10  14 58 17.39    -29 58 01.1   0.0085 1.0144 161.1  m  20?   1.83 116.5   84  28  18  92
   2024 04 26 15:20  14 58 18.64    -29 58 08.9   0.0085 1.0144 161.1  m  20?   1.79 114.2   85   2  18  92
   2024 04 26 15:30  14 58 19.90    -29 58 15.9   0.0085 1.0145 161.1  t  20?   1.76 111.7   85 336  18  92
   2024 04 26 15:40  14 58 21.16    -29 58 22.1   0.0085 1.0145 161.1  m  20?   1.74 109.1   83 316  18  92
   2024 04 26 15:50  14 58 22.43    -29 58 27.4   0.0085 1.0145 161.1  m  20?   1.73 106.4   82 304  18  92
   2024 04 26 16:00  14 58 23.71    -29 58 31.9   0.0085 1.0145 161.1  m  20?   1.73 103.5   80 295  18  92
   2024 04 26 16:10  14 58 25.02    -29 58 35.6   0.0085 1.0145 161.1  m  20?   1.75 100.7   78 289  18  92
   2024 04 26 16:20  14 58 26.35    -29 58 38.5   0.0085 1.0145 161.1  m  20?   1.77  98.0   76 285  18  92
   2024 04 26 16:30  14 58 27.72    -29 58 40.6   0.0085 1.0145 161.1  m  20?   1.81  95.3   74 282  18  92
   2024 04 26 16:40  14 58 29.12    -29 58 41.9   0.0085 1.0145 161.1  m  20?   1.85  92.7   72 279  18  92
   2024 04 26 16:50  14 58 30.57    -29 58 42.5   0.0085 1.0145 161.1  m  20?   1.91  90.3   70 277  18  92
   2024 04 26 17:00  14 58 32.06    -29 58 42.2   0.0085 1.0145 161.1  m  20?   1.97  88.1   68 275  18  92
   2024 04 26 17:10  14 58 33.60    -29 58 41.3   0.0085 1.0145 161.1  m  20?   2.05  86.1   66 273  18  92
   2024 04 26 17:20  14 58 35.20    -29 58 39.6   0.0085 1.0145 161.1  m  20?   2.13  84.3   64 271  18  92
   2024 04 26 17:30  14 58 36.87    -29 58 37.1   0.0085 1.0145 161.1  m  20?   2.22  82.7   62 270  18  92
   2024 04 26 17:40  14 58 38.60    -29 58 34.0   0.0085 1.0145 161.1  m  20?   2.32  81.3   60 268  18  92
   2024 04 26 17:50  14 58 40.40    -29 58 30.3   0.0085 1.0145 161.1  m  20?   2.42  80.1   58 267  18  92
   2024 04 26 18:00  14 58 42.28    -29 58 25.8   0.0085 1.0145 161.1  m  20?   2.54  79.1   56 266  18  92
   2024 04 26 18:10  14 58 44.24    -29 58 20.7   0.0085 1.0145 161.1  m  20?   2.65  78.2   54 265  19  92
   2024 04 26 18:20  14 58 46.28    -29 58 15.1   0.0085 1.0145 161.1  m  20?   2.77  77.5   52 263  19  92
   2024 04 26 18:30  14 58 48.41    -29 58 08.8   0.0085 1.0145 161.1  m  20?   2.90  76.8   50 262  19  92
   2024 04 26 18:40  14 58 50.63    -29 58 02.0   0.0085 1.0145 161.1  m  20?   3.03  76.4   48 261  19  92
   2024 04 26 18:50  14 58 52.95    -29 57 54.6   0.0085 1.0145 161.1  m  20?   3.17  76.0   46 260  19  92
   2024 04 26 19:00  14 58 55.36    -29 57 46.8   0.0085 1.0145 161.1  m  20?   3.30  75.7   44 259  19  92
   2024 04 26 19:10  14 58 57.88    -29 57 38.5   0.0085 1.0145 161.1  m  20?   3.45  75.5   42 258  19  92
   2024 04 26 19:20  14 59 00.50    -29 57 29.7   0.0085 1.0145 161.1  m  20?   3.59  75.4   40 257  19  92
   2024 04 26 19:30  14 59 03.23    -29 57 20.5   0.0085 1.0145 161.1  m  20?   3.74  75.4   38 256  19  92
   2024 04 26 19:40  14 59 06.07    -29 57 11.0   0.0085 1.0145 161.1  m  20?   3.89  75.4   36 255  19  92
   2024 04 26 19:50  14 59 09.02    -29 57 01.1   0.0085 1.0145 161.1 Am  20?   4.04  75.4   34 254  19  92
   2024 04 26 20:00  14 59 12.08    -29 56 50.9   0.0085 1.0145 161.1 Am  20?   4.19  75.6   32 253  19  92
   2024 04 26 20:10  14 59 15.26    -29 56 40.4   0.0085 1.0145 161.1 Am  20?   4.34  75.7   30 252  19  92
   2024 04 26 20:20  14 59 18.56    -29 56 29.6   0.0085 1.0145 161.1 Nm  20?   4.50  75.9   28 251  19  92
   2024 04 26 20:30  14 59 21.98    -29 56 18.6   0.0085 1.0145 161.1 Nm  20?   4.66  76.1   26 250  19  92
   2024 04 26 20:40  14 59 25.52    -29 56 07.5   0.0085 1.0145 161.1 Nm  20?   4.81  76.4   24 249  19  92
   2024 04 26 20:50  14 59 29.19    -29 55 56.2   0.0085 1.0145 161.1 Cm  20?   4.97  76.7   22 248  19  92
   2024 04 26 21:00  14 59 32.97    -29 55 44.8   0.0085 1.0145 161.1 Cm  20?   5.13  77.0   20 246  19  92
   2024 04 26 21:10  14 59 36.88    -29 55 33.3   0.0085 1.0145 161.1 Cm  20?   5.29  77.3   18 245  19  92
   ................
   2024 04 27 08:10  15 06 14.66    -30 00 14.4   0.0085 1.0146 160.6 C   20?   6.93 109.9    2 125  25  88
   2024 04 27 08:20  15 06 19.61    -30 00 38.3   0.0085 1.0146 160.6 C   20?   6.79 110.6    4 123  25  88
   2024 04 27 08:30  15 06 24.45    -30 01 02.5   0.0085 1.0146 160.6 N   20?   6.66 111.2    6 122  25  88
   2024 04 27 08:40  15 06 29.16    -30 01 26.8   0.0085 1.0146 160.6 N   20?   6.52 111.8    8 121  25  88
   2024 04 27 08:50  15 06 33.75    -30 01 51.3   0.0085 1.0147 160.5 N   20?   6.38 112.5    9 119  25  88
   2024 04 27 09:00  15 06 38.22    -30 02 15.9   0.0085 1.0147 160.5 A   20?   6.23 113.1   11 118  25  88
   2024 04 27 09:10  15 06 42.57    -30 02 40.6   0.0085 1.0147 160.5 A   20?   6.09 113.8   13 117  25  88
   2024 04 27 09:20  15 06 46.79    -30 03 05.4   0.0085 1.0147 160.5 A   20?   5.94 114.5   15 116  25  88
   2024 04 27 09:30  15 06 50.89    -30 03 30.1   0.0085 1.0147 160.5     20?   5.80 115.1   17 115  25  88
   2024 04 27 09:40  15 06 54.87    -30 03 54.9   0.0085 1.0147 160.5     20?   5.65 115.8   19 114  25  88
   2024 04 27 09:50  15 06 58.72    -30 04 19.5   0.0085 1.0147 160.5     20?   5.50 116.4   20 112  25  88
   2024 04 27 10:00  15 07 02.45    -30 04 44.1   0.0085 1.0147 160.5  m  20?   5.36 117.1   22 111  25  88
   2024 04 27 10:10  15 07 06.06    -30 05 08.6   0.0085 1.0147 160.5  m  20?   5.21 117.8   24 110  25  88
   2024 04 27 10:20  15 07 09.54    -30 05 32.9   0.0085 1.0147 160.5  m  20?   5.06 118.4   26 109  26  88
   2024 04 27 10:30  15 07 12.90    -30 05 57.0   0.0085 1.0147 160.5  m  20?   4.91 119.1   28 108  26  87
   2024 04 27 10:40  15 07 16.15    -30 06 20.9   0.0085 1.0147 160.4  m  20?   4.77 119.7   30 107  26  87
   2024 04 27 10:50  15 07 19.27    -30 06 44.6   0.0085 1.0147 160.4  m  20?   4.62 120.4   32 106  26  87
   2024 04 27 11:00  15 07 22.28    -30 07 07.9   0.0085 1.0147 160.4  m  20?   4.48 121.0   34 105  26  87
   2024 04 27 11:10  15 07 25.17    -30 07 30.9   0.0085 1.0147 160.4  m  20?   4.33 121.6   36 104  26  87
   2024 04 27 11:20  15 07 27.96    -30 07 53.5   0.0085 1.0147 160.4  m  20?   4.19 122.2   38 103  26  87
   2024 04 27 11:30  15 07 30.63    -30 08 15.8   0.0085 1.0147 160.4  m  20?   4.05 122.8   40 102  26  87
   2024 04 27 11:40  15 07 33.19    -30 08 37.6   0.0085 1.0147 160.4  m  20?   3.91 123.4   42 101  26  87
   2024 04 27 11:50  15 07 35.66    -30 08 59.0   0.0085 1.0147 160.4  m  20?   3.77 123.9   44 100  26  87
   2024 04 27 12:00  15 07 38.02    -30 09 19.9   0.0085 1.0147 160.4  m  20?   3.64 124.4   46  99  26  87
   2024 04 27 12:10  15 07 40.28    -30 09 40.3   0.0085 1.0147 160.4  m  20?   3.51 124.8   48  98  26  87
   2024 04 27 12:20  15 07 42.44    -30 10 00.1   0.0085 1.0147 160.4  m  20?   3.38 125.3   50  97  26  87
   2024 04 27 12:30  15 07 44.52    -30 10 19.4   0.0085 1.0147 160.4  m  20?   3.25 125.6   52  96  26  87
   2024 04 27 12:40  15 07 46.51    -30 10 38.1   0.0085 1.0147 160.4  m  20?   3.12 125.9   54  94  27  87
   2024 04 27 12:50  15 07 48.41    -30 10 56.1   0.0085 1.0147 160.4  m  20?   3.00 126.1   56  93  27  87
   2024 04 27 13:00  15 07 50.24    -30 11 13.6   0.0085 1.0147 160.4  m  20?   2.88 126.2   58  92  27  87
   2024 04 27 13:10  15 07 51.99    -30 11 30.3   0.0085 1.0147 160.4  m  20?   2.76 126.3   60  91  27  87
   2024 04 27 13:20  15 07 53.67    -30 11 46.4   0.0085 1.0147 160.4  m  20?   2.65 126.2   62  89  27  87
   2024 04 27 13:30  15 07 55.29    -30 12 01.8   0.0085 1.0147 160.4  m  20?   2.54 126.0   65  88  27  87
   2024 04 27 13:40  15 07 56.84    -30 12 16.4   0.0085 1.0147 160.4  m  20?   2.44 125.7   67  86  27  87
   2024 04 27 13:50  15 07 58.34    -30 12 30.3   0.0085 1.0147 160.4  m  20?   2.34 125.2   69  85  27  87
   2024 04 27 14:00  15 07 59.78    -30 12 43.5   0.0085 1.0147 160.4  m  20?   2.24 124.6   71  83  27  87
   2024 04 27 14:10  15 08 01.18    -30 12 55.9   0.0085 1.0147 160.4  m  20?   2.15 123.8   73  80  27  86
   2024 04 27 14:20  15 08 02.54    -30 13 07.5   0.0085 1.0147 160.4  m  20?   2.07 122.7   75  77  27  86
   2024 04 27 14:30  15 08 03.86    -30 13 18.3   0.0085 1.0147 160.4  m  20?   1.99 121.5   77  74  27  86
   2024 04 27 14:40  15 08 05.15    -30 13 28.4   0.0085 1.0147 160.4  m  20?   1.91 120.0   79  70  27  86
   2024 04 27 14:50  15 08 06.42    -30 13 37.6   0.0085 1.0147 160.4  m  20?   1.85 118.3   81  64  27  86
   2024 04 27 15:00  15 08 07.66    -30 13 46.0   0.0085 1.0147 160.4  m  20?   1.79 116.3   82  55  27  86
   2024 04 27 15:10  15 08 08.89    -30 13 53.5   0.0085 1.0147 160.4  m  20?   1.74 114.1   84  41  27  86
   2024 04 27 15:20  15 08 10.11    -30 14 00.3   0.0085 1.0147 160.4  m  20?   1.70 111.7   85  19  27  86
   2024 04 27 15:30  15 08 11.33    -30 14 06.2   0.0085 1.0147 160.4  t  20?   1.67 109.1   85 351  28  86
   2024 04 27 15:40  15 08 12.54    -30 14 11.3   0.0085 1.0147 160.4  m  20?   1.65 106.3   84 325  28  86
   2024 04 27 15:50  15 08 13.77    -30 14 15.6   0.0085 1.0147 160.4  m  20?   1.64 103.4   83 309  28  86
   2024 04 27 16:00  15 08 15.01    -30 14 19.0   0.0085 1.0147 160.4  m  20?   1.64 100.5   81 298  28  86
   2024 04 27 16:10  15 08 16.26    -30 14 21.7   0.0085 1.0147 160.4  m  20?   1.66  97.6   79 291  28  86
   2024 04 27 16:20  15 08 17.54    -30 14 23.5   0.0085 1.0147 160.4  m  20?   1.68  94.7   78 286  28  86
   2024 04 27 16:30  15 08 18.85    -30 14 24.5   0.0085 1.0147 160.4  m  20?   1.72  92.0   76 283  28  86
   2024 04 27 16:40  15 08 20.19    -30 14 24.7   0.0085 1.0147 160.4  m  20?   1.76  89.3   74 280  28  86
   2024 04 27 16:50  15 08 21.57    -30 14 24.2   0.0085 1.0147 160.4  m  20?   1.82  86.9   72 277  28  86
   2024 04 27 17:00  15 08 22.99    -30 14 22.9   0.0085 1.0147 160.4  m  20?   1.88  84.7   69 275  28  86
   2024 04 27 17:10  15 08 24.47    -30 14 20.8   0.0085 1.0147 160.4  m  20?   1.96  82.7   67 273  28  86
   2024 04 27 17:20  15 08 26.00    -30 14 17.9   0.0085 1.0147 160.4  m  20?   2.04  80.9   65 272  28  86
   2024 04 27 17:30  15 08 27.58    -30 14 14.4   0.0085 1.0147 160.4  m  20?   2.13  79.3   63 270  28  86
   2024 04 27 17:40  15 08 29.23    -30 14 10.1   0.0085 1.0148 160.4  m  20?   2.23  78.0   61 269  28  86
   2024 04 27 17:50  15 08 30.95    -30 14 05.2   0.0085 1.0148 160.4  m  20?   2.34  76.8   59 267  28  86
   2024 04 27 18:00  15 08 32.74    -30 13 59.5   0.0085 1.0148 160.4  m  20?   2.44  75.8   57 266  28  86
   2024 04 27 18:10  15 08 34.61    -30 13 53.3   0.0085 1.0148 160.4  m  20?   2.56  75.0   55 265  28  86
   2024 04 27 18:20  15 08 36.56    -30 13 46.4   0.0085 1.0148 160.4  m  20?   2.68  74.3   53 264  28  86
   2024 04 27 18:30  15 08 38.60    -30 13 38.9   0.0085 1.0148 160.4  m  20?   2.81  73.8   51 263  28  86
   2024 04 27 18:40  15 08 40.73    -30 13 30.9   0.0085 1.0148 160.4  m  20?   2.93  73.4   49 262  28  86
   2024 04 27 18:50  15 08 42.94    -30 13 22.3   0.0085 1.0148 160.4  m  20?   3.07  73.1   47 260  28  86
   2024 04 27 19:00  15 08 45.26    -30 13 13.1   0.0085 1.0148 160.4  m  20?   3.20  72.9   45 259  29  86
   2024 04 27 19:10  15 08 47.67    -30 13 03.5   0.0085 1.0148 160.4  m  20?   3.34  72.8   43 258  29  86
   2024 04 27 19:20  15 08 50.19    -30 12 53.4   0.0085 1.0148 160.4  m  20?   3.49  72.7   41 257  29  85
   2024 04 27 19:30  15 08 52.81    -30 12 42.9   0.0085 1.0148 160.4  m  20?   3.63  72.7   39 256  29  85
   2024 04 27 19:40  15 08 55.54    -30 12 32.0   0.0085 1.0148 160.4  m  20?   3.78  72.8   37 255  29  85
   2024 04 27 19:50  15 08 58.38    -30 12 20.8   0.0085 1.0148 160.4  m  20?   3.93  72.9   35 254  29  85
   2024 04 27 20:00  15 09 01.33    -30 12 09.2   0.0085 1.0148 160.4 Am  20?   4.08  73.1   33 253  29  85
   2024 04 27 20:10  15 09 04.40    -30 11 57.2   0.0085 1.0148 160.4 Am  20?   4.23  73.3   31 252  29  85
   2024 04 27 20:20  15 09 07.59    -30 11 45.1   0.0085 1.0148 160.4 Nm  20?   4.38  73.6   29 251  29  85
   2024 04 27 20:30  15 09 10.89    -30 11 32.6   0.0085 1.0148 160.4 Nm  20?   4.54  73.8   27 250  29  85
   2024 04 27 20:40  15 09 14.31    -30 11 20.0   0.0085 1.0148 160.4 Nm  20?   4.69  74.2   25 249  29  85
   2024 04 27 20:50  15 09 17.86    -30 11 07.2   0.0086 1.0148 160.4 Cm  20?   4.85  74.5   23 248  29  85
   2024 04 27 21:00  15 09 21.53    -30 10 54.3   0.0086 1.0148 160.4 Cm  20?   5.00  74.8   21 247  29  85
   2024 04 27 21:10  15 09 25.31    -30 10 41.3   0.0086 1.0148 160.4 Cm  20?   5.16  75.2   19 246  29  85
   ................
   

CAPSTONE (JPL-ID: -1176)

   Date (UTC) HH:MM   RA              Dec         delta   r     elong SM  mag  '/hr    PA   alt  az moo ill
   ---- -- -- -----  -------------   -----------  ------ ------ ----- --  --- ------ ------ --- --- --- ---
   2024 04 14 08:30  06 23 35.73    +24 36 58.0   392789 1.0022  70.8 Cm  16?  23.41  63.4   29 345   5  35
   2024 04 14 08:40  06 23 51.13    +24 38 42.6   392820 1.0022  70.8 Cm  16?  23.49  63.9   28 343   5  35
   2024 04 14 08:50  06 24 06.65    +24 40 25.6   392860 1.0022  70.9 Nm  16?  23.59  64.5   28 340   5  35
   2024 04 14 09:00  06 24 22.33    +24 42 07.1   392907 1.0022  70.9 Nm  16?  23.72  65.0   27 338   5  35
   2024 04 14 09:10  06 24 38.18    +24 43 47.0   392963 1.0022  71.0 Nm  16?  23.87  65.6   26 336   5  35
   2024 04 14 09:20  06 24 54.21    +24 45 25.4   393026 1.0022  71.0 Am  16?  24.04  66.2   25 333   5  35
   2024 04 14 09:30  06 25 10.44    +24 47 02.3   393096 1.0023  71.1 Am  16?  24.23  66.7   24 331   5  35
   2024 04 14 09:40  06 25 26.87    +24 48 37.9   393174 1.0023  71.1 Am  16?  24.45  67.3   23 329   5  35
   2024 04 14 09:50  06 25 43.54    +24 50 12.1   393259 1.0023  71.2  m  16?  24.68  67.9   22 327   5  35
   2024 04 14 10:00  06 26 00.44    +24 51 44.9   393351 1.0023  71.2  m  16?  24.94  68.4   21 325   5  35
   2024 04 14 10:10  06 26 17.60    +24 53 16.5   393450 1.0023  71.3  m  16?  25.22  69.0   20 323   5  35
   2024 04 14 10:20  06 26 35.02    +24 54 46.9   393555 1.0023  71.4  m  16?  25.52  69.5   19 321   5  36
   2024 04 14 10:30  06 26 52.72    +24 56 16.2   393666 1.0023  71.4  m  16?  25.84  70.1   17 319   5  36
   2024 04 14 10:40  06 27 10.71    +24 57 44.4   393784 1.0023  71.5  m  16?  26.18  70.6   16 317   5  36
   2024 04 14 10:50  06 27 29.00    +24 59 11.5   393907 1.0023  71.5  m  16?  26.54  71.1   15 315   5  36
   2024 04 14 11:00  06 27 47.61    +25 00 37.8   394036 1.0023  71.6  m  16?  26.92  71.6   13 314   5  36
   2024 04 14 11:10  06 28 06.54    +25 02 03.1   394169 1.0023  71.7  m  16?  27.31  72.0   12 312   5  36
   2024 04 14 11:20  06 28 25.81    +25 03 27.7   394308 1.0023  71.7  m  16?  27.72  72.5   10 310   5  36
   2024 04 14 11:30  06 28 45.42    +25 04 51.6   394452 1.0023  71.8  m  16?  28.15  72.9    9 309   4  36
   2024 04 14 11:40  06 29 05.38    +25 06 14.8   394599 1.0023  71.9  m  16?  28.59  73.3    7 307   4  36
   2024 04 14 11:50  06 29 25.71    +25 07 37.5   394751 1.0023  71.9  m  16?  29.05  73.7    5 306   4  36
   2024 04 14 12:00  06 29 46.41    +25 08 59.8   394906 1.0023  72.0  m  16?  29.52  74.0    4 304   4  36
   2024 04 14 12:10  06 30 07.48    +25 10 21.7   395065 1.0023  72.1  m  16?  30.00  74.3    2 303   4  36
   2024 04 14 12:20  06 30 28.94    +25 11 43.2   395227 1.0023  72.2  m  16?  30.50  74.7    0 301   4  36
   ................
   2024 04 15 08:20  07 38 59.04    +25 31 02.1   393106 1.0032  86.7 Cm  16?  32.22 139.0   29   6   3  45
   2024 04 15 08:30  07 39 14.61    +25 26 59.0   393181 1.0032  86.8 Cm  16?  32.12 139.3   29   4   3  45
   2024 04 15 08:40  07 39 30.03    +25 22 55.5   393265 1.0032  86.8 Cm  16?  32.05 139.6   30   1   3  45
   2024 04 15 08:50  07 39 45.33    +25 18 51.6   393358 1.0032  86.9 Nt  16?  31.99 139.8   30 359   3  45
   2024 04 15 09:00  07 40 00.53    +25 14 47.3   393459 1.0032  86.9 Ne  16?  31.95 140.0   30 356   3  45
   2024 04 15 09:10  07 40 15.64    +25 10 42.4   393569 1.0032  87.0 Nm  16?  31.93 140.2   30 354   3  45
   2024 04 15 09:20  07 40 30.70    +25 06 37.1   393688 1.0032  87.1 Am  16?  31.93 140.4   29 351   3  45
   2024 04 15 09:30  07 40 45.70    +25 02 31.3   393815 1.0032  87.1 Am  16?  31.95 140.5   29 348   3  45
   2024 04 15 09:40  07 41 00.69    +24 58 25.0   393951 1.0032  87.2 Am  16?  31.98 140.5   29 346   3  45
   2024 04 15 09:50  07 41 15.67    +24 54 18.1   394096 1.0033  87.2  m  16?  32.03 140.6   28 343   3  45
   2024 04 15 10:00  07 41 30.65    +24 50 10.8   394249 1.0033  87.3  m  16?  32.09 140.6   28 341   3  45
   2024 04 15 10:10  07 41 45.67    +24 46 03.0   394410 1.0033  87.4  m  16?  32.17 140.5   27 339   3  46
   2024 04 15 10:20  07 42 00.74    +24 41 54.7   394579 1.0033  87.4  m  16?  32.26 140.5   26 336   3  46
   2024 04 15 10:30  07 42 15.86    +24 37 45.9   394757 1.0033  87.5  m  16?  32.37 140.4   26 334   3  46
   2024 04 15 10:40  07 42 31.07    +24 33 36.6   394943 1.0033  87.5  m  16?  32.48 140.3   25 332   4  46
   2024 04 15 10:50  07 42 46.37    +24 29 27.0   395136 1.0033  87.6  m  16?  32.61 140.1   24 329   4  46
   2024 04 15 11:00  07 43 01.78    +24 25 17.0   395337 1.0033  87.7  m  16?  32.75 139.9   23 327   4  46
   2024 04 15 11:10  07 43 17.31    +24 21 06.6   395545 1.0033  87.7  m  16?  32.90 139.7   22 325   4  46
   2024 04 15 11:20  07 43 32.99    +24 16 55.9   395761 1.0033  87.8  m  16?  33.06 139.4   21 323   4  46
   2024 04 15 11:30  07 43 48.82    +24 12 45.0   395984 1.0033  87.9  m  16?  33.23 139.2   20 321   4  46
   2024 04 15 11:40  07 44 04.81    +24 08 33.8   396213 1.0033  87.9  m  16?  33.41 138.9   18 319   4  46
   2024 04 15 11:50  07 44 20.99    +24 04 22.5   396449 1.0033  88.0  m  16?  33.59 138.5   17 317   4  46
   2024 04 15 12:00  07 44 37.35    +24 00 11.0   396692 1.0033  88.1  m  16?  33.79 138.2   16 315   4  46
   2024 04 15 12:10  07 44 53.92    +23 55 59.4   396940 1.0033  88.1  m  16?  33.99 137.8   14 313   4  46
   2024 04 15 12:20  07 45 10.70    +23 51 47.9   397195 1.0033  88.2  m  16?  34.20 137.4   13 312   4  46
   2024 04 15 12:30  07 45 27.70    +23 47 36.4   397454 1.0034  88.3  m  16?  34.42 137.0   12 310   4  46
   2024 04 15 12:40  07 45 44.94    +23 43 24.9   397719 1.0034  88.3  m  16?  34.64 136.6   10 308   4  46
   2024 04 15 12:50  07 46 02.42    +23 39 13.7   397989 1.0034  88.4  m  16?  34.87 136.2    9 307   4  46
   2024 04 15 13:00  07 46 20.15    +23 35 02.6   398264 1.0034  88.5  m  16?  35.10 135.7    7 305   4  46
   2024 04 15 13:10  07 46 38.14    +23 30 51.9   398542 1.0034  88.5  m  16?  35.34 135.2    5 303   4  46
   2024 04 15 13:20  07 46 56.40    +23 26 41.5   398825 1.0034  88.6  m  16?  35.59 134.8    4 302   4  46
   2024 04 15 13:30  07 47 14.92    +23 22 31.5   399111 1.0034  88.7     16?  35.83 134.3    2 300   4  47
   2024 04 15 13:40  07 47 33.72    +23 18 22.0   399401 1.0034  88.8     16?  36.09 133.8    0 299   4  47
   ................
   2024 04 16 08:20  08 27 53.15    +18 02 31.8   406451 1.0040  98.3 Cm  16?  20.64 133.8   34  20   7  55
   2024 04 16 08:30  08 28 03.55    +18 00 08.5   406472 1.0040  98.4 Cm  16?  20.61 134.3   35  17   7  55
   2024 04 16 08:40  08 28 13.86    +17 57 44.1   406501 1.0040  98.4 Cm  16?  20.61 134.8   36  15   7  55
   2024 04 16 08:50  08 28 24.07    +17 55 18.5   406539 1.0040  98.5 Nm  16?  20.61 135.3   36  12   7  55
   2024 04 16 09:00  08 28 34.22    +17 52 51.6   406586 1.0040  98.5 Nm  16?  20.64 135.7   37   9   7  55
   2024 04 16 09:10  08 28 44.30    +17 50 23.5   406642 1.0040  98.5 Nm  16?  20.68 136.0   37   6   7  55
   2024 04 16 09:20  08 28 54.35    +17 47 54.2   406707 1.0041  98.6 Am  16?  20.73 136.4   37   3   7  55
   2024 04 16 09:30  08 29 04.36    +17 45 23.7   406781 1.0041  98.6 Am  16?  20.80 136.7   37   0   7  55
   2024 04 16 09:40  08 29 14.37    +17 42 51.9   406864 1.0041  98.7 At  16?  20.89 136.9   37 357   7  55
   2024 04 16 09:50  08 29 24.37    +17 40 19.0   406956 1.0041  98.7  m  16?  20.99 137.1   37 354   7  55
   2024 04 16 10:00  08 29 34.40    +17 37 44.9   407057 1.0041  98.8  m  16?  21.10 137.2   37 351   7  55
   2024 04 16 10:10  08 29 44.45    +17 35 09.6   407167 1.0041  98.8  m  16?  21.23 137.3   37 348   7  55
   2024 04 16 10:20  08 29 54.56    +17 32 33.2   407285 1.0041  98.8  m  16?  21.36 137.4   36 345   7  56
   2024 04 16 10:30  08 30 04.72    +17 29 55.6   407413 1.0041  98.9  m  16?  21.52 137.4   36 343   7  56
   2024 04 16 10:40  08 30 14.96    +17 27 17.0   407549 1.0041  98.9  m  16?  21.68 137.3   35 340   7  56
   2024 04 16 10:50  08 30 25.29    +17 24 37.2   407694 1.0041  99.0  m  16?  21.85 137.2   35 337   7  56
   2024 04 16 11:00  08 30 35.72    +17 21 56.5   407847 1.0041  99.0  m  16?  22.04 137.1   34 334   8  56
   2024 04 16 11:10  08 30 46.28    +17 19 14.7   408009 1.0041  99.1  m  16?  22.24 136.9   33 332   8  56
   2024 04 16 11:20  08 30 56.96    +17 16 31.9   408179 1.0041  99.1  m  16?  22.44 136.7   32 329   8  56
   2024 04 16 11:30  08 31 07.79    +17 13 48.2   408357 1.0041  99.2  m  16?  22.66 136.5   31 327   8  56
   2024 04 16 11:40  08 31 18.77    +17 11 03.6   408543 1.0041  99.2  m  16?  22.89 136.2   30 324   8  56
   2024 04 16 11:50  08 31 29.92    +17 08 18.1   408736 1.0041  99.2  m  16?  23.13 135.9   29 322   8  56
   2024 04 16 12:00  08 31 41.26    +17 05 31.8   408938 1.0041  99.3  m  16?  23.38 135.5   27 320   8  56
   2024 04 16 12:10  08 31 52.79    +17 02 44.8   409146 1.0041  99.3  m  16?  23.63 135.2   26 317   8  56
   2024 04 16 12:20  08 32 04.52    +16 59 57.0   409361 1.0041  99.4  m  16?  23.90 134.8   25 315   8  56
   2024 04 16 12:30  08 32 16.47    +16 57 08.5   409583 1.0042  99.4  m  16?  24.17 134.4   23 313   8  56
   2024 04 16 12:40  08 32 28.64    +16 54 19.4   409812 1.0042  99.5  m  16?  24.45 133.9   22 311   8  56
   2024 04 16 12:50  08 32 41.05    +16 51 29.8   410047 1.0042  99.5  m  16?  24.75 133.4   20 309   8  56
   2024 04 16 13:00  08 32 53.71    +16 48 39.6   410288 1.0042  99.6  m  16?  25.04 132.9   19 307   8  56
   2024 04 16 13:10  08 33 06.61    +16 45 48.9   410534 1.0042  99.7  m  16?  25.35 132.4   17 305   8  56
   2024 04 16 13:20  08 33 19.78    +16 42 57.8   410786 1.0042  99.7  m  16?  25.66 131.9   16 304   8  56
   2024 04 16 13:30  08 33 33.22    +16 40 06.4   411043 1.0042  99.8  m  16?  25.98 131.4   14 302   8  56
   2024 04 16 13:40  08 33 46.94    +16 37 14.6   411304 1.0042  99.8  m  16?  26.31 130.9   12 300   8  56
   2024 04 16 13:50  08 34 00.93    +16 34 22.6   411570 1.0042  99.9  m  16?  26.64 130.3   11 299   8  57
   2024 04 16 14:00  08 34 15.22    +16 31 30.4   411840 1.0042  99.9  m  16?  26.97 129.8    9 297   8  57
   2024 04 16 14:10  08 34 29.80    +16 28 38.1   412114 1.0042 100.0  m  16?  27.31 129.2    7 295   8  57
   2024 04 16 14:20  08 34 44.68    +16 25 45.7   412390 1.0042 100.1  m  16?  27.66 128.6    5 294   8  57
   2024 04 16 14:30  08 34 59.86    +16 22 53.2   412670 1.0042 100.1  m  16?  28.01 128.1    3 292   8  57
   2024 04 16 14:40  08 35 15.35    +16 20 00.8   412952 1.0042 100.2     16?  28.36 127.5    2 291   8  57
   2024 04 16 14:50  08 35 31.15    +16 17 08.5   413236 1.0042 100.3     16?  28.71 126.9    0 290   8  57
   ................
   2024 04 17 08:20  09 09 29.23    +12 33 38.8   416379 1.0048 108.5 Cm  16?  18.19 128.3   36  33   9  65
   2024 04 17 08:30  09 09 38.90    +12 31 45.6   416334 1.0048 108.5 Cm  16?  18.07 129.0   37  30   9  65
   2024 04 17 08:40  09 09 48.44    +12 29 51.7   416297 1.0048 108.5 Cm  16?  17.97 129.6   38  28   9  65
   2024 04 17 08:50  09 09 57.84    +12 27 56.9   416268 1.0048 108.6 Nm  16?  17.89 130.1   39  25   9  65
   2024 04 17 09:00  09 10 07.13    +12 26 01.2   416248 1.0048 108.6 Nm  16?  17.83 130.7   40  22   9  65
   2024 04 17 09:10  09 10 16.33    +12 24 04.7   416237 1.0048 108.7 Nm  16?  17.79 131.2   41  19   9  65
   2024 04 17 09:20  09 10 25.43    +12 22 07.3   416235 1.0048 108.7 Am  16?  17.76 131.6   41  16   9  65
   2024 04 17 09:30  09 10 34.46    +12 20 09.0   416242 1.0048 108.7 Am  16?  17.74 132.0   42  13   9  65
   2024 04 17 09:40  09 10 43.44    +12 18 09.9   416257 1.0048 108.8  m  16?  17.75 132.4   42   9   9  65
   2024 04 17 09:50  09 10 52.36    +12 16 09.9   416282 1.0048 108.8  m  16?  17.77 132.7   43   6   9  65
   2024 04 17 10:00  09 11 01.26    +12 14 09.0   416316 1.0048 108.8  m  16?  17.80 133.0   43   3   9  65
   2024 04 17 10:10  09 11 10.14    +12 12 07.3   416360 1.0048 108.9  m  16?  17.85 133.2   43   0   9  65
   2024 04 17 10:20  09 11 19.02    +12 10 04.7   416412 1.0048 108.9  t  16?  17.92 133.4   43 356   9  65
   2024 04 17 10:30  09 11 27.92    +12 08 01.2   416474 1.0048 109.0  m  16?  18.00 133.5   43 353   9  65
   2024 04 17 10:40  09 11 36.84    +12 05 56.9   416545 1.0048 109.0  m  16?  18.09 133.6   42 350   9  65
   2024 04 17 10:50  09 11 45.80    +12 03 51.8   416625 1.0049 109.0  m  16?  18.20 133.6   42 346   9  65
   2024 04 17 11:00  09 11 54.81    +12 01 45.9   416714 1.0049 109.1  m  16?  18.32 133.6   42 343   9  65
   2024 04 17 11:10  09 12 03.90    +11 59 39.2   416812 1.0049 109.1  m  16?  18.46 133.6   41 340   9  65
   2024 04 17 11:20  09 12 13.07    +11 57 31.7   416919 1.0049 109.1  m  16?  18.61 133.4   40 337   9  65
   2024 04 17 11:30  09 12 22.33    +11 55 23.5   417035 1.0049 109.2  m  16?  18.77 133.3   39 334   9  65
   2024 04 17 11:40  09 12 31.70    +11 53 14.6   417160 1.0049 109.2  m  16?  18.94 133.1   39 331   9  65
   2024 04 17 11:50  09 12 41.20    +11 51 04.9   417293 1.0049 109.3  m  16?  19.13 132.8   38 328   9  65
   2024 04 17 12:00  09 12 50.83    +11 48 54.6   417435 1.0049 109.3  m  16?  19.33 132.6   37 325   9  65
   2024 04 17 12:10  09 13 00.61    +11 46 43.6   417585 1.0049 109.3  m  16?  19.54 132.3   35 323   9  65
   2024 04 17 12:20  09 13 10.55    +11 44 32.1   417742 1.0049 109.4  m  16?  19.77 131.9   34 320   9  66
   2024 04 17 12:30  09 13 20.66    +11 42 19.9   417908 1.0049 109.4  m  16?  20.00 131.5   33 318   9  66
   2024 04 17 12:40  09 13 30.96    +11 40 07.1   418081 1.0049 109.5  m  16?  20.25 131.1   32 315   9  66
   2024 04 17 12:50  09 13 41.45    +11 37 53.9   418262 1.0049 109.5  m  16?  20.51 130.7   30 313   9  66
   2024 04 17 13:00  09 13 52.15    +11 35 40.1   418449 1.0049 109.6  m  16?  20.77 130.2   29 311   9  66
   2024 04 17 13:10  09 14 03.06    +11 33 25.9   418644 1.0049 109.6  m  16?  21.05 129.7   27 309   9  66
   2024 04 17 13:20  09 14 14.20    +11 31 11.2   418845 1.0049 109.7  m  16?  21.34 129.2   26 307   9  66
   2024 04 17 13:30  09 14 25.57    +11 28 56.2   419052 1.0049 109.7  m  16?  21.64 128.7   24 305   9  66
   2024 04 17 13:40  09 14 37.19    +11 26 40.8   419265 1.0049 109.8  m  16?  21.95 128.2   22 303   9  66
   2024 04 17 13:50  09 14 49.06    +11 24 25.1   419484 1.0049 109.8  m  16?  22.27 127.6   21 301   9  66
   2024 04 17 14:00  09 15 01.19    +11 22 09.1   419708 1.0049 109.9  m  16?  22.59 127.1   19 299   9  66
   2024 04 17 14:10  09 15 13.59    +11 19 52.9   419937 1.0050 109.9  m  16?  22.93 126.5   17 297   9  66
   2024 04 17 14:20  09 15 26.27    +11 17 36.5   420171 1.0050 110.0  m  16?  23.27 126.0   15 296   9  66
   2024 04 17 14:30  09 15 39.22    +11 15 19.9   420409 1.0050 110.0  m  16?  23.62 125.4   14 294   9  66
   2024 04 17 14:40  09 15 52.46    +11 13 03.2   420651 1.0050 110.1  m  16?  23.98 124.8   12 292   9  66
   2024 04 17 14:50  09 16 06.00    +11 10 46.4   420897 1.0050 110.1  m  16?  24.34 124.2   10 291   9  66
   2024 04 17 15:00  09 16 19.83    +11 08 29.6   421145 1.0050 110.2  m  16?  24.71 123.7    8 289   9  66
   2024 04 17 15:10  09 16 33.96    +11 06 12.7   421397 1.0050 110.2  m  16?  25.08 123.1    6 288   9  66
   2024 04 17 15:20  09 16 48.39    +11 03 55.9   421651 1.0050 110.3  m  16?  25.46 122.5    4 286   9  66
   2024 04 17 15:30  09 17 03.13    +11 01 39.2   421907 1.0050 110.4  m  16?  25.84 122.0    2 285   9  66
   2024 04 17 15:40  09 17 18.18    +10 59 22.6   422165 1.0050 110.4     16?  26.23 121.4    0 283   9  67
   ................
   2024 04 18 08:20  09 48 51.56    +08 00 28.2   421586 1.0055 118.1 Cm  17?  17.88 122.4   35  45  10  73
   2024 04 18 08:30  09 49 01.63    +07 58 52.2   421475 1.0055 118.1 Cm  17?  17.67 123.0   37  43  10  73
   2024 04 18 08:40  09 49 11.53    +07 57 15.8   421371 1.0055 118.1 Nm  17?  17.49 123.6   38  40  10  73
   2024 04 18 08:50  09 49 21.26    +07 55 38.8   421275 1.0055 118.2 Nm  17?  17.32 124.2   39  38  10  74
   2024 04 18 09:00  09 49 30.83    +07 54 01.3   421188 1.0055 118.2 Nm  17?  17.18 124.7   40  35  10  74
   2024 04 18 09:10  09 49 40.27    +07 52 23.4   421108 1.0055 118.3 Am  17?  17.04 125.2   42  32  10  74
   2024 04 18 09:20  09 49 49.58    +07 50 44.9   421038 1.0055 118.3 Am  17?  16.93 125.7   43  29  10  74
   2024 04 18 09:30  09 49 58.78    +07 49 05.9   420976 1.0055 118.3 Am  17?  16.83 126.2   44  26  10  74
   2024 04 18 09:40  09 50 07.88    +07 47 26.3   420922 1.0055 118.4  m  17?  16.75 126.6   45  23  10  74
   2024 04 18 09:50  09 50 16.88    +07 45 46.3   420878 1.0055 118.4  m  17?  16.68 127.0   45  19  10  74
   2024 04 18 10:00  09 50 25.82    +07 44 05.7   420843 1.0055 118.4  m  17?  16.63 127.3   46  16  10  74
   2024 04 18 10:10  09 50 34.69    +07 42 24.6   420816 1.0055 118.5  m  17?  16.60 127.7   47  12  10  74
   2024 04 18 10:20  09 50 43.51    +07 40 43.0   420800 1.0055 118.5  m  17?  16.59 127.9   47   9  10  74
   2024 04 18 10:30  09 50 52.30    +07 39 00.9   420792 1.0056 118.6  m  17?  16.59 128.1   47   5  10  74
   2024 04 18 10:40  09 51 01.08    +07 37 18.2   420794 1.0056 118.6  m  17?  16.61 128.3   47   2  10  74
   2024 04 18 10:50  09 51 09.84    +07 35 35.1   420805 1.0056 118.6  t  17?  16.64 128.4   47 358  10  74
   2024 04 18 11:00  09 51 18.62    +07 33 51.5   420825 1.0056 118.7  m  17?  16.69 128.5   47 354  10  74
   2024 04 18 11:10  09 51 27.41    +07 32 07.3   420855 1.0056 118.7  m  17?  16.75 128.6   47 351  10  74
   2024 04 18 11:20  09 51 36.24    +07 30 22.7   420894 1.0056 118.7  m  17?  16.83 128.6   47 347  10  74
   2024 04 18 11:30  09 51 45.13    +07 28 37.6   420942 1.0056 118.8  m  17?  16.93 128.5   46 344  10  74
   2024 04 18 11:40  09 51 54.07    +07 26 52.1   421000 1.0056 118.8  m  17?  17.04 128.4   46 340  10  74
   2024 04 18 11:50  09 52 03.10    +07 25 06.1   421066 1.0056 118.8  m  17?  17.17 128.2   45 337  10  74
   2024 04 18 12:00  09 52 12.21    +07 23 19.7   421142 1.0056 118.9  m  17?  17.31 128.1   44 334  10  74
   2024 04 18 12:10  09 52 21.43    +07 21 32.8   421226 1.0056 118.9  m  17?  17.46 127.8   43 330  10  74
   2024 04 18 12:20  09 52 30.76    +07 19 45.6   421319 1.0056 119.0  m  17?  17.63 127.6   42 327  10  74
   2024 04 18 12:30  09 52 40.23    +07 17 58.0   421421 1.0056 119.0  m  17?  17.82 127.3   41 324  10  74
   2024 04 18 12:40  09 52 49.83    +07 16 10.0   421531 1.0056 119.0  m  17?  18.01 126.9   40 321  10  74
   2024 04 18 12:50  09 52 59.59    +07 14 21.6   421649 1.0056 119.1  m  17?  18.23 126.6   39 319  10  74
   2024 04 18 13:00  09 53 09.52    +07 12 33.0   421776 1.0056 119.1  m  17?  18.45 126.2   37 316  10  74
   2024 04 18 13:10  09 53 19.62    +07 10 44.0   421910 1.0056 119.2  m  17?  18.69 125.7   36 314  10  74
   2024 04 18 13:20  09 53 29.92    +07 08 54.8   422052 1.0056 119.2  m  17?  18.94 125.3   35 311  10  75
   2024 04 18 13:30  09 53 40.41    +07 07 05.2   422201 1.0056 119.3  m  17?  19.21 124.8   33 309  10  75
   2024 04 18 13:40  09 53 51.12    +07 05 15.5   422357 1.0056 119.3  m  17?  19.49 124.3   31 307  10  75
   2024 04 18 13:50  09 54 02.04    +07 03 25.5   422520 1.0056 119.3  m  17?  19.78 123.8   30 304  10  75
   2024 04 18 14:00  09 54 13.19    +07 01 35.3   422689 1.0057 119.4  m  17?  20.08 123.3   28 302  10  75
   2024 04 18 14:10  09 54 24.59    +06 59 45.0   422865 1.0057 119.4  m  17?  20.39 122.8   27 300  10  75
   2024 04 18 14:20  09 54 36.23    +06 57 54.5   423046 1.0057 119.5  m  17?  20.72 122.3   25 299  10  75
   2024 04 18 14:30  09 54 48.12    +06 56 03.9   423233 1.0057 119.5  m  17?  21.05 121.7   23 297  10  75
   2024 04 18 14:40  09 55 00.28    +06 54 13.1   423425 1.0057 119.6  m  17?  21.40 121.2   21 295  10  75
   2024 04 18 14:50  09 55 12.71    +06 52 22.3   423622 1.0057 119.6  m  17?  21.75 120.7   19 293  10  75
   2024 04 18 15:00  09 55 25.42    +06 50 31.5   423824 1.0057 119.7  m  17?  22.11 120.1   18 291  10  75
   2024 04 18 15:10  09 55 38.41    +06 48 40.6   424030 1.0057 119.7  m  17?  22.49 119.6   16 290  10  75
   2024 04 18 15:20  09 55 51.69    +06 46 49.7   424239 1.0057 119.8  m  17?  22.86 119.0   14 288  10  75
   2024 04 18 15:30  09 56 05.26    +06 44 58.8   424452 1.0057 119.9  m  17?  23.25 118.5   12 287  10  75
   2024 04 18 15:40  09 56 19.13    +06 43 08.0   424668 1.0057 119.9  m  17?  23.64 118.0   10 285  10  75
   2024 04 18 15:50  09 56 33.30    +06 41 17.3   424887 1.0057 120.0  m  17?  24.04 117.4    8 284  10  75
   2024 04 18 16:00  09 56 47.78    +06 39 26.6   425108 1.0057 120.0  m  17?  24.44 116.9    6 282  10  75
   2024 04 18 16:10  09 57 02.57    +06 37 36.0   425331 1.0057 120.1  m  17?  24.85 116.4    4 281  10  75
   2024 04 18 16:20  09 57 17.66    +06 35 45.6   425555 1.0057 120.1  m  17?  25.26 115.9    2 279   9  75
   2024 04 18 16:30  09 57 33.07    +06 33 55.4   425781 1.0057 120.2  m  17?  25.67 115.4    0 278   9  75
   ................
   2024 04 19 08:20  10 28 24.27    +04 09 17.3   421789 1.0062 127.6 Cm  17?  19.06 115.6   32  56   9  81
   2024 04 19 08:30  10 28 35.65    +04 07 54.9   421614 1.0062 127.7 Cm  17?  18.78 116.1   34  54   9  81
   2024 04 19 08:40  10 28 46.83    +04 06 32.4   421446 1.0062 127.7 Nm  17?  18.52 116.5   36  52   9  81
   2024 04 19 08:50  10 28 57.80    +04 05 09.6   421286 1.0062 127.8 Nm  17?  18.27 117.0   37  50   9  81
   2024 04 19 09:00  10 29 08.59    +04 03 46.6   421132 1.0062 127.8 Nm  17?  18.04 117.4   39  47   9  81
   2024 04 19 09:10  10 29 19.21    +04 02 23.5   420987 1.0062 127.8 Am  17?  17.82 117.9   40  45   9  81
   2024 04 19 09:20  10 29 29.66    +04 01 00.1   420849 1.0062 127.9 Am  17?  17.62 118.3   42  42   9  82
   2024 04 19 09:30  10 29 39.95    +03 59 36.6   420719 1.0062 127.9 Am  17?  17.44 118.7   43  39   9  82
   2024 04 19 09:40  10 29 50.11    +03 58 12.8   420598 1.0062 128.0  m  17?  17.27 119.1   44  36   9  82
   2024 04 19 09:50  10 30 00.13    +03 56 48.8   420485 1.0062 128.0  m  17?  17.12 119.4   46  33   9  82
   2024 04 19 10:00  10 30 10.04    +03 55 24.7   420380 1.0062 128.0  m  17?  16.99 119.7   47  30   9  82
   2024 04 19 10:10  10 30 19.85    +03 54 00.3   420285 1.0062 128.1  m  17?  16.87 120.1   48  27   9  82
   2024 04 19 10:20  10 30 29.56    +03 52 35.7   420198 1.0062 128.1  m  17?  16.77 120.3   49  23   9  82
   2024 04 19 10:30  10 30 39.20    +03 51 11.0   420120 1.0062 128.2  m  17?  16.69 120.6   49  20   9  82
   2024 04 19 10:40  10 30 48.77    +03 49 46.0   420052 1.0062 128.2  m  17?  16.63 120.8   50  16   9  82
   2024 04 19 10:50  10 30 58.29    +03 48 20.8   419993 1.0062 128.2  m  17?  16.58 120.9   51  12   9  82
   2024 04 19 11:00  10 31 07.78    +03 46 55.5   419943 1.0062 128.3  m  17?  16.55 121.1   51   8   9  82
   2024 04 19 11:10  10 31 17.24    +03 45 29.9   419902 1.0062 128.3  m  17?  16.54 121.2   51   4   9  82
   2024 04 19 11:20  10 31 26.69    +03 44 04.2   419871 1.0062 128.4  m  17?  16.55 121.2   51   0   9  82
   2024 04 19 11:30  10 31 36.15    +03 42 38.3   419849 1.0062 128.4  t  17?  16.57 121.3   51 356   9  82
   2024 04 19 11:40  10 31 45.63    +03 41 12.3   419837 1.0062 128.4  m  17?  16.61 121.2   51 352   9  82
   2024 04 19 11:50  10 31 55.13    +03 39 46.1   419834 1.0062 128.5  m  17?  16.67 121.2   51 349   9  82
   2024 04 19 12:00  10 32 04.69    +03 38 19.7   419840 1.0063 128.5  m  17?  16.75 121.1   50 345   9  82
   2024 04 19 12:10  10 32 14.30    +03 36 53.2   419856 1.0063 128.5  m  17?  16.84 120.9   50 341   9  82
   2024 04 19 12:20  10 32 23.99    +03 35 26.6   419881 1.0063 128.6  m  17?  16.95 120.8   49 337   9  82
   2024 04 19 12:30  10 32 33.76    +03 33 59.8   419914 1.0063 128.6  m  17?  17.08 120.6   48 334   9  82
   2024 04 19 12:40  10 32 43.63    +03 32 32.9   419957 1.0063 128.7  m  17?  17.22 120.3   47 330   9  82
   2024 04 19 12:50  10 32 53.62    +03 31 05.9   420009 1.0063 128.7  m  17?  17.38 120.1   46 327   9  82
   2024 04 19 13:00  10 33 03.73    +03 29 38.8   420069 1.0063 128.7  m  17?  17.56 119.8   45 324   9  82
   2024 04 19 13:10  10 33 13.98    +03 28 11.6   420138 1.0063 128.8  m  17?  17.75 119.4   44 321   9  82
   2024 04 19 13:20  10 33 24.38    +03 26 44.4   420216 1.0063 128.8  m  17?  17.96 119.1   43 318   9  82
   2024 04 19 13:30  10 33 34.95    +03 25 17.0   420301 1.0063 128.9  m  17?  18.18 118.7   41 315   9  82
   2024 04 19 13:40  10 33 45.68    +03 23 49.7   420395 1.0063 128.9  m  17?  18.42 118.3   40 312   9  82
   2024 04 19 13:50  10 33 56.61    +03 22 22.3   420496 1.0063 129.0  m  17?  18.68 117.9   39 310   9  82
   2024 04 19 14:00  10 34 07.73    +03 20 54.8   420605 1.0063 129.0  m  17?  18.95 117.5   37 307   9  82
   2024 04 19 14:10  10 34 19.07    +03 19 27.4   420721 1.0063 129.0  m  17?  19.23 117.0   35 305   9  82
   2024 04 19 14:20  10 34 30.62    +03 17 59.9   420844 1.0063 129.1  m  17?  19.53 116.6   34 303   9  82
   2024 04 19 14:30  10 34 42.39    +03 16 32.5   420973 1.0063 129.1  m  17?  19.84 116.1   32 301   9  83
   2024 04 19 14:40  10 34 54.41    +03 15 05.0   421110 1.0063 129.2  m  17?  20.17 115.7   30 299   9  83
   2024 04 19 14:50  10 35 06.67    +03 13 37.6   421252 1.0063 129.2  m  17?  20.51 115.2   29 297   9  83
   2024 04 19 15:00  10 35 19.19    +03 12 10.3   421400 1.0063 129.3  m  17?  20.86 114.8   27 295   9  83
   2024 04 19 15:10  10 35 31.97    +03 10 43.0   421553 1.0063 129.3  m  17?  21.22 114.3   25 293   9  83
   2024 04 19 15:20  10 35 45.02    +03 09 15.8   421712 1.0063 129.4  m  17?  21.59 113.8   23 291   9  83
   2024 04 19 15:30  10 35 58.35    +03 07 48.6   421875 1.0063 129.4  m  17?  21.97 113.3   21 289   9  83
   2024 04 19 15:40  10 36 11.96    +03 06 21.6   422043 1.0063 129.5  m  17?  22.37 112.9   19 288   9  83
   2024 04 19 15:50  10 36 25.87    +03 04 54.6   422214 1.0064 129.6  m  17?  22.77 112.4   17 286   9  83
   2024 04 19 16:00  10 36 40.07    +03 03 27.8   422390 1.0064 129.6  m  17?  23.18 112.0   15 285   9  83
   2024 04 19 16:10  10 36 54.57    +03 02 01.2   422569 1.0064 129.7  m  17?  23.59 111.5   14 283   9  83
   2024 04 19 16:20  10 37 09.37    +03 00 34.6   422750 1.0064 129.7  m  17?  24.02 111.1   12 282   9  83
   2024 04 19 16:30  10 37 24.49    +02 59 08.2   422934 1.0064 129.8  m  17?  24.45 110.7   10 280   9  83
   2024 04 19 16:40  10 37 39.91    +02 57 42.0   423121 1.0064 129.8  m  17?  24.88 110.3    8 279   8  83
   2024 04 19 16:50  10 37 55.65    +02 56 16.0   423309 1.0064 129.9  m  17?  25.32 109.8    6 277   8  83
   2024 04 19 17:00  10 38 11.71    +02 54 50.2   423498 1.0064 130.0  m  17?  25.76 109.4    4 276   8  83
   2024 04 19 17:10  10 38 28.08    +02 53 24.5   423688 1.0064 130.0  m  17?  26.20 109.1    2 274   8  83
   2024 04 19 17:20  10 38 44.77    +02 51 59.1   423879 1.0064 130.1  m  17?  26.65 108.7    0 273   8  83
   ................
   2024 04 20 08:20  11 10 27.35    +01 02 08.5   417127 1.0068 137.6 Cm  17?  22.08 107.2   28  67   7  88
   2024 04 20 08:30  11 10 41.29    +01 01 03.2   416894 1.0068 137.7 Cm  17?  21.74 107.4   29  65   7  88
   2024 04 20 08:40  11 10 55.00    +00 59 58.1   416667 1.0068 137.7 Nm  17?  21.41 107.7   31  63   7  88
   2024 04 20 08:50  11 11 08.49    +00 58 53.1   416446 1.0068 137.8 Nm  17?  21.09 107.9   33  61   7  88
   2024 04 20 09:00  11 11 21.75    +00 57 48.1   416232 1.0068 137.8 Nm  17?  20.78 108.2   35  59   7  88
   2024 04 20 09:10  11 11 34.82    +00 56 43.3   416023 1.0068 137.9 Am  17?  20.49 108.4   37  57   7  88
   2024 04 20 09:20  11 11 47.68    +00 55 38.5   415822 1.0068 137.9 Am  17?  20.21 108.7   38  55   7  88
   2024 04 20 09:30  11 12 00.36    +00 54 33.8   415628 1.0068 138.0 Am  17?  19.95 108.9   40  52   7  88
   2024 04 20 09:40  11 12 12.86    +00 53 29.3   415442 1.0068 138.0  m  17?  19.71 109.1   41  50   7  88
   2024 04 20 09:50  11 12 25.19    +00 52 24.8   415263 1.0068 138.1  m  17?  19.48 109.3   43  47   7  88
   2024 04 20 10:00  11 12 37.37    +00 51 20.4   415091 1.0068 138.1  m  17?  19.26 109.5   44  44   7  88
   2024 04 20 10:10  11 12 49.41    +00 50 16.2   414928 1.0068 138.2  m  17?  19.07 109.7   46  41   7  88
   2024 04 20 10:20  11 13 01.31    +00 49 12.0   414774 1.0068 138.2  m  17?  18.89 109.8   47  38   7  88
   2024 04 20 10:30  11 13 13.10    +00 48 08.0   414628 1.0068 138.2  m  17?  18.72 110.0   48  35   7  88
   2024 04 20 10:40  11 13 24.78    +00 47 04.0   414490 1.0068 138.3  m  17?  18.58 110.1   50  32   7  88
   2024 04 20 10:50  11 13 36.37    +00 46 00.2   414361 1.0068 138.3  m  17?  18.45 110.2   51  28   7  88
   2024 04 20 11:00  11 13 47.88    +00 44 56.6   414241 1.0068 138.4  m  17?  18.35 110.3   52  25   7  88
   2024 04 20 11:10  11 13 59.32    +00 43 53.0   414130 1.0068 138.4  m  17?  18.26 110.3   52  21   7  89
   2024 04 20 11:20  11 14 10.71    +00 42 49.6   414029 1.0068 138.5  m  17?  18.19 110.4   53  17   7  89
   2024 04 20 11:30  11 14 22.07    +00 41 46.4   413936 1.0068 138.5  m  17?  18.14 110.4   54  13   7  89
   2024 04 20 11:40  11 14 33.39    +00 40 43.3   413853 1.0068 138.6  m  17?  18.11 110.4   54   9   7  89
   2024 04 20 11:50  11 14 44.70    +00 39 40.3   413779 1.0068 138.6  m  17?  18.09 110.3   54   4   7  89
   2024 04 20 12:00  11 14 56.02    +00 38 37.5   413715 1.0068 138.6  m  17?  18.10 110.2   54   0   7  89
   2024 04 20 12:10  11 15 07.35    +00 37 34.9   413660 1.0069 138.7  t  17?  18.13 110.2   54 356   7  89
   2024 04 20 12:20  11 15 18.71    +00 36 32.4   413614 1.0069 138.7  m  17?  18.18 110.0   54 352   7  89
   2024 04 20 12:30  11 15 30.12    +00 35 30.1   413578 1.0069 138.8  m  17?  18.24 109.9   54 347   7  89
   2024 04 20 12:40  11 15 41.59    +00 34 28.0   413551 1.0069 138.8  m  17?  18.33 109.8   53 343   7  89
   2024 04 20 12:50  11 15 53.12    +00 33 26.1   413533 1.0069 138.9  m  17?  18.43 109.6   53 339   7  89
   2024 04 20 13:00  11 16 04.75    +00 32 24.4   413525 1.0069 138.9  m  17?  18.56 109.4   52 335   7  89
   2024 04 20 13:10  11 16 16.47    +00 31 22.9   413525 1.0069 138.9  m  17?  18.70 109.2   51 332   7  89
   2024 04 20 13:20  11 16 28.30    +00 30 21.6   413535 1.0069 139.0  m  17?  18.86 108.9   50 328   7  89
   2024 04 20 13:30  11 16 40.26    +00 29 20.4   413553 1.0069 139.0  m  17?  19.05 108.7   49 325   7  89
   2024 04 20 13:40  11 16 52.36    +00 28 19.5   413580 1.0069 139.1  m  17?  19.25 108.4   48 321   7  89
   2024 04 20 13:50  11 17 04.62    +00 27 18.9   413616 1.0069 139.1  m  17?  19.46 108.1   47 318   7  89
   2024 04 20 14:00  11 17 17.03    +00 26 18.4   413659 1.0069 139.2  m  17?  19.70 107.8   45 315   7  89
   2024 04 20 14:10  11 17 29.63    +00 25 18.2   413711 1.0069 139.2  m  17?  19.96 107.5   44 312   7  89
   2024 04 20 14:20  11 17 42.41    +00 24 18.2   413771 1.0069 139.3  m  17?  20.23 107.2   42 310   7  89
   2024 04 20 14:30  11 17 55.39    +00 23 18.5   413839 1.0069 139.3  m  17?  20.52 106.9   41 307   7  89
   2024 04 20 14:40  11 18 08.59    +00 22 19.0   413914 1.0069 139.4  m  17?  20.82 106.5   39 305   7  89
   2024 04 20 14:50  11 18 22.01    +00 21 19.7   413997 1.0069 139.4  m  17?  21.14 106.2   38 302   7  89
   2024 04 20 15:00  11 18 35.66    +00 20 20.7   414086 1.0069 139.5  m  17?  21.48 105.9   36 300   7  89
   2024 04 20 15:10  11 18 49.55    +00 19 22.0   414182 1.0069 139.5  m  17?  21.83 105.5   34 298   7  89
   2024 04 20 15:20  11 19 03.70    +00 18 23.6   414285 1.0069 139.6  m  17?  22.20 105.2   32 296   6  89
   2024 04 20 15:30  11 19 18.11    +00 17 25.4   414393 1.0069 139.6  m  17?  22.57 104.9   31 294   6  89
   2024 04 20 15:40  11 19 32.79    +00 16 27.5   414507 1.0069 139.7  m  17?  22.97 104.5   29 292   6  89
   2024 04 20 15:50  11 19 47.75    +00 15 29.8   414627 1.0069 139.8  m  17?  23.37 104.2   27 291   6  89
   2024 04 20 16:00  11 20 03.00    +00 14 32.5   414752 1.0069 139.8  m  17?  23.79 103.9   25 289   6  89
   2024 04 20 16:10  11 20 18.54    +00 13 35.4   414882 1.0069 139.9  m  17?  24.21 103.6   23 287   6  89
   2024 04 20 16:20  11 20 34.38    +00 12 38.6   415016 1.0069 139.9  m  17?  24.65 103.3   21 285   6  89
   2024 04 20 16:30  11 20 50.53    +00 11 42.2   415154 1.0070 140.0  m  17?  25.10 102.9   19 284   6  89
   2024 04 20 16:40  11 21 06.99    +00 10 46.0   415295 1.0070 140.1  m  17?  25.55 102.6   17 282   6  89
   2024 04 20 16:50  11 21 23.77    +00 09 50.1   415441 1.0070 140.1  m  17?  26.01 102.3   15 281   6  89
   2024 04 20 17:00  11 21 40.88    +00 08 54.5   415589 1.0070 140.2  m  17?  26.48 102.1   13 279   6  89
   2024 04 20 17:10  11 21 58.31    +00 07 59.2   415739 1.0070 140.3  m  17?  26.96 101.8   11 278   6  90
   2024 04 20 17:20  11 22 16.06    +00 07 04.2   415892 1.0070 140.3  m  17?  27.44 101.5    9 276   6  90
   2024 04 20 17:30  11 22 34.16    +00 06 09.5   416046 1.0070 140.4  m  17?  27.93 101.2    7 275   6  90
   2024 04 20 17:40  11 22 52.58    +00 05 15.2   416202 1.0070 140.5  m  17?  28.41 101.0    5 274   6  90
   2024 04 20 17:50  11 23 11.35    +00 04 21.1   416359 1.0070 140.5  m  17?  28.91 100.7    3 272   6  90
   2024 04 20 18:00  11 23 30.45    +00 03 27.4   416517 1.0070 140.6  m  17?  29.40 100.5    1 271   6  90
   2024 04 20 18:10  11 23 49.89    +00 02 33.9   416674 1.0070 140.7  m  17?  29.89 100.2    0 269   6  90
   ................
   2024 04 21 08:20  11 59 28.66    -00 54 08.5   408257 1.0073 148.8 Cm  17?  30.84  94.5   20  76   4  93
   2024 04 21 08:30  11 59 49.05    -00 54 32.4   407976 1.0073 148.9 Cm  17?  30.53  94.4   22  74   4  93
   2024 04 21 08:40  12 00 09.25    -00 54 55.7   407700 1.0073 148.9 Nm  17?  30.23  94.4   24  73   4  93
   2024 04 21 08:50  12 00 29.25    -00 55 18.5   407428 1.0073 149.0 Nm  17?  29.95  94.3   26  71   4  93
   2024 04 21 09:00  12 00 49.07    -00 55 40.6   407160 1.0073 149.1 Nm  17?  29.67  94.2   28  70   4  93
   2024 04 21 09:10  12 01 08.72    -00 56 02.2   406898 1.0073 149.2 Am  17?  29.42  94.1   29  68   4  93
   2024 04 21 09:20  12 01 28.20    -00 56 23.1   406641 1.0073 149.2 Am  17?  29.17  94.1   31  66   3  94
   2024 04 21 09:30  12 01 47.53    -00 56 43.4   406390 1.0073 149.3 Am  17?  28.95  94.0   33  64   3  94
   2024 04 21 09:40  12 02 06.71    -00 57 03.0   406146 1.0073 149.4  m  17?  28.74  93.8   35  62   3  94
   2024 04 21 09:50  12 02 25.77    -00 57 22.0   405907 1.0073 149.4  m  17?  28.54  93.8   37  60   3  94
   2024 04 21 10:00  12 02 44.70    -00 57 40.4   405675 1.0073 149.5  m  17?  28.37  93.6   38  58   3  94
   2024 04 21 10:10  12 03 03.52    -00 57 58.1   405450 1.0073 149.6  m  17?  28.21  93.5   40  56   3  94
   2024 04 21 10:20  12 03 22.25    -00 58 15.0   405232 1.0073 149.6  m  17?  28.07  93.4   42  53   3  94
   2024 04 21 10:30  12 03 40.90    -00 58 31.3   405022 1.0074 149.7  m  17?  27.96  93.3   43  51   3  94
   2024 04 21 10:40  12 03 59.48    -00 58 46.9   404819 1.0074 149.8  m  17?  27.86  93.1   45  48   3  94
   2024 04 21 10:50  12 04 18.00    -00 59 01.8   404624 1.0074 149.8  m  17?  27.79  93.0   46  45   3  94
   2024 04 21 11:00  12 04 36.49    -00 59 15.9   404437 1.0074 149.9  m  17?  27.74  92.8   48  42   3  94
   2024 04 21 11:10  12 04 54.96    -00 59 29.3   404259 1.0074 150.0  m  17?  27.72  92.7   49  39   3  94
   2024 04 21 11:20  12 05 13.42    -00 59 42.0   404088 1.0074 150.0  m  17?  27.72  92.5   50  36   3  94
   2024 04 21 11:30  12 05 31.90    -00 59 53.9   403927 1.0074 150.1  m  17?  27.75  92.4   51  32   3  94
   2024 04 21 11:40  12 05 50.40    -01 00 05.1   403774 1.0074 150.2  m  17?  27.80  92.2   52  29   3  94
   2024 04 21 11:50  12 06 08.94    -01 00 15.4   403630 1.0074 150.2  m  17?  27.87  92.1   53  25   3  94
   2024 04 21 12:00  12 06 27.55    -01 00 25.0   403494 1.0074 150.3  m  17?  27.98  91.9   54  21   3  94
   2024 04 21 12:10  12 06 46.24    -01 00 33.8   403368 1.0074 150.4  m  17?  28.11  91.7   55  17   3  94
   2024 04 21 12:20  12 07 05.03    -01 00 41.8   403251 1.0074 150.4  m  17?  28.28  91.5   55  13   3  94
   2024 04 21 12:30  12 07 23.94    -01 00 49.0   403143 1.0074 150.5  m  17?  28.47  91.4   56   9   3  94
   2024 04 21 12:40  12 07 42.99    -01 00 55.5   403044 1.0074 150.6  m  17?  28.69  91.2   56   4   3  94
   2024 04 21 12:50  12 08 02.20    -01 01 01.1   402954 1.0074 150.6  m  17?  28.95  91.0   56   0   2  94
   2024 04 21 13:00  12 08 21.59    -01 01 05.9   402874 1.0074 150.7  t  17?  29.23  90.8   56 355   2  94
   2024 04 21 13:10  12 08 41.19    -01 01 09.9   402803 1.0074 150.8  m  17?  29.55  90.7   56 351   2  94
   2024 04 21 13:20  12 09 01.00    -01 01 13.1   402740 1.0074 150.8  m  17?  29.90  90.5   55 347   2  94
   2024 04 21 13:30  12 09 21.06    -01 01 15.5   402687 1.0074 150.9  m  17?  30.28  90.4   55 343   2  94
   2024 04 21 13:40  12 09 41.39    -01 01 17.1   402643 1.0074 151.0  m  17?  30.70  90.2   54 338   2  94
   2024 04 21 13:50  12 10 02.01    -01 01 17.9   402608 1.0074 151.1  m  17?  31.15  90.1   54 335   2  94
   2024 04 21 14:00  12 10 22.94    -01 01 17.9   402581 1.0074 151.1  m  17?  31.64  89.9   53 331   2  94
   2024 04 21 14:10  12 10 44.22    -01 01 17.2   402564 1.0074 151.2  m  17?  32.17  89.8   52 327   2  94
   2024 04 21 14:20  12 11 05.86    -01 01 15.8   402554 1.0074 151.3  m  17?  32.74  89.7   50 324   2  94
   2024 04 21 14:30  12 11 27.89    -01 01 13.7   402554 1.0074 151.4  m  17?  33.35  89.6   49 320   2  94
   2024 04 21 14:40  12 11 50.33    -01 01 10.9   402561 1.0074 151.4  m  17?  34.00  89.5   48 317   2  94
   2024 04 21 14:50  12 12 13.23    -01 01 07.6   402576 1.0074 151.5  m  17?  34.69  89.4   47 314   2  94
   2024 04 21 15:00  12 12 36.60    -01 01 03.6   402600 1.0074 151.6  m  17?  35.43  89.3   45 312   2  94
   2024 04 21 15:10  12 13 00.48    -01 00 59.1   402630 1.0075 151.7  m  17?  36.21  89.3   44 309   2  94
   2024 04 21 15:20  12 13 24.90    -01 00 54.3   402669 1.0075 151.8  m  17?  37.05  89.2   42 306   2  94
   2024 04 21 15:30  12 13 49.89    -01 00 49.1   402714 1.0075 151.9  m  17?  37.94  89.2   40 304   2  94
   2024 04 21 15:40  12 14 15.50    -01 00 43.7   402766 1.0075 151.9  m  17?  38.88  89.2   39 302   2  94
   2024 04 21 15:50  12 14 41.75    -01 00 38.3   402825 1.0075 152.0  m  17?  39.89  89.2   37 300   2  94
   2024 04 21 16:00  12 15 08.70    -01 00 33.1   402890 1.0075 152.1  m  17?  40.96  89.3   35 297   2  94
   2024 04 21 16:10  12 15 36.38    -01 00 28.2   402961 1.0075 152.2  m  17?  42.10  89.4   34 295   1  94
   2024 04 21 16:20  12 16 04.86    -01 00 24.0   403038 1.0075 152.3  m  17?  43.32  89.5   32 294   1  94
   2024 04 21 16:30  12 16 34.18    -01 00 20.8   403120 1.0075 152.4  m  17?  44.63  89.7   30 292   1  94
   2024 04 21 16:40  12 17 04.40    -01 00 19.1   403207 1.0075 152.5  m  17?  46.04  89.9   28 290   1  94
   2024 04 21 16:50  12 17 35.59    -01 00 19.4   403299 1.0075 152.6  m  17?  47.55  90.2   26 288   1  94
   2024 04 21 17:00  12 18 07.83    -01 00 22.5   403396 1.0075 152.8  m  17?  49.19  90.5   25 287   1  94
   2024 04 21 17:10  12 18 41.21    -01 00 29.3   403496 1.0075 152.9  m  17?  50.96  91.0   23 285   1  94
   2024 04 21 17:20  12 19 15.81    -01 00 41.1   403600 1.0075 153.0  m  17?  52.89  91.6   21 284   1  94
   2024 04 21 17:30  12 19 51.75    -01 00 59.6   403707 1.0075 153.1  m  17?  55.00  92.3   19 282   1  95
   2024 04 21 17:40  12 20 29.14    -01 01 26.8   403818 1.0075 153.3  m  17?  57.32  93.2   17 281   1  95
   2024 04 21 17:50  12 21 08.11    -01 02 05.8   403931 1.0075 153.4  m  17?  59.87  94.4   15 279   1  95
   2024 04 21 18:00  12 21 48.79    -01 03 00.6   404048 1.0075 153.6  m  17?  62.68  95.9   13 278   1  95
   2024 04 21 18:10  12 22 31.28    -01 04 16.6   404167 1.0075 153.7  m  17?  65.74  97.8   11 276   1  95
   2024 04 21 18:20  12 23 15.65    -01 06 01.3   404290 1.0075 153.9  m  17?  69.03 100.1    9 275   1  95
   2024 04 21 18:30  12 24 01.84    -01 08 24.1   404419 1.0075 154.1  m  17?  72.43 103.2    8 274   1  95
   2024 04 21 18:40  12 24 49.54    -01 11 36.8   404553 1.0075 154.3  m  18?  75.70 107.0    6 272   1  95
   2024 04 21 18:50  12 25 38.07    -01 15 50.9   404698 1.0075 154.5  m  18?  78.40 111.5    4 271   0  95
   2024 04 21 19:00  12 26 26.34    -01 21 14.5   404855 1.0076 154.7  m  18?  80.00 116.6    2 269   0  95
   2024 04 21 19:10  12 27 12.98    -01 27 46.5   405028 1.0076 154.9  m  18?  80.15 121.8    0 268   0  95
   ................
   2024 04 22 08:20  12 56 09.14    -09 15 09.5   407714 1.0079 163.8 Cm  18?  34.51 146.2   14  91   4  97
   2024 04 22 08:30  12 56 21.93    -09 19 56.0   407549 1.0079 163.9 Cm  18?  34.17 146.8   16  90   4  97
   2024 04 22 08:40  12 56 34.40    -09 24 41.6   407386 1.0079 163.9 Nm  18?  33.83 147.3   18  88   4  97
   2024 04 22 08:50  12 56 46.55    -09 29 26.2   407226 1.0079 164.0 Nm  18?  33.50 147.9   20  87   4  97
   2024 04 22 09:00  12 56 58.38    -09 34 09.9   407069 1.0079 164.1 Nm  18?  33.17 148.5   22  86   4  97
   2024 04 22 09:10  12 57 09.91    -09 38 52.5   406915 1.0079 164.1 Am  18?  32.84 149.1   24  84   4  97
   2024 04 22 09:20  12 57 21.12    -09 43 34.2   406765 1.0079 164.2 Am  18?  32.52 149.7   26  83   4  97
   2024 04 22 09:30  12 57 32.04    -09 48 14.7   406619 1.0079 164.2 Am  18?  32.21 150.3   28  81   4  97
   2024 04 22 09:40  12 57 42.66    -09 52 54.2   406478 1.0079 164.3  m  18?  31.90 150.9   30  80   4  97
   2024 04 22 09:50  12 57 52.99    -09 57 32.6   406342 1.0079 164.3  m  18?  31.60 151.5   32  78   5  97
   2024 04 22 10:00  12 58 03.05    -10 02 09.8   406211 1.0079 164.4  m  18?  31.30 152.0   34  77   5  97
   2024 04 22 10:10  12 58 12.83    -10 06 45.8   406085 1.0079 164.4  m  18?  31.01 152.6   36  75   5  97
   2024 04 22 10:20  12 58 22.35    -10 11 20.6   405965 1.0079 164.5  m  18?  30.73 153.1   38  73   5  97
   2024 04 22 10:30  12 58 31.62    -10 15 54.2   405852 1.0079 164.5  m  18?  30.45 153.6   40  72   5  97
   2024 04 22 10:40  12 58 40.64    -10 20 26.5   405745 1.0079 164.5  m  18?  30.17 154.1   42  70   5  97
   2024 04 22 10:50  12 58 49.42    -10 24 57.5   405644 1.0079 164.6  m  18?  29.91 154.6   44  68   5  97
   2024 04 22 11:00  12 58 57.98    -10 29 27.1   405551 1.0079 164.6  m  18?  29.65 155.0   46  66   5  97
   2024 04 22 11:10  12 59 06.33    -10 33 55.4   405465 1.0079 164.7  m  18?  29.39 155.5   48  63   5  97
   2024 04 22 11:20  12 59 14.48    -10 38 22.3   405387 1.0079 164.7  m  18?  29.14 155.9   50  61   5  97
   2024 04 22 11:30  12 59 22.43    -10 42 47.7   405316 1.0079 164.7  m  18?  28.90 156.3   52  58   5  97
   2024 04 22 11:40  12 59 30.21    -10 47 11.7   405254 1.0079 164.8  m  18?  28.66 156.6   54  55   5  97
   2024 04 22 11:50  12 59 37.82    -10 51 34.2   405200 1.0079 164.8  m  18?  28.43 156.9   55  52   5  97
   2024 04 22 12:00  12 59 45.28    -10 55 55.2   405154 1.0079 164.8  m  18?  28.20 157.2   57  49   5  97
   2024 04 22 12:10  12 59 52.59    -11 00 14.6   405117 1.0079 164.9  m  18?  27.98 157.5   59  46   5  97
   2024 04 22 12:20  12 59 59.78    -11 04 32.5   405088 1.0079 164.9  m  18?  27.77 157.7   60  42   5  97
   2024 04 22 12:30  13 00 06.86    -11 08 48.7   405069 1.0079 164.9  m  18?  27.56 157.9   61  38   5  98
   2024 04 22 12:40  13 00 13.84    -11 13 03.4   405058 1.0079 165.0  m  18?  27.36 158.0   63  33   5  98
   2024 04 22 12:50  13 00 20.74    -11 17 16.4   405057 1.0079 165.0  m  18?  27.16 158.1   64  28   5  98
   2024 04 22 13:00  13 00 27.57    -11 21 27.7   405065 1.0079 165.0  m  18?  26.97 158.2   65  23   5  98
   2024 04 22 13:10  13 00 34.34    -11 25 37.4   405082 1.0079 165.0  m  18?  26.79 158.2   66  17   5  98
   2024 04 22 13:20  13 00 41.07    -11 29 45.4   405109 1.0079 165.1  m  18?  26.61 158.1   66  12   5  98
   2024 04 22 13:30  13 00 47.77    -11 33 51.7   405145 1.0079 165.1  m  18?  26.44 158.1   67   5   5  98
   2024 04 22 13:40  13 00 54.47    -11 37 56.2   405190 1.0080 165.1  t  18?  26.28 157.9   67 359   5  98
   2024 04 22 13:50  13 01 01.16    -11 41 59.1   405245 1.0080 165.1  e  18?  26.12 157.8   67 353   5  98
   2024 04 22 14:00  13 01 07.88    -11 46 00.2   405309 1.0080 165.2  m  18?  25.98 157.5   66 347   5  98
   2024 04 22 14:10  13 01 14.63    -11 49 59.5   405383 1.0080 165.2  m  18?  25.84 157.3   66 341   5  98
   2024 04 22 14:20  13 01 21.43    -11 53 57.1   405465 1.0080 165.2  m  18?  25.71 157.0   65 335   5  98
   2024 04 22 14:30  13 01 28.29    -11 57 53.0   405557 1.0080 165.2  m  18?  25.59 156.6   64 330   5  98
   2024 04 22 14:40  13 01 35.23    -12 01 47.1   405659 1.0080 165.3  m  18?  25.47 156.2   63 325   6  98
   2024 04 22 14:50  13 01 42.26    -12 05 39.5   405769 1.0080 165.3  m  18?  25.37 155.7   62 320   6  98
   2024 04 22 15:00  13 01 49.40    -12 09 30.1   405888 1.0080 165.3  m  18?  25.28 155.2   61 316   6  98
   2024 04 22 15:10  13 01 56.66    -12 13 19.0   406016 1.0080 165.3  m  18?  25.20 154.7   59 312   6  98
   2024 04 22 15:20  13 02 04.05    -12 17 06.1   406152 1.0080 165.4  m  18?  25.14 154.1   58 308   6  98
   2024 04 22 15:30  13 02 11.59    -12 20 51.6   406297 1.0080 165.4  m  18?  25.08 153.5   56 304   6  98
   2024 04 22 15:40  13 02 19.30    -12 24 35.3   406451 1.0080 165.4  m  18?  25.04 152.8   55 301   6  98
   2024 04 22 15:50  13 02 27.17    -12 28 17.4   406612 1.0080 165.5  m  18?  25.01 152.1   53 298   6  98
   2024 04 22 16:00  13 02 35.23    -12 31 57.8   406781 1.0080 165.5  m  18?  25.00 151.4   51 296   6  98
   2024 04 22 16:10  13 02 43.50    -12 35 36.5   406958 1.0080 165.5  m  18?  25.00 150.6   49 293   6  98
   2024 04 22 16:20  13 02 51.97    -12 39 13.6   407142 1.0080 165.5  m  18?  25.01 149.8   47 291   6  98
   2024 04 22 16:30  13 03 00.66    -12 42 49.1   407333 1.0080 165.6  m  18?  25.04 148.9   46 289   6  98
   2024 04 22 16:40  13 03 09.59    -12 46 23.1   407530 1.0080 165.6  m  18?  25.09 148.1   44 286   6  98
   2024 04 22 16:50  13 03 18.76    -12 49 55.5   407735 1.0080 165.6  m  18?  25.15 147.2   42 284   6  98
   2024 04 22 17:00  13 03 28.18    -12 53 26.4   407945 1.0080 165.7  m  18?  25.23 146.3   40 283   6  98
   2024 04 22 17:10  13 03 37.86    -12 56 55.8   408162 1.0080 165.7  m  18?  25.33 145.4   38 281   6  98
   2024 04 22 17:20  13 03 47.82    -13 00 23.8   408384 1.0080 165.7  m  18?  25.44 144.5   36 279   6  98
   2024 04 22 17:30  13 03 58.06    -13 03 50.3   408611 1.0080 165.8  m  18?  25.57 143.5   34 277   6  98
   2024 04 22 17:40  13 04 08.59    -13 07 15.5   408843 1.0080 165.8  m  18?  25.72 142.6   32 276   6  98
   2024 04 22 17:50  13 04 19.41    -13 10 39.4   409080 1.0080 165.8  m  18?  25.88 141.7   30 274   6  98
   2024 04 22 18:00  13 04 30.53    -13 14 02.0   409320 1.0080 165.9  m  18?  26.06 140.7   28 273   6  98
   2024 04 22 18:10  13 04 41.96    -13 17 23.3   409565 1.0080 165.9  m  18?  26.25 139.8   26 271   6  98
   2024 04 22 18:20  13 04 53.71    -13 20 43.5   409813 1.0080 165.9  m  18?  26.46 138.9   24 270   6  98
   2024 04 22 18:30  13 05 05.78    -13 24 02.5   410064 1.0080 166.0  m  18?  26.69 138.0   22 268   6  98
   2024 04 22 18:40  13 05 18.17    -13 27 20.4   410318 1.0080 166.0  m  18?  26.92 137.1   20 267   6  98
   2024 04 22 18:50  13 05 30.88    -13 30 37.2   410574 1.0080 166.1  m  18?  27.17 136.2   18 265   6  98
   2024 04 22 19:00  13 05 43.93    -13 33 53.0   410832 1.0080 166.1  m  18?  27.44 135.3   16 264   6  98
   2024 04 22 19:10  13 05 57.31    -13 37 07.9   411092 1.0080 166.2  m  18?  27.72 134.5   14 263   6  98
   2024 04 22 19:20  13 06 11.03    -13 40 21.9   411352 1.0080 166.2  m  18?  28.00 133.6   12 261   6  98
   2024 04 22 19:30  13 06 25.09    -13 43 35.0   411614 1.0080 166.3  m  18?  28.30 132.8   10 260   6  98
   2024 04 22 19:40  13 06 39.48    -13 46 47.3   411875 1.0081 166.3  m  18?  28.61 132.1    8 259   6  98
   2024 04 22 19:50  13 06 54.21    -13 49 58.9   412137 1.0081 166.4 Am  18?  28.92 131.3    6 257   6  98
   2024 04 22 20:00  13 07 09.28    -13 53 09.8   412398 1.0081 166.4 Am  18?  29.25 130.6    4 256   6  98
   2024 04 22 20:10  13 07 24.68    -13 56 20.1   412658 1.0081 166.5 Am  18?  29.58 129.9    2 254   6  98
   2024 04 22 20:20  13 07 40.42    -13 59 29.8   412917 1.0081 166.5 N   18?  29.91 129.2    1 253   6  98
   ................
   2024 04 23 08:10  13 31 34.79    -17 59 02.6   414664 1.0082 170.4 Cm  18?  31.17 135.1   10 104   8  99
   2024 04 23 08:20  13 31 50.01    -18 02 43.7   414481 1.0082 170.4 Cm  18?  30.83 135.7   12 103   8  99
   2024 04 23 08:30  13 32 04.92    -18 06 24.7   414298 1.0082 170.4 Cm  18?  30.48 136.3   14 102   8  99
   2024 04 23 08:40  13 32 19.50    -18 10 05.3   414115 1.0082 170.4 Nm  18?  30.14 136.9   16 101   8  99
   2024 04 23 08:50  13 32 33.75    -18 13 45.6   413934 1.0082 170.4 Nm  18?  29.79 137.5   18  99   8  99
   2024 04 23 09:00  13 32 47.69    -18 17 25.4   413755 1.0082 170.4 Nm  18?  29.45 138.1   20  98   8  99
   2024 04 23 09:10  13 33 01.31    -18 21 04.8   413578 1.0082 170.4 Am  18?  29.11 138.7   22  97   8  99
   2024 04 23 09:20  13 33 14.61    -18 24 43.6   413403 1.0083 170.5 Am  18?  28.77 139.3   24  96   8  99
   2024 04 23 09:30  13 33 27.61    -18 28 21.7   413230 1.0083 170.5 Am  18?  28.43 139.9   26  94   8  99
   2024 04 23 09:40  13 33 40.29    -18 31 59.2   413061 1.0083 170.5  m  18?  28.09 140.5   28  93   8  99
   2024 04 23 09:50  13 33 52.67    -18 35 35.9   412895 1.0083 170.5  m  18?  27.75 141.1   30  92   8  99
   2024 04 23 10:00  13 34 04.75    -18 39 11.8   412733 1.0083 170.5  m  18?  27.42 141.7   32  91   8  99
   2024 04 23 10:10  13 34 16.54    -18 42 46.8   412576 1.0083 170.4  m  18?  27.09 142.3   35  89   8  99
   2024 04 23 10:20  13 34 28.05    -18 46 20.9   412422 1.0083 170.4  m  18?  26.77 142.8   37  88   8  99
   2024 04 23 10:30  13 34 39.27    -18 49 53.9   412274 1.0083 170.4  m  18?  26.45 143.4   39  87   8  99
   2024 04 23 10:40  13 34 50.23    -18 53 25.8   412131 1.0083 170.4  m  18?  26.13 143.9   41  85   8  99
   2024 04 23 10:50  13 35 00.92    -18 56 56.6   411993 1.0083 170.4  m  18?  25.81 144.4   43  84   8  99
   2024 04 23 11:00  13 35 11.36    -19 00 26.2   411861 1.0083 170.4  m  18?  25.51 144.9   45  82   8  99
   2024 04 23 11:10  13 35 21.55    -19 03 54.5   411735 1.0083 170.4  m  18?  25.20 145.4   47  80   8  99
   2024 04 23 11:20  13 35 31.51    -19 07 21.5   411616 1.0083 170.4  m  18?  24.90 145.8   49  79   8  99
   2024 04 23 11:30  13 35 41.24    -19 10 47.1   411503 1.0083 170.4  m  18?  24.61 146.2   51  77   8  99
   2024 04 23 11:40  13 35 50.76    -19 14 11.2   411397 1.0083 170.4  m  18?  24.32 146.6   53  75   8  99
   2024 04 23 11:50  13 36 00.07    -19 17 33.8   411298 1.0083 170.3  m  18?  24.04 147.0   55  73   8  99
   2024 04 23 12:00  13 36 09.20    -19 20 54.9   411206 1.0083 170.3  m  18?  23.76 147.3   57  71   8  99
   2024 04 23 12:10  13 36 18.14    -19 24 14.4   411122 1.0083 170.3  m  18?  23.49 147.6   59  68   8  99
   2024 04 23 12:20  13 36 26.92    -19 27 32.2   411046 1.0083 170.3  m  18?  23.22 147.9   61  65   8  99
   2024 04 23 12:30  13 36 35.54    -19 30 48.3   410977 1.0083 170.3  m  18?  22.97 148.1   63  62   8  99
   2024 04 23 12:40  13 36 44.03    -19 34 02.7   410917 1.0083 170.3  m  18?  22.72 148.3   64  59   8  99
   2024 04 23 12:50  13 36 52.38    -19 37 15.3   410865 1.0083 170.3  m  18?  22.47 148.4   66  55   8  99
   2024 04 23 13:00  13 37 00.63    -19 40 26.1   410821 1.0083 170.2  m  18?  22.23 148.5   68  51   8  99
   2024 04 23 13:10  13 37 08.77    -19 43 35.0   410786 1.0083 170.2  m  18?  22.00 148.6   69  46   8  99
   2024 04 23 13:20  13 37 16.83    -19 46 42.1   410760 1.0083 170.2  m  18?  21.78 148.6   71  41   8  99
   2024 04 23 13:30  13 37 24.82    -19 49 47.2   410742 1.0083 170.2  m  18?  21.57 148.5   72  35   8  99
   2024 04 23 13:40  13 37 32.75    -19 52 50.4   410733 1.0083 170.2  m  18?  21.37 148.4   73  28   8  99
   2024 04 23 13:50  13 37 40.65    -19 55 51.6   410733 1.0083 170.1  m  18?  21.17 148.2   74  20   8  99
   2024 04 23 14:00  13 37 48.51    -19 58 50.8   410742 1.0083 170.1  m  18?  20.99 148.0   75  11   8  99
   2024 04 23 14:10  13 37 56.37    -20 01 48.0   410760 1.0083 170.1  m  18?  20.81 147.8   75   2   8  99
   2024 04 23 14:20  13 38 04.23    -20 04 43.3   410786 1.0083 170.1  t  18?  20.65 147.4   75 353   8  99
   2024 04 23 14:30  13 38 12.11    -20 07 36.4   410822 1.0083 170.1  m  18?  20.50 147.0   75 343   8  99
   2024 04 23 14:40  13 38 20.02    -20 10 27.6   410866 1.0083 170.1  m  18?  20.36 146.6   74 335   8  99
   2024 04 23 14:50  13 38 27.99    -20 13 16.7   410920 1.0083 170.0  m  18?  20.23 146.1   73 327   8  99
   2024 04 23 15:00  13 38 36.01    -20 16 03.8   410981 1.0083 170.0  m  18?  20.12 145.5   72 320   8  99
   2024 04 23 15:10  13 38 44.12    -20 18 48.9   411052 1.0083 170.0  m  18?  20.02 144.9   71 314   8  99
   2024 04 23 15:20  13 38 52.33    -20 21 31.9   411131 1.0083 170.0  m  18?  19.93 144.3   69 309   8  99
   2024 04 23 15:30  13 39 00.64    -20 24 13.0   411219 1.0083 170.0  m  18?  19.87 143.6   68 304   8  99
   2024 04 23 15:40  13 39 09.07    -20 26 52.0   411315 1.0083 170.0  m  18?  19.81 142.8   66 300   8  99
   2024 04 23 15:50  13 39 17.64    -20 29 29.1   411419 1.0083 170.0  m  18?  19.78 142.0   64 296   8  99
   2024 04 23 16:00  13 39 26.37    -20 32 04.2   411531 1.0083 169.9  m  18?  19.76 141.1   62 293   8  99
   2024 04 23 16:10  13 39 35.26    -20 34 37.4   411651 1.0083 169.9  m  18?  19.77 140.3   60 290   8  99
   2024 04 23 16:20  13 39 44.33    -20 37 08.7   411779 1.0083 169.9  m  18?  19.79 139.3   59 288   8  99
   2024 04 23 16:30  13 39 53.59    -20 39 38.1   411914 1.0083 169.9  m  18?  19.83 138.4   57 285   8  99
   2024 04 23 16:40  13 40 03.05    -20 42 05.7   412056 1.0083 169.9  m  18?  19.89 137.4   55 283   8  99
   2024 04 23 16:50  13 40 12.73    -20 44 31.5   412206 1.0083 169.9  m  18?  19.97 136.4   53 281   8  99
   2024 04 23 17:00  13 40 22.64    -20 46 55.5   412362 1.0083 169.9  m  18?  20.07 135.4   51 279   8  99
   2024 04 23 17:10  13 40 32.78    -20 49 17.9   412524 1.0084 169.9  m  18?  20.19 134.4   49 277   8  99
   2024 04 23 17:20  13 40 43.18    -20 51 38.5   412693 1.0084 169.9  m  18?  20.33 133.4   47 275   8  99
   2024 04 23 17:30  13 40 53.84    -20 53 57.6   412868 1.0084 169.9  m  18?  20.49 132.3   45 274   8  99
   2024 04 23 17:40  13 41 04.77    -20 56 15.1   413048 1.0084 169.8  m  18?  20.67 131.3   43 272   8  99
   2024 04 23 17:50  13 41 15.98    -20 58 31.1   413234 1.0084 169.8  m  18?  20.88 130.3   41 271   8  99
   2024 04 23 18:00  13 41 27.48    -21 00 45.6   413425 1.0084 169.8  m  18?  21.10 129.3   39 269   8  99
   2024 04 23 18:10  13 41 39.28    -21 02 58.8   413620 1.0084 169.8  m  18?  21.34 128.3   37 268   8  99
   2024 04 23 18:20  13 41 51.38    -21 05 10.6   413820 1.0084 169.8  m  18?  21.59 127.3   35 267   8  99
   2024 04 23 18:30  13 42 03.79    -21 07 21.1   414024 1.0084 169.8  m  18?  21.87 126.3   33 265   8  99
   2024 04 23 18:40  13 42 16.52    -21 09 30.5   414231 1.0084 169.8  m  18?  22.16 125.4   31 264   8  99
   2024 04 23 18:50  13 42 29.58    -21 11 38.7   414442 1.0084 169.8  m  18?  22.47 124.5   29 263   9  99
   2024 04 23 19:00  13 42 42.97    -21 13 45.9   414656 1.0084 169.8  m  18?  22.80 123.6   27 261   9  99
   2024 04 23 19:10  13 42 56.70    -21 15 52.0   414872 1.0084 169.8  m  18?  23.13 122.8   25 260   9  99
   2024 04 23 19:20  13 43 10.76    -21 17 57.2   415091 1.0084 169.8  m  18?  23.48 122.0   23 259   9  99
   2024 04 23 19:30  13 43 25.17    -21 20 01.6   415312 1.0084 169.8  m  18?  23.85 121.2   21 258   9  99
   2024 04 23 19:40  13 43 39.93    -21 22 05.2   415534 1.0084 169.8  m  18?  24.22 120.5   19 256   9  99
   2024 04 23 19:50  13 43 55.03    -21 24 08.0   415757 1.0084 169.8 Am  18?  24.61 119.8   17 255   9  99
   2024 04 23 20:00  13 44 10.48    -21 26 10.3   415981 1.0084 169.8 Am  18?  25.00 119.1   15 254   9  99
   2024 04 23 20:10  13 44 26.29    -21 28 11.9   416205 1.0084 169.8 Am  18?  25.40 118.4   13 252   9  99
   2024 04 23 20:20  13 44 42.45    -21 30 13.1   416429 1.0084 169.8 Nm  18?  25.81 117.8   11 251   9  99
   2024 04 23 20:30  13 44 58.95    -21 32 13.9   416653 1.0084 169.8 Nm  18?  26.22 117.3    9 250   9  99
   2024 04 23 20:40  13 45 15.82    -21 34 14.4   416876 1.0084 169.8 Nm  18?  26.64 116.7    7 249   9  99
   2024 04 23 20:50  13 45 33.03    -21 36 14.5   417098 1.0084 169.8 Cm  18?  27.06 116.2    6 247   9  99
   2024 04 23 21:00  13 45 50.58    -21 38 14.5   417319 1.0084 169.8 Cm  18?  27.48 115.8    4 246   9  99
   2024 04 23 21:10  13 46 08.49    -21 40 14.4   417537 1.0084 169.8 Cm  18?  27.90 115.3    2 245   9  99
   ................
   2024 04 24 08:10  14 10 52.29    -24 26 48.0   417648 1.0085 168.4 Cm  18?  31.39 126.2    7 114   9  99
   2024 04 24 08:20  14 11 10.65    -24 29 54.0   417446 1.0085 168.4 Cm  18?  31.04 126.7    9 113   9  99
   2024 04 24 08:30  14 11 28.68    -24 33 00.1   417243 1.0085 168.3 Cm  18?  30.67 127.2   11 112   9  99
   2024 04 24 08:40  14 11 46.39    -24 36 06.2   417040 1.0085 168.3 Nm  18?  30.31 127.7   13 111   9  99
   2024 04 24 08:50  14 12 03.76    -24 39 12.3   416836 1.0085 168.2 Nm  18?  29.94 128.3   14 110   9  99
   2024 04 24 09:00  14 12 20.81    -24 42 18.1   416633 1.0085 168.2 Nm  18?  29.56 128.8   16 108   9  99
   2024 04 24 09:10  14 12 37.52    -24 45 23.7   416430 1.0085 168.1 Am  18?  29.19 129.3   18 107   9  99
   2024 04 24 09:20  14 12 53.91    -24 48 28.9   416228 1.0085 168.1 Am  18?  28.81 129.8   20 106   9  99
   2024 04 24 09:30  14 13 09.96    -24 51 33.7   416027 1.0085 168.0 Am  18?  28.43 130.3   22 105   9  99
   2024 04 24 09:40  14 13 25.69    -24 54 38.0   415828 1.0085 168.0  m  18?  28.05 130.9   24 104   9  99
   2024 04 24 09:50  14 13 41.09    -24 57 41.6   415631 1.0085 167.9  m  18?  27.67 131.4   26 103   9  99
   2024 04 24 10:00  14 13 56.17    -25 00 44.6   415437 1.0085 167.8  m  18?  27.29 131.9   28 102   9  99
   2024 04 24 10:10  14 14 10.93    -25 03 46.8   415245 1.0085 167.8  m  18?  26.91 132.4   30 101   9  99
   2024 04 24 10:20  14 14 25.38    -25 06 48.2   415056 1.0085 167.7  m  18?  26.53 132.8   32  99   9  99
   2024 04 24 10:30  14 14 39.52    -25 09 48.6   414870 1.0085 167.7  m  18?  26.16 133.3   34  98   9  99
   2024 04 24 10:40  14 14 53.35    -25 12 47.9   414689 1.0085 167.6  m  18?  25.78 133.8   36  97   9  99
   2024 04 24 10:50  14 15 06.89    -25 15 46.2   414511 1.0085 167.6  m  18?  25.41 134.2   38  96   9  99
   2024 04 24 11:00  14 15 20.14    -25 18 43.2   414337 1.0085 167.5  m  18?  25.04 134.7   40  95   9  99
   2024 04 24 11:10  14 15 33.10    -25 21 38.9   414169 1.0085 167.5  m  18?  24.67 135.1   42  94   9  99
   2024 04 24 11:20  14 15 45.79    -25 24 33.3   414005 1.0085 167.4  m  18?  24.31 135.5   44  93   9  99
   2024 04 24 11:30  14 15 58.21    -25 27 26.3   413846 1.0085 167.4  m  18?  23.95 135.8   46  91  10  99
   2024 04 24 11:40  14 16 10.38    -25 30 17.7   413693 1.0085 167.3  m  18?  23.60 136.2   48  90  10  99
   2024 04 24 11:50  14 16 22.29    -25 33 07.5   413546 1.0085 167.3  m  18?  23.25 136.5   50  89  10  99
   2024 04 24 12:00  14 16 33.97    -25 35 55.7   413405 1.0085 167.2  m  18?  22.90 136.8   52  87  10  99
   2024 04 24 12:10  14 16 45.42    -25 38 42.1   413270 1.0085 167.2  m  18?  22.56 137.1   55  86  10  99
   2024 04 24 12:20  14 16 56.66    -25 41 26.7   413142 1.0085 167.1  m  18?  22.23 137.3   57  84  10  99
   2024 04 24 12:30  14 17 07.69    -25 44 09.4   413021 1.0085 167.1  m  18?  21.91 137.5   59  83  10  99
   2024 04 24 12:40  14 17 18.52    -25 46 50.2   412906 1.0085 167.0  m  18?  21.59 137.6   61  81  10  99
   2024 04 24 12:50  14 17 29.18    -25 49 29.0   412799 1.0085 167.0  m  18?  21.28 137.7   63  79  10  99
   2024 04 24 13:00  14 17 39.68    -25 52 05.8   412699 1.0085 166.9  m  18?  20.98 137.8   65  77  10  99
   2024 04 24 13:10  14 17 50.01    -25 54 40.4   412607 1.0086 166.9  m  18?  20.68 137.8   67  74  10  99
   2024 04 24 13:20  14 18 00.21    -25 57 12.9   412523 1.0086 166.8  m  18?  20.40 137.8   69  72  10  99
   2024 04 24 13:30  14 18 10.29    -25 59 43.2   412446 1.0086 166.8  m  18?  20.12 137.7   71  68  10  99
   2024 04 24 13:40  14 18 20.25    -26 02 11.2   412377 1.0086 166.8  m  18?  19.86 137.6   72  65  10  99
   2024 04 24 13:50  14 18 30.12    -26 04 37.0   412316 1.0086 166.7  m  18?  19.60 137.4   74  60  10  99
   2024 04 24 14:00  14 18 39.90    -26 07 00.4   412264 1.0086 166.7  m  18?  19.36 137.2   76  55  10  99
   2024 04 24 14:10  14 18 49.62    -26 09 21.5   412220 1.0086 166.6  m  18?  19.13 136.9   78  48  10  99
   2024 04 24 14:20  14 18 59.29    -26 11 40.2   412184 1.0086 166.6  m  18?  18.91 136.5   79  39  10  99
   2024 04 24 14:30  14 19 08.92    -26 13 56.5   412156 1.0086 166.5  m  18?  18.71 136.1   80  28  10  99
   2024 04 24 14:40  14 19 18.53    -26 16 10.4   412137 1.0086 166.5  m  18?  18.52 135.6   81  15  10  99
   2024 04 24 14:50  14 19 28.13    -26 18 21.9   412126 1.0086 166.5  m  18?  18.34 135.1   81   0  10  99
   2024 04 24 15:00  14 19 37.75    -26 20 30.9   412124 1.0086 166.4  t  18?  18.19 134.5   81 344  10  99
   2024 04 24 15:10  14 19 47.39    -26 22 37.5   412130 1.0086 166.4  m  18?  18.05 133.9   80 331  10  99
   2024 04 24 15:20  14 19 57.08    -26 24 41.6   412144 1.0086 166.4  m  18?  17.92 133.2   79 319  10  99
   2024 04 24 15:30  14 20 06.82    -26 26 43.2   412167 1.0086 166.3  m  18?  17.82 132.4   78 310  10  99
   2024 04 24 15:40  14 20 16.63    -26 28 42.5   412198 1.0086 166.3  m  18?  17.73 131.6   76 303  10  99
   2024 04 24 15:50  14 20 26.54    -26 30 39.3   412237 1.0086 166.2  m  18?  17.67 130.7   75 297  10  99
   2024 04 24 16:00  14 20 36.55    -26 32 33.7   412285 1.0086 166.2  m  18?  17.62 129.8   73 293  10  99
   2024 04 24 16:10  14 20 46.68    -26 34 25.7   412340 1.0086 166.2  m  18?  17.60 128.9   71 289  10  99
   2024 04 24 16:20  14 20 56.94    -26 36 15.3   412403 1.0086 166.1  m  18?  17.60 127.9   69 286  10  99
   2024 04 24 16:30  14 21 07.35    -26 38 02.6   412473 1.0086 166.1  m  18?  17.62 126.9   67 283  10  99
   2024 04 24 16:40  14 21 17.92    -26 39 47.6   412552 1.0086 166.1  m  18?  17.66 125.9   65 281  10  99
   2024 04 24 16:50  14 21 28.67    -26 41 30.3   412637 1.0086 166.0  m  18?  17.73 124.8   63 278  10  99
   2024 04 24 17:00  14 21 39.62    -26 43 10.7   412730 1.0086 166.0  m  18?  17.82 123.8   61 276  10  99
   2024 04 24 17:10  14 21 50.76    -26 44 49.1   412830 1.0086 166.0  m  18?  17.94 122.7   59 275  10  99
   2024 04 24 17:20  14 22 02.13    -26 46 25.2   412937 1.0086 165.9  m  18?  18.07 121.6   57 273  10  99
   2024 04 24 17:30  14 22 13.72    -26 47 59.3   413050 1.0086 165.9  m  18?  18.23 120.5   55 271  10  99
   2024 04 24 17:40  14 22 25.55    -26 49 31.4   413169 1.0086 165.9  m  18?  18.42 119.5   53 270  10  99
   2024 04 24 17:50  14 22 37.64    -26 51 01.4   413295 1.0086 165.9  m  18?  18.62 118.4   51 268  10  99
   2024 04 24 18:00  14 22 50.00    -26 52 29.6   413426 1.0086 165.8  m  18?  18.85 117.4   49 267  10  99
   2024 04 24 18:10  14 23 02.63    -26 53 56.0   413563 1.0086 165.8  m  18?  19.10 116.4   47 266  10  99
   2024 04 24 18:20  14 23 15.54    -26 55 20.5   413705 1.0086 165.8  m  18?  19.37 115.5   45 265  10  99
   2024 04 24 18:30  14 23 28.76    -26 56 43.4   413853 1.0086 165.7  m  18?  19.66 114.5   43 263  10  99
   2024 04 24 18:40  14 23 42.27    -26 58 04.6   414005 1.0086 165.7  m  18?  19.97 113.6   41 262  10  99
   2024 04 24 18:50  14 23 56.10    -26 59 24.3   414161 1.0086 165.7  m  18?  20.30 112.7   39 261  10  99
   2024 04 24 19:00  14 24 10.26    -27 00 42.5   414321 1.0086 165.6  m  18?  20.64 111.9   37 260  10  99
   2024 04 24 19:10  14 24 24.74    -27 01 59.3   414485 1.0086 165.6  m  18?  21.00 111.1   35 259  10  99
   2024 04 24 19:20  14 24 39.55    -27 03 14.8   414653 1.0086 165.6  m  18?  21.37 110.4   33 257  10  99
   2024 04 24 19:30  14 24 54.71    -27 04 29.1   414823 1.0086 165.5  m  18?  21.76 109.7   31 256  10  99
   2024 04 24 19:40  14 25 10.22    -27 05 42.2   414997 1.0086 165.5  m  18?  22.16 109.0   29 255  10  99
   2024 04 24 19:50  14 25 26.08    -27 06 54.3   415173 1.0086 165.5 Am  18?  22.58 108.3   27 254  10  99
   2024 04 24 20:00  14 25 42.29    -27 08 05.4   415350 1.0086 165.5 Am  18?  23.00 107.7   25 253  10  99
   2024 04 24 20:10  14 25 58.87    -27 09 15.6   415530 1.0086 165.4 Am  18?  23.43 107.2   23 252  10  99
   2024 04 24 20:20  14 26 15.81    -27 10 25.0   415711 1.0086 165.4 Nm  18?  23.87 106.7   21 251  10  99
   2024 04 24 20:30  14 26 33.11    -27 11 33.8   415893 1.0086 165.4 Nm  18?  24.32 106.2   20 250  10  99
   2024 04 24 20:40  14 26 50.79    -27 12 41.9   416076 1.0086 165.3 Nm  18?  24.77 105.8   18 248  10  99
   2024 04 24 20:50  14 27 08.83    -27 13 49.5   416258 1.0086 165.3 Cm  18?  25.23 105.4   16 247  10  99
   2024 04 24 21:00  14 27 27.24    -27 14 56.7   416441 1.0086 165.3 Cm  18?  25.69 105.0   14 246  10  99
   2024 04 24 21:10  14 27 46.02    -27 16 03.6   416624 1.0086 165.2 Cm  18?  26.15 104.6   12 245  10  99
   ................
   2024 04 25 08:10  14 55 15.21    -29 08 56.0   416277 1.0087 161.2 C   18?  32.92 116.6    2 123  10  98
   2024 04 25 08:20  14 55 37.48    -29 11 24.5   416060 1.0087 161.1 C   18?  32.56 117.0    4 122  10  98
   2024 04 25 08:30  14 55 59.43    -29 13 53.5   415841 1.0087 161.0 C   18?  32.19 117.4    6 121  10  98
   2024 04 25 08:40  14 56 21.06    -29 16 22.8   415620 1.0087 160.9 Nm  18?  31.81 117.9    8 120  10  98
   2024 04 25 08:50  14 56 42.35    -29 18 52.4   415397 1.0087 160.9 Nm  18?  31.43 118.3    9 119  10  97
   2024 04 25 09:00  14 57 03.31    -29 21 22.1   415173 1.0087 160.8 Nm  18?  31.04 118.7   11 117  10  97
   2024 04 25 09:10  14 57 23.94    -29 23 51.9   414948 1.0087 160.7 Am  18?  30.64 119.1   13 116  10  97
   2024 04 25 09:20  14 57 44.23    -29 26 21.6   414722 1.0087 160.6 Am  18?  30.24 119.5   15 115  10  97
   2024 04 25 09:30  14 58 04.17    -29 28 51.2   414496 1.0087 160.6 Am  18?  29.84 119.9   17 114  10  97
   2024 04 25 09:40  14 58 23.78    -29 31 20.6   414270 1.0087 160.5  m  18?  29.43 120.3   18 113  10  97
   2024 04 25 09:50  14 58 43.04    -29 33 49.6   414045 1.0087 160.4  m  18?  29.02 120.7   20 112  10  97
   2024 04 25 10:00  14 59 01.96    -29 36 18.3   413820 1.0087 160.4  m  18?  28.60 121.1   22 111  10  97
   2024 04 25 10:10  14 59 20.55    -29 38 46.4   413597 1.0087 160.3  m  18?  28.19 121.5   24 110  10  97
   2024 04 25 10:20  14 59 38.79    -29 41 13.8   413374 1.0087 160.2  m  18?  27.77 121.8   26 109  10  97
   2024 04 25 10:30  14 59 56.69    -29 43 40.5   413154 1.0087 160.2  m  18?  27.35 122.2   28 108  10  97
   2024 04 25 10:40  15 00 14.27    -29 46 06.4   412936 1.0087 160.1  m  18?  26.93 122.5   30 107  10  97
   2024 04 25 10:50  15 00 31.51    -29 48 31.4   412720 1.0087 160.0  m  18?  26.51 122.9   32 106  10  97
   2024 04 25 11:00  15 00 48.43    -29 50 55.3   412507 1.0087 160.0  m  18?  26.09 123.2   34 105  10  97
   2024 04 25 11:10  15 01 05.02    -29 53 18.1   412297 1.0087 159.9  m  18?  25.67 123.5   36 104  10  97
   2024 04 25 11:20  15 01 21.30    -29 55 39.7   412091 1.0087 159.9  m  18?  25.26 123.8   38 103  10  97
   2024 04 25 11:30  15 01 37.27    -29 57 59.9   411888 1.0087 159.8  m  18?  24.84 124.0   40 102  10  97
   2024 04 25 11:40  15 01 52.94    -30 00 18.8   411690 1.0087 159.7  m  18?  24.43 124.2   42 101  10  97
   2024 04 25 11:50  15 02 08.31    -30 02 36.1   411495 1.0087 159.7  m  18?  24.03 124.5   44 100  10  97
   2024 04 25 12:00  15 02 23.40    -30 04 51.8   411306 1.0087 159.6  m  18?  23.63 124.6   46  99  10  97
   2024 04 25 12:10  15 02 38.20    -30 07 05.8   411121 1.0087 159.6  m  18?  23.23 124.8   48  98  10  97
   2024 04 25 12:20  15 02 52.74    -30 09 18.0   410941 1.0087 159.5  m  18?  22.84 124.9   50  97  10  97
   2024 04 25 12:30  15 03 07.02    -30 11 28.4   410767 1.0087 159.5  m  18?  22.45 125.0   52  96  10  97
   2024 04 25 12:40  15 03 21.05    -30 13 36.7   410599 1.0087 159.4  m  18?  22.07 125.1   54  95  10  97
   2024 04 25 12:50  15 03 34.85    -30 15 43.1   410436 1.0087 159.3  m  18?  21.70 125.1   56  94  10  97
   2024 04 25 13:00  15 03 48.41    -30 17 47.3   410280 1.0087 159.3  m  18?  21.34 125.1   58  93  10  97
   2024 04 25 13:10  15 04 01.76    -30 19 49.4   410130 1.0087 159.2  m  18?  20.99 125.0   60  92  10  97
   2024 04 25 13:20  15 04 14.91    -30 21 49.2   409986 1.0087 159.2  m  18?  20.64 124.9   62  90  10  97
   2024 04 25 13:30  15 04 27.88    -30 23 46.7   409850 1.0087 159.1  m  18?  20.31 124.8   64  89  10  97
   2024 04 25 13:40  15 04 40.66    -30 25 41.8   409720 1.0087 159.1  m  18?  19.99 124.6   66  88  10  97
   2024 04 25 13:50  15 04 53.28    -30 27 34.4   409597 1.0087 159.0  m  18?  19.68 124.3   68  86  10  97
   2024 04 25 14:00  15 05 05.76    -30 29 24.6   409482 1.0087 159.0  m  18?  19.38 124.0   70  84  10  97
   2024 04 25 14:10  15 05 18.10    -30 31 12.2   409374 1.0087 159.0  m  18?  19.10 123.7   72  82  10  97
   2024 04 25 14:20  15 05 30.33    -30 32 57.2   409273 1.0087 158.9  m  18?  18.83 123.2   74  80  10  97
   2024 04 25 14:30  15 05 42.45    -30 34 39.5   409181 1.0087 158.9  m  18?  18.58 122.8   76  77  10  97
   2024 04 25 14:40  15 05 54.48    -30 36 19.2   409095 1.0087 158.8  m  18?  18.34 122.2   78  74  10  97
   2024 04 25 14:50  15 06 06.44    -30 37 56.1   409018 1.0087 158.8  m  18?  18.12 121.7   80  70  10  97
   2024 04 25 15:00  15 06 18.34    -30 39 30.3   408949 1.0087 158.7  m  18?  17.92 121.0   82  63  10  97
   2024 04 25 15:10  15 06 30.21    -30 41 01.7   408887 1.0087 158.7  m  18?  17.74 120.3   83  53  10  97
   2024 04 25 15:20  15 06 42.04    -30 42 30.4   408834 1.0087 158.7  m  18?  17.58 119.6   85  37  10  97
   2024 04 25 15:30  15 06 53.87    -30 43 56.2   408788 1.0087 158.6  m  18?  17.43 118.8   86  11  10  97
   2024 04 25 15:40  15 07 05.71    -30 45 19.2   408750 1.0087 158.6  t  18?  17.32 118.0   86 339  10  97
   2024 04 25 15:50  15 07 17.57    -30 46 39.4   408721 1.0087 158.5  m  18?  17.22 117.1   85 316  10  97
   2024 04 25 16:00  15 07 29.48    -30 47 56.8   408699 1.0087 158.5  m  18?  17.14 116.1   83 302  10  97
   2024 04 25 16:10  15 07 41.44    -30 49 11.3   408686 1.0087 158.5  m  18?  17.09 115.2   81 293  10  97
   2024 04 25 16:20  15 07 53.47    -30 50 23.1   408680 1.0087 158.4  m  18?  17.07 114.2   79 287  10  97
   2024 04 25 16:30  15 08 05.59    -30 51 32.0   408682 1.0087 158.4  m  18?  17.07 113.2   77 283  10  97
   2024 04 25 16:40  15 08 17.82    -30 52 38.2   408691 1.0087 158.4  m  18?  17.09 112.1   75 280  10  97
   2024 04 25 16:50  15 08 30.16    -30 53 41.7   408709 1.0087 158.3  m  18?  17.14 111.1   73 277  10  97
   2024 04 25 17:00  15 08 42.65    -30 54 42.4   408733 1.0087 158.3  m  18?  17.22 110.0   71 275  10  97
   2024 04 25 17:10  15 08 55.28    -30 55 40.4   408766 1.0087 158.3  m  18?  17.32 109.0   69 273  10  97
   2024 04 25 17:20  15 09 08.08    -30 56 35.8   408805 1.0087 158.2  m  18?  17.44 107.9   67 271  10  97
   2024 04 25 17:30  15 09 21.07    -30 57 28.6   408851 1.0087 158.2  m  18?  17.59 106.9   65 270  10  97
   2024 04 25 17:40  15 09 34.25    -30 58 18.9   408905 1.0087 158.1  m  18?  17.77 105.8   63 268  10  97
   2024 04 25 17:50  15 09 47.64    -30 59 06.6   408965 1.0087 158.1  m  18?  17.97 104.8   61 267  10  97
   2024 04 25 18:00  15 10 01.25    -30 59 51.9   409032 1.0087 158.1  m  18?  18.19 103.9   59 266  10  97
   2024 04 25 18:10  15 10 15.10    -31 00 34.8   409105 1.0087 158.0  m  18?  18.44 102.9   57 265  10  97
   2024 04 25 18:20  15 10 29.20    -31 01 15.4   409184 1.0087 158.0  m  18?  18.71 102.0   55 264  10  97
   2024 04 25 18:30  15 10 43.56    -31 01 53.7   409269 1.0087 158.0  m  18?  19.00 101.1   53 262  10  97
   2024 04 25 18:40  15 10 58.19    -31 02 29.9   409360 1.0087 157.9  m  18?  19.31 100.3   51 261  10  96
   2024 04 25 18:50  15 11 13.12    -31 03 03.9   409456 1.0087 157.9  m  18?  19.64  99.6   49 260  10  96
   2024 04 25 19:00  15 11 28.33    -31 03 35.9   409557 1.0087 157.9  m  18?  19.99  98.8   47 259  10  96
   2024 04 25 19:10  15 11 43.86    -31 04 06.0   409663 1.0087 157.8  m  18?  20.36  98.1   45 258  10  96
   2024 04 25 19:20  15 11 59.70    -31 04 34.2   409774 1.0087 157.8  m  18?  20.74  97.4   43 257  10  96
   2024 04 25 19:30  15 12 15.86    -31 05 00.6   409889 1.0087 157.7  m  18?  21.13  96.8   41 256  10  96
   2024 04 25 19:40  15 12 32.36    -31 05 25.3   410009 1.0087 157.7  m  18?  21.54  96.3   39 255  10  96
   2024 04 25 19:50  15 12 49.20    -31 05 48.4   410132 1.0087 157.7 Am  18?  21.97  95.7   38 254  10  96
   2024 04 25 20:00  15 13 06.39    -31 06 10.1   410258 1.0087 157.6 Am  18?  22.40  95.2   36 253  10  96
   2024 04 25 20:10  15 13 23.93    -31 06 30.3   410387 1.0087 157.6 Am  18?  22.85  94.8   34 252  10  96
   2024 04 25 20:20  15 13 41.84    -31 06 49.2   410520 1.0087 157.6 Nm  18?  23.30  94.4   32 251  10  96
   2024 04 25 20:30  15 14 00.11    -31 07 06.8   410655 1.0087 157.5 Nm  18?  23.77  94.0   30 250  10  96
   2024 04 25 20:40  15 14 18.76    -31 07 23.4   410792 1.0087 157.5 Nm  18?  24.24  93.7   28 249  10  96
   2024 04 25 20:50  15 14 37.78    -31 07 38.9   410930 1.0087 157.4 Cm  18?  24.71  93.4   26 248   9  96
   2024 04 25 21:00  15 14 57.18    -31 07 53.6   411071 1.0087 157.4 Cm  18?  25.19  93.1   24 247   9  96
   2024 04 25 21:10  15 15 16.96    -31 08 07.4   411212 1.0087 157.3 Cm  18?  25.68  92.9   22 246   9  96
   ................
   

Titan-3C RB (JPL-ID: -102770)

   Date (UTC) HH:MM   RA              Dec         delta   r     elong SM  mag  '/hr    PA   alt  az moo ill
   ---- -- -- -----  -------------   -----------  ------ ------ ----- --  --- ------ ------ --- --- --- ---
   2024 04 14 19:40  23 39 06.42    +17 20 43.3   111212 1.0026  28.6  r  15?  83.78  93.1    0  68  98  40
   2024 04 14 19:50  23 40 04.17    +17 19 56.5   111389 1.0026  28.3 A   15?  81.81  93.3    2  67  98  40
   2024 04 14 20:00  23 41 00.54    +17 19 08.2   111559 1.0026  28.1 A   15?  79.88  93.5    3  65  98  40
   2024 04 14 20:10  23 41 55.56    +17 18 18.0   111721 1.0026  27.9 A   15?  77.98  93.7    5  64  98  40
   2024 04 14 20:20  23 42 49.25    +17 17 26.0   111877 1.0026  27.7 N   15?  76.13  94.0    7  63  98  40
   2024 04 14 20:30  23 43 41.66    +17 16 31.9   112027 1.0026  27.5 N   15?  74.33  94.2    8  61  98  40
   2024 04 14 20:40  23 44 32.80    +17 15 35.5   112171 1.0026  27.3 C   15?  72.57  94.5   10  60  98  40
   2024 04 14 20:50  23 45 22.70    +17 14 36.8   112310 1.0026  27.1 C   15?  70.85  94.8   12  58  98  40
   2024 04 14 21:00  23 46 11.40    +17 13 35.6   112443 1.0025  26.9 C   15?  69.19  95.2   13  57  98  40
   ................
   2024 04 16 19:40  23 44 53.69    +17 06 14.8   113028 1.0031  28.7  r  15?  80.86  93.4    0  68 120  59
   2024 04 16 19:50  23 45 49.37    +17 05 25.8   113156 1.0031  28.5 A   15?  79.00  93.6    2  66 120  59
   2024 04 16 20:00  23 46 43.74    +17 04 35.2   113278 1.0031  28.3 A   15?  77.17  93.8    4  65 120  59
   2024 04 16 20:10  23 47 36.84    +17 03 42.9   113392 1.0031  28.1 A   15?  75.38  94.0    6  64 120  59
   2024 04 16 20:20  23 48 28.69    +17 02 48.6   113501 1.0031  27.9 N   15?  73.63  94.3    7  62 120  60
   2024 04 16 20:30  23 49 19.31    +17 01 52.3   113603 1.0031  27.7 N   15?  71.92  94.6    9  61 120  60
   2024 04 16 20:40  23 50 08.74    +17 00 53.7   113700 1.0031  27.5 N   15?  70.25  94.8   11  60 120  60
   2024 04 16 20:50  23 50 56.99    +16 59 52.7   113792 1.0031  27.3 C   15?  68.63  95.2   12  58 120  60
   2024 04 16 21:00  23 51 44.11    +16 58 49.2   113879 1.0031  27.1 C   15?  67.06  95.5   14  56 120  60
   ................
   2024 04 18 19:30  23 49 40.12    +16 52 52.0   114489 1.0036  29.1  r  15?  80.19  93.5    0  69 141  77
   2024 04 18 19:40  23 50 35.29    +16 52 01.5   114578 1.0036  28.9     15?  78.39  93.7    1  68 141  77
   2024 04 18 19:50  23 51 29.21    +16 51 09.6   114659 1.0036  28.7 A   15?  76.62  93.9    3  66 141  77
   2024 04 18 20:00  23 52 21.88    +16 50 16.0   114734 1.0036  28.5 A   15?  74.89  94.2    4  65 141  77
   2024 04 18 20:10  23 53 13.35    +16 49 20.6   114802 1.0036  28.3 A   15?  73.19  94.4    6  64 141  77
   2024 04 18 20:20  23 54 03.63    +16 48 23.3   114865 1.0036  28.1 N   15?  71.53  94.7    8  62 141  77
   2024 04 18 20:30  23 54 52.74    +16 47 23.9   114922 1.0036  27.9 N   15?  69.90  94.9   10  61 141  77
   2024 04 18 20:40  23 55 40.72    +16 46 22.3   114974 1.0036  27.7 N   15?  68.32  95.3   11  59 141  77
   2024 04 18 20:50  23 56 27.58    +16 45 18.2   115021 1.0036  27.5 C   15?  66.78  95.6   13  58 141  77
   2024 04 18 21:00  23 57 13.36    +16 44 11.6   115063 1.0036  27.3 C   15?  65.29  96.0   14  56 141  77
   ................
   2024 04 20 19:30  23 55 17.15    +16 38 40.1   115811 1.0042  29.3  r  15?  78.11  93.9    0  69 159  90
   2024 04 20 19:40  23 56 10.82    +16 37 46.3   115854 1.0042  29.1     15?  76.40  94.1    2  67 159  90
   2024 04 20 19:50  23 57 03.29    +16 36 51.0   115891 1.0042  28.9 A   15?  74.72  94.3    3  66 159  90
   2024 04 20 20:00  23 57 54.59    +16 35 54.1   115921 1.0042  28.7 A   15?  73.06  94.5    5  65 159  90
   2024 04 20 20:10  23 58 44.73    +16 34 55.3   115945 1.0042  28.5 A   15?  71.44  94.8    7  63 159  90
   2024 04 20 20:20  23 59 33.73    +16 33 54.6   115963 1.0042  28.3 N   15?  69.86  95.1    8  62 159  90
   2024 04 20 20:30  00 00 21.63    +16 32 51.8   115976 1.0042  28.1 N   15?  68.31  95.3   10  61 159  90
   2024 04 20 20:40  00 01 08.44    +16 31 46.7   115984 1.0042  28.0 N   15?  66.81  95.7   12  59 159  90
   2024 04 20 20:50  00 01 54.19    +16 30 39.2   115988 1.0042  27.8 C   15?  65.34  96.0   13  58 159  90
   2024 04 20 21:00  00 02 38.91    +16 29 29.1   115987 1.0042  27.6 C   15?  63.92  96.4   15  56 159  90
   ................
   2024 04 22 19:30  00 00 47.22    +16 24 15.9   116867 1.0047  29.6  r  15?  76.51  94.2    0  69 161  98
   2024 04 22 19:40  00 01 39.71    +16 23 18.9   116866 1.0047  29.4  m  15?  74.88  94.4    2  67 161  98
   2024 04 22 19:50  00 02 31.06    +16 22 20.3   116859 1.0047  29.2 Am  15?  73.27  94.6    4  66 161  98
   2024 04 22 20:00  00 03 21.29    +16 21 20.1   116845 1.0047  29.0 Am  15?  71.69  94.9    6  65 161  98
   2024 04 22 20:10  00 04 10.41    +16 20 18.0   116826 1.0047  28.9 Am  15?  70.14  95.1    7  63 161  98
   2024 04 22 20:20  00 04 58.45    +16 19 13.9   116802 1.0047  28.7 N   15?  68.63  95.4    9  62 161  98
   2024 04 22 20:30  00 05 45.42    +16 18 07.7   116772 1.0047  28.5 N   15?  67.15  95.7   11  60 161  98
   2024 04 22 20:40  00 06 31.36    +16 16 59.2   116738 1.0047  28.3 N   15?  65.71  96.1   12  59 162  98
   2024 04 22 20:50  00 07 16.29    +16 15 48.2   116699 1.0047  28.1 C   15?  64.32  96.4   14  57 162  98
   2024 04 22 21:00  00 08 00.22    +16 14 34.6   116656 1.0047  28.0 C   15?  62.96  96.8   16  56 162  98
   2024 04 22 21:10  00 08 43.20    +16 13 18.3   116609 1.0047  27.8 C   15?  61.65  97.2   17  54 162  98
   ................
   2024 04 24 19:20  00 05 17.47    +16 10 35.9   117713 1.0052  30.2  r  15?  76.93  94.3    0  70 143  99
   2024 04 24 19:30  00 06 10.19    +16 09 37.3   117676 1.0052  30.0  m  15?  75.34  94.5    1  68 143  99
   2024 04 24 19:40  00 07 01.80    +16 08 37.4   117631 1.0052  29.8  m  15?  73.78  94.7    3  67 143  99
   2024 04 24 19:50  00 07 52.32    +16 07 35.8   117581 1.0052  29.6 Am  15?  72.24  94.9    5  66 143  99
   2024 04 24 20:00  00 08 41.75    +16 06 32.6   117524 1.0052  29.4 Am  15?  70.73  95.2    6  64 143  99
   2024 04 24 20:10  00 09 30.14    +16 05 27.5   117462 1.0052  29.2 Am  15?  69.25  95.5    8  63 143  99
   2024 04 24 20:20  00 10 17.48    +16 04 20.3   117395 1.0052  29.1 Nm  15?  67.80  95.8   10  62 143  99
   2024 04 24 20:30  00 11 03.81    +16 03 10.9   117323 1.0052  28.9 Nm  15?  66.38  96.1   11  60 143  99
   2024 04 24 20:40  00 11 49.14    +16 01 59.2   117247 1.0052  28.7 Nm  15?  65.01  96.4   13  59 144  99
   2024 04 24 20:50  00 12 33.50    +16 00 45.0   117166 1.0052  28.5 Cm  15?  63.67  96.8   15  57 144  99
   2024 04 24 21:00  00 13 16.92    +15 59 28.2   117081 1.0052  28.4 Cm  15?  62.38  97.2   16  55 144  99
   2024 04 24 21:10  00 13 59.42    +15 58 08.5   116993 1.0052  28.2 Cm  15?  61.13  97.6   18  54 144  99
   ................
   2024 04 26 19:20  00 10 34.72    +15 55 47.8   118339 1.0058  30.7  r  15?  76.03  94.6    0  70 120  92
   2024 04 26 19:30  00 11 26.74    +15 54 46.6   118257 1.0058  30.5  m  15?  74.51  94.8    2  68 120  92
   2024 04 26 19:40  00 12 17.70    +15 53 43.9   118170 1.0058  30.3  m  15?  73.01  95.0    3  67 120  92
   2024 04 26 19:50  00 13 07.61    +15 52 39.7   118076 1.0058  30.1 Am  15?  71.53  95.2    5  66 120  92
   2024 04 26 20:00  00 13 56.49    +15 51 33.6   117977 1.0058  29.9 Am  15?  70.08  95.5    7  64 120  92
   2024 04 26 20:10  00 14 44.36    +15 50 25.6   117872 1.0058  29.7 Am  15?  68.67  95.8    9  63 121  92
   2024 04 26 20:20  00 15 31.23    +15 49 15.5   117763 1.0058  29.5 Nm  15?  67.28  96.1   10  61 121  92
   2024 04 26 20:30  00 16 17.12    +15 48 03.2   117648 1.0058  29.3 Nm  15?  65.93  96.4   12  60 121  92
   2024 04 26 20:40  00 17 02.06    +15 46 48.4   117530 1.0058  29.2 Nm  15?  64.61  96.7   14  58 121  92
   2024 04 26 20:50  00 17 46.08    +15 45 31.2   117407 1.0058  29.0 Cm  15?  63.34  97.1   15  57 121  92
   2024 04 26 21:00  00 18 29.19    +15 44 11.2   117280 1.0058  28.8 Cm  15?  62.10  97.5   17  55 121  92
   2024 04 26 21:10  00 19 11.42    +15 42 48.4   117150 1.0058  28.7 Cm  15?  60.91  97.9   19  54 121  92
   ................
   

Gaia (JPL-ID: -139479)

   Date (UTC) HH:MM   RA              Dec         delta   r     elong SM  mag  '/hr    PA   alt  az moo ill
   ---- -- -- -----  -------------   -----------  ------ ------ ----- --  --- ------ ------ --- --- --- ---
   2024 04 14 08:30  13 25 16.61    -02 05 27.4   0.0107 1.0137 172.4 Cm  21?   1.55 114.4    0  92 102  35
   2024 04 14 08:40  13 25 17.51    -02 05 33.9   0.0107 1.0137 172.4 Cm  21?   1.44 116.5    2  91 102  35
   2024 04 14 08:50  13 25 18.32    -02 05 40.3   0.0107 1.0137 172.4 Nm  21?   1.32 119.0    4  89 102  35
   2024 04 14 09:00  13 25 19.05    -02 05 46.7   0.0107 1.0137 172.4 Nm  21?   1.21 122.0    6  88 102  35
   2024 04 14 09:10  13 25 19.69    -02 05 53.2   0.0107 1.0137 172.4 Nm  21?   1.10 125.5    8  87 102  35
   2024 04 14 09:20  13 25 20.25    -02 05 59.6   0.0107 1.0137 172.4 Am  21?   1.00 129.7   10  85 101  35
   2024 04 14 09:30  13 25 20.72    -02 06 06.0   0.0107 1.0137 172.4 Am  21?   0.91 134.8   12  84 101  35
   2024 04 14 09:40  13 25 21.11    -02 06 12.4   0.0107 1.0137 172.4 Am  21?   0.83 140.8   14  82 101  35
   2024 04 14 09:50  13 25 21.42    -02 06 18.8   0.0107 1.0137 172.4  m  21?   0.75 148.1   16  81 101  35
   2024 04 14 10:00  13 25 21.64    -02 06 25.2   0.0107 1.0137 172.4  m  21?   0.70 156.5   18  79 101  35
   2024 04 14 10:10  13 25 21.79    -02 06 31.6   0.0107 1.0137 172.4  m  21?   0.66 166.1   20  78 101  35
   2024 04 14 10:20  13 25 21.85    -02 06 38.0   0.0107 1.0137 172.4  m  21?   0.64 176.4   22  76 101  36
   2024 04 14 10:30  13 25 21.84    -02 06 44.3   0.0107 1.0137 172.4  m  21?   0.64 186.8   24  74 101  36
   2024 04 14 10:40  13 25 21.75    -02 06 50.6   0.0107 1.0138 172.4  m  21?   0.66 196.5   26  73 101  36
   2024 04 14 10:50  13 25 21.59    -02 06 56.9   0.0107 1.0138 172.4  m  21?   0.69 205.3   28  71 101  36
   2024 04 14 11:00  13 25 21.35    -02 07 03.2   0.0107 1.0138 172.4  m  21?   0.74 212.8   30  69 101  36
   2024 04 14 11:10  13 25 21.05    -02 07 09.4   0.0107 1.0138 172.4  m  21?   0.80 219.1   32  67 101  36
   2024 04 14 11:20  13 25 20.68    -02 07 15.6   0.0107 1.0138 172.4  m  21?   0.87 224.3   34  65 101  36
   2024 04 14 11:30  13 25 20.24    -02 07 21.8   0.0107 1.0138 172.4  m  21?   0.93 228.6   36  63 101  36
   2024 04 14 11:40  13 25 19.74    -02 07 27.9   0.0107 1.0138 172.4  m  21?   1.00 232.2   37  61 101  36
   2024 04 14 11:50  13 25 19.18    -02 07 34.0   0.0107 1.0138 172.4  m  21?   1.07 235.3   39  59 101  36
   2024 04 14 12:00  13 25 18.57    -02 07 40.1   0.0107 1.0138 172.4  m  21?   1.14 237.8   41  56 100  36
   2024 04 14 12:10  13 25 17.90    -02 07 46.1   0.0107 1.0138 172.4  m  21?   1.21 240.0   43  54 100  36
   2024 04 14 12:20  13 25 17.17    -02 07 52.1   0.0107 1.0138 172.4  m  21?   1.27 241.8   44  51 100  36
   2024 04 14 12:30  13 25 16.40    -02 07 58.1   0.0107 1.0138 172.4     21?   1.33 243.4   46  49 100  36
   2024 04 14 12:40  13 25 15.59    -02 08 04.0   0.0107 1.0138 172.3     21?   1.39 244.7   47  46 100  36
   2024 04 14 12:50  13 25 14.73    -02 08 09.9   0.0107 1.0138 172.3     21?   1.44 245.9   49  43 100  36
   2024 04 14 13:00  13 25 13.84    -02 08 15.7   0.0107 1.0138 172.3     21?   1.49 246.9   50  39 100  36
   2024 04 14 13:10  13 25 12.91    -02 08 21.5   0.0107 1.0138 172.3     21?   1.53 247.8   52  36 100  36
   2024 04 14 13:20  13 25 11.95    -02 08 27.2   0.0107 1.0138 172.3     21?   1.57 248.6   53  32 100  37
   2024 04 14 13:30  13 25 10.96    -02 08 32.9   0.0107 1.0138 172.3     21?   1.61 249.2   54  28 100  37
   2024 04 14 13:40  13 25 09.94    -02 08 38.6   0.0107 1.0138 172.3     21?   1.64 249.8   55  24 100  37
   2024 04 14 13:50  13 25 08.91    -02 08 44.2   0.0107 1.0138 172.3     21?   1.66 250.3   56  20 100  37
   2024 04 14 14:00  13 25 07.86    -02 08 49.7   0.0107 1.0138 172.3     21?   1.68 250.7   56  16  99  37
   2024 04 14 14:10  13 25 06.79    -02 08 55.2   0.0107 1.0138 172.3     21?   1.69 251.1   57  11  99  37
   2024 04 14 14:20  13 25 05.72    -02 09 00.7   0.0107 1.0138 172.3     21?   1.70 251.3   57   7  99  37
   2024 04 14 14:30  13 25 04.64    -02 09 06.1   0.0107 1.0138 172.3     21?   1.71 251.6   57   2  99  37
   2024 04 14 14:40  13 25 03.56    -02 09 11.4   0.0107 1.0138 172.3  t  21?   1.71 251.7   57 357  99  37
   2024 04 14 14:50  13 25 02.48    -02 09 16.7   0.0107 1.0138 172.3     21?   1.70 251.8   57 352  99  37
   2024 04 14 15:00  13 25 01.40    -02 09 22.0   0.0107 1.0138 172.3     21?   1.69 251.9   57 348  99  37
   2024 04 14 15:10  13 25 00.34    -02 09 27.2   0.0107 1.0138 172.3     21?   1.67 251.8   56 343  99  37
   2024 04 14 15:20  13 24 59.29    -02 09 32.3   0.0107 1.0138 172.3     21?   1.64 251.7   56 339  99  37
   2024 04 14 15:30  13 24 58.25    -02 09 37.4   0.0107 1.0138 172.3     21?   1.62 251.6   55 335  99  37
   2024 04 14 15:40  13 24 57.24    -02 09 42.5   0.0107 1.0138 172.3     21?   1.58 251.4   54 331  98  38
   2024 04 14 15:50  13 24 56.25    -02 09 47.5   0.0107 1.0138 172.3     21?   1.54 251.1   53 327  98  38
   2024 04 14 16:00  13 24 55.29    -02 09 52.4   0.0107 1.0138 172.3     21?   1.50 250.7   52 323  98  38
   2024 04 14 16:10  13 24 54.36    -02 09 57.3   0.0107 1.0138 172.3     21?   1.45 250.2   50 320  98  38
   2024 04 14 16:20  13 24 53.47    -02 10 02.2   0.0107 1.0138 172.3     21?   1.40 249.6   49 316  98  38
   2024 04 14 16:30  13 24 52.62    -02 10 07.0   0.0107 1.0138 172.3     21?   1.34 248.9   48 313  98  38
   2024 04 14 16:40  13 24 51.80    -02 10 11.8   0.0107 1.0138 172.3     21?   1.28 248.0   46 310  98  38
   2024 04 14 16:50  13 24 51.04    -02 10 16.5   0.0107 1.0138 172.3     21?   1.21 247.0   44 308  98  38
   2024 04 14 17:00  13 24 50.32    -02 10 21.2   0.0107 1.0138 172.3     21?   1.14 245.7   43 305  98  38
   2024 04 14 17:10  13 24 49.65    -02 10 25.9   0.0107 1.0138 172.3     21?   1.07 244.2   41 303  98  38
   2024 04 14 17:20  13 24 49.04    -02 10 30.5   0.0107 1.0138 172.3     21?   0.99 242.3   39 300  97  38
   2024 04 14 17:30  13 24 48.48    -02 10 35.0   0.0107 1.0138 172.3     21?   0.91 239.9   37 298  97  38
   2024 04 14 17:40  13 24 47.98    -02 10 39.6   0.0107 1.0138 172.2     21?   0.83 236.9   36 296  97  39
   2024 04 14 17:50  13 24 47.55    -02 10 44.1   0.0107 1.0138 172.2     21?   0.75 233.1   34 294  97  39
   2024 04 14 18:00  13 24 47.18    -02 10 48.6   0.0107 1.0138 172.2     21?   0.67 228.2   32 292  97  39
   2024 04 14 18:10  13 24 46.88    -02 10 53.0   0.0107 1.0138 172.2     21?   0.59 221.8   30 290  97  39
   2024 04 14 18:20  13 24 46.65    -02 10 57.4   0.0107 1.0138 172.2     21?   0.53 213.4   28 288  97  39
   2024 04 14 18:30  13 24 46.50    -02 11 01.8   0.0107 1.0138 172.2     21?   0.47 202.4   26 286  97  39
   2024 04 14 18:40  13 24 46.41    -02 11 06.2   0.0107 1.0138 172.2     21?   0.44 188.9   24 285  96  39
   2024 04 14 18:50  13 24 46.41    -02 11 10.5   0.0107 1.0138 172.2     21?   0.43 173.8   22 283  96  39
   2024 04 14 19:00  13 24 46.48    -02 11 14.8   0.0107 1.0138 172.2     21?   0.46 159.0   20 281  96  39
   2024 04 14 19:10  13 24 46.63    -02 11 19.1   0.0107 1.0138 172.2     21?   0.51 146.4   18 280  96  39
   2024 04 14 19:20  13 24 46.86    -02 11 23.4   0.0107 1.0138 172.2     21?   0.59 136.4   16 278  96  40
   2024 04 14 19:30  13 24 47.17    -02 11 27.6   0.0107 1.0139 172.2     21?   0.68 128.7   14 277  96  40
   2024 04 14 19:40  13 24 47.56    -02 11 31.9   0.0107 1.0139 172.2     21?   0.78 122.9   12 275  96  40
   2024 04 14 19:50  13 24 48.04    -02 11 36.1   0.0107 1.0139 172.2 A   21?   0.89 118.4   10 274  96  40
   2024 04 14 20:00  13 24 48.60    -02 11 40.4   0.0107 1.0139 172.2 A   21?   1.00 114.9    8 272  96  40
   2024 04 14 20:10  13 24 49.25    -02 11 44.6   0.0107 1.0139 172.2 A   21?   1.12 112.1    6 271  95  40
   2024 04 14 20:20  13 24 49.99    -02 11 48.8   0.0107 1.0139 172.2 N   21?   1.24 109.8    4 270  95  40
   2024 04 14 20:30  13 24 50.81    -02 11 53.0   0.0107 1.0139 172.2 N   21?   1.36 108.0    2 268  95  40
   2024 04 14 20:40  13 24 51.71    -02 11 57.3   0.0107 1.0139 172.2 C   21?   1.48 106.4    0 267  95  40
   ................
   2024 04 15 08:30  13 27 25.59    -02 18 27.6   0.0107 1.0140 172.2 Cr  21?   1.57 115.6    0  92  90  45
   2024 04 15 08:40  13 27 26.49    -02 18 34.4   0.0107 1.0140 172.2 Cm  21?   1.45 117.8    2  91  90  45
   2024 04 15 08:50  13 27 27.30    -02 18 41.1   0.0107 1.0140 172.2 Nm  21?   1.34 120.4    4  89  90  45
   2024 04 15 09:00  13 27 28.02    -02 18 47.9   0.0107 1.0140 172.2 Nm  21?   1.23 123.4    6  88  90  45
   2024 04 15 09:10  13 27 28.67    -02 18 54.7   0.0107 1.0140 172.2 Nm  21?   1.13 127.0    8  86  89  45
   2024 04 15 09:20  13 27 29.22    -02 19 01.5   0.0107 1.0140 172.2 Am  21?   1.03 131.2   10  85  89  45
   2024 04 15 09:30  13 27 29.69    -02 19 08.3   0.0107 1.0140 172.2 Am  21?   0.93 136.3   12  84  89  45
   2024 04 15 09:40  13 27 30.08    -02 19 15.1   0.0107 1.0140 172.2 Am  21?   0.85 142.3   14  82  89  45
   2024 04 15 09:50  13 27 30.39    -02 19 21.8   0.0107 1.0140 172.2  m  21?   0.78 149.4   16  81  89  45
   2024 04 15 10:00  13 27 30.61    -02 19 28.5   0.0107 1.0140 172.2  m  21?   0.73 157.6   18  79  89  45
   2024 04 15 10:10  13 27 30.76    -02 19 35.3   0.0107 1.0140 172.2  m  21?   0.69 166.7   20  77  89  46
   2024 04 15 10:20  13 27 30.82    -02 19 42.0   0.0107 1.0140 172.2  m  21?   0.67 176.5   23  76  89  46
   2024 04 15 10:30  13 27 30.81    -02 19 48.6   0.0107 1.0140 172.2  m  21?   0.67 186.2   25  74  89  46
   2024 04 15 10:40  13 27 30.72    -02 19 55.3   0.0107 1.0140 172.2  m  21?   0.69 195.5   26  73  89  46
   2024 04 15 10:50  13 27 30.56    -02 20 01.9   0.0107 1.0140 172.2  m  21?   0.72 203.9   28  71  89  46
   2024 04 15 11:00  13 27 30.33    -02 20 08.5   0.0107 1.0140 172.2  m  21?   0.77 211.2   30  69  89  46
   2024 04 15 11:10  13 27 30.03    -02 20 15.1   0.0107 1.0140 172.2  m  21?   0.83 217.4   32  67  89  46
   2024 04 15 11:20  13 27 29.66    -02 20 21.6   0.0107 1.0140 172.1  m  21?   0.89 222.6   34  65  89  46
   2024 04 15 11:30  13 27 29.23    -02 20 28.1   0.0107 1.0140 172.1  m  21?   0.95 227.0   36  63  89  46
   2024 04 15 11:40  13 27 28.73    -02 20 34.6   0.0107 1.0140 172.1  m  21?   1.02 230.6   38  61  89  46
   2024 04 15 11:50  13 27 28.18    -02 20 41.0   0.0107 1.0140 172.1  m  21?   1.08 233.7   40  59  89  46
   2024 04 15 12:00  13 27 27.57    -02 20 47.4   0.0107 1.0140 172.1  m  21?   1.15 236.3   41  56  88  46
   2024 04 15 12:10  13 27 26.90    -02 20 53.7   0.0107 1.0140 172.1  m  21?   1.21 238.5   43  54  88  46
   2024 04 15 12:20  13 27 26.19    -02 21 00.0   0.0107 1.0140 172.1  m  21?   1.27 240.4   45  51  88  46
   2024 04 15 12:30  13 27 25.42    -02 21 06.3   0.0107 1.0140 172.1  m  21?   1.33 242.0   46  48  88  46
   2024 04 15 12:40  13 27 24.62    -02 21 12.5   0.0107 1.0140 172.1  m  21?   1.39 243.4   48  45  88  46
   2024 04 15 12:50  13 27 23.77    -02 21 18.6   0.0107 1.0140 172.1  m  21?   1.44 244.7   49  42  88  46
   2024 04 15 13:00  13 27 22.88    -02 21 24.8   0.0107 1.0140 172.1  m  21?   1.49 245.7   51  39  88  46
   2024 04 15 13:10  13 27 21.96    -02 21 30.8   0.0107 1.0141 172.1  m  21?   1.53 246.6   52  35  88  46
   2024 04 15 13:20  13 27 21.01    -02 21 36.8   0.0107 1.0141 172.1  m  21?   1.57 247.4   53  32  88  46
   2024 04 15 13:30  13 27 20.03    -02 21 42.8   0.0107 1.0141 172.1     21?   1.60 248.1   54  28  88  47
   2024 04 15 13:40  13 27 19.03    -02 21 48.7   0.0107 1.0141 172.1     21?   1.63 248.7   55  24  88  47
   2024 04 15 13:50  13 27 18.00    -02 21 54.6   0.0107 1.0141 172.1     21?   1.65 249.2   56  19  88  47
   2024 04 15 14:00  13 27 16.96    -02 22 00.4   0.0107 1.0141 172.1     21?   1.67 249.7   57  15  88  47
   2024 04 15 14:10  13 27 15.91    -02 22 06.1   0.0107 1.0141 172.1     21?   1.68 250.0   57  10  88  47
   2024 04 15 14:20  13 27 14.85    -02 22 11.8   0.0107 1.0141 172.1     21?   1.69 250.3   57   6  87  47
   2024 04 15 14:30  13 27 13.79    -02 22 17.4   0.0107 1.0141 172.1     21?   1.69 250.6   57   1  87  47
   2024 04 15 14:40  13 27 12.72    -02 22 23.0   0.0107 1.0141 172.1  t  21?   1.69 250.7   57 356  87  47
   2024 04 15 14:50  13 27 11.66    -02 22 28.6   0.0107 1.0141 172.1     21?   1.68 250.8   57 352  87  47
   2024 04 15 15:00  13 27 10.60    -02 22 34.0   0.0107 1.0141 172.1     21?   1.67 250.9   57 347  87  47
   2024 04 15 15:10  13 27 09.55    -02 22 39.4   0.0107 1.0141 172.1     21?   1.65 250.8   56 342  87  47
   2024 04 15 15:20  13 27 08.52    -02 22 44.8   0.0107 1.0141 172.1     21?   1.63 250.7   56 338  87  47
   2024 04 15 15:30  13 27 07.50    -02 22 50.1   0.0107 1.0141 172.1     21?   1.60 250.6   55 334  87  47
   2024 04 15 15:40  13 27 06.51    -02 22 55.4   0.0107 1.0141 172.1     21?   1.56 250.3   54 330  87  47
   2024 04 15 15:50  13 27 05.54    -02 23 00.6   0.0107 1.0141 172.1     21?   1.52 250.0   53 326  87  48
   2024 04 15 16:00  13 27 04.60    -02 23 05.7   0.0107 1.0141 172.1     21?   1.48 249.6   52 322  86  48
   2024 04 15 16:10  13 27 03.70    -02 23 10.8   0.0107 1.0141 172.1     21?   1.43 249.1   50 319  86  48
   2024 04 15 16:20  13 27 02.82    -02 23 15.9   0.0107 1.0141 172.0     21?   1.37 248.4   49 316  86  48
   2024 04 15 16:30  13 27 01.99    -02 23 20.9   0.0107 1.0141 172.0     21?   1.31 247.6   47 313  86  48
   2024 04 15 16:40  13 27 01.20    -02 23 25.9   0.0107 1.0141 172.0     21?   1.25 246.7   46 310  86  48
   2024 04 15 16:50  13 27 00.46    -02 23 30.8   0.0107 1.0141 172.0     21?   1.18 245.5   44 307  86  48
   2024 04 15 17:00  13 26 59.76    -02 23 35.6   0.0107 1.0141 172.0     21?   1.11 244.2   43 304  86  48
   2024 04 15 17:10  13 26 59.12    -02 23 40.4   0.0107 1.0141 172.0     21?   1.04 242.4   41 302  86  48
   2024 04 15 17:20  13 26 58.53    -02 23 45.2   0.0107 1.0141 172.0     21?   0.96 240.4   39 300  86  48
   2024 04 15 17:30  13 26 58.00    -02 23 50.0   0.0107 1.0141 172.0     21?   0.89 237.7   37 297  86  48
   2024 04 15 17:40  13 26 57.53    -02 23 54.7   0.0107 1.0141 172.0     21?   0.81 234.5   35 295  85  48
   2024 04 15 17:50  13 26 57.12    -02 23 59.3   0.0107 1.0141 172.0     21?   0.73 230.3   34 293  85  49
   2024 04 15 18:00  13 26 56.78    -02 24 03.9   0.0107 1.0141 172.0     21?   0.65 224.9   32 291  85  49
   2024 04 15 18:10  13 26 56.51    -02 24 08.5   0.0107 1.0141 172.0     21?   0.58 217.8   30 289  85  49
   2024 04 15 18:20  13 26 56.31    -02 24 13.1   0.0107 1.0141 172.0     21?   0.52 208.7   28 288  85  49
   2024 04 15 18:30  13 26 56.18    -02 24 17.6   0.0107 1.0141 172.0     21?   0.47 197.0   26 286  85  49
   2024 04 15 18:40  13 26 56.12    -02 24 22.1   0.0107 1.0141 172.0     21?   0.45 183.2   24 284  85  49
   2024 04 15 18:50  13 26 56.14    -02 24 26.6   0.0107 1.0141 172.0     21?   0.46 168.6   22 282  85  49
   2024 04 15 19:00  13 26 56.24    -02 24 31.0   0.0107 1.0141 172.0     21?   0.49 154.9   20 281  85  49
   2024 04 15 19:10  13 26 56.42    -02 24 35.5   0.0107 1.0141 172.0     21?   0.55 143.4   18 279  84  49
   2024 04 15 19:20  13 26 56.68    -02 24 39.9   0.0107 1.0141 172.0     21?   0.63 134.3   16 278  84  49
   2024 04 15 19:30  13 26 57.02    -02 24 44.3   0.0107 1.0141 172.0     21?   0.72 127.3   14 276  84  49
   2024 04 15 19:40  13 26 57.45    -02 24 48.7   0.0107 1.0141 172.0     21?   0.82 122.0   12 275  84  50
   2024 04 15 19:50  13 26 57.95    -02 24 53.0   0.0107 1.0141 172.0 A   21?   0.93 117.8   10 273  84  50
   2024 04 15 20:00  13 26 58.55    -02 24 57.4   0.0107 1.0141 172.0 A   21?   1.05 114.5    8 272  84  50
   2024 04 15 20:10  13 26 59.23    -02 25 01.8   0.0107 1.0141 172.0 A   21?   1.16 111.8    5 271  84  50
   2024 04 15 20:20  13 26 59.99    -02 25 06.1   0.0107 1.0141 172.0 N   21?   1.29 109.7    3 269  84  50
   2024 04 15 20:30  13 27 00.84    -02 25 10.5   0.0107 1.0141 172.0 N   21?   1.41 107.9    1 268  84  50
   2024 04 15 20:40  13 27 01.78    -02 25 14.8   0.0107 1.0141 172.0 N   21?   1.53 106.4    0 266  83  50
   ................
   2024 04 16 08:30  13 29 36.69    -02 32 02.9   0.0108 1.0143 172.0 Cr  21?   1.58 116.8    0  92  78  55
   2024 04 16 08:40  13 29 37.58    -02 32 10.0   0.0107 1.0143 172.0 Cm  21?   1.47 119.1    3  91  78  55
   2024 04 16 08:50  13 29 38.40    -02 32 17.2   0.0107 1.0143 172.0 Nm  21?   1.36 121.7    5  89  78  55
   2024 04 16 09:00  13 29 39.12    -02 32 24.3   0.0107 1.0143 172.0 Nm  21?   1.25 124.8    7  88  78  55
   2024 04 16 09:10  13 29 39.76    -02 32 31.5   0.0107 1.0143 172.0 Nm  21?   1.15 128.4    9  86  78  55
   2024 04 16 09:20  13 29 40.32    -02 32 38.6   0.0107 1.0143 172.0 Am  21?   1.05 132.7   11  85  78  55
   2024 04 16 09:30  13 29 40.79    -02 32 45.7   0.0107 1.0143 172.0 Am  21?   0.96 137.7   13  83  78  55
   2024 04 16 09:40  13 29 41.18    -02 32 52.8   0.0107 1.0143 172.0 Am  21?   0.88 143.7   15  82  78  55
   2024 04 16 09:50  13 29 41.49    -02 32 59.9   0.0107 1.0143 172.0  m  21?   0.81 150.6   17  80  78  55
   2024 04 16 10:00  13 29 41.71    -02 33 07.0   0.0107 1.0143 171.9  m  21?   0.76 158.5   19  79  77  55
   2024 04 16 10:10  13 29 41.86    -02 33 14.1   0.0107 1.0143 171.9  m  21?   0.72 167.2   21  77  77  55
   2024 04 16 10:20  13 29 41.93    -02 33 21.1   0.0107 1.0143 171.9  m  21?   0.70 176.4   23  76  77  56
   2024 04 16 10:30  13 29 41.92    -02 33 28.1   0.0107 1.0143 171.9  m  21?   0.70 185.7   25  74  77  56
   2024 04 16 10:40  13 29 41.83    -02 33 35.1   0.0107 1.0143 171.9  m  21?   0.72 194.6   27  72  77  56
   2024 04 16 10:50  13 29 41.68    -02 33 42.1   0.0107 1.0143 171.9  m  21?   0.75 202.6   29  71  77  56
   2024 04 16 11:00  13 29 41.45    -02 33 49.0   0.0107 1.0143 171.9  m  21?   0.80 209.7   31  69  77  56
   2024 04 16 11:10  13 29 41.15    -02 33 55.9   0.0107 1.0143 171.9  m  21?   0.85 215.8   33  67  77  56
   2024 04 16 11:20  13 29 40.78    -02 34 02.8   0.0107 1.0143 171.9  m  21?   0.91 220.9   35  65  77  56
   2024 04 16 11:30  13 29 40.35    -02 34 09.6   0.0107 1.0143 171.9  m  21?   0.97 225.3   37  63  77  56
   2024 04 16 11:40  13 29 39.86    -02 34 16.4   0.0107 1.0143 171.9  m  21?   1.03 229.0   38  61  77  56
   2024 04 16 11:50  13 29 39.31    -02 34 23.1   0.0107 1.0143 171.9  m  21?   1.10 232.1   40  58  77  56
   2024 04 16 12:00  13 29 38.71    -02 34 29.8   0.0107 1.0143 171.9  m  21?   1.16 234.8   42  56  77  56
   2024 04 16 12:10  13 29 38.05    -02 34 36.4   0.0107 1.0143 171.9  m  21?   1.22 237.1   44  53  77  56
   2024 04 16 12:20  13 29 37.34    -02 34 43.0   0.0107 1.0143 171.9  m  21?   1.28 239.0   45  51  77  56
   2024 04 16 12:30  13 29 36.58    -02 34 49.6   0.0107 1.0143 171.9  m  21?   1.34 240.7   47  48  77  56
   2024 04 16 12:40  13 29 35.78    -02 34 56.1   0.0107 1.0143 171.9  m  21?   1.39 242.2   48  45  77  56
   2024 04 16 12:50  13 29 34.94    -02 35 02.5   0.0107 1.0143 171.9  m  21?   1.44 243.4   50  42  76  56
   2024 04 16 13:00  13 29 34.07    -02 35 08.9   0.0107 1.0143 171.9  m  21?   1.48 244.5   51  38  76  56
   2024 04 16 13:10  13 29 33.15    -02 35 15.2   0.0107 1.0143 171.9  m  21?   1.53 245.5   52  35  76  56
   2024 04 16 13:20  13 29 32.21    -02 35 21.5   0.0107 1.0143 171.9  m  21?   1.56 246.3   54  31  76  56
   2024 04 16 13:30  13 29 31.24    -02 35 27.8   0.0107 1.0143 171.9  m  21?   1.59 247.0   55  27  76  56
   2024 04 16 13:40  13 29 30.25    -02 35 33.9   0.0107 1.0143 171.9  m  21?   1.62 247.7   55  23  76  56
   2024 04 16 13:50  13 29 29.24    -02 35 40.0   0.0107 1.0143 171.9  m  21?   1.64 248.2   56  19  76  57
   2024 04 16 14:00  13 29 28.22    -02 35 46.1   0.0107 1.0143 171.9  m  21?   1.66 248.6   57  14  76  57
   2024 04 16 14:10  13 29 27.18    -02 35 52.1   0.0107 1.0143 171.9  m  21?   1.67 249.0   57  10  76  57
   2024 04 16 14:20  13 29 26.13    -02 35 58.0   0.0107 1.0143 171.9  m  21?   1.68 249.3   58   5  76  57
   2024 04 16 14:30  13 29 25.08    -02 36 03.9   0.0107 1.0143 171.9  m  21?   1.68 249.6   58   0  76  57
   2024 04 16 14:40  13 29 24.03    -02 36 09.7   0.0107 1.0143 171.9  t  21?   1.68 249.7   58 355  76  57
   2024 04 16 14:50  13 29 22.98    -02 36 15.4   0.0107 1.0143 171.9     21?   1.67 249.8   57 351  76  57
   2024 04 16 15:00  13 29 21.94    -02 36 21.1   0.0107 1.0143 171.8     21?   1.65 249.9   57 346  76  57
   2024 04 16 15:10  13 29 20.91    -02 36 26.8   0.0107 1.0143 171.8     21?   1.63 249.8   56 342  75  57
   2024 04 16 15:20  13 29 19.90    -02 36 32.3   0.0107 1.0143 171.8     21?   1.61 249.7   56 337  75  57
   2024 04 16 15:30  13 29 18.90    -02 36 37.9   0.0107 1.0143 171.8     21?   1.58 249.5   55 333  75  57
   2024 04 16 15:40  13 29 17.93    -02 36 43.3   0.0107 1.0144 171.8     21?   1.54 249.3   54 329  75  57
   2024 04 16 15:50  13 29 16.98    -02 36 48.7   0.0107 1.0144 171.8     21?   1.50 248.9   53 325  75  57
   2024 04 16 16:00  13 29 16.06    -02 36 54.1   0.0107 1.0144 171.8     21?   1.45 248.5   52 322  75  57
   2024 04 16 16:10  13 29 15.17    -02 36 59.3   0.0107 1.0144 171.8     21?   1.40 247.9   50 318  75  57
   2024 04 16 16:20  13 29 14.32    -02 37 04.6   0.0107 1.0144 171.8     21?   1.35 247.2   49 315  75  58
   2024 04 16 16:30  13 29 13.51    -02 37 09.7   0.0107 1.0144 171.8     21?   1.29 246.4   47 312  75  58
   2024 04 16 16:40  13 29 12.75    -02 37 14.9   0.0107 1.0144 171.8     21?   1.23 245.3   46 309  75  58
   2024 04 16 16:50  13 29 12.03    -02 37 19.9   0.0107 1.0144 171.8     21?   1.16 244.1   44 306  75  58
   2024 04 16 17:00  13 29 11.36    -02 37 25.0   0.0107 1.0144 171.8     21?   1.09 242.6   42 304  74  58
   2024 04 16 17:10  13 29 10.74    -02 37 29.9   0.0107 1.0144 171.8     21?   1.02 240.7   41 301  74  58
   2024 04 16 17:20  13 29 10.17    -02 37 34.9   0.0107 1.0144 171.8     21?   0.94 238.4   39 299  74  58
   2024 04 16 17:30  13 29 09.67    -02 37 39.8   0.0107 1.0144 171.8     21?   0.86 235.5   37 297  74  58
   2024 04 16 17:40  13 29 09.23    -02 37 44.6   0.0107 1.0144 171.8     21?   0.78 231.9   35 295  74  58
   2024 04 16 17:50  13 29 08.85    -02 37 49.4   0.0107 1.0144 171.8     21?   0.71 227.3   33 293  74  58
   2024 04 16 18:00  13 29 08.53    -02 37 54.2   0.0107 1.0144 171.8     21?   0.63 221.4   32 291  74  58
   2024 04 16 18:10  13 29 08.29    -02 37 58.9   0.0107 1.0144 171.8     21?   0.57 213.7   30 289  74  58
   2024 04 16 18:20  13 29 08.11    -02 38 03.6   0.0107 1.0144 171.8     21?   0.51 203.8   28 287  74  58
   2024 04 16 18:30  13 29 08.01    -02 38 08.2   0.0107 1.0144 171.8     21?   0.47 191.7   26 285  73  59
   2024 04 16 18:40  13 29 07.98    -02 38 12.9   0.0107 1.0144 171.8     21?   0.46 177.9   24 284  73  59
   2024 04 16 18:50  13 29 08.03    -02 38 17.5   0.0107 1.0144 171.8     21?   0.48 163.8   22 282  73  59
   2024 04 16 19:00  13 29 08.16    -02 38 22.1   0.0107 1.0144 171.8     21?   0.52 151.1   20 280  73  59
   2024 04 16 19:10  13 29 08.37    -02 38 26.6   0.0107 1.0144 171.8     21?   0.59 140.7   18 279  73  59
   2024 04 16 19:20  13 29 08.66    -02 38 31.2   0.0107 1.0144 171.8     21?   0.67 132.4   16 277  73  59
   2024 04 16 19:30  13 29 09.03    -02 38 35.7   0.0107 1.0144 171.8     21?   0.76 126.0   13 276  73  59
   2024 04 16 19:40  13 29 09.48    -02 38 40.2   0.0107 1.0144 171.7     21?   0.87 121.1   11 274  73  59
   2024 04 16 19:50  13 29 10.02    -02 38 44.7   0.0107 1.0144 171.7 A   21?   0.98 117.2    9 273  73  59
   2024 04 16 20:00  13 29 10.64    -02 38 49.1   0.0107 1.0144 171.7 A   21?   1.09 114.1    7 272  73  59
   2024 04 16 20:10  13 29 11.35    -02 38 53.6   0.0107 1.0144 171.7 A   21?   1.21 111.6    5 270  72  59
   2024 04 16 20:20  13 29 12.14    -02 38 58.1   0.0107 1.0144 171.7 N   21?   1.33 109.5    3 269  72  60
   2024 04 16 20:30  13 29 13.02    -02 39 02.6   0.0108 1.0144 171.7 N   21?   1.45 107.8    1 267  72  60
   2024 04 16 20:40  13 29 13.99    -02 39 07.0   0.0108 1.0144 171.7 N   21?   1.58 106.4    0 266  72  60
   ................
   2024 04 17 08:30  13 31 49.95    -02 46 12.4   0.0108 1.0145 171.7 Cm  21?   1.60 117.9    1  92  66  65
   2024 04 17 08:40  13 31 50.85    -02 46 19.9   0.0108 1.0145 171.7 Cm  21?   1.49 120.3    3  91  66  65
   2024 04 17 08:50  13 31 51.66    -02 46 27.4   0.0107 1.0145 171.7 Nm  21?   1.38 122.9    5  89  66  65
   2024 04 17 09:00  13 31 52.39    -02 46 34.9   0.0107 1.0145 171.7 Nm  21?   1.27 126.1    7  88  66  65
   2024 04 17 09:10  13 31 53.03    -02 46 42.4   0.0107 1.0145 171.7 Nm  21?   1.17 129.7    9  86  66  65
   2024 04 17 09:20  13 31 53.59    -02 46 49.9   0.0107 1.0145 171.7 Am  21?   1.07 134.0   11  85  66  65
   2024 04 17 09:30  13 31 54.06    -02 46 57.4   0.0107 1.0146 171.7 Am  21?   0.99 139.0   13  83  66  65
   2024 04 17 09:40  13 31 54.45    -02 47 04.8   0.0107 1.0146 171.7  m  21?   0.91 144.9   15  82  66  65
   2024 04 17 09:50  13 31 54.76    -02 47 12.3   0.0107 1.0146 171.7  m  21?   0.84 151.6   17  80  66  65
   2024 04 17 10:00  13 31 54.98    -02 47 19.7   0.0107 1.0146 171.7  m  21?   0.79 159.2   19  79  66  65
   2024 04 17 10:10  13 31 55.13    -02 47 27.1   0.0107 1.0146 171.7  m  21?   0.76 167.6   21  77  66  65
   2024 04 17 10:20  13 31 55.20    -02 47 34.5   0.0107 1.0146 171.7  m  21?   0.74 176.4   23  76  66  65
   2024 04 17 10:30  13 31 55.19    -02 47 41.8   0.0107 1.0146 171.7  m  21?   0.74 185.2   25  74  66  65
   2024 04 17 10:40  13 31 55.11    -02 47 49.2   0.0107 1.0146 171.7  m  21?   0.75 193.6   27  72  66  65
   2024 04 17 10:50  13 31 54.96    -02 47 56.4   0.0107 1.0146 171.7  m  21?   0.78 201.4   29  71  66  65
   2024 04 17 11:00  13 31 54.73    -02 48 03.7   0.0107 1.0146 171.7  m  21?   0.82 208.3   31  69  66  65
   2024 04 17 11:10  13 31 54.44    -02 48 10.9   0.0107 1.0146 171.7  m  21?   0.87 214.2   33  67  66  65
   2024 04 17 11:20  13 31 54.07    -02 48 18.1   0.0107 1.0146 171.7  m  21?   0.93 219.4   35  65  66  65
   2024 04 17 11:30  13 31 53.65    -02 48 25.2   0.0107 1.0146 171.7  m  21?   0.99 223.7   37  63  66  65
   2024 04 17 11:40  13 31 53.16    -02 48 32.3   0.0107 1.0146 171.7  m  21?   1.05 227.5   39  61  65  65
   2024 04 17 11:50  13 31 52.62    -02 48 39.3   0.0107 1.0146 171.7  m  21?   1.11 230.6   41  58  65  65
   2024 04 17 12:00  13 31 52.02    -02 48 46.3   0.0107 1.0146 171.7  m  21?   1.17 233.3   42  56  65  65
   2024 04 17 12:10  13 31 51.37    -02 48 53.3   0.0107 1.0146 171.7  m  21?   1.23 235.7   44  53  65  65
   2024 04 17 12:20  13 31 50.66    -02 49 00.2   0.0107 1.0146 171.7  m  21?   1.29 237.7   46  51  65  66
   2024 04 17 12:30  13 31 49.92    -02 49 07.0   0.0107 1.0146 171.7  m  21?   1.34 239.4   47  48  65  66
   2024 04 17 12:40  13 31 49.12    -02 49 13.8   0.0107 1.0146 171.7  m  21?   1.39 240.9   49  45  65  66
   2024 04 17 12:50  13 31 48.29    -02 49 20.5   0.0107 1.0146 171.7  m  21?   1.44 242.2   50  41  65  66
   2024 04 17 13:00  13 31 47.42    -02 49 27.2   0.0107 1.0146 171.7  m  21?   1.48 243.3   52  38  65  66
   2024 04 17 13:10  13 31 46.52    -02 49 33.8   0.0107 1.0146 171.7  m  21?   1.52 244.3   53  34  65  66
   2024 04 17 13:20  13 31 45.59    -02 49 40.3   0.0107 1.0146 171.7  m  21?   1.56 245.2   54  31  65  66
   2024 04 17 13:30  13 31 44.63    -02 49 46.8   0.0107 1.0146 171.7  m  21?   1.59 245.9   55  27  65  66
   2024 04 17 13:40  13 31 43.65    -02 49 53.2   0.0107 1.0146 171.7  m  21?   1.61 246.6   56  22  65  66
   2024 04 17 13:50  13 31 42.65    -02 49 59.6   0.0107 1.0146 171.7  m  21?   1.64 247.2   57  18  65  66
   2024 04 17 14:00  13 31 41.64    -02 50 05.8   0.0107 1.0146 171.7  m  21?   1.65 247.6   57  14  65  66
   2024 04 17 14:10  13 31 40.62    -02 50 12.1   0.0107 1.0146 171.6  m  21?   1.66 248.0   58   9  65  66
   2024 04 17 14:20  13 31 39.58    -02 50 18.2   0.0107 1.0146 171.6  m  21?   1.67 248.3   58   4  64  66
   2024 04 17 14:30  13 31 38.55    -02 50 24.3   0.0107 1.0146 171.6  t  21?   1.67 248.6   58 359  64  66
   2024 04 17 14:40  13 31 37.51    -02 50 30.4   0.0107 1.0146 171.6  m  21?   1.66 248.7   58 355  64  66
   2024 04 17 14:50  13 31 36.48    -02 50 36.3   0.0107 1.0146 171.6  m  21?   1.65 248.8   58 350  64  66
   2024 04 17 15:00  13 31 35.46    -02 50 42.2   0.0107 1.0146 171.6  m  21?   1.63 248.9   57 345  64  66
   2024 04 17 15:10  13 31 34.45    -02 50 48.1   0.0107 1.0146 171.6  m  21?   1.61 248.8   57 341  64  66
   2024 04 17 15:20  13 31 33.45    -02 50 53.8   0.0107 1.0146 171.6  m  21?   1.59 248.7   56 336  64  66
   2024 04 17 15:30  13 31 32.47    -02 50 59.5   0.0107 1.0146 171.6  m  21?   1.56 248.5   55 332  64  66
   2024 04 17 15:40  13 31 31.52    -02 51 05.2   0.0107 1.0146 171.6     21?   1.52 248.2   54 328  64  67
   2024 04 17 15:50  13 31 30.59    -02 51 10.8   0.0107 1.0146 171.6     21?   1.48 247.8   53 324  64  67
   2024 04 17 16:00  13 31 29.69    -02 51 16.3   0.0107 1.0146 171.6     21?   1.43 247.4   52 321  64  67
   2024 04 17 16:10  13 31 28.82    -02 51 21.7   0.0107 1.0146 171.6     21?   1.38 246.8   50 317  64  67
   2024 04 17 16:20  13 31 28.00    -02 51 27.1   0.0107 1.0146 171.6     21?   1.33 246.0   49 314  64  67
   2024 04 17 16:30  13 31 27.21    -02 51 32.5   0.0107 1.0146 171.6     21?   1.27 245.1   47 311  63  67
   2024 04 17 16:40  13 31 26.46    -02 51 37.7   0.0107 1.0146 171.6     21?   1.20 244.0   46 308  63  67
   2024 04 17 16:50  13 31 25.77    -02 51 43.0   0.0107 1.0146 171.6     21?   1.13 242.6   44 306  63  67
   2024 04 17 17:00  13 31 25.12    -02 51 48.1   0.0107 1.0146 171.6     21?   1.06 241.0   42 303  63  67
   2024 04 17 17:10  13 31 24.52    -02 51 53.3   0.0107 1.0146 171.6     21?   0.99 238.9   41 301  63  67
   2024 04 17 17:20  13 31 23.99    -02 51 58.3   0.0107 1.0146 171.6     21?   0.91 236.4   39 298  63  67
   2024 04 17 17:30  13 31 23.51    -02 52 03.4   0.0107 1.0146 171.6     21?   0.84 233.3   37 296  63  67
   2024 04 17 17:40  13 31 23.09    -02 52 08.3   0.0107 1.0146 171.6     21?   0.76 229.3   35 294  63  67
   2024 04 17 17:50  13 31 22.73    -02 52 13.3   0.0107 1.0146 171.6     21?   0.69 224.3   33 292  63  67
   2024 04 17 18:00  13 31 22.45    -02 52 18.2   0.0107 1.0146 171.5     21?   0.62 217.8   31 290  63  67
   2024 04 17 18:10  13 31 22.23    -02 52 23.0   0.0107 1.0146 171.5     21?   0.56 209.5   29 288  62  68
   2024 04 17 18:20  13 31 22.08    -02 52 27.8   0.0107 1.0146 171.5     21?   0.51 199.0   27 287  62  68
   2024 04 17 18:30  13 31 22.01    -02 52 32.6   0.0107 1.0147 171.5     21?   0.48 186.5   25 285  62  68
   2024 04 17 18:40  13 31 22.01    -02 52 37.3   0.0107 1.0147 171.5     21?   0.48 172.9   23 283  62  68
   2024 04 17 18:50  13 31 22.09    -02 52 42.1   0.0107 1.0147 171.5     21?   0.50 159.5   21 282  62  68
   2024 04 17 19:00  13 31 22.24    -02 52 46.8   0.0107 1.0147 171.5     21?   0.55 147.8   19 280  62  68
   2024 04 17 19:10  13 31 22.48    -02 52 51.4   0.0107 1.0147 171.5     21?   0.62 138.2   17 278  62  68
   2024 04 17 19:20  13 31 22.79    -02 52 56.1   0.0107 1.0147 171.5     21?   0.71 130.7   15 277  62  68
   2024 04 17 19:30  13 31 23.19    -02 53 00.7   0.0107 1.0147 171.5     21?   0.81 124.8   13 275  62  68
   2024 04 17 19:40  13 31 23.68    -02 53 05.3   0.0107 1.0147 171.5     21?   0.91 120.2   11 274  62  68
   2024 04 17 19:50  13 31 24.24    -02 53 09.9   0.0107 1.0147 171.5 A   21?   1.02 116.6    9 273  61  68
   2024 04 17 20:00  13 31 24.90    -02 53 14.5   0.0107 1.0147 171.5 A   21?   1.14 113.7    7 271  61  68
   2024 04 17 20:10  13 31 25.63    -02 53 19.1   0.0108 1.0147 171.5 A   21?   1.26 111.3    5 270  61  69
   2024 04 17 20:20  13 31 26.46    -02 53 23.6   0.0108 1.0147 171.5 N   21?   1.38 109.3    3 268  61  69
   2024 04 17 20:30  13 31 27.37    -02 53 28.2   0.0108 1.0147 171.5 N   21?   1.50 107.7    1 267  61  69
   ................
   2024 04 18 08:20  13 34 04.39    -03 00 47.0   0.0108 1.0148 171.5 Cr  21?   1.73 116.9    0  93  55  73
   2024 04 18 08:30  13 34 05.37    -03 00 54.9   0.0108 1.0148 171.5 Cm  21?   1.61 119.0    1  92  55  73
   2024 04 18 08:40  13 34 06.27    -03 01 02.7   0.0108 1.0148 171.5 Nm  21?   1.50 121.4    3  91  55  73
   2024 04 18 08:50  13 34 07.08    -03 01 10.6   0.0108 1.0148 171.5 Nm  21?   1.40 124.1    6  89  55  74
   2024 04 18 09:00  13 34 07.81    -03 01 18.4   0.0107 1.0148 171.5 Nm  21?   1.29 127.3    8  88  55  74
   2024 04 18 09:10  13 34 08.45    -03 01 26.3   0.0107 1.0148 171.5 Am  21?   1.19 131.0   10  86  55  74
   2024 04 18 09:20  13 34 09.01    -03 01 34.1   0.0107 1.0148 171.5 Am  21?   1.10 135.3   12  85  55  74
   2024 04 18 09:30  13 34 09.48    -03 01 41.9   0.0107 1.0148 171.5 Am  21?   1.01 140.2   14  83  55  74
   2024 04 18 09:40  13 34 09.87    -03 01 49.7   0.0107 1.0148 171.5  m  21?   0.94 146.0   16  82  55  74
   2024 04 18 09:50  13 34 10.18    -03 01 57.5   0.0107 1.0148 171.5  m  21?   0.87 152.6   18  80  55  74
   2024 04 18 10:00  13 34 10.41    -03 02 05.3   0.0107 1.0148 171.5  m  21?   0.82 159.9   20  79  55  74
   2024 04 18 10:10  13 34 10.56    -03 02 13.0   0.0107 1.0148 171.5  m  21?   0.79 167.9   22  77  55  74
   2024 04 18 10:20  13 34 10.63    -03 02 20.7   0.0107 1.0148 171.5  m  21?   0.77 176.3   24  76  55  74
   2024 04 18 10:30  13 34 10.62    -03 02 28.4   0.0107 1.0148 171.5  m  21?   0.77 184.7   26  74  55  74
   2024 04 18 10:40  13 34 10.54    -03 02 36.0   0.0107 1.0148 171.5  m  21?   0.78 192.8   28  72  54  74
   2024 04 18 10:50  13 34 10.39    -03 02 43.6   0.0107 1.0148 171.5  m  21?   0.81 200.3   30  70  54  74
   2024 04 18 11:00  13 34 10.17    -03 02 51.2   0.0107 1.0148 171.5  m  21?   0.85 207.0   32  69  54  74
   2024 04 18 11:10  13 34 09.88    -03 02 58.7   0.0107 1.0148 171.5  m  21?   0.89 212.8   34  67  54  74
   2024 04 18 11:20  13 34 09.52    -03 03 06.2   0.0107 1.0148 171.5  m  21?   0.95 217.9   36  65  54  74
   2024 04 18 11:30  13 34 09.10    -03 03 13.7   0.0107 1.0148 171.5  m  21?   1.00 222.3   38  63  54  74
   2024 04 18 11:40  13 34 08.62    -03 03 21.0   0.0107 1.0148 171.5  m  21?   1.06 226.0   39  60  54  74
   2024 04 18 11:50  13 34 08.08    -03 03 28.4   0.0107 1.0148 171.5  m  21?   1.12 229.2   41  58  54  74
   2024 04 18 12:00  13 34 07.49    -03 03 35.7   0.0107 1.0148 171.5  m  21?   1.18 231.9   43  56  54  74
   2024 04 18 12:10  13 34 06.84    -03 03 42.9   0.0107 1.0148 171.5  m  21?   1.24 234.3   45  53  54  74
   2024 04 18 12:20  13 34 06.14    -03 03 50.1   0.0107 1.0148 171.5  m  21?   1.29 236.4   46  50  54  74
   2024 04 18 12:30  13 34 05.40    -03 03 57.2   0.0107 1.0149 171.5  m  21?   1.35 238.1   48  47  54  74
   2024 04 18 12:40  13 34 04.62    -03 04 04.2   0.0107 1.0149 171.5  m  21?   1.39 239.7   49  44  54  74
   2024 04 18 12:50  13 34 03.79    -03 04 11.2   0.0107 1.0149 171.5  m  21?   1.44 241.0   51  41  54  74
   2024 04 18 13:00  13 34 02.93    -03 04 18.1   0.0107 1.0149 171.5  m  21?   1.48 242.2   52  38  54  74
   2024 04 18 13:10  13 34 02.04    -03 04 25.0   0.0107 1.0149 171.5  m  21?   1.52 243.2   53  34  54  74
   2024 04 18 13:20  13 34 01.12    -03 04 31.8   0.0107 1.0149 171.4  m  21?   1.55 244.1   54  30  54  75
   2024 04 18 13:30  13 34 00.17    -03 04 38.5   0.0107 1.0149 171.4  m  21?   1.58 244.9   55  26  54  75
   2024 04 18 13:40  13 33 59.20    -03 04 45.2   0.0107 1.0149 171.4  m  21?   1.61 245.6   56  22  53  75
   2024 04 18 13:50  13 33 58.22    -03 04 51.8   0.0107 1.0149 171.4  m  21?   1.63 246.1   57  17  53  75
   2024 04 18 14:00  13 33 57.22    -03 04 58.3   0.0107 1.0149 171.4  m  21?   1.64 246.6   57  13  53  75
   2024 04 18 14:10  13 33 56.20    -03 05 04.7   0.0107 1.0149 171.4  m  21?   1.65 247.0   58   8  53  75
   2024 04 18 14:20  13 33 55.19    -03 05 11.1   0.0107 1.0149 171.4  m  21?   1.65 247.4   58   3  53  75
   2024 04 18 14:30  13 33 54.16    -03 05 17.4   0.0107 1.0149 171.4  t  21?   1.65 247.6   58 359  53  75
   2024 04 18 14:40  13 33 53.14    -03 05 23.6   0.0107 1.0149 171.4  m  21?   1.65 247.8   58 354  53  75
   2024 04 18 14:50  13 33 52.13    -03 05 29.8   0.0107 1.0149 171.4  m  21?   1.64 247.9   58 349  53  75
   2024 04 18 15:00  13 33 51.12    -03 05 35.9   0.0107 1.0149 171.4  m  21?   1.62 247.9   57 344  53  75
   2024 04 18 15:10  13 33 50.12    -03 05 41.9   0.0107 1.0149 171.4  m  21?   1.60 247.9   57 340  53  75
   2024 04 18 15:20  13 33 49.15    -03 05 47.9   0.0107 1.0149 171.4  m  21?   1.57 247.7   56 335  53  75
   2024 04 18 15:30  13 33 48.19    -03 05 53.8   0.0107 1.0149 171.4  m  21?   1.54 247.5   55 331  53  75
   2024 04 18 15:40  13 33 47.25    -03 05 59.6   0.0107 1.0149 171.4  m  21?   1.50 247.2   54 327  53  75
   2024 04 18 15:50  13 33 46.34    -03 06 05.3   0.0107 1.0149 171.4  m  21?   1.46 246.8   53 324  53  75
   2024 04 18 16:00  13 33 45.46    -03 06 11.0   0.0107 1.0149 171.4  m  21?   1.41 246.3   52 320  53  75
   2024 04 18 16:10  13 33 44.62    -03 06 16.6   0.0107 1.0149 171.4  m  21?   1.36 245.6   50 317  52  75
   2024 04 18 16:20  13 33 43.81    -03 06 22.2   0.0107 1.0149 171.4  m  21?   1.30 244.8   49 313  52  75
   2024 04 18 16:30  13 33 43.04    -03 06 27.7   0.0107 1.0149 171.4  m  21?   1.24 243.8   47 310  52  75
   2024 04 18 16:40  13 33 42.32    -03 06 33.1   0.0107 1.0149 171.4     21?   1.18 242.6   46 308  52  75
   2024 04 18 16:50  13 33 41.64    -03 06 38.4   0.0107 1.0149 171.4     21?   1.11 241.2   44 305  52  76
   2024 04 18 17:00  13 33 41.02    -03 06 43.8   0.0107 1.0149 171.3     21?   1.04 239.4   42 302  52  76
   2024 04 18 17:10  13 33 40.45    -03 06 49.0   0.0107 1.0149 171.3     21?   0.97 237.2   41 300  52  76
   2024 04 18 17:20  13 33 39.94    -03 06 54.2   0.0107 1.0149 171.3     21?   0.89 234.5   39 298  52  76
   2024 04 18 17:30  13 33 39.48    -03 06 59.3   0.0107 1.0149 171.3     21?   0.82 231.1   37 296  52  76
   2024 04 18 17:40  13 33 39.09    -03 07 04.4   0.0107 1.0149 171.3     21?   0.74 226.8   35 293  52  76
   2024 04 18 17:50  13 33 38.76    -03 07 09.5   0.0107 1.0149 171.3     21?   0.67 221.3   33 292  52  76
   2024 04 18 18:00  13 33 38.50    -03 07 14.5   0.0107 1.0149 171.3     21?   0.60 214.3   31 290  52  76
   2024 04 18 18:10  13 33 38.30    -03 07 19.4   0.0107 1.0149 171.3     21?   0.55 205.4   29 288  51  76
   2024 04 18 18:20  13 33 38.18    -03 07 24.4   0.0107 1.0149 171.3     21?   0.51 194.4   27 286  51  76
   2024 04 18 18:30  13 33 38.14    -03 07 29.2   0.0107 1.0149 171.3     21?   0.49 181.7   25 284  51  76
   2024 04 18 18:40  13 33 38.16    -03 07 34.1   0.0107 1.0149 171.3     21?   0.49 168.3   23 283  51  76
   2024 04 18 18:50  13 33 38.27    -03 07 38.9   0.0107 1.0149 171.3     21?   0.53 155.7   21 281  51  76
   2024 04 18 19:00  13 33 38.45    -03 07 43.7   0.0107 1.0149 171.3     21?   0.58 144.8   19 279  51  76
   2024 04 18 19:10  13 33 38.72    -03 07 48.5   0.0107 1.0149 171.3     21?   0.66 136.1   17 278  51  76
   2024 04 18 19:20  13 33 39.06    -03 07 53.2   0.0107 1.0149 171.3     21?   0.75 129.1   15 276  51  76
   2024 04 18 19:30  13 33 39.49    -03 07 57.9   0.0107 1.0149 171.3     21?   0.85 123.7   13 275  51  77
   2024 04 18 19:40  13 33 40.00    -03 08 02.6   0.0107 1.0149 171.3     21?   0.95 119.4   11 274  51  77
   2024 04 18 19:50  13 33 40.60    -03 08 07.3   0.0107 1.0149 171.3 A   21?   1.06 116.0    9 272  50  77
   2024 04 18 20:00  13 33 41.28    -03 08 12.0   0.0107 1.0149 171.3 A   21?   1.18 113.2    7 271  50  77
   2024 04 18 20:10  13 33 42.04    -03 08 16.7   0.0108 1.0149 171.3 A   21?   1.30 111.0    5 269  50  77
   2024 04 18 20:20  13 33 42.90    -03 08 21.3   0.0108 1.0149 171.3 N   21?   1.42 109.1    3 268  50  77
   2024 04 18 20:30  13 33 43.84    -03 08 26.0   0.0108 1.0149 171.3 N   21?   1.54 107.5    1 266  50  77
   ................
   2024 04 19 08:20  13 36 21.91    -03 16 00.5   0.0108 1.0151 171.3 Cr  21?   1.74 117.9    0  93  44  81
   2024 04 19 08:30  13 36 22.89    -03 16 08.7   0.0108 1.0151 171.3 Cm  21?   1.63 120.1    2  92  44  81
   2024 04 19 08:40  13 36 23.79    -03 16 16.9   0.0108 1.0151 171.3 Nm  21?   1.52 122.5    4  91  44  81
   2024 04 19 08:50  13 36 24.60    -03 16 25.1   0.0108 1.0151 171.3 Nm  21?   1.41 125.3    6  89  44  81
   2024 04 19 09:00  13 36 25.33    -03 16 33.3   0.0107 1.0151 171.3 Nm  21?   1.31 128.5    8  88  44  81
   2024 04 19 09:10  13 36 25.97    -03 16 41.5   0.0107 1.0151 171.3 Am  21?   1.21 132.2   10  86  44  81
   2024 04 19 09:20  13 36 26.53    -03 16 49.6   0.0107 1.0151 171.3 Am  21?   1.12 136.5   12  85  44  82
   2024 04 19 09:30  13 36 27.00    -03 16 57.8   0.0107 1.0151 171.3 Am  21?   1.04 141.4   14  83  44  82
   2024 04 19 09:40  13 36 27.40    -03 17 05.9   0.0107 1.0151 171.3  m  21?   0.97 147.0   16  82  44  82
   2024 04 19 09:50  13 36 27.71    -03 17 14.0   0.0107 1.0151 171.3  m  21?   0.90 153.5   18  80  44  82
   2024 04 19 10:00  13 36 27.93    -03 17 22.1   0.0107 1.0151 171.3  m  21?   0.86 160.6   20  79  44  82
   2024 04 19 10:10  13 36 28.08    -03 17 30.2   0.0107 1.0151 171.3  m  21?   0.82 168.3   22  77  43  82
   2024 04 19 10:20  13 36 28.16    -03 17 38.2   0.0107 1.0151 171.3  m  21?   0.80 176.3   24  76  43  82
   2024 04 19 10:30  13 36 28.15    -03 17 46.2   0.0107 1.0151 171.3  m  21?   0.80 184.3   26  74  43  82
   2024 04 19 10:40  13 36 28.07    -03 17 54.2   0.0107 1.0151 171.3  m  21?   0.81 192.1   28  72  43  82
   2024 04 19 10:50  13 36 27.92    -03 18 02.1   0.0107 1.0151 171.3  m  21?   0.84 199.3   30  70  43  82
   2024 04 19 11:00  13 36 27.70    -03 18 10.0   0.0107 1.0151 171.3  m  21?   0.87 205.8   32  69  43  82
   2024 04 19 11:10  13 36 27.42    -03 18 17.8   0.0107 1.0151 171.3  m  21?   0.92 211.6   34  67  43  82
   2024 04 19 11:20  13 36 27.06    -03 18 25.6   0.0107 1.0151 171.3  m  21?   0.97 216.6   36  65  43  82
   2024 04 19 11:30  13 36 26.65    -03 18 33.3   0.0107 1.0151 171.3  m  21?   1.02 220.9   38  62  43  82
   2024 04 19 11:40  13 36 26.17    -03 18 41.0   0.0107 1.0151 171.3  m  21?   1.08 224.6   40  60  43  82
   2024 04 19 11:50  13 36 25.63    -03 18 48.6   0.0107 1.0151 171.3  m  21?   1.13 227.9   42  58  43  82
   2024 04 19 12:00  13 36 25.04    -03 18 56.2   0.0107 1.0151 171.3  m  21?   1.19 230.6   43  55  43  82
   2024 04 19 12:10  13 36 24.40    -03 19 03.7   0.0107 1.0151 171.3  m  21?   1.25 233.0   45  53  43  82
   2024 04 19 12:20  13 36 23.71    -03 19 11.1   0.0107 1.0151 171.3  m  21?   1.30 235.1   47  50  43  82
   2024 04 19 12:30  13 36 22.98    -03 19 18.5   0.0107 1.0151 171.3  m  21?   1.35 237.0   48  47  43  82
   2024 04 19 12:40  13 36 22.20    -03 19 25.8   0.0107 1.0151 171.2  m  21?   1.40 238.5   50  44  43  82
   2024 04 19 12:50  13 36 21.38    -03 19 33.1   0.0107 1.0151 171.2  m  21?   1.44 239.9   51  41  43  82
   2024 04 19 13:00  13 36 20.53    -03 19 40.2   0.0107 1.0151 171.2  m  21?   1.48 241.1   52  37  43  82
   2024 04 19 13:10  13 36 19.65    -03 19 47.3   0.0107 1.0151 171.2  m  21?   1.52 242.2   54  34  43  82
   2024 04 19 13:20  13 36 18.74    -03 19 54.4   0.0107 1.0151 171.2  m  21?   1.55 243.1   55  30  42  82
   2024 04 19 13:30  13 36 17.80    -03 20 01.3   0.0107 1.0151 171.2  m  21?   1.58 243.9   56  26  42  82
   2024 04 19 13:40  13 36 16.84    -03 20 08.2   0.0107 1.0151 171.2  m  21?   1.60 244.6   57  21  42  82
   2024 04 19 13:50  13 36 15.87    -03 20 15.0   0.0107 1.0151 171.2  m  21?   1.62 245.2   57  17  42  82
   2024 04 19 14:00  13 36 14.88    -03 20 21.7   0.0107 1.0151 171.2  m  21?   1.63 245.7   58  12  42  82
   2024 04 19 14:10  13 36 13.88    -03 20 28.4   0.0107 1.0151 171.2  m  21?   1.64 246.1   58   7  42  82
   2024 04 19 14:20  13 36 12.87    -03 20 35.0   0.0107 1.0151 171.2  m  21?   1.64 246.4   58   3  42  82
   2024 04 19 14:30  13 36 11.86    -03 20 41.5   0.0107 1.0151 171.2  t  21?   1.64 246.7   58 358  42  83
   2024 04 19 14:40  13 36 10.86    -03 20 47.9   0.0107 1.0151 171.2  m  21?   1.63 246.9   58 353  42  83
   2024 04 19 14:50  13 36 09.86    -03 20 54.3   0.0107 1.0151 171.2  m  21?   1.62 247.0   58 348  42  83
   2024 04 19 15:00  13 36 08.86    -03 21 00.5   0.0107 1.0151 171.2  m  21?   1.60 247.0   57 344  42  83
   2024 04 19 15:10  13 36 07.88    -03 21 06.7   0.0107 1.0151 171.2  m  21?   1.58 247.0   57 339  42  83
   2024 04 19 15:20  13 36 06.92    -03 21 12.9   0.0107 1.0151 171.2  m  21?   1.55 246.8   56 335  42  83
   2024 04 19 15:30  13 36 05.98    -03 21 18.9   0.0107 1.0151 171.2  m  21?   1.52 246.6   55 330  42  83
   2024 04 19 15:40  13 36 05.06    -03 21 24.9   0.0107 1.0151 171.2  m  21?   1.48 246.3   54 327  42  83
   2024 04 19 15:50  13 36 04.17    -03 21 30.8   0.0107 1.0152 171.2  m  21?   1.44 245.8   53 323  42  83
   2024 04 19 16:00  13 36 03.31    -03 21 36.6   0.0107 1.0152 171.2  m  21?   1.39 245.3   52 319  41  83
   2024 04 19 16:10  13 36 02.48    -03 21 42.4   0.0107 1.0152 171.1  m  21?   1.34 244.6   50 316  41  83
   2024 04 19 16:20  13 36 01.70    -03 21 48.0   0.0107 1.0152 171.1  m  21?   1.28 243.7   49 313  41  83
   2024 04 19 16:30  13 36 00.95    -03 21 53.7   0.0107 1.0152 171.1  m  21?   1.22 242.6   47 310  41  83
   2024 04 19 16:40  13 36 00.25    -03 21 59.2   0.0107 1.0152 171.1  m  21?   1.16 241.4   46 307  41  83
   2024 04 19 16:50  13 35 59.60    -03 22 04.7   0.0107 1.0152 171.1  m  21?   1.09 239.8   44 304  41  83
   2024 04 19 17:00  13 35 58.99    -03 22 10.1   0.0107 1.0152 171.1  m  21?   1.02 237.9   42 302  41  83
   2024 04 19 17:10  13 35 58.45    -03 22 15.5   0.0107 1.0152 171.1  m  21?   0.94 235.5   40 299  41  83
   2024 04 19 17:20  13 35 57.95    -03 22 20.8   0.0107 1.0152 171.1  m  21?   0.87 232.5   39 297  41  83
   2024 04 19 17:30  13 35 57.52    -03 22 26.0   0.0107 1.0152 171.1     21?   0.80 228.9   37 295  41  83
   2024 04 19 17:40  13 35 57.15    -03 22 31.2   0.0107 1.0152 171.1     21?   0.72 224.2   35 293  41  83
   2024 04 19 17:50  13 35 56.85    -03 22 36.4   0.0107 1.0152 171.1     21?   0.65 218.3   33 291  41  83
   2024 04 19 18:00  13 35 56.61    -03 22 41.5   0.0107 1.0152 171.1     21?   0.59 210.7   31 289  41  83
   2024 04 19 18:10  13 35 56.44    -03 22 46.5   0.0107 1.0152 171.1     21?   0.54 201.3   29 287  40  83
   2024 04 19 18:20  13 35 56.35    -03 22 51.5   0.0107 1.0152 171.1     21?   0.51 189.9   27 286  40  84
   2024 04 19 18:30  13 35 56.33    -03 22 56.5   0.0107 1.0152 171.1     21?   0.50 177.1   25 284  40  84
   2024 04 19 18:40  13 35 56.38    -03 23 01.4   0.0107 1.0152 171.1     21?   0.51 164.2   23 282  40  84
   2024 04 19 18:50  13 35 56.51    -03 23 06.3   0.0107 1.0152 171.1     21?   0.55 152.3   21 281  40  84
   2024 04 19 19:00  13 35 56.72    -03 23 11.2   0.0107 1.0152 171.1     21?   0.61 142.2   19 279  40  84
   2024 04 19 19:10  13 35 57.01    -03 23 16.0   0.0107 1.0152 171.1     21?   0.69 134.1   17 277  40  84
   2024 04 19 19:20  13 35 57.39    -03 23 20.9   0.0107 1.0152 171.1     21?   0.78 127.7   15 276  40  84
   2024 04 19 19:30  13 35 57.84    -03 23 25.7   0.0107 1.0152 171.1     21?   0.88 122.6   13 275  40  84
   2024 04 19 19:40  13 35 58.38    -03 23 30.4   0.0107 1.0152 171.1     21?   0.99 118.6   11 273  40  84
   2024 04 19 19:50  13 35 59.01    -03 23 35.2   0.0107 1.0152 171.1 A   21?   1.10 115.4    9 272  40  84
   2024 04 19 20:00  13 35 59.71    -03 23 39.9   0.0107 1.0152 171.1 A   21?   1.22 112.8    7 270  39  84
   2024 04 19 20:10  13 36 00.51    -03 23 44.7   0.0108 1.0152 171.1 A   21?   1.34 110.6    5 269  39  84
   2024 04 19 20:20  13 36 01.39    -03 23 49.4   0.0108 1.0152 171.1 N   21?   1.46 108.8    3 267  39  84
   2024 04 19 20:30  13 36 02.35    -03 23 54.2   0.0108 1.0152 171.1 N   21?   1.58 107.3    1 266  39  84
   ................
   2024 04 20 08:20  13 38 41.44    -03 31 43.6   0.0108 1.0153 171.1 Cr  21?   1.76 118.9    0  93  33  88
   2024 04 20 08:30  13 38 42.42    -03 31 52.1   0.0108 1.0153 171.1 Cm  21?   1.65 121.1    2  92  33  88
   2024 04 20 08:40  13 38 43.32    -03 32 00.7   0.0108 1.0153 171.1 Nm  21?   1.54 123.5    4  91  33  88
   2024 04 20 08:50  13 38 44.13    -03 32 09.2   0.0107 1.0153 171.1 Nm  21?   1.43 126.4    7  89  33  88
   2024 04 20 09:00  13 38 44.86    -03 32 17.7   0.0107 1.0153 171.1 Nm  21?   1.33 129.6    9  88  33  88
   2024 04 20 09:10  13 38 45.50    -03 32 26.2   0.0107 1.0153 171.1 Am  21?   1.24 133.3   11  86  33  88
   2024 04 20 09:20  13 38 46.06    -03 32 34.7   0.0107 1.0153 171.1 Am  21?   1.15 137.6   13  85  33  88
   2024 04 20 09:30  13 38 46.54    -03 32 43.2   0.0107 1.0153 171.1 Am  21?   1.07 142.5   15  83  33  88
   2024 04 20 09:40  13 38 46.93    -03 32 51.6   0.0107 1.0153 171.1  m  21?   0.99 148.1   17  82  33  88
   2024 04 20 09:50  13 38 47.24    -03 33 00.1   0.0107 1.0153 171.1  m  21?   0.93 154.3   19  80  32  88
   2024 04 20 10:00  13 38 47.47    -03 33 08.5   0.0107 1.0153 171.1  m  21?   0.89 161.2   21  79  32  88
   2024 04 20 10:10  13 38 47.62    -03 33 16.8   0.0107 1.0154 171.1  m  21?   0.85 168.6   23  77  32  88
   2024 04 20 10:20  13 38 47.69    -03 33 25.2   0.0107 1.0154 171.1  m  21?   0.83 176.3   25  76  32  88
   2024 04 20 10:30  13 38 47.69    -03 33 33.5   0.0107 1.0154 171.1  m  21?   0.83 184.0   27  74  32  88
   2024 04 20 10:40  13 38 47.61    -03 33 41.8   0.0107 1.0154 171.1  m  21?   0.84 191.5   29  72  32  88
   2024 04 20 10:50  13 38 47.46    -03 33 50.0   0.0107 1.0154 171.1  m  21?   0.86 198.5   31  70  32  88
   2024 04 20 11:00  13 38 47.24    -03 33 58.1   0.0107 1.0154 171.1  m  21?   0.90 204.8   33  68  32  88
   2024 04 20 11:10  13 38 46.96    -03 34 06.3   0.0107 1.0154 171.1  m  21?   0.94 210.4   35  67  32  89
   2024 04 20 11:20  13 38 46.60    -03 34 14.3   0.0107 1.0154 171.1  m  21?   0.99 215.4   37  64  32  89
   2024 04 20 11:30  13 38 46.19    -03 34 22.4   0.0107 1.0154 171.1  m  21?   1.04 219.7   38  62  32  89
   2024 04 20 11:40  13 38 45.72    -03 34 30.3   0.0107 1.0154 171.1  m  21?   1.09 223.4   40  60  32  89
   2024 04 20 11:50  13 38 45.19    -03 34 38.2   0.0107 1.0154 171.1  m  21?   1.15 226.6   42  58  32  89
   2024 04 20 12:00  13 38 44.60    -03 34 46.0   0.0107 1.0154 171.1  m  21?   1.20 229.4   44  55  32  89
   2024 04 20 12:10  13 38 43.97    -03 34 53.8   0.0107 1.0154 171.0  m  21?   1.26 231.9   45  53  32  89
   2024 04 20 12:20  13 38 43.28    -03 35 01.5   0.0107 1.0154 171.0  m  21?   1.31 234.0   47  50  32  89
   2024 04 20 12:30  13 38 42.55    -03 35 09.1   0.0107 1.0154 171.0  m  21?   1.36 235.9   49  47  32  89
   2024 04 20 12:40  13 38 41.78    -03 35 16.7   0.0107 1.0154 171.0  m  21?   1.40 237.5   50  44  32  89
   2024 04 20 12:50  13 38 40.97    -03 35 24.2   0.0107 1.0154 171.0  m  21?   1.45 238.9   52  40  32  89
   2024 04 20 13:00  13 38 40.13    -03 35 31.6   0.0107 1.0154 171.0  m  21?   1.48 240.1   53  37  31  89
   2024 04 20 13:10  13 38 39.25    -03 35 38.9   0.0107 1.0154 171.0  m  21?   1.52 241.2   54  33  31  89
   2024 04 20 13:20  13 38 38.35    -03 35 46.2   0.0107 1.0154 171.0  m  21?   1.55 242.2   55  29  31  89
   2024 04 20 13:30  13 38 37.42    -03 35 53.4   0.0107 1.0154 171.0  m  21?   1.58 243.0   56  25  31  89
   2024 04 20 13:40  13 38 36.47    -03 36 00.5   0.0107 1.0154 171.0  m  21?   1.60 243.7   57  21  31  89
   2024 04 20 13:50  13 38 35.50    -03 36 07.5   0.0107 1.0154 171.0  m  21?   1.61 244.3   58  16  31  89
   2024 04 20 14:00  13 38 34.52    -03 36 14.4   0.0107 1.0154 171.0  m  21?   1.63 244.8   58  12  31  89
   2024 04 20 14:10  13 38 33.54    -03 36 21.3   0.0107 1.0154 171.0  m  21?   1.63 245.2   58   7  31  89
   2024 04 20 14:20  13 38 32.54    -03 36 28.0   0.0107 1.0154 171.0  m  21?   1.63 245.6   59   2  31  89
   2024 04 20 14:30  13 38 31.55    -03 36 34.7   0.0107 1.0154 171.0  t  21?   1.63 245.9   59 357  31  89
   2024 04 20 14:40  13 38 30.55    -03 36 41.3   0.0107 1.0154 171.0  m  21?   1.62 246.0   58 352  31  89
   2024 04 20 14:50  13 38 29.57    -03 36 47.9   0.0107 1.0154 171.0  m  21?   1.61 246.1   58 347  31  89
   2024 04 20 15:00  13 38 28.59    -03 36 54.3   0.0107 1.0154 171.0  m  21?   1.59 246.2   58 343  31  89
   2024 04 20 15:10  13 38 27.62    -03 37 00.7   0.0107 1.0154 171.0  m  21?   1.57 246.1   57 338  31  89
   2024 04 20 15:20  13 38 26.68    -03 37 06.9   0.0107 1.0154 171.0  m  21?   1.54 246.0   56 334  31  89
   2024 04 20 15:30  13 38 25.75    -03 37 13.1   0.0107 1.0154 171.0  m  21?   1.50 245.7   55 330  31  89
   2024 04 20 15:40  13 38 24.85    -03 37 19.2   0.0107 1.0154 170.9  m  21?   1.46 245.4   54 326  31  89
   2024 04 20 15:50  13 38 23.97    -03 37 25.3   0.0107 1.0154 170.9  m  21?   1.42 244.9   53 322  30  89
   2024 04 20 16:00  13 38 23.13    -03 37 31.2   0.0107 1.0154 170.9  m  21?   1.37 244.3   52 318  30  89
   2024 04 20 16:10  13 38 22.32    -03 37 37.1   0.0107 1.0154 170.9  m  21?   1.32 243.6   50 315  30  89
   2024 04 20 16:20  13 38 21.55    -03 37 42.9   0.0107 1.0154 170.9  m  21?   1.26 242.6   49 312  30  89
   2024 04 20 16:30  13 38 20.83    -03 37 48.6   0.0107 1.0154 170.9  m  21?   1.20 241.5   47 309  30  89
   2024 04 20 16:40  13 38 20.15    -03 37 54.3   0.0107 1.0154 170.9  m  21?   1.13 240.1   45 306  30  89
   2024 04 20 16:50  13 38 19.51    -03 37 59.9   0.0107 1.0154 170.9  m  21?   1.07 238.5   44 304  30  89
   2024 04 20 17:00  13 38 18.93    -03 38 05.4   0.0107 1.0154 170.9  m  21?   1.00 236.4   42 301  30  89
   2024 04 20 17:10  13 38 18.41    -03 38 10.9   0.0107 1.0154 170.9  m  21?   0.92 233.9   40 299  30  90
   2024 04 20 17:20  13 38 17.94    -03 38 16.3   0.0107 1.0154 170.9  m  21?   0.85 230.7   38 297  30  90
   2024 04 20 17:30  13 38 17.53    -03 38 21.6   0.0107 1.0154 170.9  m  21?   0.78 226.7   37 294  30  90
   2024 04 20 17:40  13 38 17.18    -03 38 26.9   0.0107 1.0154 170.9  m  21?   0.70 221.7   35 292  30  90
   2024 04 20 17:50  13 38 16.90    -03 38 32.1   0.0107 1.0154 170.9  m  21?   0.64 215.4   33 290  30  90
   2024 04 20 18:00  13 38 16.69    -03 38 37.3   0.0107 1.0154 170.9  m  21?   0.58 207.3   31 289  30  90
   2024 04 20 18:10  13 38 16.54    -03 38 42.4   0.0107 1.0154 170.9  m  21?   0.53 197.4   29 287  30  90
   2024 04 20 18:20  13 38 16.47    -03 38 47.5   0.0107 1.0154 170.9  m  21?   0.51 185.7   27 285  29  90
   2024 04 20 18:30  13 38 16.48    -03 38 52.5   0.0107 1.0154 170.9     21?   0.51 173.0   25 283  29  90
   2024 04 20 18:40  13 38 16.55    -03 38 57.5   0.0107 1.0154 170.9     21?   0.53 160.4   23 282  29  90
   2024 04 20 18:50  13 38 16.71    -03 39 02.5   0.0107 1.0154 170.9     21?   0.57 149.2   21 280  29  90
   2024 04 20 19:00  13 38 16.95    -03 39 07.4   0.0107 1.0154 170.9     21?   0.64 139.8   19 279  29  90
   2024 04 20 19:10  13 38 17.26    -03 39 12.3   0.0107 1.0154 170.9     21?   0.72 132.3   17 277  29  90
   2024 04 20 19:20  13 38 17.66    -03 39 17.2   0.0107 1.0155 170.9     21?   0.82 126.3   15 276  29  90
   2024 04 20 19:30  13 38 18.14    -03 39 22.0   0.0107 1.0155 170.9     21?   0.92 121.6   13 274  29  90
   2024 04 20 19:40  13 38 18.71    -03 39 26.9   0.0107 1.0155 170.8     21?   1.03 117.8   11 273  29  90
   2024 04 20 19:50  13 38 19.36    -03 39 31.7   0.0107 1.0155 170.8 A   21?   1.14 114.8    9 271  29  90
   2024 04 20 20:00  13 38 20.09    -03 39 36.5   0.0107 1.0155 170.8 A   21?   1.26 112.3    7 270  29  90
   2024 04 20 20:10  13 38 20.91    -03 39 41.3   0.0107 1.0155 170.8 A   21?   1.38 110.2    4 268  28  90
   2024 04 20 20:20  13 38 21.82    -03 39 46.1   0.0108 1.0155 170.8 N   21?   1.50 108.5    2 267  28  90
   2024 04 20 20:30  13 38 22.81    -03 39 50.9   0.0108 1.0155 170.8 N   21?   1.62 107.1    0 265  28  90
   ................
   2024 04 21 08:20  13 41 02.86    -03 47 54.3   0.0107 1.0156 170.9 Cm  21?   1.77 119.8    1  93  22  93
   2024 04 21 08:30  13 41 03.84    -03 48 03.2   0.0107 1.0156 170.9 Cm  21?   1.66 122.1    3  92  22  93
   2024 04 21 08:40  13 41 04.74    -03 48 12.0   0.0107 1.0156 170.9 Nm  21?   1.56 124.6    5  91  22  93
   2024 04 21 08:50  13 41 05.55    -03 48 20.9   0.0107 1.0156 170.9 Nm  21?   1.45 127.4    7  89  22  93
   2024 04 21 09:00  13 41 06.28    -03 48 29.7   0.0107 1.0156 170.9 Nm  21?   1.35 130.7    9  88  22  93
   2024 04 21 09:10  13 41 06.92    -03 48 38.5   0.0107 1.0156 170.9 Am  21?   1.26 134.4   11  86  22  93
   2024 04 21 09:20  13 41 07.48    -03 48 47.3   0.0107 1.0156 170.9 Am  21?   1.17 138.7   13  85  22  94
   2024 04 21 09:30  13 41 07.95    -03 48 56.1   0.0107 1.0156 170.9 Am  21?   1.09 143.5   15  83  22  94
   2024 04 21 09:40  13 41 08.34    -03 49 04.9   0.0107 1.0156 170.9  m  21?   1.02 149.0   17  82  22  94
   2024 04 21 09:50  13 41 08.65    -03 49 13.6   0.0107 1.0156 170.9  m  21?   0.96 155.2   19  80  22  94
   2024 04 21 10:00  13 41 08.88    -03 49 22.4   0.0107 1.0156 170.9  m  21?   0.91 161.9   21  79  21  94
   2024 04 21 10:10  13 41 09.03    -03 49 31.0   0.0107 1.0156 170.9  m  21?   0.88 169.0   23  77  21  94
   2024 04 21 10:20  13 41 09.10    -03 49 39.7   0.0107 1.0156 170.9  m  21?   0.86 176.4   25  76  21  94
   2024 04 21 10:30  13 41 09.10    -03 49 48.3   0.0107 1.0156 170.9  m  21?   0.86 183.9   27  74  21  94
   2024 04 21 10:40  13 41 09.02    -03 49 56.8   0.0107 1.0156 170.9  m  21?   0.87 191.1   29  72  21  94
   2024 04 21 10:50  13 41 08.87    -03 50 05.3   0.0107 1.0156 170.9  m  21?   0.89 197.8   31  70  21  94
   2024 04 21 11:00  13 41 08.66    -03 50 13.8   0.0107 1.0156 170.9  m  21?   0.92 204.0   33  68  21  94
   2024 04 21 11:10  13 41 08.37    -03 50 22.2   0.0107 1.0156 170.9  m  21?   0.96 209.5   35  66  21  94
   2024 04 21 11:20  13 41 08.02    -03 50 30.6   0.0107 1.0156 170.9  m  21?   1.01 214.3   37  64  21  94
   2024 04 21 11:30  13 41 07.61    -03 50 38.8   0.0107 1.0156 170.9  m  21?   1.06 218.6   39  62  21  94
   2024 04 21 11:40  13 41 07.14    -03 50 47.1   0.0107 1.0156 170.9  m  21?   1.11 222.3   41  60  21  94
   2024 04 21 11:50  13 41 06.61    -03 50 55.2   0.0107 1.0156 170.8  m  21?   1.16 225.5   43  58  21  94
   2024 04 21 12:00  13 41 06.03    -03 51 03.3   0.0107 1.0156 170.8  m  21?   1.22 228.4   44  55  21  94
   2024 04 21 12:10  13 41 05.40    -03 51 11.3   0.0107 1.0156 170.8  m  21?   1.27 230.8   46  52  21  94
   2024 04 21 12:20  13 41 04.72    -03 51 19.3   0.0107 1.0156 170.8  m  21?   1.32 233.0   48  50  21  94
   2024 04 21 12:30  13 41 03.99    -03 51 27.2   0.0107 1.0156 170.8  m  21?   1.36 234.8   49  47  21  94
   2024 04 21 12:40  13 41 03.23    -03 51 35.0   0.0107 1.0156 170.8  m  21?   1.41 236.5   51  44  21  94
   2024 04 21 12:50  13 41 02.42    -03 51 42.7   0.0107 1.0156 170.8  m  21?   1.45 237.9   52  40  21  94
   2024 04 21 13:00  13 41 01.58    -03 51 50.3   0.0107 1.0156 170.8  m  21?   1.49 239.2   53  37  21  94
   2024 04 21 13:10  13 41 00.71    -03 51 57.9   0.0107 1.0156 170.8  m  21?   1.52 240.3   54  33  20  94
   2024 04 21 13:20  13 40 59.82    -03 52 05.3   0.0107 1.0156 170.8  m  21?   1.55 241.3   56  29  20  94
   2024 04 21 13:30  13 40 58.90    -03 52 12.7   0.0107 1.0156 170.8  m  21?   1.57 242.1   57  25  20  94
   2024 04 21 13:40  13 40 57.95    -03 52 20.0   0.0107 1.0156 170.8  m  21?   1.60 242.9   57  20  20  94
   2024 04 21 13:50  13 40 57.00    -03 52 27.2   0.0107 1.0157 170.8  m  21?   1.61 243.5   58  16  20  94
   2024 04 21 14:00  13 40 56.03    -03 52 34.3   0.0107 1.0157 170.8  m  21?   1.62 244.0   58  11  20  94
   2024 04 21 14:10  13 40 55.05    -03 52 41.4   0.0107 1.0157 170.8  m  21?   1.63 244.5   59   6  20  94
   2024 04 21 14:20  13 40 54.07    -03 52 48.3   0.0107 1.0157 170.8  m  21?   1.63 244.8   59   1  20  94
   2024 04 21 14:30  13 40 53.08    -03 52 55.2   0.0107 1.0157 170.8  t  21?   1.62 245.1   59 356  20  94
   2024 04 21 14:40  13 40 52.10    -03 53 01.9   0.0107 1.0157 170.8  m  21?   1.61 245.3   59 351  20  94
   2024 04 21 14:50  13 40 51.13    -03 53 08.6   0.0107 1.0157 170.8  m  21?   1.60 245.4   58 346  20  94
   2024 04 21 15:00  13 40 50.16    -03 53 15.2   0.0107 1.0157 170.8  m  21?   1.58 245.4   58 342  20  94
   2024 04 21 15:10  13 40 49.21    -03 53 21.7   0.0107 1.0157 170.8  m  21?   1.55 245.3   57 337  20  94
   2024 04 21 15:20  13 40 48.28    -03 53 28.1   0.0107 1.0157 170.7  m  21?   1.52 245.2   56 333  20  94
   2024 04 21 15:30  13 40 47.36    -03 53 34.4   0.0107 1.0157 170.7  m  21?   1.49 244.9   55 329  20  94
   2024 04 21 15:40  13 40 46.48    -03 53 40.6   0.0107 1.0157 170.7  m  21?   1.45 244.5   54 325  20  94
   2024 04 21 15:50  13 40 45.62    -03 53 46.8   0.0107 1.0157 170.7  m  21?   1.40 244.0   53 321  20  94
   2024 04 21 16:00  13 40 44.79    -03 53 52.9   0.0107 1.0157 170.7  m  21?   1.35 243.4   52 318  20  94
   2024 04 21 16:10  13 40 44.00    -03 53 58.9   0.0107 1.0157 170.7  m  21?   1.30 242.6   50 314  20  94
   2024 04 21 16:20  13 40 43.25    -03 54 04.8   0.0107 1.0157 170.7  m  21?   1.24 241.7   49 311  19  94
   2024 04 21 16:30  13 40 42.54    -03 54 10.6   0.0107 1.0157 170.7  m  21?   1.18 240.5   47 308  19  94
   2024 04 21 16:40  13 40 41.88    -03 54 16.3   0.0107 1.0157 170.7  m  21?   1.11 239.0   45 306  19  94
   2024 04 21 16:50  13 40 41.27    -03 54 22.0   0.0107 1.0157 170.7  m  21?   1.05 237.2   44 303  19  94
   2024 04 21 17:00  13 40 40.70    -03 54 27.6   0.0107 1.0157 170.7  m  21?   0.98 235.0   42 300  19  94
   2024 04 21 17:10  13 40 40.20    -03 54 33.2   0.0107 1.0157 170.7  m  21?   0.90 232.3   40 298  19  94
   2024 04 21 17:20  13 40 39.75    -03 54 38.6   0.0107 1.0157 170.7  m  21?   0.83 229.0   38 296  19  94
   2024 04 21 17:30  13 40 39.36    -03 54 44.0   0.0107 1.0157 170.7  m  21?   0.76 224.7   36 294  19  95
   2024 04 21 17:40  13 40 39.04    -03 54 49.4   0.0107 1.0157 170.7  m  21?   0.69 219.4   35 292  19  95
   2024 04 21 17:50  13 40 38.78    -03 54 54.7   0.0107 1.0157 170.7  m  21?   0.62 212.6   33 290  19  95
   2024 04 21 18:00  13 40 38.59    -03 54 59.9   0.0107 1.0157 170.7  m  21?   0.57 204.1   31 288  19  95
   2024 04 21 18:10  13 40 38.46    -03 55 05.1   0.0107 1.0157 170.7  m  21?   0.53 193.7   29 286  19  95
   2024 04 21 18:20  13 40 38.42    -03 55 10.2   0.0107 1.0157 170.7  m  21?   0.51 181.8   27 284  19  95
   2024 04 21 18:30  13 40 38.44    -03 55 15.3   0.0107 1.0157 170.7  m  21?   0.52 169.2   25 283  19  95
   2024 04 21 18:40  13 40 38.55    -03 55 20.4   0.0107 1.0157 170.7  m  21?   0.55 157.1   23 281  19  95
   2024 04 21 18:50  13 40 38.73    -03 55 25.4   0.0107 1.0157 170.6  m  21?   0.60 146.5   21 280  18  95
   2024 04 21 19:00  13 40 38.99    -03 55 30.3   0.0107 1.0157 170.6  m  21?   0.67 137.7   19 278  18  95
   2024 04 21 19:10  13 40 39.33    -03 55 35.3   0.0107 1.0157 170.6  m  21?   0.75 130.7   17 277  18  95
   2024 04 21 19:20  13 40 39.75    -03 55 40.2   0.0107 1.0157 170.6     21?   0.85 125.1   15 275  18  95
   2024 04 21 19:30  13 40 40.26    -03 55 45.1   0.0107 1.0157 170.6     21?   0.95 120.6   13 274  18  95
   2024 04 21 19:40  13 40 40.85    -03 55 49.9   0.0107 1.0157 170.6     21?   1.06 117.1   10 272  18  95
   2024 04 21 19:50  13 40 41.52    -03 55 54.8   0.0107 1.0157 170.6 A   21?   1.18 114.2    8 271  18  95
   2024 04 21 20:00  13 40 42.28    -03 55 59.6   0.0107 1.0157 170.6 A   21?   1.30 111.8    6 269  18  95
   2024 04 21 20:10  13 40 43.13    -03 56 04.5   0.0107 1.0157 170.6 A   21?   1.42 109.9    4 268  18  95
   2024 04 21 20:20  13 40 44.06    -03 56 09.3   0.0107 1.0157 170.6 N   21?   1.54 108.2    2 266  18  95
   2024 04 21 20:30  13 40 45.08    -03 56 14.1   0.0107 1.0157 170.6 N   21?   1.66 106.8    0 265  18  95
   ................
   2024 04 22 08:20  13 43 26.02    -04 04 30.6   0.0107 1.0159 170.7 Cm  21?   1.79 120.8    1  93  12  97
   2024 04 22 08:30  13 43 27.00    -04 04 39.8   0.0107 1.0159 170.7 Cm  21?   1.68 123.0    3  92  12  97
   2024 04 22 08:40  13 43 27.90    -04 04 49.0   0.0107 1.0159 170.7 Nm  21?   1.57 125.6    5  91  12  97
   2024 04 22 08:50  13 43 28.71    -04 04 58.1   0.0107 1.0159 170.7 Nm  21?   1.47 128.5    7  89  11  97
   2024 04 22 09:00  13 43 29.43    -04 05 07.3   0.0107 1.0159 170.7 Nm  21?   1.37 131.8   10  88  11  97
   2024 04 22 09:10  13 43 30.07    -04 05 16.4   0.0107 1.0159 170.7 Am  21?   1.28 135.5   12  86  11  97
   2024 04 22 09:20  13 43 30.63    -04 05 25.5   0.0107 1.0159 170.7 Am  21?   1.19 139.8   14  85  11  97
   2024 04 22 09:30  13 43 31.10    -04 05 34.6   0.0107 1.0159 170.7 Am  21?   1.11 144.6   16  83  11  97
   2024 04 22 09:40  13 43 31.49    -04 05 43.7   0.0107 1.0159 170.7  m  21?   1.04 150.0   18  82  11  97
   2024 04 22 09:50  13 43 31.79    -04 05 52.7   0.0107 1.0159 170.7  m  21?   0.99 156.0   20  80  11  97
   2024 04 22 10:00  13 43 32.02    -04 06 01.7   0.0107 1.0159 170.7  m  21?   0.94 162.5   22  79  11  97
   2024 04 22 10:10  13 43 32.17    -04 06 10.7   0.0107 1.0159 170.7  m  21?   0.91 169.5   24  77  11  97
   2024 04 22 10:20  13 43 32.24    -04 06 19.6   0.0107 1.0159 170.7  m  21?   0.89 176.7   26  76  11  97
   2024 04 22 10:30  13 43 32.24    -04 06 28.5   0.0107 1.0159 170.7  m  21?   0.89 183.8   28  74  11  97
   2024 04 22 10:40  13 43 32.16    -04 06 37.4   0.0107 1.0159 170.7  m  21?   0.90 190.8   30  72  11  97
   2024 04 22 10:50  13 43 32.01    -04 06 46.1   0.0107 1.0159 170.7  m  21?   0.92 197.3   32  70  11  97
   2024 04 22 11:00  13 43 31.80    -04 06 54.9   0.0107 1.0159 170.7  m  21?   0.95 203.3   34  68  11  97
   2024 04 22 11:10  13 43 31.51    -04 07 03.5   0.0107 1.0159 170.7  m  21?   0.99 208.7   36  66  11  97
   2024 04 22 11:20  13 43 31.16    -04 07 12.2   0.0107 1.0159 170.7  m  21?   1.03 213.5   38  64  11  97
   2024 04 22 11:30  13 43 30.75    -04 07 20.7   0.0107 1.0159 170.7  m  21?   1.08 217.7   39  62  11  97
   2024 04 22 11:40  13 43 30.28    -04 07 29.2   0.0107 1.0159 170.6  m  21?   1.13 221.4   41  60  11  97
   2024 04 22 11:50  13 43 29.75    -04 07 37.6   0.0107 1.0159 170.6  m  21?   1.18 224.6   43  58  11  97
   2024 04 22 12:00  13 43 29.17    -04 07 45.9   0.0107 1.0159 170.6  m  21?   1.23 227.4   45  55  11  97
   2024 04 22 12:10  13 43 28.54    -04 07 54.2   0.0107 1.0159 170.6  m  21?   1.28 229.9   46  52  11  97
   2024 04 22 12:20  13 43 27.87    -04 08 02.4   0.0107 1.0159 170.6  m  21?   1.33 232.1   48  49  10  97
   2024 04 22 12:30  13 43 27.14    -04 08 10.5   0.0107 1.0159 170.6  m  21?   1.37 234.0   50  46  10  98
   2024 04 22 12:40  13 43 26.38    -04 08 18.5   0.0107 1.0159 170.6  m  21?   1.42 235.6   51  43  10  98
   2024 04 22 12:50  13 43 25.58    -04 08 26.4   0.0107 1.0159 170.6  m  21?   1.46 237.1   52  40  10  98
   2024 04 22 13:00  13 43 24.75    -04 08 34.2   0.0107 1.0159 170.6  m  21?   1.49 238.4   54  36  10  98
   2024 04 22 13:10  13 43 23.88    -04 08 42.0   0.0107 1.0159 170.6  m  21?   1.52 239.5   55  32  10  98
   2024 04 22 13:20  13 43 22.99    -04 08 49.7   0.0107 1.0159 170.6  m  21?   1.55 240.5   56  28  10  98
   2024 04 22 13:30  13 43 22.08    -04 08 57.2   0.0107 1.0159 170.6  m  21?   1.57 241.3   57  24  10  98
   2024 04 22 13:40  13 43 21.14    -04 09 04.7   0.0107 1.0159 170.6  m  21?   1.59 242.1   58  20  10  98
   2024 04 22 13:50  13 43 20.19    -04 09 12.1   0.0107 1.0159 170.6  m  21?   1.61 242.7   58  15  10  98
   2024 04 22 14:00  13 43 19.23    -04 09 19.4   0.0107 1.0159 170.6  m  21?   1.62 243.3   59  10  10  98
   2024 04 22 14:10  13 43 18.26    -04 09 26.6   0.0107 1.0159 170.6  m  21?   1.62 243.7   59   5  10  98
   2024 04 22 14:20  13 43 17.29    -04 09 33.7   0.0107 1.0159 170.6  m  21?   1.62 244.1   59   0  10  98
   2024 04 22 14:30  13 43 16.31    -04 09 40.7   0.0107 1.0159 170.6  t  21?   1.61 244.4   59 355  10  98
   2024 04 22 14:40  13 43 15.34    -04 09 47.6   0.0107 1.0159 170.6  m  21?   1.60 244.6   59 350  10  98
   2024 04 22 14:50  13 43 14.38    -04 09 54.4   0.0107 1.0159 170.6  m  21?   1.59 244.7   59 346  10  98
   2024 04 22 15:00  13 43 13.42    -04 10 01.1   0.0107 1.0159 170.6  m  21?   1.57 244.7   58 341  10  98
   2024 04 22 15:10  13 43 12.48    -04 10 07.7   0.0107 1.0159 170.5  m  21?   1.54 244.6   57 336  10  98
   2024 04 22 15:20  13 43 11.56    -04 10 14.3   0.0107 1.0159 170.5  m  21?   1.51 244.4   56 332  10  98
   2024 04 22 15:30  13 43 10.66    -04 10 20.7   0.0107 1.0159 170.5  m  21?   1.47 244.2   55 328  10  98
   2024 04 22 15:40  13 43 09.79    -04 10 27.0   0.0107 1.0159 170.5  m  21?   1.43 243.8   54 324  10  98
   2024 04 22 15:50  13 43 08.95    -04 10 33.3   0.0107 1.0159 170.5  m  21?   1.39 243.3   53 320  10  98
   2024 04 22 16:00  13 43 08.14    -04 10 39.5   0.0107 1.0159 170.5  m  21?   1.34 242.6   52 317  10  98
   2024 04 22 16:10  13 43 07.36    -04 10 45.5   0.0107 1.0159 170.5  m  21?   1.28 241.8   50 314  10  98
   2024 04 22 16:20  13 43 06.63    -04 10 51.5   0.0107 1.0159 170.5  m  21?   1.22 240.8   49 311  10  98
   2024 04 22 16:30  13 43 05.93    -04 10 57.4   0.0107 1.0159 170.5  m  21?   1.16 239.5   47 308  10  98
   2024 04 22 16:40  13 43 05.29    -04 11 03.3   0.0107 1.0159 170.5  m  21?   1.10 238.0   45 305  10  98
   2024 04 22 16:50  13 43 04.69    -04 11 09.0   0.0107 1.0159 170.5  m  21?   1.03 236.1   44 302  10  98
   2024 04 22 17:00  13 43 04.15    -04 11 14.7   0.0107 1.0159 170.5  m  21?   0.96 233.8   42 300  10  98
   2024 04 22 17:10  13 43 03.66    -04 11 20.3   0.0107 1.0159 170.5  m  21?   0.88 230.9   40 298  10  98
   2024 04 22 17:20  13 43 03.23    -04 11 25.8   0.0107 1.0159 170.5  m  21?   0.81 227.4   38 295  10  98
   2024 04 22 17:30  13 43 02.86    -04 11 31.3   0.0107 1.0159 170.5  m  21?   0.74 222.8   36 293  10  98
   2024 04 22 17:40  13 43 02.55    -04 11 36.6   0.0107 1.0159 170.5  m  21?   0.67 217.2   34 291  10  98
   2024 04 22 17:50  13 43 02.32    -04 11 42.0   0.0107 1.0160 170.5  m  21?   0.61 210.0   33 289  10  98
   2024 04 22 18:00  13 43 02.14    -04 11 47.2   0.0107 1.0160 170.5  m  21?   0.56 201.0   31 287  10  98
   2024 04 22 18:10  13 43 02.04    -04 11 52.5   0.0107 1.0160 170.5  m  21?   0.53 190.3   29 286  10  98
   2024 04 22 18:20  13 43 02.02    -04 11 57.6   0.0107 1.0160 170.5  m  21?   0.51 178.2   27 284   9  98
   2024 04 22 18:30  13 43 02.07    -04 12 02.7   0.0107 1.0160 170.4  m  21?   0.53 165.7   25 282   9  98
   2024 04 22 18:40  13 43 02.19    -04 12 07.8   0.0107 1.0160 170.4  m  21?   0.56 154.1   23 281   9  98
   2024 04 22 18:50  13 43 02.39    -04 12 12.8   0.0107 1.0160 170.4  m  21?   0.62 144.0   21 279   9  98
   2024 04 22 19:00  13 43 02.68    -04 12 17.8   0.0107 1.0160 170.4  m  21?   0.69 135.7   19 278   9  98
   2024 04 22 19:10  13 43 03.04    -04 12 22.8   0.0107 1.0160 170.4  m  21?   0.78 129.1   16 276   9  98
   2024 04 22 19:20  13 43 03.49    -04 12 27.7   0.0107 1.0160 170.4  m  21?   0.88 123.9   14 275   9  98
   2024 04 22 19:30  13 43 04.02    -04 12 32.6   0.0107 1.0160 170.4  m  21?   0.99 119.7   12 273   9  98
   2024 04 22 19:40  13 43 04.63    -04 12 37.5   0.0107 1.0160 170.4  m  21?   1.10 116.3   10 272   9  98
   2024 04 22 19:50  13 43 05.33    -04 12 42.4   0.0107 1.0160 170.4 Am  21?   1.21 113.6    8 270   9  98
   2024 04 22 20:00  13 43 06.11    -04 12 47.3   0.0107 1.0160 170.4 Am  21?   1.33 111.3    6 269   9  98
   2024 04 22 20:10  13 43 06.98    -04 12 52.1   0.0107 1.0160 170.4 Am  21?   1.45 109.4    4 267   9  98
   2024 04 22 20:20  13 43 07.94    -04 12 57.0   0.0107 1.0160 170.4 N   21?   1.57 107.9    2 266   9  98
   2024 04 22 20:30  13 43 08.98    -04 13 01.8   0.0107 1.0160 170.4 N   21?   1.69 106.5    0 265   9  98
   ................
   2024 04 23 08:10  13 45 49.68    -04 21 20.9   0.0107 1.0161 170.5 Cr  21?   1.91 119.6    0  95   6  99
   2024 04 23 08:20  13 45 50.75    -04 21 30.4   0.0107 1.0161 170.5 Cm  21?   1.80 121.7    2  93   6  99
   2024 04 23 08:30  13 45 51.73    -04 21 39.9   0.0107 1.0161 170.5 Cm  21?   1.69 124.0    4  92   6  99
   2024 04 23 08:40  13 45 52.62    -04 21 49.3   0.0107 1.0161 170.5 Nm  21?   1.58 126.6    6  91   6  99
   2024 04 23 08:50  13 45 53.43    -04 21 58.8   0.0107 1.0161 170.5 Nm  21?   1.48 129.5    8  89   6  99
   2024 04 23 09:00  13 45 54.15    -04 22 08.2   0.0107 1.0161 170.5 Nm  21?   1.39 132.8   10  88   6  99
   2024 04 23 09:10  13 45 54.78    -04 22 17.6   0.0107 1.0161 170.5 Am  21?   1.29 136.6   12  86   6  99
   2024 04 23 09:20  13 45 55.33    -04 22 27.1   0.0107 1.0161 170.5 Am  21?   1.21 140.8   14  85   6  99
   2024 04 23 09:30  13 45 55.80    -04 22 36.4   0.0107 1.0161 170.5 Am  21?   1.13 145.6   16  83   6  99
   2024 04 23 09:40  13 45 56.19    -04 22 45.8   0.0107 1.0161 170.5  m  21?   1.07 151.0   18  82   7  99
   2024 04 23 09:50  13 45 56.49    -04 22 55.1   0.0107 1.0161 170.5  m  21?   1.01 156.9   20  80   7  99
   2024 04 23 10:00  13 45 56.72    -04 23 04.4   0.0107 1.0161 170.5  m  21?   0.97 163.3   22  79   7  99
   2024 04 23 10:10  13 45 56.86    -04 23 13.7   0.0107 1.0161 170.5  m  21?   0.94 170.0   24  77   7  99
   2024 04 23 10:20  13 45 56.93    -04 23 22.9   0.0107 1.0161 170.5  m  21?   0.92 177.0   26  76   7  99
   2024 04 23 10:30  13 45 56.93    -04 23 32.0   0.0107 1.0161 170.5  m  21?   0.92 183.9   28  74   7  99
   2024 04 23 10:40  13 45 56.85    -04 23 41.2   0.0107 1.0161 170.5  m  21?   0.92 190.6   30  72   7  99
   2024 04 23 10:50  13 45 56.70    -04 23 50.2   0.0107 1.0161 170.5  m  21?   0.94 197.0   32  70   7  99
   2024 04 23 11:00  13 45 56.48    -04 23 59.2   0.0107 1.0161 170.5  m  21?   0.97 202.8   34  68   7  99
   2024 04 23 11:10  13 45 56.19    -04 24 08.1   0.0107 1.0161 170.5  m  21?   1.01 208.1   36  66   7  99
   2024 04 23 11:20  13 45 55.84    -04 24 17.0   0.0107 1.0161 170.5  m  21?   1.05 212.8   38  64   7  99
   2024 04 23 11:30  13 45 55.43    -04 24 25.8   0.0107 1.0161 170.5  m  21?   1.10 216.9   40  62   7  99
   2024 04 23 11:40  13 45 54.96    -04 24 34.5   0.0107 1.0161 170.4  m  21?   1.14 220.6   42  60   7  99
   2024 04 23 11:50  13 45 54.43    -04 24 43.1   0.0107 1.0161 170.4  m  21?   1.19 223.8   43  57   7  99
   2024 04 23 12:00  13 45 53.85    -04 24 51.7   0.0107 1.0161 170.4  m  21?   1.24 226.6   45  55   7  99
   2024 04 23 12:10  13 45 53.22    -04 25 00.2   0.0107 1.0161 170.4  m  21?   1.29 229.1   47  52   7  99
   2024 04 23 12:20  13 45 52.55    -04 25 08.6   0.0107 1.0161 170.4  m  21?   1.34 231.3   48  49   7  99
   2024 04 23 12:30  13 45 51.83    -04 25 16.9   0.0107 1.0161 170.4  m  21?   1.38 233.2   50  46   7  99
   2024 04 23 12:40  13 45 51.07    -04 25 25.1   0.0107 1.0162 170.4  m  21?   1.42 234.9   52  43   7  99
   2024 04 23 12:50  13 45 50.27    -04 25 33.2   0.0107 1.0162 170.4  m  21?   1.46 236.3   53  40   7  99
   2024 04 23 13:00  13 45 49.44    -04 25 41.3   0.0107 1.0162 170.4  m  21?   1.50 237.6   54  36   7  99
   2024 04 23 13:10  13 45 48.58    -04 25 49.2   0.0107 1.0162 170.4  m  21?   1.53 238.8   55  32   7  99
   2024 04 23 13:20  13 45 47.69    -04 25 57.0   0.0107 1.0162 170.4  m  21?   1.55 239.8   56  28   7  99
   2024 04 23 13:30  13 45 46.78    -04 26 04.8   0.0107 1.0162 170.4  m  21?   1.58 240.7   57  24   7  99
   2024 04 23 13:40  13 45 45.85    -04 26 12.4   0.0107 1.0162 170.4  m  21?   1.59 241.4   58  19   7  99
   2024 04 23 13:50  13 45 44.91    -04 26 20.0   0.0107 1.0162 170.4  m  21?   1.61 242.1   59  14   7  99
   2024 04 23 14:00  13 45 43.95    -04 26 27.4   0.0107 1.0162 170.4  m  21?   1.61 242.6   59  10   7  99
   2024 04 23 14:10  13 45 42.99    -04 26 34.8   0.0107 1.0162 170.4  m  21?   1.62 243.1   59   5   8  99
   2024 04 23 14:20  13 45 42.02    -04 26 42.0   0.0107 1.0162 170.4  m  21?   1.62 243.5   60   0   8  99
   2024 04 23 14:30  13 45 41.06    -04 26 49.1   0.0107 1.0162 170.4  t  21?   1.61 243.8   59 355   8  99
   2024 04 23 14:40  13 45 40.09    -04 26 56.2   0.0107 1.0162 170.4  m  21?   1.60 244.0   59 350   8  99
   2024 04 23 14:50  13 45 39.14    -04 27 03.1   0.0107 1.0162 170.4  m  21?   1.58 244.1   59 345   8  99
   2024 04 23 15:00  13 45 38.19    -04 27 09.9   0.0107 1.0162 170.3  m  21?   1.56 244.1   58 340   8  99
   2024 04 23 15:10  13 45 37.26    -04 27 16.7   0.0107 1.0162 170.3  m  21?   1.53 244.0   57 336   8  99
   2024 04 23 15:20  13 45 36.35    -04 27 23.3   0.0107 1.0162 170.3  m  21?   1.50 243.8   56 331   8  99
   2024 04 23 15:30  13 45 35.47    -04 27 29.8   0.0107 1.0162 170.3  m  21?   1.46 243.5   55 327   8  99
   2024 04 23 15:40  13 45 34.60    -04 27 36.3   0.0107 1.0162 170.3  m  21?   1.42 243.1   54 323   8  99
   2024 04 23 15:50  13 45 33.77    -04 27 42.6   0.0107 1.0162 170.3  m  21?   1.37 242.6   53 320   8  99
   2024 04 23 16:00  13 45 32.97    -04 27 48.8   0.0107 1.0162 170.3  m  21?   1.32 241.9   52 316   8  99
   2024 04 23 16:10  13 45 32.21    -04 27 55.0   0.0107 1.0162 170.3  m  21?   1.27 241.1   50 313   8  99
   2024 04 23 16:20  13 45 31.49    -04 28 01.0   0.0107 1.0162 170.3  m  21?   1.21 240.0   49 310   8  99
   2024 04 23 16:30  13 45 30.81    -04 28 07.0   0.0107 1.0162 170.3  m  21?   1.14 238.7   47 307   8  99
   2024 04 23 16:40  13 45 30.18    -04 28 12.9   0.0107 1.0162 170.3  m  21?   1.08 237.1   45 304   8  99
   2024 04 23 16:50  13 45 29.60    -04 28 18.7   0.0107 1.0162 170.3  m  21?   1.01 235.1   44 302   8  99
   2024 04 23 17:00  13 45 29.08    -04 28 24.4   0.0107 1.0162 170.3  m  21?   0.94 232.7   42 299   8  99
   2024 04 23 17:10  13 45 28.60    -04 28 30.0   0.0107 1.0162 170.3  m  21?   0.87 229.7   40 297   8  99
   2024 04 23 17:20  13 45 28.19    -04 28 35.6   0.0107 1.0162 170.3  m  21?   0.80 225.9   38 295   8  99
   2024 04 23 17:30  13 45 27.84    -04 28 41.1   0.0107 1.0162 170.3  m  21?   0.73 221.1   36 293   8  99
   2024 04 23 17:40  13 45 27.55    -04 28 46.5   0.0107 1.0162 170.3  m  21?   0.66 215.1   34 291   8  99
   2024 04 23 17:50  13 45 27.33    -04 28 51.9   0.0107 1.0162 170.3  m  21?   0.60 207.6   32 289   8  99
   2024 04 23 18:00  13 45 27.18    -04 28 57.2   0.0107 1.0162 170.3  m  21?   0.55 198.2   30 287   8  99
   2024 04 23 18:10  13 45 27.10    -04 29 02.4   0.0107 1.0162 170.2  m  21?   0.52 187.1   28 285   8  99
   2024 04 23 18:20  13 45 27.09    -04 29 07.6   0.0107 1.0162 170.2  m  21?   0.52 174.9   26 283   8  99
   2024 04 23 18:30  13 45 27.16    -04 29 12.7   0.0107 1.0162 170.2  m  21?   0.53 162.6   24 282   8  99
   2024 04 23 18:40  13 45 27.31    -04 29 17.8   0.0107 1.0162 170.2  m  21?   0.58 151.4   22 280   8  99
   2024 04 23 18:50  13 45 27.53    -04 29 22.8   0.0107 1.0162 170.2  m  21?   0.64 141.8   20 279   8  99
   2024 04 23 19:00  13 45 27.83    -04 29 27.8   0.0107 1.0162 170.2  m  21?   0.72 134.0   18 277   9  99
   2024 04 23 19:10  13 45 28.22    -04 29 32.8   0.0107 1.0162 170.2  m  21?   0.81 127.7   16 276   9  99
   2024 04 23 19:20  13 45 28.68    -04 29 37.7   0.0107 1.0162 170.2  m  21?   0.91 122.8   14 274   9  99
   2024 04 23 19:30  13 45 29.24    -04 29 42.6   0.0107 1.0162 170.2  m  21?   1.01 118.8   12 273   9  99
   2024 04 23 19:40  13 45 29.87    -04 29 47.5   0.0107 1.0162 170.2  m  21?   1.13 115.6   10 271   9  99
   2024 04 23 19:50  13 45 30.59    -04 29 52.4   0.0107 1.0162 170.2 Am  21?   1.24 113.0    8 270   9  99
   2024 04 23 20:00  13 45 31.40    -04 29 57.2   0.0107 1.0162 170.2 Am  21?   1.36 110.8    6 268   9  99
   2024 04 23 20:10  13 45 32.29    -04 30 02.1   0.0107 1.0162 170.2 Am  21?   1.48 109.0    4 267   9  99
   2024 04 23 20:20  13 45 33.27    -04 30 06.9   0.0107 1.0162 170.2 Nm  21?   1.60 107.5    2 266   9  99
   2024 04 23 20:30  13 45 34.33    -04 30 11.8   0.0107 1.0162 170.2 Nm  21?   1.73 106.2    0 264   9  99
   ................
   2024 04 24 08:10  13 48 15.78    -04 38 41.7   0.0107 1.0164 170.3 Cr  21?   1.92 120.5    0  95  14  99
   2024 04 24 08:20  13 48 16.84    -04 38 51.5   0.0107 1.0164 170.3 Cm  21?   1.81 122.6    2  93  14  99
   2024 04 24 08:30  13 48 17.82    -04 39 01.2   0.0107 1.0164 170.3 Cm  21?   1.70 124.9    4  92  14  99
   2024 04 24 08:40  13 48 18.70    -04 39 11.0   0.0107 1.0164 170.3 Nm  21?   1.60 127.5    6  91  14  99
   2024 04 24 08:50  13 48 19.51    -04 39 20.7   0.0107 1.0164 170.3 Nm  21?   1.50 130.5    8  89  14  99
   2024 04 24 09:00  13 48 20.22    -04 39 30.4   0.0107 1.0164 170.3 Nm  21?   1.40 133.9   10  88  14  99
   2024 04 24 09:10  13 48 20.85    -04 39 40.2   0.0107 1.0164 170.3 Am  21?   1.31 137.7   13  86  14  99
   2024 04 24 09:20  13 48 21.40    -04 39 49.8   0.0107 1.0164 170.3 Am  21?   1.23 141.9   15  85  14  99
   2024 04 24 09:30  13 48 21.87    -04 39 59.5   0.0107 1.0164 170.3 Am  21?   1.15 146.7   17  83  14  99
   2024 04 24 09:40  13 48 22.25    -04 40 09.2   0.0107 1.0164 170.3  m  21?   1.09 152.0   19  82  14  99
   2024 04 24 09:50  13 48 22.55    -04 40 18.8   0.0107 1.0164 170.3  m  21?   1.03 157.8   21  80  14  99
   2024 04 24 10:00  13 48 22.77    -04 40 28.3   0.0107 1.0164 170.3  m  21?   0.99 164.1   23  79  14  99
   2024 04 24 10:10  13 48 22.91    -04 40 37.8   0.0107 1.0164 170.3  m  21?   0.96 170.7   25  77  15  99
   2024 04 24 10:20  13 48 22.97    -04 40 47.3   0.0107 1.0164 170.3  m  21?   0.95 177.4   27  76  15  99
   2024 04 24 10:30  13 48 22.96    -04 40 56.7   0.0107 1.0164 170.3  m  21?   0.94 184.1   29  74  15  99
   2024 04 24 10:40  13 48 22.88    -04 41 06.1   0.0107 1.0164 170.3  m  21?   0.95 190.7   31  72  15  99
   2024 04 24 10:50  13 48 22.73    -04 41 15.4   0.0107 1.0164 170.3  m  21?   0.97 196.8   33  70  15  99
   2024 04 24 11:00  13 48 22.51    -04 41 24.6   0.0107 1.0164 170.3  m  21?   1.00 202.5   35  68  15  99
   2024 04 24 11:10  13 48 22.22    -04 41 33.8   0.0107 1.0164 170.3  m  21?   1.03 207.6   37  66  15  99
   2024 04 24 11:20  13 48 21.86    -04 41 42.9   0.0107 1.0164 170.3  m  21?   1.07 212.2   39  64  15  99
   2024 04 24 11:30  13 48 21.45    -04 41 51.9   0.0107 1.0164 170.3  m  21?   1.12 216.3   40  62  15  99
   2024 04 24 11:40  13 48 20.98    -04 42 00.9   0.0107 1.0164 170.3  m  21?   1.16 219.9   42  60  15  99
   2024 04 24 11:50  13 48 20.45    -04 42 09.7   0.0107 1.0164 170.2  m  21?   1.21 223.1   44  57  15  99
   2024 04 24 12:00  13 48 19.87    -04 42 18.5   0.0107 1.0164 170.2  m  21?   1.26 225.9   46  55  15  99
   2024 04 24 12:10  13 48 19.24    -04 42 27.2   0.0107 1.0164 170.2  m  21?   1.31 228.4   47  52  15  99
   2024 04 24 12:20  13 48 18.56    -04 42 35.8   0.0107 1.0164 170.2  m  21?   1.35 230.6   49  49  15  99
   2024 04 24 12:30  13 48 17.84    -04 42 44.3   0.0107 1.0164 170.2  m  21?   1.39 232.5   51  46  16  99
   2024 04 24 12:40  13 48 17.08    -04 42 52.7   0.0107 1.0164 170.2  m  21?   1.43 234.2   52  43  16  99
   2024 04 24 12:50  13 48 16.28    -04 43 01.0   0.0107 1.0164 170.2  m  21?   1.47 235.7   53  39  16  99
   2024 04 24 13:00  13 48 15.45    -04 43 09.2   0.0107 1.0164 170.2  m  21?   1.50 237.0   55  36  16  99
   2024 04 24 13:10  13 48 14.60    -04 43 17.3   0.0107 1.0164 170.2  m  21?   1.53 238.2   56  32  16  99
   2024 04 24 13:20  13 48 13.71    -04 43 25.3   0.0107 1.0164 170.2  m  21?   1.56 239.2   57  28  16  99
   2024 04 24 13:30  13 48 12.80    -04 43 33.3   0.0107 1.0164 170.2  m  21?   1.58 240.1   58  23  16  99
   2024 04 24 13:40  13 48 11.88    -04 43 41.0   0.0107 1.0164 170.2  m  21?   1.60 240.9   58  19  16  99
   2024 04 24 13:50  13 48 10.94    -04 43 48.7   0.0107 1.0164 170.2  m  21?   1.61 241.5   59  14  16  99
   2024 04 24 14:00  13 48 09.99    -04 43 56.3   0.0107 1.0164 170.2  m  21?   1.61 242.1   59   9  16  99
   2024 04 24 14:10  13 48 09.03    -04 44 03.8   0.0107 1.0164 170.2  m  21?   1.62 242.6   60   4  16  99
   2024 04 24 14:20  13 48 08.07    -04 44 11.1   0.0107 1.0164 170.2  t  21?   1.61 242.9   60 359  16  99
   2024 04 24 14:30  13 48 07.11    -04 44 18.4   0.0107 1.0164 170.2  m  21?   1.60 243.2   60 354  16  99
   2024 04 24 14:40  13 48 06.15    -04 44 25.5   0.0107 1.0164 170.2  m  21?   1.59 243.4   59 349  16  99
   2024 04 24 14:50  13 48 05.20    -04 44 32.6   0.0107 1.0164 170.2  m  21?   1.57 243.5   59 344  16  99
   2024 04 24 15:00  13 48 04.27    -04 44 39.5   0.0107 1.0164 170.1  m  21?   1.55 243.6   58 339  16  99
   2024 04 24 15:10  13 48 03.35    -04 44 46.3   0.0107 1.0164 170.1  m  21?   1.52 243.5   58 335  16  99
   2024 04 24 15:20  13 48 02.44    -04 44 53.0   0.0107 1.0164 170.1  m  21?   1.49 243.3   57 330  17  99
   2024 04 24 15:30  13 48 01.57    -04 44 59.7   0.0107 1.0164 170.1  m  21?   1.45 243.0   56 326  17  99
   2024 04 24 15:40  13 48 00.72    -04 45 06.2   0.0107 1.0164 170.1  m  21?   1.41 242.6   54 322  17  99
   2024 04 24 15:50  13 47 59.89    -04 45 12.6   0.0107 1.0164 170.1  m  21?   1.36 242.1   53 319  17  99
   2024 04 24 16:00  13 47 59.11    -04 45 18.9   0.0107 1.0164 170.1  m  21?   1.31 241.4   52 315  17  99
   2024 04 24 16:10  13 47 58.36    -04 45 25.1   0.0107 1.0164 170.1  m  21?   1.25 240.5   50 312  17  99
   2024 04 24 16:20  13 47 57.65    -04 45 31.2   0.0107 1.0164 170.1  m  21?   1.19 239.4   49 309  17  99
   2024 04 24 16:30  13 47 56.98    -04 45 37.2   0.0107 1.0164 170.1  m  21?   1.13 238.0   47 306  17  99
   2024 04 24 16:40  13 47 56.37    -04 45 43.1   0.0107 1.0164 170.1  m  21?   1.06 236.4   45 304  17  99
   2024 04 24 16:50  13 47 55.80    -04 45 48.9   0.0107 1.0164 170.1  m  21?   0.99 234.3   44 301  17  99
   2024 04 24 17:00  13 47 55.29    -04 45 54.7   0.0107 1.0164 170.1  m  21?   0.92 231.8   42 299  17  99
   2024 04 24 17:10  13 47 54.83    -04 46 00.3   0.0107 1.0165 170.1  m  21?   0.85 228.6   40 296  17  99
   2024 04 24 17:20  13 47 54.43    -04 46 05.9   0.0107 1.0165 170.1  m  21?   0.78 224.6   38 294  17  99
   2024 04 24 17:30  13 47 54.10    -04 46 11.4   0.0107 1.0165 170.1  m  21?   0.71 219.6   36 292  17  99
   2024 04 24 17:40  13 47 53.82    -04 46 16.8   0.0107 1.0165 170.1  m  21?   0.65 213.3   34 290  17  99
   2024 04 24 17:50  13 47 53.62    -04 46 22.2   0.0107 1.0165 170.1  m  21?   0.59 205.4   32 288  17  99
   2024 04 24 18:00  13 47 53.49    -04 46 27.5   0.0107 1.0165 170.1  m  21?   0.55 195.6   30 286  17  99
   2024 04 24 18:10  13 47 53.42    -04 46 32.7   0.0107 1.0165 170.0  m  21?   0.52 184.3   28 285  17  99
   2024 04 24 18:20  13 47 53.43    -04 46 37.9   0.0107 1.0165 170.0  m  21?   0.52 171.9   26 283  18  99
   2024 04 24 18:30  13 47 53.52    -04 46 43.0   0.0107 1.0165 170.0  m  21?   0.54 159.8   24 281  18  99
   2024 04 24 18:40  13 47 53.68    -04 46 48.1   0.0107 1.0165 170.0  m  21?   0.59 148.9   22 280  18  99
   2024 04 24 18:50  13 47 53.93    -04 46 53.1   0.0107 1.0165 170.0  m  21?   0.65 139.8   20 278  18  99
   2024 04 24 19:00  13 47 54.25    -04 46 58.1   0.0107 1.0165 170.0  m  21?   0.74 132.3   18 277  18  99
   2024 04 24 19:10  13 47 54.65    -04 47 03.0   0.0107 1.0165 170.0  m  21?   0.83 126.4   16 275  18  99
   2024 04 24 19:20  13 47 55.14    -04 47 08.0   0.0107 1.0165 170.0  m  21?   0.93 121.7   14 274  18  99
   2024 04 24 19:30  13 47 55.71    -04 47 12.8   0.0107 1.0165 170.0  m  21?   1.04 117.9   12 272  18  99
   2024 04 24 19:40  13 47 56.37    -04 47 17.7   0.0107 1.0165 170.0  m  21?   1.15 114.9   10 271  18  99
   2024 04 24 19:50  13 47 57.11    -04 47 22.6   0.0107 1.0165 170.0 Am  21?   1.27 112.4    8 269  18  99
   2024 04 24 20:00  13 47 57.93    -04 47 27.4   0.0107 1.0165 170.0 Am  21?   1.39 110.3    6 268  18  99
   2024 04 24 20:10  13 47 58.85    -04 47 32.2   0.0107 1.0165 170.0 Am  21?   1.51 108.6    4 267  18  99
   2024 04 24 20:20  13 47 59.85    -04 47 37.1   0.0107 1.0165 170.0 Nm  21?   1.63 107.1    2 265  18  99
   2024 04 24 20:30  13 48 00.93    -04 47 41.9   0.0107 1.0165 170.0 Nm  21?   1.76 105.9    0 264  18  99
   ................
   2024 04 25 08:10  13 50 43.04    -04 56 21.7   0.0107 1.0166 170.1 Cr  21?   1.92 121.3    1  95  25  98
   2024 04 25 08:20  13 50 44.09    -04 56 31.7   0.0107 1.0166 170.1 C   21?   1.81 123.4    3  93  25  98
   2024 04 25 08:30  13 50 45.06    -04 56 41.8   0.0107 1.0166 170.1 C   21?   1.71 125.8    5  92  25  98
   2024 04 25 08:40  13 50 45.94    -04 56 51.8   0.0107 1.0166 170.1 Nm  21?   1.61 128.5    7  91  25  98
   2024 04 25 08:50  13 50 46.74    -04 57 01.8   0.0107 1.0166 170.1 Nm  21?   1.51 131.5    9  89  25  97
   2024 04 25 09:00  13 50 47.45    -04 57 11.8   0.0107 1.0166 170.1 Nm  21?   1.41 134.9   11  88  25  97
   2024 04 25 09:10  13 50 48.07    -04 57 21.8   0.0107 1.0166 170.1 Am  21?   1.32 138.7   13  86  25  97
   2024 04 25 09:20  13 50 48.62    -04 57 31.8   0.0107 1.0166 170.1 Am  21?   1.24 143.0   15  85  25  97
   2024 04 25 09:30  13 50 49.07    -04 57 41.7   0.0107 1.0166 170.1 Am  21?   1.17 147.8   17  83  25  97
   2024 04 25 09:40  13 50 49.45    -04 57 51.6   0.0107 1.0166 170.1  m  21?   1.11 153.1   19  82  25  97
   2024 04 25 09:50  13 50 49.74    -04 58 01.5   0.0107 1.0166 170.1  m  21?   1.06 158.8   21  80  25  97
   2024 04 25 10:00  13 50 49.96    -04 58 11.3   0.0107 1.0166 170.1  m  21?   1.01 164.9   23  79  26  97
   2024 04 25 10:10  13 50 50.09    -04 58 21.1   0.0107 1.0166 170.1  m  21?   0.99 171.4   25  77  26  97
   2024 04 25 10:20  13 50 50.15    -04 58 30.8   0.0107 1.0166 170.1  m  21?   0.97 178.0   27  76  26  97
   2024 04 25 10:30  13 50 50.14    -04 58 40.4   0.0107 1.0166 170.1  m  21?   0.97 184.5   29  74  26  97
   2024 04 25 10:40  13 50 50.05    -04 58 50.0   0.0107 1.0166 170.1  m  21?   0.98 190.8   31  72  26  97
   2024 04 25 10:50  13 50 49.89    -04 58 59.6   0.0107 1.0166 170.1  m  21?   0.99 196.8   33  70  26  97
   2024 04 25 11:00  13 50 49.66    -04 59 09.1   0.0107 1.0166 170.1  m  21?   1.02 202.3   35  68  26  97
   2024 04 25 11:10  13 50 49.37    -04 59 18.5   0.0107 1.0166 170.1  m  21?   1.06 207.4   37  66  26  97
   2024 04 25 11:20  13 50 49.01    -04 59 27.8   0.0107 1.0166 170.1  m  21?   1.09 211.9   39  64  26  97
   2024 04 25 11:30  13 50 48.60    -04 59 37.0   0.0107 1.0166 170.1  m  21?   1.14 215.9   41  62  26  97
   2024 04 25 11:40  13 50 48.12    -04 59 46.2   0.0107 1.0166 170.1  m  21?   1.18 219.5   43  60  26  97
   2024 04 25 11:50  13 50 47.59    -04 59 55.3   0.0107 1.0166 170.1  m  21?   1.23 222.6   44  57  26  97
   2024 04 25 12:00  13 50 47.00    -05 00 04.2   0.0107 1.0166 170.0  m  21?   1.28 225.4   46  55  27  97
   2024 04 25 12:10  13 50 46.37    -05 00 13.1   0.0107 1.0166 170.0  m  21?   1.32 227.9   48  52  27  97
   2024 04 25 12:20  13 50 45.69    -05 00 21.9   0.0107 1.0167 170.0  m  21?   1.36 230.1   49  49  27  97
   2024 04 25 12:30  13 50 44.97    -05 00 30.6   0.0107 1.0167 170.0  m  21?   1.41 232.0   51  46  27  97
   2024 04 25 12:40  13 50 44.21    -05 00 39.2   0.0107 1.0167 170.0  m  21?   1.44 233.7   52  43  27  97
   2024 04 25 12:50  13 50 43.41    -05 00 47.7   0.0107 1.0167 170.0  m  21?   1.48 235.2   54  39  27  97
   2024 04 25 13:00  13 50 42.58    -05 00 56.0   0.0107 1.0167 170.0  m  21?   1.51 236.5   55  35  27  97
   2024 04 25 13:10  13 50 41.72    -05 01 04.3   0.0107 1.0167 170.0  m  21?   1.54 237.7   56  31  27  97
   2024 04 25 13:20  13 50 40.84    -05 01 12.4   0.0107 1.0167 170.0  m  21?   1.56 238.7   57  27  27  97
   2024 04 25 13:30  13 50 39.93    -05 01 20.5   0.0107 1.0167 170.0  m  21?   1.58 239.6   58  23  27  97
   2024 04 25 13:40  13 50 39.01    -05 01 28.4   0.0107 1.0167 170.0  m  21?   1.60 240.4   59  18  27  97
   2024 04 25 13:50  13 50 38.07    -05 01 36.2   0.0107 1.0167 170.0  m  21?   1.61 241.1   59  13  27  97
   2024 04 25 14:00  13 50 37.12    -05 01 43.9   0.0107 1.0167 170.0  m  21?   1.62 241.6   60   8  27  97
   2024 04 25 14:10  13 50 36.17    -05 01 51.5   0.0107 1.0167 170.0  m  21?   1.62 242.1   60   3  27  97
   2024 04 25 14:20  13 50 35.21    -05 01 59.0   0.0107 1.0167 170.0  t  21?   1.61 242.5   60 358  27  97
   2024 04 25 14:30  13 50 34.25    -05 02 06.3   0.0107 1.0167 170.0  m  21?   1.60 242.8   60 353  28  97
   2024 04 25 14:40  13 50 33.30    -05 02 13.6   0.0107 1.0167 170.0  m  21?   1.59 243.0   60 348  28  97
   2024 04 25 14:50  13 50 32.36    -05 02 20.7   0.0107 1.0167 170.0  m  21?   1.57 243.1   59 343  28  97
   2024 04 25 15:00  13 50 31.43    -05 02 27.7   0.0107 1.0167 169.9  m  21?   1.54 243.1   58 338  28  97
   2024 04 25 15:10  13 50 30.51    -05 02 34.6   0.0107 1.0167 169.9  m  21?   1.52 243.1   58 334  28  97
   2024 04 25 15:20  13 50 29.62    -05 02 41.4   0.0107 1.0167 169.9  m  21?   1.48 242.9   57 330  28  97
   2024 04 25 15:30  13 50 28.75    -05 02 48.1   0.0107 1.0167 169.9  m  21?   1.44 242.6   56 325  28  97
   2024 04 25 15:40  13 50 27.90    -05 02 54.6   0.0107 1.0167 169.9  m  21?   1.40 242.2   54 322  28  97
   2024 04 25 15:50  13 50 27.09    -05 03 01.1   0.0107 1.0167 169.9  m  21?   1.35 241.6   53 318  28  97
   2024 04 25 16:00  13 50 26.31    -05 03 07.4   0.0107 1.0167 169.9  m  21?   1.30 240.9   52 315  28  97
   2024 04 25 16:10  13 50 25.57    -05 03 13.6   0.0107 1.0167 169.9  m  21?   1.24 240.0   50 311  28  97
   2024 04 25 16:20  13 50 24.88    -05 03 19.8   0.0107 1.0167 169.9  m  21?   1.18 238.9   49 308  28  97
   2024 04 25 16:30  13 50 24.22    -05 03 25.8   0.0107 1.0167 169.9  m  21?   1.12 237.5   47 305  28  97
   2024 04 25 16:40  13 50 23.62    -05 03 31.7   0.0107 1.0167 169.9  m  21?   1.05 235.7   45 303  28  97
   2024 04 25 16:50  13 50 23.06    -05 03 37.6   0.0107 1.0167 169.9  m  21?   0.98 233.6   43 300  28  97
   2024 04 25 17:00  13 50 22.56    -05 03 43.3   0.0107 1.0167 169.9  m  21?   0.91 231.0   42 298  28  97
   2024 04 25 17:10  13 50 22.12    -05 03 49.0   0.0107 1.0167 169.9  m  21?   0.84 227.7   40 296  28  97
   2024 04 25 17:20  13 50 21.73    -05 03 54.6   0.0107 1.0167 169.9  m  21?   0.77 223.5   38 294  29  97
   2024 04 25 17:30  13 50 21.41    -05 04 00.1   0.0107 1.0167 169.9  m  21?   0.70 218.3   36 291  29  97
   2024 04 25 17:40  13 50 21.15    -05 04 05.5   0.0107 1.0167 169.9  m  21?   0.63 211.7   34 290  29  97
   2024 04 25 17:50  13 50 20.96    -05 04 10.8   0.0107 1.0167 169.9  m  21?   0.58 203.4   32 288  29  97
   2024 04 25 18:00  13 50 20.85    -05 04 16.1   0.0107 1.0167 169.8  m  21?   0.54 193.3   30 286  29  97
   2024 04 25 18:10  13 50 20.80    -05 04 21.3   0.0107 1.0167 169.8  m  21?   0.52 181.7   28 284  29  97
   2024 04 25 18:20  13 50 20.82    -05 04 26.5   0.0107 1.0167 169.8  m  21?   0.52 169.3   26 282  29  97
   2024 04 25 18:30  13 50 20.93    -05 04 31.6   0.0107 1.0167 169.8  m  21?   0.55 157.3   24 281  29  97
   2024 04 25 18:40  13 50 21.11    -05 04 36.6   0.0107 1.0167 169.8  m  21?   0.60 146.7   22 279  29  96
   2024 04 25 18:50  13 50 21.37    -05 04 41.6   0.0107 1.0167 169.8  m  21?   0.67 137.9   20 278  29  96
   2024 04 25 19:00  13 50 21.71    -05 04 46.6   0.0107 1.0167 169.8  m  21?   0.75 130.8   18 276  29  96
   2024 04 25 19:10  13 50 22.13    -05 04 51.5   0.0107 1.0167 169.8  m  21?   0.85 125.2   16 275  29  96
   2024 04 25 19:20  13 50 22.63    -05 04 56.4   0.0107 1.0167 169.8  m  21?   0.95 120.7   14 273  29  96
   2024 04 25 19:30  13 50 23.22    -05 05 01.2   0.0107 1.0167 169.8  m  21?   1.06 117.1   12 272  29  96
   2024 04 25 19:40  13 50 23.90    -05 05 06.1   0.0107 1.0167 169.8  m  21?   1.17 114.1   10 270  29  96
   2024 04 25 19:50  13 50 24.66    -05 05 10.9   0.0107 1.0167 169.8 Am  21?   1.29 111.7    8 269  29  96
   2024 04 25 20:00  13 50 25.50    -05 05 15.7   0.0107 1.0167 169.8 Am  21?   1.41 109.8    6 267  29  96
   2024 04 25 20:10  13 50 26.43    -05 05 20.5   0.0107 1.0167 169.8 Am  21?   1.53 108.1    4 266  30  96
   2024 04 25 20:20  13 50 27.45    -05 05 25.3   0.0107 1.0167 169.8 Nm  21?   1.66 106.7    2 265  30  96
   2024 04 25 20:30  13 50 28.56    -05 05 30.1   0.0107 1.0167 169.8 Nm  21?   1.78 105.5    0 263  30  96
   ................
   2024 04 26 08:10  13 53 11.22    -05 14 18.8   0.0107 1.0169 169.9 C   21?   1.93 122.2    1  95  36  94
   2024 04 26 08:20  13 53 12.27    -05 14 29.1   0.0107 1.0169 169.9 C   21?   1.82 124.3    3  93  36  94
   2024 04 26 08:30  13 53 13.23    -05 14 39.4   0.0107 1.0169 169.9 C   21?   1.72 126.8    5  92  36  94
   2024 04 26 08:40  13 53 14.11    -05 14 49.7   0.0107 1.0169 169.9 N   21?   1.61 129.5    7  91  36  94
   2024 04 26 08:50  13 53 14.90    -05 15 00.0   0.0107 1.0169 169.9 N   21?   1.52 132.6    9  89  36  94
   2024 04 26 09:00  13 53 15.60    -05 15 10.3   0.0107 1.0169 169.9 N   21?   1.42 136.0   11  88  37  94
   2024 04 26 09:10  13 53 16.22    -05 15 20.5   0.0107 1.0169 169.9 A   21?   1.34 139.9   13  86  37  94
   2024 04 26 09:20  13 53 16.75    -05 15 30.8   0.0107 1.0169 169.9 Am  21?   1.26 144.1   16  85  37  94
   2024 04 26 09:30  13 53 17.20    -05 15 41.0   0.0107 1.0169 169.9  m  21?   1.19 148.9   18  83  37  94
   2024 04 26 09:40  13 53 17.57    -05 15 51.1   0.0107 1.0169 169.9  m  21?   1.13 154.2   20  82  37  94
   2024 04 26 09:50  13 53 17.86    -05 16 01.2   0.0107 1.0169 169.9  m  21?   1.07 159.8   22  80  37  93
   2024 04 26 10:00  13 53 18.06    -05 16 11.3   0.0107 1.0169 169.9  m  21?   1.04 165.9   24  79  37  93
   2024 04 26 10:10  13 53 18.19    -05 16 21.3   0.0107 1.0169 169.9  m  21?   1.01 172.2   26  77  37  93
   2024 04 26 10:20  13 53 18.25    -05 16 31.3   0.0107 1.0169 169.9  m  21?   0.99 178.6   28  76  37  93
   2024 04 26 10:30  13 53 18.22    -05 16 41.2   0.0107 1.0169 169.9  m  21?   0.99 185.0   30  74  37  93
   2024 04 26 10:40  13 53 18.13    -05 16 51.0   0.0107 1.0169 169.9  m  21?   1.00 191.1   32  72  38  93
   2024 04 26 10:50  13 53 17.96    -05 17 00.8   0.0107 1.0169 169.9  m  21?   1.02 197.0   34  70  38  93
   2024 04 26 11:00  13 53 17.73    -05 17 10.5   0.0107 1.0169 169.9  m  21?   1.04 202.3   36  68  38  93
   2024 04 26 11:10  13 53 17.43    -05 17 20.1   0.0107 1.0169 169.9  m  21?   1.08 207.2   38  66  38  93
   2024 04 26 11:20  13 53 17.07    -05 17 29.6   0.0107 1.0169 169.9  m  21?   1.12 211.7   39  64  38  93
   2024 04 26 11:30  13 53 16.64    -05 17 39.1   0.0107 1.0169 169.9  m  21?   1.16 215.6   41  62  38  93
   2024 04 26 11:40  13 53 16.16    -05 17 48.4   0.0107 1.0169 169.9  m  21?   1.20 219.2   43  60  38  93
   2024 04 26 11:50  13 53 15.63    -05 17 57.7   0.0107 1.0169 169.9  m  21?   1.25 222.3   45  57  38  93
   2024 04 26 12:00  13 53 15.04    -05 18 06.9   0.0107 1.0169 169.9  m  21?   1.29 225.0   47  55  38  93
   2024 04 26 12:10  13 53 14.40    -05 18 15.9   0.0107 1.0169 169.8  m  21?   1.34 227.5   48  52  38  93
   2024 04 26 12:20  13 53 13.72    -05 18 24.9   0.0107 1.0169 169.8  m  21?   1.38 229.6   50  49  38  93
   2024 04 26 12:30  13 53 12.99    -05 18 33.7   0.0107 1.0169 169.8  m  21?   1.42 231.6   51  46  38  93
   2024 04 26 12:40  13 53 12.23    -05 18 42.5   0.0107 1.0169 169.8  m  21?   1.46 233.3   53  42  39  93
   2024 04 26 12:50  13 53 11.43    -05 18 51.1   0.0107 1.0169 169.8  m  21?   1.49 234.8   54  39  39  93
   2024 04 26 13:00  13 53 10.59    -05 18 59.7   0.0107 1.0169 169.8  m  21?   1.52 236.1   55  35  39  93
   2024 04 26 13:10  13 53 09.73    -05 19 08.1   0.0107 1.0169 169.8  m  21?   1.55 237.3   57  31  39  93
   2024 04 26 13:20  13 53 08.85    -05 19 16.4   0.0107 1.0169 169.8  m  21?   1.57 238.3   58  27  39  93
   2024 04 26 13:30  13 53 07.94    -05 19 24.5   0.0107 1.0169 169.8  m  21?   1.59 239.2   59  22  39  93
   2024 04 26 13:40  13 53 07.02    -05 19 32.6   0.0107 1.0169 169.8  m  21?   1.60 240.0   59  17  39  93
   2024 04 26 13:50  13 53 06.08    -05 19 40.5   0.0107 1.0169 169.8  m  21?   1.61 240.7   60  13  39  93
   2024 04 26 14:00  13 53 05.13    -05 19 48.3   0.0107 1.0169 169.8  m  21?   1.62 241.3   60   8  39  93
   2024 04 26 14:10  13 53 04.18    -05 19 56.0   0.0107 1.0169 169.8  m  21?   1.62 241.8   60   2  39  93
   2024 04 26 14:20  13 53 03.22    -05 20 03.6   0.0107 1.0169 169.8  t  21?   1.61 242.2   60 357  39  93
   2024 04 26 14:30  13 53 02.27    -05 20 11.0   0.0107 1.0169 169.8  m  21?   1.60 242.5   60 352  39  93
   2024 04 26 14:40  13 53 01.32    -05 20 18.3   0.0107 1.0169 169.8  m  21?   1.59 242.7   60 347  39  93
   2024 04 26 14:50  13 53 00.38    -05 20 25.5   0.0107 1.0169 169.8  m  21?   1.57 242.8   59 342  39  93
   2024 04 26 15:00  13 52 59.45    -05 20 32.6   0.0107 1.0169 169.8  m  21?   1.54 242.8   59 338  40  93
   2024 04 26 15:10  13 52 58.54    -05 20 39.5   0.0107 1.0169 169.7  m  21?   1.51 242.7   58 333  40  92
   2024 04 26 15:20  13 52 57.65    -05 20 46.4   0.0107 1.0169 169.7  m  21?   1.48 242.6   57 329  40  92
   2024 04 26 15:30  13 52 56.79    -05 20 53.1   0.0107 1.0169 169.7  m  21?   1.44 242.3   56 325  40  92
   2024 04 26 15:40  13 52 55.95    -05 20 59.7   0.0107 1.0169 169.7  m  21?   1.39 241.8   54 321  40  92
   2024 04 26 15:50  13 52 55.14    -05 21 06.2   0.0107 1.0169 169.7  m  21?   1.34 241.3   53 317  40  92
   2024 04 26 16:00  13 52 54.37    -05 21 12.5   0.0107 1.0169 169.7  m  21?   1.29 240.5   52 314  40  92
   2024 04 26 16:10  13 52 53.64    -05 21 18.8   0.0107 1.0169 169.7  m  21?   1.23 239.6   50 311  40  92
   2024 04 26 16:20  13 52 52.95    -05 21 24.9   0.0107 1.0169 169.7  m  21?   1.17 238.5   49 308  40  92
   2024 04 26 16:30  13 52 52.31    -05 21 31.0   0.0107 1.0169 169.7  m  21?   1.10 237.0   47 305  40  92
   2024 04 26 16:40  13 52 51.71    -05 21 36.9   0.0107 1.0169 169.7  m  21?   1.04 235.3   45 302  40  92
   2024 04 26 16:50  13 52 51.17    -05 21 42.7   0.0107 1.0169 169.7  m  21?   0.97 233.1   43 300  40  92
   2024 04 26 17:00  13 52 50.68    -05 21 48.5   0.0107 1.0169 169.7  m  21?   0.89 230.3   42 297  40  92
   2024 04 26 17:10  13 52 50.24    -05 21 54.1   0.0107 1.0169 169.7  m  21?   0.82 226.9   40 295  40  92
   2024 04 26 17:20  13 52 49.87    -05 21 59.7   0.0107 1.0170 169.7  m  21?   0.75 222.6   38 293  40  92
   2024 04 26 17:30  13 52 49.56    -05 22 05.2   0.0107 1.0170 169.7  m  21?   0.68 217.2   36 291  40  92
   2024 04 26 17:40  13 52 49.32    -05 22 10.6   0.0107 1.0170 169.7  m  21?   0.62 210.3   34 289  41  92
   2024 04 26 17:50  13 52 49.14    -05 22 15.9   0.0107 1.0170 169.7  m  21?   0.57 201.7   32 287  41  92
   2024 04 26 18:00  13 52 49.03    -05 22 21.1   0.0107 1.0170 169.7  m  21?   0.53 191.3   30 285  41  92
   2024 04 26 18:10  13 52 49.00    -05 22 26.3   0.0107 1.0170 169.6  m  21?   0.51 179.3   28 284  41  92
   2024 04 26 18:20  13 52 49.04    -05 22 31.4   0.0107 1.0170 169.6  m  21?   0.52 166.9   26 282  41  92
   2024 04 26 18:30  13 52 49.16    -05 22 36.5   0.0107 1.0170 169.6  m  21?   0.55 155.0   24 280  41  92
   2024 04 26 18:40  13 52 49.35    -05 22 41.5   0.0107 1.0170 169.6  m  21?   0.61 144.7   22 279  41  92
   2024 04 26 18:50  13 52 49.63    -05 22 46.4   0.0107 1.0170 169.6  m  21?   0.68 136.2   20 277  41  92
   2024 04 26 19:00  13 52 49.98    -05 22 51.3   0.0107 1.0170 169.6  m  21?   0.77 129.4   18 276  41  92
   2024 04 26 19:10  13 52 50.42    -05 22 56.2   0.0107 1.0170 169.6  m  21?   0.86 124.0   16 274  41  92
   2024 04 26 19:20  13 52 50.94    -05 23 01.0   0.0107 1.0170 169.6  m  21?   0.97 119.7   14 273  41  92
   2024 04 26 19:30  13 52 51.55    -05 23 05.8   0.0107 1.0170 169.6  m  21?   1.08 116.2   12 271  41  92
   2024 04 26 19:40  13 52 52.24    -05 23 10.6   0.0107 1.0170 169.6  m  21?   1.20 113.4   10 270  41  92
   2024 04 26 19:50  13 52 53.02    -05 23 15.4   0.0107 1.0170 169.6 Am  21?   1.31 111.1    8 268  41  92
   2024 04 26 20:00  13 52 53.88    -05 23 20.1   0.0107 1.0170 169.6 Am  21?   1.43 109.2    6 267  41  92
   2024 04 26 20:10  13 52 54.83    -05 23 24.9   0.0107 1.0170 169.6 Am  21?   1.56 107.6    4 266  41  92
   2024 04 26 20:20  13 52 55.87    -05 23 29.6   0.0107 1.0170 169.6 Nm  21?   1.68 106.3    2 264  41  92
   2024 04 26 20:30  13 52 56.99    -05 23 34.4   0.0107 1.0170 169.6 Nm  21?   1.80 105.1    0 263  41  92
   ................
   2024 04 27 08:10  13 55 40.13    -05 32 31.4   0.0107 1.0171 169.7 C   21?   1.93 123.0    2  95  48  88
   2024 04 27 08:20  13 55 41.17    -05 32 41.9   0.0107 1.0171 169.7 C   21?   1.82 125.3    4  94  48  88
   2024 04 27 08:30  13 55 42.12    -05 32 52.5   0.0107 1.0171 169.7 N   21?   1.72 127.7    6  92  48  88
   2024 04 27 08:40  13 55 42.99    -05 33 03.0   0.0107 1.0171 169.7 N   21?   1.62 130.5    8  91  48  88
   2024 04 27 08:50  13 55 43.77    -05 33 13.6   0.0107 1.0171 169.7 N   21?   1.52 133.6   10  89  48  88
   2024 04 27 09:00  13 55 44.46    -05 33 24.1   0.0107 1.0171 169.7 A   21?   1.43 137.1   12  88  48  88
   2024 04 27 09:10  13 55 45.07    -05 33 34.6   0.0107 1.0171 169.7 A   21?   1.35 141.0   14  86  49  88
   2024 04 27 09:20  13 55 45.59    -05 33 45.1   0.0107 1.0171 169.7 A   21?   1.27 145.3   16  85  49  88
   2024 04 27 09:30  13 55 46.03    -05 33 55.5   0.0107 1.0171 169.7     21?   1.20 150.1   18  84  49  88
   2024 04 27 09:40  13 55 46.39    -05 34 05.9   0.0107 1.0171 169.7     21?   1.14 155.3   20  82  49  88
   2024 04 27 09:50  13 55 46.67    -05 34 16.3   0.0107 1.0171 169.7     21?   1.09 160.9   22  80  49  88
   2024 04 27 10:00  13 55 46.87    -05 34 26.6   0.0107 1.0171 169.7  m  21?   1.06 166.9   24  79  49  88
   2024 04 27 10:10  13 55 46.99    -05 34 36.8   0.0107 1.0171 169.7  m  21?   1.03 173.1   26  77  49  88
   2024 04 27 10:20  13 55 47.03    -05 34 47.0   0.0107 1.0171 169.7  m  21?   1.02 179.4   28  76  49  88
   2024 04 27 10:30  13 55 47.00    -05 34 57.2   0.0107 1.0171 169.7  m  21?   1.01 185.6   30  74  49  87
   2024 04 27 10:40  13 55 46.90    -05 35 07.2   0.0107 1.0171 169.7  m  21?   1.02 191.6   32  72  49  87
   2024 04 27 10:50  13 55 46.72    -05 35 17.2   0.0107 1.0171 169.7  m  21?   1.04 197.2   34  70  50  87
   2024 04 27 11:00  13 55 46.48    -05 35 27.1   0.0107 1.0171 169.7  m  21?   1.07 202.5   36  68  50  87
   2024 04 27 11:10  13 55 46.18    -05 35 36.9   0.0107 1.0171 169.7  m  21?   1.10 207.3   38  66  50  87
   2024 04 27 11:20  13 55 45.80    -05 35 46.7   0.0107 1.0171 169.7  m  21?   1.14 211.6   40  64  50  87
   2024 04 27 11:30  13 55 45.37    -05 35 56.3   0.0107 1.0171 169.7  m  21?   1.18 215.5   42  62  50  87
   2024 04 27 11:40  13 55 44.88    -05 36 05.8   0.0107 1.0171 169.7  m  21?   1.22 219.0   44  60  50  87
   2024 04 27 11:50  13 55 44.34    -05 36 15.3   0.0107 1.0171 169.7  m  21?   1.27 222.0   45  57  50  87
   2024 04 27 12:00  13 55 43.75    -05 36 24.6   0.0107 1.0171 169.7  m  21?   1.31 224.8   47  54  50  87
   2024 04 27 12:10  13 55 43.10    -05 36 33.9   0.0107 1.0171 169.7  m  21?   1.35 227.2   49  52  50  87
   2024 04 27 12:20  13 55 42.41    -05 36 43.0   0.0107 1.0171 169.7  m  21?   1.40 229.3   50  49  50  87
   2024 04 27 12:30  13 55 41.68    -05 36 52.0   0.0107 1.0171 169.6  m  21?   1.43 231.3   52  46  51  87
   2024 04 27 12:40  13 55 40.91    -05 37 00.9   0.0107 1.0171 169.6  m  21?   1.47 233.0   53  42  51  87
   2024 04 27 12:50  13 55 40.11    -05 37 09.7   0.0107 1.0171 169.6  m  21?   1.50 234.5   55  38  51  87
   2024 04 27 13:00  13 55 39.27    -05 37 18.3   0.0107 1.0172 169.6  m  21?   1.53 235.8   56  35  51  87
   2024 04 27 13:10  13 55 38.41    -05 37 26.9   0.0107 1.0172 169.6  m  21?   1.56 237.0   57  31  51  87
   2024 04 27 13:20  13 55 37.52    -05 37 35.3   0.0107 1.0172 169.6  m  21?   1.58 238.0   58  26  51  87
   2024 04 27 13:30  13 55 36.61    -05 37 43.6   0.0107 1.0172 169.6  m  21?   1.60 238.9   59  22  51  87
   2024 04 27 13:40  13 55 35.68    -05 37 51.7   0.0107 1.0172 169.6  m  21?   1.61 239.7   60  17  51  87
   2024 04 27 13:50  13 55 34.74    -05 37 59.8   0.0107 1.0172 169.6  m  21?   1.62 240.4   60  12  51  87
   2024 04 27 14:00  13 55 33.80    -05 38 07.7   0.0106 1.0172 169.6  m  21?   1.62 241.0   61   7  51  87
   2024 04 27 14:10  13 55 32.84    -05 38 15.4   0.0106 1.0172 169.6  m  21?   1.62 241.5   61   2  51  86
   2024 04 27 14:20  13 55 31.89    -05 38 23.1   0.0106 1.0172 169.6  t  21?   1.62 241.9   61 357  51  86
   2024 04 27 14:30  13 55 30.93    -05 38 30.6   0.0106 1.0172 169.6  m  21?   1.60 242.2   60 351  51  86
   2024 04 27 14:40  13 55 29.98    -05 38 38.0   0.0106 1.0172 169.6  m  21?   1.59 242.4   60 346  52  86
   2024 04 27 14:50  13 55 29.05    -05 38 45.2   0.0106 1.0172 169.6  m  21?   1.57 242.6   60 341  52  86
   2024 04 27 15:00  13 55 28.12    -05 38 52.4   0.0106 1.0172 169.6  m  21?   1.54 242.6   59 337  52  86
   2024 04 27 15:10  13 55 27.21    -05 38 59.3   0.0107 1.0172 169.6  m  21?   1.51 242.5   58 332  52  86
   2024 04 27 15:20  13 55 26.33    -05 39 06.2   0.0107 1.0172 169.5  m  21?   1.47 242.3   57 328  52  86
   2024 04 27 15:30  13 55 25.47    -05 39 13.0   0.0107 1.0172 169.5  m  21?   1.43 242.0   56 324  52  86
   2024 04 27 15:40  13 55 24.63    -05 39 19.6   0.0107 1.0172 169.5  m  21?   1.38 241.6   55 320  52  86
   2024 04 27 15:50  13 55 23.83    -05 39 26.1   0.0107 1.0172 169.5  m  21?   1.33 241.0   53 316  52  86
   2024 04 27 16:00  13 55 23.07    -05 39 32.5   0.0107 1.0172 169.5  m  21?   1.28 240.3   52 313  52  86
   2024 04 27 16:10  13 55 22.34    -05 39 38.7   0.0107 1.0172 169.5  m  21?   1.22 239.4   50 310  52  86
   2024 04 27 16:20  13 55 21.66    -05 39 44.9   0.0107 1.0172 169.5  m  21?   1.16 238.2   49 307  52  86
   2024 04 27 16:30  13 55 21.02    -05 39 50.9   0.0107 1.0172 169.5  m  21?   1.09 236.7   47 304  52  86
   2024 04 27 16:40  13 55 20.43    -05 39 56.8   0.0107 1.0172 169.5  m  21?   1.03 234.9   45 301  52  86
   2024 04 27 16:50  13 55 19.90    -05 40 02.7   0.0107 1.0172 169.5  m  21?   0.95 232.7   43 299  52  86
   2024 04 27 17:00  13 55 19.42    -05 40 08.4   0.0107 1.0172 169.5  m  21?   0.88 229.9   42 297  52  86
   2024 04 27 17:10  13 55 18.99    -05 40 14.0   0.0107 1.0172 169.5  m  21?   0.81 226.4   40 294  52  86
   2024 04 27 17:20  13 55 18.63    -05 40 19.5   0.0107 1.0172 169.5  m  21?   0.74 221.9   38 292  53  86
   2024 04 27 17:30  13 55 18.33    -05 40 25.0   0.0107 1.0172 169.5  m  21?   0.67 216.3   36 290  53  86
   2024 04 27 17:40  13 55 18.10    -05 40 30.3   0.0107 1.0172 169.5  m  21?   0.61 209.1   34 288  53  86
   2024 04 27 17:50  13 55 17.93    -05 40 35.6   0.0107 1.0172 169.5  m  21?   0.56 200.2   32 287  53  86
   2024 04 27 18:00  13 55 17.84    -05 40 40.8   0.0107 1.0172 169.5  m  21?   0.52 189.4   30 285  53  86
   2024 04 27 18:10  13 55 17.82    -05 40 45.9   0.0107 1.0172 169.4  m  21?   0.51 177.2   28 283  53  86
   2024 04 27 18:20  13 55 17.87    -05 40 51.0   0.0107 1.0172 169.4  m  21?   0.52 164.7   26 281  53  86
   2024 04 27 18:30  13 55 18.00    -05 40 56.0   0.0107 1.0172 169.4  m  21?   0.56 153.0   24 280  53  86
   2024 04 27 18:40  13 55 18.21    -05 41 00.9   0.0107 1.0172 169.4  m  21?   0.62 142.9   22 278  53  86
   2024 04 27 18:50  13 55 18.50    -05 41 05.8   0.0107 1.0172 169.4  m  21?   0.69 134.6   20 277  53  86
   2024 04 27 19:00  13 55 18.87    -05 41 10.7   0.0107 1.0172 169.4  m  21?   0.78 128.1   18 275  53  86
   2024 04 27 19:10  13 55 19.32    -05 41 15.5   0.0107 1.0172 169.4  m  21?   0.88 122.9   16 274  53  86
   2024 04 27 19:20  13 55 19.86    -05 41 20.2   0.0107 1.0172 169.4  m  21?   0.99 118.7   14 272  53  85
   2024 04 27 19:30  13 55 20.48    -05 41 25.0   0.0107 1.0172 169.4  m  21?   1.10 115.4   12 271  53  85
   2024 04 27 19:40  13 55 21.18    -05 41 29.7   0.0107 1.0172 169.4  m  21?   1.21 112.7   10 269  53  85
   2024 04 27 19:50  13 55 21.97    -05 41 34.4   0.0107 1.0172 169.4  m  21?   1.33 110.5    8 268  53  85
   2024 04 27 20:00  13 55 22.85    -05 41 39.1   0.0107 1.0172 169.4 Am  21?   1.45 108.7    6 267  53  85
   2024 04 27 20:10  13 55 23.82    -05 41 43.7   0.0107 1.0172 169.4 Am  21?   1.58 107.1    3 265  53  85
   2024 04 27 20:20  13 55 24.87    -05 41 48.4   0.0107 1.0172 169.4 Nm  21?   1.70 105.8    1 264  54  85
   2024 04 27 20:30  13 55 26.01    -05 41 53.1   0.0107 1.0172 169.4 Nm  21?   1.83 104.8    0 262  54  85
   ................
   

MMS-1 (JPL-ID: -140482)

   Date (UTC) HH:MM   RA              Dec         delta   r     elong SM  mag  '/hr    PA   alt  az moo ill
   ---- -- -- -----  -------------   -----------  ------ ------ ----- --  --- ------ ------ --- --- --- ---
   2024 04 14 16:30  22 49 45.27    -28 12 18.9   172138 1.0025  54.5  r  15?  37.43  79.3    0 125 128  38
   2024 04 14 16:40  22 50 12.67    -28 11 10.5   172304 1.0025  54.4     15?  36.23  79.3    1 123 128  38
   2024 04 14 16:50  22 50 39.15    -28 10 03.8   172463 1.0025  54.3     15?  35.03  79.1    2 122 128  38
   2024 04 14 17:00  22 51 04.72    -28 08 58.4   172615 1.0025  54.2     15?  33.82  79.0    4 121 128  38
   2024 04 14 17:10  22 51 29.38    -28 07 54.2   172760 1.0025  54.1     15?  32.61  78.7    6 120 128  38
   2024 04 14 17:20  22 51 53.11    -28 06 50.9   172899 1.0025  54.1     15?  31.40  78.5    7 118 128  38
   2024 04 14 17:30  22 52 15.91    -28 05 48.4   173032 1.0025  54.0     15?  30.19  78.1    9 117 128  38
   2024 04 14 17:40  22 52 37.78    -28 04 46.4   173160 1.0025  53.9     15?  28.98  77.7   11 116 128  39
   2024 04 14 17:50  22 52 58.72    -28 03 44.7   173282 1.0025  53.9     15?  27.78  77.2   13 115 128  39
   2024 04 14 18:00  22 53 18.74    -28 02 43.1   173399 1.0025  53.8     15?  26.59  76.6   14 113 128  39
   2024 04 14 18:10  22 53 37.83    -28 01 41.4   173511 1.0025  53.7     15?  25.41  75.9   16 112 128  39
   2024 04 14 18:20  22 53 55.99    -28 00 39.3   173620 1.0025  53.7     15?  24.24  75.1   18 111 128  39
   2024 04 14 18:30  22 54 13.24    -27 59 36.6   173725 1.0025  53.6     15?  23.10  74.2   20 110 128  39
   2024 04 14 18:40  22 54 29.57    -27 58 33.1   173826 1.0025  53.6     15?  21.97  73.1   22 109 128  39
   2024 04 14 18:50  22 54 45.00    -27 57 28.6   173924 1.0025  53.5     15?  20.87  71.8   24 108 128  39
   2024 04 14 19:00  22 54 59.54    -27 56 22.9   174020 1.0025  53.5     15?  19.80  70.4   26 107 128  39
   2024 04 14 19:10  22 55 13.19    -27 55 15.7   174113 1.0025  53.4     15?  18.76  68.8   28 105 128  39
   2024 04 14 19:20  22 55 25.96    -27 54 06.8   174204 1.0025  53.4     15?  17.77  66.9   29 104 128  40
   2024 04 14 19:30  22 55 37.88    -27 52 56.1   174294 1.0025  53.4     15?  16.82  64.8   31 103 128  40
   2024 04 14 19:40  22 55 48.96    -27 51 43.2   174382 1.0025  53.3     15?  15.93  62.4   33 102 128  40
   2024 04 14 19:50  22 55 59.20    -27 50 28.1   174470 1.0025  53.3 A   15?  15.09  59.7   35 101 128  40
   2024 04 14 20:00  22 56 08.64    -27 49 10.5   174557 1.0025  53.3 A   15?  14.33  56.7   37 100 128  40
   2024 04 14 20:10  22 56 17.28    -27 47 50.2   174644 1.0025  53.2 A   15?  13.64  53.3   39  99 129  40
   2024 04 14 20:20  22 56 25.15    -27 46 27.0   174731 1.0025  53.2 N   15?  13.04  49.6   41  98 129  40
   2024 04 14 20:30  22 56 32.28    -27 45 00.8   174819 1.0025  53.2 N   15?  12.53  45.6   43  96 129  40
   2024 04 14 20:40  22 56 38.68    -27 43 31.3   174908 1.0025  53.1 C   15?  12.12  41.4   45  95 129  40
   2024 04 14 20:50  22 56 44.38    -27 41 58.4   174997 1.0025  53.1 C   15?  11.82  36.9   47  94 129  40
   2024 04 14 21:00  22 56 49.40    -27 40 21.9   175088 1.0025  53.1 C   15?  11.62  32.4   49  93 129  40
   ................
   2024 04 15 17:40  23 33 38.11    -20 37 47.3   179288 1.0026  42.9  r  15?  33.49  69.1    0 115 128  48
   2024 04 15 17:50  23 34 00.03    -20 35 47.4   178841 1.0026  42.8     15?  32.59  68.5    1 113 128  49
   2024 04 15 18:00  23 34 21.25    -20 33 47.5   178388 1.0026  42.7     15?  31.68  67.8    3 112 128  49
   2024 04 15 18:10  23 34 41.75    -20 31 47.5   177929 1.0026  42.7     15?  30.76  67.1    5 110 128  49
   2024 04 15 18:20  23 35 01.54    -20 29 47.0   177465 1.0026  42.6     15?  29.85  66.2    7 109 128  49
   2024 04 15 18:30  23 35 20.60    -20 27 46.1   176996 1.0026  42.5     15?  28.95  65.3    9 108 128  49
   2024 04 15 18:40  23 35 38.92    -20 25 44.5   176522 1.0026  42.5     15?  28.05  64.3   11 107 128  49
   2024 04 15 18:50  23 35 56.51    -20 23 42.0   176044 1.0026  42.4     15?  27.16  63.2   13 105 129  49
   2024 04 15 19:00  23 36 13.35    -20 21 38.5   175562 1.0026  42.3     15?  26.29  61.9   14 104 129  49
   2024 04 15 19:10  23 36 29.45    -20 19 33.8   175076 1.0026  42.3     15?  25.43  60.5   16 103 129  49
   2024 04 15 19:20  23 36 44.80    -20 17 27.7   174588 1.0026  42.2     15?  24.60  59.0   18 101 129  49
   2024 04 15 19:30  23 36 59.40    -20 15 20.0   174096 1.0026  42.1     15?  23.80  57.4   20 100 129  49
   2024 04 15 19:40  23 37 13.25    -20 13 10.6   173602 1.0026  42.1     15?  23.03  55.6   22  99 129  50
   2024 04 15 19:50  23 37 26.36    -20 10 59.2   173106 1.0026  42.0 A   15?  22.30  53.7   24  98 129  50
   2024 04 15 20:00  23 37 38.73    -20 08 45.8   172608 1.0026  42.0 A   15?  21.61  51.6   26  96 129  50
   2024 04 15 20:10  23 37 50.37    -20 06 30.0   172109 1.0026  41.9 A   15?  20.97  49.4   28  95 129  50
   2024 04 15 20:20  23 38 01.28    -20 04 11.8   171609 1.0026  41.9 N   15?  20.39  47.0   30  94 129  50
   2024 04 15 20:30  23 38 11.47    -20 01 50.9   171108 1.0026  41.8 N   15?  19.86  44.4   32  92 129  50
   2024 04 15 20:40  23 38 20.96    -19 59 27.3   170607 1.0026  41.8 N   15?  19.40  41.7   34  91 129  50
   2024 04 15 20:50  23 38 29.74    -19 57 00.6   170106 1.0026  41.7 C   15?  19.00  38.9   36  89 129  50
   2024 04 15 21:00  23 38 37.85    -19 54 30.8   169605 1.0026  41.7 C   15?  18.68  36.0   38  88 129  50
   ................
   2024 04 16 20:10  01 08 32.81    +00 17 20.7    68957 1.0033  12.8 Ar  14? 250.24  46.8    0  89 112  59
   2024 04 16 20:20  01 10 36.39    +00 46 37.2    67303 1.0033  12.1 N   14? 261.29  46.4    1  88 112  60
   ................
   2024 04 17 15:30  22 14 22.65    -32 54 10.2   127959 1.0037  66.1  r  14?  64.09  81.3    0 130 163  66
   2024 04 17 15:40  22 15 12.16    -32 52 35.6   128592 1.0037  65.9     14?  62.01  81.3    1 129 163  67
   2024 04 17 15:50  22 16 00.02    -32 51 03.7   129213 1.0037  65.8     14?  59.95  81.2    3 128 163  67
   2024 04 17 16:00  22 16 46.26    -32 49 34.1   129824 1.0037  65.6     14?  57.91  81.1    4 126 163  67
   2024 04 17 16:10  22 17 30.88    -32 48 06.8   130425 1.0037  65.5     14?  55.90  81.0    6 125 162  67
   2024 04 17 16:20  22 18 13.90    -32 46 41.3   131016 1.0037  65.3     14?  53.90  80.9    7 124 162  67
   2024 04 17 16:30  22 18 55.34    -32 45 17.3   131598 1.0037  65.2     14?  51.93  80.7    9 123 162  67
   2024 04 17 16:40  22 19 35.22    -32 43 54.6   132171 1.0036  65.1     14?  49.99  80.4   11 122 162  67
   2024 04 17 16:50  22 20 13.54    -32 42 32.9   132735 1.0036  65.0     14?  48.07  80.2   12 120 162  67
   2024 04 17 17:00  22 20 50.33    -32 41 11.8   133290 1.0036  64.8     14?  46.18  79.8   14 119 162  67
   2024 04 17 17:10  22 21 25.62    -32 39 51.2   133838 1.0036  64.7     14?  44.32  79.4   16 118 162  67
   2024 04 17 17:20  22 21 59.41    -32 38 30.6   134378 1.0036  64.6     14?  42.50  79.0   17 117 162  67
   2024 04 17 17:30  22 22 31.73    -32 37 09.8   134911 1.0036  64.5     14?  40.70  78.4   19 116 162  67
   2024 04 17 17:40  22 23 02.60    -32 35 48.6   135437 1.0036  64.4     14?  38.95  77.8   21 115 162  67
   2024 04 17 17:50  22 23 32.05    -32 34 26.5   135957 1.0036  64.3     14?  37.23  77.1   23 114 162  67
   2024 04 17 18:00  22 24 00.09    -32 33 03.4   136471 1.0036  64.3     14?  35.56  76.3   24 113 162  67
   2024 04 17 18:10  22 24 26.76    -32 31 39.0   136979 1.0036  64.2     14?  33.93  75.3   26 112 162  68
   2024 04 17 18:20  22 24 52.08    -32 30 13.0   137482 1.0036  64.1     14?  32.36  74.3   28 111 162  68
   2024 04 17 18:30  22 25 16.08    -32 28 45.0   137980 1.0036  64.0     14?  30.83  73.1   30 110 162  68
   2024 04 17 18:40  22 25 38.79    -32 27 14.9   138474 1.0036  63.9     14?  29.37  71.8   32 109 162  68
   2024 04 17 18:50  22 26 00.24    -32 25 42.4   138964 1.0036  63.9     14?  27.97  70.3   34 108 162  68
   2024 04 17 19:00  22 26 20.46    -32 24 07.2   139450 1.0036  63.8     14?  26.63  68.6   35 107 162  68
   2024 04 17 19:10  22 26 39.48    -32 22 29.1   139932 1.0036  63.7     14?  25.37  66.8   37 106 162  68
   2024 04 17 19:20  22 26 57.34    -32 20 47.8   140412 1.0036  63.7     14?  24.19  64.7   39 105 162  68
   2024 04 17 19:30  22 27 14.07    -32 19 03.0   140889 1.0036  63.6     14?  23.09  62.4   41 104 162  68
   2024 04 17 19:40  22 27 29.71    -32 17 14.7   141364 1.0036  63.6     14?  22.09  59.9   43 103 162  68
   2024 04 17 19:50  22 27 44.30    -32 15 22.5   141837 1.0036  63.5 A   14?  21.18  57.3   45 102 162  68
   2024 04 17 20:00  22 27 57.88    -32 13 26.2   142308 1.0036  63.5 A   14?  20.37  54.4   47 101 162  68
   2024 04 17 20:10  22 28 10.48    -32 11 25.6   142779 1.0036  63.4 A   14?  19.67  51.3   49 100 162  69
   2024 04 17 20:20  22 28 22.14    -32 09 20.6   143248 1.0036  63.4 N   14?  19.09  48.1   51  99 162  69
   2024 04 17 20:30  22 28 32.92    -32 07 11.0   143717 1.0036  63.3 N   14?  18.62  44.7   53  98 162  69
   2024 04 17 20:40  22 28 42.84    -32 04 56.5   144186 1.0036  63.3 N   14?  18.26  41.3   55  97 162  69
   2024 04 17 20:50  22 28 51.97    -32 02 37.1   144655 1.0036  63.2 C   14?  18.01  37.9   57  96 162  69
   2024 04 17 21:00  22 29 00.33    -32 00 12.6   145124 1.0036  63.2 C   14?  17.88  34.5   59  95 162  69
   ................
   2024 04 18 16:50  23 11 40.36    -24 36 28.7   186552 1.0035  52.0  r  15?  31.57  75.4    0 120 163  76
   2024 04 18 17:00  23 12 02.41    -24 35 09.6   186418 1.0035  51.9     15?  30.56  75.1    1 119 163  76
   2024 04 18 17:10  23 12 23.71    -24 33 51.4   186278 1.0035  51.8     15?  29.55  74.8    3 117 163  76
   2024 04 18 17:20  23 12 44.25    -24 32 33.9   186132 1.0035  51.8     15?  28.53  74.4    4 116 163  76
   2024 04 18 17:30  23 13 04.02    -24 31 16.9   185980 1.0035  51.7     15?  27.51  73.9    6 115 163  76
   2024 04 18 17:40  23 13 23.02    -24 30 00.3   185824 1.0035  51.7     15?  26.49  73.3    8 113 163  76
   2024 04 18 17:50  23 13 41.23    -24 28 43.9   185662 1.0035  51.6     15?  25.47  72.6   10 112 163  76
   2024 04 18 18:00  23 13 58.66    -24 27 27.4   185495 1.0035  51.5     15?  24.46  71.8   12 111 163  76
   2024 04 18 18:10  23 14 15.31    -24 26 10.7   185325 1.0035  51.5     15?  23.45  71.0   13 110 163  76
   2024 04 18 18:20  23 14 31.16    -24 24 53.7   185150 1.0035  51.4     15?  22.45  70.0   15 108 163  76
   2024 04 18 18:30  23 14 46.23    -24 23 36.1   184973 1.0035  51.4     15?  21.47  68.8   17 107 163  76
   2024 04 18 18:40  23 15 00.51    -24 22 17.7   184792 1.0035  51.3     15?  20.51  67.5   19 106 163  76
   2024 04 18 18:50  23 15 14.00    -24 20 58.3   184608 1.0035  51.3     15?  19.57  66.0   21 105 163  76
   2024 04 18 19:00  23 15 26.72    -24 19 37.8   184423 1.0035  51.2     15?  18.66  64.4   23 104 163  76
   2024 04 18 19:10  23 15 38.66    -24 18 16.0   184235 1.0035  51.2     15?  17.78  62.5   25 102 163  76
   2024 04 18 19:20  23 15 49.83    -24 16 52.7   184046 1.0035  51.1     15?  16.94  60.4   27 101 163  76
   2024 04 18 19:30  23 16 00.23    -24 15 27.6   183855 1.0035  51.1     15?  16.14  58.0   29 100 163  77
   2024 04 18 19:40  23 16 09.89    -24 14 00.7   183664 1.0035  51.1     15?  15.40  55.4   31  99 163  77
   2024 04 18 19:50  23 16 18.81    -24 12 31.7   183472 1.0035  51.0 A   15?  14.72  52.5   33  98 163  77
   2024 04 18 20:00  23 16 27.00    -24 11 00.4   183280 1.0035  51.0 A   15?  14.10  49.3   35  96 163  77
   2024 04 18 20:10  23 16 34.47    -24 09 26.7   183088 1.0035  51.0 A   15?  13.56  45.8   37  95 163  77
   2024 04 18 20:20  23 16 41.25    -24 07 50.4   182897 1.0035  50.9 N   15?  13.09  42.1   39  94 163  77
   2024 04 18 20:30  23 16 47.34    -24 06 11.4   182707 1.0035  50.9 N   15?  12.72  38.2   41  92 163  77
   2024 04 18 20:40  23 16 52.77    -24 04 29.3   182518 1.0035  50.9 N   15?  12.43  34.1   43  91 163  77
   2024 04 18 20:50  23 16 57.55    -24 02 44.2   182331 1.0035  50.9 C   15?  12.24  29.9   45  90 163  77
   2024 04 18 21:00  23 17 01.71    -24 00 55.8   182145 1.0035  50.8 C   15?  12.15  25.6   47  88 163  77
   ................
   2024 04 19 18:10  23 58 35.87    -15 25 11.0   149567 1.0038  38.6  r  15?  47.62  59.4    1 107 164  83
   2024 04 19 18:20  23 59 03.90    -15 21 06.1   148770 1.0038  38.5     15?  46.95  58.5    2 106 164  84
   2024 04 19 18:30  23 59 31.26    -15 16 58.5   147967 1.0038  38.4     15?  46.29  57.6    4 105 164  84
   2024 04 19 18:40  23 59 57.96    -15 12 48.1   147157 1.0038  38.2     15?  45.64  56.7    6 103 164  84
   2024 04 19 18:50  00 00 23.98    -15 08 34.7   146341 1.0038  38.1     15?  45.01  55.6    8 102 164  84
   2024 04 19 19:00  00 00 49.30    -15 04 18.0   145518 1.0038  38.0     15?  44.38  54.6   10 101 164  84
   2024 04 19 19:10  00 01 13.93    -14 59 57.8   144691 1.0038  37.9     15?  43.78  53.4   12  99 164  84
   2024 04 19 19:20  00 01 37.86    -14 55 33.9   143858 1.0038  37.8     15?  43.21  52.2   14  98 164  84
   2024 04 19 19:30  00 02 01.08    -14 51 06.1   143020 1.0038  37.7     15?  42.66  51.0   16  97 164  84
   2024 04 19 19:40  00 02 23.58    -14 46 34.1   142177 1.0038  37.6     15?  42.15  49.6   18  95 164  84
   2024 04 19 19:50  00 02 45.37    -14 41 57.8   141330 1.0038  37.4 A   15?  41.67  48.2   19  94 164  84
   2024 04 19 20:00  00 03 06.45    -14 37 16.8   140479 1.0038  37.3 A   15?  41.23  46.8   21  92 164  84
   2024 04 19 20:10  00 03 26.81    -14 32 30.9   139625 1.0038  37.2 A   15?  40.83  45.3   23  91 164  84
   2024 04 19 20:20  00 03 46.46    -14 27 40.0   138767 1.0038  37.1 N   15?  40.49  43.8   25  90 164  84
   2024 04 19 20:30  00 04 05.39    -14 22 43.7   137906 1.0038  37.0 N   15?  40.19  42.2   27  88 164  84
   2024 04 19 20:40  00 04 23.63    -14 17 41.8   137043 1.0038  36.9 N   15?  39.96  40.6   29  87 164  84
   2024 04 19 20:50  00 04 41.16    -14 12 34.1   136177 1.0039  36.8 C   15?  39.78  38.9   31  85 164  84
   2024 04 19 21:00  00 04 58.01    -14 07 20.4   135308 1.0039  36.7 C   15?  39.66  37.2   33  83 164  84
   ................
   2024 04 20 13:50  12 54 11.46    +40 44 34.8     5589 1.0048 125.7  r   7?  18781 137.4   14 358  39  89
   2024 04 20 14:00  15 07 24.41    +00 59 43.6     6088 1.0048 157.7  t   8?  14503 143.7   45  42  52  89
   2024 04 20 14:10  16 22 12.97    -21 14 45.1     8653 1.0049 143.3  e   9? 7157.4 135.6   48  83  74  89
   2024 04 20 14:20  17 11 57.97    -31 08 13.1    11673 1.0049 130.5  m   9? 4035.9 126.7   44 101  87  89
   2024 04 20 14:30  17 48 13.02    -36 05 02.7    14674 1.0049 122.1  m   9? 2633.8 119.2   40 110  95  89
   2024 04 20 14:40  18 16 05.99    -38 50 22.6    17554 1.0049 116.3  m  10? 1893.1 113.2   38 115 100  89
   2024 04 20 14:50  18 38 21.03    -40 29 10.1    20298 1.0049 111.9  m  10? 1450.0 108.3   36 118 104  89
   2024 04 20 15:00  18 56 35.85    -41 30 46.2    22913 1.0049 108.4  m  10? 1160.3 104.4   35 119 107  89
   2024 04 20 15:10  19 11 52.89    -42 10 01.7    25410 1.0049 105.6  m  10? 958.19 101.0   34 120 110  89
   2024 04 20 15:20  19 24 54.22    -42 35 07.2    27801 1.0049 103.2  m  10? 810.19  98.2   34 121 112  89
   2024 04 20 15:30  19 36 09.24    -42 50 51.1    30096 1.0049 101.2  m  10? 697.65  95.8   34 122 114  89
   2024 04 20 15:40  19 45 59.23    -43 00 11.9    32306 1.0049  99.4  m  10? 609.50  93.7   34 122 116  89
   2024 04 20 15:50  19 54 39.95    -43 05 04.6    34436 1.0049  97.9  m  11? 538.76  91.8   34 122 117  89
   2024 04 20 16:00  20 02 23.39    -43 06 45.8    36496 1.0049  96.5  m  11? 480.84  90.1   34 122 118  89
   2024 04 20 16:10  20 09 18.80    -43 06 07.8    38490 1.0049  95.3  m  11? 432.63  88.6   35 121 119  89
   2024 04 20 16:20  20 15 33.47    -43 03 47.4    40424 1.0048  94.1  m  11? 391.93  87.1   36 121 120  89
   2024 04 20 16:30  20 21 13.23    -43 00 10.8    42303 1.0048  93.1  m  11? 357.15  85.8   36 121 121  89
   2024 04 20 16:40  20 26 22.79    -42 55 36.9    44130 1.0048  92.2  m  11? 327.12  84.6   37 120 122  89
   2024 04 20 16:50  20 31 06.01    -42 50 19.6    45910 1.0048  91.3  m  11? 300.95  83.4   38 120 123  89
   2024 04 20 17:00  20 35 26.10    -42 44 29.3    47645 1.0048  90.6  m  11? 277.97  82.3   39 119 123  89
   2024 04 20 17:10  20 39 25.72    -42 38 13.7    49339 1.0048  89.8  m  11? 257.65  81.2   40 119 124  90
   2024 04 20 17:20  20 43 07.14    -42 31 38.5    50994 1.0048  89.1  m  11? 239.57  80.1   41 118 125  90
   2024 04 20 17:30  20 46 32.28    -42 24 48.2    52612 1.0048  88.5  m  11? 223.41  79.0   42 118 125  90
   2024 04 20 17:40  20 49 42.80    -42 17 46.1    54196 1.0048  87.9  m  11? 208.88  78.0   44 117 126  90
   2024 04 20 17:50  20 52 40.11    -42 10 34.6    55749 1.0048  87.4  m  11? 195.78  76.9   45 117 126  90
   2024 04 20 18:00  20 55 25.47    -42 03 15.8    57270 1.0048  86.9  m  11? 183.92  75.9   46 116 126  90
   2024 04 20 18:10  20 57 59.95    -41 55 51.1    58763 1.0048  86.4  m  12? 173.16  74.8   48 116 127  90
   2024 04 20 18:20  21 00 24.51    -41 48 21.5    60230 1.0048  85.9  m  12? 163.37  73.7   49 115 127  90
   2024 04 20 18:30  21 02 40.01    -41 40 47.8    61671 1.0048  85.5     12? 154.44  72.6   50 115 128  90
   2024 04 20 18:40  21 04 47.19    -41 33 10.6    63087 1.0048  85.1     12? 146.29  71.5   52 115 128  90
   2024 04 20 18:50  21 06 46.73    -41 25 30.4    64482 1.0048  84.7     12? 138.83  70.3   53 114 128  90
   2024 04 20 19:00  21 08 39.24    -41 17 47.3    65855 1.0048  84.3     12? 132.01  69.2   55 114 128  90
   2024 04 20 19:10  21 10 25.27    -41 10 01.7    67207 1.0048  84.0     12? 125.77  68.0   56 113 129  90
   2024 04 20 19:20  21 12 05.32    -41 02 13.5    68541 1.0048  83.6     12? 120.05  66.7   58 113 129  90
   2024 04 20 19:30  21 13 39.83    -40 54 22.9    69856 1.0048  83.3     12? 114.82  65.5   60 113 129  90
   2024 04 20 19:40  21 15 09.23    -40 46 29.9    71154 1.0048  83.0     12? 110.03  64.2   61 112 129  90
   2024 04 20 19:50  21 16 33.89    -40 38 34.5    72437 1.0048  82.7 A   12? 105.65  62.9   63 112 130  90
   2024 04 20 20:00  21 17 54.16    -40 30 36.5    73704 1.0048  82.4 A   12? 101.66  61.6   64 112 130  90
   2024 04 20 20:10  21 19 10.37    -40 22 36.1    74956 1.0048  82.2 A   12?  98.01  60.3   66 112 130  90
   2024 04 20 20:20  21 20 22.81    -40 14 33.1    76195 1.0048  81.9 N   12?  94.70  59.0   68 112 130  90
   2024 04 20 20:30  21 21 31.78    -40 06 27.5    77421 1.0048  81.7 N   12?  91.69  57.6   69 112 130  90
   2024 04 20 20:40  21 22 37.51    -39 58 19.2    78635 1.0048  81.4 N   12?  88.96  56.3   71 113 131  90
   2024 04 20 20:50  21 23 40.27    -39 50 08.2    79838 1.0048  81.2 C   12?  86.49  55.0   73 114 131  90
   2024 04 20 21:00  21 24 40.26    -39 41 54.5    81029 1.0048  81.0 C   12?  84.27  53.7   75 115 131  90
   ................
   2024 04 21 16:00  22 47 50.69    -28 28 56.0   169384 1.0046  61.3  r  15?  38.49  78.9    0 125 142  94
   2024 04 21 16:10  22 48 18.85    -28 27 43.4   169583 1.0046  61.2  m  15?  37.26  78.8    1 124 142  94
   2024 04 21 16:20  22 48 46.07    -28 26 32.3   169774 1.0046  61.1  m  15?  36.02  78.7    2 122 142  94
   2024 04 21 16:30  22 49 12.36    -28 25 22.8   169959 1.0046  61.0  m  15?  34.78  78.5    4 121 142  94
   2024 04 21 16:40  22 49 37.69    -28 24 14.4   170136 1.0046  60.9  m  15?  33.54  78.3    6 120 143  94
   2024 04 21 16:50  22 50 02.08    -28 23 07.1   170308 1.0046  60.8  m  15?  32.30  78.0    7 119 143  94
   2024 04 21 17:00  22 50 25.51    -28 22 00.5   170473 1.0045  60.8  m  15?  31.06  77.6    9 117 143  94
   2024 04 21 17:10  22 50 47.99    -28 20 54.5   170632 1.0045  60.7  m  15?  29.83  77.2   11 116 143  94
   2024 04 21 17:20  22 51 09.52    -28 19 48.8   170786 1.0045  60.6  m  15?  28.60  76.7   13 115 143  94
   2024 04 21 17:30  22 51 30.10    -28 18 43.2   170934 1.0045  60.6  m  15?  27.38  76.1   14 114 143  95
   2024 04 21 17:40  22 51 49.72    -28 17 37.6   171079 1.0045  60.5  m  15?  26.18  75.3   16 113 143  95
   2024 04 21 17:50  22 52 08.40    -28 16 31.5   171218 1.0045  60.4  m  15?  24.99  74.5   18 111 143  95
   2024 04 21 18:00  22 52 26.15    -28 15 24.9   171354 1.0045  60.4  m  15?  23.82  73.6   20 110 142  95
   2024 04 21 18:10  22 52 42.95    -28 14 17.5   171487 1.0045  60.3  m  15?  22.68  72.5   22 109 142  95
   2024 04 21 18:20  22 52 58.84    -28 13 09.1   171616 1.0045  60.3  m  15?  21.56  71.3   24 108 142  95
   2024 04 21 18:30  22 53 13.81    -28 11 59.5   171742 1.0045  60.2  m  15?  20.47  69.8   26 107 142  95
   2024 04 21 18:40  22 53 27.87    -28 10 48.4   171866 1.0045  60.2  m  15?  19.42  68.2   28 106 142  95
   2024 04 21 18:50  22 53 41.04    -28 09 35.6   171988 1.0045  60.1  m  15?  18.42  66.3   29 105 142  95
   2024 04 21 19:00  22 53 53.34    -28 08 21.0   172108 1.0045  60.1  m  15?  17.46  64.2   31 104 142  95
   2024 04 21 19:10  22 54 04.78    -28 07 04.2   172227 1.0045  60.0  m  15?  16.55  61.8   33 102 142  95
   2024 04 21 19:20  22 54 15.37    -28 05 45.1   172345 1.0045  60.0     15?  15.71  59.2   35 101 142  95
   2024 04 21 19:30  22 54 25.13    -28 04 23.6   172462 1.0045  60.0     15?  14.94  56.2   37 100 142  95
   2024 04 21 19:40  22 54 34.09    -28 02 59.3   172579 1.0045  59.9     15?  14.24  52.9   39  99 142  95
   2024 04 21 19:50  22 54 42.26    -28 01 32.1   172696 1.0045  59.9 A   15?  13.63  49.3   41  98 142  95
   2024 04 21 20:00  22 54 49.67    -28 00 01.8   172813 1.0045  59.9 A   15?  13.12  45.4   43  97 142  95
   2024 04 21 20:10  22 54 56.34    -27 58 28.2   172931 1.0045  59.8 A   15?  12.70  41.3   45  96 142  95
   2024 04 21 20:20  22 55 02.30    -27 56 51.2   173050 1.0045  59.8 N   15?  12.39  37.0   47  94 142  95
   2024 04 21 20:30  22 55 07.57    -27 55 10.6   173170 1.0045  59.8 N   15?  12.18  32.6   49  93 142  95
   2024 04 21 20:40  22 55 12.18    -27 53 26.2   173292 1.0045  59.8 N   15?  12.08  28.2   51  92 142  95
   2024 04 21 20:50  22 55 16.16    -27 51 37.8   173416 1.0045  59.7 C   15?  12.08  23.9   53  90 142  95
   2024 04 21 21:00  22 55 19.55    -27 49 45.4   173543 1.0045  59.7 C   15?  12.18  19.8   55  89 142  95
   ................
   2024 04 22 17:10  23 32 00.73    -20 46 35.6   180831 1.0046  49.6  r  15?  33.10  68.9    0 115 143  98
   2024 04 22 17:20  23 32 22.44    -20 44 36.1   180414 1.0046  49.5  m  15?  32.19  68.3    1 113 143  98
   2024 04 22 17:30  23 32 43.44    -20 42 36.7   179990 1.0046  49.4  m  15?  31.28  67.7    3 112 143  98
   2024 04 22 17:40  23 33 03.73    -20 40 37.2   179561 1.0046  49.3  m  15?  30.37  66.9    5 111 143  98
   2024 04 22 17:50  23 33 23.30    -20 38 37.3   179127 1.0046  49.3  m  15?  29.45  66.1    7 109 143  98
   2024 04 22 18:00  23 33 42.14    -20 36 37.1   178687 1.0046  49.2  m  15?  28.54  65.2    9 108 144  98
   2024 04 22 18:10  23 34 00.25    -20 34 36.2   178243 1.0046  49.1  m  15?  27.64  64.1   11 107 144  98
   2024 04 22 18:20  23 34 17.61    -20 32 34.5   177795 1.0046  49.0  m  15?  26.75  63.0   12 106 144  98
   2024 04 22 18:30  23 34 34.24    -20 30 31.8   177343 1.0046  49.0  m  15?  25.88  61.7   14 104 144  98
   2024 04 22 18:40  23 34 50.12    -20 28 28.0   176888 1.0046  48.9  m  15?  25.03  60.4   16 103 144  98
   2024 04 22 18:50  23 35 05.25    -20 26 22.8   176429 1.0046  48.9  m  15?  24.20  58.8   18 102 144  98
   2024 04 22 19:00  23 35 19.64    -20 24 16.2   175967 1.0046  48.8  m  15?  23.39  57.2   20 100 144  98
   2024 04 22 19:10  23 35 33.28    -20 22 07.8   175504 1.0046  48.7  m  15?  22.62  55.4   22  99 144  98
   2024 04 22 19:20  23 35 46.18    -20 19 57.6   175038 1.0046  48.7  m  15?  21.89  53.4   24  98 143  98
   2024 04 22 19:30  23 35 58.34    -20 17 45.4   174570 1.0046  48.6  m  15?  21.21  51.3   26  97 143  98
   2024 04 22 19:40  23 36 09.77    -20 15 31.0   174101 1.0046  48.6  m  15?  20.57  49.0   28  95 143  98
   2024 04 22 19:50  23 36 20.47    -20 13 14.2   173632 1.0046  48.5 Am  15?  19.98  46.6   30  94 143  98
   2024 04 22 20:00  23 36 30.46    -20 10 54.8   173161 1.0046  48.5 Am  15?  19.46  44.0   32  93 143  98
   2024 04 22 20:10  23 36 39.75    -20 08 32.7   172691 1.0046  48.4 Am  15?  19.00  41.3   34  91 143  98
   2024 04 22 20:20  23 36 48.34    -20 06 07.7   172220 1.0046  48.4 N   15?  18.61  38.5   36  90 143  98
   2024 04 22 20:30  23 36 56.25    -20 03 39.7   171750 1.0046  48.3 N   15?  18.29  35.5   38  88 143  98
   2024 04 22 20:40  23 37 03.49    -20 01 08.4   171281 1.0046  48.3 N   15?  18.05  32.5   40  87 143  98
   2024 04 22 20:50  23 37 10.08    -19 58 33.7   170812 1.0046  48.3 C   15?  17.88  29.5   42  85 143  98
   2024 04 22 21:00  23 37 16.05    -19 55 55.4   170346 1.0046  48.2 C   15?  17.79  26.4   44  84 143  98
   2024 04 22 21:10  23 37 21.39    -19 53 13.5   169880 1.0046  48.2 C   15?  17.77  23.5   46  82 143  98
   ................
   2024 04 23 19:20  00 54 05.25    -02 39 39.0    81695 1.0052  23.6  r  14? 176.64  47.5    0  93 158  99
   2024 04 23 19:30  00 55 33.10    -02 19 19.2    80207 1.0052  23.1  m  14? 181.77  47.0    1  91 159  99
   2024 04 23 19:40  00 57 02.74    -01 58 10.1    78703 1.0052  22.6  m  14? 187.32  46.4    2  90 159  99
   2024 04 23 19:50  00 58 34.33    -01 36 08.2    77183 1.0052  22.1 Am  14? 193.32  45.9    4  88 159  99
   2024 04 23 20:00  01 00 08.04    -01 13 09.7    75647 1.0052  21.5 Am  14? 199.83  45.3    6  87 160  99
   2024 04 23 20:10  01 01 44.08    -00 49 10.2    74095 1.0052  21.0 Am  14? 206.89  44.8    7  85 160  99
   2024 04 23 20:20  01 03 22.68    -00 24 05.1    72526 1.0052  20.4 Nm  14? 214.56  44.3    9  84 161  99
   2024 04 23 20:30  01 05 04.09    +00 02 10.7    70941 1.0052  19.8 Nm  14? 222.92  43.8   10  82 161  99
   2024 04 23 20:40  01 06 48.60    +00 29 43.0    69338 1.0052  19.2 Nm  14? 232.04  43.3   11  80 162  99
   2024 04 23 20:50  01 08 36.54    +00 58 38.1    67718 1.0052  18.5 Cm  14? 242.02  42.8   13  79 163  99
   2024 04 23 21:00  01 10 28.27    +01 29 03.2    66081 1.0052  17.8 Cm  14? 252.95  42.4   14  77 163  99
   2024 04 23 21:10  01 12 24.23    +02 01 06.2    64426 1.0052  17.1 Cm  14? 264.96  41.9   15  75 164  99
   ................
   2024 04 24 14:50  22 07 59.68    -33 37 58.0   120965 1.0057  73.9  r  13?  72.70  80.9    0 132  98  99
   2024 04 24 15:00  22 08 56.11    -33 36 06.4   121670 1.0057  73.7  m  14?  70.36  80.9    1 130  98  99
   2024 04 24 15:10  22 09 50.67    -33 34 17.9   122362 1.0057  73.5  m  14?  68.05  80.8    2 129  99  99
   2024 04 24 15:20  22 10 43.39    -33 32 32.2   123043 1.0057  73.4  m  14?  65.76  80.7    4 128  99  99
   2024 04 24 15:30  22 11 34.28    -33 30 49.0   123713 1.0057  73.2  m  14?  63.51  80.6    5 127  99  99
   2024 04 24 15:40  22 12 23.38    -33 29 08.0   124372 1.0057  73.0  m  14?  61.29  80.5    7 125  99  99
   2024 04 24 15:50  22 13 10.70    -33 27 28.8   125021 1.0057  72.9  m  14?  59.10  80.3    8 124  99  99
   2024 04 24 16:00  22 13 56.26    -33 25 51.3   125659 1.0057  72.7  m  14?  56.94  80.1   10 123  99  99
   2024 04 24 16:10  22 14 40.10    -33 24 15.0   126288 1.0057  72.6  m  14?  54.82  79.8   11 122  99  99
   2024 04 24 16:20  22 15 22.23    -33 22 39.7   126908 1.0057  72.5  m  14?  52.73  79.5   13 121  99  99
   2024 04 24 16:30  22 16 02.68    -33 21 05.1   127519 1.0056  72.3  m  14?  50.68  79.1   15 120  99  99
   2024 04 24 16:40  22 16 41.48    -33 19 30.8   128122 1.0056  72.2  m  14?  48.67  78.7   16 119  99  99
   2024 04 24 16:50  22 17 18.65    -33 17 56.7   128716 1.0056  72.1  m  14?  46.70  78.2   18 118 100  99
   2024 04 24 17:00  22 17 54.22    -33 16 22.2   129303 1.0056  72.0  m  14?  44.78  77.6   20 116 100  99
   2024 04 24 17:10  22 18 28.21    -33 14 47.3   129882 1.0056  71.9  m  14?  42.89  77.0   21 115 100  99
   2024 04 24 17:20  22 19 00.66    -33 13 11.6   130455 1.0056  71.8  m  14?  41.06  76.3   23 114 100  99
   2024 04 24 17:30  22 19 31.59    -33 11 34.7   131021 1.0056  71.7  m  14?  39.27  75.5   25 113 100  99
   2024 04 24 17:40  22 20 01.04    -33 09 56.4   131581 1.0056  71.6  m  14?  37.54  74.5   27 112 100  99
   2024 04 24 17:50  22 20 29.03    -33 08 16.5   132135 1.0056  71.5  m  14?  35.86  73.5   29 111 100  99
   2024 04 24 18:00  22 20 55.61    -33 06 34.6   132684 1.0056  71.4  m  14?  34.25  72.3   30 110 100  99
   2024 04 24 18:10  22 21 20.80    -33 04 50.4   133228 1.0056  71.3  m  14?  32.70  71.0   32 110 100  99
   2024 04 24 18:20  22 21 44.63    -33 03 03.8   133767 1.0056  71.2  m  14?  31.22  69.6   34 109 100  99
   2024 04 24 18:30  22 22 07.16    -33 01 14.3   134303 1.0056  71.1  m  14?  29.81  68.0   36 108 100  99
   2024 04 24 18:40  22 22 28.40    -32 59 21.9   134834 1.0056  71.1  m  14?  28.48  66.2   38 107 100  99
   2024 04 24 18:50  22 22 48.41    -32 57 26.1   135362 1.0056  71.0  m  14?  27.23  64.2   40 106 100  99
   2024 04 24 19:00  22 23 07.21    -32 55 26.9   135887 1.0056  70.9  m  14?  26.08  62.1   42 105 100  99
   2024 04 24 19:10  22 23 24.86    -32 53 23.9   136410 1.0056  70.9  m  14?  25.01  59.8   44 104 100  99
   2024 04 24 19:20  22 23 41.38    -32 51 17.0   136930 1.0056  70.8  m  14?  24.05  57.3   46 103 100  99
   2024 04 24 19:30  22 23 56.84    -32 49 05.8   137448 1.0056  70.8  m  14?  23.19  54.7   47 102 100  99
   2024 04 24 19:40  22 24 11.25    -32 46 50.3   137965 1.0056  70.7  m  14?  22.44  51.9   49 101 100  99
   2024 04 24 19:50  22 24 24.68    -32 44 30.2   138480 1.0056  70.6 Am  14?  21.80  49.0   51 100 100  99
   2024 04 24 20:00  22 24 37.17    -32 42 05.4   138994 1.0056  70.6 Am  14?  21.28  45.9   53  99 100  99
   2024 04 24 20:10  22 24 48.76    -32 39 35.7   139508 1.0056  70.5 Am  14?  20.87  42.9   55  98 100  99
   2024 04 24 20:20  22 24 59.51    -32 37 00.9   140021 1.0056  70.5 Nm  14?  20.57  39.8   57  97 100  99
   2024 04 24 20:30  22 25 09.45    -32 34 20.8   140534 1.0056  70.4 Nm  14?  20.37  36.7   59  96 100  99
   2024 04 24 20:40  22 25 18.63    -32 31 35.5   141048 1.0056  70.4 Nm  14?  20.28  33.7   61  95 100  99
   2024 04 24 20:50  22 25 27.11    -32 28 44.6   141562 1.0056  70.4 Cm  14?  20.29  30.8   63  94 100  99
   2024 04 24 21:00  22 25 34.94    -32 25 48.2   142077 1.0056  70.3 Cm  14?  20.39  28.1   65  92 100  99
   2024 04 24 21:10  22 25 42.16    -32 22 46.2   142592 1.0056  70.3 Cm  14?  20.56  25.6   67  91 100  99
   ................
   2024 04 25 16:20  23 09 53.96    -24 49 48.6   185703 1.0055  58.8  r  15?  32.29  75.1    0 120 102  97
   2024 04 25 16:30  23 10 16.48    -24 48 26.2   185596 1.0055  58.7  m  15?  31.27  74.8    1 119 102  97
   2024 04 25 16:40  23 10 38.23    -24 47 04.6   185482 1.0055  58.6  m  15?  30.25  74.4    3 118 102  97
   2024 04 25 16:50  23 10 59.21    -24 45 43.9   185363 1.0055  58.5  m  15?  29.22  74.0    4 116 102  97
   2024 04 25 17:00  23 11 19.42    -24 44 23.7   185238 1.0055  58.5  m  15?  28.19  73.5    6 115 102  97
   2024 04 25 17:10  23 11 38.84    -24 43 03.8   185107 1.0055  58.4  m  15?  27.16  72.9    8 114 102  97
   2024 04 25 17:20  23 11 57.47    -24 41 44.2   184972 1.0055  58.3  m  15?  26.13  72.2   10 112 102  97
   2024 04 25 17:30  23 12 15.31    -24 40 24.6   184832 1.0055  58.3  m  15?  25.11  71.5   12 111 102  97
   2024 04 25 17:40  23 12 32.36    -24 39 04.9   184687 1.0055  58.2  m  15?  24.09  70.6   13 110 102  97
   2024 04 25 17:50  23 12 48.61    -24 37 44.7   184539 1.0055  58.2  m  15?  23.09  69.6   15 109 102  97
   2024 04 25 18:00  23 13 04.06    -24 36 24.0   184387 1.0055  58.1  m  15?  22.10  68.5   17 107 102  97
   2024 04 25 18:10  23 13 18.72    -24 35 02.6   184233 1.0055  58.1  m  15?  21.14  67.2   19 106 102  97
   2024 04 25 18:20  23 13 32.58    -24 33 40.2   184075 1.0055  58.0  m  15?  20.19  65.8   21 105 102  97
   2024 04 25 18:30  23 13 45.66    -24 32 16.7   183915 1.0055  58.0  m  15?  19.28  64.1   23 104 102  97
   2024 04 25 18:40  23 13 57.96    -24 30 51.9   183753 1.0055  57.9  m  15?  18.39  62.3   25 103 102  96
   2024 04 25 18:50  23 14 09.48    -24 29 25.6   183590 1.0055  57.9  m  15?  17.55  60.2   27 101 102  96
   2024 04 25 19:00  23 14 20.23    -24 27 57.6   183425 1.0055  57.8  m  15?  16.75  57.9   29 100 102  96
   2024 04 25 19:10  23 14 30.23    -24 26 27.8   183259 1.0055  57.8  m  15?  16.00  55.4   31  99 102  96
   2024 04 25 19:20  23 14 39.48    -24 24 55.8   183093 1.0055  57.8  m  15?  15.31  52.6   33  98 102  96
   2024 04 25 19:30  23 14 48.00    -24 23 21.7   182926 1.0055  57.7  m  15?  14.68  49.5   35  97 102  96
   2024 04 25 19:40  23 14 55.80    -24 21 45.1   182760 1.0055  57.7  m  15?  14.13  46.2   37  95 102  96
   2024 04 25 19:50  23 15 02.89    -24 20 05.9   182595 1.0055  57.7 Am  15?  13.66  42.6   39  94 102  96
   2024 04 25 20:00  23 15 09.30    -24 18 23.9   182430 1.0055  57.6 Am  15?  13.27  38.9   41  93 102  96
   2024 04 25 20:10  23 15 15.04    -24 16 39.1   182266 1.0055  57.6 Am  15?  12.97  34.9   43  91 102  96
   2024 04 25 20:20  23 15 20.13    -24 14 51.1   182104 1.0055  57.6 Nm  15?  12.76  30.9   45  90 102  96
   2024 04 25 20:30  23 15 24.59    -24 12 59.9   181943 1.0055  57.5 Nm  15?  12.64  26.8   47  88 102  96
   2024 04 25 20:40  23 15 28.44    -24 11 05.3   181785 1.0055  57.5 Nm  15?  12.62  22.8   49  87 102  96
   2024 04 25 20:50  23 15 31.71    -24 09 07.1   181629 1.0055  57.5 Cm  15?  12.68  18.9   51  85 102  96
   2024 04 25 21:00  23 15 34.43    -24 07 05.3   181476 1.0055  57.5 Cm  15?  12.81  15.2   53  84 102  96
   2024 04 25 21:10  23 15 36.61    -24 04 59.6   181326 1.0055  57.5 Cm  15?  13.03  11.8   55  82 101  96
   ................
   2024 04 26 17:40  23 56 44.33    -15 39 00.6   152892 1.0057  45.4  m  15?  46.21  59.5    1 108 103  92
   2024 04 26 17:50  23 57 11.58    -15 35 04.8   152130 1.0057  45.3  m  15?  45.52  58.7    2 106 103  92
   2024 04 26 18:00  23 57 38.17    -15 31 06.7   151362 1.0057  45.2  m  15?  44.83  57.8    4 105 103  92
   2024 04 26 18:10  23 58 04.08    -15 27 06.1   150587 1.0057  45.1  m  15?  44.15  56.8    6 104 103  92
   2024 04 26 18:20  23 58 29.30    -15 23 02.8   149806 1.0057  45.0  m  15?  43.48  55.8    8 102 103  92
   2024 04 26 18:30  23 58 53.83    -15 18 56.5   149020 1.0057  44.9  m  15?  42.83  54.7   10 101 103  92
   2024 04 26 18:40  23 59 17.65    -15 14 47.1   148228 1.0058  44.7  m  15?  42.20  53.6   12 100 103  92
   2024 04 26 18:50  23 59 40.77    -15 10 34.3   147431 1.0058  44.6  m  15?  41.60  52.4   14  98 103  92
   2024 04 26 19:00  00 00 03.17    -15 06 18.0   146630 1.0058  44.5  m  15?  41.02  51.1   16  97 104  92
   2024 04 26 19:10  00 00 24.86    -15 01 57.9   145824 1.0058  44.4  m  15?  40.47  49.7   18  95 104  92
   2024 04 26 19:20  00 00 45.82    -14 57 33.8   145014 1.0058  44.3  m  15?  39.96  48.3   20  94 104  92
   2024 04 26 19:30  00 01 06.06    -14 53 05.5   144200 1.0058  44.2  m  15?  39.49  46.9   21  93 104  92
   2024 04 26 19:40  00 01 25.59    -14 48 32.8   143383 1.0058  44.1  m  15?  39.06  45.3   23  91 104  92
   2024 04 26 19:50  00 01 44.40    -14 43 55.4   142563 1.0058  44.0 Am  15?  38.68  43.8   25  90 104  92
   2024 04 26 20:00  00 02 02.49    -14 39 13.1   141741 1.0058  43.9 Am  15?  38.35  42.2   27  88 104  92
   2024 04 26 20:10  00 02 19.88    -14 34 25.8   140915 1.0058  43.8 Am  15?  38.07  40.5   29  87 104  92
   2024 04 26 20:20  00 02 36.57    -14 29 33.1   140088 1.0058  43.7 Nm  15?  37.85  38.8   31  85 104  92
   2024 04 26 20:30  00 02 52.57    -14 24 34.8   139259 1.0058  43.6 Nm  15?  37.69  37.1   33  84 104  92
   2024 04 26 20:40  00 03 07.88    -14 19 30.8   138428 1.0058  43.5 Nm  15?  37.59  35.4   35  82 104  92
   2024 04 26 20:50  00 03 22.53    -14 14 20.7   137596 1.0058  43.4 Cm  15?  37.55  33.6   37  80 104  92
   2024 04 26 21:00  00 03 36.52    -14 09 04.4   136763 1.0058  43.3 Cm  15?  37.58  31.9   39  79 104  92
   2024 04 26 21:10  00 03 49.88    -14 03 41.7   135930 1.0058  43.2 Cm  15?  37.67  30.2   41  77 104  92
   ................
   2024 04 27 14:20  11 16 04.12    +41 26 48.5     6579 1.0067 110.1  r   7?  15015 126.7    5 330 107  86
   2024 04 27 14:30  13 45 10.90    +08 08 05.9     5866 1.0067 156.1  m   8?  16460 139.7   46 350  61  86
   2024 04 27 14:40  15 21 31.64    -18 41 23.0     7653 1.0067 164.6  t   9? 9332.7 134.9   69  44  27  86
   2024 04 27 14:50  16 25 54.60    -31 23 15.9    10388 1.0068 146.4  e   9? 5110.3 126.2   65  90  11  86
   2024 04 27 15:00  17 11 46.66    -37 26 53.1    13279 1.0068 135.4  m  10? 3195.9 118.4   59 106  10  86
   2024 04 27 15:10  17 46 10.24    -40 37 58.7    16114 1.0068 128.1  m  10? 2221.1 112.0   55 113  14  86
   2024 04 27 15:20  18 12 59.22    -42 25 48.3    18840 1.0068 122.8  m  10? 1658.8 106.9   52 116  18  86
   2024 04 27 15:30  18 34 32.43    -43 29 10.0    21451 1.0068 118.7  m  10? 1302.2 102.6   50 118  22  86
   2024 04 27 15:40  18 52 17.20    -44 06 52.7    23950 1.0068 115.5  m  10? 1059.4  99.2   48 119  25  86
   2024 04 27 15:50  19 07 11.13    -44 28 54.3    26347 1.0068 112.8  m  10? 885.27  96.2   47 120  27  86
   2024 04 27 16:00  19 19 53.74    -44 40 54.4    28651 1.0068 110.5  m  11? 755.06  93.6   47 120  29  86
   2024 04 27 16:10  19 30 53.02    -44 46 16.7    30871 1.0068 108.6  m  11? 654.51  91.3   47 120  31  86
   2024 04 27 16:20  19 40 29.39    -44 47 08.9    33014 1.0068 106.9  m  11? 574.81  89.3   47 120  33  86
   2024 04 27 16:30  19 48 58.10    -44 44 53.8    35087 1.0068 105.4  m  11? 510.27  87.5   47 120  34  86
   2024 04 27 16:40  19 56 30.75    -44 40 26.8    37095 1.0068 104.0  m  11? 457.08  85.8   48 120  35  86
   2024 04 27 16:50  20 03 16.39    -44 34 25.6    39045 1.0068 102.8  m  11? 412.58  84.3   48 120  36  86
   2024 04 27 17:00  20 09 22.14    -44 27 16.8    40940 1.0068 101.8  m  11? 374.86  82.9   49 120  37  86
   2024 04 27 17:10  20 14 53.70    -44 19 18.9    42785 1.0068 100.8  m  11? 342.55  81.5   50 119  38  86
   2024 04 27 17:20  20 19 55.71    -44 10 45.5    44583 1.0068  99.9  m  11? 314.61  80.2   51 119  39  86
   2024 04 27 17:30  20 24 31.98    -44 01 46.3    46337 1.0068  99.0  m  11? 290.25  78.9   52 119  40  86
   2024 04 27 17:40  20 28 45.66    -43 52 28.4    48052 1.0068  98.3  m  11? 268.86  77.7   53 118  41  86
   2024 04 27 17:50  20 32 39.40    -43 42 56.9    49728 1.0068  97.5  m  11? 249.97  76.5   54 118  41  86
   2024 04 27 18:00  20 36 15.44    -43 33 15.9    51370 1.0068  96.9  m  11? 233.19  75.3   55 118  42  86
   2024 04 27 18:10  20 39 35.68    -43 23 28.0    52978 1.0068  96.3  m  11? 218.22  74.2   56 117  42  86
   2024 04 27 18:20  20 42 41.77    -43 13 35.5    54555 1.0068  95.7  m  11? 204.82  73.0   57 117  43  86
   2024 04 27 18:30  20 45 35.12    -43 03 39.7    56103 1.0068  95.1  m  12? 192.77  71.8   59 117  43  86
   2024 04 27 18:40  20 48 16.98    -42 53 41.9    57624 1.0068  94.6  m  12? 181.91  70.7   60 117  44  86
   2024 04 27 18:50  20 50 48.42    -42 43 42.8    59119 1.0067  94.1  m  12? 172.10  69.5   61 117  44  86
   2024 04 27 19:00  20 53 10.39    -42 33 42.9    60590 1.0067  93.7  m  12? 163.22  68.3   63 117  44  86
   2024 04 27 19:10  20 55 23.75    -42 23 42.7    62038 1.0067  93.2  m  12? 155.18  67.1   64 117  45  86
   2024 04 27 19:20  20 57 29.25    -42 13 42.4    63465 1.0067  92.8  m  12? 147.87  65.9   66 117  45  85
   2024 04 27 19:30  20 59 27.56    -42 03 42.1    64871 1.0067  92.4  m  12? 141.23  64.7   67 117  45  85
   2024 04 27 19:40  21 01 19.29    -41 53 41.9    66258 1.0067  92.1  m  12? 135.20  63.5   69 117  46  85
   2024 04 27 19:50  21 03 04.99    -41 43 41.8    67627 1.0067  91.7  m  12? 129.71  62.3   70 118  46  85
   2024 04 27 20:00  21 04 45.14    -41 33 41.9    68979 1.0067  91.4 Am  12? 124.73  61.1   72 119  46  85
   2024 04 27 20:10  21 06 20.22    -41 23 42.0    70315 1.0067  91.0 Am  12? 120.19  60.0   73 120  47  85
   2024 04 27 20:20  21 07 50.62    -41 13 42.2    71636 1.0067  90.7 Nm  12? 116.07  58.8   75 121  47  85
   2024 04 27 20:30  21 09 16.72    -41 03 42.3    72942 1.0067  90.4 Nm  12? 112.33  57.6   77 123  47  85
   2024 04 27 20:40  21 10 38.87    -40 53 42.3    74235 1.0067  90.1 Nm  12? 108.93  56.5   78 126  47  85
   2024 04 27 20:50  21 11 57.39    -40 43 42.3    75515 1.0067  89.9 Cm  12? 105.85  55.4   80 130  47  85
   2024 04 27 21:00  21 13 12.57    -40 33 42.0    76783 1.0067  89.6 Cm  12? 103.06  54.3   81 136  48  85
   2024 04 27 21:10  21 14 24.68    -40 23 41.6    78039 1.0067  89.3 Cm  12? 100.53  53.2   82 144  48  85
   ................
   

MMS-2 (JPL-ID: -140483)

   Date (UTC) HH:MM   RA              Dec         delta   r     elong SM  mag  '/hr    PA   alt  az moo ill
   ---- -- -- -----  -------------   -----------  ------ ------ ----- --  --- ------ ------ --- --- --- ---
   2024 04 14 16:30  22 49 44.47    -28 11 55.1   172136 1.0025  54.5  r  15?  37.43  79.3    0 125 128  38
   2024 04 14 16:40  22 50 11.86    -28 10 46.7   172302 1.0025  54.4     15?  36.23  79.3    1 123 128  38
   2024 04 14 16:50  22 50 38.34    -28 09 39.9   172461 1.0025  54.3     15?  35.03  79.1    2 122 128  38
   2024 04 14 17:00  22 51 03.91    -28 08 34.6   172613 1.0025  54.2     15?  33.82  79.0    4 121 128  38
   2024 04 14 17:10  22 51 28.56    -28 07 30.3   172758 1.0025  54.1     15?  32.61  78.7    6 120 128  38
   2024 04 14 17:20  22 51 52.29    -28 06 27.1   172897 1.0025  54.1     15?  31.40  78.5    7 118 128  38
   2024 04 14 17:30  22 52 15.09    -28 05 24.5   173030 1.0025  54.0     15?  30.19  78.1    9 117 128  38
   2024 04 14 17:40  22 52 36.96    -28 04 22.5   173158 1.0025  53.9     15?  28.98  77.7   11 116 128  39
   2024 04 14 17:50  22 52 57.90    -28 03 20.8   173280 1.0025  53.9     15?  27.78  77.2   13 115 128  39
   2024 04 14 18:00  22 53 17.91    -28 02 19.2   173397 1.0025  53.8     15?  26.59  76.6   14 113 128  39
   2024 04 14 18:10  22 53 37.00    -28 01 17.4   173509 1.0025  53.7     15?  25.41  75.9   16 112 128  39
   2024 04 14 18:20  22 53 55.16    -28 00 15.3   173618 1.0025  53.7     15?  24.24  75.1   18 111 128  39
   2024 04 14 18:30  22 54 12.41    -27 59 12.6   173723 1.0025  53.6     15?  23.09  74.2   20 110 128  39
   2024 04 14 18:40  22 54 28.74    -27 58 09.1   173824 1.0025  53.6     15?  21.97  73.1   22 109 128  39
   2024 04 14 18:50  22 54 44.17    -27 57 04.6   173922 1.0025  53.5     15?  20.87  71.8   24 108 128  39
   2024 04 14 19:00  22 54 58.70    -27 55 58.8   174018 1.0025  53.5     15?  19.80  70.4   26 107 128  39
   2024 04 14 19:10  22 55 12.35    -27 54 51.6   174111 1.0025  53.4     15?  18.76  68.8   28 105 128  39
   2024 04 14 19:20  22 55 25.13    -27 53 42.7   174202 1.0025  53.4     15?  17.77  66.9   29 104 128  40
   2024 04 14 19:30  22 55 37.04    -27 52 32.0   174292 1.0025  53.4     15?  16.82  64.8   31 103 128  40
   2024 04 14 19:40  22 55 48.12    -27 51 19.1   174381 1.0025  53.3     15?  15.93  62.4   33 102 128  40
   2024 04 14 19:50  22 55 58.36    -27 50 04.0   174468 1.0025  53.3 A   15?  15.09  59.7   35 101 128  40
   2024 04 14 20:00  22 56 07.79    -27 48 46.4   174556 1.0025  53.3 A   15?  14.33  56.7   37 100 128  40
   2024 04 14 20:10  22 56 16.44    -27 47 26.0   174643 1.0025  53.2 A   15?  13.64  53.3   39  99 129  40
   2024 04 14 20:20  22 56 24.31    -27 46 02.9   174730 1.0025  53.2 N   15?  13.04  49.6   41  98 129  40
   2024 04 14 20:30  22 56 31.43    -27 44 36.6   174817 1.0025  53.2 N   15?  12.53  45.6   43  96 129  40
   2024 04 14 20:40  22 56 37.83    -27 43 07.1   174906 1.0025  53.1 C   15?  12.12  41.4   45  95 129  40
   2024 04 14 20:50  22 56 43.53    -27 41 34.1   174996 1.0025  53.1 C   15?  11.82  36.9   47  94 129  40
   2024 04 14 21:00  22 56 48.55    -27 39 57.6   175087 1.0025  53.1 C   15?  11.62  32.4   49  93 129  40
   ................
   2024 04 15 17:40  23 33 37.22    -20 37 25.5   179291 1.0026  42.9  r  15?  33.49  69.1    0 115 128  48
   2024 04 15 17:50  23 33 59.13    -20 35 25.6   178844 1.0026  42.8     15?  32.58  68.5    1 113 128  49
   2024 04 15 18:00  23 34 20.35    -20 33 25.7   178390 1.0026  42.7     15?  31.67  67.8    3 112 128  49
   2024 04 15 18:10  23 34 40.85    -20 31 25.7   177932 1.0026  42.7     15?  30.76  67.1    5 110 128  49
   2024 04 15 18:20  23 35 00.63    -20 29 25.3   177467 1.0026  42.6     15?  29.85  66.2    7 109 128  49
   2024 04 15 18:30  23 35 19.69    -20 27 24.3   176998 1.0026  42.5     15?  28.95  65.3    9 108 128  49
   2024 04 15 18:40  23 35 38.01    -20 25 22.7   176524 1.0026  42.5     15?  28.05  64.3   11 107 128  49
   2024 04 15 18:50  23 35 55.60    -20 23 20.3   176046 1.0026  42.4     15?  27.16  63.2   13 105 129  49
   2024 04 15 19:00  23 36 12.44    -20 21 16.7   175564 1.0026  42.3     15?  26.29  61.9   14 104 129  49
   2024 04 15 19:10  23 36 28.53    -20 19 12.0   175079 1.0026  42.3     15?  25.43  60.5   16 103 129  49
   2024 04 15 19:20  23 36 43.88    -20 17 05.9   174590 1.0026  42.2     15?  24.60  59.0   18 101 129  49
   2024 04 15 19:30  23 36 58.48    -20 14 58.2   174098 1.0026  42.1     15?  23.80  57.4   20 100 129  49
   2024 04 15 19:40  23 37 12.33    -20 12 48.8   173604 1.0026  42.1     15?  23.03  55.6   22  99 129  50
   2024 04 15 19:50  23 37 25.44    -20 10 37.4   173108 1.0026  42.0 A   15?  22.30  53.7   24  98 129  50
   2024 04 15 20:00  23 37 37.81    -20 08 23.9   172611 1.0026  42.0 A   15?  21.61  51.6   26  96 129  50
   2024 04 15 20:10  23 37 49.45    -20 06 08.2   172112 1.0026  41.9 A   15?  20.97  49.3   28  95 129  50
   2024 04 15 20:20  23 38 00.35    -20 03 50.0   171611 1.0026  41.9 N   15?  20.39  46.9   30  94 129  50
   2024 04 15 20:30  23 38 10.55    -20 01 29.1   171111 1.0026  41.8 N   15?  19.86  44.4   32  92 129  50
   2024 04 15 20:40  23 38 20.03    -19 59 05.4   170610 1.0026  41.8 N   15?  19.40  41.7   34  91 129  50
   2024 04 15 20:50  23 38 28.81    -19 56 38.8   170109 1.0026  41.7 C   15?  19.00  38.9   36  89 129  50
   2024 04 15 21:00  23 38 36.92    -19 54 09.0   169608 1.0026  41.7 C   15?  18.68  36.0   38  88 129  50
   ................
   2024 04 16 20:10  01 08 31.25    +00 17 24.8    68968 1.0033  12.8 Ar  14? 250.15  46.8    0  89 112  59
   2024 04 16 20:20  01 10 34.79    +00 46 40.5    67314 1.0033  12.1 N   14? 261.19  46.4    1  88 112  60
   ................
   2024 04 17 15:30  22 14 21.89    -32 53 46.2   127954 1.0037  66.1  r  14?  64.09  81.3    0 130 163  66
   2024 04 17 15:40  22 15 11.40    -32 52 11.5   128586 1.0037  65.9     14?  62.01  81.2    1 129 163  67
   2024 04 17 15:50  22 15 59.26    -32 50 39.6   129208 1.0037  65.7     14?  59.96  81.2    3 128 163  67
   2024 04 17 16:00  22 16 45.49    -32 49 10.0   129819 1.0037  65.6     14?  57.92  81.1    4 126 163  67
   2024 04 17 16:10  22 17 30.11    -32 47 42.6   130420 1.0037  65.5     14?  55.90  81.0    6 125 162  67
   2024 04 17 16:20  22 18 13.13    -32 46 17.1   131011 1.0037  65.3     14?  53.91  80.8    7 124 162  67
   2024 04 17 16:30  22 18 54.57    -32 44 53.1   131593 1.0037  65.2     14?  51.94  80.7    9 123 162  67
   2024 04 17 16:40  22 19 34.44    -32 43 30.4   132166 1.0036  65.1     14?  49.99  80.4   11 122 162  67
   2024 04 17 16:50  22 20 12.77    -32 42 08.6   132730 1.0036  65.0     14?  48.07  80.2   12 120 162  67
   2024 04 17 17:00  22 20 49.56    -32 40 47.5   133285 1.0036  64.8     14?  46.18  79.8   14 119 162  67
   2024 04 17 17:10  22 21 24.84    -32 39 26.9   133833 1.0036  64.7     14?  44.32  79.4   16 118 162  67
   2024 04 17 17:20  22 21 58.63    -32 38 06.3   134373 1.0036  64.6     14?  42.50  79.0   17 117 162  67
   2024 04 17 17:30  22 22 30.95    -32 36 45.4   134906 1.0036  64.5     14?  40.70  78.4   19 116 162  67
   2024 04 17 17:40  22 23 01.82    -32 35 24.2   135432 1.0036  64.4     14?  38.95  77.8   21 115 162  67
   2024 04 17 17:50  22 23 31.26    -32 34 02.1   135952 1.0036  64.3     14?  37.23  77.1   23 114 162  67
   2024 04 17 18:00  22 23 59.31    -32 32 39.0   136466 1.0036  64.3     14?  35.56  76.3   24 113 162  67
   2024 04 17 18:10  22 24 25.98    -32 31 14.5   136974 1.0036  64.2     14?  33.94  75.3   26 112 162  68
   2024 04 17 18:20  22 24 51.30    -32 29 48.4   137477 1.0036  64.1     14?  32.36  74.3   28 111 162  68
   2024 04 17 18:30  22 25 15.29    -32 28 20.5   137976 1.0036  64.0     14?  30.84  73.1   30 110 162  68
   2024 04 17 18:40  22 25 38.00    -32 26 50.3   138469 1.0036  63.9     14?  29.37  71.8   32 109 162  68
   2024 04 17 18:50  22 25 59.45    -32 25 17.8   138959 1.0036  63.9     14?  27.97  70.3   34 108 162  68
   2024 04 17 19:00  22 26 19.67    -32 23 42.5   139445 1.0036  63.8     14?  26.63  68.6   35 107 162  68
   2024 04 17 19:10  22 26 38.69    -32 22 04.4   139928 1.0036  63.7     14?  25.37  66.8   37 106 162  68
   2024 04 17 19:20  22 26 56.54    -32 20 23.0   140407 1.0036  63.7     14?  24.19  64.7   39 105 162  68
   2024 04 17 19:30  22 27 13.28    -32 18 38.3   140884 1.0036  63.6     14?  23.09  62.4   41 104 162  68
   2024 04 17 19:40  22 27 28.92    -32 16 49.9   141359 1.0036  63.6     14?  22.09  59.9   43 103 162  68
   2024 04 17 19:50  22 27 43.50    -32 14 57.7   141832 1.0036  63.5 A   14?  21.18  57.2   45 102 162  68
   2024 04 17 20:00  22 27 57.08    -32 13 01.4   142304 1.0036  63.5 A   14?  20.37  54.4   47 101 162  68
   2024 04 17 20:10  22 28 09.68    -32 11 00.8   142774 1.0036  63.4 A   14?  19.68  51.3   49 100 162  69
   2024 04 17 20:20  22 28 21.34    -32 08 55.8   143244 1.0036  63.4 N   14?  19.09  48.1   51  99 162  69
   2024 04 17 20:30  22 28 32.11    -32 06 46.1   143713 1.0036  63.3 N   14?  18.62  44.7   53  98 162  69
   2024 04 17 20:40  22 28 42.04    -32 04 31.6   144182 1.0036  63.3 N   14?  18.26  41.3   55  97 162  69
   2024 04 17 20:50  22 28 51.16    -32 02 12.2   144650 1.0036  63.2 C   14?  18.01  37.9   57  96 162  69
   2024 04 17 21:00  22 28 59.52    -31 59 47.7   145120 1.0036  63.2 C   14?  17.88  34.5   59  95 162  69
   ................
   2024 04 18 16:50  23 11 39.52    -24 36 05.6   186552 1.0035  52.0  r  15?  31.57  75.4    0 120 163  76
   2024 04 18 17:00  23 12 01.57    -24 34 46.5   186418 1.0035  51.9     15?  30.56  75.1    1 119 163  76
   2024 04 18 17:10  23 12 22.86    -24 33 28.3   186278 1.0035  51.8     15?  29.55  74.8    3 117 163  76
   2024 04 18 17:20  23 12 43.40    -24 32 10.8   186132 1.0035  51.8     15?  28.53  74.4    4 116 163  76
   2024 04 18 17:30  23 13 03.17    -24 30 53.8   185980 1.0035  51.7     15?  27.51  73.9    6 115 163  76
   2024 04 18 17:40  23 13 22.16    -24 29 37.1   185824 1.0035  51.7     15?  26.49  73.3    8 113 163  76
   2024 04 18 17:50  23 13 40.37    -24 28 20.7   185662 1.0035  51.6     15?  25.47  72.6   10 112 163  76
   2024 04 18 18:00  23 13 57.80    -24 27 04.2   185495 1.0035  51.5     15?  24.45  71.8   12 111 163  76
   2024 04 18 18:10  23 14 14.45    -24 25 47.5   185325 1.0035  51.5     15?  23.45  71.0   13 110 163  76
   2024 04 18 18:20  23 14 30.30    -24 24 30.5   185151 1.0035  51.4     15?  22.45  70.0   15 108 163  76
   2024 04 18 18:30  23 14 45.36    -24 23 12.9   184973 1.0035  51.4     15?  21.47  68.8   17 107 163  76
   2024 04 18 18:40  23 14 59.64    -24 21 54.4   184792 1.0035  51.3     15?  20.51  67.5   19 106 163  76
   2024 04 18 18:50  23 15 13.14    -24 20 35.1   184609 1.0035  51.3     15?  19.57  66.0   21 105 163  76
   2024 04 18 19:00  23 15 25.85    -24 19 14.6   184423 1.0035  51.2     15?  18.66  64.4   23 104 163  76
   2024 04 18 19:10  23 15 37.79    -24 17 52.8   184235 1.0035  51.2     15?  17.78  62.5   25 102 163  76
   2024 04 18 19:20  23 15 48.95    -24 16 29.4   184046 1.0035  51.1     15?  16.94  60.4   27 101 163  76
   2024 04 18 19:30  23 15 59.36    -24 15 04.3   183855 1.0035  51.1     15?  16.14  58.0   29 100 163  77
   2024 04 18 19:40  23 16 09.02    -24 13 37.4   183664 1.0035  51.1     15?  15.40  55.4   31  99 163  77
   2024 04 18 19:50  23 16 17.93    -24 12 08.4   183472 1.0035  51.0 A   15?  14.72  52.5   33  98 163  77
   2024 04 18 20:00  23 16 26.12    -24 10 37.1   183280 1.0035  51.0 A   15?  14.10  49.3   35  96 163  77
   2024 04 18 20:10  23 16 33.59    -24 09 03.4   183089 1.0035  51.0 A   15?  13.56  45.8   37  95 163  77
   2024 04 18 20:20  23 16 40.37    -24 07 27.1   182898 1.0035  50.9 N   15?  13.09  42.1   39  94 163  77
   2024 04 18 20:30  23 16 46.46    -24 05 48.0   182707 1.0035  50.9 N   15?  12.72  38.2   41  92 163  77
   2024 04 18 20:40  23 16 51.89    -24 04 06.0   182518 1.0035  50.9 N   15?  12.43  34.1   43  91 163  77
   2024 04 18 20:50  23 16 56.67    -24 02 20.8   182331 1.0035  50.9 C   15?  12.24  29.9   45  90 163  77
   2024 04 18 21:00  23 17 00.83    -24 00 32.5   182146 1.0035  50.8 C   15?  12.15  25.6   47  88 163  77
   ................
   2024 04 19 18:10  23 58 34.92    -15 24 51.6   149571 1.0038  38.6  r  15?  47.62  59.4    1 107 164  83
   2024 04 19 18:20  23 59 02.94    -15 20 46.7   148775 1.0038  38.5     15?  46.95  58.5    2 106 164  84
   2024 04 19 18:30  23 59 30.30    -15 16 39.2   147972 1.0038  38.4     15?  46.29  57.6    4 105 164  84
   2024 04 19 18:40  23 59 57.00    -15 12 28.8   147162 1.0038  38.2     15?  45.64  56.7    6 103 164  84
   2024 04 19 18:50  00 00 23.01    -15 08 15.4   146346 1.0038  38.1     15?  45.00  55.6    8 102 164  84
   2024 04 19 19:00  00 00 48.34    -15 03 58.7   145523 1.0038  38.0     15?  44.38  54.6   10 101 164  84
   2024 04 19 19:10  00 01 12.96    -14 59 38.5   144696 1.0038  37.9     15?  43.78  53.4   12  99 164  84
   2024 04 19 19:20  00 01 36.89    -14 55 14.7   143863 1.0038  37.8     15?  43.20  52.2   14  98 164  84
   2024 04 19 19:30  00 02 00.10    -14 50 46.9   143025 1.0038  37.7     15?  42.66  51.0   16  97 164  84
   2024 04 19 19:40  00 02 22.61    -14 46 14.9   142182 1.0038  37.6     15?  42.14  49.6   18  95 164  84
   2024 04 19 19:50  00 02 44.39    -14 41 38.6   141335 1.0038  37.4 A   15?  41.66  48.2   19  94 164  84
   2024 04 19 20:00  00 03 05.47    -14 36 57.6   140484 1.0038  37.3 A   15?  41.22  46.8   21  92 164  84
   2024 04 19 20:10  00 03 25.82    -14 32 11.8   139630 1.0038  37.2 A   15?  40.83  45.3   23  91 164  84
   2024 04 19 20:20  00 03 45.47    -14 27 20.9   138772 1.0038  37.1 N   15?  40.48  43.8   25  90 164  84
   2024 04 19 20:30  00 04 04.40    -14 22 24.6   137911 1.0038  37.0 N   15?  40.19  42.2   27  88 164  84
   2024 04 19 20:40  00 04 22.63    -14 17 22.8   137048 1.0038  36.9 N   15?  39.95  40.6   29  87 164  84
   2024 04 19 20:50  00 04 40.17    -14 12 15.1   136182 1.0039  36.8 C   15?  39.77  38.9   31  85 164  84
   2024 04 19 21:00  00 04 57.01    -14 07 01.4   135314 1.0039  36.7 C   15?  39.65  37.2   33  83 164  84
   ................
   2024 04 20 13:50  12 52 40.33    +41 01 37.4     5597 1.0048 125.4  r   7?  18743 137.2   14 357  39  89
   2024 04 20 14:00  15 06 38.47    +01 14 07.1     6072 1.0048 157.8  t   8?  14579 143.7   45  42  52  89
   2024 04 20 14:10  16 21 45.26    -21 08 37.6     8630 1.0049 143.4  e   9? 7193.9 135.7   48  83  74  89
   2024 04 20 14:20  17 11 39.16    -31 05 22.5    11649 1.0049 130.5  m   9? 4050.9 126.7   44 101  87  89
   2024 04 20 14:30  17 47 59.34    -36 03 30.2    14651 1.0049 122.2  m   9? 2641.1 119.2   40 110  95  89
   2024 04 20 14:40  18 15 55.55    -38 49 25.5    17532 1.0049 116.3  m  10? 1897.2 113.2   38 115 100  89
   2024 04 20 14:50  18 38 12.78    -40 28 30.7    20277 1.0049 111.9  m  10? 1452.6 108.4   36 118 104  89
   2024 04 20 15:00  18 56 29.13    -41 30 16.4    22893 1.0049 108.5  m  10? 1162.0 104.4   35 119 107  89
   2024 04 20 15:10  19 11 47.30    -42 09 37.2    25391 1.0049 105.6  m  10? 959.42 101.0   34 120 110  89
   2024 04 20 15:20  19 24 49.47    -42 34 45.8    27783 1.0049 103.2  m  10? 811.10  98.3   34 121 112  89
   2024 04 20 15:30  19 36 05.14    -42 50 31.6    30079 1.0049 101.2  m  10? 698.35  95.8   34 122 114  89
   2024 04 20 15:40  19 45 55.63    -42 59 53.4    32288 1.0049  99.4  m  10? 610.05  93.7   34 122 116  89
   2024 04 20 15:50  19 54 36.76    -43 04 46.6    34420 1.0049  97.9  m  11? 539.20  91.8   34 122 117  89
   2024 04 20 16:00  20 02 20.52    -43 06 27.9    36480 1.0049  96.5  m  11? 481.21  90.1   34 122 118  89
   2024 04 20 16:10  20 09 16.20    -43 05 50.0    38474 1.0049  95.3  m  11? 432.94  88.6   35 121 119  89
   2024 04 20 16:20  20 15 31.09    -43 03 29.5    40409 1.0048  94.1  m  11? 392.19  87.1   36 121 120  89
   2024 04 20 16:30  20 21 11.04    -42 59 52.7    42288 1.0048  93.1  m  11? 357.37  85.8   36 121 121  89
   2024 04 20 16:40  20 26 20.76    -42 55 18.6    44116 1.0048  92.2  m  11? 327.31  84.6   37 120 122  89
   2024 04 20 16:50  20 31 04.11    -42 50 01.0    45896 1.0048  91.3  m  11? 301.11  83.4   38 120 123  89
   2024 04 20 17:00  20 35 24.31    -42 44 10.5    47632 1.0048  90.6  m  11? 278.11  82.3   39 119 123  89
   2024 04 20 17:10  20 39 24.03    -42 37 54.5    49326 1.0048  89.8  m  11? 257.77  81.2   40 119 124  90
   2024 04 20 17:20  20 43 05.53    -42 31 19.1    50981 1.0048  89.1  m  11? 239.68  80.1   41 118 125  90
   2024 04 20 17:30  20 46 30.75    -42 24 28.5    52599 1.0048  88.5  m  11? 223.51  79.0   42 118 125  90
   2024 04 20 17:40  20 49 41.33    -42 17 26.1    54184 1.0048  87.9  m  11? 208.97  78.0   44 117 126  90
   2024 04 20 17:50  20 52 38.70    -42 10 14.4    55736 1.0048  87.4  m  11? 195.86  76.9   45 117 126  90
   2024 04 20 18:00  20 55 24.11    -42 02 55.3    57258 1.0048  86.9  m  11? 184.00  75.9   46 116 126  90
   2024 04 20 18:10  20 57 58.63    -41 55 30.3    58751 1.0048  86.4  m  12? 173.23  74.8   48 116 127  90
   2024 04 20 18:20  21 00 23.24    -41 48 00.5    60218 1.0048  85.9  m  12? 163.43  73.7   49 115 127  90
   2024 04 20 18:30  21 02 38.77    -41 40 26.6    61659 1.0048  85.5     12? 154.50  72.6   50 115 128  90
   2024 04 20 18:40  21 04 45.99    -41 32 49.2    63076 1.0048  85.1     12? 146.34  71.5   52 115 128  90
   2024 04 20 18:50  21 06 45.56    -41 25 08.7    64471 1.0048  84.7     12? 138.88  70.3   53 114 128  90
   2024 04 20 19:00  21 08 38.10    -41 17 25.4    65844 1.0048  84.3     12? 132.06  69.2   55 114 128  90
   2024 04 20 19:10  21 10 24.15    -41 09 39.6    67196 1.0048  84.0     12? 125.81  68.0   56 113 129  90
   2024 04 20 19:20  21 12 04.22    -41 01 51.2    68530 1.0048  83.6     12? 120.09  66.7   58 113 129  90
   2024 04 20 19:30  21 13 38.75    -40 54 00.5    69846 1.0048  83.3     12? 114.85  65.5   60 113 129  90
   2024 04 20 19:40  21 15 08.16    -40 46 07.3    71144 1.0048  83.0     12? 110.06  64.2   61 112 129  90
   2024 04 20 19:50  21 16 32.84    -40 38 11.7    72426 1.0048  82.7 A   12? 105.68  62.9   63 112 130  90
   2024 04 20 20:00  21 17 53.13    -40 30 13.6    73694 1.0048  82.4 A   12? 101.69  61.6   64 112 130  90
   2024 04 20 20:10  21 19 09.35    -40 22 13.0    74946 1.0048  82.2 A   12?  98.04  60.3   66 112 130  90
   2024 04 20 20:20  21 20 21.82    -40 14 09.9    76185 1.0048  81.9 N   12?  94.73  59.0   68 112 130  90
   2024 04 20 20:30  21 21 30.79    -40 06 04.1    77412 1.0048  81.7 N   12?  91.71  57.6   69 112 130  90
   2024 04 20 20:40  21 22 36.54    -39 57 55.7    78626 1.0048  81.4 N   12?  88.98  56.3   71 113 131  90
   2024 04 20 20:50  21 23 39.30    -39 49 44.6    79828 1.0048  81.2 C   12?  86.52  55.0   73 114 131  90
   2024 04 20 21:00  21 24 39.31    -39 41 30.7    81020 1.0048  81.0 C   12?  84.29  53.7   75 114 131  90
   ................
   2024 04 21 16:00  22 47 49.90    -28 28 32.0   169381 1.0046  61.3  r  15?  38.49  78.9    0 125 142  94
   2024 04 21 16:10  22 48 18.05    -28 27 19.3   169580 1.0046  61.2  m  15?  37.26  78.8    1 124 142  94
   2024 04 21 16:20  22 48 45.27    -28 26 08.3   169772 1.0046  61.1  m  15?  36.02  78.7    2 122 142  94
   2024 04 21 16:30  22 49 11.55    -28 24 58.7   169956 1.0046  61.0  m  15?  34.78  78.5    4 121 142  94
   2024 04 21 16:40  22 49 36.88    -28 23 50.4   170134 1.0046  60.9  m  15?  33.54  78.2    6 120 143  94
   2024 04 21 16:50  22 50 01.27    -28 22 43.0   170305 1.0046  60.8  m  15?  32.30  78.0    7 119 143  94
   2024 04 21 17:00  22 50 24.70    -28 21 36.4   170470 1.0045  60.8  m  15?  31.06  77.6    9 117 143  94
   2024 04 21 17:10  22 50 47.18    -28 20 30.4   170630 1.0045  60.7  m  15?  29.83  77.2   11 116 143  94
   2024 04 21 17:20  22 51 08.71    -28 19 24.7   170783 1.0045  60.6  m  15?  28.60  76.7   13 115 143  94
   2024 04 21 17:30  22 51 29.28    -28 18 19.1   170932 1.0045  60.6  m  15?  27.38  76.1   14 114 143  95
   2024 04 21 17:40  22 51 48.90    -28 17 13.4   171076 1.0045  60.5  m  15?  26.18  75.3   16 113 143  95
   2024 04 21 17:50  22 52 07.58    -28 16 07.3   171216 1.0045  60.4  m  15?  24.99  74.5   18 111 143  95
   2024 04 21 18:00  22 52 25.32    -28 15 00.7   171352 1.0045  60.4  m  15?  23.82  73.6   20 110 142  95
   2024 04 21 18:10  22 52 42.13    -28 13 53.3   171485 1.0045  60.3  m  15?  22.68  72.5   22 109 142  95
   2024 04 21 18:20  22 52 58.01    -28 12 44.9   171614 1.0045  60.3  m  15?  21.56  71.2   24 108 142  95
   2024 04 21 18:30  22 53 12.98    -28 11 35.2   171740 1.0045  60.2  m  15?  20.47  69.8   26 107 142  95
   2024 04 21 18:40  22 53 27.04    -28 10 24.1   171864 1.0045  60.2  m  15?  19.42  68.2   27 106 142  95
   2024 04 21 18:50  22 53 40.22    -28 09 11.3   171986 1.0045  60.1  m  15?  18.42  66.3   29 105 142  95
   2024 04 21 19:00  22 53 52.51    -28 07 56.6   172106 1.0045  60.1  m  15?  17.46  64.2   31 104 142  95
   2024 04 21 19:10  22 54 03.94    -28 06 39.9   172225 1.0045  60.0  m  15?  16.55  61.8   33 102 142  95
   2024 04 21 19:20  22 54 14.53    -28 05 20.8   172343 1.0045  60.0     15?  15.71  59.2   35 101 142  95
   2024 04 21 19:30  22 54 24.30    -28 03 59.2   172460 1.0045  60.0     15?  14.94  56.2   37 100 142  95
   2024 04 21 19:40  22 54 33.25    -28 02 34.9   172577 1.0045  59.9     15?  14.24  52.9   39  99 142  95
   2024 04 21 19:50  22 54 41.43    -28 01 07.7   172694 1.0045  59.9 A   15?  13.63  49.3   41  98 142  95
   2024 04 21 20:00  22 54 48.83    -27 59 37.4   172811 1.0045  59.9 A   15?  13.12  45.4   43  97 142  95
   2024 04 21 20:10  22 54 55.50    -27 58 03.8   172929 1.0045  59.8 A   15?  12.70  41.3   45  96 142  95
   2024 04 21 20:20  22 55 01.46    -27 56 26.8   173048 1.0045  59.8 N   15?  12.39  37.0   47  94 142  95
   2024 04 21 20:30  22 55 06.73    -27 54 46.1   173169 1.0045  59.8 N   15?  12.18  32.6   49  93 142  95
   2024 04 21 20:40  22 55 11.34    -27 53 01.7   173291 1.0045  59.8 N   15?  12.08  28.2   51  92 142  95
   2024 04 21 20:50  22 55 15.32    -27 51 13.4   173415 1.0045  59.7 C   15?  12.08  23.9   53  90 142  95
   2024 04 21 21:00  22 55 18.70    -27 49 20.9   173541 1.0045  59.7 C   15?  12.18  19.8   55  89 142  95
   ................
   2024 04 22 17:10  23 31 59.85    -20 46 13.7   180833 1.0046  49.6  r  15?  33.10  68.9    0 115 143  98
   2024 04 22 17:20  23 32 21.55    -20 44 14.2   180416 1.0046  49.5  m  15?  32.19  68.3    1 113 143  98
   2024 04 22 17:30  23 32 42.55    -20 42 14.8   179992 1.0046  49.4  m  15?  31.28  67.7    3 112 143  98
   2024 04 22 17:40  23 33 02.84    -20 40 15.2   179563 1.0046  49.3  m  15?  30.36  66.9    5 111 143  98
   2024 04 22 17:50  23 33 22.41    -20 38 15.4   179129 1.0046  49.3  m  15?  29.45  66.1    7 109 144  98
   2024 04 22 18:00  23 33 41.25    -20 36 15.1   178690 1.0046  49.2  m  15?  28.54  65.2    9 108 144  98
   2024 04 22 18:10  23 33 59.35    -20 34 14.2   178246 1.0046  49.1  m  15?  27.64  64.1   11 107 144  98
   2024 04 22 18:20  23 34 16.72    -20 32 12.5   177797 1.0046  49.0  m  15?  26.75  63.0   12 106 144  98
   2024 04 22 18:30  23 34 33.34    -20 30 09.8   177345 1.0046  49.0  m  15?  25.88  61.7   14 104 144  98
   2024 04 22 18:40  23 34 49.22    -20 28 06.0   176890 1.0046  48.9  m  15?  25.03  60.4   16 103 144  98
   2024 04 22 18:50  23 35 04.35    -20 26 00.9   176431 1.0046  48.9  m  15?  24.19  58.8   18 102 144  98
   2024 04 22 19:00  23 35 18.74    -20 23 54.2   175970 1.0046  48.8  m  15?  23.39  57.2   20 100 144  98
   2024 04 22 19:10  23 35 32.38    -20 21 45.9   175506 1.0046  48.7  m  15?  22.62  55.4   22  99 144  98
   2024 04 22 19:20  23 35 45.27    -20 19 35.7   175040 1.0046  48.7  m  15?  21.89  53.4   24  98 143  98
   2024 04 22 19:30  23 35 57.43    -20 17 23.5   174572 1.0046  48.6  m  15?  21.21  51.3   26  97 143  98
   2024 04 22 19:40  23 36 08.86    -20 15 09.0   174104 1.0046  48.6  m  15?  20.57  49.0   28  95 143  98
   2024 04 22 19:50  23 36 19.57    -20 12 52.2   173634 1.0046  48.5 Am  15?  19.98  46.6   30  94 143  98
   2024 04 22 20:00  23 36 29.55    -20 10 32.9   173164 1.0046  48.5 Am  15?  19.46  44.0   32  93 143  98
   2024 04 22 20:10  23 36 38.84    -20 08 10.8   172693 1.0046  48.4 Am  15?  19.00  41.3   34  91 143  98
   2024 04 22 20:20  23 36 47.42    -20 05 45.8   172223 1.0046  48.4 N   15?  18.61  38.4   36  90 143  98
   2024 04 22 20:30  23 36 55.33    -20 03 17.7   171752 1.0046  48.3 N   15?  18.29  35.5   38  88 143  98
   2024 04 22 20:40  23 37 02.58    -20 00 46.4   171283 1.0046  48.3 N   15?  18.05  32.5   40  87 143  98
   2024 04 22 20:50  23 37 09.17    -19 58 11.7   170815 1.0046  48.3 C   15?  17.88  29.5   42  85 143  98
   2024 04 22 21:00  23 37 15.13    -19 55 33.5   170348 1.0046  48.2 C   15?  17.79  26.4   44  84 143  98
   2024 04 22 21:10  23 37 20.48    -19 52 51.5   169883 1.0046  48.2 C   15?  17.77  23.5   46  82 143  98
   ................
   2024 04 23 19:20  00 54 03.94    -02 39 30.5    81704 1.0052  23.6  r  14? 176.59  47.5    0  93 158  99
   2024 04 23 19:30  00 55 31.77    -02 19 11.1    80217 1.0052  23.1  m  14? 181.72  47.0    1  91 159  99
   2024 04 23 19:40  00 57 01.39    -01 58 02.5    78713 1.0052  22.6  m  14? 187.26  46.4    2  90 159  99
   2024 04 23 19:50  00 58 32.95    -01 36 01.1    77193 1.0052  22.1 Am  14? 193.26  45.9    4  88 159  99
   2024 04 23 20:00  01 00 06.64    -01 13 03.0    75658 1.0052  21.5 Am  14? 199.76  45.3    6  87 160  99
   2024 04 23 20:10  01 01 42.65    -00 49 04.1    74105 1.0052  21.0 Am  14? 206.82  44.8    7  85 160  99
   2024 04 23 20:20  01 03 21.22    -00 23 59.6    72537 1.0052  20.4 Nm  14? 214.49  44.3    9  84 161  99
   2024 04 23 20:30  01 05 02.60    +00 02 15.6    70951 1.0052  19.8 Nm  14? 222.84  43.8   10  82 161  99
   2024 04 23 20:40  01 06 47.08    +00 29 47.2    69349 1.0052  19.2 Nm  14? 231.95  43.3   11  80 162  99
   2024 04 23 20:50  01 08 34.98    +00 58 41.6    67730 1.0052  18.5 Cm  14? 241.92  42.8   13  79 163  99
   2024 04 23 21:00  01 10 26.67    +01 29 05.9    66092 1.0052  17.8 Cm  14? 252.85  42.4   14  77 163  99
   2024 04 23 21:10  01 12 22.58    +02 01 08.0    64437 1.0052  17.1 Cm  14? 264.85  41.9   15  75 164  99
   ................
   2024 04 24 14:50  22 07 58.92    -33 37 33.8   120959 1.0057  73.9  r  13?  72.71  80.9    0 132  98  99
   2024 04 24 15:00  22 08 55.35    -33 35 42.2   121664 1.0057  73.7  m  14?  70.36  80.9    1 130  98  99
   2024 04 24 15:10  22 09 49.91    -33 33 53.7   122356 1.0057  73.5  m  14?  68.05  80.8    2 129  99  99
   2024 04 24 15:20  22 10 42.62    -33 32 08.0   123037 1.0057  73.4  m  14?  65.77  80.7    4 128  99  99
   2024 04 24 15:30  22 11 33.52    -33 30 24.7   123707 1.0057  73.2  m  14?  63.51  80.6    5 127  99  99
   2024 04 24 15:40  22 12 22.61    -33 28 43.6   124366 1.0057  73.0  m  14?  61.29  80.5    7 125  99  99
   2024 04 24 15:50  22 13 09.93    -33 27 04.5   125015 1.0057  72.9  m  14?  59.10  80.3    8 124  99  99
   2024 04 24 16:00  22 13 55.49    -33 25 26.9   125654 1.0057  72.7  m  14?  56.95  80.1   10 123  99  99
   2024 04 24 16:10  22 14 39.33    -33 23 50.6   126283 1.0057  72.6  m  14?  54.82  79.8   11 122  99  99
   2024 04 24 16:20  22 15 21.46    -33 22 15.2   126903 1.0057  72.5  m  14?  52.74  79.5   13 121  99  99
   2024 04 24 16:30  22 16 01.91    -33 20 40.6   127514 1.0056  72.3  m  14?  50.69  79.1   15 120  99  99
   2024 04 24 16:40  22 16 40.70    -33 19 06.3   128116 1.0056  72.2  m  14?  48.68  78.7   16 119  99  99
   2024 04 24 16:50  22 17 17.87    -33 17 32.1   128711 1.0056  72.1  m  14?  46.71  78.2   18 118 100  99
   2024 04 24 17:00  22 17 53.43    -33 15 57.7   129297 1.0056  72.0  m  14?  44.78  77.6   20 116 100  99
   2024 04 24 17:10  22 18 27.42    -33 14 22.7   129877 1.0056  71.9  m  14?  42.89  77.0   21 115 100  99
   2024 04 24 17:20  22 18 59.87    -33 12 46.9   130450 1.0056  71.8  m  14?  41.06  76.3   23 114 100  99
   2024 04 24 17:30  22 19 30.80    -33 11 10.0   131016 1.0056  71.7  m  14?  39.27  75.5   25 113 100  99
   2024 04 24 17:40  22 20 00.25    -33 09 31.7   131576 1.0056  71.6  m  14?  37.54  74.5   27 112 100  99
   2024 04 24 17:50  22 20 28.24    -33 07 51.8   132130 1.0056  71.5  m  14?  35.87  73.5   29 111 100  99
   2024 04 24 18:00  22 20 54.81    -33 06 09.8   132679 1.0056  71.4  m  14?  34.25  72.3   30 110 100  99
   2024 04 24 18:10  22 21 20.00    -33 04 25.6   133223 1.0056  71.3  m  14?  32.70  71.0   32 110 100  99
   2024 04 24 18:20  22 21 43.84    -33 02 38.9   133762 1.0056  71.2  m  14?  31.22  69.6   34 109 100  99
   2024 04 24 18:30  22 22 06.36    -33 00 49.5   134298 1.0056  71.1  m  14?  29.81  68.0   36 108 100  99
   2024 04 24 18:40  22 22 27.60    -32 58 57.0   134829 1.0056  71.1  m  14?  28.48  66.2   38 107 100  99
   2024 04 24 18:50  22 22 47.61    -32 57 01.2   135357 1.0056  71.0  m  14?  27.24  64.2   40 106 100  99
   2024 04 24 19:00  22 23 06.41    -32 55 01.9   135883 1.0056  70.9  m  14?  26.08  62.1   42 105 100  99
   2024 04 24 19:10  22 23 24.06    -32 52 58.9   136405 1.0056  70.9  m  14?  25.02  59.8   44 104 100  99
   2024 04 24 19:20  22 23 40.58    -32 50 51.9   136925 1.0056  70.8  m  14?  24.05  57.3   46 103 100  99
   2024 04 24 19:30  22 23 56.03    -32 48 40.8   137443 1.0056  70.8  m  14?  23.19  54.7   47 102 100  99
   2024 04 24 19:40  22 24 10.45    -32 46 25.2   137960 1.0056  70.7  m  14?  22.44  51.9   49 101 100  99
   2024 04 24 19:50  22 24 23.88    -32 44 05.1   138475 1.0056  70.6 Am  14?  21.81  49.0   51 100 100  99
   2024 04 24 20:00  22 24 36.37    -32 41 40.3   138989 1.0056  70.6 Am  14?  21.28  45.9   53  99 100  99
   2024 04 24 20:10  22 24 47.96    -32 39 10.5   139503 1.0056  70.5 Am  14?  20.87  42.9   55  98 100  99
   2024 04 24 20:20  22 24 58.70    -32 36 35.7   140016 1.0056  70.5 Nm  14?  20.57  39.8   57  97 100  99
   2024 04 24 20:30  22 25 08.64    -32 33 55.6   140530 1.0056  70.4 Nm  14?  20.38  36.7   59  96 100  99
   2024 04 24 20:40  22 25 17.83    -32 31 10.2   141043 1.0056  70.4 Nm  14?  20.29  33.7   61  95 100  99
   2024 04 24 20:50  22 25 26.31    -32 28 19.4   141557 1.0056  70.4 Cm  14?  20.29  30.8   63  94 100  99
   2024 04 24 21:00  22 25 34.14    -32 25 23.0   142072 1.0056  70.3 Cm  14?  20.39  28.1   65  92 100  99
   2024 04 24 21:10  22 25 41.36    -32 22 20.9   142588 1.0056  70.3 Cm  14?  20.56  25.6   67  91 100  99
   ................
   2024 04 25 16:20  23 09 53.12    -24 49 25.3   185703 1.0055  58.8  r  15?  32.29  75.1    0 120 102  97
   2024 04 25 16:30  23 10 15.64    -24 48 02.9   185596 1.0055  58.7  m  15?  31.27  74.8    1 119 102  97
   2024 04 25 16:40  23 10 37.39    -24 46 41.3   185482 1.0055  58.6  m  15?  30.25  74.4    3 118 102  97
   2024 04 25 16:50  23 10 58.37    -24 45 20.5   185363 1.0055  58.5  m  15?  29.22  74.0    4 116 102  97
   2024 04 25 17:00  23 11 18.57    -24 44 00.3   185238 1.0055  58.5  m  15?  28.19  73.5    6 115 102  97
   2024 04 25 17:10  23 11 37.99    -24 42 40.5   185107 1.0055  58.4  m  15?  27.16  72.9    8 114 102  97
   2024 04 25 17:20  23 11 56.62    -24 41 20.9   184972 1.0055  58.3  m  15?  26.13  72.2   10 112 102  97
   2024 04 25 17:30  23 12 14.46    -24 40 01.3   184831 1.0055  58.3  m  15?  25.11  71.5   12 111 102  97
   2024 04 25 17:40  23 12 31.51    -24 38 41.5   184687 1.0055  58.2  m  15?  24.09  70.6   13 110 102  97
   2024 04 25 17:50  23 12 47.75    -24 37 21.3   184539 1.0055  58.2  m  15?  23.09  69.6   15 109 102  97
   2024 04 25 18:00  23 13 03.20    -24 36 00.6   184387 1.0055  58.1  m  15?  22.10  68.5   17 107 102  97
   2024 04 25 18:10  23 13 17.86    -24 34 39.2   184232 1.0055  58.1  m  15?  21.14  67.2   19 106 102  97
   2024 04 25 18:20  23 13 31.73    -24 33 16.8   184075 1.0055  58.0  m  15?  20.19  65.7   21 105 102  97
   2024 04 25 18:30  23 13 44.80    -24 31 53.3   183915 1.0055  58.0  m  15?  19.27  64.1   23 104 102  97
   2024 04 25 18:40  23 13 57.10    -24 30 28.5   183753 1.0055  57.9  m  15?  18.39  62.3   25 103 102  96
   2024 04 25 18:50  23 14 08.62    -24 29 02.2   183590 1.0055  57.9  m  15?  17.55  60.2   27 101 102  96
   2024 04 25 19:00  23 14 19.37    -24 27 34.2   183425 1.0055  57.8  m  15?  16.75  57.9   29 100 102  96
   2024 04 25 19:10  23 14 29.37    -24 26 04.3   183259 1.0055  57.8  m  15?  16.00  55.4   31  99 102  96
   2024 04 25 19:20  23 14 38.62    -24 24 32.3   183093 1.0055  57.8  m  15?  15.31  52.6   33  98 102  96
   2024 04 25 19:30  23 14 47.13    -24 22 58.2   182927 1.0055  57.7  m  15?  14.68  49.5   35  97 102  96
   2024 04 25 19:40  23 14 54.93    -24 21 21.6   182760 1.0055  57.7  m  15?  14.13  46.2   37  95 102  96
   2024 04 25 19:50  23 15 02.02    -24 19 42.4   182595 1.0055  57.7 Am  15?  13.66  42.6   39  94 102  96
   2024 04 25 20:00  23 15 08.43    -24 18 00.4   182430 1.0055  57.6 Am  15?  13.27  38.9   41  93 102  96
   2024 04 25 20:10  23 15 14.17    -24 16 15.5   182266 1.0055  57.6 Am  15?  12.97  34.9   43  91 102  96
   2024 04 25 20:20  23 15 19.25    -24 14 27.6   182104 1.0055  57.6 Nm  15?  12.76  30.9   45  90 102  96
   2024 04 25 20:30  23 15 23.71    -24 12 36.3   181944 1.0055  57.5 Nm  15?  12.64  26.8   47  88 102  96
   2024 04 25 20:40  23 15 27.57    -24 10 41.7   181785 1.0055  57.5 Nm  15?  12.62  22.8   49  87 102  96
   2024 04 25 20:50  23 15 30.84    -24 08 43.5   181630 1.0055  57.5 Cm  15?  12.68  18.9   51  85 102  96
   2024 04 25 21:00  23 15 33.55    -24 06 41.7   181476 1.0055  57.5 Cm  15?  12.82  15.2   53  84 102  96
   2024 04 25 21:10  23 15 35.73    -24 04 36.0   181326 1.0055  57.5 Cm  15?  13.03  11.8   55  82 101  96
   ................
   2024 04 26 17:40  23 56 43.40    -15 38 40.9   152896 1.0057  45.4  m  15?  46.21  59.5    1 108 103  92
   2024 04 26 17:50  23 57 10.64    -15 34 45.2   152135 1.0057  45.3  m  15?  45.51  58.7    2 106 103  92
   2024 04 26 18:00  23 57 37.23    -15 30 47.1   151366 1.0057  45.2  m  15?  44.82  57.8    4 105 103  92
   2024 04 26 18:10  23 58 03.14    -15 26 46.5   150592 1.0057  45.1  m  15?  44.15  56.8    6 104 103  92
   2024 04 26 18:20  23 58 28.36    -15 22 43.2   149811 1.0057  45.0  m  15?  43.48  55.8    8 102 103  92
   2024 04 26 18:30  23 58 52.88    -15 18 37.0   149025 1.0057  44.9  m  15?  42.83  54.7   10 101 103  92
   2024 04 26 18:40  23 59 16.70    -15 14 27.6   148233 1.0058  44.7  m  15?  42.20  53.6   12 100 103  92
   2024 04 26 18:50  23 59 39.82    -15 10 14.8   147436 1.0058  44.6  m  15?  41.60  52.4   14  98 103  92
   2024 04 26 19:00  00 00 02.22    -15 05 58.5   146635 1.0058  44.5  m  15?  41.02  51.1   16  97 104  92
   2024 04 26 19:10  00 00 23.90    -15 01 38.4   145829 1.0058  44.4  m  15?  40.47  49.7   18  95 104  92
   2024 04 26 19:20  00 00 44.86    -14 57 14.4   145019 1.0058  44.3  m  15?  39.96  48.3   20  94 104  92
   2024 04 26 19:30  00 01 05.10    -14 52 46.1   144205 1.0058  44.2  m  15?  39.49  46.9   21  93 104  92
   2024 04 26 19:40  00 01 24.63    -14 48 13.4   143388 1.0058  44.1  m  15?  39.06  45.3   23  91 104  92
   2024 04 26 19:50  00 01 43.43    -14 43 36.0   142568 1.0058  44.0 Am  15?  38.67  43.8   25  90 104  92
   2024 04 26 20:00  00 02 01.52    -14 38 53.8   141746 1.0058  43.9 Am  15?  38.34  42.2   27  88 104  92
   2024 04 26 20:10  00 02 18.91    -14 34 06.4   140920 1.0058  43.8 Am  15?  38.07  40.5   29  87 104  92
   2024 04 26 20:20  00 02 35.60    -14 29 13.8   140093 1.0058  43.7 Nm  15?  37.84  38.8   31  85 104  92
   2024 04 26 20:30  00 02 51.59    -14 24 15.5   139264 1.0058  43.6 Nm  15?  37.68  37.1   33  84 104  92
   2024 04 26 20:40  00 03 06.90    -14 19 11.5   138433 1.0058  43.5 Nm  15?  37.58  35.4   35  82 104  92
   2024 04 26 20:50  00 03 21.55    -14 14 01.5   137601 1.0058  43.4 Cm  15?  37.55  33.6   37  80 104  92
   2024 04 26 21:00  00 03 35.54    -14 08 45.3   136769 1.0058  43.3 Cm  15?  37.58  31.9   39  79 104  92
   2024 04 26 21:10  00 03 48.90    -14 03 22.6   135935 1.0058  43.2 Cm  15?  37.67  30.2   41  77 104  92
   ................
   2024 04 27 14:20  11 14 37.87    +41 37 23.6     6595 1.0067 109.8  r   7?  14964 126.5    4 330 107  86
   2024 04 27 14:30  13 44 12.58    +08 23 37.9     5860 1.0067 155.8  m   8?  16503 139.7   46 350  62  86
   2024 04 27 14:40  15 20 54.40    -18 33 18.8     7634 1.0067 164.8  t   9? 9380.2 135.0   69  43  27  86
   2024 04 27 14:50  16 25 29.49    -31 19 37.0    10365 1.0068 146.5  e   9? 5131.6 126.3   65  90  11  86
   2024 04 27 15:00  17 11 28.74    -37 25 01.9    13257 1.0068 135.4  m  10? 3206.1 118.5   59 106  10  86
   2024 04 27 15:10  17 45 56.85    -40 36 54.4    16092 1.0068 128.1  m  10? 2226.6 112.1   55 113  14  86
   2024 04 27 15:20  18 12 48.83    -42 25 06.6    18820 1.0068 122.8  m  10? 1662.1 106.9   52 116  18  86
   2024 04 27 15:30  18 34 24.11    -43 28 39.9    21431 1.0068 118.7  m  10? 1304.4 102.6   50 118  22  86
   2024 04 27 15:40  18 52 10.37    -44 06 28.9    23931 1.0068 115.5  m  10? 1061.0  99.2   48 119  25  86
   2024 04 27 15:50  19 07 05.40    -44 28 33.9    26329 1.0068 112.8  m  10? 886.40  96.2   47 120  27  86
   2024 04 27 16:00  19 19 48.85    -44 40 35.9    28633 1.0068 110.5  m  11? 755.91  93.6   47 120  29  86
   2024 04 27 16:10  19 30 48.78    -44 45 59.2    30854 1.0068 108.6  m  11? 655.17  91.3   47 120  31  86
   2024 04 27 16:20  19 40 25.66    -44 46 51.8    32997 1.0068 106.9  m  11? 575.34  89.3   47 120  33  86
   2024 04 27 16:30  19 48 54.77    -44 44 36.8    35070 1.0068 105.4  m  11? 510.71  87.5   47 120  34  86
   2024 04 27 16:40  19 56 27.76    -44 40 09.7    37079 1.0068 104.1  m  11? 457.44  85.8   48 120  35  86
   2024 04 27 16:50  20 03 13.67    -44 34 08.3    39029 1.0068 102.9  m  11? 412.88  84.3   48 120  36  86
   2024 04 27 17:00  20 09 19.65    -44 26 59.2    40925 1.0068 101.8  m  11? 375.12  82.9   49 120  37  86
   2024 04 27 17:10  20 14 51.40    -44 19 01.1    42770 1.0068 100.8  m  11? 342.77  81.5   50 119  38  86
   2024 04 27 17:20  20 19 53.57    -44 10 27.3    44568 1.0068  99.9  m  11? 314.80  80.2   51 119  39  86
   2024 04 27 17:30  20 24 29.98    -44 01 27.7    46324 1.0068  99.0  m  11? 290.42  78.9   52 119  40  86
   2024 04 27 17:40  20 28 43.78    -43 52 09.4    48038 1.0068  98.3  m  11? 269.01  77.7   53 118  41  86
   2024 04 27 17:50  20 32 37.62    -43 42 37.7    49715 1.0068  97.5  m  11? 250.10  76.5   54 118  41  86
   2024 04 27 18:00  20 36 13.75    -43 32 56.3    51357 1.0068  96.9  m  11? 233.31  75.3   55 118  42  86
   2024 04 27 18:10  20 39 34.07    -43 23 08.1    52965 1.0068  96.3  m  11? 218.33  74.2   56 117  42  86
   2024 04 27 18:20  20 42 40.23    -43 13 15.2    54543 1.0068  95.7  m  11? 204.91  73.0   57 117  43  86
   2024 04 27 18:30  20 45 33.65    -43 03 19.2    56091 1.0068  95.1  m  12? 192.86  71.8   59 117  43  86
   2024 04 27 18:40  20 48 15.56    -42 53 21.0    57612 1.0068  94.6  m  12? 181.99  70.7   60 117  44  86
   2024 04 27 18:50  20 50 47.04    -42 43 21.6    59107 1.0067  94.1  m  12? 172.17  69.5   61 117  44  86
   2024 04 27 19:00  20 53 09.06    -42 33 21.5    60578 1.0067  93.7  m  12? 163.29  68.3   63 117  44  86
   2024 04 27 19:10  20 55 22.46    -42 23 21.1    62027 1.0067  93.2  m  12? 155.24  67.1   64 117  45  86
   2024 04 27 19:20  20 57 28.00    -42 13 20.5    63453 1.0067  92.8  m  12? 147.93  65.9   66 117  45  85
   2024 04 27 19:30  20 59 26.34    -42 03 20.0    64860 1.0067  92.4  m  12? 141.28  64.7   67 117  45  85
   2024 04 27 19:40  21 01 18.10    -41 53 19.6    66247 1.0067  92.1  m  12? 135.25  63.5   69 117  46  85
   2024 04 27 19:50  21 03 03.83    -41 43 19.3    67616 1.0067  91.7  m  12? 129.76  62.3   70 118  46  85
   2024 04 27 20:00  21 04 44.01    -41 33 19.2    68968 1.0067  91.4 Am  12? 124.77  61.1   72 119  46  85
   2024 04 27 20:10  21 06 19.11    -41 23 19.1    70305 1.0067  91.0 Am  12? 120.23  60.0   73 120  47  85
   2024 04 27 20:20  21 07 49.53    -41 13 19.1    71625 1.0067  90.7 Nm  12? 116.11  58.8   75 121  47  85
   2024 04 27 20:30  21 09 15.65    -41 03 19.1    72932 1.0067  90.4 Nm  12? 112.36  57.6   77 123  47  85
   2024 04 27 20:40  21 10 37.82    -40 53 19.0    74225 1.0067  90.1 Nm  12? 108.96  56.5   78 126  47  85
   2024 04 27 20:50  21 11 56.36    -40 43 18.8    75505 1.0067  89.9 Cm  12? 105.88  55.4   80 130  47  85
   2024 04 27 21:00  21 13 11.55    -40 33 18.4    76773 1.0067  89.6 Cm  12? 103.09  54.3   81 136  48  85
   2024 04 27 21:10  21 14 23.69    -40 23 17.8    78030 1.0067  89.3 Cm  12? 100.56  53.2   82 144  48  85
   ................
   

MMS-3 (JPL-ID: -140484)

   Date (UTC) HH:MM   RA              Dec         delta   r     elong SM  mag  '/hr    PA   alt  az moo ill
   ---- -- -- -----  -------------   -----------  ------ ------ ----- --  --- ------ ------ --- --- --- ---
   2024 04 14 16:30  22 49 46.41    -28 11 58.4   172135 1.0025  54.5  r  15?  37.43  79.3    0 125 128  38
   2024 04 14 16:40  22 50 13.80    -28 10 50.1   172301 1.0025  54.4     15?  36.23  79.3    1 123 128  38
   2024 04 14 16:50  22 50 40.28    -28 09 43.4   172460 1.0025  54.3     15?  35.02  79.1    2 122 128  38
   2024 04 14 17:00  22 51 05.85    -28 08 38.0   172612 1.0025  54.2     15?  33.81  79.0    4 121 128  38
   2024 04 14 17:10  22 51 30.49    -28 07 33.8   172758 1.0025  54.1     15?  32.60  78.7    6 120 128  38
   2024 04 14 17:20  22 51 54.21    -28 06 30.6   172897 1.0025  54.1     15?  31.39  78.5    7 118 128  38
   2024 04 14 17:30  22 52 17.01    -28 05 28.1   173030 1.0025  54.0     15?  30.18  78.1    9 117 128  38
   2024 04 14 17:40  22 52 38.88    -28 04 26.2   173157 1.0025  53.9     15?  28.97  77.7   11 116 128  39
   2024 04 14 17:50  22 52 59.81    -28 03 24.5   173279 1.0025  53.9     15?  27.77  77.2   13 115 128  39
   2024 04 14 18:00  22 53 19.82    -28 02 22.9   173397 1.0025  53.8     15?  26.58  76.6   14 113 128  39
   2024 04 14 18:10  22 53 38.90    -28 01 21.2   173509 1.0025  53.7     15?  25.40  75.9   16 112 128  39
   2024 04 14 18:20  22 53 57.06    -28 00 19.1   173618 1.0025  53.7     15?  24.23  75.1   18 111 128  39
   2024 04 14 18:30  22 54 14.30    -27 59 16.5   173723 1.0025  53.6     15?  23.09  74.2   20 110 128  39
   2024 04 14 18:40  22 54 30.63    -27 58 13.0   173824 1.0025  53.6     15?  21.96  73.1   22 109 128  39
   2024 04 14 18:50  22 54 46.05    -27 57 08.5   173923 1.0025  53.5     15?  20.86  71.9   24 108 128  39
   2024 04 14 19:00  22 55 00.58    -27 56 02.8   174018 1.0025  53.5     15?  19.79  70.4   26 107 128  39
   2024 04 14 19:10  22 55 14.22    -27 54 55.7   174112 1.0025  53.4     15?  18.76  68.8   28 105 128  39
   2024 04 14 19:20  22 55 27.00    -27 53 46.8   174203 1.0025  53.4     15?  17.76  66.9   29 104 128  40
   2024 04 14 19:30  22 55 38.91    -27 52 36.1   174293 1.0025  53.4     15?  16.81  64.8   31 103 128  40
   2024 04 14 19:40  22 55 49.97    -27 51 23.3   174381 1.0025  53.3     15?  15.92  62.4   33 102 128  40
   2024 04 14 19:50  22 56 00.21    -27 50 08.3   174469 1.0025  53.3 A   15?  15.09  59.7   35 101 128  40
   2024 04 14 20:00  22 56 09.64    -27 48 50.7   174556 1.0025  53.2 A   15?  14.32  56.7   37 100 128  40
   2024 04 14 20:10  22 56 18.28    -27 47 30.4   174643 1.0025  53.2 A   15?  13.63  53.3   39  99 129  40
   2024 04 14 20:20  22 56 26.15    -27 46 07.3   174731 1.0025  53.2 N   15?  13.03  49.6   41  98 129  40
   2024 04 14 20:30  22 56 33.27    -27 44 41.1   174819 1.0025  53.2 N   15?  12.52  45.6   43  96 129  40
   2024 04 14 20:40  22 56 39.66    -27 43 11.6   174907 1.0025  53.1 C   15?  12.11  41.4   45  95 129  40
   2024 04 14 20:50  22 56 45.35    -27 41 38.7   174997 1.0025  53.1 C   15?  11.81  36.9   47  94 129  40
   2024 04 14 21:00  22 56 50.37    -27 40 02.3   175088 1.0025  53.1 C   15?  11.61  32.4   49  93 129  40
   ................
   2024 04 15 17:40  23 33 38.11    -20 37 36.8   179301 1.0026  42.9  r  15?  33.48  69.1    0 115 128  48
   2024 04 15 17:50  23 34 00.01    -20 35 37.0   178854 1.0026  42.8     15?  32.57  68.5    1 113 128  49
   2024 04 15 18:00  23 34 21.22    -20 33 37.2   178401 1.0026  42.7     15?  31.66  67.8    3 112 128  49
   2024 04 15 18:10  23 34 41.72    -20 31 37.2   177942 1.0026  42.7     15?  30.75  67.1    5 110 128  49
   2024 04 15 18:20  23 35 01.50    -20 29 36.9   177478 1.0026  42.6     15?  29.84  66.2    7 109 128  49
   2024 04 15 18:30  23 35 20.55    -20 27 36.0   177009 1.0026  42.5     15?  28.93  65.3    9 108 128  49
   2024 04 15 18:40  23 35 38.86    -20 25 34.5   176535 1.0026  42.5     15?  28.03  64.3   11 107 128  49
   2024 04 15 18:50  23 35 56.44    -20 23 32.1   176057 1.0026  42.4     15?  27.15  63.2   13 105 129  49
   2024 04 15 19:00  23 36 13.27    -20 21 28.7   175575 1.0026  42.3     15?  26.27  61.9   14 104 129  49
   2024 04 15 19:10  23 36 29.36    -20 19 24.1   175090 1.0026  42.3     15?  25.42  60.5   16 103 129  49
   2024 04 15 19:20  23 36 44.70    -20 17 18.0   174601 1.0026  42.2     15?  24.59  59.0   18 101 129  49
   2024 04 15 19:30  23 36 59.29    -20 15 10.5   174110 1.0026  42.1     15?  23.79  57.4   20 100 129  49
   2024 04 15 19:40  23 37 13.14    -20 13 01.1   173616 1.0026  42.1     15?  23.02  55.6   22  99 129  50
   2024 04 15 19:50  23 37 26.24    -20 10 49.8   173120 1.0026  42.0 A   15?  22.28  53.7   24  98 129  50
   2024 04 15 20:00  23 37 38.60    -20 08 36.5   172622 1.0026  42.0 A   15?  21.60  51.6   26  96 129  50
   2024 04 15 20:10  23 37 50.23    -20 06 20.8   172123 1.0026  41.9 A   15?  20.96  49.4   28  95 129  50
   2024 04 15 20:20  23 38 01.13    -20 04 02.7   171623 1.0026  41.9 N   15?  20.37  46.9   30  94 129  50
   2024 04 15 20:30  23 38 11.31    -20 01 41.9   171122 1.0026  41.8 N   15?  19.84  44.4   32  92 129  50
   2024 04 15 20:40  23 38 20.79    -19 59 18.3   170621 1.0026  41.8 N   15?  19.38  41.7   34  91 129  50
   2024 04 15 20:50  23 38 29.57    -19 56 51.8   170120 1.0026  41.7 C   15?  18.99  38.9   36  89 129  50
   2024 04 15 21:00  23 38 37.66    -19 54 22.1   169620 1.0026  41.7 C   15?  18.67  36.0   38  88 129  50
   ................
   2024 04 16 20:10  01 08 27.83    +00 16 20.2    68999 1.0033  12.8 Ar  14? 249.81  46.8    0  89 112  59
   2024 04 16 20:20  01 10 31.20    +00 45 33.6    67346 1.0033  12.1 N   14? 260.83  46.4    1  88 112  60
   ................
   2024 04 17 15:30  22 14 24.52    -32 53 47.0   127944 1.0037  66.0  r  14?  64.09  81.3    0 130 163  66
   2024 04 17 15:40  22 15 14.02    -32 52 12.3   128577 1.0037  65.9     14?  62.01  81.2    1 129 163  67
   2024 04 17 15:50  22 16 01.88    -32 50 40.4   129199 1.0037  65.7     14?  59.95  81.2    3 128 163  67
   2024 04 17 16:00  22 16 48.11    -32 49 10.9   129810 1.0037  65.6     14?  57.91  81.1    4 126 163  67
   2024 04 17 16:10  22 17 32.73    -32 47 43.5   130411 1.0037  65.5     14?  55.89  81.0    6 125 162  67
   2024 04 17 16:20  22 18 15.74    -32 46 18.0   131003 1.0037  65.3     14?  53.90  80.8    7 124 162  67
   2024 04 17 16:30  22 18 57.18    -32 44 54.0   131584 1.0037  65.2     14?  51.93  80.7    9 123 162  67
   2024 04 17 16:40  22 19 37.04    -32 43 31.3   132157 1.0036  65.1     14?  49.98  80.4   11 122 162  67
   2024 04 17 16:50  22 20 15.36    -32 42 09.6   132721 1.0036  65.0     14?  48.07  80.2   12 120 162  67
   2024 04 17 17:00  22 20 52.15    -32 40 48.5   133277 1.0036  64.8     14?  46.18  79.8   14 119 162  67
   2024 04 17 17:10  22 21 27.43    -32 39 27.8   133825 1.0036  64.7     14?  44.32  79.4   16 118 162  67
   2024 04 17 17:20  22 22 01.21    -32 38 07.3   134365 1.0036  64.6     14?  42.49  79.0   17 117 162  67
   2024 04 17 17:30  22 22 33.52    -32 36 46.5   134898 1.0036  64.5     14?  40.70  78.4   19 116 162  67
   2024 04 17 17:40  22 23 04.39    -32 35 25.2   135425 1.0036  64.4     14?  38.94  77.8   21 115 162  67
   2024 04 17 17:50  22 23 33.83    -32 34 03.2   135945 1.0036  64.3     14?  37.23  77.1   23 114 162  67
   2024 04 17 18:00  22 24 01.86    -32 32 40.1   136459 1.0036  64.2     14?  35.55  76.3   24 113 162  67
   2024 04 17 18:10  22 24 28.53    -32 31 15.7   136967 1.0036  64.2     14?  33.93  75.3   26 112 162  68
   2024 04 17 18:20  22 24 53.84    -32 29 49.6   137470 1.0036  64.1     14?  32.35  74.3   28 111 162  68
   2024 04 17 18:30  22 25 17.83    -32 28 21.7   137969 1.0036  64.0     14?  30.83  73.1   30 110 162  68
   2024 04 17 18:40  22 25 40.54    -32 26 51.6   138462 1.0036  63.9     14?  29.36  71.8   32 109 162  68
   2024 04 17 18:50  22 26 01.98    -32 25 19.1   138952 1.0036  63.9     14?  27.96  70.3   34 108 162  68
   2024 04 17 19:00  22 26 22.19    -32 23 43.9   139438 1.0036  63.8     14?  26.63  68.6   35 107 162  68
   2024 04 17 19:10  22 26 41.20    -32 22 05.8   139921 1.0036  63.7     14?  25.36  66.8   37 106 162  68
   2024 04 17 19:20  22 26 59.05    -32 20 24.5   140401 1.0036  63.7     14?  24.18  64.7   39 105 162  68
   2024 04 17 19:30  22 27 15.78    -32 18 39.8   140878 1.0036  63.6     14?  23.08  62.4   41 104 162  68
   2024 04 17 19:40  22 27 31.41    -32 16 51.5   141353 1.0036  63.6     14?  22.08  59.9   43 103 162  68
   2024 04 17 19:50  22 27 45.99    -32 14 59.3   141826 1.0036  63.5 A   14?  21.17  57.2   45 102 162  68
   2024 04 17 20:00  22 27 59.56    -32 13 03.0   142298 1.0036  63.4 A   14?  20.36  54.4   47 101 162  68
   2024 04 17 20:10  22 28 12.15    -32 11 02.5   142769 1.0036  63.4 A   14?  19.67  51.3   49 100 162  69
   2024 04 17 20:20  22 28 23.81    -32 08 57.5   143238 1.0036  63.3 N   14?  19.08  48.0   51  99 162  69
   2024 04 17 20:30  22 28 34.58    -32 06 47.9   143707 1.0036  63.3 N   14?  18.61  44.7   53  98 162  69
   2024 04 17 20:40  22 28 44.49    -32 04 33.5   144176 1.0036  63.3 N   14?  18.25  41.3   55  97 162  69
   2024 04 17 20:50  22 28 53.61    -32 02 14.1   144645 1.0036  63.2 C   14?  18.00  37.9   57  96 162  69
   2024 04 17 21:00  22 29 01.96    -31 59 49.6   145114 1.0036  63.2 C   14?  17.87  34.5   59  95 162  69
   ................
   2024 04 18 16:50  23 11 40.97    -24 36 12.0   186557 1.0035  52.0  r  15?  31.56  75.5    0 120 163  76
   2024 04 18 17:00  23 12 03.01    -24 34 52.9   186423 1.0035  51.9     15?  30.55  75.2    1 119 163  76
   2024 04 18 17:10  23 12 24.30    -24 33 34.7   186283 1.0035  51.8     15?  29.54  74.8    3 117 163  76
   2024 04 18 17:20  23 12 44.83    -24 32 17.2   186137 1.0035  51.8     15?  28.52  74.4    4 116 163  76
   2024 04 18 17:30  23 13 04.60    -24 31 00.3   185985 1.0035  51.7     15?  27.50  73.9    6 115 163  76
   2024 04 18 17:40  23 13 23.59    -24 29 43.7   185829 1.0035  51.6     15?  26.48  73.3    8 113 163  76
   2024 04 18 17:50  23 13 41.79    -24 28 27.3   185667 1.0035  51.6     15?  25.46  72.6   10 112 163  76
   2024 04 18 18:00  23 13 59.22    -24 27 10.9   185501 1.0035  51.5     15?  24.45  71.8   12 111 163  76
   2024 04 18 18:10  23 14 15.86    -24 25 54.3   185330 1.0035  51.5     15?  23.44  71.0   13 110 163  76
   2024 04 18 18:20  23 14 31.71    -24 24 37.3   185156 1.0035  51.4     15?  22.44  70.0   15 108 163  76
   2024 04 18 18:30  23 14 46.77    -24 23 19.7   184978 1.0035  51.4     15?  21.46  68.8   17 107 163  76
   2024 04 18 18:40  23 15 01.04    -24 22 01.4   184798 1.0035  51.3     15?  20.50  67.5   19 106 163  76
   2024 04 18 18:50  23 15 14.53    -24 20 42.1   184614 1.0035  51.3     15?  19.56  66.0   21 105 163  76
   2024 04 18 19:00  23 15 27.23    -24 19 21.6   184428 1.0035  51.2     15?  18.65  64.4   23 104 163  76
   2024 04 18 19:10  23 15 39.17    -24 17 59.9   184241 1.0035  51.2     15?  17.77  62.5   25 102 163  76
   2024 04 18 19:20  23 15 50.33    -24 16 36.6   184052 1.0035  51.1     15?  16.93  60.4   27 101 163  76
   2024 04 18 19:30  23 16 00.73    -24 15 11.6   183861 1.0035  51.1     15?  16.13  58.0   29 100 163  77
   2024 04 18 19:40  23 16 10.38    -24 13 44.7   183670 1.0035  51.1     15?  15.39  55.4   31  99 163  77
   2024 04 18 19:50  23 16 19.29    -24 12 15.7   183478 1.0035  51.0 A   15?  14.71  52.5   33  98 163  77
   2024 04 18 20:00  23 16 27.48    -24 10 44.5   183286 1.0035  51.0 A   15?  14.09  49.3   35  96 163  77
   2024 04 18 20:10  23 16 34.94    -24 09 10.9   183095 1.0035  51.0 A   15?  13.55  45.8   37  95 163  77
   2024 04 18 20:20  23 16 41.71    -24 07 34.6   182904 1.0035  50.9 N   15?  13.09  42.1   39  94 163  77
   2024 04 18 20:30  23 16 47.80    -24 05 55.6   182714 1.0035  50.9 N   15?  12.71  38.1   41  92 163  77
   2024 04 18 20:40  23 16 53.22    -24 04 13.6   182525 1.0035  50.9 N   15?  12.43  34.0   43  91 163  77
   2024 04 18 20:50  23 16 58.00    -24 02 28.6   182337 1.0035  50.8 C   15?  12.24  29.8   45  90 163  77
   2024 04 18 21:00  23 17 02.15    -24 00 40.3   182152 1.0035  50.8 C   15?  12.14  25.6   47  88 163  77
   ................
   2024 04 19 18:10  23 58 35.08    -15 25 10.3   149588 1.0038  38.6  r  15?  47.59  59.4    1 107 164  83
   2024 04 19 18:20  23 59 03.09    -15 21 05.6   148792 1.0038  38.5     15?  46.92  58.5    2 106 164  84
   2024 04 19 18:30  23 59 30.44    -15 16 58.2   147988 1.0038  38.4     15?  46.26  57.6    4 105 164  84
   2024 04 19 18:40  23 59 57.12    -15 12 48.0   147178 1.0038  38.2     15?  45.61  56.7    6 103 164  84
   2024 04 19 18:50  00 00 23.12    -15 08 34.8   146362 1.0038  38.1     15?  44.97  55.7    8 102 164  84
   2024 04 19 19:00  00 00 48.43    -15 04 18.3   145540 1.0038  38.0     15?  44.35  54.6   10 101 164  84
   2024 04 19 19:10  00 01 13.04    -14 59 58.3   144713 1.0038  37.9     15?  43.75  53.4   12  99 164  84
   2024 04 19 19:20  00 01 36.95    -14 55 34.6   143880 1.0038  37.8     15?  43.18  52.2   14  98 164  84
   2024 04 19 19:30  00 02 00.15    -14 51 07.0   143042 1.0038  37.7     15?  42.63  51.0   16  97 164  84
   2024 04 19 19:40  00 02 22.64    -14 46 35.3   142200 1.0038  37.6     15?  42.11  49.6   18  95 164  84
   2024 04 19 19:50  00 02 44.41    -14 41 59.1   141353 1.0038  37.4 A   15?  41.63  48.2   19  94 164  84
   2024 04 19 20:00  00 03 05.47    -14 37 18.4   140502 1.0038  37.3 A   15?  41.19  46.8   21  92 164  84
   2024 04 19 20:10  00 03 25.81    -14 32 32.8   139648 1.0038  37.2 A   15?  40.80  45.3   23  91 164  84
   2024 04 19 20:20  00 03 45.44    -14 27 42.0   138790 1.0038  37.1 N   15?  40.45  43.8   25  90 164  84
   2024 04 19 20:30  00 04 04.36    -14 22 46.0   137929 1.0038  37.0 N   15?  40.16  42.2   27  88 164  84
   2024 04 19 20:40  00 04 22.57    -14 17 44.4   137066 1.0038  36.9 N   15?  39.92  40.6   29  87 164  84
   2024 04 19 20:50  00 04 40.09    -14 12 36.9   136200 1.0039  36.8 C   15?  39.74  38.9   31  85 164  84
   2024 04 19 21:00  00 04 56.92    -14 07 23.4   135332 1.0039  36.7 C   15?  39.62  37.2   33  83 164  84
   ................
   2024 04 20 13:50  12 49 04.30    +41 45 07.2     5615 1.0048 124.5  r   7?  18663 136.7   13 357  40  89
   2024 04 20 14:00  15 04 57.24    +01 48 59.1     6031 1.0048 157.8  t   8?  14774 143.8   45  41  52  89
   2024 04 20 14:10  16 20 48.05    -20 54 48.3     8572 1.0049 143.7  e   9? 7283.0 135.8   48  82  74  89
   2024 04 20 14:20  17 11 02.94    -30 59 37.3    11591 1.0049 130.7  m   9? 4086.3 126.8   44 101  87  89
   2024 04 20 14:30  17 47 35.00    -36 00 52.7    14595 1.0049 122.3  m   9? 2657.8 119.3   40 110  95  89
   2024 04 20 14:40  18 15 38.65    -38 48 11.4    17480 1.0049 116.4  m  10? 1906.4 113.3   38 115 100  89
   2024 04 20 14:50  18 38 00.83    -40 27 57.8    20228 1.0049 112.0  m  10? 1458.1 108.4   36 118 104  89
   2024 04 20 15:00  18 56 20.64    -41 30 05.3    22846 1.0049 108.5  m  10? 1165.7 104.4   35 119 107  89
   2024 04 20 15:10  19 11 41.32    -42 09 38.3    25346 1.0049 105.6  m  10? 961.93 101.1   34 120 110  89
   2024 04 20 15:20  19 24 45.34    -42 34 53.8    27740 1.0049 103.2  m  10? 812.91  98.3   34 121 112  89
   2024 04 20 15:30  19 36 02.42    -42 50 43.4    30038 1.0049 101.2  m  10? 699.70  95.8   34 122 114  89
   2024 04 20 15:40  19 45 54.01    -43 00 07.4    32250 1.0049  99.4  m  10? 611.08  93.7   34 122 116  89
   2024 04 20 15:50  19 54 36.00    -43 05 01.6    34382 1.0049  97.9  m  11? 540.01  91.8   34 122 117  89
   2024 04 20 16:00  20 02 20.45    -43 06 43.4    36444 1.0049  96.5  m  11? 481.85  90.1   34 122 118  89
   2024 04 20 16:10  20 09 16.69    -43 06 05.5    38440 1.0049  95.3  m  11? 433.45  88.6   35 121 119  89
   2024 04 20 16:20  20 15 32.03    -43 03 44.8    40376 1.0048  94.1  m  11? 392.61  87.1   36 121 120  89
   2024 04 20 16:30  20 21 12.35    -43 00 07.6    42256 1.0048  93.1  m  11? 357.72  85.8   36 121 121  89
   2024 04 20 16:40  20 26 22.37    -42 55 33.0    44085 1.0048  92.2  m  11? 327.60  84.6   37 120 122  89
   2024 04 20 16:50  20 31 05.98    -42 50 14.9    45865 1.0048  91.3  m  11? 301.36  83.4   38 120 123  89
   2024 04 20 17:00  20 35 26.40    -42 44 23.8    47602 1.0048  90.5  m  11? 278.32  82.3   39 119 123  89
   2024 04 20 17:10  20 39 26.30    -42 38 07.3    49297 1.0048  89.8  m  11? 257.95  81.2   40 119 124  90
   2024 04 20 17:20  20 43 07.96    -42 31 31.3    50953 1.0048  89.1  m  11? 239.83  80.1   41 118 125  90
   2024 04 20 17:30  20 46 33.30    -42 24 40.2    52572 1.0048  88.5  m  11? 223.63  79.0   42 118 125  90
   2024 04 20 17:40  20 49 43.99    -42 17 37.3    54157 1.0048  87.9  m  11? 209.08  78.0   44 117 126  90
   2024 04 20 17:50  20 52 41.46    -42 10 25.1    55710 1.0048  87.4  m  11? 195.96  76.9   45 117 126  90
   2024 04 20 18:00  20 55 26.94    -42 03 05.6    57233 1.0048  86.9  m  11? 184.08  75.8   46 116 127  90
   2024 04 20 18:10  20 58 01.54    -41 55 40.2    58727 1.0048  86.4  m  12? 173.30  74.8   47 116 127  90
   2024 04 20 18:20  21 00 26.20    -41 48 09.9    60194 1.0048  85.9  m  12? 163.49  73.7   49 115 127  90
   2024 04 20 18:30  21 02 41.78    -41 40 35.6    61635 1.0048  85.5     12? 154.55  72.6   50 115 128  90
   2024 04 20 18:40  21 04 49.03    -41 32 57.9    63053 1.0048  85.1     12? 146.39  71.5   52 115 128  90
   2024 04 20 18:50  21 06 48.64    -41 25 17.0    64448 1.0048  84.7     12? 138.92  70.3   53 114 128  90
   2024 04 20 19:00  21 08 41.21    -41 17 33.5    65821 1.0048  84.3     12? 132.09  69.1   55 114 128  90
   2024 04 20 19:10  21 10 27.28    -41 09 47.3    67174 1.0048  84.0     12? 125.84  67.9   56 113 129  90
   2024 04 20 19:20  21 12 07.37    -41 01 58.7    68508 1.0048  83.6     12? 120.11  66.7   58 113 129  90
   2024 04 20 19:30  21 13 41.92    -40 54 07.7    69824 1.0048  83.3     12? 114.87  65.5   60 113 129  90
   2024 04 20 19:40  21 15 11.34    -40 46 14.2    71123 1.0048  83.0     12? 110.08  64.2   61 112 129  90
   2024 04 20 19:50  21 16 36.03    -40 38 18.4    72406 1.0048  82.7 A   12? 105.70  62.9   63 112 130  90
   2024 04 20 20:00  21 17 56.32    -40 30 20.1    73673 1.0048  82.4 A   12? 101.70  61.6   64 112 130  90
   2024 04 20 20:10  21 19 12.55    -40 22 19.3    74926 1.0048  82.2 A   12?  98.05  60.3   66 112 130  90
   2024 04 20 20:20  21 20 25.01    -40 14 15.9    76166 1.0048  81.9 N   12?  94.73  59.0   68 112 130  90
   2024 04 20 20:30  21 21 33.99    -40 06 10.0    77392 1.0048  81.7 N   12?  91.72  57.6   69 112 130  90
   2024 04 20 20:40  21 22 39.73    -39 58 01.4    78607 1.0048  81.4 N   12?  88.99  56.3   71 113 131  90
   2024 04 20 20:50  21 23 42.49    -39 49 50.1    79810 1.0048  81.2 C   12?  86.52  55.0   73 114 131  90
   2024 04 20 21:00  21 24 42.49    -39 41 36.1    81002 1.0048  81.0 C   12?  84.30  53.7   75 114 131  90
   ................
   2024 04 21 16:00  22 47 51.90    -28 28 34.7   169380 1.0046  61.2  r  15?  38.49  78.9    0 125 142  94
   2024 04 21 16:10  22 48 20.05    -28 27 22.1   169579 1.0046  61.2  m  15?  37.25  78.8    1 124 142  94
   2024 04 21 16:20  22 48 47.27    -28 26 11.1   169771 1.0046  61.1  m  15?  36.02  78.7    2 122 142  94
   2024 04 21 16:30  22 49 13.54    -28 25 01.6   169956 1.0046  61.0  m  15?  34.78  78.5    4 121 142  94
   2024 04 21 16:40  22 49 38.87    -28 23 53.2   170133 1.0046  60.9  m  15?  33.53  78.3    6 120 143  94
   2024 04 21 16:50  22 50 03.25    -28 22 45.9   170305 1.0046  60.8  m  15?  32.29  78.0    7 119 143  94
   2024 04 21 17:00  22 50 26.68    -28 21 39.4   170470 1.0045  60.8  m  15?  31.05  77.6    9 117 143  94
   2024 04 21 17:10  22 50 49.15    -28 20 33.4   170629 1.0045  60.7  m  15?  29.82  77.2   11 116 143  94
   2024 04 21 17:20  22 51 10.67    -28 19 27.7   170783 1.0045  60.6  m  15?  28.59  76.7   13 115 143  94
   2024 04 21 17:30  22 51 31.24    -28 18 22.2   170932 1.0045  60.5  m  15?  27.38  76.1   14 114 143  95
   2024 04 21 17:40  22 51 50.86    -28 17 16.5   171076 1.0045  60.5  m  15?  26.17  75.3   16 113 143  95
   2024 04 21 17:50  22 52 09.54    -28 16 10.5   171216 1.0045  60.4  m  15?  24.99  74.5   18 111 143  95
   2024 04 21 18:00  22 52 27.27    -28 15 03.9   171352 1.0045  60.4  m  15?  23.82  73.6   20 110 142  95
   2024 04 21 18:10  22 52 44.07    -28 13 56.6   171484 1.0045  60.3  m  15?  22.67  72.5   22 109 142  95
   2024 04 21 18:20  22 52 59.95    -28 12 48.2   171614 1.0045  60.3  m  15?  21.55  71.3   24 108 142  95
   2024 04 21 18:30  22 53 14.91    -28 11 38.6   171740 1.0045  60.2  m  15?  20.47  69.8   26 107 142  95
   2024 04 21 18:40  22 53 28.97    -28 10 27.5   171864 1.0045  60.2  m  15?  19.42  68.2   27 106 142  95
   2024 04 21 18:50  22 53 42.14    -28 09 14.8   171986 1.0045  60.1  m  15?  18.41  66.3   29 105 142  95
   2024 04 21 19:00  22 53 54.43    -28 08 00.1   172106 1.0045  60.1  m  15?  17.45  64.2   31 104 142  95
   2024 04 21 19:10  22 54 05.86    -28 06 43.4   172225 1.0045  60.0  m  15?  16.54  61.8   33 102 142  95
   2024 04 21 19:20  22 54 16.44    -28 05 24.4   172343 1.0045  60.0     15?  15.70  59.2   35 101 142  95
   2024 04 21 19:30  22 54 26.20    -28 04 02.8   172460 1.0045  60.0     15?  14.93  56.2   37 100 142  95
   2024 04 21 19:40  22 54 35.15    -28 02 38.6   172577 1.0045  59.9     15?  14.23  52.9   39  99 142  95
   2024 04 21 19:50  22 54 43.32    -28 01 11.4   172694 1.0045  59.9 A   15?  13.62  49.3   41  98 142  95
   2024 04 21 20:00  22 54 50.72    -27 59 41.2   172812 1.0045  59.9 A   15?  13.11  45.4   43  97 142  95
   2024 04 21 20:10  22 54 57.39    -27 58 07.7   172930 1.0045  59.8 A   15?  12.69  41.3   45  96 142  95
   2024 04 21 20:20  22 55 03.34    -27 56 30.7   173049 1.0045  59.8 N   15?  12.38  37.0   47  94 142  95
   2024 04 21 20:30  22 55 08.60    -27 54 50.1   173170 1.0045  59.8 N   15?  12.17  32.6   49  93 142  95
   2024 04 21 20:40  22 55 13.21    -27 53 05.7   173292 1.0045  59.8 N   15?  12.07  28.2   51  92 142  95
   2024 04 21 20:50  22 55 17.18    -27 51 17.4   173416 1.0045  59.7 C   15?  12.07  23.9   53  90 142  95
   2024 04 21 21:00  22 55 20.56    -27 49 25.1   173542 1.0045  59.7 C   15?  12.17  19.7   55  89 142  95
   ................
   2024 04 22 17:10  23 32 00.79    -20 46 24.0   180843 1.0046  49.6  r  15?  33.09  68.9    0 115 143  98
   2024 04 22 17:20  23 32 22.48    -20 44 24.6   180426 1.0046  49.5  m  15?  32.18  68.3    1 113 143  98
   2024 04 22 17:30  23 32 43.47    -20 42 25.3   180002 1.0046  49.4  m  15?  31.27  67.7    3 112 143  98
   2024 04 22 17:40  23 33 03.76    -20 40 25.8   179573 1.0046  49.3  m  15?  30.35  66.9    5 111 143  98
   2024 04 22 17:50  23 33 23.32    -20 38 26.1   179139 1.0046  49.3  m  15?  29.44  66.1    7 109 144  98
   2024 04 22 18:00  23 33 42.15    -20 36 25.9   178700 1.0046  49.2  m  15?  28.53  65.2    9 108 144  98
   2024 04 22 18:10  23 34 00.25    -20 34 25.1   178256 1.0046  49.1  m  15?  27.63  64.1   11 107 144  98
   2024 04 22 18:20  23 34 17.61    -20 32 23.4   177808 1.0046  49.0  m  15?  26.74  63.0   12 106 144  98
   2024 04 22 18:30  23 34 34.22    -20 30 20.8   177356 1.0046  49.0  m  15?  25.87  61.7   14 104 144  98
   2024 04 22 18:40  23 34 50.09    -20 28 17.1   176900 1.0046  48.9  m  15?  25.01  60.4   16 103 144  98
   2024 04 22 18:50  23 35 05.22    -20 26 12.0   176442 1.0046  48.9  m  15?  24.18  58.8   18 102 144  98
   2024 04 22 19:00  23 35 19.60    -20 24 05.4   175980 1.0046  48.8  m  15?  23.38  57.2   20 100 144  98
   2024 04 22 19:10  23 35 33.23    -20 21 57.2   175516 1.0046  48.7  m  15?  22.61  55.4   22  99 144  98
   2024 04 22 19:20  23 35 46.12    -20 19 47.1   175051 1.0046  48.7  m  15?  21.88  53.4   24  98 143  98
   2024 04 22 19:30  23 35 58.27    -20 17 35.0   174583 1.0046  48.6  m  15?  21.19  51.3   26  97 143  98
   2024 04 22 19:40  23 36 09.69    -20 15 20.6   174114 1.0046  48.6  m  15?  20.55  49.0   28  95 143  98
   2024 04 22 19:50  23 36 20.39    -20 13 03.9   173645 1.0046  48.5 Am  15?  19.97  46.6   30  94 143  98
   2024 04 22 20:00  23 36 30.37    -20 10 44.6   173175 1.0046  48.5 Am  15?  19.45  44.0   32  93 143  98
   2024 04 22 20:10  23 36 39.65    -20 08 22.6   172704 1.0046  48.4 Am  15?  18.99  41.3   34  91 143  98
   2024 04 22 20:20  23 36 48.23    -20 05 57.7   172234 1.0046  48.4 N   15?  18.60  38.4   36  90 143  98
   2024 04 22 20:30  23 36 56.13    -20 03 29.7   171764 1.0046  48.3 N   15?  18.28  35.5   38  88 143  98
   2024 04 22 20:40  23 37 03.36    -20 00 58.5   171295 1.0046  48.3 N   15?  18.03  32.5   40  87 143  98
   2024 04 22 20:50  23 37 09.95    -19 58 23.9   170826 1.0046  48.3 C   15?  17.87  29.5   42  85 143  98
   2024 04 22 21:00  23 37 15.90    -19 55 45.8   170360 1.0046  48.2 C   15?  17.77  26.4   44  84 143  98
   2024 04 22 21:10  23 37 21.24    -19 53 03.9   169895 1.0046  48.2 C   15?  17.76  23.4   46  82 143  98
   ................
   2024 04 23 19:20  00 54 01.64    -02 40 19.8    81732 1.0052  23.6  r  14? 176.39  47.5    0  93 158  99
   2024 04 23 19:30  00 55 29.37    -02 20 01.8    80245 1.0052  23.1  m  14? 181.52  47.0    1  91 159  99
   2024 04 23 19:40  00 56 58.88    -01 58 54.5    78741 1.0052  22.6  m  14? 187.05  46.4    2  90 159  99
   2024 04 23 19:50  00 58 30.34    -01 36 54.6    77222 1.0052  22.1 Am  14? 193.04  45.9    4  88 159  99
   2024 04 23 20:00  01 00 03.91    -01 13 58.1    75686 1.0052  21.5 Am  14? 199.52  45.3    6  87 160  99
   2024 04 23 20:10  01 01 39.80    -00 50 00.8    74134 1.0052  21.0 Am  14? 206.56  44.8    7  85 160  99
   2024 04 23 20:20  01 03 18.24    -00 24 58.1    72566 1.0052  20.4 Nm  14? 214.21  44.3    9  84 161  99
   2024 04 23 20:30  01 04 59.48    +00 01 15.2    70981 1.0052  19.8 Nm  14? 222.55  43.8   10  82 161  99
   2024 04 23 20:40  01 06 43.80    +00 28 44.8    69379 1.0052  19.2 Nm  14? 231.64  43.3   11  80 162  99
   2024 04 23 20:50  01 08 31.55    +00 57 37.1    67760 1.0052  18.5 Cm  14? 241.59  42.8   13  79 163  99
   2024 04 23 21:00  01 10 23.07    +01 27 59.0    66123 1.0052  17.9 Cm  14? 252.49  42.4   14  77 163  99
   2024 04 23 21:10  01 12 18.80    +01 59 58.7    64468 1.0052  17.2 Cm  14? 264.47  41.9   15  75 164  99
   ................
   2024 04 24 14:50  22 08 01.66    -33 37 34.4   120949 1.0057  73.9  r  13?  72.70  80.9    0 132  98  99
   2024 04 24 15:00  22 08 58.08    -33 35 42.8   121654 1.0057  73.7  m  14?  70.36  80.9    1 130  98  99
   2024 04 24 15:10  22 09 52.64    -33 33 54.3   122346 1.0057  73.5  m  14?  68.04  80.8    2 129  99  99
   2024 04 24 15:20  22 10 45.35    -33 32 08.5   123028 1.0057  73.3  m  14?  65.76  80.7    4 128  99  99
   2024 04 24 15:30  22 11 36.24    -33 30 25.3   123698 1.0057  73.2  m  14?  63.51  80.6    5 127  99  99
   2024 04 24 15:40  22 12 25.32    -33 28 44.2   124357 1.0057  73.0  m  14?  61.28  80.5    7 125  99  99
   2024 04 24 15:50  22 13 12.64    -33 27 05.1   125006 1.0057  72.9  m  14?  59.09  80.3    8 124  99  99
   2024 04 24 16:00  22 13 58.20    -33 25 27.5   125645 1.0057  72.7  m  14?  56.94  80.1   10 123  99  99
   2024 04 24 16:10  22 14 42.03    -33 23 51.2   126274 1.0057  72.6  m  14?  54.82  79.8   11 122  99  99
   2024 04 24 16:20  22 15 24.15    -33 22 15.9   126894 1.0057  72.5  m  14?  52.73  79.5   13 121  99  99
   2024 04 24 16:30  22 16 04.60    -33 20 41.2   127505 1.0056  72.3  m  14?  50.68  79.1   15 120  99  99
   2024 04 24 16:40  22 16 43.39    -33 19 07.0   128108 1.0056  72.2  m  14?  48.67  78.7   16 119  99  99
   2024 04 24 16:50  22 17 20.55    -33 17 32.8   128703 1.0056  72.1  m  14?  46.70  78.2   18 118 100  99
   2024 04 24 17:00  22 17 56.11    -33 15 58.4   129289 1.0056  72.0  m  14?  44.77  77.6   20 116 100  99
   2024 04 24 17:10  22 18 30.09    -33 14 23.4   129869 1.0056  71.9  m  14?  42.89  77.0   21 115 100  99
   2024 04 24 17:20  22 19 02.53    -33 12 47.7   130442 1.0056  71.8  m  14?  41.05  76.3   23 114 100  99
   2024 04 24 17:30  22 19 33.46    -33 11 10.8   131008 1.0056  71.7  m  14?  39.27  75.5   25 113 100  99
   2024 04 24 17:40  22 20 02.90    -33 09 32.6   131568 1.0056  71.6  m  14?  37.53  74.5   27 112 100  99
   2024 04 24 17:50  22 20 30.88    -33 07 52.6   132123 1.0056  71.5  m  14?  35.86  73.5   29 111 100  99
   2024 04 24 18:00  22 20 57.45    -33 06 10.7   132672 1.0056  71.4  m  14?  34.24  72.3   30 110 100  99
   2024 04 24 18:10  22 21 22.63    -33 04 26.6   133216 1.0056  71.3  m  14?  32.69  71.0   32 110 100  99
   2024 04 24 18:20  22 21 46.46    -33 02 39.9   133755 1.0056  71.2  m  14?  31.21  69.6   34 109 100  99
   2024 04 24 18:30  22 22 08.98    -33 00 50.5   134291 1.0056  71.1  m  14?  29.80  68.0   36 108 100  99
   2024 04 24 18:40  22 22 30.22    -32 58 58.0   134822 1.0056  71.1  m  14?  28.47  66.2   38 107 100  99
   2024 04 24 18:50  22 22 50.21    -32 57 02.3   135351 1.0056  71.0  m  14?  27.23  64.2   40 106 100  99
   2024 04 24 19:00  22 23 09.01    -32 55 03.1   135876 1.0056  70.9  m  14?  26.07  62.1   42 105 100  99
   2024 04 24 19:10  22 23 26.65    -32 53 00.1   136398 1.0056  70.9  m  14?  25.01  59.8   44 104 100  99
   2024 04 24 19:20  22 23 43.17    -32 50 53.2   136919 1.0056  70.8  m  14?  24.04  57.3   46 103 100  99
   2024 04 24 19:30  22 23 58.61    -32 48 42.0   137437 1.0056  70.7  m  14?  23.18  54.7   47 102 100  99
   2024 04 24 19:40  22 24 13.02    -32 46 26.5   137954 1.0056  70.7  m  14?  22.43  51.9   49 101 100  99
   2024 04 24 19:50  22 24 26.44    -32 44 06.5   138469 1.0056  70.6 Am  14?  21.80  48.9   51 100 100  99
   2024 04 24 20:00  22 24 38.92    -32 41 41.7   138983 1.0056  70.6 Am  14?  21.27  45.9   53  99 100  99
   2024 04 24 20:10  22 24 50.50    -32 39 12.0   139497 1.0056  70.5 Am  14?  20.86  42.8   55  98 100  99
   2024 04 24 20:20  22 25 01.24    -32 36 37.2   140011 1.0056  70.5 Nm  14?  20.56  39.8   57  97 100  99
   2024 04 24 20:30  22 25 11.17    -32 33 57.2   140524 1.0056  70.4 Nm  14?  20.36  36.7   59  96 100  99
   2024 04 24 20:40  22 25 20.35    -32 31 11.8   141038 1.0056  70.4 Nm  14?  20.28  33.7   61  95 100  99
   2024 04 24 20:50  22 25 28.82    -32 28 21.0   141552 1.0056  70.3 Cm  14?  20.28  30.8   63  94 100  99
   2024 04 24 21:00  22 25 36.64    -32 25 24.7   142067 1.0056  70.3 Cm  14?  20.38  28.1   65  92 100  99
   2024 04 24 21:10  22 25 43.85    -32 22 22.7   142583 1.0056  70.3 Cm  14?  20.55  25.6   67  91 100  99
   ................
   2024 04 25 16:20  23 09 54.62    -24 49 30.9   185707 1.0055  58.8  r  15?  32.28  75.1    0 120 102  97
   2024 04 25 16:30  23 10 17.13    -24 48 08.5   185600 1.0055  58.7  m  15?  31.26  74.8    1 119 102  97
   2024 04 25 16:40  23 10 38.87    -24 46 47.0   185487 1.0055  58.6  m  15?  30.24  74.4    3 118 102  97
   2024 04 25 16:50  23 10 59.85    -24 45 26.3   185367 1.0055  58.5  m  15?  29.21  74.0    4 116 102  97
   2024 04 25 17:00  23 11 20.05    -24 44 06.1   185242 1.0055  58.5  m  15?  28.18  73.5    6 115 102  97
   2024 04 25 17:10  23 11 39.46    -24 42 46.3   185112 1.0055  58.4  m  15?  27.15  72.9    8 114 102  97
   2024 04 25 17:20  23 11 58.09    -24 41 26.8   184976 1.0055  58.3  m  15?  26.12  72.3   10 112 102  97
   2024 04 25 17:30  23 12 15.92    -24 40 07.2   184836 1.0055  58.3  m  15?  25.10  71.5   12 111 102  97
   2024 04 25 17:40  23 12 32.96    -24 38 47.5   184692 1.0055  58.2  m  15?  24.09  70.6   13 110 102  97
   2024 04 25 17:50  23 12 49.20    -24 37 27.4   184544 1.0055  58.2  m  15?  23.08  69.6   15 109 102  97
   2024 04 25 18:00  23 13 04.65    -24 36 06.7   184392 1.0055  58.1  m  15?  22.10  68.5   17 107 102  97
   2024 04 25 18:10  23 13 19.30    -24 34 45.3   184238 1.0055  58.1  m  15?  21.13  67.2   19 106 102  97
   2024 04 25 18:20  23 13 33.16    -24 33 23.0   184080 1.0055  58.0  m  15?  20.18  65.8   21 105 102  97
   2024 04 25 18:30  23 13 46.23    -24 31 59.6   183920 1.0055  58.0  m  15?  19.27  64.1   23 104 102  97
   2024 04 25 18:40  23 13 58.52    -24 30 34.8   183759 1.0055  57.9  m  15?  18.38  62.3   25 103 102  96
   2024 04 25 18:50  23 14 10.04    -24 29 08.6   183595 1.0055  57.9  m  15?  17.54  60.2   27 101 102  96
   2024 04 25 19:00  23 14 20.79    -24 27 40.6   183430 1.0055  57.8  m  15?  16.74  57.9   29 100 102  96
   2024 04 25 19:10  23 14 30.78    -24 26 10.8   183265 1.0055  57.8  m  15?  15.99  55.4   31  99 102  96
   2024 04 25 19:20  23 14 40.02    -24 24 38.9   183099 1.0055  57.7  m  15?  15.30  52.6   33  98 102  96
   2024 04 25 19:30  23 14 48.53    -24 23 04.8   182932 1.0055  57.7  m  15?  14.67  49.5   35  97 102  96
   2024 04 25 19:40  23 14 56.32    -24 21 28.2   182766 1.0055  57.7  m  15?  14.12  46.2   37  95 102  96
   2024 04 25 19:50  23 15 03.41    -24 19 49.1   182601 1.0055  57.6 Am  15?  13.65  42.6   39  94 102  96
   2024 04 25 20:00  23 15 09.81    -24 18 07.2   182436 1.0055  57.6 Am  15?  13.26  38.8   41  93 102  96
   2024 04 25 20:10  23 15 15.54    -24 16 22.4   182272 1.0055  57.6 Am  15?  12.96  34.9   43  91 102  96
   2024 04 25 20:20  23 15 20.63    -24 14 34.5   182110 1.0055  57.6 Nm  15?  12.75  30.9   45  90 102  96
   2024 04 25 20:30  23 15 25.08    -24 12 43.3   181950 1.0055  57.5 Nm  15?  12.63  26.8   47  88 102  96
   2024 04 25 20:40  23 15 28.93    -24 10 48.8   181791 1.0055  57.5 Nm  15?  12.61  22.8   49  87 102  96
   2024 04 25 20:50  23 15 32.20    -24 08 50.6   181636 1.0055  57.5 Cm  15?  12.67  18.9   51  85 102  96
   2024 04 25 21:00  23 15 34.90    -24 06 48.9   181483 1.0055  57.5 Cm  15?  12.81  15.2   53  84 102  96
   2024 04 25 21:10  23 15 37.08    -24 04 43.2   181332 1.0055  57.4 Cm  15?  13.02  11.8   55  82 101  96
   ................
   2024 04 26 17:40  23 56 43.63    -15 38 58.1   152911 1.0057  45.4  m  15?  46.18  59.5    1 108 103  92
   2024 04 26 17:50  23 57 10.87    -15 35 02.5   152150 1.0057  45.3  m  15?  45.49  58.7    2 106 103  92
   2024 04 26 18:00  23 57 37.44    -15 31 04.6   151382 1.0057  45.2  m  15?  44.80  57.8    4 105 103  92
   2024 04 26 18:10  23 58 03.34    -15 27 04.2   150607 1.0057  45.1  m  15?  44.12  56.8    6 104 103  92
   2024 04 26 18:20  23 58 28.54    -15 23 01.0   149827 1.0057  45.0  m  15?  43.46  55.8    8 102 103  92
   2024 04 26 18:30  23 58 53.06    -15 18 54.9   149041 1.0057  44.9  m  15?  42.81  54.7   10 101 103  92
   2024 04 26 18:40  23 59 16.87    -15 14 45.7   148249 1.0058  44.7  m  15?  42.18  53.6   12 100 103  92
   2024 04 26 18:50  23 59 39.97    -15 10 33.1   147452 1.0058  44.6  m  15?  41.57  52.4   14  98 103  92
   2024 04 26 19:00  00 00 02.35    -15 06 17.0   146651 1.0058  44.5  m  15?  40.99  51.1   16  97 104  92
   2024 04 26 19:10  00 00 24.02    -15 01 57.1   145845 1.0058  44.4  m  15?  40.44  49.7   18  95 104  92
   2024 04 26 19:20  00 00 44.97    -14 57 33.2   145035 1.0058  44.3  m  15?  39.93  48.3   20  94 104  92
   2024 04 26 19:30  00 01 05.20    -14 53 05.1   144222 1.0058  44.2  m  15?  39.46  46.9   21  93 104  92
   2024 04 26 19:40  00 01 24.71    -14 48 32.6   143405 1.0058  44.1  m  15?  39.03  45.3   23  91 104  92
   2024 04 26 19:50  00 01 43.50    -14 43 55.4   142585 1.0058  44.0 Am  15?  38.65  43.8   25  90 104  92
   2024 04 26 20:00  00 02 01.58    -14 39 13.4   141762 1.0058  43.9 Am  15?  38.31  42.2   27  88 104  92
   2024 04 26 20:10  00 02 18.95    -14 34 26.2   140937 1.0058  43.8 Am  15?  38.04  40.5   29  87 104  92
   2024 04 26 20:20  00 02 35.62    -14 29 33.7   140110 1.0058  43.7 Nm  15?  37.82  38.8   31  85 104  92
   2024 04 26 20:30  00 02 51.60    -14 24 35.7   139281 1.0058  43.6 Nm  15?  37.65  37.1   33  84 104  92
   2024 04 26 20:40  00 03 06.90    -14 19 31.9   138451 1.0058  43.5 Nm  15?  37.55  35.4   35  82 104  92
   2024 04 26 20:50  00 03 21.53    -14 14 22.1   137619 1.0058  43.4 Cm  15?  37.52  33.6   37  80 104  92
   2024 04 26 21:00  00 03 35.51    -14 09 06.0   136786 1.0058  43.3 Cm  15?  37.55  31.9   39  79 104  92
   2024 04 26 21:10  00 03 48.85    -14 03 43.6   135953 1.0058  43.2 Cm  15?  37.64  30.2   41  77 104  92
   ................
   2024 04 27 14:20  11 11 16.72    +42 04 02.2     6630 1.0067 109.0  r   7?  14854 126.0    4 329 108  86
   2024 04 27 14:30  13 42 04.72    +08 59 55.8     5842 1.0067 155.1  m   8?  16618 139.7   46 349  62  86
   2024 04 27 14:40  15 19 37.60    -18 15 48.1     7586 1.0067 165.1  t   9? 9493.1 135.1   69  42  27  86
   2024 04 27 14:50  16 24 40.95    -31 12 33.4    10312 1.0068 146.7  e   9? 5179.7 126.4   66  90  11  86
   2024 04 27 15:00  17 10 56.57    -37 22 02.9    13204 1.0068 135.6  m  10? 3228.2 118.6   59 106  10  86
   2024 04 27 15:10  17 45 34.79    -40 35 38.9    16042 1.0068 128.2  m  10? 2238.2 112.1   55 113  14  86
   2024 04 27 15:20  18 12 33.38    -42 24 39.2    18772 1.0068 122.8  m  10? 1669.0 106.9   52 116  18  86
   2024 04 27 15:30  18 34 13.18    -43 28 36.6    21386 1.0068 118.8  m  10? 1308.7 102.7   50 118  22  86
   2024 04 27 15:40  18 52 02.63    -44 06 38.0    23888 1.0068 115.5  m  10? 1064.0  99.2   48 119  25  86
   2024 04 27 15:50  19 06 59.99    -44 28 49.6    26288 1.0068 112.8  m  10? 888.51  96.2   47 120  27  86
   2024 04 27 16:00  19 19 45.17    -44 40 54.9    28595 1.0068 110.5  m  11? 757.46  93.6   47 120  29  86
   2024 04 27 16:10  19 30 46.43    -44 46 19.7    30817 1.0068 108.6  m  11? 656.35  91.3   47 120  31  86
   2024 04 27 16:20  19 40 24.34    -44 47 12.8    32961 1.0068 106.9  m  11? 576.25  89.3   47 120  33  86
   2024 04 27 16:30  19 48 54.27    -44 44 57.6    35036 1.0068 105.4  m  11? 511.43  87.5   47 120  34  86
   2024 04 27 16:40  19 56 27.91    -44 40 30.0    37046 1.0068 104.1  m  11? 458.02  85.8   48 120  35  86
   2024 04 27 16:50  20 03 14.34    -44 34 28.0    38997 1.0068 102.9  m  11? 413.35  84.3   48 120  36  86
   2024 04 27 17:00  20 09 20.74    -44 27 18.1    40894 1.0068 101.8  m  11? 375.50  82.8   49 120  37  86
   2024 04 27 17:10  20 14 52.85    -44 19 19.1    42740 1.0068 100.8  m  11? 343.09  81.5   50 119  38  86
   2024 04 27 17:20  20 19 55.31    -44 10 44.5    44539 1.0068  99.9  m  11? 315.07  80.2   51 119  39  86
   2024 04 27 17:30  20 24 31.96    -44 01 44.1    46295 1.0068  99.0  m  11? 290.64  78.9   52 119  40  86
   2024 04 27 17:40  20 28 45.96    -43 52 25.0    48010 1.0068  98.3  m  11? 269.20  77.7   53 118  41  86
   2024 04 27 17:50  20 32 39.98    -43 42 52.5    49688 1.0068  97.5  m  11? 250.26  76.5   54 118  41  86
   2024 04 27 18:00  20 36 16.25    -43 33 10.4    51330 1.0068  96.9  m  11? 233.45  75.3   55 118  42  86
   2024 04 27 18:10  20 39 36.69    -43 23 21.5    52939 1.0068  96.3  m  11? 218.45  74.2   56 117  42  86
   2024 04 27 18:20  20 42 42.95    -43 13 28.0    54518 1.0068  95.7  m  11? 205.02  73.0   57 117  43  86
   2024 04 27 18:30  20 45 36.46    -43 03 31.3    56067 1.0068  95.1  m  12? 192.95  71.8   59 117  43  86
   2024 04 27 18:40  20 48 18.44    -42 53 32.6    57588 1.0068  94.6  m  12? 182.07  70.7   60 117  44  86
   2024 04 27 18:50  20 50 49.99    -42 43 32.7    59084 1.0067  94.1  m  12? 172.24  69.5   61 117  44  86
   2024 04 27 19:00  20 53 12.06    -42 33 32.1    60555 1.0067  93.7  m  12? 163.35  68.3   63 117  44  86
   2024 04 27 19:10  20 55 25.50    -42 23 31.2    62004 1.0067  93.2  m  12? 155.29  67.1   64 117  45  86
   2024 04 27 19:20  20 57 31.07    -42 13 30.2    63431 1.0067  92.8  m  12? 147.97  65.9   66 117  45  85
   2024 04 27 19:30  20 59 29.45    -42 03 29.3    64838 1.0067  92.4  m  12? 141.32  64.7   67 117  45  85
   2024 04 27 19:40  21 01 21.23    -41 53 28.5    66226 1.0067  92.1  m  12? 135.28  63.5   69 117  46  85
   2024 04 27 19:50  21 03 06.98    -41 43 27.9    67595 1.0067  91.7  m  12? 129.79  62.3   70 118  46  85
   2024 04 27 20:00  21 04 47.18    -41 33 27.4    68948 1.0067  91.4 Am  12? 124.79  61.1   72 119  46  85
   2024 04 27 20:10  21 06 22.28    -41 23 27.0    70284 1.0067  91.0 Am  12? 120.25  59.9   73 120  47  85
   2024 04 27 20:20  21 07 52.71    -41 13 26.7    71606 1.0067  90.7 Nm  12? 116.13  58.8   75 121  47  85
   2024 04 27 20:30  21 09 18.84    -41 03 26.4    72913 1.0067  90.4 Nm  12? 112.38  57.6   77 123  47  85
   2024 04 27 20:40  21 10 41.01    -40 53 26.0    74206 1.0067  90.1 Nm  12? 108.98  56.5   78 126  47  85
   2024 04 27 20:50  21 11 59.55    -40 43 25.5    75486 1.0067  89.8 Cm  12? 105.89  55.4   80 130  47  85
   2024 04 27 21:00  21 13 14.75    -40 33 24.9    76755 1.0067  89.6 Cm  12? 103.09  54.3   81 136  48  85
   2024 04 27 21:10  21 14 26.88    -40 23 24.2    78012 1.0067  89.3 Cm  12? 100.56  53.2   82 143  48  85
   ................
   

MMS-4 (JPL-ID: -140485)

   Date (UTC) HH:MM   RA              Dec         delta   r     elong SM  mag  '/hr    PA   alt  az moo ill
   ---- -- -- -----  -------------   -----------  ------ ------ ----- --  --- ------ ------ --- --- --- ---
   2024 04 14 16:30  22 49 45.21    -28 12 09.5   172123 1.0025  54.5  r  15?  37.45  79.3    0 125 128  38
   2024 04 14 16:40  22 50 12.61    -28 11 01.0   172289 1.0025  54.4     15?  36.25  79.2    1 123 128  38
   2024 04 14 16:50  22 50 39.11    -28 09 54.2   172448 1.0025  54.3     15?  35.04  79.1    2 122 128  38
   2024 04 14 17:00  22 51 04.69    -28 08 48.7   172601 1.0025  54.2     15?  33.83  78.9    4 121 128  38
   2024 04 14 17:10  22 51 29.35    -28 07 44.5   172746 1.0025  54.1     15?  32.62  78.7    6 120 128  38
   2024 04 14 17:20  22 51 53.09    -28 06 41.1   172885 1.0025  54.1     15?  31.41  78.4    7 118 128  38
   2024 04 14 17:30  22 52 15.90    -28 05 38.5   173018 1.0025  54.0     15?  30.20  78.1    9 117 128  38
   2024 04 14 17:40  22 52 37.78    -28 04 36.5   173146 1.0025  53.9     15?  28.99  77.7   11 116 128  39
   2024 04 14 17:50  22 52 58.73    -28 03 34.7   173268 1.0025  53.9     15?  27.79  77.2   13 115 128  39
   2024 04 14 18:00  22 53 18.75    -28 02 33.0   173385 1.0025  53.8     15?  26.60  76.6   14 113 128  39
   2024 04 14 18:10  22 53 37.85    -28 01 31.2   173498 1.0025  53.7     15?  25.42  75.9   16 112 128  39
   2024 04 14 18:20  22 53 56.02    -28 00 29.0   173607 1.0025  53.7     15?  24.26  75.1   18 111 128  39
   2024 04 14 18:30  22 54 13.28    -27 59 26.2   173711 1.0025  53.6     15?  23.11  74.2   20 110 128  39
   2024 04 14 18:40  22 54 29.62    -27 58 22.7   173813 1.0025  53.6     15?  21.98  73.1   22 109 128  39
   2024 04 14 18:50  22 54 45.06    -27 57 18.1   173911 1.0025  53.5     15?  20.88  71.8   24 108 128  39
   2024 04 14 19:00  22 54 59.60    -27 56 12.3   174007 1.0025  53.5     15?  19.81  70.4   26 107 128  39
   2024 04 14 19:10  22 55 13.26    -27 55 05.0   174100 1.0025  53.4     15?  18.78  68.8   28 105 128  39
   2024 04 14 19:20  22 55 26.04    -27 53 56.0   174192 1.0025  53.4     15?  17.78  66.9   29 104 128  40
   2024 04 14 19:30  22 55 37.97    -27 52 45.2   174281 1.0025  53.4     15?  16.83  64.8   31 103 128  40
   2024 04 14 19:40  22 55 49.05    -27 51 32.3   174370 1.0025  53.3     15?  15.94  62.4   33 102 128  40
   2024 04 14 19:50  22 55 59.30    -27 50 17.1   174458 1.0025  53.3 A   15?  15.11  59.7   35 101 128  40
   2024 04 14 20:00  22 56 08.74    -27 48 59.4   174545 1.0025  53.3 A   15?  14.34  56.7   37 100 128  40
   2024 04 14 20:10  22 56 17.39    -27 47 39.0   174632 1.0025  53.2 A   15?  13.65  53.3   39  99 129  40
   2024 04 14 20:20  22 56 25.27    -27 46 15.8   174719 1.0025  53.2 N   15?  13.05  49.6   41  98 129  40
   2024 04 14 20:30  22 56 32.41    -27 44 49.4   174807 1.0025  53.2 N   15?  12.54  45.6   43  96 129  40
   2024 04 14 20:40  22 56 38.81    -27 43 19.9   174896 1.0025  53.1 C   15?  12.13  41.4   45  95 129  40
   2024 04 14 20:50  22 56 44.52    -27 41 46.9   174986 1.0025  53.1 C   15?  11.83  36.9   47  94 129  40
   2024 04 14 21:00  22 56 49.55    -27 40 10.3   175077 1.0025  53.1 C   15?  11.63  32.4   49  93 129  40
   ................
   2024 04 15 17:40  23 33 38.88    -20 37 28.7   179291 1.0026  42.9  r  15?  33.50  69.1    0 115 128  48
   2024 04 15 17:50  23 34 00.80    -20 35 28.7   178844 1.0026  42.8     15?  32.59  68.5    1 113 128  49
   2024 04 15 18:00  23 34 22.02    -20 33 28.8   178391 1.0026  42.7     15?  31.68  67.8    3 112 128  49
   2024 04 15 18:10  23 34 42.53    -20 31 28.6   177933 1.0026  42.7     15?  30.77  67.1    5 110 128  49
   2024 04 15 18:20  23 35 02.32    -20 29 28.1   177469 1.0026  42.6     15?  29.86  66.2    7 109 128  49
   2024 04 15 18:30  23 35 21.38    -20 27 27.1   177000 1.0026  42.5     15?  28.96  65.3    9 108 128  49
   2024 04 15 18:40  23 35 39.71    -20 25 25.5   176526 1.0026  42.4     15?  28.06  64.3   11 107 128  49
   2024 04 15 18:50  23 35 57.30    -20 23 22.9   176048 1.0026  42.4     15?  27.17  63.1   13 105 129  49
   2024 04 15 19:00  23 36 14.15    -20 21 19.3   175566 1.0026  42.3     15?  26.30  61.9   14 104 129  49
   2024 04 15 19:10  23 36 30.25    -20 19 14.5   175080 1.0026  42.3     15?  25.44  60.5   16 103 129  49
   2024 04 15 19:20  23 36 45.60    -20 17 08.4   174592 1.0026  42.2     15?  24.61  59.0   18 101 129  49
   2024 04 15 19:30  23 37 00.21    -20 15 00.6   174100 1.0026  42.1     15?  23.81  57.4   20 100 129  49
   2024 04 15 19:40  23 37 14.07    -20 12 51.1   173606 1.0026  42.1     15?  23.04  55.6   22  99 129  50
   2024 04 15 19:50  23 37 27.18    -20 10 39.7   173111 1.0026  42.0 A   15?  22.31  53.7   24  98 129  50
   2024 04 15 20:00  23 37 39.56    -20 08 26.1   172613 1.0026  42.0 A   15?  21.62  51.6   26  96 129  50
   2024 04 15 20:10  23 37 51.20    -20 06 10.3   172114 1.0026  41.9 A   15?  20.98  49.4   28  95 129  50
   2024 04 15 20:20  23 38 02.12    -20 03 52.0   171614 1.0026  41.9 N   15?  20.40  47.0   30  94 129  50
   2024 04 15 20:30  23 38 12.31    -20 01 31.1   171113 1.0026  41.8 N   15?  19.87  44.4   32  92 129  50
   2024 04 15 20:40  23 38 21.80    -19 59 07.3   170612 1.0026  41.8 N   15?  19.41  41.7   34  91 129  50
   2024 04 15 20:50  23 38 30.60    -19 56 40.6   170111 1.0026  41.7 C   15?  19.01  38.9   36  89 129  50
   2024 04 15 21:00  23 38 38.71    -19 54 10.7   169611 1.0026  41.7 C   15?  18.69  36.0   38  88 129  50
   ................
   2024 04 16 20:10  01 08 32.22    +00 17 20.3    68997 1.0033  12.8 Ar  14? 249.99  46.8    0  89 112  59
   2024 04 16 20:20  01 10 35.68    +00 46 35.0    67344 1.0033  12.1 N   14? 261.02  46.4    1  88 112  60
   ................
   2024 04 17 15:30  22 14 21.30    -32 54 10.4   127930 1.0037  66.1  r  14?  64.13  81.3    0 130 163  66
   2024 04 17 15:40  22 15 10.84    -32 52 35.6   128563 1.0037  65.9     14?  62.05  81.2    1 129 163  67
   2024 04 17 15:50  22 15 58.73    -32 51 03.5   129185 1.0037  65.8     14?  59.99  81.2    3 128 163  67
   2024 04 17 16:00  22 16 44.99    -32 49 33.9   129796 1.0037  65.6     14?  57.95  81.1    4 126 163  67
   2024 04 17 16:10  22 17 29.64    -32 48 06.4   130397 1.0037  65.5     14?  55.93  81.0    6 125 162  67
   2024 04 17 16:20  22 18 12.69    -32 46 40.8   130988 1.0037  65.3     14?  53.94  80.8    7 124 162  67
   2024 04 17 16:30  22 18 54.15    -32 45 16.7   131570 1.0037  65.2     14?  51.97  80.7    9 123 162  67
   2024 04 17 16:40  22 19 34.05    -32 43 53.9   132143 1.0036  65.1     14?  50.02  80.4   11 122 162  67
   2024 04 17 16:50  22 20 12.40    -32 42 32.0   132707 1.0036  65.0     14?  48.10  80.2   12 120 162  67
   2024 04 17 17:00  22 20 49.22    -32 41 10.9   133263 1.0036  64.9     14?  46.21  79.8   14 119 162  67
   2024 04 17 17:10  22 21 24.52    -32 39 50.1   133811 1.0036  64.7     14?  44.35  79.4   16 118 162  67
   2024 04 17 17:20  22 21 58.34    -32 38 29.4   134351 1.0036  64.6     14?  42.52  79.0   17 117 162  67
   2024 04 17 17:30  22 22 30.68    -32 37 08.5   134885 1.0036  64.5     14?  40.73  78.4   19 116 162  67
   2024 04 17 17:40  22 23 01.57    -32 35 47.1   135411 1.0036  64.4     14?  38.98  77.8   21 115 162  67
   2024 04 17 17:50  22 23 31.04    -32 34 24.9   135931 1.0036  64.3     14?  37.26  77.1   23 114 162  67
   2024 04 17 18:00  22 23 59.10    -32 33 01.7   136445 1.0036  64.3     14?  35.59  76.3   24 113 162  67
   2024 04 17 18:10  22 24 25.79    -32 31 37.2   136953 1.0036  64.2     14?  33.96  75.3   26 112 162  68
   2024 04 17 18:20  22 24 51.13    -32 30 11.0   137457 1.0036  64.1     14?  32.38  74.3   28 111 162  68
   2024 04 17 18:30  22 25 15.15    -32 28 42.9   137955 1.0036  64.0     14?  30.86  73.1   30 110 162  68
   2024 04 17 18:40  22 25 37.88    -32 27 12.7   138449 1.0036  63.9     14?  29.40  71.8   32 109 162  68
   2024 04 17 18:50  22 25 59.34    -32 25 40.0   138939 1.0036  63.9     14?  27.99  70.3   34 108 162  68
   2024 04 17 19:00  22 26 19.58    -32 24 04.7   139425 1.0036  63.8     14?  26.66  68.6   35 107 162  68
   2024 04 17 19:10  22 26 38.62    -32 22 26.4   139908 1.0036  63.7     14?  25.40  66.8   37 106 162  68
   2024 04 17 19:20  22 26 56.49    -32 20 45.0   140388 1.0036  63.7     14?  24.21  64.7   39 105 162  68
   2024 04 17 19:30  22 27 13.24    -32 19 00.2   140865 1.0036  63.6     14?  23.12  62.4   41 104 162  68
   2024 04 17 19:40  22 27 28.90    -32 17 11.7   141340 1.0036  63.6     14?  22.11  59.9   43 103 162  68
   2024 04 17 19:50  22 27 43.50    -32 15 19.3   141813 1.0036  63.5 A   14?  21.20  57.3   45 102 162  68
   2024 04 17 20:00  22 27 57.09    -32 13 22.9   142285 1.0036  63.5 A   14?  20.40  54.4   47 101 162  68
   2024 04 17 20:10  22 28 09.70    -32 11 22.3   142755 1.0036  63.4 A   14?  19.70  51.3   49 100 162  69
   2024 04 17 20:20  22 28 21.39    -32 09 17.1   143225 1.0036  63.4 N   14?  19.11  48.1   51  99 162  69
   2024 04 17 20:30  22 28 32.17    -32 07 07.4   143694 1.0036  63.3 N   14?  18.64  44.7   53  98 162  69
   2024 04 17 20:40  22 28 42.12    -32 04 52.8   144163 1.0036  63.3 N   14?  18.28  41.3   55  97 162  69
   2024 04 17 20:50  22 28 51.25    -32 02 33.3   144632 1.0036  63.2 C   14?  18.03  37.9   57  96 162  69
   2024 04 17 21:00  22 28 59.63    -32 00 08.6   145101 1.0036  63.2 C   14?  17.90  34.5   59  95 162  69
   ................
   2024 04 18 16:50  23 11 40.77    -24 36 14.8   186546 1.0035  52.0  r  15?  31.58  75.4    0 120 163  76
   2024 04 18 17:00  23 12 02.83    -24 34 55.6   186412 1.0035  51.9     15?  30.57  75.1    1 119 163  76
   2024 04 18 17:10  23 12 24.13    -24 33 37.3   186272 1.0035  51.8     15?  29.56  74.8    3 117 163  76
   2024 04 18 17:20  23 12 44.67    -24 32 19.7   186126 1.0035  51.8     15?  28.54  74.3    4 116 163  76
   2024 04 18 17:30  23 13 04.45    -24 31 02.7   185975 1.0035  51.7     15?  27.52  73.9    6 115 163  76
   2024 04 18 17:40  23 13 23.45    -24 29 46.0   185818 1.0035  51.6     15?  26.50  73.3    8 113 163  76
   2024 04 18 17:50  23 13 41.67    -24 28 29.5   185656 1.0035  51.6     15?  25.48  72.6   10 112 163  76
   2024 04 18 18:00  23 13 59.11    -24 27 13.0   185490 1.0035  51.5     15?  24.47  71.8   12 111 163  76
   2024 04 18 18:10  23 14 15.76    -24 25 56.2   185319 1.0035  51.5     15?  23.46  71.0   13 110 163  76
   2024 04 18 18:20  23 14 31.62    -24 24 39.1   185145 1.0035  51.4     15?  22.46  70.0   15 108 163  76
   2024 04 18 18:30  23 14 46.69    -24 23 21.4   184968 1.0035  51.4     15?  21.48  68.8   17 107 163  76
   2024 04 18 18:40  23 15 00.98    -24 22 02.9   184787 1.0035  51.3     15?  20.52  67.5   19 106 163  76
   2024 04 18 18:50  23 15 14.48    -24 20 43.5   184604 1.0035  51.3     15?  19.58  66.0   21 105 163  76
   2024 04 18 19:00  23 15 27.20    -24 19 23.0   184418 1.0035  51.2     15?  18.67  64.4   23 104 163  76
   2024 04 18 19:10  23 15 39.14    -24 18 01.1   184230 1.0035  51.2     15?  17.79  62.5   25 102 163  76
   2024 04 18 19:20  23 15 50.32    -24 16 37.7   184041 1.0035  51.1     15?  16.95  60.4   27 101 163  76
   2024 04 18 19:30  23 16 00.73    -24 15 12.5   183851 1.0035  51.1     15?  16.15  58.0   29 100 163  77
   2024 04 18 19:40  23 16 10.39    -24 13 45.5   183659 1.0035  51.1     15?  15.41  55.4   31  99 163  77
   2024 04 18 19:50  23 16 19.32    -24 12 16.4   183468 1.0035  51.0 A   15?  14.73  52.5   33  98 163  77
   2024 04 18 20:00  23 16 27.51    -24 10 45.1   183276 1.0035  51.0 A   15?  14.11  49.3   35  96 163  77
   2024 04 18 20:10  23 16 34.99    -24 09 11.3   183084 1.0035  51.0 A   15?  13.57  45.8   37  95 163  77
   2024 04 18 20:20  23 16 41.77    -24 07 35.0   182893 1.0035  50.9 N   15?  13.11  42.1   39  94 163  77
   2024 04 18 20:30  23 16 47.87    -24 05 55.8   182703 1.0035  50.9 N   15?  12.73  38.2   41  92 163  77
   2024 04 18 20:40  23 16 53.31    -24 04 13.8   182514 1.0035  50.9 N   15?  12.44  34.1   43  91 163  77
   2024 04 18 20:50  23 16 58.10    -24 02 28.6   182327 1.0035  50.8 C   15?  12.25  29.9   45  90 163  77
   2024 04 18 21:00  23 17 02.26    -24 00 40.1   182142 1.0035  50.8 C   15?  12.16  25.7   47  88 163  77
   ................
   2024 04 19 18:10  23 58 36.81    -15 24 50.2   149581 1.0038  38.6  r  15?  47.63  59.4    1 107 164  83
   2024 04 19 18:20  23 59 04.83    -15 20 45.2   148785 1.0038  38.5     15?  46.96  58.5    2 106 164  84
   2024 04 19 18:30  23 59 32.20    -15 16 37.6   147982 1.0038  38.4     15?  46.30  57.6    4 105 164  84
   2024 04 19 18:40  23 59 58.90    -15 12 27.1   147172 1.0038  38.2     15?  45.65  56.7    6 103 164  84
   2024 04 19 18:50  00 00 24.92    -15 08 13.6   146356 1.0038  38.1     15?  45.01  55.6    8 102 164  84
   2024 04 19 19:00  00 00 50.25    -15 03 56.9   145534 1.0038  38.0     15?  44.39  54.6   10 101 164  84
   2024 04 19 19:10  00 01 14.88    -14 59 36.6   144706 1.0038  37.9     15?  43.79  53.4   12  99 164  84
   2024 04 19 19:20  00 01 38.81    -14 55 12.7   143873 1.0038  37.8     15?  43.21  52.2   14  98 164  84
   2024 04 19 19:30  00 02 02.03    -14 50 44.8   143035 1.0038  37.7     15?  42.67  51.0   16  97 164  84
   2024 04 19 19:40  00 02 24.54    -14 46 12.8   142193 1.0038  37.5     15?  42.15  49.6   18  95 164  84
   2024 04 19 19:50  00 02 46.33    -14 41 36.4   141346 1.0038  37.4 A   15?  41.67  48.2   19  94 164  84
   2024 04 19 20:00  00 03 07.41    -14 36 55.3   140496 1.0038  37.3 A   15?  41.23  46.8   21  92 164  84
   2024 04 19 20:10  00 03 27.77    -14 32 09.4   139641 1.0038  37.2 A   15?  40.84  45.3   23  91 164  84
   2024 04 19 20:20  00 03 47.42    -14 27 18.5   138784 1.0038  37.1 N   15?  40.50  43.8   25  90 164  84
   2024 04 19 20:30  00 04 06.36    -14 22 22.1   137923 1.0038  37.0 N   15?  40.20  42.2   27  88 164  84
   2024 04 19 20:40  00 04 24.60    -14 17 20.2   137060 1.0038  36.9 N   15?  39.96  40.6   29  87 164  84
   2024 04 19 20:50  00 04 42.13    -14 12 12.5   136194 1.0039  36.8 C   15?  39.78  38.9   31  85 164  84
   2024 04 19 21:00  00 04 58.99    -14 06 58.7   135326 1.0039  36.7 C   15?  39.66  37.2   33  83 164  84
   ................
   2024 04 20 13:50  12 47 43.76    +41 55 38.3     5633 1.0048 124.2  r   7?  18585 136.6   13 356  40  89
   2024 04 20 14:00  15 03 56.07    +02 03 46.2     6027 1.0048 157.8  t   8?  14816 143.8   45  41  51  89
   2024 04 20 14:10  16 19 59.30    -20 46 37.8     8556 1.0049 143.9  e   9? 7318.6 135.9   48  82  74  89
   2024 04 20 14:20  17 10 22.07    -30 55 15.3    11571 1.0049 130.8  m   9? 4104.4 126.9   44 101  86  89
   2024 04 20 14:30  17 46 59.70    -35 58 24.8    14573 1.0049 122.4  m   9? 2668.0 119.4   41 110  94  89
   2024 04 20 14:40  18 15 07.53    -38 46 46.3    17457 1.0049 116.5  m  10? 1912.7 113.4   38 115 100  89
   2024 04 20 14:50  18 37 32.96    -40 27 10.5    20205 1.0049 112.1  m  10? 1462.5 108.5   36 117 104  89
   2024 04 20 15:00  18 55 55.38    -41 29 42.3    22824 1.0049 108.6  m  10? 1168.8 104.5   35 119 107  89
   2024 04 20 15:10  19 11 18.18    -42 09 31.7    25324 1.0049 105.7  m  10? 964.33 101.1   34 120 110  89
   2024 04 20 15:20  19 24 23.97    -42 34 58.7    27718 1.0049 103.3  m  10? 814.81  98.3   34 121 112  89
   2024 04 20 15:30  19 35 42.55    -42 50 56.7    30016 1.0049 101.3  m  10? 701.24  95.9   34 121 114  89
   2024 04 20 15:40  19 45 35.41    -43 00 26.9    32228 1.0049  99.5  m  10? 612.36  93.7   34 122 116  89
   2024 04 20 15:50  19 54 18.50    -43 05 25.8    34361 1.0049  97.9  m  11? 541.09  91.8   34 122 117  89
   2024 04 20 16:00  20 02 03.92    -43 07 11.1    36422 1.0049  96.6  m  11? 482.78  90.1   34 122 118  89
   2024 04 20 16:10  20 09 01.00    -43 06 35.9    38419 1.0049  95.3  m  11? 434.26  88.6   35 121 119  89
   2024 04 20 16:20  20 15 17.10    -43 04 17.3    40355 1.0048  94.2  m  11? 393.32  87.2   36 121 120  89
   2024 04 20 16:30  20 20 58.09    -43 00 41.8    42235 1.0048  93.2  m  11? 358.35  85.8   36 121 121  89
   2024 04 20 16:40  20 26 08.72    -42 56 08.4    44064 1.0048  92.2  m  11? 328.16  84.6   37 120 122  89
   2024 04 20 16:50  20 30 52.87    -42 50 51.4    45845 1.0048  91.4  m  11? 301.87  83.4   38 120 123  89
   2024 04 20 17:00  20 35 13.79    -42 45 01.0    47582 1.0048  90.6  m  11? 278.79  82.3   39 119 123  89
   2024 04 20 17:10  20 39 14.14    -42 38 45.1    49277 1.0048  89.9  m  11? 258.38  81.2   40 119 124  90
   2024 04 20 17:20  20 42 56.22    -42 32 09.5    50933 1.0048  89.2  m  11? 240.23  80.1   41 118 125  90
   2024 04 20 17:30  20 46 21.95    -42 25 18.7    52552 1.0048  88.5  m  11? 224.00  79.0   42 118 125  90
   2024 04 20 17:40  20 49 33.00    -42 18 16.0    54138 1.0048  88.0  m  11? 209.42  78.0   44 117 126  90
   2024 04 20 17:50  20 52 30.79    -42 11 03.9    55691 1.0048  87.4  m  11? 196.27  76.9   45 117 126  90
   2024 04 20 18:00  20 55 16.58    -42 03 44.4    57214 1.0048  86.9  m  11? 184.37  75.9   46 116 126  90
   2024 04 20 18:10  20 57 51.47    -41 56 18.9    58708 1.0048  86.4  m  12? 173.58  74.8   48 116 127  90
   2024 04 20 18:20  21 00 16.40    -41 48 48.6    60175 1.0048  85.9  m  12? 163.75  73.7   49 115 127  90
   2024 04 20 18:30  21 02 32.23    -41 41 14.2    61617 1.0048  85.5     12? 154.80  72.6   50 115 128  90
   2024 04 20 18:40  21 04 39.73    -41 33 36.2    63034 1.0048  85.1     12? 146.62  71.5   52 115 128  90
   2024 04 20 18:50  21 06 39.56    -41 25 55.2    64429 1.0048  84.7     12? 139.14  70.3   53 114 128  90
   2024 04 20 19:00  21 08 32.34    -41 18 11.5    65803 1.0048  84.3     12? 132.30  69.2   55 114 128  90
   2024 04 20 19:10  21 10 18.62    -41 10 25.1    67156 1.0048  84.0     12? 126.04  68.0   56 113 129  90
   2024 04 20 19:20  21 11 58.90    -41 02 36.2    68491 1.0048  83.7     12? 120.30  66.7   58 113 129  90
   2024 04 20 19:30  21 13 33.63    -40 54 44.9    69807 1.0048  83.3     12? 115.06  65.5   60 113 129  90
   2024 04 20 19:40  21 15 03.23    -40 46 51.2    71106 1.0048  83.0     12? 110.25  64.2   61 112 129  90
   2024 04 20 19:50  21 16 28.08    -40 38 55.0    72389 1.0048  82.7 A   12? 105.87  62.9   63 112 130  90
   2024 04 20 20:00  21 17 48.54    -40 30 56.4    73656 1.0048  82.5 A   12? 101.86  61.6   64 112 130  90
   2024 04 20 20:10  21 19 04.92    -40 22 55.3    74909 1.0048  82.2 A   12?  98.21  60.3   66 112 130  90
   2024 04 20 20:20  21 20 17.53    -40 14 51.6    76149 1.0048  81.9 N   12?  94.88  59.0   68 112 130  90
   2024 04 20 20:30  21 21 26.65    -40 06 45.4    77376 1.0048  81.7 N   12?  91.86  57.7   70 112 130  90
   2024 04 20 20:40  21 22 32.53    -39 58 36.5    78590 1.0048  81.4 N   12?  89.13  56.3   71 113 131  90
   2024 04 20 20:50  21 23 35.42    -39 50 24.9    79793 1.0048  81.2 C   12?  86.65  55.0   73 114 131  90
   2024 04 20 21:00  21 24 35.55    -39 42 10.5    80986 1.0048  81.0 C   12?  84.42  53.8   75 115 131  90
   ................
   2024 04 21 16:00  22 47 50.52    -28 28 48.0   169367 1.0046  61.3  r  15?  38.51  78.9    0 125 142  94
   2024 04 21 16:10  22 48 18.69    -28 27 35.3   169566 1.0046  61.2  m  15?  37.28  78.8    1 124 142  94
   2024 04 21 16:20  22 48 45.92    -28 26 24.2   169758 1.0046  61.1  m  15?  36.04  78.7    2 122 142  94
   2024 04 21 16:30  22 49 12.21    -28 25 14.5   169942 1.0046  61.0  m  15?  34.80  78.5    4 121 142  94
   2024 04 21 16:40  22 49 37.56    -28 24 06.1   170120 1.0046  60.9  m  15?  33.56  78.2    6 120 143  94
   2024 04 21 16:50  22 50 01.95    -28 22 58.7   170291 1.0046  60.8  m  15?  32.31  77.9    7 119 143  94
   2024 04 21 17:00  22 50 25.40    -28 21 52.0   170457 1.0045  60.8  m  15?  31.08  77.6    9 117 143  94
   2024 04 21 17:10  22 50 47.89    -28 20 45.9   170616 1.0045  60.7  m  15?  29.84  77.2   11 116 143  94
   2024 04 21 17:20  22 51 09.42    -28 19 40.2   170770 1.0045  60.6  m  15?  28.61  76.6   13 115 143  94
   2024 04 21 17:30  22 51 30.01    -28 18 34.5   170919 1.0045  60.6  m  15?  27.40  76.0   14 114 143  95
   2024 04 21 17:40  22 51 49.64    -28 17 28.7   171063 1.0045  60.5  m  15?  26.19  75.3   16 113 143  95
   2024 04 21 17:50  22 52 08.33    -28 16 22.6   171203 1.0045  60.4  m  15?  25.01  74.5   18 111 143  95
   2024 04 21 18:00  22 52 26.08    -28 15 15.9   171339 1.0045  60.4  m  15?  23.84  73.6   20 110 142  95
   2024 04 21 18:10  22 52 42.90    -28 14 08.5   171472 1.0045  60.3  m  15?  22.69  72.5   22 109 142  95
   2024 04 21 18:20  22 52 58.79    -28 13 00.0   171601 1.0045  60.3  m  15?  21.57  71.2   24 108 142  95
   2024 04 21 18:30  22 53 13.77    -28 11 50.3   171727 1.0045  60.2  m  15?  20.49  69.8   26 107 142  95
   2024 04 21 18:40  22 53 27.84    -28 10 39.1   171851 1.0045  60.2  m  15?  19.44  68.2   27 106 142  95
   2024 04 21 18:50  22 53 41.02    -28 09 26.2   171973 1.0045  60.1  m  15?  18.43  66.3   29 105 142  95
   2024 04 21 19:00  22 53 53.33    -28 08 11.5   172094 1.0045  60.1  m  15?  17.47  64.2   31 104 142  95
   2024 04 21 19:10  22 54 04.77    -28 06 54.6   172213 1.0045  60.0  m  15?  16.57  61.8   33 102 142  95
   2024 04 21 19:20  22 54 15.37    -28 05 35.5   172331 1.0045  60.0     15?  15.72  59.2   35 101 142  95
   2024 04 21 19:30  22 54 25.14    -28 04 13.8   172448 1.0045  60.0     15?  14.95  56.2   37 100 142  95
   2024 04 21 19:40  22 54 34.11    -28 02 49.5   172565 1.0045  59.9     15?  14.25  52.9   39  99 142  95
   2024 04 21 19:50  22 54 42.29    -28 01 22.2   172682 1.0045  59.9 A   15?  13.65  49.3   41  98 142  95
   2024 04 21 20:00  22 54 49.71    -27 59 51.8   172799 1.0045  59.9 A   15?  13.13  45.4   43  97 142  95
   2024 04 21 20:10  22 54 56.38    -27 58 18.2   172917 1.0045  59.8 A   15?  12.71  41.3   45  96 142  95
   2024 04 21 20:20  22 55 02.35    -27 56 41.1   173037 1.0045  59.8 N   15?  12.40  37.0   47  94 142  95
   2024 04 21 20:30  22 55 07.63    -27 55 00.4   173157 1.0045  59.8 N   15?  12.19  32.6   49  93 142  95
   2024 04 21 20:40  22 55 12.25    -27 53 15.9   173279 1.0045  59.8 N   15?  12.09  28.2   51  92 142  95
   2024 04 21 20:50  22 55 16.24    -27 51 27.5   173403 1.0045  59.7 C   15?  12.09  23.9   53  90 142  95
   2024 04 21 21:00  22 55 19.62    -27 49 35.0   173530 1.0045  59.7 C   15?  12.19  19.8   55  89 142  95
   ................
   2024 04 22 17:10  23 32 01.44    -20 46 18.3   180834 1.0046  49.6  r  15?  33.11  68.9    0 115 143  98
   2024 04 22 17:20  23 32 23.15    -20 44 18.8   180417 1.0046  49.5  m  15?  32.20  68.3    1 113 143  98
   2024 04 22 17:30  23 32 44.15    -20 42 19.3   179993 1.0046  49.4  m  15?  31.29  67.7    3 112 143  98
   2024 04 22 17:40  23 33 04.44    -20 40 19.7   179564 1.0046  49.3  m  15?  30.37  66.9    5 111 143  98
   2024 04 22 17:50  23 33 24.02    -20 38 19.8   179130 1.0046  49.2  m  15?  29.46  66.1    7 109 144  98
   2024 04 22 18:00  23 33 42.86    -20 36 19.4   178691 1.0046  49.2  m  15?  28.55  65.1    9 108 144  98
   2024 04 22 18:10  23 34 00.98    -20 34 18.5   178247 1.0046  49.1  m  15?  27.65  64.1   11 107 144  98
   2024 04 22 18:20  23 34 18.35    -20 32 16.7   177799 1.0046  49.0  m  15?  26.76  63.0   12 106 144  98
   2024 04 22 18:30  23 34 34.98    -20 30 13.9   177347 1.0046  49.0  m  15?  25.89  61.7   14 104 144  98
   2024 04 22 18:40  23 34 50.86    -20 28 10.0   176891 1.0046  48.9  m  15?  25.04  60.3   16 103 144  98
   2024 04 22 18:50  23 35 06.00    -20 26 04.8   176433 1.0046  48.8  m  15?  24.21  58.8   18 102 144  98
   2024 04 22 19:00  23 35 20.39    -20 23 58.1   175972 1.0046  48.8  m  15?  23.40  57.2   20 100 144  98
   2024 04 22 19:10  23 35 34.04    -20 21 49.7   175508 1.0046  48.7  m  15?  22.63  55.4   22  99 144  98
   2024 04 22 19:20  23 35 46.94    -20 19 39.5   175042 1.0046  48.7  m  15?  21.90  53.4   24  98 143  98
   2024 04 22 19:30  23 35 59.11    -20 17 27.2   174575 1.0046  48.6  m  15?  21.22  51.3   26  97 143  98
   2024 04 22 19:40  23 36 10.54    -20 15 12.7   174106 1.0046  48.6  m  15?  20.58  49.0   28  95 143  98
   2024 04 22 19:50  23 36 21.25    -20 12 55.8   173636 1.0046  48.5 Am  15?  19.99  46.6   30  94 143  98
   2024 04 22 20:00  23 36 31.24    -20 10 36.4   173166 1.0046  48.5 Am  15?  19.47  44.0   32  93 143  98
   2024 04 22 20:10  23 36 40.53    -20 08 14.2   172696 1.0046  48.4 Am  15?  19.01  41.3   34  91 143  98
   2024 04 22 20:20  23 36 49.13    -20 05 49.2   172225 1.0046  48.4 N   15?  18.62  38.5   36  90 143  98
   2024 04 22 20:30  23 36 57.04    -20 03 21.0   171755 1.0046  48.3 N   15?  18.30  35.5   38  88 143  98
   2024 04 22 20:40  23 37 04.29    -20 00 49.7   171286 1.0046  48.3 N   15?  18.06  32.5   40  87 143  98
   2024 04 22 20:50  23 37 10.89    -19 58 14.9   170818 1.0046  48.3 C   15?  17.89  29.5   42  85 143  98
   2024 04 22 21:00  23 37 16.86    -19 55 36.6   170351 1.0046  48.2 C   15?  17.80  26.5   44  84 143  98
   2024 04 22 21:10  23 37 22.21    -19 52 54.6   169886 1.0046  48.2 C   15?  17.78  23.5   46  82 143  98
   ................
   2024 04 23 19:20  00 54 05.17    -02 39 33.2    81733 1.0052  23.6  r  14? 176.50  47.5    0  93 158  99
   2024 04 23 19:30  00 55 32.96    -02 19 14.4    80246 1.0052  23.1  m  14? 181.63  47.0    1  91 159  99
   2024 04 23 19:40  00 57 02.52    -01 58 06.4    78743 1.0052  22.6  m  14? 187.17  46.4    2  90 159  99
   2024 04 23 19:50  00 58 34.03    -01 36 05.7    77223 1.0052  22.1 Am  14? 193.15  45.9    4  88 159  99
   2024 04 23 20:00  01 00 07.66    -01 13 08.3    75688 1.0052  21.5 Am  14? 199.64  45.3    6  87 160  99
   2024 04 23 20:10  01 01 43.61    -00 49 10.2    74136 1.0052  21.0 Am  14? 206.69  44.8    7  85 160  99
   2024 04 23 20:20  01 03 22.11    -00 24 06.6    72568 1.0052  20.4 Nm  14? 214.34  44.3    9  84 161  99
   2024 04 23 20:30  01 05 03.42    +00 02 07.6    70983 1.0052  19.8 Nm  14? 222.68  43.8   10  82 161  99
   2024 04 23 20:40  01 06 47.81    +00 29 38.1    69382 1.0052  19.2 Nm  14? 231.78  43.3   11  80 162  99
   2024 04 23 20:50  01 08 35.63    +00 58 31.2    67763 1.0052  18.5 Cm  14? 241.73  42.8   13  79 163  99
   2024 04 23 21:00  01 10 27.22    +01 28 54.1    66126 1.0052  17.8 Cm  14? 252.64  42.4   14  77 163  99
   2024 04 23 21:10  01 12 23.02    +02 00 54.8    64472 1.0052  17.1 Cm  14? 264.62  41.9   15  75 164  99
   ................
   2024 04 24 14:50  22 07 57.92    -33 38 00.9   120931 1.0057  73.9  r  13?  72.75  80.9    0 132  98  99
   2024 04 24 15:00  22 08 54.39    -33 36 09.2   121636 1.0057  73.7  m  14?  70.41  80.9    1 130  98  99
   2024 04 24 15:10  22 09 48.99    -33 34 20.5   122329 1.0057  73.5  m  14?  68.09  80.8    2 129  99  99
   2024 04 24 15:20  22 10 41.74    -33 32 34.7   123010 1.0057  73.4  m  14?  65.81  80.7    4 128  99  99
   2024 04 24 15:30  22 11 32.67    -33 30 51.3   123680 1.0057  73.2  m  14?  63.55  80.6    5 127  99  99
   2024 04 24 15:40  22 12 21.80    -33 29 10.2   124339 1.0057  73.0  m  14?  61.33  80.5    7 125  99  99
   2024 04 24 15:50  22 13 09.15    -33 27 30.9   124988 1.0057  72.9  m  14?  59.14  80.3    8 124  99  99
   2024 04 24 16:00  22 13 54.75    -33 25 53.2   125627 1.0057  72.7  m  14?  56.98  80.1   10 123  99  99
   2024 04 24 16:10  22 14 38.61    -33 24 16.8   126257 1.0057  72.6  m  14?  54.86  79.8   11 122  99  99
   2024 04 24 16:20  22 15 20.77    -33 22 41.4   126877 1.0057  72.5  m  14?  52.77  79.5   13 121  99  99
   2024 04 24 16:30  22 16 01.25    -33 21 06.6   127488 1.0056  72.3  m  14?  50.72  79.1   15 120  99  99
   2024 04 24 16:40  22 16 40.08    -33 19 32.2   128091 1.0056  72.2  m  14?  48.71  78.7   16 119  99  99
   2024 04 24 16:50  22 17 17.27    -33 17 57.9   128685 1.0056  72.1  m  14?  46.74  78.2   18 118 100  99
   2024 04 24 17:00  22 17 52.87    -33 16 23.4   129272 1.0056  72.0  m  14?  44.81  77.6   20 116 100  99
   2024 04 24 17:10  22 18 26.88    -33 14 48.3   129852 1.0056  71.9  m  14?  42.93  77.0   21 115 100  99
   2024 04 24 17:20  22 18 59.36    -33 13 12.4   130425 1.0056  71.8  m  14?  41.09  76.3   23 114 100  99
   2024 04 24 17:30  22 19 30.31    -33 11 35.4   130991 1.0056  71.7  m  14?  39.30  75.4   25 113 100  99
   2024 04 24 17:40  22 19 59.78    -33 09 57.0   131551 1.0056  71.6  m  14?  37.57  74.5   27 112 100  99
   2024 04 24 17:50  22 20 27.80    -33 08 16.9   132106 1.0056  71.5  m  14?  35.90  73.5   29 111 100  99
   2024 04 24 18:00  22 20 54.40    -33 06 34.9   132655 1.0056  71.4  m  14?  34.28  72.3   30 110 100  99
   2024 04 24 18:10  22 21 19.61    -33 04 50.6   133199 1.0056  71.3  m  14?  32.73  71.0   32 110 100  99
   2024 04 24 18:20  22 21 43.47    -33 03 03.8   133739 1.0056  71.2  m  14?  31.25  69.6   34 109 100  99
   2024 04 24 18:30  22 22 06.01    -33 01 14.2   134274 1.0056  71.2  m  14?  29.84  68.0   36 108 100  99
   2024 04 24 18:40  22 22 27.28    -32 59 21.6   134806 1.0056  71.1  m  14?  28.51  66.2   38 107 100  99
   2024 04 24 18:50  22 22 47.30    -32 57 25.7   135334 1.0056  71.0  m  14?  27.26  64.2   40 106 100  99
   2024 04 24 19:00  22 23 06.13    -32 55 26.3   135860 1.0056  70.9  m  14?  26.10  62.1   42 105 100  99
   2024 04 24 19:10  22 23 23.79    -32 53 23.2   136382 1.0056  70.9  m  14?  25.04  59.8   44 104 100  99
   2024 04 24 19:20  22 23 40.33    -32 51 16.1   136903 1.0056  70.8  m  14?  24.08  57.3   46 103 100  99
   2024 04 24 19:30  22 23 55.80    -32 49 04.8   137421 1.0056  70.8  m  14?  23.22  54.7   47 102 100  99
   2024 04 24 19:40  22 24 10.24    -32 46 49.2   137938 1.0056  70.7  m  14?  22.47  51.9   49 101 100  99
   2024 04 24 19:50  22 24 23.69    -32 44 29.0   138453 1.0056  70.6 Am  14?  21.83  49.0   51 100 100  99
   2024 04 24 20:00  22 24 36.19    -32 42 04.0   138968 1.0056  70.6 Am  14?  21.30  46.0   53  99 100  99
   2024 04 24 20:10  22 24 47.80    -32 39 34.1   139482 1.0056  70.5 Am  14?  20.89  42.9   55  98 100  99
   2024 04 24 20:20  22 24 58.56    -32 36 59.2   139995 1.0056  70.5 Nm  14?  20.59  39.8   57  97 100  99
   2024 04 24 20:30  22 25 08.52    -32 34 19.0   140509 1.0056  70.4 Nm  14?  20.40  36.7   59  96 100  99
   2024 04 24 20:40  22 25 17.72    -32 31 33.5   141022 1.0056  70.4 Nm  14?  20.31  33.7   61  95 100  99
   2024 04 24 20:50  22 25 26.22    -32 28 42.5   141536 1.0056  70.4 Cm  14?  20.31  30.9   63  94 100  99
   2024 04 24 21:00  22 25 34.06    -32 25 46.0   142051 1.0056  70.3 Cm  14?  20.41  28.2   65  92 100  99
   2024 04 24 21:10  22 25 41.29    -32 22 43.8   142567 1.0056  70.3 Cm  14?  20.58  25.6   67  91 100  99
   ................
   2024 04 25 16:20  23 09 54.29    -24 49 36.0   185696 1.0055  58.8  r  15?  32.30  75.1    0 120 102  97
   2024 04 25 16:30  23 10 16.81    -24 48 13.5   185589 1.0055  58.7  m  15?  31.28  74.8    1 119 102  97
   2024 04 25 16:40  23 10 38.57    -24 46 51.9   185475 1.0055  58.6  m  15?  30.26  74.4    3 118 102  97
   2024 04 25 16:50  23 10 59.55    -24 45 31.0   185356 1.0055  58.5  m  15?  29.23  74.0    4 116 102  97
   2024 04 25 17:00  23 11 19.77    -24 44 10.8   185231 1.0055  58.5  m  15?  28.20  73.5    6 115 102  97
   2024 04 25 17:10  23 11 39.19    -24 42 50.9   185100 1.0055  58.4  m  15?  27.17  72.9    8 114 102  97
   2024 04 25 17:20  23 11 57.83    -24 41 31.2   184965 1.0055  58.3  m  15?  26.14  72.2   10 112 102  97
   2024 04 25 17:30  23 12 15.68    -24 40 11.5   184825 1.0055  58.3  m  15?  25.12  71.5   12 111 102  97
   2024 04 25 17:40  23 12 32.73    -24 38 51.7   184681 1.0055  58.2  m  15?  24.10  70.6   13 110 102  97
   2024 04 25 17:50  23 12 48.98    -24 37 31.5   184533 1.0055  58.2  m  15?  23.10  69.6   15 109 102  97
   2024 04 25 18:00  23 13 04.44    -24 36 10.7   184381 1.0055  58.1  m  15?  22.12  68.5   17 107 102  97
   2024 04 25 18:10  23 13 19.11    -24 34 49.2   184226 1.0055  58.1  m  15?  21.15  67.2   19 106 102  97
   2024 04 25 18:20  23 13 32.98    -24 33 26.8   184069 1.0055  58.0  m  15?  20.20  65.7   21 105 102  97
   2024 04 25 18:30  23 13 46.06    -24 32 03.2   183909 1.0055  58.0  m  15?  19.29  64.1   23 104 102  97
   2024 04 25 18:40  23 13 58.37    -24 30 38.3   183747 1.0055  57.9  m  15?  18.40  62.3   25 103 102  96
   2024 04 25 18:50  23 14 09.89    -24 29 12.0   183584 1.0055  57.9  m  15?  17.56  60.2   27 101 102  96
   2024 04 25 19:00  23 14 20.65    -24 27 43.9   183419 1.0055  57.8  m  15?  16.76  57.9   29 100 102  96
   2024 04 25 19:10  23 14 30.66    -24 26 14.0   183254 1.0055  57.8  m  15?  16.01  55.4   31  99 102  96
   2024 04 25 19:20  23 14 39.91    -24 24 42.0   183088 1.0055  57.7  m  15?  15.32  52.6   33  98 102  96
   2024 04 25 19:30  23 14 48.44    -24 23 07.7   182921 1.0055  57.7  m  15?  14.69  49.5   35  97 102  96
   2024 04 25 19:40  23 14 56.24    -24 21 31.1   182755 1.0055  57.7  m  15?  14.14  46.2   37  95 102  96
   2024 04 25 19:50  23 15 03.34    -24 19 51.8   182590 1.0055  57.6 Am  15?  13.67  42.6   39  94 102  96
   2024 04 25 20:00  23 15 09.75    -24 18 09.8   182425 1.0055  57.6 Am  15?  13.28  38.9   41  93 102  96
   2024 04 25 20:10  23 15 15.50    -24 16 24.9   182261 1.0055  57.6 Am  15?  12.98  34.9   43  91 102  96
   2024 04 25 20:20  23 15 20.59    -24 14 36.8   182099 1.0055  57.6 Nm  15?  12.77  30.9   45  90 102  96
   2024 04 25 20:30  23 15 25.06    -24 12 45.5   181939 1.0055  57.5 Nm  15?  12.65  26.9   47  88 102  96
   2024 04 25 20:40  23 15 28.92    -24 10 50.9   181781 1.0055  57.5 Nm  15?  12.63  22.9   49  87 102  96
   2024 04 25 20:50  23 15 32.19    -24 08 52.6   181625 1.0055  57.5 Cm  15?  12.68  19.0   51  85 102  96
   2024 04 25 21:00  23 15 34.91    -24 06 50.7   181472 1.0055  57.5 Cm  15?  12.82  15.3   53  84 102  96
   2024 04 25 21:10  23 15 37.10    -24 04 45.0   181322 1.0055  57.4 Cm  15?  13.03  11.8   55  82 101  96
   ................
   2024 04 26 17:40  23 56 45.19    -15 38 41.3   152906 1.0057  45.4  r  15?  46.21  59.5    1 108 103  92
   2024 04 26 17:50  23 57 12.44    -15 34 45.5   152145 1.0057  45.3  m  15?  45.52  58.7    2 106 103  92
   2024 04 26 18:00  23 57 39.03    -15 30 47.4   151377 1.0057  45.2  m  15?  44.83  57.8    4 105 103  92
   2024 04 26 18:10  23 58 04.94    -15 26 46.7   150602 1.0057  45.1  m  15?  44.16  56.8    6 104 103  92
   2024 04 26 18:20  23 58 30.17    -15 22 43.3   149822 1.0057  45.0  m  15?  43.49  55.8    8 102 103  92
   2024 04 26 18:30  23 58 54.70    -15 18 37.0   149036 1.0057  44.8  m  15?  42.84  54.7   10 101 103  92
   2024 04 26 18:40  23 59 18.53    -15 14 27.5   148244 1.0058  44.7  m  15?  42.21  53.6   12 100 103  92
   2024 04 26 18:50  23 59 41.64    -15 10 14.7   147447 1.0058  44.6  m  15?  41.60  52.4   14  98 103  92
   2024 04 26 19:00  00 00 04.05    -15 05 58.4   146646 1.0058  44.5  m  15?  41.03  51.1   16  97 104  92
   2024 04 26 19:10  00 00 25.73    -15 01 38.2   145840 1.0058  44.4  m  15?  40.48  49.7   18  95 104  92
   2024 04 26 19:20  00 00 46.70    -14 57 14.1   145031 1.0058  44.3  m  15?  39.97  48.3   20  94 104  92
   2024 04 26 19:30  00 01 06.95    -14 52 45.8   144217 1.0058  44.2  m  15?  39.49  46.9   21  93 104  92
   2024 04 26 19:40  00 01 26.47    -14 48 13.0   143400 1.0058  44.1  m  15?  39.07  45.3   23  91 104  92
   2024 04 26 19:50  00 01 45.28    -14 43 35.6   142581 1.0058  44.0 Am  15?  38.68  43.8   25  90 104  92
   2024 04 26 20:00  00 02 03.38    -14 38 53.3   141758 1.0058  43.9 Am  15?  38.35  42.2   27  88 104  92
   2024 04 26 20:10  00 02 20.77    -14 34 05.8   140933 1.0058  43.8 Am  15?  38.07  40.5   29  87 104  92
   2024 04 26 20:20  00 02 37.46    -14 29 13.1   140106 1.0058  43.7 Nm  15?  37.85  38.8   31  85 104  92
   2024 04 26 20:30  00 02 53.46    -14 24 14.8   139277 1.0058  43.6 Nm  15?  37.69  37.1   33  84 104  92
   2024 04 26 20:40  00 03 08.78    -14 19 10.8   138446 1.0058  43.5 Nm  15?  37.59  35.4   35  82 104  92
   2024 04 26 20:50  00 03 23.43    -14 14 00.7   137615 1.0058  43.4 Cm  15?  37.56  33.7   37  80 104  92
   2024 04 26 21:00  00 03 37.43    -14 08 44.4   136782 1.0058  43.3 Cm  15?  37.58  31.9   39  79 104  92
   2024 04 26 21:10  00 03 50.79    -14 03 21.6   135948 1.0058  43.2 Cm  15?  37.68  30.2   41  77 104  92
   ................
   2024 04 27 14:20  11 09 34.66    +42 14 56.7     6663 1.0067 108.6  r   7?  14761 125.8    3 329 108  86
   2024 04 27 14:30  13 40 33.07    +09 22 27.1     5847 1.0067 154.6  m   8?  16630 139.6   45 349  63  86
   2024 04 27 14:40  15 18 23.59    -18 00 59.4     7568 1.0067 165.5  t   9? 9555.1 135.2   69  41  28  86
   2024 04 27 14:50  16 23 40.47    -31 04 47.1    10285 1.0068 147.0  e   9? 5213.6 126.5   66  89  11  86
   2024 04 27 15:00  17 10 05.92    -37 17 48.1    13174 1.0068 135.7  m  10? 3246.4 118.7   59 106  10  86
   2024 04 27 15:10  17 44 51.42    -40 33 13.9    16011 1.0068 128.3  m  10? 2249.1 112.2   55 113  14  86
   2024 04 27 15:20  18 11 55.52    -42 23 16.7    18741 1.0068 123.0  m  10? 1676.1 107.0   52 116  18  86
   2024 04 27 15:30  18 33 39.60    -43 27 52.4    21354 1.0068 118.9  m  10? 1313.7 102.8   50 118  22  86
   2024 04 27 15:40  18 51 32.45    -44 06 18.6    23857 1.0068 115.6  m  10? 1067.6  99.3   48 119  25  86
   2024 04 27 15:50  19 06 32.56    -44 28 46.9    26257 1.0068 112.9  m  10? 891.32  96.3   48 120  27  86
   2024 04 27 16:00  19 19 20.01    -44 41 03.9    28564 1.0068 110.6  m  11? 759.69  93.7   47 120  29  86
   2024 04 27 16:10  19 30 23.17    -44 46 37.2    30787 1.0068 108.7  m  11? 658.16  91.4   47 120  31  86
   2024 04 27 16:20  19 40 02.70    -44 47 36.5    32932 1.0068 107.0  m  11? 577.76  89.4   47 120  33  86
   2024 04 27 16:30  19 48 34.01    -44 45 25.9    35007 1.0068 105.5  m  11? 512.71  87.5   47 120  34  86
   2024 04 27 16:40  19 56 08.85    -44 41 01.8    37018 1.0068 104.1  m  11? 459.12  85.9   48 120  35  86
   2024 04 27 16:50  20 02 56.33    -44 35 02.4    38969 1.0068 102.9  m  11? 414.31  84.3   48 120  36  86
   2024 04 27 17:00  20 09 03.66    -44 27 54.4    40866 1.0068 101.8  m  11? 376.35  82.9   49 120  37  86
   2024 04 27 17:10  20 14 36.59    -44 19 57.0    42713 1.0068 100.8  m  11? 343.84  81.5   50 119  38  86
   2024 04 27 17:20  20 19 39.80    -44 11 23.5    44512 1.0068  99.9  m  11? 315.74  80.2   51 119  39  86
   2024 04 27 17:30  20 24 17.11    -44 02 24.0    46269 1.0068  99.1  m  11? 291.25  79.0   52 119  40  86
   2024 04 27 17:40  20 28 31.72    -43 53 05.5    47984 1.0068  98.3  m  11? 269.75  77.7   53 118  40  86
   2024 04 27 17:50  20 32 26.28    -43 43 33.4    49662 1.0068  97.6  m  11? 250.77  76.5   54 118  41  86
   2024 04 27 18:00  20 36 03.06    -43 33 51.5    51305 1.0068  96.9  m  11? 233.91  75.4   55 118  42  86
   2024 04 27 18:10  20 39 23.96    -43 24 02.8    52914 1.0068  96.3  m  11? 218.87  74.2   56 117  42  86
   2024 04 27 18:20  20 42 30.65    -43 14 09.4    54493 1.0068  95.7  m  11? 205.41  73.0   57 117  43  86
   2024 04 27 18:30  20 45 24.55    -43 04 12.7    56042 1.0068  95.2  m  12? 193.31  71.9   59 117  43  86
   2024 04 27 18:40  20 48 06.90    -42 54 13.9    57564 1.0068  94.7  m  12? 182.41  70.7   60 117  44  86
   2024 04 27 18:50  20 50 38.79    -42 44 13.9    59060 1.0067  94.2  m  12? 172.56  69.5   61 117  44  86
   2024 04 27 19:00  20 53 01.19    -42 34 13.1    60532 1.0067  93.7  m  12? 163.65  68.3   63 117  44  86
   2024 04 27 19:10  20 55 14.93    -42 24 11.9    61981 1.0067  93.3  m  12? 155.57  67.2   64 117  45  86
   2024 04 27 19:20  20 57 20.79    -42 14 10.7    63408 1.0067  92.9  m  12? 148.24  66.0   66 117  45  85
   2024 04 27 19:30  20 59 19.43    -42 04 09.5    64815 1.0067  92.5  m  12? 141.58  64.8   67 117  45  85
   2024 04 27 19:40  21 01 11.47    -41 54 08.4    66203 1.0067  92.1  m  12? 135.52  63.6   69 117  46  85
   2024 04 27 19:50  21 02 57.45    -41 44 07.5    67573 1.0067  91.7  m  12? 130.02  62.4   70 118  46  85
   2024 04 27 20:00  21 04 37.88    -41 34 06.7    68926 1.0067  91.4 Am  12? 125.01  61.2   72 119  46  85
   2024 04 27 20:10  21 06 13.20    -41 24 05.9    70262 1.0067  91.1 Am  12? 120.46  60.0   73 120  47  85
   2024 04 27 20:20  21 07 43.84    -41 14 05.3    71584 1.0067  90.8 Nm  12? 116.33  58.8   75 121  47  85
   2024 04 27 20:30  21 09 10.17    -41 04 04.6    72891 1.0067  90.4 Nm  12? 112.57  57.6   77 123  47  85
   2024 04 27 20:40  21 10 32.53    -40 54 03.9    74185 1.0067  90.2 Nm  12? 109.16  56.5   78 126  47  85
   2024 04 27 20:50  21 11 51.25    -40 44 03.0    75465 1.0067  89.9 Cm  12? 106.07  55.4   80 130  47  85
   2024 04 27 21:00  21 13 06.62    -40 34 02.1    76734 1.0067  89.6 Cm  12? 103.26  54.3   81 136  48  85
   2024 04 27 21:10  21 14 18.91    -40 24 00.9    77991 1.0067  89.3 Cm  12? 100.73  53.3   82 144  48  85
   ................
   

Bill Grays ephemeris for selected ARTSATs for this station you'll find for the next 72 hours here.

Website generated with AmrumHtml. Date: 04-14-2024